<?xml version="1.0" encoding="UTF-8" standalone="no" ?>
<gpx xmlns="http://www.topografix.com/GPX/1/1" xmlns:xsi="http://www.w3.org/2001/XMLSchema-instance" xsi:schemaLocation="http://www.topografix.com/GPX/1/1 http://www.topografix.com/GPX/1/1/gpx.xsd" version="1.1" creator="VisuGPX - https://www.visugpx.com">
  <metadata>
    <name>Boucle en 8 Laragne Sigoyer</name>
    <desc><![CDATA[Départ de Laragne via Lazer Ventavon Monetier Theze Sigoyer Melve Claret Monetier Rourebeau Upaix Lazer et retour à Laragne. ]]></desc>
  </metadata>
  <trk>
    <name><![CDATA[Boucle en 8 Laragne Sigoyer_1]]></name>
    <trkseg>
      <trkpt lat="44.31596" lon="5.82962">
        <ele>555</ele>
        <time>2019-03-16T12:55:10Z</time>
      </trkpt>
      <trkpt lat="44.3158" lon="5.82931">
        <ele>571</ele>
        <time>2019-03-16T12:55:39Z</time>
      </trkpt>
      <trkpt lat="44.31576" lon="5.8293">
        <ele>571</ele>
        <time>2019-03-16T12:55:40Z</time>
      </trkpt>
      <trkpt lat="44.31572" lon="5.82928">
        <ele>571</ele>
        <time>2019-03-16T12:55:41Z</time>
      </trkpt>
      <trkpt lat="44.31569" lon="5.82925">
        <ele>570</ele>
        <time>2019-03-16T12:55:42Z</time>
      </trkpt>
      <trkpt lat="44.31565" lon="5.82922">
        <ele>570</ele>
        <time>2019-03-16T12:55:43Z</time>
      </trkpt>
      <trkpt lat="44.31561" lon="5.82919">
        <ele>570</ele>
        <time>2019-03-16T12:55:44Z</time>
      </trkpt>
      <trkpt lat="44.31558" lon="5.82916">
        <ele>569</ele>
        <time>2019-03-16T12:55:45Z</time>
      </trkpt>
      <trkpt lat="44.31554" lon="5.82913">
        <ele>569</ele>
        <time>2019-03-16T12:55:46Z</time>
      </trkpt>
      <trkpt lat="44.3155" lon="5.82911">
        <ele>568</ele>
        <time>2019-03-16T12:55:47Z</time>
      </trkpt>
      <trkpt lat="44.31546" lon="5.82908">
        <ele>568</ele>
        <time>2019-03-16T12:55:48Z</time>
      </trkpt>
      <trkpt lat="44.31543" lon="5.82905">
        <ele>568</ele>
        <time>2019-03-16T12:55:49Z</time>
      </trkpt>
      <trkpt lat="44.31539" lon="5.82901">
        <ele>567</ele>
        <time>2019-03-16T12:55:50Z</time>
      </trkpt>
      <trkpt lat="44.31535" lon="5.82897">
        <ele>567</ele>
        <time>2019-03-16T12:55:51Z</time>
      </trkpt>
      <trkpt lat="44.31532" lon="5.82894">
        <ele>567</ele>
        <time>2019-03-16T12:55:52Z</time>
      </trkpt>
      <trkpt lat="44.31528" lon="5.8289">
        <ele>567</ele>
        <time>2019-03-16T12:55:53Z</time>
      </trkpt>
      <trkpt lat="44.31524" lon="5.82886">
        <ele>567</ele>
        <time>2019-03-16T12:55:54Z</time>
      </trkpt>
      <trkpt lat="44.3152" lon="5.82882">
        <ele>567</ele>
        <time>2019-03-16T12:55:55Z</time>
      </trkpt>
      <trkpt lat="44.31517" lon="5.82879">
        <ele>567</ele>
        <time>2019-03-16T12:55:56Z</time>
      </trkpt>
      <trkpt lat="44.31513" lon="5.82875">
        <ele>567</ele>
        <time>2019-03-16T12:55:57Z</time>
      </trkpt>
      <trkpt lat="44.31509" lon="5.82872">
        <ele>567</ele>
        <time>2019-03-16T12:55:58Z</time>
      </trkpt>
      <trkpt lat="44.31505" lon="5.82871">
        <ele>567</ele>
        <time>2019-03-16T12:55:59Z</time>
      </trkpt>
      <trkpt lat="44.31501" lon="5.82872">
        <ele>567</ele>
        <time>2019-03-16T12:56:00Z</time>
      </trkpt>
      <trkpt lat="44.31496" lon="5.82875">
        <ele>567</ele>
        <time>2019-03-16T12:56:01Z</time>
      </trkpt>
      <trkpt lat="44.31492" lon="5.82879">
        <ele>567</ele>
        <time>2019-03-16T12:56:02Z</time>
      </trkpt>
      <trkpt lat="44.31489" lon="5.82884">
        <ele>567</ele>
        <time>2019-03-16T12:56:03Z</time>
      </trkpt>
      <trkpt lat="44.31486" lon="5.82889">
        <ele>567</ele>
        <time>2019-03-16T12:56:04Z</time>
      </trkpt>
      <trkpt lat="44.31483" lon="5.82894">
        <ele>567</ele>
        <time>2019-03-16T12:56:05Z</time>
      </trkpt>
      <trkpt lat="44.3148" lon="5.82899">
        <ele>567</ele>
        <time>2019-03-16T12:56:06Z</time>
      </trkpt>
      <trkpt lat="44.31477" lon="5.82904">
        <ele>567</ele>
        <time>2019-03-16T12:56:07Z</time>
      </trkpt>
      <trkpt lat="44.31474" lon="5.82909">
        <ele>567</ele>
        <time>2019-03-16T12:56:08Z</time>
      </trkpt>
      <trkpt lat="44.31471" lon="5.82913">
        <ele>567</ele>
        <time>2019-03-16T12:56:09Z</time>
      </trkpt>
      <trkpt lat="44.31467" lon="5.82918">
        <ele>566</ele>
        <time>2019-03-16T12:56:11Z</time>
      </trkpt>
      <trkpt lat="44.31464" lon="5.82922">
        <ele>566</ele>
        <time>2019-03-16T12:56:11Z</time>
      </trkpt>
      <trkpt lat="44.31461" lon="5.82927">
        <ele>566</ele>
        <time>2019-03-16T12:56:12Z</time>
      </trkpt>
      <trkpt lat="44.31458" lon="5.82932">
        <ele>566</ele>
        <time>2019-03-16T12:56:13Z</time>
      </trkpt>
      <trkpt lat="44.31454" lon="5.82937">
        <ele>566</ele>
        <time>2019-03-16T12:56:14Z</time>
      </trkpt>
      <trkpt lat="44.31451" lon="5.82942">
        <ele>565</ele>
        <time>2019-03-16T12:56:15Z</time>
      </trkpt>
      <trkpt lat="44.31448" lon="5.82947">
        <ele>565</ele>
        <time>2019-03-16T12:56:16Z</time>
      </trkpt>
      <trkpt lat="44.31444" lon="5.82952">
        <ele>565</ele>
        <time>2019-03-16T12:56:17Z</time>
      </trkpt>
      <trkpt lat="44.31441" lon="5.82957">
        <ele>565</ele>
        <time>2019-03-16T12:56:18Z</time>
      </trkpt>
      <trkpt lat="44.31437" lon="5.82962">
        <ele>565</ele>
        <time>2019-03-16T12:56:19Z</time>
      </trkpt>
      <trkpt lat="44.31434" lon="5.82967">
        <ele>565</ele>
        <time>2019-03-16T12:56:20Z</time>
      </trkpt>
      <trkpt lat="44.31431" lon="5.82971">
        <ele>565</ele>
        <time>2019-03-16T12:56:21Z</time>
      </trkpt>
      <trkpt lat="44.31429" lon="5.82976">
        <ele>565</ele>
        <time>2019-03-16T12:56:22Z</time>
      </trkpt>
      <trkpt lat="44.31426" lon="5.82981">
        <ele>565</ele>
        <time>2019-03-16T12:56:23Z</time>
      </trkpt>
      <trkpt lat="44.31422" lon="5.82986">
        <ele>565</ele>
        <time>2019-03-16T12:56:24Z</time>
      </trkpt>
      <trkpt lat="44.31419" lon="5.8299">
        <ele>565</ele>
        <time>2019-03-16T12:56:25Z</time>
      </trkpt>
      <trkpt lat="44.31416" lon="5.82995">
        <ele>565</ele>
        <time>2019-03-16T12:56:26Z</time>
      </trkpt>
      <trkpt lat="44.31413" lon="5.82999">
        <ele>565</ele>
        <time>2019-03-16T12:56:27Z</time>
      </trkpt>
      <trkpt lat="44.3141" lon="5.83004">
        <ele>565</ele>
        <time>2019-03-16T12:56:28Z</time>
      </trkpt>
      <trkpt lat="44.31407" lon="5.83008">
        <ele>565</ele>
        <time>2019-03-16T12:56:29Z</time>
      </trkpt>
      <trkpt lat="44.31404" lon="5.83013">
        <ele>565</ele>
        <time>2019-03-16T12:56:30Z</time>
      </trkpt>
      <trkpt lat="44.31401" lon="5.83018">
        <ele>565</ele>
        <time>2019-03-16T12:56:31Z</time>
      </trkpt>
      <trkpt lat="44.31397" lon="5.83023">
        <ele>565</ele>
        <time>2019-03-16T12:56:32Z</time>
      </trkpt>
      <trkpt lat="44.31394" lon="5.83028">
        <ele>565</ele>
        <time>2019-03-16T12:56:33Z</time>
      </trkpt>
      <trkpt lat="44.3139" lon="5.83033">
        <ele>565</ele>
        <time>2019-03-16T12:56:34Z</time>
      </trkpt>
      <trkpt lat="44.31387" lon="5.83037">
        <ele>565</ele>
        <time>2019-03-16T12:56:35Z</time>
      </trkpt>
      <trkpt lat="44.31384" lon="5.83042">
        <ele>565</ele>
        <time>2019-03-16T12:56:36Z</time>
      </trkpt>
      <trkpt lat="44.3138" lon="5.83046">
        <ele>565</ele>
        <time>2019-03-16T12:56:37Z</time>
      </trkpt>
      <trkpt lat="44.31377" lon="5.83051">
        <ele>565</ele>
        <time>2019-03-16T12:56:38Z</time>
      </trkpt>
      <trkpt lat="44.31374" lon="5.83056">
        <ele>565</ele>
        <time>2019-03-16T12:56:39Z</time>
      </trkpt>
      <trkpt lat="44.31372" lon="5.83061">
        <ele>565</ele>
        <time>2019-03-16T12:56:40Z</time>
      </trkpt>
      <trkpt lat="44.31369" lon="5.83066">
        <ele>565</ele>
        <time>2019-03-16T12:56:41Z</time>
      </trkpt>
      <trkpt lat="44.31367" lon="5.83071">
        <ele>565</ele>
        <time>2019-03-16T12:56:42Z</time>
      </trkpt>
      <trkpt lat="44.31365" lon="5.83076">
        <ele>565</ele>
        <time>2019-03-16T12:56:43Z</time>
      </trkpt>
      <trkpt lat="44.31363" lon="5.83081">
        <ele>565</ele>
        <time>2019-03-16T12:56:44Z</time>
      </trkpt>
      <trkpt lat="44.31361" lon="5.83086">
        <ele>565</ele>
        <time>2019-03-16T12:56:45Z</time>
      </trkpt>
      <trkpt lat="44.31359" lon="5.83091">
        <ele>565</ele>
        <time>2019-03-16T12:56:46Z</time>
      </trkpt>
      <trkpt lat="44.31357" lon="5.83096">
        <ele>565</ele>
        <time>2019-03-16T12:56:47Z</time>
      </trkpt>
      <trkpt lat="44.31355" lon="5.831">
        <ele>565</ele>
        <time>2019-03-16T12:56:48Z</time>
      </trkpt>
      <trkpt lat="44.31353" lon="5.83102">
        <ele>565</ele>
        <time>2019-03-16T12:56:49Z</time>
      </trkpt>
      <trkpt lat="44.3135" lon="5.83103">
        <ele>565</ele>
        <time>2019-03-16T12:56:50Z</time>
      </trkpt>
      <trkpt lat="44.31348" lon="5.83103">
        <ele>565</ele>
        <time>2019-03-16T12:56:51Z</time>
      </trkpt>
      <trkpt lat="44.31347" lon="5.83102">
        <ele>565</ele>
        <time>2019-03-16T12:56:52Z</time>
      </trkpt>
      <trkpt lat="44.31345" lon="5.831">
        <ele>565</ele>
        <time>2019-03-16T12:56:53Z</time>
      </trkpt>
      <trkpt lat="44.31343" lon="5.83096">
        <ele>565</ele>
        <time>2019-03-16T12:56:54Z</time>
      </trkpt>
      <trkpt lat="44.31342" lon="5.83091">
        <ele>565</ele>
        <time>2019-03-16T12:56:55Z</time>
      </trkpt>
      <trkpt lat="44.31342" lon="5.83085">
        <ele>565</ele>
        <time>2019-03-16T12:56:56Z</time>
      </trkpt>
      <trkpt lat="44.31343" lon="5.83079">
        <ele>565</ele>
        <time>2019-03-16T12:56:57Z</time>
      </trkpt>
      <trkpt lat="44.31343" lon="5.83074">
        <ele>565</ele>
        <time>2019-03-16T12:56:58Z</time>
      </trkpt>
      <trkpt lat="44.31344" lon="5.83068">
        <ele>565</ele>
        <time>2019-03-16T12:56:59Z</time>
      </trkpt>
      <trkpt lat="44.31345" lon="5.83061">
        <ele>565</ele>
        <time>2019-03-16T12:57:00Z</time>
      </trkpt>
      <trkpt lat="44.31347" lon="5.83055">
        <ele>565</ele>
        <time>2019-03-16T12:57:01Z</time>
      </trkpt>
      <trkpt lat="44.31348" lon="5.83048">
        <ele>565</ele>
        <time>2019-03-16T12:57:02Z</time>
      </trkpt>
      <trkpt lat="44.3135" lon="5.83041">
        <ele>565</ele>
        <time>2019-03-16T12:57:03Z</time>
      </trkpt>
      <trkpt lat="44.31351" lon="5.83035">
        <ele>565</ele>
        <time>2019-03-16T12:57:04Z</time>
      </trkpt>
      <trkpt lat="44.31352" lon="5.83028">
        <ele>565</ele>
        <time>2019-03-16T12:57:05Z</time>
      </trkpt>
      <trkpt lat="44.31353" lon="5.8302">
        <ele>565</ele>
        <time>2019-03-16T12:57:06Z</time>
      </trkpt>
      <trkpt lat="44.31355" lon="5.83013">
        <ele>565</ele>
        <time>2019-03-16T12:57:07Z</time>
      </trkpt>
      <trkpt lat="44.31356" lon="5.83006">
        <ele>565</ele>
        <time>2019-03-16T12:57:08Z</time>
      </trkpt>
      <trkpt lat="44.31356" lon="5.82998">
        <ele>565</ele>
        <time>2019-03-16T12:57:09Z</time>
      </trkpt>
      <trkpt lat="44.31358" lon="5.82989">
        <ele>565</ele>
        <time>2019-03-16T12:57:11Z</time>
      </trkpt>
      <trkpt lat="44.31359" lon="5.82981">
        <ele>565</ele>
        <time>2019-03-16T12:57:11Z</time>
      </trkpt>
      <trkpt lat="44.3136" lon="5.82972">
        <ele>565</ele>
        <time>2019-03-16T12:57:12Z</time>
      </trkpt>
      <trkpt lat="44.31361" lon="5.82963">
        <ele>565</ele>
        <time>2019-03-16T12:57:13Z</time>
      </trkpt>
      <trkpt lat="44.31362" lon="5.82954">
        <ele>565</ele>
        <time>2019-03-16T12:57:14Z</time>
      </trkpt>
      <trkpt lat="44.31363" lon="5.82944">
        <ele>565</ele>
        <time>2019-03-16T12:57:15Z</time>
      </trkpt>
      <trkpt lat="44.31364" lon="5.82935">
        <ele>565</ele>
        <time>2019-03-16T12:57:16Z</time>
      </trkpt>
      <trkpt lat="44.31365" lon="5.82925">
        <ele>565</ele>
        <time>2019-03-16T12:57:17Z</time>
      </trkpt>
      <trkpt lat="44.31366" lon="5.82916">
        <ele>565</ele>
        <time>2019-03-16T12:57:18Z</time>
      </trkpt>
      <trkpt lat="44.31367" lon="5.82906">
        <ele>565</ele>
        <time>2019-03-16T12:57:19Z</time>
      </trkpt>
      <trkpt lat="44.31369" lon="5.82897">
        <ele>565</ele>
        <time>2019-03-16T12:57:20Z</time>
      </trkpt>
      <trkpt lat="44.31369" lon="5.82888">
        <ele>565</ele>
        <time>2019-03-16T12:57:21Z</time>
      </trkpt>
      <trkpt lat="44.3137" lon="5.82879">
        <ele>565</ele>
        <time>2019-03-16T12:57:22Z</time>
      </trkpt>
      <trkpt lat="44.31371" lon="5.8287">
        <ele>565</ele>
        <time>2019-03-16T12:57:23Z</time>
      </trkpt>
      <trkpt lat="44.31372" lon="5.82861">
        <ele>565</ele>
        <time>2019-03-16T12:57:24Z</time>
      </trkpt>
      <trkpt lat="44.31373" lon="5.82852">
        <ele>565</ele>
        <time>2019-03-16T12:57:26Z</time>
      </trkpt>
      <trkpt lat="44.31374" lon="5.82842">
        <ele>565</ele>
        <time>2019-03-16T12:57:26Z</time>
      </trkpt>
      <trkpt lat="44.31375" lon="5.82833">
        <ele>565</ele>
        <time>2019-03-16T12:57:27Z</time>
      </trkpt>
      <trkpt lat="44.31376" lon="5.82824">
        <ele>565</ele>
        <time>2019-03-16T12:57:28Z</time>
      </trkpt>
      <trkpt lat="44.31377" lon="5.82815">
        <ele>565</ele>
        <time>2019-03-16T12:57:29Z</time>
      </trkpt>
      <trkpt lat="44.31377" lon="5.82805">
        <ele>565</ele>
        <time>2019-03-16T12:57:30Z</time>
      </trkpt>
      <trkpt lat="44.31378" lon="5.82796">
        <ele>565</ele>
        <time>2019-03-16T12:57:31Z</time>
      </trkpt>
      <trkpt lat="44.31378" lon="5.82787">
        <ele>565</ele>
        <time>2019-03-16T12:57:32Z</time>
      </trkpt>
      <trkpt lat="44.31379" lon="5.82779">
        <ele>565</ele>
        <time>2019-03-16T12:57:33Z</time>
      </trkpt>
      <trkpt lat="44.31379" lon="5.8277">
        <ele>565</ele>
        <time>2019-03-16T12:57:34Z</time>
      </trkpt>
      <trkpt lat="44.31379" lon="5.82761">
        <ele>565</ele>
        <time>2019-03-16T12:57:35Z</time>
      </trkpt>
      <trkpt lat="44.31378" lon="5.82753">
        <ele>565</ele>
        <time>2019-03-16T12:57:36Z</time>
      </trkpt>
      <trkpt lat="44.31378" lon="5.82744">
        <ele>564</ele>
        <time>2019-03-16T12:57:37Z</time>
      </trkpt>
      <trkpt lat="44.31377" lon="5.82736">
        <ele>564</ele>
        <time>2019-03-16T12:57:38Z</time>
      </trkpt>
      <trkpt lat="44.31377" lon="5.82727">
        <ele>564</ele>
        <time>2019-03-16T12:57:39Z</time>
      </trkpt>
      <trkpt lat="44.31376" lon="5.8272">
        <ele>564</ele>
        <time>2019-03-16T12:57:40Z</time>
      </trkpt>
      <trkpt lat="44.31376" lon="5.82712">
        <ele>564</ele>
        <time>2019-03-16T12:57:41Z</time>
      </trkpt>
      <trkpt lat="44.31375" lon="5.82703">
        <ele>564</ele>
        <time>2019-03-16T12:57:42Z</time>
      </trkpt>
      <trkpt lat="44.31375" lon="5.82696">
        <ele>564</ele>
        <time>2019-03-16T12:57:43Z</time>
      </trkpt>
      <trkpt lat="44.31376" lon="5.82688">
        <ele>563</ele>
        <time>2019-03-16T12:57:44Z</time>
      </trkpt>
      <trkpt lat="44.31378" lon="5.82681">
        <ele>563</ele>
        <time>2019-03-16T12:57:45Z</time>
      </trkpt>
      <trkpt lat="44.3138" lon="5.82673">
        <ele>563</ele>
        <time>2019-03-16T12:57:46Z</time>
      </trkpt>
      <trkpt lat="44.31383" lon="5.82666">
        <ele>563</ele>
        <time>2019-03-16T12:57:47Z</time>
      </trkpt>
      <trkpt lat="44.31386" lon="5.8266">
        <ele>562</ele>
        <time>2019-03-16T12:57:48Z</time>
      </trkpt>
      <trkpt lat="44.31389" lon="5.82654">
        <ele>562</ele>
        <time>2019-03-16T12:57:49Z</time>
      </trkpt>
      <trkpt lat="44.31392" lon="5.82647">
        <ele>562</ele>
        <time>2019-03-16T12:57:50Z</time>
      </trkpt>
      <trkpt lat="44.31395" lon="5.8264">
        <ele>561</ele>
        <time>2019-03-16T12:57:51Z</time>
      </trkpt>
      <trkpt lat="44.31398" lon="5.82633">
        <ele>561</ele>
        <time>2019-03-16T12:57:52Z</time>
      </trkpt>
      <trkpt lat="44.314" lon="5.82626">
        <ele>561</ele>
        <time>2019-03-16T12:57:53Z</time>
      </trkpt>
      <trkpt lat="44.31402" lon="5.82619">
        <ele>561</ele>
        <time>2019-03-16T12:57:54Z</time>
      </trkpt>
      <trkpt lat="44.31403" lon="5.82611">
        <ele>561</ele>
        <time>2019-03-16T12:57:55Z</time>
      </trkpt>
      <trkpt lat="44.31405" lon="5.82604">
        <ele>561</ele>
        <time>2019-03-16T12:57:56Z</time>
      </trkpt>
      <trkpt lat="44.31406" lon="5.82596">
        <ele>561</ele>
        <time>2019-03-16T12:57:57Z</time>
      </trkpt>
      <trkpt lat="44.31408" lon="5.82589">
        <ele>561</ele>
        <time>2019-03-16T12:57:58Z</time>
      </trkpt>
      <trkpt lat="44.3141" lon="5.82582">
        <ele>561</ele>
        <time>2019-03-16T12:57:59Z</time>
      </trkpt>
      <trkpt lat="44.31411" lon="5.82574">
        <ele>561</ele>
        <time>2019-03-16T12:58:00Z</time>
      </trkpt>
      <trkpt lat="44.31413" lon="5.82567">
        <ele>561</ele>
        <time>2019-03-16T12:58:01Z</time>
      </trkpt>
      <trkpt lat="44.31414" lon="5.82559">
        <ele>561</ele>
        <time>2019-03-16T12:58:02Z</time>
      </trkpt>
      <trkpt lat="44.31416" lon="5.82551">
        <ele>561</ele>
        <time>2019-03-16T12:58:03Z</time>
      </trkpt>
      <trkpt lat="44.31418" lon="5.82544">
        <ele>561</ele>
        <time>2019-03-16T12:58:04Z</time>
      </trkpt>
      <trkpt lat="44.3142" lon="5.82536">
        <ele>561</ele>
        <time>2019-03-16T12:58:05Z</time>
      </trkpt>
      <trkpt lat="44.31421" lon="5.82528">
        <ele>561</ele>
        <time>2019-03-16T12:58:06Z</time>
      </trkpt>
      <trkpt lat="44.31422" lon="5.82521">
        <ele>561</ele>
        <time>2019-03-16T12:58:07Z</time>
      </trkpt>
      <trkpt lat="44.31424" lon="5.82514">
        <ele>561</ele>
        <time>2019-03-16T12:58:08Z</time>
      </trkpt>
      <trkpt lat="44.31425" lon="5.82507">
        <ele>561</ele>
        <time>2019-03-16T12:58:09Z</time>
      </trkpt>
      <trkpt lat="44.31427" lon="5.825">
        <ele>561</ele>
        <time>2019-03-16T12:58:11Z</time>
      </trkpt>
      <trkpt lat="44.31428" lon="5.82493">
        <ele>561</ele>
        <time>2019-03-16T12:58:11Z</time>
      </trkpt>
      <trkpt lat="44.31429" lon="5.82485">
        <ele>561</ele>
        <time>2019-03-16T12:58:12Z</time>
      </trkpt>
      <trkpt lat="44.31431" lon="5.82479">
        <ele>561</ele>
        <time>2019-03-16T12:58:13Z</time>
      </trkpt>
      <trkpt lat="44.31432" lon="5.82472">
        <ele>561</ele>
        <time>2019-03-16T12:58:14Z</time>
      </trkpt>
      <trkpt lat="44.31433" lon="5.82465">
        <ele>561</ele>
        <time>2019-03-16T12:58:16Z</time>
      </trkpt>
      <trkpt lat="44.31435" lon="5.82457">
        <ele>561</ele>
        <time>2019-03-16T12:58:16Z</time>
      </trkpt>
      <trkpt lat="44.31437" lon="5.8245">
        <ele>561</ele>
        <time>2019-03-16T12:58:17Z</time>
      </trkpt>
      <trkpt lat="44.31438" lon="5.82443">
        <ele>561</ele>
        <time>2019-03-16T12:58:18Z</time>
      </trkpt>
      <trkpt lat="44.31439" lon="5.82435">
        <ele>562</ele>
        <time>2019-03-16T12:58:19Z</time>
      </trkpt>
      <trkpt lat="44.3144" lon="5.82428">
        <ele>562</ele>
        <time>2019-03-16T12:58:20Z</time>
      </trkpt>
      <trkpt lat="44.3144" lon="5.82421">
        <ele>562</ele>
        <time>2019-03-16T12:58:21Z</time>
      </trkpt>
      <trkpt lat="44.31441" lon="5.82414">
        <ele>562</ele>
        <time>2019-03-16T12:58:22Z</time>
      </trkpt>
      <trkpt lat="44.31441" lon="5.82407">
        <ele>562</ele>
        <time>2019-03-16T12:58:23Z</time>
      </trkpt>
      <trkpt lat="44.31441" lon="5.824">
        <ele>562</ele>
        <time>2019-03-16T12:58:24Z</time>
      </trkpt>
      <trkpt lat="44.31441" lon="5.82393">
        <ele>562</ele>
        <time>2019-03-16T12:58:25Z</time>
      </trkpt>
      <trkpt lat="44.31441" lon="5.82386">
        <ele>562</ele>
        <time>2019-03-16T12:58:26Z</time>
      </trkpt>
      <trkpt lat="44.3144" lon="5.8238">
        <ele>562</ele>
        <time>2019-03-16T12:58:27Z</time>
      </trkpt>
      <trkpt lat="44.3144" lon="5.82375">
        <ele>562</ele>
        <time>2019-03-16T12:58:28Z</time>
      </trkpt>
      <trkpt lat="44.3144" lon="5.82371">
        <ele>562</ele>
        <time>2019-03-16T12:58:29Z</time>
      </trkpt>
      <trkpt lat="44.31441" lon="5.82367">
        <ele>562</ele>
        <time>2019-03-16T12:58:30Z</time>
      </trkpt>
      <trkpt lat="44.31444" lon="5.82367">
        <ele>563</ele>
        <time>2019-03-16T12:58:31Z</time>
      </trkpt>
      <trkpt lat="44.31447" lon="5.82369">
        <ele>564</ele>
        <time>2019-03-16T12:58:32Z</time>
      </trkpt>
      <trkpt lat="44.3145" lon="5.82374">
        <ele>565</ele>
        <time>2019-03-16T12:58:33Z</time>
      </trkpt>
      <trkpt lat="44.31452" lon="5.82377">
        <ele>566</ele>
        <time>2019-03-16T12:58:34Z</time>
      </trkpt>
      <trkpt lat="44.31455" lon="5.82379">
        <ele>566</ele>
        <time>2019-03-16T12:58:35Z</time>
      </trkpt>
      <trkpt lat="44.31459" lon="5.82384">
        <ele>566</ele>
        <time>2019-03-16T12:58:36Z</time>
      </trkpt>
      <trkpt lat="44.31463" lon="5.82389">
        <ele>567</ele>
        <time>2019-03-16T12:58:37Z</time>
      </trkpt>
      <trkpt lat="44.31467" lon="5.82394">
        <ele>567</ele>
        <time>2019-03-16T12:58:38Z</time>
      </trkpt>
      <trkpt lat="44.31472" lon="5.82399">
        <ele>567</ele>
        <time>2019-03-16T12:58:39Z</time>
      </trkpt>
      <trkpt lat="44.31477" lon="5.82403">
        <ele>567</ele>
        <time>2019-03-16T12:58:40Z</time>
      </trkpt>
      <trkpt lat="44.31482" lon="5.82409">
        <ele>567</ele>
        <time>2019-03-16T12:58:41Z</time>
      </trkpt>
      <trkpt lat="44.31486" lon="5.82415">
        <ele>567</ele>
        <time>2019-03-16T12:58:42Z</time>
      </trkpt>
      <trkpt lat="44.31491" lon="5.82421">
        <ele>567</ele>
        <time>2019-03-16T12:58:43Z</time>
      </trkpt>
      <trkpt lat="44.31498" lon="5.82427">
        <ele>567</ele>
        <time>2019-03-16T12:58:44Z</time>
      </trkpt>
      <trkpt lat="44.31504" lon="5.82432">
        <ele>567</ele>
        <time>2019-03-16T12:58:45Z</time>
      </trkpt>
      <trkpt lat="44.3151" lon="5.82438">
        <ele>567</ele>
        <time>2019-03-16T12:58:46Z</time>
      </trkpt>
      <trkpt lat="44.31516" lon="5.82443">
        <ele>567</ele>
        <time>2019-03-16T12:58:47Z</time>
      </trkpt>
      <trkpt lat="44.31522" lon="5.82448">
        <ele>567</ele>
        <time>2019-03-16T12:58:48Z</time>
      </trkpt>
      <trkpt lat="44.31527" lon="5.82453">
        <ele>567</ele>
        <time>2019-03-16T12:58:49Z</time>
      </trkpt>
      <trkpt lat="44.31533" lon="5.82458">
        <ele>567</ele>
        <time>2019-03-16T12:58:50Z</time>
      </trkpt>
      <trkpt lat="44.31538" lon="5.82464">
        <ele>567</ele>
        <time>2019-03-16T12:58:51Z</time>
      </trkpt>
      <trkpt lat="44.31543" lon="5.82469">
        <ele>567</ele>
        <time>2019-03-16T12:58:52Z</time>
      </trkpt>
      <trkpt lat="44.31549" lon="5.82474">
        <ele>567</ele>
        <time>2019-03-16T12:58:53Z</time>
      </trkpt>
      <trkpt lat="44.31554" lon="5.82479">
        <ele>567</ele>
        <time>2019-03-16T12:58:54Z</time>
      </trkpt>
      <trkpt lat="44.31559" lon="5.82484">
        <ele>566</ele>
        <time>2019-03-16T12:58:55Z</time>
      </trkpt>
      <trkpt lat="44.31565" lon="5.82489">
        <ele>566</ele>
        <time>2019-03-16T12:58:56Z</time>
      </trkpt>
      <trkpt lat="44.3157" lon="5.82494">
        <ele>565</ele>
        <time>2019-03-16T12:58:57Z</time>
      </trkpt>
      <trkpt lat="44.31575" lon="5.825">
        <ele>565</ele>
        <time>2019-03-16T12:58:58Z</time>
      </trkpt>
      <trkpt lat="44.3158" lon="5.82505">
        <ele>564</ele>
        <time>2019-03-16T12:58:59Z</time>
      </trkpt>
      <trkpt lat="44.31586" lon="5.8251">
        <ele>564</ele>
        <time>2019-03-16T12:59:00Z</time>
      </trkpt>
      <trkpt lat="44.31591" lon="5.82515">
        <ele>563</ele>
        <time>2019-03-16T12:59:01Z</time>
      </trkpt>
      <trkpt lat="44.31596" lon="5.8252">
        <ele>563</ele>
        <time>2019-03-16T12:59:02Z</time>
      </trkpt>
      <trkpt lat="44.31601" lon="5.82526">
        <ele>563</ele>
        <time>2019-03-16T12:59:03Z</time>
      </trkpt>
      <trkpt lat="44.31607" lon="5.82531">
        <ele>563</ele>
        <time>2019-03-16T12:59:04Z</time>
      </trkpt>
      <trkpt lat="44.31612" lon="5.82536">
        <ele>563</ele>
        <time>2019-03-16T12:59:05Z</time>
      </trkpt>
      <trkpt lat="44.31617" lon="5.8254">
        <ele>563</ele>
        <time>2019-03-16T12:59:06Z</time>
      </trkpt>
      <trkpt lat="44.31621" lon="5.82545">
        <ele>562</ele>
        <time>2019-03-16T12:59:07Z</time>
      </trkpt>
      <trkpt lat="44.31625" lon="5.82549">
        <ele>562</ele>
        <time>2019-03-16T12:59:08Z</time>
      </trkpt>
      <trkpt lat="44.3163" lon="5.82552">
        <ele>562</ele>
        <time>2019-03-16T12:59:09Z</time>
      </trkpt>
      <trkpt lat="44.31634" lon="5.82557">
        <ele>562</ele>
        <time>2019-03-16T12:59:11Z</time>
      </trkpt>
      <trkpt lat="44.31638" lon="5.82562">
        <ele>561</ele>
        <time>2019-03-16T12:59:11Z</time>
      </trkpt>
      <trkpt lat="44.31643" lon="5.82567">
        <ele>561</ele>
        <time>2019-03-16T12:59:12Z</time>
      </trkpt>
      <trkpt lat="44.31647" lon="5.82573">
        <ele>561</ele>
        <time>2019-03-16T12:59:13Z</time>
      </trkpt>
      <trkpt lat="44.31652" lon="5.82578">
        <ele>561</ele>
        <time>2019-03-16T12:59:14Z</time>
      </trkpt>
      <trkpt lat="44.31657" lon="5.82583">
        <ele>561</ele>
        <time>2019-03-16T12:59:15Z</time>
      </trkpt>
      <trkpt lat="44.31662" lon="5.82588">
        <ele>561</ele>
        <time>2019-03-16T12:59:16Z</time>
      </trkpt>
      <trkpt lat="44.31667" lon="5.82593">
        <ele>561</ele>
        <time>2019-03-16T12:59:17Z</time>
      </trkpt>
      <trkpt lat="44.31671" lon="5.82597">
        <ele>561</ele>
        <time>2019-03-16T12:59:18Z</time>
      </trkpt>
      <trkpt lat="44.31675" lon="5.82602">
        <ele>561</ele>
        <time>2019-03-16T12:59:19Z</time>
      </trkpt>
      <trkpt lat="44.3168" lon="5.82607">
        <ele>561</ele>
        <time>2019-03-16T12:59:20Z</time>
      </trkpt>
      <trkpt lat="44.31684" lon="5.82611">
        <ele>561</ele>
        <time>2019-03-16T12:59:21Z</time>
      </trkpt>
      <trkpt lat="44.31688" lon="5.82616">
        <ele>561</ele>
        <time>2019-03-16T12:59:22Z</time>
      </trkpt>
      <trkpt lat="44.31692" lon="5.8262">
        <ele>561</ele>
        <time>2019-03-16T12:59:23Z</time>
      </trkpt>
      <trkpt lat="44.31696" lon="5.82624">
        <ele>561</ele>
        <time>2019-03-16T12:59:24Z</time>
      </trkpt>
      <trkpt lat="44.31701" lon="5.82628">
        <ele>561</ele>
        <time>2019-03-16T12:59:25Z</time>
      </trkpt>
      <trkpt lat="44.31705" lon="5.82633">
        <ele>561</ele>
        <time>2019-03-16T12:59:26Z</time>
      </trkpt>
      <trkpt lat="44.31709" lon="5.82637">
        <ele>561</ele>
        <time>2019-03-16T12:59:27Z</time>
      </trkpt>
      <trkpt lat="44.31713" lon="5.82641">
        <ele>561</ele>
        <time>2019-03-16T12:59:28Z</time>
      </trkpt>
      <trkpt lat="44.31717" lon="5.82645">
        <ele>561</ele>
        <time>2019-03-16T12:59:29Z</time>
      </trkpt>
      <trkpt lat="44.3172" lon="5.8265">
        <ele>561</ele>
        <time>2019-03-16T12:59:30Z</time>
      </trkpt>
      <trkpt lat="44.31724" lon="5.82653">
        <ele>561</ele>
        <time>2019-03-16T12:59:31Z</time>
      </trkpt>
      <trkpt lat="44.31726" lon="5.82657">
        <ele>561</ele>
        <time>2019-03-16T12:59:32Z</time>
      </trkpt>
      <trkpt lat="44.31728" lon="5.82659">
        <ele>561</ele>
        <time>2019-03-16T12:59:33Z</time>
      </trkpt>
      <trkpt lat="44.31729" lon="5.82661">
        <ele>561</ele>
        <time>2019-03-16T12:59:34Z</time>
      </trkpt>
      <trkpt lat="44.3173" lon="5.82662">
        <ele>561</ele>
        <time>2019-03-16T12:59:36Z</time>
      </trkpt>
      <trkpt lat="44.31731" lon="5.82664">
        <ele>561</ele>
        <time>2019-03-16T12:59:50Z</time>
      </trkpt>
      <trkpt lat="44.31731" lon="5.82665">
        <ele>561</ele>
        <time>2019-03-16T12:59:55Z</time>
      </trkpt>
      <trkpt lat="44.3173" lon="5.82667">
        <ele>562</ele>
        <time>2019-03-16T13:00:05Z</time>
      </trkpt>
      <trkpt lat="44.31728" lon="5.82666">
        <ele>562</ele>
        <time>2019-03-16T13:00:12Z</time>
      </trkpt>
      <trkpt lat="44.3173" lon="5.82667">
        <ele>562</ele>
        <time>2019-03-16T13:00:16Z</time>
      </trkpt>
      <trkpt lat="44.31731" lon="5.82668">
        <ele>562</ele>
        <time>2019-03-16T13:00:17Z</time>
      </trkpt>
      <trkpt lat="44.31732" lon="5.82669">
        <ele>562</ele>
        <time>2019-03-16T13:00:18Z</time>
      </trkpt>
      <trkpt lat="44.31734" lon="5.8267">
        <ele>562</ele>
        <time>2019-03-16T13:00:19Z</time>
      </trkpt>
      <trkpt lat="44.31736" lon="5.82672">
        <ele>562</ele>
        <time>2019-03-16T13:00:20Z</time>
      </trkpt>
      <trkpt lat="44.31739" lon="5.82674">
        <ele>562</ele>
        <time>2019-03-16T13:00:21Z</time>
      </trkpt>
      <trkpt lat="44.31741" lon="5.82676">
        <ele>562</ele>
        <time>2019-03-16T13:00:22Z</time>
      </trkpt>
      <trkpt lat="44.31743" lon="5.82679">
        <ele>562</ele>
        <time>2019-03-16T13:00:23Z</time>
      </trkpt>
      <trkpt lat="44.31745" lon="5.82681">
        <ele>562</ele>
        <time>2019-03-16T13:00:24Z</time>
      </trkpt>
      <trkpt lat="44.31748" lon="5.82684">
        <ele>562</ele>
        <time>2019-03-16T13:00:25Z</time>
      </trkpt>
      <trkpt lat="44.31751" lon="5.82686">
        <ele>562</ele>
        <time>2019-03-16T13:00:26Z</time>
      </trkpt>
      <trkpt lat="44.31754" lon="5.82689">
        <ele>562</ele>
        <time>2019-03-16T13:00:27Z</time>
      </trkpt>
      <trkpt lat="44.31757" lon="5.82691">
        <ele>562</ele>
        <time>2019-03-16T13:00:28Z</time>
      </trkpt>
      <trkpt lat="44.3176" lon="5.82694">
        <ele>562</ele>
        <time>2019-03-16T13:00:29Z</time>
      </trkpt>
      <trkpt lat="44.31763" lon="5.82697">
        <ele>562</ele>
        <time>2019-03-16T13:00:30Z</time>
      </trkpt>
      <trkpt lat="44.31766" lon="5.827">
        <ele>562</ele>
        <time>2019-03-16T13:00:31Z</time>
      </trkpt>
      <trkpt lat="44.31769" lon="5.82703">
        <ele>562</ele>
        <time>2019-03-16T13:00:32Z</time>
      </trkpt>
      <trkpt lat="44.31772" lon="5.82706">
        <ele>562</ele>
        <time>2019-03-16T13:00:33Z</time>
      </trkpt>
      <trkpt lat="44.31775" lon="5.8271">
        <ele>562</ele>
        <time>2019-03-16T13:00:34Z</time>
      </trkpt>
      <trkpt lat="44.31779" lon="5.82712">
        <ele>562</ele>
        <time>2019-03-16T13:00:35Z</time>
      </trkpt>
      <trkpt lat="44.31783" lon="5.82715">
        <ele>562</ele>
        <time>2019-03-16T13:00:36Z</time>
      </trkpt>
      <trkpt lat="44.31786" lon="5.82719">
        <ele>562</ele>
        <time>2019-03-16T13:00:37Z</time>
      </trkpt>
      <trkpt lat="44.3179" lon="5.82722">
        <ele>562</ele>
        <time>2019-03-16T13:00:38Z</time>
      </trkpt>
      <trkpt lat="44.31793" lon="5.82725">
        <ele>562</ele>
        <time>2019-03-16T13:00:39Z</time>
      </trkpt>
      <trkpt lat="44.31796" lon="5.82728">
        <ele>562</ele>
        <time>2019-03-16T13:00:40Z</time>
      </trkpt>
      <trkpt lat="44.318" lon="5.82731">
        <ele>562</ele>
        <time>2019-03-16T13:00:41Z</time>
      </trkpt>
      <trkpt lat="44.31803" lon="5.82735">
        <ele>562</ele>
        <time>2019-03-16T13:00:43Z</time>
      </trkpt>
      <trkpt lat="44.31807" lon="5.82738">
        <ele>562</ele>
        <time>2019-03-16T13:00:43Z</time>
      </trkpt>
      <trkpt lat="44.3181" lon="5.82741">
        <ele>562</ele>
        <time>2019-03-16T13:00:44Z</time>
      </trkpt>
      <trkpt lat="44.31813" lon="5.82744">
        <ele>562</ele>
        <time>2019-03-16T13:00:45Z</time>
      </trkpt>
      <trkpt lat="44.31817" lon="5.82748">
        <ele>562</ele>
        <time>2019-03-16T13:00:46Z</time>
      </trkpt>
      <trkpt lat="44.31821" lon="5.82751">
        <ele>562</ele>
        <time>2019-03-16T13:00:47Z</time>
      </trkpt>
      <trkpt lat="44.31824" lon="5.82753">
        <ele>562</ele>
        <time>2019-03-16T13:00:48Z</time>
      </trkpt>
      <trkpt lat="44.31828" lon="5.82756">
        <ele>562</ele>
        <time>2019-03-16T13:00:49Z</time>
      </trkpt>
      <trkpt lat="44.31832" lon="5.82759">
        <ele>562</ele>
        <time>2019-03-16T13:00:50Z</time>
      </trkpt>
      <trkpt lat="44.31836" lon="5.82761">
        <ele>562</ele>
        <time>2019-03-16T13:00:51Z</time>
      </trkpt>
      <trkpt lat="44.3184" lon="5.82763">
        <ele>562</ele>
        <time>2019-03-16T13:00:52Z</time>
      </trkpt>
      <trkpt lat="44.31844" lon="5.82766">
        <ele>562</ele>
        <time>2019-03-16T13:00:53Z</time>
      </trkpt>
      <trkpt lat="44.31847" lon="5.82768">
        <ele>562</ele>
        <time>2019-03-16T13:00:54Z</time>
      </trkpt>
      <trkpt lat="44.31851" lon="5.8277">
        <ele>562</ele>
        <time>2019-03-16T13:00:55Z</time>
      </trkpt>
      <trkpt lat="44.31855" lon="5.82771">
        <ele>562</ele>
        <time>2019-03-16T13:00:56Z</time>
      </trkpt>
      <trkpt lat="44.31859" lon="5.82773">
        <ele>562</ele>
        <time>2019-03-16T13:00:57Z</time>
      </trkpt>
      <trkpt lat="44.31863" lon="5.82774">
        <ele>562</ele>
        <time>2019-03-16T13:00:58Z</time>
      </trkpt>
      <trkpt lat="44.31866" lon="5.82776">
        <ele>562</ele>
        <time>2019-03-16T13:00:59Z</time>
      </trkpt>
      <trkpt lat="44.3187" lon="5.82777">
        <ele>562</ele>
        <time>2019-03-16T13:01:00Z</time>
      </trkpt>
      <trkpt lat="44.31874" lon="5.82778">
        <ele>562</ele>
        <time>2019-03-16T13:01:01Z</time>
      </trkpt>
      <trkpt lat="44.31878" lon="5.82778">
        <ele>562</ele>
        <time>2019-03-16T13:01:02Z</time>
      </trkpt>
      <trkpt lat="44.31882" lon="5.82779">
        <ele>562</ele>
        <time>2019-03-16T13:01:03Z</time>
      </trkpt>
      <trkpt lat="44.31887" lon="5.82779">
        <ele>562</ele>
        <time>2019-03-16T13:01:04Z</time>
      </trkpt>
      <trkpt lat="44.31891" lon="5.82779">
        <ele>562</ele>
        <time>2019-03-16T13:01:05Z</time>
      </trkpt>
      <trkpt lat="44.31895" lon="5.82779">
        <ele>562</ele>
        <time>2019-03-16T13:01:06Z</time>
      </trkpt>
      <trkpt lat="44.31899" lon="5.8278">
        <ele>562</ele>
        <time>2019-03-16T13:01:07Z</time>
      </trkpt>
      <trkpt lat="44.31903" lon="5.8278">
        <ele>562</ele>
        <time>2019-03-16T13:01:08Z</time>
      </trkpt>
      <trkpt lat="44.31908" lon="5.8278">
        <ele>562</ele>
        <time>2019-03-16T13:01:09Z</time>
      </trkpt>
      <trkpt lat="44.31912" lon="5.8278">
        <ele>562</ele>
        <time>2019-03-16T13:01:11Z</time>
      </trkpt>
      <trkpt lat="44.31916" lon="5.8278">
        <ele>562</ele>
        <time>2019-03-16T13:01:11Z</time>
      </trkpt>
      <trkpt lat="44.3192" lon="5.82781">
        <ele>562</ele>
        <time>2019-03-16T13:01:12Z</time>
      </trkpt>
      <trkpt lat="44.31924" lon="5.82781">
        <ele>562</ele>
        <time>2019-03-16T13:01:13Z</time>
      </trkpt>
      <trkpt lat="44.31928" lon="5.82781">
        <ele>562</ele>
        <time>2019-03-16T13:01:14Z</time>
      </trkpt>
      <trkpt lat="44.31932" lon="5.82782">
        <ele>562</ele>
        <time>2019-03-16T13:01:15Z</time>
      </trkpt>
      <trkpt lat="44.31936" lon="5.82782">
        <ele>562</ele>
        <time>2019-03-16T13:01:16Z</time>
      </trkpt>
      <trkpt lat="44.3194" lon="5.82783">
        <ele>562</ele>
        <time>2019-03-16T13:01:17Z</time>
      </trkpt>
      <trkpt lat="44.31944" lon="5.82784">
        <ele>562</ele>
        <time>2019-03-16T13:01:18Z</time>
      </trkpt>
      <trkpt lat="44.31948" lon="5.82786">
        <ele>562</ele>
        <time>2019-03-16T13:01:19Z</time>
      </trkpt>
      <trkpt lat="44.31952" lon="5.82787">
        <ele>562</ele>
        <time>2019-03-16T13:01:20Z</time>
      </trkpt>
      <trkpt lat="44.31955" lon="5.82788">
        <ele>562</ele>
        <time>2019-03-16T13:01:21Z</time>
      </trkpt>
      <trkpt lat="44.3196" lon="5.8279">
        <ele>562</ele>
        <time>2019-03-16T13:01:22Z</time>
      </trkpt>
      <trkpt lat="44.31963" lon="5.82791">
        <ele>562</ele>
        <time>2019-03-16T13:01:23Z</time>
      </trkpt>
      <trkpt lat="44.31967" lon="5.82793">
        <ele>562</ele>
        <time>2019-03-16T13:01:24Z</time>
      </trkpt>
      <trkpt lat="44.31971" lon="5.82794">
        <ele>562</ele>
        <time>2019-03-16T13:01:25Z</time>
      </trkpt>
      <trkpt lat="44.31975" lon="5.82796">
        <ele>562</ele>
        <time>2019-03-16T13:01:26Z</time>
      </trkpt>
      <trkpt lat="44.31978" lon="5.82798">
        <ele>562</ele>
        <time>2019-03-16T13:01:27Z</time>
      </trkpt>
      <trkpt lat="44.31982" lon="5.82799">
        <ele>562</ele>
        <time>2019-03-16T13:01:28Z</time>
      </trkpt>
      <trkpt lat="44.31986" lon="5.82801">
        <ele>563</ele>
        <time>2019-03-16T13:01:29Z</time>
      </trkpt>
      <trkpt lat="44.3199" lon="5.82802">
        <ele>563</ele>
        <time>2019-03-16T13:01:30Z</time>
      </trkpt>
      <trkpt lat="44.31994" lon="5.82804">
        <ele>563</ele>
        <time>2019-03-16T13:01:31Z</time>
      </trkpt>
      <trkpt lat="44.31998" lon="5.82806">
        <ele>564</ele>
        <time>2019-03-16T13:01:32Z</time>
      </trkpt>
      <trkpt lat="44.32002" lon="5.82807">
        <ele>564</ele>
        <time>2019-03-16T13:01:33Z</time>
      </trkpt>
      <trkpt lat="44.32005" lon="5.82809">
        <ele>564</ele>
        <time>2019-03-16T13:01:34Z</time>
      </trkpt>
      <trkpt lat="44.32009" lon="5.82811">
        <ele>564</ele>
        <time>2019-03-16T13:01:35Z</time>
      </trkpt>
      <trkpt lat="44.32013" lon="5.82812">
        <ele>564</ele>
        <time>2019-03-16T13:01:36Z</time>
      </trkpt>
      <trkpt lat="44.32016" lon="5.82814">
        <ele>564</ele>
        <time>2019-03-16T13:01:37Z</time>
      </trkpt>
      <trkpt lat="44.32019" lon="5.82816">
        <ele>564</ele>
        <time>2019-03-16T13:01:38Z</time>
      </trkpt>
      <trkpt lat="44.32023" lon="5.82818">
        <ele>564</ele>
        <time>2019-03-16T13:01:39Z</time>
      </trkpt>
      <trkpt lat="44.32026" lon="5.8282">
        <ele>564</ele>
        <time>2019-03-16T13:01:40Z</time>
      </trkpt>
      <trkpt lat="44.32029" lon="5.82822">
        <ele>564</ele>
        <time>2019-03-16T13:01:41Z</time>
      </trkpt>
      <trkpt lat="44.32033" lon="5.82825">
        <ele>564</ele>
        <time>2019-03-16T13:01:42Z</time>
      </trkpt>
      <trkpt lat="44.32036" lon="5.82827">
        <ele>564</ele>
        <time>2019-03-16T13:01:43Z</time>
      </trkpt>
      <trkpt lat="44.32039" lon="5.8283">
        <ele>564</ele>
        <time>2019-03-16T13:01:44Z</time>
      </trkpt>
      <trkpt lat="44.32043" lon="5.82832">
        <ele>564</ele>
        <time>2019-03-16T13:01:45Z</time>
      </trkpt>
      <trkpt lat="44.32046" lon="5.82834">
        <ele>564</ele>
        <time>2019-03-16T13:01:46Z</time>
      </trkpt>
      <trkpt lat="44.32049" lon="5.82836">
        <ele>564</ele>
        <time>2019-03-16T13:01:47Z</time>
      </trkpt>
      <trkpt lat="44.32053" lon="5.82839">
        <ele>564</ele>
        <time>2019-03-16T13:01:48Z</time>
      </trkpt>
      <trkpt lat="44.32055" lon="5.82841">
        <ele>564</ele>
        <time>2019-03-16T13:01:49Z</time>
      </trkpt>
      <trkpt lat="44.32058" lon="5.82843">
        <ele>564</ele>
        <time>2019-03-16T13:01:50Z</time>
      </trkpt>
      <trkpt lat="44.32062" lon="5.82845">
        <ele>564</ele>
        <time>2019-03-16T13:01:51Z</time>
      </trkpt>
      <trkpt lat="44.32064" lon="5.82847">
        <ele>565</ele>
        <time>2019-03-16T13:01:52Z</time>
      </trkpt>
      <trkpt lat="44.32068" lon="5.82849">
        <ele>565</ele>
        <time>2019-03-16T13:01:53Z</time>
      </trkpt>
      <trkpt lat="44.32071" lon="5.82851">
        <ele>565</ele>
        <time>2019-03-16T13:01:54Z</time>
      </trkpt>
      <trkpt lat="44.32075" lon="5.82852">
        <ele>565</ele>
        <time>2019-03-16T13:01:55Z</time>
      </trkpt>
      <trkpt lat="44.32078" lon="5.82853">
        <ele>565</ele>
        <time>2019-03-16T13:01:56Z</time>
      </trkpt>
      <trkpt lat="44.32082" lon="5.82854">
        <ele>565</ele>
        <time>2019-03-16T13:01:57Z</time>
      </trkpt>
      <trkpt lat="44.32085" lon="5.82856">
        <ele>565</ele>
        <time>2019-03-16T13:01:58Z</time>
      </trkpt>
      <trkpt lat="44.32088" lon="5.82858">
        <ele>565</ele>
        <time>2019-03-16T13:01:59Z</time>
      </trkpt>
      <trkpt lat="44.32092" lon="5.82859">
        <ele>565</ele>
        <time>2019-03-16T13:02:00Z</time>
      </trkpt>
      <trkpt lat="44.32095" lon="5.82861">
        <ele>565</ele>
        <time>2019-03-16T13:02:01Z</time>
      </trkpt>
      <trkpt lat="44.32099" lon="5.82861">
        <ele>565</ele>
        <time>2019-03-16T13:02:02Z</time>
      </trkpt>
      <trkpt lat="44.32103" lon="5.82862">
        <ele>565</ele>
        <time>2019-03-16T13:02:03Z</time>
      </trkpt>
      <trkpt lat="44.32107" lon="5.82864">
        <ele>565</ele>
        <time>2019-03-16T13:02:04Z</time>
      </trkpt>
      <trkpt lat="44.32111" lon="5.82865">
        <ele>565</ele>
        <time>2019-03-16T13:02:05Z</time>
      </trkpt>
      <trkpt lat="44.32115" lon="5.82866">
        <ele>565</ele>
        <time>2019-03-16T13:02:06Z</time>
      </trkpt>
      <trkpt lat="44.32119" lon="5.82868">
        <ele>565</ele>
        <time>2019-03-16T13:02:07Z</time>
      </trkpt>
      <trkpt lat="44.32123" lon="5.82869">
        <ele>565</ele>
        <time>2019-03-16T13:02:08Z</time>
      </trkpt>
      <trkpt lat="44.32127" lon="5.8287">
        <ele>565</ele>
        <time>2019-03-16T13:02:09Z</time>
      </trkpt>
      <trkpt lat="44.32132" lon="5.82872">
        <ele>565</ele>
        <time>2019-03-16T13:02:11Z</time>
      </trkpt>
      <trkpt lat="44.32136" lon="5.82874">
        <ele>565</ele>
        <time>2019-03-16T13:02:11Z</time>
      </trkpt>
      <trkpt lat="44.3214" lon="5.82875">
        <ele>565</ele>
        <time>2019-03-16T13:02:12Z</time>
      </trkpt>
      <trkpt lat="44.32145" lon="5.82877">
        <ele>565</ele>
        <time>2019-03-16T13:02:13Z</time>
      </trkpt>
      <trkpt lat="44.32149" lon="5.82879">
        <ele>565</ele>
        <time>2019-03-16T13:02:14Z</time>
      </trkpt>
      <trkpt lat="44.32153" lon="5.8288">
        <ele>565</ele>
        <time>2019-03-16T13:02:15Z</time>
      </trkpt>
      <trkpt lat="44.32158" lon="5.82882">
        <ele>565</ele>
        <time>2019-03-16T13:02:16Z</time>
      </trkpt>
      <trkpt lat="44.32162" lon="5.82884">
        <ele>565</ele>
        <time>2019-03-16T13:02:17Z</time>
      </trkpt>
      <trkpt lat="44.32167" lon="5.82887">
        <ele>565</ele>
        <time>2019-03-16T13:02:18Z</time>
      </trkpt>
      <trkpt lat="44.32171" lon="5.82889">
        <ele>565</ele>
        <time>2019-03-16T13:02:19Z</time>
      </trkpt>
      <trkpt lat="44.32175" lon="5.82891">
        <ele>565</ele>
        <time>2019-03-16T13:02:20Z</time>
      </trkpt>
      <trkpt lat="44.3218" lon="5.82893">
        <ele>565</ele>
        <time>2019-03-16T13:02:21Z</time>
      </trkpt>
      <trkpt lat="44.32184" lon="5.82894">
        <ele>565</ele>
        <time>2019-03-16T13:02:22Z</time>
      </trkpt>
      <trkpt lat="44.32188" lon="5.82897">
        <ele>565</ele>
        <time>2019-03-16T13:02:23Z</time>
      </trkpt>
      <trkpt lat="44.32193" lon="5.82899">
        <ele>565</ele>
        <time>2019-03-16T13:02:24Z</time>
      </trkpt>
      <trkpt lat="44.32198" lon="5.82901">
        <ele>565</ele>
        <time>2019-03-16T13:02:25Z</time>
      </trkpt>
      <trkpt lat="44.32202" lon="5.82903">
        <ele>565</ele>
        <time>2019-03-16T13:02:26Z</time>
      </trkpt>
      <trkpt lat="44.32206" lon="5.82906">
        <ele>565</ele>
        <time>2019-03-16T13:02:27Z</time>
      </trkpt>
      <trkpt lat="44.32211" lon="5.82909">
        <ele>565</ele>
        <time>2019-03-16T13:02:28Z</time>
      </trkpt>
      <trkpt lat="44.32216" lon="5.82911">
        <ele>565</ele>
        <time>2019-03-16T13:02:29Z</time>
      </trkpt>
      <trkpt lat="44.3222" lon="5.82914">
        <ele>565</ele>
        <time>2019-03-16T13:02:30Z</time>
      </trkpt>
      <trkpt lat="44.32225" lon="5.82916">
        <ele>565</ele>
        <time>2019-03-16T13:02:31Z</time>
      </trkpt>
      <trkpt lat="44.3223" lon="5.82919">
        <ele>566</ele>
        <time>2019-03-16T13:02:32Z</time>
      </trkpt>
      <trkpt lat="44.32235" lon="5.82921">
        <ele>566</ele>
        <time>2019-03-16T13:02:33Z</time>
      </trkpt>
      <trkpt lat="44.3224" lon="5.82923">
        <ele>566</ele>
        <time>2019-03-16T13:02:34Z</time>
      </trkpt>
      <trkpt lat="44.32244" lon="5.82925">
        <ele>566</ele>
        <time>2019-03-16T13:02:35Z</time>
      </trkpt>
      <trkpt lat="44.32249" lon="5.82928">
        <ele>567</ele>
        <time>2019-03-16T13:02:36Z</time>
      </trkpt>
      <trkpt lat="44.32253" lon="5.8293">
        <ele>567</ele>
        <time>2019-03-16T13:02:37Z</time>
      </trkpt>
      <trkpt lat="44.32257" lon="5.82932">
        <ele>567</ele>
        <time>2019-03-16T13:02:38Z</time>
      </trkpt>
      <trkpt lat="44.32261" lon="5.82934">
        <ele>567</ele>
        <time>2019-03-16T13:02:39Z</time>
      </trkpt>
      <trkpt lat="44.32265" lon="5.82937">
        <ele>568</ele>
        <time>2019-03-16T13:02:40Z</time>
      </trkpt>
      <trkpt lat="44.3227" lon="5.82939">
        <ele>568</ele>
        <time>2019-03-16T13:02:41Z</time>
      </trkpt>
      <trkpt lat="44.32274" lon="5.82941">
        <ele>568</ele>
        <time>2019-03-16T13:02:42Z</time>
      </trkpt>
      <trkpt lat="44.32278" lon="5.82943">
        <ele>568</ele>
        <time>2019-03-16T13:02:43Z</time>
      </trkpt>
      <trkpt lat="44.32282" lon="5.82945">
        <ele>568</ele>
        <time>2019-03-16T13:02:44Z</time>
      </trkpt>
      <trkpt lat="44.32286" lon="5.82947">
        <ele>568</ele>
        <time>2019-03-16T13:02:45Z</time>
      </trkpt>
      <trkpt lat="44.32291" lon="5.82949">
        <ele>568</ele>
        <time>2019-03-16T13:02:46Z</time>
      </trkpt>
      <trkpt lat="44.32295" lon="5.82951">
        <ele>568</ele>
        <time>2019-03-16T13:02:47Z</time>
      </trkpt>
      <trkpt lat="44.32299" lon="5.82953">
        <ele>568</ele>
        <time>2019-03-16T13:02:48Z</time>
      </trkpt>
      <trkpt lat="44.32304" lon="5.82955">
        <ele>568</ele>
        <time>2019-03-16T13:02:49Z</time>
      </trkpt>
      <trkpt lat="44.32308" lon="5.82957">
        <ele>568</ele>
        <time>2019-03-16T13:02:50Z</time>
      </trkpt>
      <trkpt lat="44.32312" lon="5.82959">
        <ele>568</ele>
        <time>2019-03-16T13:02:51Z</time>
      </trkpt>
      <trkpt lat="44.32316" lon="5.82962">
        <ele>568</ele>
        <time>2019-03-16T13:02:52Z</time>
      </trkpt>
      <trkpt lat="44.3232" lon="5.82964">
        <ele>568</ele>
        <time>2019-03-16T13:02:53Z</time>
      </trkpt>
      <trkpt lat="44.32325" lon="5.82966">
        <ele>568</ele>
        <time>2019-03-16T13:02:54Z</time>
      </trkpt>
      <trkpt lat="44.32329" lon="5.82968">
        <ele>568</ele>
        <time>2019-03-16T13:02:55Z</time>
      </trkpt>
      <trkpt lat="44.32333" lon="5.82971">
        <ele>568</ele>
        <time>2019-03-16T13:02:56Z</time>
      </trkpt>
      <trkpt lat="44.32337" lon="5.82973">
        <ele>569</ele>
        <time>2019-03-16T13:02:57Z</time>
      </trkpt>
      <trkpt lat="44.32341" lon="5.82976">
        <ele>569</ele>
        <time>2019-03-16T13:02:58Z</time>
      </trkpt>
      <trkpt lat="44.32345" lon="5.8298">
        <ele>569</ele>
        <time>2019-03-16T13:02:59Z</time>
      </trkpt>
      <trkpt lat="44.32349" lon="5.82984">
        <ele>569</ele>
        <time>2019-03-16T13:03:00Z</time>
      </trkpt>
      <trkpt lat="44.32352" lon="5.82988">
        <ele>570</ele>
        <time>2019-03-16T13:03:01Z</time>
      </trkpt>
      <trkpt lat="44.32356" lon="5.82993">
        <ele>570</ele>
        <time>2019-03-16T13:03:02Z</time>
      </trkpt>
      <trkpt lat="44.32359" lon="5.82998">
        <ele>570</ele>
        <time>2019-03-16T13:03:03Z</time>
      </trkpt>
      <trkpt lat="44.32362" lon="5.83003">
        <ele>570</ele>
        <time>2019-03-16T13:03:04Z</time>
      </trkpt>
      <trkpt lat="44.32365" lon="5.83009">
        <ele>570</ele>
        <time>2019-03-16T13:03:05Z</time>
      </trkpt>
      <trkpt lat="44.32367" lon="5.83015">
        <ele>571</ele>
        <time>2019-03-16T13:03:06Z</time>
      </trkpt>
      <trkpt lat="44.32369" lon="5.83021">
        <ele>571</ele>
        <time>2019-03-16T13:03:07Z</time>
      </trkpt>
      <trkpt lat="44.32371" lon="5.83027">
        <ele>571</ele>
        <time>2019-03-16T13:03:08Z</time>
      </trkpt>
      <trkpt lat="44.32372" lon="5.83034">
        <ele>571</ele>
        <time>2019-03-16T13:03:09Z</time>
      </trkpt>
      <trkpt lat="44.32374" lon="5.8304">
        <ele>571</ele>
        <time>2019-03-16T13:03:11Z</time>
      </trkpt>
      <trkpt lat="44.32376" lon="5.83047">
        <ele>571</ele>
        <time>2019-03-16T13:03:11Z</time>
      </trkpt>
      <trkpt lat="44.32378" lon="5.83053">
        <ele>571</ele>
        <time>2019-03-16T13:03:12Z</time>
      </trkpt>
      <trkpt lat="44.3238" lon="5.8306">
        <ele>571</ele>
        <time>2019-03-16T13:03:13Z</time>
      </trkpt>
      <trkpt lat="44.32383" lon="5.83067">
        <ele>571</ele>
        <time>2019-03-16T13:03:14Z</time>
      </trkpt>
      <trkpt lat="44.32385" lon="5.83075">
        <ele>571</ele>
        <time>2019-03-16T13:03:15Z</time>
      </trkpt>
      <trkpt lat="44.32389" lon="5.83082">
        <ele>571</ele>
        <time>2019-03-16T13:03:16Z</time>
      </trkpt>
      <trkpt lat="44.32392" lon="5.83089">
        <ele>571</ele>
        <time>2019-03-16T13:03:17Z</time>
      </trkpt>
      <trkpt lat="44.32396" lon="5.83096">
        <ele>571</ele>
        <time>2019-03-16T13:03:18Z</time>
      </trkpt>
      <trkpt lat="44.32401" lon="5.83103">
        <ele>571</ele>
        <time>2019-03-16T13:03:19Z</time>
      </trkpt>
      <trkpt lat="44.32405" lon="5.83109">
        <ele>571</ele>
        <time>2019-03-16T13:03:20Z</time>
      </trkpt>
      <trkpt lat="44.3241" lon="5.83115">
        <ele>571</ele>
        <time>2019-03-16T13:03:21Z</time>
      </trkpt>
      <trkpt lat="44.32415" lon="5.8312">
        <ele>571</ele>
        <time>2019-03-16T13:03:22Z</time>
      </trkpt>
      <trkpt lat="44.3242" lon="5.83125">
        <ele>571</ele>
        <time>2019-03-16T13:03:23Z</time>
      </trkpt>
      <trkpt lat="44.32425" lon="5.83131">
        <ele>571</ele>
        <time>2019-03-16T13:03:24Z</time>
      </trkpt>
      <trkpt lat="44.3243" lon="5.83136">
        <ele>571</ele>
        <time>2019-03-16T13:03:25Z</time>
      </trkpt>
      <trkpt lat="44.32435" lon="5.8314">
        <ele>571</ele>
        <time>2019-03-16T13:03:26Z</time>
      </trkpt>
      <trkpt lat="44.32439" lon="5.83145">
        <ele>571</ele>
        <time>2019-03-16T13:03:27Z</time>
      </trkpt>
      <trkpt lat="44.32444" lon="5.83149">
        <ele>571</ele>
        <time>2019-03-16T13:03:28Z</time>
      </trkpt>
      <trkpt lat="44.32449" lon="5.83154">
        <ele>571</ele>
        <time>2019-03-16T13:03:29Z</time>
      </trkpt>
      <trkpt lat="44.32454" lon="5.83158">
        <ele>571</ele>
        <time>2019-03-16T13:03:30Z</time>
      </trkpt>
      <trkpt lat="44.32458" lon="5.83162">
        <ele>571</ele>
        <time>2019-03-16T13:03:31Z</time>
      </trkpt>
      <trkpt lat="44.32463" lon="5.83166">
        <ele>571</ele>
        <time>2019-03-16T13:03:32Z</time>
      </trkpt>
      <trkpt lat="44.32468" lon="5.8317">
        <ele>571</ele>
        <time>2019-03-16T13:03:33Z</time>
      </trkpt>
      <trkpt lat="44.32473" lon="5.83174">
        <ele>571</ele>
        <time>2019-03-16T13:03:34Z</time>
      </trkpt>
      <trkpt lat="44.32478" lon="5.83178">
        <ele>571</ele>
        <time>2019-03-16T13:03:35Z</time>
      </trkpt>
      <trkpt lat="44.32484" lon="5.83181">
        <ele>571</ele>
        <time>2019-03-16T13:03:36Z</time>
      </trkpt>
      <trkpt lat="44.32489" lon="5.83184">
        <ele>571</ele>
        <time>2019-03-16T13:03:37Z</time>
      </trkpt>
      <trkpt lat="44.32495" lon="5.83188">
        <ele>571</ele>
        <time>2019-03-16T13:03:38Z</time>
      </trkpt>
      <trkpt lat="44.32501" lon="5.83191">
        <ele>571</ele>
        <time>2019-03-16T13:03:39Z</time>
      </trkpt>
      <trkpt lat="44.32506" lon="5.83193">
        <ele>571</ele>
        <time>2019-03-16T13:03:40Z</time>
      </trkpt>
      <trkpt lat="44.32512" lon="5.83196">
        <ele>571</ele>
        <time>2019-03-16T13:03:41Z</time>
      </trkpt>
      <trkpt lat="44.32518" lon="5.83199">
        <ele>571</ele>
        <time>2019-03-16T13:03:42Z</time>
      </trkpt>
      <trkpt lat="44.32524" lon="5.83201">
        <ele>571</ele>
        <time>2019-03-16T13:03:43Z</time>
      </trkpt>
      <trkpt lat="44.32529" lon="5.83204">
        <ele>571</ele>
        <time>2019-03-16T13:03:44Z</time>
      </trkpt>
      <trkpt lat="44.32535" lon="5.83206">
        <ele>571</ele>
        <time>2019-03-16T13:03:45Z</time>
      </trkpt>
      <trkpt lat="44.32541" lon="5.83209">
        <ele>571</ele>
        <time>2019-03-16T13:03:46Z</time>
      </trkpt>
      <trkpt lat="44.32547" lon="5.83211">
        <ele>571</ele>
        <time>2019-03-16T13:03:47Z</time>
      </trkpt>
      <trkpt lat="44.32552" lon="5.83214">
        <ele>571</ele>
        <time>2019-03-16T13:03:48Z</time>
      </trkpt>
      <trkpt lat="44.32558" lon="5.83216">
        <ele>571</ele>
        <time>2019-03-16T13:03:49Z</time>
      </trkpt>
      <trkpt lat="44.32564" lon="5.83219">
        <ele>571</ele>
        <time>2019-03-16T13:03:50Z</time>
      </trkpt>
      <trkpt lat="44.3257" lon="5.83221">
        <ele>571</ele>
        <time>2019-03-16T13:03:51Z</time>
      </trkpt>
      <trkpt lat="44.32576" lon="5.83224">
        <ele>571</ele>
        <time>2019-03-16T13:03:52Z</time>
      </trkpt>
      <trkpt lat="44.32581" lon="5.83227">
        <ele>571</ele>
        <time>2019-03-16T13:03:53Z</time>
      </trkpt>
      <trkpt lat="44.32587" lon="5.8323">
        <ele>571</ele>
        <time>2019-03-16T13:03:54Z</time>
      </trkpt>
      <trkpt lat="44.32593" lon="5.83233">
        <ele>571</ele>
        <time>2019-03-16T13:03:55Z</time>
      </trkpt>
      <trkpt lat="44.32598" lon="5.83236">
        <ele>571</ele>
        <time>2019-03-16T13:03:56Z</time>
      </trkpt>
      <trkpt lat="44.32604" lon="5.8324">
        <ele>571</ele>
        <time>2019-03-16T13:03:57Z</time>
      </trkpt>
      <trkpt lat="44.3261" lon="5.83244">
        <ele>571</ele>
        <time>2019-03-16T13:03:58Z</time>
      </trkpt>
      <trkpt lat="44.32615" lon="5.83247">
        <ele>571</ele>
        <time>2019-03-16T13:03:59Z</time>
      </trkpt>
      <trkpt lat="44.3262" lon="5.83251">
        <ele>571</ele>
        <time>2019-03-16T13:04:00Z</time>
      </trkpt>
      <trkpt lat="44.32626" lon="5.83255">
        <ele>571</ele>
        <time>2019-03-16T13:04:01Z</time>
      </trkpt>
      <trkpt lat="44.32631" lon="5.83258">
        <ele>571</ele>
        <time>2019-03-16T13:04:02Z</time>
      </trkpt>
      <trkpt lat="44.32636" lon="5.83262">
        <ele>571</ele>
        <time>2019-03-16T13:04:03Z</time>
      </trkpt>
      <trkpt lat="44.32641" lon="5.83265">
        <ele>571</ele>
        <time>2019-03-16T13:04:04Z</time>
      </trkpt>
      <trkpt lat="44.32646" lon="5.83269">
        <ele>571</ele>
        <time>2019-03-16T13:04:05Z</time>
      </trkpt>
      <trkpt lat="44.32651" lon="5.83272">
        <ele>571</ele>
        <time>2019-03-16T13:04:06Z</time>
      </trkpt>
      <trkpt lat="44.32656" lon="5.83275">
        <ele>571</ele>
        <time>2019-03-16T13:04:07Z</time>
      </trkpt>
      <trkpt lat="44.32661" lon="5.83279">
        <ele>571</ele>
        <time>2019-03-16T13:04:08Z</time>
      </trkpt>
      <trkpt lat="44.32666" lon="5.83282">
        <ele>571</ele>
        <time>2019-03-16T13:04:09Z</time>
      </trkpt>
      <trkpt lat="44.32671" lon="5.83286">
        <ele>571</ele>
        <time>2019-03-16T13:04:11Z</time>
      </trkpt>
      <trkpt lat="44.32676" lon="5.8329">
        <ele>571</ele>
        <time>2019-03-16T13:04:11Z</time>
      </trkpt>
      <trkpt lat="44.32681" lon="5.83293">
        <ele>571</ele>
        <time>2019-03-16T13:04:12Z</time>
      </trkpt>
      <trkpt lat="44.32685" lon="5.83297">
        <ele>571</ele>
        <time>2019-03-16T13:04:14Z</time>
      </trkpt>
      <trkpt lat="44.3269" lon="5.833">
        <ele>571</ele>
        <time>2019-03-16T13:04:14Z</time>
      </trkpt>
      <trkpt lat="44.32696" lon="5.83304">
        <ele>571</ele>
        <time>2019-03-16T13:04:15Z</time>
      </trkpt>
      <trkpt lat="44.32701" lon="5.83307">
        <ele>571</ele>
        <time>2019-03-16T13:04:16Z</time>
      </trkpt>
      <trkpt lat="44.32706" lon="5.83311">
        <ele>571</ele>
        <time>2019-03-16T13:04:17Z</time>
      </trkpt>
      <trkpt lat="44.32711" lon="5.83315">
        <ele>571</ele>
        <time>2019-03-16T13:04:18Z</time>
      </trkpt>
      <trkpt lat="44.32716" lon="5.83319">
        <ele>571</ele>
        <time>2019-03-16T13:04:19Z</time>
      </trkpt>
      <trkpt lat="44.32721" lon="5.83322">
        <ele>571</ele>
        <time>2019-03-16T13:04:20Z</time>
      </trkpt>
      <trkpt lat="44.32726" lon="5.83326">
        <ele>571</ele>
        <time>2019-03-16T13:04:21Z</time>
      </trkpt>
      <trkpt lat="44.32732" lon="5.8333">
        <ele>571</ele>
        <time>2019-03-16T13:04:22Z</time>
      </trkpt>
      <trkpt lat="44.32737" lon="5.83334">
        <ele>571</ele>
        <time>2019-03-16T13:04:23Z</time>
      </trkpt>
      <trkpt lat="44.32742" lon="5.83337">
        <ele>571</ele>
        <time>2019-03-16T13:04:24Z</time>
      </trkpt>
      <trkpt lat="44.32747" lon="5.83341">
        <ele>571</ele>
        <time>2019-03-16T13:04:25Z</time>
      </trkpt>
      <trkpt lat="44.32752" lon="5.83345">
        <ele>571</ele>
        <time>2019-03-16T13:04:26Z</time>
      </trkpt>
      <trkpt lat="44.32757" lon="5.83348">
        <ele>571</ele>
        <time>2019-03-16T13:04:27Z</time>
      </trkpt>
      <trkpt lat="44.32762" lon="5.83352">
        <ele>571</ele>
        <time>2019-03-16T13:04:28Z</time>
      </trkpt>
      <trkpt lat="44.32767" lon="5.83355">
        <ele>571</ele>
        <time>2019-03-16T13:04:29Z</time>
      </trkpt>
      <trkpt lat="44.32772" lon="5.83359">
        <ele>571</ele>
        <time>2019-03-16T13:04:30Z</time>
      </trkpt>
      <trkpt lat="44.32777" lon="5.83362">
        <ele>571</ele>
        <time>2019-03-16T13:04:31Z</time>
      </trkpt>
      <trkpt lat="44.32782" lon="5.83365">
        <ele>571</ele>
        <time>2019-03-16T13:04:32Z</time>
      </trkpt>
      <trkpt lat="44.32787" lon="5.83369">
        <ele>571</ele>
        <time>2019-03-16T13:04:33Z</time>
      </trkpt>
      <trkpt lat="44.32792" lon="5.83372">
        <ele>571</ele>
        <time>2019-03-16T13:04:34Z</time>
      </trkpt>
      <trkpt lat="44.32796" lon="5.83376">
        <ele>571</ele>
        <time>2019-03-16T13:04:35Z</time>
      </trkpt>
      <trkpt lat="44.32801" lon="5.83379">
        <ele>571</ele>
        <time>2019-03-16T13:04:36Z</time>
      </trkpt>
      <trkpt lat="44.32806" lon="5.83382">
        <ele>571</ele>
        <time>2019-03-16T13:04:37Z</time>
      </trkpt>
      <trkpt lat="44.32812" lon="5.83384">
        <ele>571</ele>
        <time>2019-03-16T13:04:38Z</time>
      </trkpt>
      <trkpt lat="44.32817" lon="5.83386">
        <ele>571</ele>
        <time>2019-03-16T13:04:39Z</time>
      </trkpt>
      <trkpt lat="44.32822" lon="5.83388">
        <ele>571</ele>
        <time>2019-03-16T13:04:40Z</time>
      </trkpt>
      <trkpt lat="44.32827" lon="5.8339">
        <ele>572</ele>
        <time>2019-03-16T13:04:41Z</time>
      </trkpt>
      <trkpt lat="44.32832" lon="5.83391">
        <ele>572</ele>
        <time>2019-03-16T13:04:42Z</time>
      </trkpt>
      <trkpt lat="44.32838" lon="5.83392">
        <ele>572</ele>
        <time>2019-03-16T13:04:43Z</time>
      </trkpt>
      <trkpt lat="44.32843" lon="5.83392">
        <ele>572</ele>
        <time>2019-03-16T13:04:44Z</time>
      </trkpt>
      <trkpt lat="44.32848" lon="5.83393">
        <ele>573</ele>
        <time>2019-03-16T13:04:45Z</time>
      </trkpt>
      <trkpt lat="44.32853" lon="5.83393">
        <ele>573</ele>
        <time>2019-03-16T13:04:46Z</time>
      </trkpt>
      <trkpt lat="44.32858" lon="5.83394">
        <ele>573</ele>
        <time>2019-03-16T13:04:47Z</time>
      </trkpt>
      <trkpt lat="44.32864" lon="5.83394">
        <ele>573</ele>
        <time>2019-03-16T13:04:48Z</time>
      </trkpt>
      <trkpt lat="44.32869" lon="5.83394">
        <ele>573</ele>
        <time>2019-03-16T13:04:49Z</time>
      </trkpt>
      <trkpt lat="44.32874" lon="5.83395">
        <ele>573</ele>
        <time>2019-03-16T13:04:50Z</time>
      </trkpt>
      <trkpt lat="44.32879" lon="5.83395">
        <ele>573</ele>
        <time>2019-03-16T13:04:51Z</time>
      </trkpt>
      <trkpt lat="44.32883" lon="5.83395">
        <ele>574</ele>
        <time>2019-03-16T13:04:52Z</time>
      </trkpt>
      <trkpt lat="44.32888" lon="5.83396">
        <ele>574</ele>
        <time>2019-03-16T13:04:53Z</time>
      </trkpt>
      <trkpt lat="44.32893" lon="5.83396">
        <ele>574</ele>
        <time>2019-03-16T13:04:54Z</time>
      </trkpt>
      <trkpt lat="44.32898" lon="5.83396">
        <ele>574</ele>
        <time>2019-03-16T13:04:55Z</time>
      </trkpt>
      <trkpt lat="44.32902" lon="5.83396">
        <ele>574</ele>
        <time>2019-03-16T13:04:56Z</time>
      </trkpt>
      <trkpt lat="44.32907" lon="5.83397">
        <ele>574</ele>
        <time>2019-03-16T13:04:57Z</time>
      </trkpt>
      <trkpt lat="44.32912" lon="5.83397">
        <ele>574</ele>
        <time>2019-03-16T13:04:58Z</time>
      </trkpt>
      <trkpt lat="44.32916" lon="5.83397">
        <ele>575</ele>
        <time>2019-03-16T13:04:59Z</time>
      </trkpt>
      <trkpt lat="44.32921" lon="5.83398">
        <ele>575</ele>
        <time>2019-03-16T13:05:00Z</time>
      </trkpt>
      <trkpt lat="44.32925" lon="5.83398">
        <ele>575</ele>
        <time>2019-03-16T13:05:01Z</time>
      </trkpt>
      <trkpt lat="44.3293" lon="5.83399">
        <ele>575</ele>
        <time>2019-03-16T13:05:02Z</time>
      </trkpt>
      <trkpt lat="44.32935" lon="5.83399">
        <ele>575</ele>
        <time>2019-03-16T13:05:03Z</time>
      </trkpt>
      <trkpt lat="44.3294" lon="5.83399">
        <ele>575</ele>
        <time>2019-03-16T13:05:04Z</time>
      </trkpt>
      <trkpt lat="44.32945" lon="5.83399">
        <ele>576</ele>
        <time>2019-03-16T13:05:05Z</time>
      </trkpt>
      <trkpt lat="44.3295" lon="5.834">
        <ele>576</ele>
        <time>2019-03-16T13:05:06Z</time>
      </trkpt>
      <trkpt lat="44.32954" lon="5.834">
        <ele>576</ele>
        <time>2019-03-16T13:05:07Z</time>
      </trkpt>
      <trkpt lat="44.32959" lon="5.83401">
        <ele>576</ele>
        <time>2019-03-16T13:05:08Z</time>
      </trkpt>
      <trkpt lat="44.32964" lon="5.83401">
        <ele>576</ele>
        <time>2019-03-16T13:05:09Z</time>
      </trkpt>
      <trkpt lat="44.32969" lon="5.83401">
        <ele>576</ele>
        <time>2019-03-16T13:05:11Z</time>
      </trkpt>
      <trkpt lat="44.32974" lon="5.83401">
        <ele>576</ele>
        <time>2019-03-16T13:05:11Z</time>
      </trkpt>
      <trkpt lat="44.32979" lon="5.83401">
        <ele>577</ele>
        <time>2019-03-16T13:05:12Z</time>
      </trkpt>
      <trkpt lat="44.32984" lon="5.83402">
        <ele>577</ele>
        <time>2019-03-16T13:05:13Z</time>
      </trkpt>
      <trkpt lat="44.32989" lon="5.83402">
        <ele>577</ele>
        <time>2019-03-16T13:05:14Z</time>
      </trkpt>
      <trkpt lat="44.32994" lon="5.83402">
        <ele>577</ele>
        <time>2019-03-16T13:05:15Z</time>
      </trkpt>
      <trkpt lat="44.32999" lon="5.83402">
        <ele>577</ele>
        <time>2019-03-16T13:05:16Z</time>
      </trkpt>
      <trkpt lat="44.33005" lon="5.83402">
        <ele>577</ele>
        <time>2019-03-16T13:05:17Z</time>
      </trkpt>
      <trkpt lat="44.3301" lon="5.83403">
        <ele>577</ele>
        <time>2019-03-16T13:05:18Z</time>
      </trkpt>
      <trkpt lat="44.33015" lon="5.83403">
        <ele>577</ele>
        <time>2019-03-16T13:05:19Z</time>
      </trkpt>
      <trkpt lat="44.33021" lon="5.83404">
        <ele>577</ele>
        <time>2019-03-16T13:05:20Z</time>
      </trkpt>
      <trkpt lat="44.33026" lon="5.83404">
        <ele>577</ele>
        <time>2019-03-16T13:05:21Z</time>
      </trkpt>
      <trkpt lat="44.33032" lon="5.83405">
        <ele>577</ele>
        <time>2019-03-16T13:05:22Z</time>
      </trkpt>
      <trkpt lat="44.33038" lon="5.83405">
        <ele>577</ele>
        <time>2019-03-16T13:05:23Z</time>
      </trkpt>
      <trkpt lat="44.33044" lon="5.83405">
        <ele>577</ele>
        <time>2019-03-16T13:05:24Z</time>
      </trkpt>
      <trkpt lat="44.3305" lon="5.83405">
        <ele>577</ele>
        <time>2019-03-16T13:05:25Z</time>
      </trkpt>
      <trkpt lat="44.33056" lon="5.83406">
        <ele>577</ele>
        <time>2019-03-16T13:05:26Z</time>
      </trkpt>
      <trkpt lat="44.33062" lon="5.83406">
        <ele>577</ele>
        <time>2019-03-16T13:05:27Z</time>
      </trkpt>
      <trkpt lat="44.33068" lon="5.83406">
        <ele>577</ele>
        <time>2019-03-16T13:05:28Z</time>
      </trkpt>
      <trkpt lat="44.33075" lon="5.83406">
        <ele>577</ele>
        <time>2019-03-16T13:05:29Z</time>
      </trkpt>
      <trkpt lat="44.33081" lon="5.83406">
        <ele>577</ele>
        <time>2019-03-16T13:05:30Z</time>
      </trkpt>
      <trkpt lat="44.33088" lon="5.83405">
        <ele>577</ele>
        <time>2019-03-16T13:05:31Z</time>
      </trkpt>
      <trkpt lat="44.33094" lon="5.83405">
        <ele>577</ele>
        <time>2019-03-16T13:05:32Z</time>
      </trkpt>
      <trkpt lat="44.331" lon="5.83404">
        <ele>577</ele>
        <time>2019-03-16T13:05:33Z</time>
      </trkpt>
      <trkpt lat="44.33107" lon="5.83404">
        <ele>577</ele>
        <time>2019-03-16T13:05:34Z</time>
      </trkpt>
      <trkpt lat="44.33113" lon="5.83403">
        <ele>577</ele>
        <time>2019-03-16T13:05:35Z</time>
      </trkpt>
      <trkpt lat="44.33119" lon="5.83403">
        <ele>577</ele>
        <time>2019-03-16T13:05:36Z</time>
      </trkpt>
      <trkpt lat="44.33125" lon="5.83402">
        <ele>577</ele>
        <time>2019-03-16T13:05:37Z</time>
      </trkpt>
      <trkpt lat="44.33131" lon="5.83401">
        <ele>577</ele>
        <time>2019-03-16T13:05:38Z</time>
      </trkpt>
      <trkpt lat="44.33138" lon="5.83401">
        <ele>577</ele>
        <time>2019-03-16T13:05:39Z</time>
      </trkpt>
      <trkpt lat="44.33144" lon="5.834">
        <ele>577</ele>
        <time>2019-03-16T13:05:40Z</time>
      </trkpt>
      <trkpt lat="44.33149" lon="5.83399">
        <ele>577</ele>
        <time>2019-03-16T13:05:41Z</time>
      </trkpt>
      <trkpt lat="44.33155" lon="5.83398">
        <ele>577</ele>
        <time>2019-03-16T13:05:42Z</time>
      </trkpt>
      <trkpt lat="44.33161" lon="5.83397">
        <ele>577</ele>
        <time>2019-03-16T13:05:43Z</time>
      </trkpt>
      <trkpt lat="44.33166" lon="5.83396">
        <ele>577</ele>
        <time>2019-03-16T13:05:44Z</time>
      </trkpt>
      <trkpt lat="44.33172" lon="5.83395">
        <ele>577</ele>
        <time>2019-03-16T13:05:45Z</time>
      </trkpt>
      <trkpt lat="44.33178" lon="5.83394">
        <ele>577</ele>
        <time>2019-03-16T13:05:46Z</time>
      </trkpt>
      <trkpt lat="44.33183" lon="5.83393">
        <ele>577</ele>
        <time>2019-03-16T13:05:47Z</time>
      </trkpt>
      <trkpt lat="44.33189" lon="5.83393">
        <ele>577</ele>
        <time>2019-03-16T13:05:48Z</time>
      </trkpt>
      <trkpt lat="44.33194" lon="5.83392">
        <ele>577</ele>
        <time>2019-03-16T13:05:49Z</time>
      </trkpt>
      <trkpt lat="44.332" lon="5.83391">
        <ele>577</ele>
        <time>2019-03-16T13:05:50Z</time>
      </trkpt>
      <trkpt lat="44.33205" lon="5.8339">
        <ele>577</ele>
        <time>2019-03-16T13:05:51Z</time>
      </trkpt>
      <trkpt lat="44.3321" lon="5.83389">
        <ele>577</ele>
        <time>2019-03-16T13:05:52Z</time>
      </trkpt>
      <trkpt lat="44.33216" lon="5.83388">
        <ele>577</ele>
        <time>2019-03-16T13:05:53Z</time>
      </trkpt>
      <trkpt lat="44.33221" lon="5.83388">
        <ele>577</ele>
        <time>2019-03-16T13:05:54Z</time>
      </trkpt>
      <trkpt lat="44.33227" lon="5.83387">
        <ele>577</ele>
        <time>2019-03-16T13:05:55Z</time>
      </trkpt>
      <trkpt lat="44.33232" lon="5.83386">
        <ele>577</ele>
        <time>2019-03-16T13:05:56Z</time>
      </trkpt>
      <trkpt lat="44.33237" lon="5.83385">
        <ele>577</ele>
        <time>2019-03-16T13:05:57Z</time>
      </trkpt>
      <trkpt lat="44.33243" lon="5.83384">
        <ele>577</ele>
        <time>2019-03-16T13:05:58Z</time>
      </trkpt>
      <trkpt lat="44.33248" lon="5.83384">
        <ele>577</ele>
        <time>2019-03-16T13:05:59Z</time>
      </trkpt>
      <trkpt lat="44.33254" lon="5.83383">
        <ele>577</ele>
        <time>2019-03-16T13:06:00Z</time>
      </trkpt>
      <trkpt lat="44.3326" lon="5.83382">
        <ele>577</ele>
        <time>2019-03-16T13:06:01Z</time>
      </trkpt>
      <trkpt lat="44.33265" lon="5.83381">
        <ele>577</ele>
        <time>2019-03-16T13:06:02Z</time>
      </trkpt>
      <trkpt lat="44.33271" lon="5.8338">
        <ele>577</ele>
        <time>2019-03-16T13:06:03Z</time>
      </trkpt>
      <trkpt lat="44.33276" lon="5.83379">
        <ele>578</ele>
        <time>2019-03-16T13:06:04Z</time>
      </trkpt>
      <trkpt lat="44.33281" lon="5.83378">
        <ele>578</ele>
        <time>2019-03-16T13:06:05Z</time>
      </trkpt>
      <trkpt lat="44.33287" lon="5.83378">
        <ele>578</ele>
        <time>2019-03-16T13:06:06Z</time>
      </trkpt>
      <trkpt lat="44.33292" lon="5.83377">
        <ele>578</ele>
        <time>2019-03-16T13:06:07Z</time>
      </trkpt>
      <trkpt lat="44.33297" lon="5.83376">
        <ele>578</ele>
        <time>2019-03-16T13:06:08Z</time>
      </trkpt>
      <trkpt lat="44.33303" lon="5.83375">
        <ele>579</ele>
        <time>2019-03-16T13:06:09Z</time>
      </trkpt>
      <trkpt lat="44.33308" lon="5.83375">
        <ele>579</ele>
        <time>2019-03-16T13:06:10Z</time>
      </trkpt>
      <trkpt lat="44.33313" lon="5.83374">
        <ele>579</ele>
        <time>2019-03-16T13:06:11Z</time>
      </trkpt>
      <trkpt lat="44.33319" lon="5.83373">
        <ele>579</ele>
        <time>2019-03-16T13:06:12Z</time>
      </trkpt>
      <trkpt lat="44.33324" lon="5.83372">
        <ele>579</ele>
        <time>2019-03-16T13:06:13Z</time>
      </trkpt>
      <trkpt lat="44.33329" lon="5.83371">
        <ele>579</ele>
        <time>2019-03-16T13:06:14Z</time>
      </trkpt>
      <trkpt lat="44.33335" lon="5.8337">
        <ele>579</ele>
        <time>2019-03-16T13:06:15Z</time>
      </trkpt>
      <trkpt lat="44.3334" lon="5.83369">
        <ele>579</ele>
        <time>2019-03-16T13:06:16Z</time>
      </trkpt>
      <trkpt lat="44.33345" lon="5.83369">
        <ele>580</ele>
        <time>2019-03-16T13:06:17Z</time>
      </trkpt>
      <trkpt lat="44.33351" lon="5.83368">
        <ele>580</ele>
        <time>2019-03-16T13:06:18Z</time>
      </trkpt>
      <trkpt lat="44.33356" lon="5.83367">
        <ele>580</ele>
        <time>2019-03-16T13:06:19Z</time>
      </trkpt>
      <trkpt lat="44.33361" lon="5.83366">
        <ele>580</ele>
        <time>2019-03-16T13:06:20Z</time>
      </trkpt>
      <trkpt lat="44.33366" lon="5.83365">
        <ele>580</ele>
        <time>2019-03-16T13:06:21Z</time>
      </trkpt>
      <trkpt lat="44.33372" lon="5.83364">
        <ele>580</ele>
        <time>2019-03-16T13:06:22Z</time>
      </trkpt>
      <trkpt lat="44.33377" lon="5.83364">
        <ele>580</ele>
        <time>2019-03-16T13:06:23Z</time>
      </trkpt>
      <trkpt lat="44.33382" lon="5.83363">
        <ele>580</ele>
        <time>2019-03-16T13:06:24Z</time>
      </trkpt>
      <trkpt lat="44.33387" lon="5.83362">
        <ele>580</ele>
        <time>2019-03-16T13:06:25Z</time>
      </trkpt>
      <trkpt lat="44.33393" lon="5.83361">
        <ele>580</ele>
        <time>2019-03-16T13:06:26Z</time>
      </trkpt>
      <trkpt lat="44.33398" lon="5.83361">
        <ele>581</ele>
        <time>2019-03-16T13:06:27Z</time>
      </trkpt>
      <trkpt lat="44.33403" lon="5.8336">
        <ele>581</ele>
        <time>2019-03-16T13:06:28Z</time>
      </trkpt>
      <trkpt lat="44.33409" lon="5.83359">
        <ele>581</ele>
        <time>2019-03-16T13:06:29Z</time>
      </trkpt>
      <trkpt lat="44.33414" lon="5.83359">
        <ele>581</ele>
        <time>2019-03-16T13:06:30Z</time>
      </trkpt>
      <trkpt lat="44.33419" lon="5.83358">
        <ele>581</ele>
        <time>2019-03-16T13:06:31Z</time>
      </trkpt>
      <trkpt lat="44.33424" lon="5.83357">
        <ele>581</ele>
        <time>2019-03-16T13:06:32Z</time>
      </trkpt>
      <trkpt lat="44.33429" lon="5.83356">
        <ele>581</ele>
        <time>2019-03-16T13:06:33Z</time>
      </trkpt>
      <trkpt lat="44.33435" lon="5.83355">
        <ele>581</ele>
        <time>2019-03-16T13:06:34Z</time>
      </trkpt>
      <trkpt lat="44.3344" lon="5.83355">
        <ele>581</ele>
        <time>2019-03-16T13:06:35Z</time>
      </trkpt>
      <trkpt lat="44.33445" lon="5.83354">
        <ele>581</ele>
        <time>2019-03-16T13:06:36Z</time>
      </trkpt>
      <trkpt lat="44.3345" lon="5.83353">
        <ele>582</ele>
        <time>2019-03-16T13:06:37Z</time>
      </trkpt>
      <trkpt lat="44.33455" lon="5.83353">
        <ele>582</ele>
        <time>2019-03-16T13:06:38Z</time>
      </trkpt>
      <trkpt lat="44.33461" lon="5.83353">
        <ele>582</ele>
        <time>2019-03-16T13:06:39Z</time>
      </trkpt>
      <trkpt lat="44.33466" lon="5.83353">
        <ele>582</ele>
        <time>2019-03-16T13:06:40Z</time>
      </trkpt>
      <trkpt lat="44.33471" lon="5.83353">
        <ele>582</ele>
        <time>2019-03-16T13:06:41Z</time>
      </trkpt>
      <trkpt lat="44.33476" lon="5.83354">
        <ele>582</ele>
        <time>2019-03-16T13:06:42Z</time>
      </trkpt>
      <trkpt lat="44.33482" lon="5.83354">
        <ele>582</ele>
        <time>2019-03-16T13:06:43Z</time>
      </trkpt>
      <trkpt lat="44.33487" lon="5.83354">
        <ele>582</ele>
        <time>2019-03-16T13:06:44Z</time>
      </trkpt>
      <trkpt lat="44.33492" lon="5.83354">
        <ele>582</ele>
        <time>2019-03-16T13:06:45Z</time>
      </trkpt>
      <trkpt lat="44.33497" lon="5.83354">
        <ele>583</ele>
        <time>2019-03-16T13:06:46Z</time>
      </trkpt>
      <trkpt lat="44.33502" lon="5.83355">
        <ele>583</ele>
        <time>2019-03-16T13:06:47Z</time>
      </trkpt>
      <trkpt lat="44.33506" lon="5.83355">
        <ele>583</ele>
        <time>2019-03-16T13:06:48Z</time>
      </trkpt>
      <trkpt lat="44.33511" lon="5.83355">
        <ele>583</ele>
        <time>2019-03-16T13:06:49Z</time>
      </trkpt>
      <trkpt lat="44.33516" lon="5.83356">
        <ele>583</ele>
        <time>2019-03-16T13:06:50Z</time>
      </trkpt>
      <trkpt lat="44.33521" lon="5.83357">
        <ele>583</ele>
        <time>2019-03-16T13:06:51Z</time>
      </trkpt>
      <trkpt lat="44.33526" lon="5.83357">
        <ele>583</ele>
        <time>2019-03-16T13:06:52Z</time>
      </trkpt>
      <trkpt lat="44.33531" lon="5.83358">
        <ele>583</ele>
        <time>2019-03-16T13:06:53Z</time>
      </trkpt>
      <trkpt lat="44.33536" lon="5.83358">
        <ele>583</ele>
        <time>2019-03-16T13:06:54Z</time>
      </trkpt>
      <trkpt lat="44.33541" lon="5.83359">
        <ele>584</ele>
        <time>2019-03-16T13:06:55Z</time>
      </trkpt>
      <trkpt lat="44.33546" lon="5.83359">
        <ele>584</ele>
        <time>2019-03-16T13:06:56Z</time>
      </trkpt>
      <trkpt lat="44.3355" lon="5.8336">
        <ele>584</ele>
        <time>2019-03-16T13:06:57Z</time>
      </trkpt>
      <trkpt lat="44.33554" lon="5.83361">
        <ele>584</ele>
        <time>2019-03-16T13:06:58Z</time>
      </trkpt>
      <trkpt lat="44.33559" lon="5.83361">
        <ele>584</ele>
        <time>2019-03-16T13:06:59Z</time>
      </trkpt>
      <trkpt lat="44.33564" lon="5.83362">
        <ele>584</ele>
        <time>2019-03-16T13:07:00Z</time>
      </trkpt>
      <trkpt lat="44.33569" lon="5.83363">
        <ele>584</ele>
        <time>2019-03-16T13:07:01Z</time>
      </trkpt>
      <trkpt lat="44.33574" lon="5.83363">
        <ele>585</ele>
        <time>2019-03-16T13:07:02Z</time>
      </trkpt>
      <trkpt lat="44.33579" lon="5.83363">
        <ele>585</ele>
        <time>2019-03-16T13:07:03Z</time>
      </trkpt>
      <trkpt lat="44.33583" lon="5.83364">
        <ele>585</ele>
        <time>2019-03-16T13:07:04Z</time>
      </trkpt>
      <trkpt lat="44.33588" lon="5.83364">
        <ele>585</ele>
        <time>2019-03-16T13:07:05Z</time>
      </trkpt>
      <trkpt lat="44.33593" lon="5.83365">
        <ele>586</ele>
        <time>2019-03-16T13:07:06Z</time>
      </trkpt>
      <trkpt lat="44.33598" lon="5.83365">
        <ele>586</ele>
        <time>2019-03-16T13:07:07Z</time>
      </trkpt>
      <trkpt lat="44.33603" lon="5.83365">
        <ele>586</ele>
        <time>2019-03-16T13:07:08Z</time>
      </trkpt>
      <trkpt lat="44.33607" lon="5.83366">
        <ele>586</ele>
        <time>2019-03-16T13:07:09Z</time>
      </trkpt>
      <trkpt lat="44.33612" lon="5.83366">
        <ele>586</ele>
        <time>2019-03-16T13:07:11Z</time>
      </trkpt>
      <trkpt lat="44.33617" lon="5.83366">
        <ele>586</ele>
        <time>2019-03-16T13:07:11Z</time>
      </trkpt>
      <trkpt lat="44.33622" lon="5.83367">
        <ele>586</ele>
        <time>2019-03-16T13:07:12Z</time>
      </trkpt>
      <trkpt lat="44.33627" lon="5.83367">
        <ele>587</ele>
        <time>2019-03-16T13:07:13Z</time>
      </trkpt>
      <trkpt lat="44.33632" lon="5.83368">
        <ele>587</ele>
        <time>2019-03-16T13:07:14Z</time>
      </trkpt>
      <trkpt lat="44.33636" lon="5.83369">
        <ele>587</ele>
        <time>2019-03-16T13:07:15Z</time>
      </trkpt>
      <trkpt lat="44.33641" lon="5.8337">
        <ele>587</ele>
        <time>2019-03-16T13:07:16Z</time>
      </trkpt>
      <trkpt lat="44.33646" lon="5.8337">
        <ele>587</ele>
        <time>2019-03-16T13:07:17Z</time>
      </trkpt>
      <trkpt lat="44.33651" lon="5.83371">
        <ele>587</ele>
        <time>2019-03-16T13:07:18Z</time>
      </trkpt>
      <trkpt lat="44.33656" lon="5.83371">
        <ele>587</ele>
        <time>2019-03-16T13:07:19Z</time>
      </trkpt>
      <trkpt lat="44.3366" lon="5.83372">
        <ele>587</ele>
        <time>2019-03-16T13:07:20Z</time>
      </trkpt>
      <trkpt lat="44.33665" lon="5.83372">
        <ele>587</ele>
        <time>2019-03-16T13:07:21Z</time>
      </trkpt>
      <trkpt lat="44.3367" lon="5.83373">
        <ele>587</ele>
        <time>2019-03-16T13:07:22Z</time>
      </trkpt>
      <trkpt lat="44.33675" lon="5.83373">
        <ele>588</ele>
        <time>2019-03-16T13:07:23Z</time>
      </trkpt>
      <trkpt lat="44.3368" lon="5.83374">
        <ele>588</ele>
        <time>2019-03-16T13:07:24Z</time>
      </trkpt>
      <trkpt lat="44.33684" lon="5.83375">
        <ele>588</ele>
        <time>2019-03-16T13:07:25Z</time>
      </trkpt>
      <trkpt lat="44.33689" lon="5.83375">
        <ele>588</ele>
        <time>2019-03-16T13:07:26Z</time>
      </trkpt>
      <trkpt lat="44.33694" lon="5.83376">
        <ele>588</ele>
        <time>2019-03-16T13:07:27Z</time>
      </trkpt>
      <trkpt lat="44.33698" lon="5.83376">
        <ele>589</ele>
        <time>2019-03-16T13:07:28Z</time>
      </trkpt>
      <trkpt lat="44.33703" lon="5.83377">
        <ele>589</ele>
        <time>2019-03-16T13:07:29Z</time>
      </trkpt>
      <trkpt lat="44.33708" lon="5.83377">
        <ele>589</ele>
        <time>2019-03-16T13:07:30Z</time>
      </trkpt>
      <trkpt lat="44.33713" lon="5.83378">
        <ele>589</ele>
        <time>2019-03-16T13:07:31Z</time>
      </trkpt>
      <trkpt lat="44.33717" lon="5.83378">
        <ele>589</ele>
        <time>2019-03-16T13:07:32Z</time>
      </trkpt>
      <trkpt lat="44.33722" lon="5.83379">
        <ele>589</ele>
        <time>2019-03-16T13:07:33Z</time>
      </trkpt>
      <trkpt lat="44.33727" lon="5.83379">
        <ele>590</ele>
        <time>2019-03-16T13:07:34Z</time>
      </trkpt>
      <trkpt lat="44.33731" lon="5.8338">
        <ele>590</ele>
        <time>2019-03-16T13:07:35Z</time>
      </trkpt>
      <trkpt lat="44.33736" lon="5.8338">
        <ele>590</ele>
        <time>2019-03-16T13:07:36Z</time>
      </trkpt>
      <trkpt lat="44.33741" lon="5.83381">
        <ele>590</ele>
        <time>2019-03-16T13:07:37Z</time>
      </trkpt>
      <trkpt lat="44.33746" lon="5.83381">
        <ele>590</ele>
        <time>2019-03-16T13:07:38Z</time>
      </trkpt>
      <trkpt lat="44.3375" lon="5.83382">
        <ele>590</ele>
        <time>2019-03-16T13:07:39Z</time>
      </trkpt>
      <trkpt lat="44.33755" lon="5.83382">
        <ele>590</ele>
        <time>2019-03-16T13:07:40Z</time>
      </trkpt>
      <trkpt lat="44.3376" lon="5.83383">
        <ele>591</ele>
        <time>2019-03-16T13:07:41Z</time>
      </trkpt>
      <trkpt lat="44.33765" lon="5.83384">
        <ele>591</ele>
        <time>2019-03-16T13:07:42Z</time>
      </trkpt>
      <trkpt lat="44.3377" lon="5.83384">
        <ele>591</ele>
        <time>2019-03-16T13:07:43Z</time>
      </trkpt>
      <trkpt lat="44.33774" lon="5.83385">
        <ele>591</ele>
        <time>2019-03-16T13:07:44Z</time>
      </trkpt>
      <trkpt lat="44.33779" lon="5.83386">
        <ele>591</ele>
        <time>2019-03-16T13:07:45Z</time>
      </trkpt>
      <trkpt lat="44.33784" lon="5.83387">
        <ele>591</ele>
        <time>2019-03-16T13:07:46Z</time>
      </trkpt>
      <trkpt lat="44.33788" lon="5.83388">
        <ele>591</ele>
        <time>2019-03-16T13:07:47Z</time>
      </trkpt>
      <trkpt lat="44.33793" lon="5.83389">
        <ele>591</ele>
        <time>2019-03-16T13:07:48Z</time>
      </trkpt>
      <trkpt lat="44.33797" lon="5.83389">
        <ele>591</ele>
        <time>2019-03-16T13:07:49Z</time>
      </trkpt>
      <trkpt lat="44.33802" lon="5.8339">
        <ele>592</ele>
        <time>2019-03-16T13:07:50Z</time>
      </trkpt>
      <trkpt lat="44.33807" lon="5.83391">
        <ele>592</ele>
        <time>2019-03-16T13:07:51Z</time>
      </trkpt>
      <trkpt lat="44.33812" lon="5.83392">
        <ele>592</ele>
        <time>2019-03-16T13:07:52Z</time>
      </trkpt>
      <trkpt lat="44.33816" lon="5.83393">
        <ele>592</ele>
        <time>2019-03-16T13:07:53Z</time>
      </trkpt>
      <trkpt lat="44.33821" lon="5.83394">
        <ele>592</ele>
        <time>2019-03-16T13:07:54Z</time>
      </trkpt>
      <trkpt lat="44.33825" lon="5.83396">
        <ele>592</ele>
        <time>2019-03-16T13:07:55Z</time>
      </trkpt>
      <trkpt lat="44.3383" lon="5.83397">
        <ele>592</ele>
        <time>2019-03-16T13:07:56Z</time>
      </trkpt>
      <trkpt lat="44.33834" lon="5.83398">
        <ele>592</ele>
        <time>2019-03-16T13:07:57Z</time>
      </trkpt>
      <trkpt lat="44.33839" lon="5.83399">
        <ele>592</ele>
        <time>2019-03-16T13:07:58Z</time>
      </trkpt>
      <trkpt lat="44.33844" lon="5.834">
        <ele>592</ele>
        <time>2019-03-16T13:07:59Z</time>
      </trkpt>
      <trkpt lat="44.33849" lon="5.83401">
        <ele>592</ele>
        <time>2019-03-16T13:08:00Z</time>
      </trkpt>
      <trkpt lat="44.33854" lon="5.83402">
        <ele>593</ele>
        <time>2019-03-16T13:08:01Z</time>
      </trkpt>
      <trkpt lat="44.33859" lon="5.83403">
        <ele>593</ele>
        <time>2019-03-16T13:08:02Z</time>
      </trkpt>
      <trkpt lat="44.33864" lon="5.83404">
        <ele>593</ele>
        <time>2019-03-16T13:08:03Z</time>
      </trkpt>
      <trkpt lat="44.33869" lon="5.83405">
        <ele>593</ele>
        <time>2019-03-16T13:08:04Z</time>
      </trkpt>
      <trkpt lat="44.33874" lon="5.83406">
        <ele>593</ele>
        <time>2019-03-16T13:08:05Z</time>
      </trkpt>
      <trkpt lat="44.33879" lon="5.83407">
        <ele>593</ele>
        <time>2019-03-16T13:08:06Z</time>
      </trkpt>
      <trkpt lat="44.33884" lon="5.83408">
        <ele>593</ele>
        <time>2019-03-16T13:08:07Z</time>
      </trkpt>
      <trkpt lat="44.33889" lon="5.83409">
        <ele>593</ele>
        <time>2019-03-16T13:08:08Z</time>
      </trkpt>
      <trkpt lat="44.33894" lon="5.8341">
        <ele>593</ele>
        <time>2019-03-16T13:08:09Z</time>
      </trkpt>
      <trkpt lat="44.33899" lon="5.83411">
        <ele>593</ele>
        <time>2019-03-16T13:08:11Z</time>
      </trkpt>
      <trkpt lat="44.33904" lon="5.83412">
        <ele>594</ele>
        <time>2019-03-16T13:08:11Z</time>
      </trkpt>
      <trkpt lat="44.33908" lon="5.83413">
        <ele>594</ele>
        <time>2019-03-16T13:08:12Z</time>
      </trkpt>
      <trkpt lat="44.33913" lon="5.83414">
        <ele>594</ele>
        <time>2019-03-16T13:08:13Z</time>
      </trkpt>
      <trkpt lat="44.33918" lon="5.83415">
        <ele>594</ele>
        <time>2019-03-16T13:08:14Z</time>
      </trkpt>
      <trkpt lat="44.33923" lon="5.83416">
        <ele>594</ele>
        <time>2019-03-16T13:08:15Z</time>
      </trkpt>
      <trkpt lat="44.33928" lon="5.83418">
        <ele>594</ele>
        <time>2019-03-16T13:08:16Z</time>
      </trkpt>
      <trkpt lat="44.33932" lon="5.83419">
        <ele>594</ele>
        <time>2019-03-16T13:08:17Z</time>
      </trkpt>
      <trkpt lat="44.33937" lon="5.8342">
        <ele>594</ele>
        <time>2019-03-16T13:08:18Z</time>
      </trkpt>
      <trkpt lat="44.33942" lon="5.83422">
        <ele>595</ele>
        <time>2019-03-16T13:08:19Z</time>
      </trkpt>
      <trkpt lat="44.33946" lon="5.83424">
        <ele>595</ele>
        <time>2019-03-16T13:08:20Z</time>
      </trkpt>
      <trkpt lat="44.33951" lon="5.83426">
        <ele>595</ele>
        <time>2019-03-16T13:08:21Z</time>
      </trkpt>
      <trkpt lat="44.33955" lon="5.83428">
        <ele>595</ele>
        <time>2019-03-16T13:08:22Z</time>
      </trkpt>
      <trkpt lat="44.3396" lon="5.83431">
        <ele>595</ele>
        <time>2019-03-16T13:08:23Z</time>
      </trkpt>
      <trkpt lat="44.33964" lon="5.83434">
        <ele>595</ele>
        <time>2019-03-16T13:08:24Z</time>
      </trkpt>
      <trkpt lat="44.33968" lon="5.83438">
        <ele>595</ele>
        <time>2019-03-16T13:08:25Z</time>
      </trkpt>
      <trkpt lat="44.33972" lon="5.83441">
        <ele>595</ele>
        <time>2019-03-16T13:08:26Z</time>
      </trkpt>
      <trkpt lat="44.33976" lon="5.83445">
        <ele>596</ele>
        <time>2019-03-16T13:08:27Z</time>
      </trkpt>
      <trkpt lat="44.3398" lon="5.83449">
        <ele>596</ele>
        <time>2019-03-16T13:08:28Z</time>
      </trkpt>
      <trkpt lat="44.33984" lon="5.83452">
        <ele>596</ele>
        <time>2019-03-16T13:08:29Z</time>
      </trkpt>
      <trkpt lat="44.33988" lon="5.83456">
        <ele>596</ele>
        <time>2019-03-16T13:08:30Z</time>
      </trkpt>
      <trkpt lat="44.33992" lon="5.8346">
        <ele>596</ele>
        <time>2019-03-16T13:08:31Z</time>
      </trkpt>
      <trkpt lat="44.33996" lon="5.83464">
        <ele>597</ele>
        <time>2019-03-16T13:08:32Z</time>
      </trkpt>
      <trkpt lat="44.34" lon="5.83468">
        <ele>597</ele>
        <time>2019-03-16T13:08:33Z</time>
      </trkpt>
      <trkpt lat="44.34005" lon="5.83472">
        <ele>597</ele>
        <time>2019-03-16T13:08:34Z</time>
      </trkpt>
      <trkpt lat="44.34008" lon="5.83476">
        <ele>597</ele>
        <time>2019-03-16T13:08:35Z</time>
      </trkpt>
      <trkpt lat="44.34013" lon="5.8348">
        <ele>597</ele>
        <time>2019-03-16T13:08:36Z</time>
      </trkpt>
      <trkpt lat="44.34017" lon="5.83484">
        <ele>598</ele>
        <time>2019-03-16T13:08:37Z</time>
      </trkpt>
      <trkpt lat="44.34021" lon="5.83488">
        <ele>598</ele>
        <time>2019-03-16T13:08:38Z</time>
      </trkpt>
      <trkpt lat="44.34025" lon="5.83493">
        <ele>598</ele>
        <time>2019-03-16T13:08:39Z</time>
      </trkpt>
      <trkpt lat="44.34029" lon="5.83497">
        <ele>598</ele>
        <time>2019-03-16T13:08:40Z</time>
      </trkpt>
      <trkpt lat="44.34034" lon="5.83501">
        <ele>598</ele>
        <time>2019-03-16T13:08:41Z</time>
      </trkpt>
      <trkpt lat="44.34038" lon="5.83505">
        <ele>598</ele>
        <time>2019-03-16T13:08:42Z</time>
      </trkpt>
      <trkpt lat="44.34042" lon="5.83509">
        <ele>599</ele>
        <time>2019-03-16T13:08:43Z</time>
      </trkpt>
      <trkpt lat="44.34047" lon="5.83514">
        <ele>599</ele>
        <time>2019-03-16T13:08:44Z</time>
      </trkpt>
      <trkpt lat="44.34051" lon="5.83518">
        <ele>599</ele>
        <time>2019-03-16T13:08:45Z</time>
      </trkpt>
      <trkpt lat="44.34055" lon="5.83522">
        <ele>599</ele>
        <time>2019-03-16T13:08:46Z</time>
      </trkpt>
      <trkpt lat="44.3406" lon="5.83526">
        <ele>599</ele>
        <time>2019-03-16T13:08:47Z</time>
      </trkpt>
      <trkpt lat="44.34064" lon="5.8353">
        <ele>600</ele>
        <time>2019-03-16T13:08:48Z</time>
      </trkpt>
      <trkpt lat="44.34068" lon="5.83535">
        <ele>600</ele>
        <time>2019-03-16T13:08:49Z</time>
      </trkpt>
      <trkpt lat="44.34072" lon="5.83539">
        <ele>600</ele>
        <time>2019-03-16T13:08:50Z</time>
      </trkpt>
      <trkpt lat="44.34077" lon="5.83543">
        <ele>600</ele>
        <time>2019-03-16T13:08:51Z</time>
      </trkpt>
      <trkpt lat="44.34081" lon="5.83547">
        <ele>600</ele>
        <time>2019-03-16T13:08:52Z</time>
      </trkpt>
      <trkpt lat="44.34085" lon="5.83551">
        <ele>600</ele>
        <time>2019-03-16T13:08:53Z</time>
      </trkpt>
      <trkpt lat="44.34089" lon="5.83556">
        <ele>601</ele>
        <time>2019-03-16T13:08:54Z</time>
      </trkpt>
      <trkpt lat="44.34093" lon="5.8356">
        <ele>601</ele>
        <time>2019-03-16T13:08:55Z</time>
      </trkpt>
      <trkpt lat="44.34098" lon="5.83564">
        <ele>601</ele>
        <time>2019-03-16T13:08:56Z</time>
      </trkpt>
      <trkpt lat="44.34103" lon="5.83568">
        <ele>601</ele>
        <time>2019-03-16T13:08:57Z</time>
      </trkpt>
      <trkpt lat="44.34107" lon="5.83573">
        <ele>601</ele>
        <time>2019-03-16T13:08:58Z</time>
      </trkpt>
      <trkpt lat="44.34112" lon="5.83577">
        <ele>601</ele>
        <time>2019-03-16T13:08:59Z</time>
      </trkpt>
      <trkpt lat="44.34116" lon="5.83582">
        <ele>601</ele>
        <time>2019-03-16T13:09:00Z</time>
      </trkpt>
      <trkpt lat="44.34121" lon="5.83587">
        <ele>601</ele>
        <time>2019-03-16T13:09:01Z</time>
      </trkpt>
      <trkpt lat="44.34126" lon="5.83592">
        <ele>601</ele>
        <time>2019-03-16T13:09:02Z</time>
      </trkpt>
      <trkpt lat="44.3413" lon="5.83597">
        <ele>601</ele>
        <time>2019-03-16T13:09:03Z</time>
      </trkpt>
      <trkpt lat="44.34136" lon="5.83602">
        <ele>601</ele>
        <time>2019-03-16T13:09:04Z</time>
      </trkpt>
      <trkpt lat="44.34141" lon="5.83606">
        <ele>601</ele>
        <time>2019-03-16T13:09:05Z</time>
      </trkpt>
      <trkpt lat="44.34146" lon="5.83611">
        <ele>601</ele>
        <time>2019-03-16T13:09:06Z</time>
      </trkpt>
      <trkpt lat="44.34151" lon="5.83617">
        <ele>601</ele>
        <time>2019-03-16T13:09:07Z</time>
      </trkpt>
      <trkpt lat="44.34157" lon="5.83622">
        <ele>601</ele>
        <time>2019-03-16T13:09:08Z</time>
      </trkpt>
      <trkpt lat="44.34163" lon="5.83628">
        <ele>601</ele>
        <time>2019-03-16T13:09:09Z</time>
      </trkpt>
      <trkpt lat="44.34168" lon="5.83633">
        <ele>601</ele>
        <time>2019-03-16T13:09:11Z</time>
      </trkpt>
      <trkpt lat="44.34174" lon="5.83639">
        <ele>601</ele>
        <time>2019-03-16T13:09:11Z</time>
      </trkpt>
      <trkpt lat="44.3418" lon="5.83645">
        <ele>601</ele>
        <time>2019-03-16T13:09:12Z</time>
      </trkpt>
      <trkpt lat="44.34185" lon="5.8365">
        <ele>601</ele>
        <time>2019-03-16T13:09:13Z</time>
      </trkpt>
      <trkpt lat="44.34191" lon="5.83656">
        <ele>601</ele>
        <time>2019-03-16T13:09:14Z</time>
      </trkpt>
      <trkpt lat="44.34196" lon="5.83663">
        <ele>601</ele>
        <time>2019-03-16T13:09:15Z</time>
      </trkpt>
      <trkpt lat="44.34202" lon="5.83669">
        <ele>601</ele>
        <time>2019-03-16T13:09:16Z</time>
      </trkpt>
      <trkpt lat="44.34207" lon="5.83675">
        <ele>601</ele>
        <time>2019-03-16T13:09:17Z</time>
      </trkpt>
      <trkpt lat="44.34211" lon="5.83681">
        <ele>601</ele>
        <time>2019-03-16T13:09:18Z</time>
      </trkpt>
      <trkpt lat="44.34216" lon="5.83687">
        <ele>601</ele>
        <time>2019-03-16T13:09:19Z</time>
      </trkpt>
      <trkpt lat="44.34221" lon="5.83694">
        <ele>601</ele>
        <time>2019-03-16T13:09:20Z</time>
      </trkpt>
      <trkpt lat="44.34225" lon="5.837">
        <ele>601</ele>
        <time>2019-03-16T13:09:21Z</time>
      </trkpt>
      <trkpt lat="44.3423" lon="5.83706">
        <ele>601</ele>
        <time>2019-03-16T13:09:22Z</time>
      </trkpt>
      <trkpt lat="44.34234" lon="5.83712">
        <ele>601</ele>
        <time>2019-03-16T13:09:23Z</time>
      </trkpt>
      <trkpt lat="44.34239" lon="5.83717">
        <ele>601</ele>
        <time>2019-03-16T13:09:24Z</time>
      </trkpt>
      <trkpt lat="44.34243" lon="5.83723">
        <ele>601</ele>
        <time>2019-03-16T13:09:25Z</time>
      </trkpt>
      <trkpt lat="44.34248" lon="5.83729">
        <ele>601</ele>
        <time>2019-03-16T13:09:26Z</time>
      </trkpt>
      <trkpt lat="44.34252" lon="5.83735">
        <ele>601</ele>
        <time>2019-03-16T13:09:27Z</time>
      </trkpt>
      <trkpt lat="44.34256" lon="5.8374">
        <ele>601</ele>
        <time>2019-03-16T13:09:28Z</time>
      </trkpt>
      <trkpt lat="44.34261" lon="5.83746">
        <ele>601</ele>
        <time>2019-03-16T13:09:29Z</time>
      </trkpt>
      <trkpt lat="44.34265" lon="5.83751">
        <ele>601</ele>
        <time>2019-03-16T13:09:30Z</time>
      </trkpt>
      <trkpt lat="44.34269" lon="5.83756">
        <ele>601</ele>
        <time>2019-03-16T13:09:31Z</time>
      </trkpt>
      <trkpt lat="44.34274" lon="5.83762">
        <ele>601</ele>
        <time>2019-03-16T13:09:32Z</time>
      </trkpt>
      <trkpt lat="44.34278" lon="5.83767">
        <ele>601</ele>
        <time>2019-03-16T13:09:33Z</time>
      </trkpt>
      <trkpt lat="44.34282" lon="5.83773">
        <ele>601</ele>
        <time>2019-03-16T13:09:34Z</time>
      </trkpt>
      <trkpt lat="44.34286" lon="5.83778">
        <ele>601</ele>
        <time>2019-03-16T13:09:35Z</time>
      </trkpt>
      <trkpt lat="44.3429" lon="5.83784">
        <ele>601</ele>
        <time>2019-03-16T13:09:36Z</time>
      </trkpt>
      <trkpt lat="44.34295" lon="5.83789">
        <ele>601</ele>
        <time>2019-03-16T13:09:37Z</time>
      </trkpt>
      <trkpt lat="44.34299" lon="5.83795">
        <ele>601</ele>
        <time>2019-03-16T13:09:38Z</time>
      </trkpt>
      <trkpt lat="44.34303" lon="5.83801">
        <ele>601</ele>
        <time>2019-03-16T13:09:39Z</time>
      </trkpt>
      <trkpt lat="44.34308" lon="5.83806">
        <ele>602</ele>
        <time>2019-03-16T13:09:40Z</time>
      </trkpt>
      <trkpt lat="44.34312" lon="5.83812">
        <ele>602</ele>
        <time>2019-03-16T13:09:41Z</time>
      </trkpt>
      <trkpt lat="44.34316" lon="5.83817">
        <ele>602</ele>
        <time>2019-03-16T13:09:42Z</time>
      </trkpt>
      <trkpt lat="44.3432" lon="5.83823">
        <ele>602</ele>
        <time>2019-03-16T13:09:43Z</time>
      </trkpt>
      <trkpt lat="44.34325" lon="5.83829">
        <ele>602</ele>
        <time>2019-03-16T13:09:44Z</time>
      </trkpt>
      <trkpt lat="44.34329" lon="5.83835">
        <ele>602</ele>
        <time>2019-03-16T13:09:45Z</time>
      </trkpt>
      <trkpt lat="44.34333" lon="5.8384">
        <ele>602</ele>
        <time>2019-03-16T13:09:46Z</time>
      </trkpt>
      <trkpt lat="44.34338" lon="5.83846">
        <ele>603</ele>
        <time>2019-03-16T13:09:47Z</time>
      </trkpt>
      <trkpt lat="44.34342" lon="5.83851">
        <ele>603</ele>
        <time>2019-03-16T13:09:48Z</time>
      </trkpt>
      <trkpt lat="44.34346" lon="5.83857">
        <ele>603</ele>
        <time>2019-03-16T13:09:49Z</time>
      </trkpt>
      <trkpt lat="44.3435" lon="5.83863">
        <ele>603</ele>
        <time>2019-03-16T13:09:50Z</time>
      </trkpt>
      <trkpt lat="44.34354" lon="5.83868">
        <ele>603</ele>
        <time>2019-03-16T13:09:51Z</time>
      </trkpt>
      <trkpt lat="44.34359" lon="5.83874">
        <ele>603</ele>
        <time>2019-03-16T13:09:52Z</time>
      </trkpt>
      <trkpt lat="44.34363" lon="5.83879">
        <ele>603</ele>
        <time>2019-03-16T13:09:53Z</time>
      </trkpt>
      <trkpt lat="44.34367" lon="5.83885">
        <ele>603</ele>
        <time>2019-03-16T13:09:54Z</time>
      </trkpt>
      <trkpt lat="44.34371" lon="5.8389">
        <ele>603</ele>
        <time>2019-03-16T13:09:55Z</time>
      </trkpt>
      <trkpt lat="44.34375" lon="5.83896">
        <ele>603</ele>
        <time>2019-03-16T13:09:56Z</time>
      </trkpt>
      <trkpt lat="44.3438" lon="5.83901">
        <ele>603</ele>
        <time>2019-03-16T13:09:57Z</time>
      </trkpt>
      <trkpt lat="44.34384" lon="5.83907">
        <ele>603</ele>
        <time>2019-03-16T13:09:58Z</time>
      </trkpt>
      <trkpt lat="44.34388" lon="5.83913">
        <ele>604</ele>
        <time>2019-03-16T13:09:59Z</time>
      </trkpt>
      <trkpt lat="44.34393" lon="5.83919">
        <ele>604</ele>
        <time>2019-03-16T13:10:00Z</time>
      </trkpt>
      <trkpt lat="44.34397" lon="5.83924">
        <ele>604</ele>
        <time>2019-03-16T13:10:01Z</time>
      </trkpt>
      <trkpt lat="44.34402" lon="5.8393">
        <ele>604</ele>
        <time>2019-03-16T13:10:02Z</time>
      </trkpt>
      <trkpt lat="44.34406" lon="5.83935">
        <ele>604</ele>
        <time>2019-03-16T13:10:03Z</time>
      </trkpt>
      <trkpt lat="44.3441" lon="5.83941">
        <ele>604</ele>
        <time>2019-03-16T13:10:04Z</time>
      </trkpt>
      <trkpt lat="44.34415" lon="5.83947">
        <ele>604</ele>
        <time>2019-03-16T13:10:05Z</time>
      </trkpt>
      <trkpt lat="44.34419" lon="5.83952">
        <ele>604</ele>
        <time>2019-03-16T13:10:06Z</time>
      </trkpt>
      <trkpt lat="44.34423" lon="5.83958">
        <ele>604</ele>
        <time>2019-03-16T13:10:07Z</time>
      </trkpt>
      <trkpt lat="44.34427" lon="5.83963">
        <ele>604</ele>
        <time>2019-03-16T13:10:08Z</time>
      </trkpt>
      <trkpt lat="44.34431" lon="5.83969">
        <ele>605</ele>
        <time>2019-03-16T13:10:09Z</time>
      </trkpt>
      <trkpt lat="44.34436" lon="5.83975">
        <ele>605</ele>
        <time>2019-03-16T13:10:11Z</time>
      </trkpt>
      <trkpt lat="44.3444" lon="5.8398">
        <ele>605</ele>
        <time>2019-03-16T13:10:12Z</time>
      </trkpt>
      <trkpt lat="44.34445" lon="5.83986">
        <ele>605</ele>
        <time>2019-03-16T13:10:12Z</time>
      </trkpt>
      <trkpt lat="44.34449" lon="5.83991">
        <ele>605</ele>
        <time>2019-03-16T13:10:13Z</time>
      </trkpt>
      <trkpt lat="44.34454" lon="5.83997">
        <ele>605</ele>
        <time>2019-03-16T13:10:14Z</time>
      </trkpt>
      <trkpt lat="44.34458" lon="5.84002">
        <ele>605</ele>
        <time>2019-03-16T13:10:15Z</time>
      </trkpt>
      <trkpt lat="44.34463" lon="5.84008">
        <ele>605</ele>
        <time>2019-03-16T13:10:16Z</time>
      </trkpt>
      <trkpt lat="44.34468" lon="5.84014">
        <ele>605</ele>
        <time>2019-03-16T13:10:17Z</time>
      </trkpt>
      <trkpt lat="44.34473" lon="5.8402">
        <ele>605</ele>
        <time>2019-03-16T13:10:18Z</time>
      </trkpt>
      <trkpt lat="44.34477" lon="5.84026">
        <ele>605</ele>
        <time>2019-03-16T13:10:19Z</time>
      </trkpt>
      <trkpt lat="44.34482" lon="5.84032">
        <ele>605</ele>
        <time>2019-03-16T13:10:20Z</time>
      </trkpt>
      <trkpt lat="44.34486" lon="5.84038">
        <ele>605</ele>
        <time>2019-03-16T13:10:21Z</time>
      </trkpt>
      <trkpt lat="44.34491" lon="5.84044">
        <ele>605</ele>
        <time>2019-03-16T13:10:22Z</time>
      </trkpt>
      <trkpt lat="44.34496" lon="5.8405">
        <ele>605</ele>
        <time>2019-03-16T13:10:23Z</time>
      </trkpt>
      <trkpt lat="44.34501" lon="5.84056">
        <ele>605</ele>
        <time>2019-03-16T13:10:24Z</time>
      </trkpt>
      <trkpt lat="44.34505" lon="5.84063">
        <ele>605</ele>
        <time>2019-03-16T13:10:25Z</time>
      </trkpt>
      <trkpt lat="44.3451" lon="5.84069">
        <ele>605</ele>
        <time>2019-03-16T13:10:26Z</time>
      </trkpt>
      <trkpt lat="44.34515" lon="5.84075">
        <ele>605</ele>
        <time>2019-03-16T13:10:27Z</time>
      </trkpt>
      <trkpt lat="44.3452" lon="5.84081">
        <ele>605</ele>
        <time>2019-03-16T13:10:28Z</time>
      </trkpt>
      <trkpt lat="44.34524" lon="5.84088">
        <ele>605</ele>
        <time>2019-03-16T13:10:29Z</time>
      </trkpt>
      <trkpt lat="44.34529" lon="5.84094">
        <ele>605</ele>
        <time>2019-03-16T13:10:30Z</time>
      </trkpt>
      <trkpt lat="44.34534" lon="5.84099">
        <ele>605</ele>
        <time>2019-03-16T13:10:31Z</time>
      </trkpt>
      <trkpt lat="44.34539" lon="5.84105">
        <ele>605</ele>
        <time>2019-03-16T13:10:32Z</time>
      </trkpt>
      <trkpt lat="44.34543" lon="5.84112">
        <ele>605</ele>
        <time>2019-03-16T13:10:33Z</time>
      </trkpt>
      <trkpt lat="44.34548" lon="5.84118">
        <ele>605</ele>
        <time>2019-03-16T13:10:34Z</time>
      </trkpt>
      <trkpt lat="44.34552" lon="5.84124">
        <ele>605</ele>
        <time>2019-03-16T13:10:35Z</time>
      </trkpt>
      <trkpt lat="44.34557" lon="5.8413">
        <ele>605</ele>
        <time>2019-03-16T13:10:36Z</time>
      </trkpt>
      <trkpt lat="44.34562" lon="5.84136">
        <ele>605</ele>
        <time>2019-03-16T13:10:37Z</time>
      </trkpt>
      <trkpt lat="44.34566" lon="5.84142">
        <ele>605</ele>
        <time>2019-03-16T13:10:38Z</time>
      </trkpt>
      <trkpt lat="44.34571" lon="5.84148">
        <ele>605</ele>
        <time>2019-03-16T13:10:39Z</time>
      </trkpt>
      <trkpt lat="44.34575" lon="5.84153">
        <ele>605</ele>
        <time>2019-03-16T13:10:40Z</time>
      </trkpt>
      <trkpt lat="44.3458" lon="5.84159">
        <ele>605</ele>
        <time>2019-03-16T13:10:41Z</time>
      </trkpt>
      <trkpt lat="44.34584" lon="5.84165">
        <ele>605</ele>
        <time>2019-03-16T13:10:42Z</time>
      </trkpt>
      <trkpt lat="44.34588" lon="5.84172">
        <ele>605</ele>
        <time>2019-03-16T13:10:43Z</time>
      </trkpt>
      <trkpt lat="44.34592" lon="5.84178">
        <ele>605</ele>
        <time>2019-03-16T13:10:44Z</time>
      </trkpt>
      <trkpt lat="44.34596" lon="5.84184">
        <ele>605</ele>
        <time>2019-03-16T13:10:45Z</time>
      </trkpt>
      <trkpt lat="44.34599" lon="5.84191">
        <ele>605</ele>
        <time>2019-03-16T13:10:46Z</time>
      </trkpt>
      <trkpt lat="44.34602" lon="5.84198">
        <ele>605</ele>
        <time>2019-03-16T13:10:47Z</time>
      </trkpt>
      <trkpt lat="44.34605" lon="5.84205">
        <ele>605</ele>
        <time>2019-03-16T13:10:48Z</time>
      </trkpt>
      <trkpt lat="44.34608" lon="5.84212">
        <ele>605</ele>
        <time>2019-03-16T13:10:49Z</time>
      </trkpt>
      <trkpt lat="44.34611" lon="5.84219">
        <ele>605</ele>
        <time>2019-03-16T13:10:50Z</time>
      </trkpt>
      <trkpt lat="44.34613" lon="5.84226">
        <ele>605</ele>
        <time>2019-03-16T13:10:51Z</time>
      </trkpt>
      <trkpt lat="44.34615" lon="5.84233">
        <ele>605</ele>
        <time>2019-03-16T13:10:52Z</time>
      </trkpt>
      <trkpt lat="44.34618" lon="5.8424">
        <ele>605</ele>
        <time>2019-03-16T13:10:53Z</time>
      </trkpt>
      <trkpt lat="44.34619" lon="5.84248">
        <ele>605</ele>
        <time>2019-03-16T13:10:54Z</time>
      </trkpt>
      <trkpt lat="44.34621" lon="5.84255">
        <ele>605</ele>
        <time>2019-03-16T13:10:55Z</time>
      </trkpt>
      <trkpt lat="44.34623" lon="5.84262">
        <ele>605</ele>
        <time>2019-03-16T13:10:56Z</time>
      </trkpt>
      <trkpt lat="44.34624" lon="5.8427">
        <ele>605</ele>
        <time>2019-03-16T13:10:57Z</time>
      </trkpt>
      <trkpt lat="44.34626" lon="5.84277">
        <ele>605</ele>
        <time>2019-03-16T13:10:58Z</time>
      </trkpt>
      <trkpt lat="44.34628" lon="5.84285">
        <ele>605</ele>
        <time>2019-03-16T13:10:59Z</time>
      </trkpt>
      <trkpt lat="44.34629" lon="5.84292">
        <ele>605</ele>
        <time>2019-03-16T13:11:00Z</time>
      </trkpt>
      <trkpt lat="44.3463" lon="5.843">
        <ele>605</ele>
        <time>2019-03-16T13:11:01Z</time>
      </trkpt>
      <trkpt lat="44.34632" lon="5.84308">
        <ele>606</ele>
        <time>2019-03-16T13:11:02Z</time>
      </trkpt>
      <trkpt lat="44.34633" lon="5.84315">
        <ele>606</ele>
        <time>2019-03-16T13:11:03Z</time>
      </trkpt>
      <trkpt lat="44.34635" lon="5.84323">
        <ele>606</ele>
        <time>2019-03-16T13:11:04Z</time>
      </trkpt>
      <trkpt lat="44.34637" lon="5.8433">
        <ele>606</ele>
        <time>2019-03-16T13:11:05Z</time>
      </trkpt>
      <trkpt lat="44.34638" lon="5.84338">
        <ele>606</ele>
        <time>2019-03-16T13:11:06Z</time>
      </trkpt>
      <trkpt lat="44.3464" lon="5.84345">
        <ele>607</ele>
        <time>2019-03-16T13:11:07Z</time>
      </trkpt>
      <trkpt lat="44.34642" lon="5.84352">
        <ele>607</ele>
        <time>2019-03-16T13:11:08Z</time>
      </trkpt>
      <trkpt lat="44.34644" lon="5.84358">
        <ele>607</ele>
        <time>2019-03-16T13:11:09Z</time>
      </trkpt>
      <trkpt lat="44.34646" lon="5.84365">
        <ele>607</ele>
        <time>2019-03-16T13:11:11Z</time>
      </trkpt>
      <trkpt lat="44.34649" lon="5.84371">
        <ele>608</ele>
        <time>2019-03-16T13:11:11Z</time>
      </trkpt>
      <trkpt lat="44.34651" lon="5.84377">
        <ele>608</ele>
        <time>2019-03-16T13:11:12Z</time>
      </trkpt>
      <trkpt lat="44.34654" lon="5.84383">
        <ele>608</ele>
        <time>2019-03-16T13:11:13Z</time>
      </trkpt>
      <trkpt lat="44.34656" lon="5.84389">
        <ele>608</ele>
        <time>2019-03-16T13:11:14Z</time>
      </trkpt>
      <trkpt lat="44.34659" lon="5.84396">
        <ele>609</ele>
        <time>2019-03-16T13:11:15Z</time>
      </trkpt>
      <trkpt lat="44.34662" lon="5.84402">
        <ele>609</ele>
        <time>2019-03-16T13:11:16Z</time>
      </trkpt>
      <trkpt lat="44.34665" lon="5.84408">
        <ele>609</ele>
        <time>2019-03-16T13:11:17Z</time>
      </trkpt>
      <trkpt lat="44.34668" lon="5.84414">
        <ele>609</ele>
        <time>2019-03-16T13:11:18Z</time>
      </trkpt>
      <trkpt lat="44.34671" lon="5.84419">
        <ele>609</ele>
        <time>2019-03-16T13:11:19Z</time>
      </trkpt>
      <trkpt lat="44.34675" lon="5.84425">
        <ele>609</ele>
        <time>2019-03-16T13:11:20Z</time>
      </trkpt>
      <trkpt lat="44.34679" lon="5.8443">
        <ele>610</ele>
        <time>2019-03-16T13:11:21Z</time>
      </trkpt>
      <trkpt lat="44.34683" lon="5.84435">
        <ele>610</ele>
        <time>2019-03-16T13:11:22Z</time>
      </trkpt>
      <trkpt lat="44.34687" lon="5.8444">
        <ele>610</ele>
        <time>2019-03-16T13:11:23Z</time>
      </trkpt>
      <trkpt lat="44.3469" lon="5.84445">
        <ele>610</ele>
        <time>2019-03-16T13:11:24Z</time>
      </trkpt>
      <trkpt lat="44.34694" lon="5.84449">
        <ele>610</ele>
        <time>2019-03-16T13:11:25Z</time>
      </trkpt>
      <trkpt lat="44.34698" lon="5.84454">
        <ele>610</ele>
        <time>2019-03-16T13:11:26Z</time>
      </trkpt>
      <trkpt lat="44.34702" lon="5.84458">
        <ele>611</ele>
        <time>2019-03-16T13:11:27Z</time>
      </trkpt>
      <trkpt lat="44.34706" lon="5.84463">
        <ele>611</ele>
        <time>2019-03-16T13:11:28Z</time>
      </trkpt>
      <trkpt lat="44.3471" lon="5.84468">
        <ele>611</ele>
        <time>2019-03-16T13:11:29Z</time>
      </trkpt>
      <trkpt lat="44.34714" lon="5.84473">
        <ele>611</ele>
        <time>2019-03-16T13:11:30Z</time>
      </trkpt>
      <trkpt lat="44.34718" lon="5.84477">
        <ele>611</ele>
        <time>2019-03-16T13:11:31Z</time>
      </trkpt>
      <trkpt lat="44.34722" lon="5.84482">
        <ele>612</ele>
        <time>2019-03-16T13:11:32Z</time>
      </trkpt>
      <trkpt lat="44.34726" lon="5.84487">
        <ele>612</ele>
        <time>2019-03-16T13:11:33Z</time>
      </trkpt>
      <trkpt lat="44.34731" lon="5.84492">
        <ele>612</ele>
        <time>2019-03-16T13:11:34Z</time>
      </trkpt>
      <trkpt lat="44.34735" lon="5.84497">
        <ele>612</ele>
        <time>2019-03-16T13:11:35Z</time>
      </trkpt>
      <trkpt lat="44.34739" lon="5.84502">
        <ele>612</ele>
        <time>2019-03-16T13:11:36Z</time>
      </trkpt>
      <trkpt lat="44.34743" lon="5.84507">
        <ele>612</ele>
        <time>2019-03-16T13:11:37Z</time>
      </trkpt>
      <trkpt lat="44.34747" lon="5.84512">
        <ele>612</ele>
        <time>2019-03-16T13:11:38Z</time>
      </trkpt>
      <trkpt lat="44.34751" lon="5.84516">
        <ele>613</ele>
        <time>2019-03-16T13:11:39Z</time>
      </trkpt>
      <trkpt lat="44.34755" lon="5.84521">
        <ele>613</ele>
        <time>2019-03-16T13:11:40Z</time>
      </trkpt>
      <trkpt lat="44.34759" lon="5.84526">
        <ele>613</ele>
        <time>2019-03-16T13:11:41Z</time>
      </trkpt>
      <trkpt lat="44.34763" lon="5.84531">
        <ele>613</ele>
        <time>2019-03-16T13:11:42Z</time>
      </trkpt>
      <trkpt lat="44.34768" lon="5.84536">
        <ele>613</ele>
        <time>2019-03-16T13:11:43Z</time>
      </trkpt>
      <trkpt lat="44.34772" lon="5.84541">
        <ele>613</ele>
        <time>2019-03-16T13:11:44Z</time>
      </trkpt>
      <trkpt lat="44.34776" lon="5.84546">
        <ele>613</ele>
        <time>2019-03-16T13:11:45Z</time>
      </trkpt>
      <trkpt lat="44.3478" lon="5.84551">
        <ele>613</ele>
        <time>2019-03-16T13:11:46Z</time>
      </trkpt>
      <trkpt lat="44.34784" lon="5.84556">
        <ele>613</ele>
        <time>2019-03-16T13:11:47Z</time>
      </trkpt>
      <trkpt lat="44.34789" lon="5.84561">
        <ele>613</ele>
        <time>2019-03-16T13:11:48Z</time>
      </trkpt>
      <trkpt lat="44.34793" lon="5.84566">
        <ele>614</ele>
        <time>2019-03-16T13:11:49Z</time>
      </trkpt>
      <trkpt lat="44.34797" lon="5.84571">
        <ele>614</ele>
        <time>2019-03-16T13:11:50Z</time>
      </trkpt>
      <trkpt lat="44.34801" lon="5.84576">
        <ele>614</ele>
        <time>2019-03-16T13:11:51Z</time>
      </trkpt>
      <trkpt lat="44.34806" lon="5.84581">
        <ele>614</ele>
        <time>2019-03-16T13:11:52Z</time>
      </trkpt>
      <trkpt lat="44.3481" lon="5.84586">
        <ele>614</ele>
        <time>2019-03-16T13:11:53Z</time>
      </trkpt>
      <trkpt lat="44.34814" lon="5.84591">
        <ele>614</ele>
        <time>2019-03-16T13:11:54Z</time>
      </trkpt>
      <trkpt lat="44.34819" lon="5.84596">
        <ele>614</ele>
        <time>2019-03-16T13:11:55Z</time>
      </trkpt>
      <trkpt lat="44.34823" lon="5.84601">
        <ele>614</ele>
        <time>2019-03-16T13:11:56Z</time>
      </trkpt>
      <trkpt lat="44.34827" lon="5.84607">
        <ele>614</ele>
        <time>2019-03-16T13:11:57Z</time>
      </trkpt>
      <trkpt lat="44.34831" lon="5.84612">
        <ele>614</ele>
        <time>2019-03-16T13:11:58Z</time>
      </trkpt>
      <trkpt lat="44.34835" lon="5.84618">
        <ele>614</ele>
        <time>2019-03-16T13:11:59Z</time>
      </trkpt>
      <trkpt lat="44.34838" lon="5.84623">
        <ele>614</ele>
        <time>2019-03-16T13:12:00Z</time>
      </trkpt>
      <trkpt lat="44.34842" lon="5.84629">
        <ele>615</ele>
        <time>2019-03-16T13:12:01Z</time>
      </trkpt>
      <trkpt lat="44.34846" lon="5.84635">
        <ele>615</ele>
        <time>2019-03-16T13:12:02Z</time>
      </trkpt>
      <trkpt lat="44.34849" lon="5.84641">
        <ele>615</ele>
        <time>2019-03-16T13:12:03Z</time>
      </trkpt>
      <trkpt lat="44.34853" lon="5.84647">
        <ele>615</ele>
        <time>2019-03-16T13:12:04Z</time>
      </trkpt>
      <trkpt lat="44.34857" lon="5.84653">
        <ele>615</ele>
        <time>2019-03-16T13:12:05Z</time>
      </trkpt>
      <trkpt lat="44.3486" lon="5.84659">
        <ele>615</ele>
        <time>2019-03-16T13:12:06Z</time>
      </trkpt>
      <trkpt lat="44.34864" lon="5.84665">
        <ele>615</ele>
        <time>2019-03-16T13:12:07Z</time>
      </trkpt>
      <trkpt lat="44.34867" lon="5.84671">
        <ele>615</ele>
        <time>2019-03-16T13:12:08Z</time>
      </trkpt>
      <trkpt lat="44.3487" lon="5.84677">
        <ele>615</ele>
        <time>2019-03-16T13:12:09Z</time>
      </trkpt>
      <trkpt lat="44.34873" lon="5.84683">
        <ele>615</ele>
        <time>2019-03-16T13:12:10Z</time>
      </trkpt>
      <trkpt lat="44.34877" lon="5.84689">
        <ele>615</ele>
        <time>2019-03-16T13:12:11Z</time>
      </trkpt>
      <trkpt lat="44.3488" lon="5.84695">
        <ele>615</ele>
        <time>2019-03-16T13:12:12Z</time>
      </trkpt>
      <trkpt lat="44.34883" lon="5.84701">
        <ele>615</ele>
        <time>2019-03-16T13:12:13Z</time>
      </trkpt>
      <trkpt lat="44.34887" lon="5.84706">
        <ele>616</ele>
        <time>2019-03-16T13:12:14Z</time>
      </trkpt>
      <trkpt lat="44.34891" lon="5.84712">
        <ele>616</ele>
        <time>2019-03-16T13:12:15Z</time>
      </trkpt>
      <trkpt lat="44.34895" lon="5.84717">
        <ele>616</ele>
        <time>2019-03-16T13:12:16Z</time>
      </trkpt>
      <trkpt lat="44.34898" lon="5.84722">
        <ele>616</ele>
        <time>2019-03-16T13:12:17Z</time>
      </trkpt>
      <trkpt lat="44.34903" lon="5.84727">
        <ele>616</ele>
        <time>2019-03-16T13:12:18Z</time>
      </trkpt>
      <trkpt lat="44.34907" lon="5.84732">
        <ele>616</ele>
        <time>2019-03-16T13:12:19Z</time>
      </trkpt>
      <trkpt lat="44.34911" lon="5.84737">
        <ele>616</ele>
        <time>2019-03-16T13:12:20Z</time>
      </trkpt>
      <trkpt lat="44.34916" lon="5.84742">
        <ele>616</ele>
        <time>2019-03-16T13:12:21Z</time>
      </trkpt>
      <trkpt lat="44.3492" lon="5.84746">
        <ele>617</ele>
        <time>2019-03-16T13:12:22Z</time>
      </trkpt>
      <trkpt lat="44.34925" lon="5.8475">
        <ele>617</ele>
        <time>2019-03-16T13:12:23Z</time>
      </trkpt>
      <trkpt lat="44.3493" lon="5.84754">
        <ele>617</ele>
        <time>2019-03-16T13:12:24Z</time>
      </trkpt>
      <trkpt lat="44.34935" lon="5.84758">
        <ele>617</ele>
        <time>2019-03-16T13:12:25Z</time>
      </trkpt>
      <trkpt lat="44.34939" lon="5.84762">
        <ele>617</ele>
        <time>2019-03-16T13:12:26Z</time>
      </trkpt>
      <trkpt lat="44.34944" lon="5.84766">
        <ele>617</ele>
        <time>2019-03-16T13:12:27Z</time>
      </trkpt>
      <trkpt lat="44.34949" lon="5.8477">
        <ele>617</ele>
        <time>2019-03-16T13:12:28Z</time>
      </trkpt>
      <trkpt lat="44.34954" lon="5.84774">
        <ele>617</ele>
        <time>2019-03-16T13:12:29Z</time>
      </trkpt>
      <trkpt lat="44.34959" lon="5.84778">
        <ele>617</ele>
        <time>2019-03-16T13:12:30Z</time>
      </trkpt>
      <trkpt lat="44.34964" lon="5.84783">
        <ele>617</ele>
        <time>2019-03-16T13:12:31Z</time>
      </trkpt>
      <trkpt lat="44.34968" lon="5.84787">
        <ele>617</ele>
        <time>2019-03-16T13:12:32Z</time>
      </trkpt>
      <trkpt lat="44.34973" lon="5.84791">
        <ele>617</ele>
        <time>2019-03-16T13:12:33Z</time>
      </trkpt>
      <trkpt lat="44.34977" lon="5.84795">
        <ele>617</ele>
        <time>2019-03-16T13:12:34Z</time>
      </trkpt>
      <trkpt lat="44.34982" lon="5.84799">
        <ele>618</ele>
        <time>2019-03-16T13:12:35Z</time>
      </trkpt>
      <trkpt lat="44.34987" lon="5.84803">
        <ele>618</ele>
        <time>2019-03-16T13:12:36Z</time>
      </trkpt>
      <trkpt lat="44.34991" lon="5.84807">
        <ele>618</ele>
        <time>2019-03-16T13:12:37Z</time>
      </trkpt>
      <trkpt lat="44.34996" lon="5.84812">
        <ele>618</ele>
        <time>2019-03-16T13:12:38Z</time>
      </trkpt>
      <trkpt lat="44.35001" lon="5.84816">
        <ele>618</ele>
        <time>2019-03-16T13:12:39Z</time>
      </trkpt>
      <trkpt lat="44.35005" lon="5.84821">
        <ele>619</ele>
        <time>2019-03-16T13:12:40Z</time>
      </trkpt>
      <trkpt lat="44.3501" lon="5.84826">
        <ele>619</ele>
        <time>2019-03-16T13:12:41Z</time>
      </trkpt>
      <trkpt lat="44.35014" lon="5.8483">
        <ele>619</ele>
        <time>2019-03-16T13:12:42Z</time>
      </trkpt>
      <trkpt lat="44.35019" lon="5.84834">
        <ele>619</ele>
        <time>2019-03-16T13:12:43Z</time>
      </trkpt>
      <trkpt lat="44.35023" lon="5.84839">
        <ele>619</ele>
        <time>2019-03-16T13:12:44Z</time>
      </trkpt>
      <trkpt lat="44.35027" lon="5.84844">
        <ele>620</ele>
        <time>2019-03-16T13:12:45Z</time>
      </trkpt>
      <trkpt lat="44.35032" lon="5.84849">
        <ele>620</ele>
        <time>2019-03-16T13:12:46Z</time>
      </trkpt>
      <trkpt lat="44.35036" lon="5.84854">
        <ele>620</ele>
        <time>2019-03-16T13:12:47Z</time>
      </trkpt>
      <trkpt lat="44.3504" lon="5.84859">
        <ele>620</ele>
        <time>2019-03-16T13:12:48Z</time>
      </trkpt>
      <trkpt lat="44.35044" lon="5.84864">
        <ele>620</ele>
        <time>2019-03-16T13:12:49Z</time>
      </trkpt>
      <trkpt lat="44.35047" lon="5.84869">
        <ele>620</ele>
        <time>2019-03-16T13:12:50Z</time>
      </trkpt>
      <trkpt lat="44.35051" lon="5.84875">
        <ele>620</ele>
        <time>2019-03-16T13:12:51Z</time>
      </trkpt>
      <trkpt lat="44.35055" lon="5.8488">
        <ele>621</ele>
        <time>2019-03-16T13:12:52Z</time>
      </trkpt>
      <trkpt lat="44.35059" lon="5.84885">
        <ele>621</ele>
        <time>2019-03-16T13:12:53Z</time>
      </trkpt>
      <trkpt lat="44.35062" lon="5.84891">
        <ele>621</ele>
        <time>2019-03-16T13:12:54Z</time>
      </trkpt>
      <trkpt lat="44.35066" lon="5.84896">
        <ele>621</ele>
        <time>2019-03-16T13:12:55Z</time>
      </trkpt>
      <trkpt lat="44.35069" lon="5.84902">
        <ele>621</ele>
        <time>2019-03-16T13:12:56Z</time>
      </trkpt>
      <trkpt lat="44.35073" lon="5.84907">
        <ele>621</ele>
        <time>2019-03-16T13:12:57Z</time>
      </trkpt>
      <trkpt lat="44.35076" lon="5.84913">
        <ele>621</ele>
        <time>2019-03-16T13:12:58Z</time>
      </trkpt>
      <trkpt lat="44.3508" lon="5.84918">
        <ele>621</ele>
        <time>2019-03-16T13:12:59Z</time>
      </trkpt>
      <trkpt lat="44.35083" lon="5.84924">
        <ele>621</ele>
        <time>2019-03-16T13:13:00Z</time>
      </trkpt>
      <trkpt lat="44.35086" lon="5.8493">
        <ele>621</ele>
        <time>2019-03-16T13:13:01Z</time>
      </trkpt>
      <trkpt lat="44.35089" lon="5.84935">
        <ele>621</ele>
        <time>2019-03-16T13:13:02Z</time>
      </trkpt>
      <trkpt lat="44.35092" lon="5.84941">
        <ele>621</ele>
        <time>2019-03-16T13:13:03Z</time>
      </trkpt>
      <trkpt lat="44.35095" lon="5.84947">
        <ele>621</ele>
        <time>2019-03-16T13:13:04Z</time>
      </trkpt>
      <trkpt lat="44.35098" lon="5.84953">
        <ele>621</ele>
        <time>2019-03-16T13:13:05Z</time>
      </trkpt>
      <trkpt lat="44.35101" lon="5.84959">
        <ele>621</ele>
        <time>2019-03-16T13:13:06Z</time>
      </trkpt>
      <trkpt lat="44.35104" lon="5.84965">
        <ele>621</ele>
        <time>2019-03-16T13:13:07Z</time>
      </trkpt>
      <trkpt lat="44.35106" lon="5.84972">
        <ele>621</ele>
        <time>2019-03-16T13:13:08Z</time>
      </trkpt>
      <trkpt lat="44.35109" lon="5.84978">
        <ele>621</ele>
        <time>2019-03-16T13:13:09Z</time>
      </trkpt>
      <trkpt lat="44.35112" lon="5.84985">
        <ele>621</ele>
        <time>2019-03-16T13:13:11Z</time>
      </trkpt>
      <trkpt lat="44.35114" lon="5.84991">
        <ele>621</ele>
        <time>2019-03-16T13:13:11Z</time>
      </trkpt>
      <trkpt lat="44.35117" lon="5.84998">
        <ele>621</ele>
        <time>2019-03-16T13:13:12Z</time>
      </trkpt>
      <trkpt lat="44.35119" lon="5.85005">
        <ele>621</ele>
        <time>2019-03-16T13:13:13Z</time>
      </trkpt>
      <trkpt lat="44.35122" lon="5.85011">
        <ele>621</ele>
        <time>2019-03-16T13:13:14Z</time>
      </trkpt>
      <trkpt lat="44.35125" lon="5.85017">
        <ele>621</ele>
        <time>2019-03-16T13:13:15Z</time>
      </trkpt>
      <trkpt lat="44.35127" lon="5.85024">
        <ele>621</ele>
        <time>2019-03-16T13:13:16Z</time>
      </trkpt>
      <trkpt lat="44.3513" lon="5.8503">
        <ele>621</ele>
        <time>2019-03-16T13:13:17Z</time>
      </trkpt>
      <trkpt lat="44.35133" lon="5.85036">
        <ele>621</ele>
        <time>2019-03-16T13:13:18Z</time>
      </trkpt>
      <trkpt lat="44.35136" lon="5.85042">
        <ele>622</ele>
        <time>2019-03-16T13:13:19Z</time>
      </trkpt>
      <trkpt lat="44.35139" lon="5.85048">
        <ele>622</ele>
        <time>2019-03-16T13:13:20Z</time>
      </trkpt>
      <trkpt lat="44.35142" lon="5.85054">
        <ele>622</ele>
        <time>2019-03-16T13:13:21Z</time>
      </trkpt>
      <trkpt lat="44.35146" lon="5.85059">
        <ele>622</ele>
        <time>2019-03-16T13:13:22Z</time>
      </trkpt>
      <trkpt lat="44.35149" lon="5.85064">
        <ele>622</ele>
        <time>2019-03-16T13:13:23Z</time>
      </trkpt>
      <trkpt lat="44.35153" lon="5.85069">
        <ele>623</ele>
        <time>2019-03-16T13:13:24Z</time>
      </trkpt>
      <trkpt lat="44.35156" lon="5.85074">
        <ele>623</ele>
        <time>2019-03-16T13:13:25Z</time>
      </trkpt>
      <trkpt lat="44.3516" lon="5.85078">
        <ele>623</ele>
        <time>2019-03-16T13:13:26Z</time>
      </trkpt>
      <trkpt lat="44.35164" lon="5.85083">
        <ele>623</ele>
        <time>2019-03-16T13:13:27Z</time>
      </trkpt>
      <trkpt lat="44.35168" lon="5.85088">
        <ele>623</ele>
        <time>2019-03-16T13:13:28Z</time>
      </trkpt>
      <trkpt lat="44.35173" lon="5.85093">
        <ele>624</ele>
        <time>2019-03-16T13:13:29Z</time>
      </trkpt>
      <trkpt lat="44.35177" lon="5.85097">
        <ele>624</ele>
        <time>2019-03-16T13:13:30Z</time>
      </trkpt>
      <trkpt lat="44.35181" lon="5.85102">
        <ele>624</ele>
        <time>2019-03-16T13:13:31Z</time>
      </trkpt>
      <trkpt lat="44.35186" lon="5.85107">
        <ele>624</ele>
        <time>2019-03-16T13:13:32Z</time>
      </trkpt>
      <trkpt lat="44.3519" lon="5.85111">
        <ele>624</ele>
        <time>2019-03-16T13:13:33Z</time>
      </trkpt>
      <trkpt lat="44.35194" lon="5.85116">
        <ele>624</ele>
        <time>2019-03-16T13:13:34Z</time>
      </trkpt>
      <trkpt lat="44.35198" lon="5.85121">
        <ele>624</ele>
        <time>2019-03-16T13:13:35Z</time>
      </trkpt>
      <trkpt lat="44.35202" lon="5.85125">
        <ele>624</ele>
        <time>2019-03-16T13:13:36Z</time>
      </trkpt>
      <trkpt lat="44.35207" lon="5.85131">
        <ele>624</ele>
        <time>2019-03-16T13:13:37Z</time>
      </trkpt>
      <trkpt lat="44.3521" lon="5.85136">
        <ele>624</ele>
        <time>2019-03-16T13:13:38Z</time>
      </trkpt>
      <trkpt lat="44.35214" lon="5.85141">
        <ele>624</ele>
        <time>2019-03-16T13:13:39Z</time>
      </trkpt>
      <trkpt lat="44.35218" lon="5.85147">
        <ele>624</ele>
        <time>2019-03-16T13:13:40Z</time>
      </trkpt>
      <trkpt lat="44.35221" lon="5.85153">
        <ele>624</ele>
        <time>2019-03-16T13:13:41Z</time>
      </trkpt>
      <trkpt lat="44.35224" lon="5.85158">
        <ele>624</ele>
        <time>2019-03-16T13:13:42Z</time>
      </trkpt>
      <trkpt lat="44.35227" lon="5.85164">
        <ele>624</ele>
        <time>2019-03-16T13:13:43Z</time>
      </trkpt>
      <trkpt lat="44.3523" lon="5.8517">
        <ele>624</ele>
        <time>2019-03-16T13:13:44Z</time>
      </trkpt>
      <trkpt lat="44.35232" lon="5.85177">
        <ele>624</ele>
        <time>2019-03-16T13:13:45Z</time>
      </trkpt>
      <trkpt lat="44.35234" lon="5.85183">
        <ele>624</ele>
        <time>2019-03-16T13:13:46Z</time>
      </trkpt>
      <trkpt lat="44.35236" lon="5.85189">
        <ele>624</ele>
        <time>2019-03-16T13:13:47Z</time>
      </trkpt>
      <trkpt lat="44.35239" lon="5.85195">
        <ele>624</ele>
        <time>2019-03-16T13:13:48Z</time>
      </trkpt>
      <trkpt lat="44.35241" lon="5.85202">
        <ele>624</ele>
        <time>2019-03-16T13:13:49Z</time>
      </trkpt>
      <trkpt lat="44.35242" lon="5.85209">
        <ele>624</ele>
        <time>2019-03-16T13:13:50Z</time>
      </trkpt>
      <trkpt lat="44.35244" lon="5.85215">
        <ele>624</ele>
        <time>2019-03-16T13:13:51Z</time>
      </trkpt>
      <trkpt lat="44.35247" lon="5.85222">
        <ele>624</ele>
        <time>2019-03-16T13:13:52Z</time>
      </trkpt>
      <trkpt lat="44.35249" lon="5.85229">
        <ele>624</ele>
        <time>2019-03-16T13:13:53Z</time>
      </trkpt>
      <trkpt lat="44.35251" lon="5.85236">
        <ele>624</ele>
        <time>2019-03-16T13:13:54Z</time>
      </trkpt>
      <trkpt lat="44.35253" lon="5.85243">
        <ele>624</ele>
        <time>2019-03-16T13:13:55Z</time>
      </trkpt>
      <trkpt lat="44.35255" lon="5.85249">
        <ele>624</ele>
        <time>2019-03-16T13:13:56Z</time>
      </trkpt>
      <trkpt lat="44.35257" lon="5.85256">
        <ele>624</ele>
        <time>2019-03-16T13:13:57Z</time>
      </trkpt>
      <trkpt lat="44.35259" lon="5.85262">
        <ele>624</ele>
        <time>2019-03-16T13:13:58Z</time>
      </trkpt>
      <trkpt lat="44.35261" lon="5.85269">
        <ele>624</ele>
        <time>2019-03-16T13:13:59Z</time>
      </trkpt>
      <trkpt lat="44.35263" lon="5.85275">
        <ele>624</ele>
        <time>2019-03-16T13:14:00Z</time>
      </trkpt>
      <trkpt lat="44.35265" lon="5.85281">
        <ele>624</ele>
        <time>2019-03-16T13:14:01Z</time>
      </trkpt>
      <trkpt lat="44.35267" lon="5.85287">
        <ele>624</ele>
        <time>2019-03-16T13:14:02Z</time>
      </trkpt>
      <trkpt lat="44.35268" lon="5.85293">
        <ele>624</ele>
        <time>2019-03-16T13:14:03Z</time>
      </trkpt>
      <trkpt lat="44.3527" lon="5.85299">
        <ele>624</ele>
        <time>2019-03-16T13:14:04Z</time>
      </trkpt>
      <trkpt lat="44.35271" lon="5.85306">
        <ele>624</ele>
        <time>2019-03-16T13:14:05Z</time>
      </trkpt>
      <trkpt lat="44.35273" lon="5.85313">
        <ele>624</ele>
        <time>2019-03-16T13:14:06Z</time>
      </trkpt>
      <trkpt lat="44.35275" lon="5.85319">
        <ele>624</ele>
        <time>2019-03-16T13:14:07Z</time>
      </trkpt>
      <trkpt lat="44.35277" lon="5.85325">
        <ele>624</ele>
        <time>2019-03-16T13:14:08Z</time>
      </trkpt>
      <trkpt lat="44.35279" lon="5.85332">
        <ele>624</ele>
        <time>2019-03-16T13:14:09Z</time>
      </trkpt>
      <trkpt lat="44.35281" lon="5.85339">
        <ele>624</ele>
        <time>2019-03-16T13:14:10Z</time>
      </trkpt>
      <trkpt lat="44.35283" lon="5.85346">
        <ele>624</ele>
        <time>2019-03-16T13:14:11Z</time>
      </trkpt>
      <trkpt lat="44.35285" lon="5.85353">
        <ele>624</ele>
        <time>2019-03-16T13:14:12Z</time>
      </trkpt>
      <trkpt lat="44.35287" lon="5.85359">
        <ele>624</ele>
        <time>2019-03-16T13:14:13Z</time>
      </trkpt>
      <trkpt lat="44.35289" lon="5.85366">
        <ele>624</ele>
        <time>2019-03-16T13:14:14Z</time>
      </trkpt>
      <trkpt lat="44.35291" lon="5.85372">
        <ele>624</ele>
        <time>2019-03-16T13:14:15Z</time>
      </trkpt>
      <trkpt lat="44.35293" lon="5.85379">
        <ele>624</ele>
        <time>2019-03-16T13:14:16Z</time>
      </trkpt>
      <trkpt lat="44.35296" lon="5.85385">
        <ele>624</ele>
        <time>2019-03-16T13:14:17Z</time>
      </trkpt>
      <trkpt lat="44.35298" lon="5.85392">
        <ele>625</ele>
        <time>2019-03-16T13:14:18Z</time>
      </trkpt>
      <trkpt lat="44.353" lon="5.85398">
        <ele>625</ele>
        <time>2019-03-16T13:14:19Z</time>
      </trkpt>
      <trkpt lat="44.35302" lon="5.85404">
        <ele>626</ele>
        <time>2019-03-16T13:14:20Z</time>
      </trkpt>
      <trkpt lat="44.35304" lon="5.85411">
        <ele>626</ele>
        <time>2019-03-16T13:14:21Z</time>
      </trkpt>
      <trkpt lat="44.35306" lon="5.85417">
        <ele>626</ele>
        <time>2019-03-16T13:14:22Z</time>
      </trkpt>
      <trkpt lat="44.35309" lon="5.85423">
        <ele>626</ele>
        <time>2019-03-16T13:14:23Z</time>
      </trkpt>
      <trkpt lat="44.35312" lon="5.85429">
        <ele>627</ele>
        <time>2019-03-16T13:14:24Z</time>
      </trkpt>
      <trkpt lat="44.35315" lon="5.85435">
        <ele>627</ele>
        <time>2019-03-16T13:14:25Z</time>
      </trkpt>
      <trkpt lat="44.35318" lon="5.8544">
        <ele>627</ele>
        <time>2019-03-16T13:14:26Z</time>
      </trkpt>
      <trkpt lat="44.35321" lon="5.85446">
        <ele>627</ele>
        <time>2019-03-16T13:14:27Z</time>
      </trkpt>
      <trkpt lat="44.35325" lon="5.85451">
        <ele>628</ele>
        <time>2019-03-16T13:14:28Z</time>
      </trkpt>
      <trkpt lat="44.35328" lon="5.85457">
        <ele>628</ele>
        <time>2019-03-16T13:14:29Z</time>
      </trkpt>
      <trkpt lat="44.35332" lon="5.85461">
        <ele>628</ele>
        <time>2019-03-16T13:14:30Z</time>
      </trkpt>
      <trkpt lat="44.35336" lon="5.85466">
        <ele>628</ele>
        <time>2019-03-16T13:14:31Z</time>
      </trkpt>
      <trkpt lat="44.3534" lon="5.85471">
        <ele>628</ele>
        <time>2019-03-16T13:14:32Z</time>
      </trkpt>
      <trkpt lat="44.35344" lon="5.85475">
        <ele>628</ele>
        <time>2019-03-16T13:14:33Z</time>
      </trkpt>
      <trkpt lat="44.35347" lon="5.8548">
        <ele>628</ele>
        <time>2019-03-16T13:14:34Z</time>
      </trkpt>
      <trkpt lat="44.35352" lon="5.85484">
        <ele>628</ele>
        <time>2019-03-16T13:14:35Z</time>
      </trkpt>
      <trkpt lat="44.35355" lon="5.85489">
        <ele>628</ele>
        <time>2019-03-16T13:14:36Z</time>
      </trkpt>
      <trkpt lat="44.3536" lon="5.85493">
        <ele>629</ele>
        <time>2019-03-16T13:14:37Z</time>
      </trkpt>
      <trkpt lat="44.35364" lon="5.85498">
        <ele>629</ele>
        <time>2019-03-16T13:14:38Z</time>
      </trkpt>
      <trkpt lat="44.35368" lon="5.85502">
        <ele>629</ele>
        <time>2019-03-16T13:14:39Z</time>
      </trkpt>
      <trkpt lat="44.35371" lon="5.85506">
        <ele>629</ele>
        <time>2019-03-16T13:14:40Z</time>
      </trkpt>
      <trkpt lat="44.35376" lon="5.8551">
        <ele>630</ele>
        <time>2019-03-16T13:14:41Z</time>
      </trkpt>
      <trkpt lat="44.35379" lon="5.85514">
        <ele>630</ele>
        <time>2019-03-16T13:14:42Z</time>
      </trkpt>
      <trkpt lat="44.35383" lon="5.85519">
        <ele>630</ele>
        <time>2019-03-16T13:14:43Z</time>
      </trkpt>
      <trkpt lat="44.35387" lon="5.85523">
        <ele>631</ele>
        <time>2019-03-16T13:14:44Z</time>
      </trkpt>
      <trkpt lat="44.35391" lon="5.85527">
        <ele>631</ele>
        <time>2019-03-16T13:14:45Z</time>
      </trkpt>
      <trkpt lat="44.35395" lon="5.85531">
        <ele>631</ele>
        <time>2019-03-16T13:14:46Z</time>
      </trkpt>
      <trkpt lat="44.35399" lon="5.85536">
        <ele>631</ele>
        <time>2019-03-16T13:14:47Z</time>
      </trkpt>
      <trkpt lat="44.35403" lon="5.8554">
        <ele>632</ele>
        <time>2019-03-16T13:14:48Z</time>
      </trkpt>
      <trkpt lat="44.35406" lon="5.85544">
        <ele>632</ele>
        <time>2019-03-16T13:14:49Z</time>
      </trkpt>
      <trkpt lat="44.3541" lon="5.85549">
        <ele>632</ele>
        <time>2019-03-16T13:14:50Z</time>
      </trkpt>
      <trkpt lat="44.35414" lon="5.85553">
        <ele>632</ele>
        <time>2019-03-16T13:14:51Z</time>
      </trkpt>
      <trkpt lat="44.35418" lon="5.85557">
        <ele>633</ele>
        <time>2019-03-16T13:14:52Z</time>
      </trkpt>
      <trkpt lat="44.35422" lon="5.85561">
        <ele>633</ele>
        <time>2019-03-16T13:14:53Z</time>
      </trkpt>
      <trkpt lat="44.35426" lon="5.85565">
        <ele>633</ele>
        <time>2019-03-16T13:14:54Z</time>
      </trkpt>
      <trkpt lat="44.35429" lon="5.85569">
        <ele>633</ele>
        <time>2019-03-16T13:14:55Z</time>
      </trkpt>
      <trkpt lat="44.35433" lon="5.85573">
        <ele>634</ele>
        <time>2019-03-16T13:14:56Z</time>
      </trkpt>
      <trkpt lat="44.35437" lon="5.85578">
        <ele>634</ele>
        <time>2019-03-16T13:14:57Z</time>
      </trkpt>
      <trkpt lat="44.35441" lon="5.85582">
        <ele>634</ele>
        <time>2019-03-16T13:14:58Z</time>
      </trkpt>
      <trkpt lat="44.35445" lon="5.85586">
        <ele>634</ele>
        <time>2019-03-16T13:14:59Z</time>
      </trkpt>
      <trkpt lat="44.35448" lon="5.8559">
        <ele>635</ele>
        <time>2019-03-16T13:15:00Z</time>
      </trkpt>
      <trkpt lat="44.35453" lon="5.85595">
        <ele>635</ele>
        <time>2019-03-16T13:15:01Z</time>
      </trkpt>
      <trkpt lat="44.35457" lon="5.85599">
        <ele>635</ele>
        <time>2019-03-16T13:15:02Z</time>
      </trkpt>
      <trkpt lat="44.35461" lon="5.85603">
        <ele>636</ele>
        <time>2019-03-16T13:15:03Z</time>
      </trkpt>
      <trkpt lat="44.35465" lon="5.85607">
        <ele>636</ele>
        <time>2019-03-16T13:15:04Z</time>
      </trkpt>
      <trkpt lat="44.35469" lon="5.85612">
        <ele>637</ele>
        <time>2019-03-16T13:15:05Z</time>
      </trkpt>
      <trkpt lat="44.35472" lon="5.85616">
        <ele>637</ele>
        <time>2019-03-16T13:15:06Z</time>
      </trkpt>
      <trkpt lat="44.35477" lon="5.85621">
        <ele>637</ele>
        <time>2019-03-16T13:15:07Z</time>
      </trkpt>
      <trkpt lat="44.3548" lon="5.85625">
        <ele>637</ele>
        <time>2019-03-16T13:15:08Z</time>
      </trkpt>
      <trkpt lat="44.35484" lon="5.85629">
        <ele>638</ele>
        <time>2019-03-16T13:15:09Z</time>
      </trkpt>
      <trkpt lat="44.35488" lon="5.85634">
        <ele>638</ele>
        <time>2019-03-16T13:15:10Z</time>
      </trkpt>
      <trkpt lat="44.35492" lon="5.85638">
        <ele>638</ele>
        <time>2019-03-16T13:15:11Z</time>
      </trkpt>
      <trkpt lat="44.35496" lon="5.85642">
        <ele>638</ele>
        <time>2019-03-16T13:15:12Z</time>
      </trkpt>
      <trkpt lat="44.355" lon="5.85647">
        <ele>638</ele>
        <time>2019-03-16T13:15:13Z</time>
      </trkpt>
      <trkpt lat="44.35504" lon="5.85651">
        <ele>638</ele>
        <time>2019-03-16T13:15:14Z</time>
      </trkpt>
      <trkpt lat="44.35507" lon="5.85655">
        <ele>639</ele>
        <time>2019-03-16T13:15:15Z</time>
      </trkpt>
      <trkpt lat="44.35511" lon="5.8566">
        <ele>639</ele>
        <time>2019-03-16T13:15:16Z</time>
      </trkpt>
      <trkpt lat="44.35515" lon="5.85664">
        <ele>639</ele>
        <time>2019-03-16T13:15:17Z</time>
      </trkpt>
      <trkpt lat="44.35519" lon="5.85668">
        <ele>639</ele>
        <time>2019-03-16T13:15:18Z</time>
      </trkpt>
      <trkpt lat="44.35523" lon="5.85672">
        <ele>639</ele>
        <time>2019-03-16T13:15:19Z</time>
      </trkpt>
      <trkpt lat="44.35527" lon="5.85676">
        <ele>639</ele>
        <time>2019-03-16T13:15:20Z</time>
      </trkpt>
      <trkpt lat="44.3553" lon="5.8568">
        <ele>639</ele>
        <time>2019-03-16T13:15:21Z</time>
      </trkpt>
      <trkpt lat="44.35534" lon="5.85684">
        <ele>639</ele>
        <time>2019-03-16T13:15:22Z</time>
      </trkpt>
      <trkpt lat="44.35538" lon="5.85689">
        <ele>640</ele>
        <time>2019-03-16T13:15:23Z</time>
      </trkpt>
      <trkpt lat="44.35542" lon="5.85693">
        <ele>640</ele>
        <time>2019-03-16T13:15:24Z</time>
      </trkpt>
      <trkpt lat="44.35545" lon="5.85697">
        <ele>640</ele>
        <time>2019-03-16T13:15:25Z</time>
      </trkpt>
      <trkpt lat="44.35549" lon="5.85701">
        <ele>640</ele>
        <time>2019-03-16T13:15:26Z</time>
      </trkpt>
      <trkpt lat="44.35553" lon="5.85706">
        <ele>641</ele>
        <time>2019-03-16T13:15:27Z</time>
      </trkpt>
      <trkpt lat="44.35557" lon="5.8571">
        <ele>641</ele>
        <time>2019-03-16T13:15:28Z</time>
      </trkpt>
      <trkpt lat="44.35561" lon="5.85714">
        <ele>641</ele>
        <time>2019-03-16T13:15:29Z</time>
      </trkpt>
      <trkpt lat="44.35564" lon="5.85718">
        <ele>641</ele>
        <time>2019-03-16T13:15:30Z</time>
      </trkpt>
      <trkpt lat="44.35568" lon="5.85722">
        <ele>641</ele>
        <time>2019-03-16T13:15:31Z</time>
      </trkpt>
      <trkpt lat="44.35572" lon="5.85726">
        <ele>642</ele>
        <time>2019-03-16T13:15:32Z</time>
      </trkpt>
      <trkpt lat="44.35575" lon="5.8573">
        <ele>642</ele>
        <time>2019-03-16T13:15:33Z</time>
      </trkpt>
      <trkpt lat="44.35579" lon="5.85734">
        <ele>642</ele>
        <time>2019-03-16T13:15:34Z</time>
      </trkpt>
      <trkpt lat="44.35583" lon="5.85739">
        <ele>642</ele>
        <time>2019-03-16T13:15:35Z</time>
      </trkpt>
      <trkpt lat="44.35587" lon="5.85743">
        <ele>642</ele>
        <time>2019-03-16T13:15:36Z</time>
      </trkpt>
      <trkpt lat="44.3559" lon="5.85747">
        <ele>642</ele>
        <time>2019-03-16T13:15:37Z</time>
      </trkpt>
      <trkpt lat="44.35594" lon="5.85751">
        <ele>642</ele>
        <time>2019-03-16T13:15:38Z</time>
      </trkpt>
      <trkpt lat="44.35598" lon="5.85755">
        <ele>642</ele>
        <time>2019-03-16T13:15:39Z</time>
      </trkpt>
      <trkpt lat="44.35601" lon="5.8576">
        <ele>643</ele>
        <time>2019-03-16T13:15:40Z</time>
      </trkpt>
      <trkpt lat="44.35605" lon="5.85764">
        <ele>643</ele>
        <time>2019-03-16T13:15:41Z</time>
      </trkpt>
      <trkpt lat="44.35608" lon="5.85768">
        <ele>643</ele>
        <time>2019-03-16T13:15:42Z</time>
      </trkpt>
      <trkpt lat="44.35612" lon="5.85773">
        <ele>643</ele>
        <time>2019-03-16T13:15:43Z</time>
      </trkpt>
      <trkpt lat="44.35615" lon="5.85777">
        <ele>644</ele>
        <time>2019-03-16T13:15:44Z</time>
      </trkpt>
      <trkpt lat="44.35619" lon="5.85782">
        <ele>644</ele>
        <time>2019-03-16T13:15:45Z</time>
      </trkpt>
      <trkpt lat="44.35622" lon="5.85787">
        <ele>644</ele>
        <time>2019-03-16T13:15:46Z</time>
      </trkpt>
      <trkpt lat="44.35625" lon="5.85792">
        <ele>644</ele>
        <time>2019-03-16T13:15:47Z</time>
      </trkpt>
      <trkpt lat="44.35629" lon="5.85796">
        <ele>644</ele>
        <time>2019-03-16T13:15:48Z</time>
      </trkpt>
      <trkpt lat="44.35632" lon="5.85801">
        <ele>644</ele>
        <time>2019-03-16T13:15:49Z</time>
      </trkpt>
      <trkpt lat="44.35635" lon="5.85806">
        <ele>644</ele>
        <time>2019-03-16T13:15:50Z</time>
      </trkpt>
      <trkpt lat="44.35638" lon="5.85811">
        <ele>644</ele>
        <time>2019-03-16T13:15:51Z</time>
      </trkpt>
      <trkpt lat="44.35642" lon="5.85816">
        <ele>644</ele>
        <time>2019-03-16T13:15:52Z</time>
      </trkpt>
      <trkpt lat="44.35645" lon="5.85821">
        <ele>644</ele>
        <time>2019-03-16T13:15:53Z</time>
      </trkpt>
      <trkpt lat="44.35648" lon="5.85827">
        <ele>645</ele>
        <time>2019-03-16T13:15:54Z</time>
      </trkpt>
      <trkpt lat="44.35651" lon="5.85832">
        <ele>645</ele>
        <time>2019-03-16T13:15:55Z</time>
      </trkpt>
      <trkpt lat="44.35654" lon="5.85837">
        <ele>645</ele>
        <time>2019-03-16T13:15:56Z</time>
      </trkpt>
      <trkpt lat="44.35657" lon="5.85842">
        <ele>645</ele>
        <time>2019-03-16T13:15:57Z</time>
      </trkpt>
      <trkpt lat="44.35661" lon="5.85847">
        <ele>645</ele>
        <time>2019-03-16T13:15:58Z</time>
      </trkpt>
      <trkpt lat="44.35664" lon="5.85852">
        <ele>645</ele>
        <time>2019-03-16T13:15:59Z</time>
      </trkpt>
      <trkpt lat="44.35667" lon="5.85858">
        <ele>645</ele>
        <time>2019-03-16T13:16:00Z</time>
      </trkpt>
      <trkpt lat="44.35669" lon="5.85863">
        <ele>645</ele>
        <time>2019-03-16T13:16:01Z</time>
      </trkpt>
      <trkpt lat="44.35672" lon="5.85868">
        <ele>645</ele>
        <time>2019-03-16T13:16:02Z</time>
      </trkpt>
      <trkpt lat="44.35676" lon="5.85873">
        <ele>645</ele>
        <time>2019-03-16T13:16:03Z</time>
      </trkpt>
      <trkpt lat="44.35679" lon="5.85878">
        <ele>645</ele>
        <time>2019-03-16T13:16:04Z</time>
      </trkpt>
      <trkpt lat="44.35682" lon="5.85883">
        <ele>645</ele>
        <time>2019-03-16T13:16:05Z</time>
      </trkpt>
      <trkpt lat="44.35685" lon="5.85887">
        <ele>645</ele>
        <time>2019-03-16T13:16:06Z</time>
      </trkpt>
      <trkpt lat="44.35688" lon="5.85893">
        <ele>645</ele>
        <time>2019-03-16T13:16:07Z</time>
      </trkpt>
      <trkpt lat="44.35691" lon="5.85898">
        <ele>645</ele>
        <time>2019-03-16T13:16:08Z</time>
      </trkpt>
      <trkpt lat="44.35694" lon="5.85903">
        <ele>645</ele>
        <time>2019-03-16T13:16:09Z</time>
      </trkpt>
      <trkpt lat="44.35697" lon="5.85908">
        <ele>645</ele>
        <time>2019-03-16T13:16:10Z</time>
      </trkpt>
      <trkpt lat="44.357" lon="5.85914">
        <ele>645</ele>
        <time>2019-03-16T13:16:11Z</time>
      </trkpt>
      <trkpt lat="44.35703" lon="5.85919">
        <ele>645</ele>
        <time>2019-03-16T13:16:12Z</time>
      </trkpt>
      <trkpt lat="44.35706" lon="5.85925">
        <ele>645</ele>
        <time>2019-03-16T13:16:13Z</time>
      </trkpt>
      <trkpt lat="44.3571" lon="5.8593">
        <ele>646</ele>
        <time>2019-03-16T13:16:14Z</time>
      </trkpt>
      <trkpt lat="44.35713" lon="5.85935">
        <ele>646</ele>
        <time>2019-03-16T13:16:15Z</time>
      </trkpt>
      <trkpt lat="44.35716" lon="5.8594">
        <ele>646</ele>
        <time>2019-03-16T13:16:16Z</time>
      </trkpt>
      <trkpt lat="44.3572" lon="5.85946">
        <ele>646</ele>
        <time>2019-03-16T13:16:17Z</time>
      </trkpt>
      <trkpt lat="44.35723" lon="5.85951">
        <ele>647</ele>
        <time>2019-03-16T13:16:18Z</time>
      </trkpt>
      <trkpt lat="44.35726" lon="5.85956">
        <ele>647</ele>
        <time>2019-03-16T13:16:19Z</time>
      </trkpt>
      <trkpt lat="44.35729" lon="5.85961">
        <ele>647</ele>
        <time>2019-03-16T13:16:20Z</time>
      </trkpt>
      <trkpt lat="44.35732" lon="5.85966">
        <ele>647</ele>
        <time>2019-03-16T13:16:21Z</time>
      </trkpt>
      <trkpt lat="44.35736" lon="5.85972">
        <ele>647</ele>
        <time>2019-03-16T13:16:22Z</time>
      </trkpt>
      <trkpt lat="44.35739" lon="5.85977">
        <ele>648</ele>
        <time>2019-03-16T13:16:23Z</time>
      </trkpt>
      <trkpt lat="44.35742" lon="5.85982">
        <ele>648</ele>
        <time>2019-03-16T13:16:24Z</time>
      </trkpt>
      <trkpt lat="44.35745" lon="5.85987">
        <ele>648</ele>
        <time>2019-03-16T13:16:25Z</time>
      </trkpt>
      <trkpt lat="44.35748" lon="5.85992">
        <ele>648</ele>
        <time>2019-03-16T13:16:26Z</time>
      </trkpt>
      <trkpt lat="44.35751" lon="5.85997">
        <ele>648</ele>
        <time>2019-03-16T13:16:27Z</time>
      </trkpt>
      <trkpt lat="44.35755" lon="5.86002">
        <ele>649</ele>
        <time>2019-03-16T13:16:28Z</time>
      </trkpt>
      <trkpt lat="44.35758" lon="5.86008">
        <ele>649</ele>
        <time>2019-03-16T13:16:29Z</time>
      </trkpt>
      <trkpt lat="44.35761" lon="5.86013">
        <ele>649</ele>
        <time>2019-03-16T13:16:30Z</time>
      </trkpt>
      <trkpt lat="44.35764" lon="5.86019">
        <ele>649</ele>
        <time>2019-03-16T13:16:31Z</time>
      </trkpt>
      <trkpt lat="44.35768" lon="5.86024">
        <ele>649</ele>
        <time>2019-03-16T13:16:32Z</time>
      </trkpt>
      <trkpt lat="44.35771" lon="5.8603">
        <ele>649</ele>
        <time>2019-03-16T13:16:33Z</time>
      </trkpt>
      <trkpt lat="44.35774" lon="5.86036">
        <ele>649</ele>
        <time>2019-03-16T13:16:34Z</time>
      </trkpt>
      <trkpt lat="44.35777" lon="5.86042">
        <ele>649</ele>
        <time>2019-03-16T13:16:35Z</time>
      </trkpt>
      <trkpt lat="44.35779" lon="5.86048">
        <ele>649</ele>
        <time>2019-03-16T13:16:36Z</time>
      </trkpt>
      <trkpt lat="44.35781" lon="5.86055">
        <ele>649</ele>
        <time>2019-03-16T13:16:37Z</time>
      </trkpt>
      <trkpt lat="44.35784" lon="5.86061">
        <ele>649</ele>
        <time>2019-03-16T13:16:38Z</time>
      </trkpt>
      <trkpt lat="44.35786" lon="5.86068">
        <ele>649</ele>
        <time>2019-03-16T13:16:39Z</time>
      </trkpt>
      <trkpt lat="44.35788" lon="5.86075">
        <ele>649</ele>
        <time>2019-03-16T13:16:40Z</time>
      </trkpt>
      <trkpt lat="44.35789" lon="5.86082">
        <ele>649</ele>
        <time>2019-03-16T13:16:41Z</time>
      </trkpt>
      <trkpt lat="44.35791" lon="5.86089">
        <ele>650</ele>
        <time>2019-03-16T13:16:42Z</time>
      </trkpt>
      <trkpt lat="44.35792" lon="5.86096">
        <ele>650</ele>
        <time>2019-03-16T13:16:43Z</time>
      </trkpt>
      <trkpt lat="44.35793" lon="5.86102">
        <ele>650</ele>
        <time>2019-03-16T13:16:44Z</time>
      </trkpt>
      <trkpt lat="44.35795" lon="5.86109">
        <ele>650</ele>
        <time>2019-03-16T13:16:45Z</time>
      </trkpt>
      <trkpt lat="44.35796" lon="5.86116">
        <ele>650</ele>
        <time>2019-03-16T13:16:46Z</time>
      </trkpt>
      <trkpt lat="44.35798" lon="5.86123">
        <ele>650</ele>
        <time>2019-03-16T13:16:47Z</time>
      </trkpt>
      <trkpt lat="44.35799" lon="5.8613">
        <ele>650</ele>
        <time>2019-03-16T13:16:48Z</time>
      </trkpt>
      <trkpt lat="44.35801" lon="5.86137">
        <ele>650</ele>
        <time>2019-03-16T13:16:49Z</time>
      </trkpt>
      <trkpt lat="44.35802" lon="5.86144">
        <ele>650</ele>
        <time>2019-03-16T13:16:50Z</time>
      </trkpt>
      <trkpt lat="44.35804" lon="5.86151">
        <ele>650</ele>
        <time>2019-03-16T13:16:51Z</time>
      </trkpt>
      <trkpt lat="44.35805" lon="5.86159">
        <ele>650</ele>
        <time>2019-03-16T13:16:52Z</time>
      </trkpt>
      <trkpt lat="44.35807" lon="5.86166">
        <ele>650</ele>
        <time>2019-03-16T13:16:53Z</time>
      </trkpt>
      <trkpt lat="44.35808" lon="5.86173">
        <ele>650</ele>
        <time>2019-03-16T13:16:54Z</time>
      </trkpt>
      <trkpt lat="44.35809" lon="5.86181">
        <ele>650</ele>
        <time>2019-03-16T13:16:55Z</time>
      </trkpt>
      <trkpt lat="44.35811" lon="5.86188">
        <ele>650</ele>
        <time>2019-03-16T13:16:56Z</time>
      </trkpt>
      <trkpt lat="44.35813" lon="5.86196">
        <ele>651</ele>
        <time>2019-03-16T13:16:57Z</time>
      </trkpt>
      <trkpt lat="44.35815" lon="5.86203">
        <ele>651</ele>
        <time>2019-03-16T13:16:58Z</time>
      </trkpt>
      <trkpt lat="44.35817" lon="5.8621">
        <ele>651</ele>
        <time>2019-03-16T13:16:59Z</time>
      </trkpt>
      <trkpt lat="44.35818" lon="5.86217">
        <ele>651</ele>
        <time>2019-03-16T13:17:00Z</time>
      </trkpt>
      <trkpt lat="44.3582" lon="5.86224">
        <ele>652</ele>
        <time>2019-03-16T13:17:01Z</time>
      </trkpt>
      <trkpt lat="44.35823" lon="5.86231">
        <ele>652</ele>
        <time>2019-03-16T13:17:02Z</time>
      </trkpt>
      <trkpt lat="44.35825" lon="5.86238">
        <ele>652</ele>
        <time>2019-03-16T13:17:03Z</time>
      </trkpt>
      <trkpt lat="44.35828" lon="5.86245">
        <ele>652</ele>
        <time>2019-03-16T13:17:04Z</time>
      </trkpt>
      <trkpt lat="44.3583" lon="5.86252">
        <ele>652</ele>
        <time>2019-03-16T13:17:05Z</time>
      </trkpt>
      <trkpt lat="44.35833" lon="5.86259">
        <ele>653</ele>
        <time>2019-03-16T13:17:06Z</time>
      </trkpt>
      <trkpt lat="44.35836" lon="5.86265">
        <ele>653</ele>
        <time>2019-03-16T13:17:07Z</time>
      </trkpt>
      <trkpt lat="44.35839" lon="5.86272">
        <ele>653</ele>
        <time>2019-03-16T13:17:08Z</time>
      </trkpt>
      <trkpt lat="44.35842" lon="5.86278">
        <ele>653</ele>
        <time>2019-03-16T13:17:09Z</time>
      </trkpt>
      <trkpt lat="44.35845" lon="5.86285">
        <ele>653</ele>
        <time>2019-03-16T13:17:10Z</time>
      </trkpt>
      <trkpt lat="44.35848" lon="5.86291">
        <ele>653</ele>
        <time>2019-03-16T13:17:11Z</time>
      </trkpt>
      <trkpt lat="44.35851" lon="5.86298">
        <ele>653</ele>
        <time>2019-03-16T13:17:12Z</time>
      </trkpt>
      <trkpt lat="44.35854" lon="5.86304">
        <ele>653</ele>
        <time>2019-03-16T13:17:13Z</time>
      </trkpt>
      <trkpt lat="44.35857" lon="5.8631">
        <ele>653</ele>
        <time>2019-03-16T13:17:14Z</time>
      </trkpt>
      <trkpt lat="44.3586" lon="5.86317">
        <ele>654</ele>
        <time>2019-03-16T13:17:15Z</time>
      </trkpt>
      <trkpt lat="44.35863" lon="5.86324">
        <ele>654</ele>
        <time>2019-03-16T13:17:16Z</time>
      </trkpt>
      <trkpt lat="44.35866" lon="5.8633">
        <ele>654</ele>
        <time>2019-03-16T13:17:17Z</time>
      </trkpt>
      <trkpt lat="44.35868" lon="5.86337">
        <ele>654</ele>
        <time>2019-03-16T13:17:18Z</time>
      </trkpt>
      <trkpt lat="44.3587" lon="5.86344">
        <ele>654</ele>
        <time>2019-03-16T13:17:19Z</time>
      </trkpt>
      <trkpt lat="44.35873" lon="5.86351">
        <ele>654</ele>
        <time>2019-03-16T13:17:20Z</time>
      </trkpt>
      <trkpt lat="44.35875" lon="5.86358">
        <ele>654</ele>
        <time>2019-03-16T13:17:21Z</time>
      </trkpt>
      <trkpt lat="44.35876" lon="5.86366">
        <ele>654</ele>
        <time>2019-03-16T13:17:22Z</time>
      </trkpt>
      <trkpt lat="44.35878" lon="5.86374">
        <ele>654</ele>
        <time>2019-03-16T13:17:23Z</time>
      </trkpt>
      <trkpt lat="44.35881" lon="5.86381">
        <ele>654</ele>
        <time>2019-03-16T13:17:24Z</time>
      </trkpt>
      <trkpt lat="44.35882" lon="5.86389">
        <ele>654</ele>
        <time>2019-03-16T13:17:25Z</time>
      </trkpt>
      <trkpt lat="44.35884" lon="5.86398">
        <ele>654</ele>
        <time>2019-03-16T13:17:26Z</time>
      </trkpt>
      <trkpt lat="44.35886" lon="5.86406">
        <ele>654</ele>
        <time>2019-03-16T13:17:27Z</time>
      </trkpt>
      <trkpt lat="44.35888" lon="5.86414">
        <ele>654</ele>
        <time>2019-03-16T13:17:28Z</time>
      </trkpt>
      <trkpt lat="44.35889" lon="5.86422">
        <ele>654</ele>
        <time>2019-03-16T13:17:29Z</time>
      </trkpt>
      <trkpt lat="44.35891" lon="5.8643">
        <ele>654</ele>
        <time>2019-03-16T13:17:30Z</time>
      </trkpt>
      <trkpt lat="44.35893" lon="5.86438">
        <ele>654</ele>
        <time>2019-03-16T13:17:31Z</time>
      </trkpt>
      <trkpt lat="44.35895" lon="5.86446">
        <ele>654</ele>
        <time>2019-03-16T13:17:32Z</time>
      </trkpt>
      <trkpt lat="44.35897" lon="5.86454">
        <ele>654</ele>
        <time>2019-03-16T13:17:33Z</time>
      </trkpt>
      <trkpt lat="44.35899" lon="5.86462">
        <ele>654</ele>
        <time>2019-03-16T13:17:34Z</time>
      </trkpt>
      <trkpt lat="44.359" lon="5.8647">
        <ele>654</ele>
        <time>2019-03-16T13:17:35Z</time>
      </trkpt>
      <trkpt lat="44.35902" lon="5.86478">
        <ele>654</ele>
        <time>2019-03-16T13:17:36Z</time>
      </trkpt>
      <trkpt lat="44.35904" lon="5.86487">
        <ele>654</ele>
        <time>2019-03-16T13:17:37Z</time>
      </trkpt>
      <trkpt lat="44.35905" lon="5.86495">
        <ele>654</ele>
        <time>2019-03-16T13:17:38Z</time>
      </trkpt>
      <trkpt lat="44.35907" lon="5.86504">
        <ele>654</ele>
        <time>2019-03-16T13:17:39Z</time>
      </trkpt>
      <trkpt lat="44.3591" lon="5.86513">
        <ele>654</ele>
        <time>2019-03-16T13:17:40Z</time>
      </trkpt>
      <trkpt lat="44.35912" lon="5.86522">
        <ele>654</ele>
        <time>2019-03-16T13:17:41Z</time>
      </trkpt>
      <trkpt lat="44.35914" lon="5.86531">
        <ele>654</ele>
        <time>2019-03-16T13:17:42Z</time>
      </trkpt>
      <trkpt lat="44.35916" lon="5.8654">
        <ele>654</ele>
        <time>2019-03-16T13:17:43Z</time>
      </trkpt>
      <trkpt lat="44.35918" lon="5.86549">
        <ele>654</ele>
        <time>2019-03-16T13:17:44Z</time>
      </trkpt>
      <trkpt lat="44.3592" lon="5.86558">
        <ele>654</ele>
        <time>2019-03-16T13:17:45Z</time>
      </trkpt>
      <trkpt lat="44.35922" lon="5.86568">
        <ele>654</ele>
        <time>2019-03-16T13:17:46Z</time>
      </trkpt>
      <trkpt lat="44.35924" lon="5.86577">
        <ele>654</ele>
        <time>2019-03-16T13:17:47Z</time>
      </trkpt>
      <trkpt lat="44.35926" lon="5.86587">
        <ele>654</ele>
        <time>2019-03-16T13:17:48Z</time>
      </trkpt>
      <trkpt lat="44.35928" lon="5.86596">
        <ele>654</ele>
        <time>2019-03-16T13:17:49Z</time>
      </trkpt>
      <trkpt lat="44.35931" lon="5.86605">
        <ele>654</ele>
        <time>2019-03-16T13:17:50Z</time>
      </trkpt>
      <trkpt lat="44.35933" lon="5.86615">
        <ele>654</ele>
        <time>2019-03-16T13:17:51Z</time>
      </trkpt>
      <trkpt lat="44.35934" lon="5.86624">
        <ele>654</ele>
        <time>2019-03-16T13:17:52Z</time>
      </trkpt>
      <trkpt lat="44.35936" lon="5.86634">
        <ele>654</ele>
        <time>2019-03-16T13:17:53Z</time>
      </trkpt>
      <trkpt lat="44.35939" lon="5.86644">
        <ele>654</ele>
        <time>2019-03-16T13:17:54Z</time>
      </trkpt>
      <trkpt lat="44.35941" lon="5.86653">
        <ele>654</ele>
        <time>2019-03-16T13:17:55Z</time>
      </trkpt>
      <trkpt lat="44.35943" lon="5.86663">
        <ele>654</ele>
        <time>2019-03-16T13:17:56Z</time>
      </trkpt>
      <trkpt lat="44.35946" lon="5.86673">
        <ele>654</ele>
        <time>2019-03-16T13:17:57Z</time>
      </trkpt>
      <trkpt lat="44.35949" lon="5.86683">
        <ele>654</ele>
        <time>2019-03-16T13:17:58Z</time>
      </trkpt>
      <trkpt lat="44.35952" lon="5.86692">
        <ele>654</ele>
        <time>2019-03-16T13:17:59Z</time>
      </trkpt>
      <trkpt lat="44.35955" lon="5.86702">
        <ele>654</ele>
        <time>2019-03-16T13:18:00Z</time>
      </trkpt>
      <trkpt lat="44.35958" lon="5.86711">
        <ele>654</ele>
        <time>2019-03-16T13:18:01Z</time>
      </trkpt>
      <trkpt lat="44.35962" lon="5.8672">
        <ele>654</ele>
        <time>2019-03-16T13:18:02Z</time>
      </trkpt>
      <trkpt lat="44.35966" lon="5.86729">
        <ele>654</ele>
        <time>2019-03-16T13:18:03Z</time>
      </trkpt>
      <trkpt lat="44.35971" lon="5.86738">
        <ele>654</ele>
        <time>2019-03-16T13:18:04Z</time>
      </trkpt>
      <trkpt lat="44.35975" lon="5.86748">
        <ele>654</ele>
        <time>2019-03-16T13:18:05Z</time>
      </trkpt>
      <trkpt lat="44.35979" lon="5.86757">
        <ele>654</ele>
        <time>2019-03-16T13:18:06Z</time>
      </trkpt>
      <trkpt lat="44.35983" lon="5.86766">
        <ele>654</ele>
        <time>2019-03-16T13:18:07Z</time>
      </trkpt>
      <trkpt lat="44.35987" lon="5.86775">
        <ele>654</ele>
        <time>2019-03-16T13:18:08Z</time>
      </trkpt>
      <trkpt lat="44.35992" lon="5.86785">
        <ele>654</ele>
        <time>2019-03-16T13:18:09Z</time>
      </trkpt>
      <trkpt lat="44.35996" lon="5.86794">
        <ele>654</ele>
        <time>2019-03-16T13:18:10Z</time>
      </trkpt>
      <trkpt lat="44.36" lon="5.86803">
        <ele>654</ele>
        <time>2019-03-16T13:18:11Z</time>
      </trkpt>
      <trkpt lat="44.36005" lon="5.86812">
        <ele>654</ele>
        <time>2019-03-16T13:18:12Z</time>
      </trkpt>
      <trkpt lat="44.36009" lon="5.86822">
        <ele>654</ele>
        <time>2019-03-16T13:18:13Z</time>
      </trkpt>
      <trkpt lat="44.36013" lon="5.86831">
        <ele>654</ele>
        <time>2019-03-16T13:18:14Z</time>
      </trkpt>
      <trkpt lat="44.36018" lon="5.86841">
        <ele>654</ele>
        <time>2019-03-16T13:18:15Z</time>
      </trkpt>
      <trkpt lat="44.36023" lon="5.86851">
        <ele>653</ele>
        <time>2019-03-16T13:18:16Z</time>
      </trkpt>
      <trkpt lat="44.36027" lon="5.86861">
        <ele>653</ele>
        <time>2019-03-16T13:18:17Z</time>
      </trkpt>
      <trkpt lat="44.36032" lon="5.86871">
        <ele>653</ele>
        <time>2019-03-16T13:18:18Z</time>
      </trkpt>
      <trkpt lat="44.36037" lon="5.86881">
        <ele>652</ele>
        <time>2019-03-16T13:18:19Z</time>
      </trkpt>
      <trkpt lat="44.36042" lon="5.86891">
        <ele>652</ele>
        <time>2019-03-16T13:18:20Z</time>
      </trkpt>
      <trkpt lat="44.36047" lon="5.86902">
        <ele>652</ele>
        <time>2019-03-16T13:18:21Z</time>
      </trkpt>
      <trkpt lat="44.36052" lon="5.86913">
        <ele>651</ele>
        <time>2019-03-16T13:18:22Z</time>
      </trkpt>
      <trkpt lat="44.36057" lon="5.86923">
        <ele>651</ele>
        <time>2019-03-16T13:18:23Z</time>
      </trkpt>
      <trkpt lat="44.36062" lon="5.86934">
        <ele>651</ele>
        <time>2019-03-16T13:18:24Z</time>
      </trkpt>
      <trkpt lat="44.36067" lon="5.86944">
        <ele>650</ele>
        <time>2019-03-16T13:18:25Z</time>
      </trkpt>
      <trkpt lat="44.36072" lon="5.86955">
        <ele>650</ele>
        <time>2019-03-16T13:18:26Z</time>
      </trkpt>
      <trkpt lat="44.36077" lon="5.86966">
        <ele>650</ele>
        <time>2019-03-16T13:18:27Z</time>
      </trkpt>
      <trkpt lat="44.36082" lon="5.86977">
        <ele>649</ele>
        <time>2019-03-16T13:18:28Z</time>
      </trkpt>
      <trkpt lat="44.36087" lon="5.86988">
        <ele>649</ele>
        <time>2019-03-16T13:18:29Z</time>
      </trkpt>
      <trkpt lat="44.36091" lon="5.87">
        <ele>648</ele>
        <time>2019-03-16T13:18:30Z</time>
      </trkpt>
      <trkpt lat="44.36095" lon="5.87012">
        <ele>648</ele>
        <time>2019-03-16T13:18:31Z</time>
      </trkpt>
      <trkpt lat="44.361" lon="5.87025">
        <ele>647</ele>
        <time>2019-03-16T13:18:32Z</time>
      </trkpt>
      <trkpt lat="44.36103" lon="5.87038">
        <ele>646</ele>
        <time>2019-03-16T13:18:33Z</time>
      </trkpt>
      <trkpt lat="44.36107" lon="5.87051">
        <ele>646</ele>
        <time>2019-03-16T13:18:34Z</time>
      </trkpt>
      <trkpt lat="44.3611" lon="5.87065">
        <ele>645</ele>
        <time>2019-03-16T13:18:35Z</time>
      </trkpt>
      <trkpt lat="44.36112" lon="5.87079">
        <ele>644</ele>
        <time>2019-03-16T13:18:36Z</time>
      </trkpt>
      <trkpt lat="44.36114" lon="5.87093">
        <ele>643</ele>
        <time>2019-03-16T13:18:37Z</time>
      </trkpt>
      <trkpt lat="44.36116" lon="5.87107">
        <ele>643</ele>
        <time>2019-03-16T13:18:38Z</time>
      </trkpt>
      <trkpt lat="44.36118" lon="5.87121">
        <ele>642</ele>
        <time>2019-03-16T13:18:39Z</time>
      </trkpt>
      <trkpt lat="44.36121" lon="5.87136">
        <ele>641</ele>
        <time>2019-03-16T13:18:40Z</time>
      </trkpt>
      <trkpt lat="44.36123" lon="5.8715">
        <ele>640</ele>
        <time>2019-03-16T13:18:41Z</time>
      </trkpt>
      <trkpt lat="44.36125" lon="5.87165">
        <ele>640</ele>
        <time>2019-03-16T13:18:42Z</time>
      </trkpt>
      <trkpt lat="44.36128" lon="5.8718">
        <ele>639</ele>
        <time>2019-03-16T13:18:43Z</time>
      </trkpt>
      <trkpt lat="44.3613" lon="5.87194">
        <ele>638</ele>
        <time>2019-03-16T13:18:44Z</time>
      </trkpt>
      <trkpt lat="44.36132" lon="5.87209">
        <ele>637</ele>
        <time>2019-03-16T13:18:45Z</time>
      </trkpt>
      <trkpt lat="44.36135" lon="5.87223">
        <ele>637</ele>
        <time>2019-03-16T13:18:46Z</time>
      </trkpt>
      <trkpt lat="44.36138" lon="5.87238">
        <ele>636</ele>
        <time>2019-03-16T13:18:47Z</time>
      </trkpt>
      <trkpt lat="44.36142" lon="5.87253">
        <ele>635</ele>
        <time>2019-03-16T13:18:48Z</time>
      </trkpt>
      <trkpt lat="44.36147" lon="5.87267">
        <ele>634</ele>
        <time>2019-03-16T13:18:49Z</time>
      </trkpt>
      <trkpt lat="44.36153" lon="5.8728">
        <ele>634</ele>
        <time>2019-03-16T13:18:50Z</time>
      </trkpt>
      <trkpt lat="44.36161" lon="5.87293">
        <ele>633</ele>
        <time>2019-03-16T13:18:51Z</time>
      </trkpt>
      <trkpt lat="44.36169" lon="5.87307">
        <ele>632</ele>
        <time>2019-03-16T13:18:52Z</time>
      </trkpt>
      <trkpt lat="44.36177" lon="5.8732">
        <ele>631</ele>
        <time>2019-03-16T13:18:53Z</time>
      </trkpt>
      <trkpt lat="44.36185" lon="5.87334">
        <ele>630</ele>
        <time>2019-03-16T13:18:54Z</time>
      </trkpt>
      <trkpt lat="44.36192" lon="5.87347">
        <ele>629</ele>
        <time>2019-03-16T13:18:55Z</time>
      </trkpt>
      <trkpt lat="44.36199" lon="5.87361">
        <ele>629</ele>
        <time>2019-03-16T13:18:56Z</time>
      </trkpt>
      <trkpt lat="44.36204" lon="5.87377">
        <ele>628</ele>
        <time>2019-03-16T13:18:57Z</time>
      </trkpt>
      <trkpt lat="44.36206" lon="5.87392">
        <ele>627</ele>
        <time>2019-03-16T13:18:58Z</time>
      </trkpt>
      <trkpt lat="44.36205" lon="5.87408">
        <ele>627</ele>
        <time>2019-03-16T13:18:59Z</time>
      </trkpt>
      <trkpt lat="44.36203" lon="5.87423">
        <ele>626</ele>
        <time>2019-03-16T13:19:00Z</time>
      </trkpt>
      <trkpt lat="44.36199" lon="5.87437">
        <ele>626</ele>
        <time>2019-03-16T13:19:01Z</time>
      </trkpt>
      <trkpt lat="44.36195" lon="5.87451">
        <ele>625</ele>
        <time>2019-03-16T13:19:02Z</time>
      </trkpt>
      <trkpt lat="44.36193" lon="5.87465">
        <ele>625</ele>
        <time>2019-03-16T13:19:03Z</time>
      </trkpt>
      <trkpt lat="44.36192" lon="5.8748">
        <ele>624</ele>
        <time>2019-03-16T13:19:04Z</time>
      </trkpt>
      <trkpt lat="44.36193" lon="5.87494">
        <ele>624</ele>
        <time>2019-03-16T13:19:05Z</time>
      </trkpt>
      <trkpt lat="44.36193" lon="5.87509">
        <ele>623</ele>
        <time>2019-03-16T13:19:06Z</time>
      </trkpt>
      <trkpt lat="44.36194" lon="5.87524">
        <ele>623</ele>
        <time>2019-03-16T13:19:07Z</time>
      </trkpt>
      <trkpt lat="44.36195" lon="5.87538">
        <ele>622</ele>
        <time>2019-03-16T13:19:08Z</time>
      </trkpt>
      <trkpt lat="44.36197" lon="5.87552">
        <ele>622</ele>
        <time>2019-03-16T13:19:09Z</time>
      </trkpt>
      <trkpt lat="44.36199" lon="5.87566">
        <ele>621</ele>
        <time>2019-03-16T13:19:10Z</time>
      </trkpt>
      <trkpt lat="44.36201" lon="5.8758">
        <ele>621</ele>
        <time>2019-03-16T13:19:11Z</time>
      </trkpt>
      <trkpt lat="44.36204" lon="5.87593">
        <ele>620</ele>
        <time>2019-03-16T13:19:12Z</time>
      </trkpt>
      <trkpt lat="44.36207" lon="5.87606">
        <ele>620</ele>
        <time>2019-03-16T13:19:13Z</time>
      </trkpt>
      <trkpt lat="44.3621" lon="5.87619">
        <ele>619</ele>
        <time>2019-03-16T13:19:14Z</time>
      </trkpt>
      <trkpt lat="44.36213" lon="5.87633">
        <ele>619</ele>
        <time>2019-03-16T13:19:15Z</time>
      </trkpt>
      <trkpt lat="44.36215" lon="5.87647">
        <ele>618</ele>
        <time>2019-03-16T13:19:16Z</time>
      </trkpt>
      <trkpt lat="44.36217" lon="5.87661">
        <ele>617</ele>
        <time>2019-03-16T13:19:17Z</time>
      </trkpt>
      <trkpt lat="44.36217" lon="5.87675">
        <ele>617</ele>
        <time>2019-03-16T13:19:18Z</time>
      </trkpt>
      <trkpt lat="44.36218" lon="5.8769">
        <ele>616</ele>
        <time>2019-03-16T13:19:19Z</time>
      </trkpt>
      <trkpt lat="44.36218" lon="5.87704">
        <ele>616</ele>
        <time>2019-03-16T13:19:20Z</time>
      </trkpt>
      <trkpt lat="44.36218" lon="5.87718">
        <ele>616</ele>
        <time>2019-03-16T13:19:21Z</time>
      </trkpt>
      <trkpt lat="44.36219" lon="5.87731">
        <ele>615</ele>
        <time>2019-03-16T13:19:22Z</time>
      </trkpt>
      <trkpt lat="44.3622" lon="5.87745">
        <ele>615</ele>
        <time>2019-03-16T13:19:23Z</time>
      </trkpt>
      <trkpt lat="44.36221" lon="5.87758">
        <ele>615</ele>
        <time>2019-03-16T13:19:24Z</time>
      </trkpt>
      <trkpt lat="44.36224" lon="5.87772">
        <ele>614</ele>
        <time>2019-03-16T13:19:25Z</time>
      </trkpt>
      <trkpt lat="44.36227" lon="5.87785">
        <ele>614</ele>
        <time>2019-03-16T13:19:26Z</time>
      </trkpt>
      <trkpt lat="44.3623" lon="5.87798">
        <ele>614</ele>
        <time>2019-03-16T13:19:27Z</time>
      </trkpt>
      <trkpt lat="44.36233" lon="5.8781">
        <ele>613</ele>
        <time>2019-03-16T13:19:28Z</time>
      </trkpt>
      <trkpt lat="44.36236" lon="5.87822">
        <ele>613</ele>
        <time>2019-03-16T13:19:29Z</time>
      </trkpt>
      <trkpt lat="44.36239" lon="5.87834">
        <ele>613</ele>
        <time>2019-03-16T13:19:30Z</time>
      </trkpt>
      <trkpt lat="44.36242" lon="5.87846">
        <ele>612</ele>
        <time>2019-03-16T13:19:31Z</time>
      </trkpt>
      <trkpt lat="44.36245" lon="5.87858">
        <ele>612</ele>
        <time>2019-03-16T13:19:32Z</time>
      </trkpt>
      <trkpt lat="44.36246" lon="5.8787">
        <ele>612</ele>
        <time>2019-03-16T13:19:33Z</time>
      </trkpt>
      <trkpt lat="44.36247" lon="5.87882">
        <ele>611</ele>
        <time>2019-03-16T13:19:34Z</time>
      </trkpt>
      <trkpt lat="44.36247" lon="5.87894">
        <ele>611</ele>
        <time>2019-03-16T13:19:35Z</time>
      </trkpt>
      <trkpt lat="44.36247" lon="5.87905">
        <ele>611</ele>
        <time>2019-03-16T13:19:36Z</time>
      </trkpt>
      <trkpt lat="44.36246" lon="5.87916">
        <ele>611</ele>
        <time>2019-03-16T13:19:37Z</time>
      </trkpt>
      <trkpt lat="44.36245" lon="5.87927">
        <ele>611</ele>
        <time>2019-03-16T13:19:38Z</time>
      </trkpt>
      <trkpt lat="44.36245" lon="5.87938">
        <ele>611</ele>
        <time>2019-03-16T13:19:39Z</time>
      </trkpt>
      <trkpt lat="44.36245" lon="5.87949">
        <ele>611</ele>
        <time>2019-03-16T13:19:40Z</time>
      </trkpt>
      <trkpt lat="44.36245" lon="5.87961">
        <ele>611</ele>
        <time>2019-03-16T13:19:41Z</time>
      </trkpt>
      <trkpt lat="44.36245" lon="5.87973">
        <ele>610</ele>
        <time>2019-03-16T13:19:42Z</time>
      </trkpt>
      <trkpt lat="44.36246" lon="5.87986">
        <ele>610</ele>
        <time>2019-03-16T13:19:43Z</time>
      </trkpt>
      <trkpt lat="44.36249" lon="5.87999">
        <ele>610</ele>
        <time>2019-03-16T13:19:44Z</time>
      </trkpt>
      <trkpt lat="44.36253" lon="5.88011">
        <ele>609</ele>
        <time>2019-03-16T13:19:45Z</time>
      </trkpt>
      <trkpt lat="44.36257" lon="5.88024">
        <ele>608</ele>
        <time>2019-03-16T13:19:46Z</time>
      </trkpt>
      <trkpt lat="44.36262" lon="5.88037">
        <ele>608</ele>
        <time>2019-03-16T13:19:47Z</time>
      </trkpt>
      <trkpt lat="44.36266" lon="5.8805">
        <ele>607</ele>
        <time>2019-03-16T13:19:48Z</time>
      </trkpt>
      <trkpt lat="44.36271" lon="5.88062">
        <ele>606</ele>
        <time>2019-03-16T13:19:49Z</time>
      </trkpt>
      <trkpt lat="44.36275" lon="5.88076">
        <ele>606</ele>
        <time>2019-03-16T13:19:50Z</time>
      </trkpt>
      <trkpt lat="44.36279" lon="5.88088">
        <ele>606</ele>
        <time>2019-03-16T13:19:51Z</time>
      </trkpt>
      <trkpt lat="44.36282" lon="5.88101">
        <ele>606</ele>
        <time>2019-03-16T13:19:52Z</time>
      </trkpt>
      <trkpt lat="44.36285" lon="5.88112">
        <ele>606</ele>
        <time>2019-03-16T13:19:53Z</time>
      </trkpt>
      <trkpt lat="44.36288" lon="5.88123">
        <ele>606</ele>
        <time>2019-03-16T13:19:54Z</time>
      </trkpt>
      <trkpt lat="44.3629" lon="5.88134">
        <ele>606</ele>
        <time>2019-03-16T13:19:55Z</time>
      </trkpt>
      <trkpt lat="44.36293" lon="5.88144">
        <ele>606</ele>
        <time>2019-03-16T13:19:56Z</time>
      </trkpt>
      <trkpt lat="44.36296" lon="5.88155">
        <ele>606</ele>
        <time>2019-03-16T13:19:57Z</time>
      </trkpt>
      <trkpt lat="44.36299" lon="5.88166">
        <ele>606</ele>
        <time>2019-03-16T13:19:58Z</time>
      </trkpt>
      <trkpt lat="44.36301" lon="5.88177">
        <ele>606</ele>
        <time>2019-03-16T13:19:59Z</time>
      </trkpt>
      <trkpt lat="44.36304" lon="5.88189">
        <ele>606</ele>
        <time>2019-03-16T13:20:00Z</time>
      </trkpt>
      <trkpt lat="44.36307" lon="5.88199">
        <ele>606</ele>
        <time>2019-03-16T13:20:01Z</time>
      </trkpt>
      <trkpt lat="44.3631" lon="5.88211">
        <ele>606</ele>
        <time>2019-03-16T13:20:02Z</time>
      </trkpt>
      <trkpt lat="44.36312" lon="5.88222">
        <ele>606</ele>
        <time>2019-03-16T13:20:03Z</time>
      </trkpt>
      <trkpt lat="44.36314" lon="5.88234">
        <ele>606</ele>
        <time>2019-03-16T13:20:04Z</time>
      </trkpt>
      <trkpt lat="44.36316" lon="5.88245">
        <ele>606</ele>
        <time>2019-03-16T13:20:05Z</time>
      </trkpt>
      <trkpt lat="44.36318" lon="5.88256">
        <ele>606</ele>
        <time>2019-03-16T13:20:07Z</time>
      </trkpt>
      <trkpt lat="44.3632" lon="5.88268">
        <ele>606</ele>
        <time>2019-03-16T13:20:07Z</time>
      </trkpt>
      <trkpt lat="44.36322" lon="5.88279">
        <ele>606</ele>
        <time>2019-03-16T13:20:08Z</time>
      </trkpt>
      <trkpt lat="44.36325" lon="5.88291">
        <ele>606</ele>
        <time>2019-03-16T13:20:09Z</time>
      </trkpt>
      <trkpt lat="44.36327" lon="5.88303">
        <ele>606</ele>
        <time>2019-03-16T13:20:10Z</time>
      </trkpt>
      <trkpt lat="44.3633" lon="5.88314">
        <ele>606</ele>
        <time>2019-03-16T13:20:11Z</time>
      </trkpt>
      <trkpt lat="44.36335" lon="5.88327">
        <ele>606</ele>
        <time>2019-03-16T13:20:12Z</time>
      </trkpt>
      <trkpt lat="44.36339" lon="5.88339">
        <ele>605</ele>
        <time>2019-03-16T13:20:13Z</time>
      </trkpt>
      <trkpt lat="44.36344" lon="5.88351">
        <ele>604</ele>
        <time>2019-03-16T13:20:14Z</time>
      </trkpt>
      <trkpt lat="44.36348" lon="5.88364">
        <ele>604</ele>
        <time>2019-03-16T13:20:15Z</time>
      </trkpt>
      <trkpt lat="44.36353" lon="5.88375">
        <ele>603</ele>
        <time>2019-03-16T13:20:16Z</time>
      </trkpt>
      <trkpt lat="44.36357" lon="5.88387">
        <ele>602</ele>
        <time>2019-03-16T13:20:17Z</time>
      </trkpt>
      <trkpt lat="44.36361" lon="5.88398">
        <ele>602</ele>
        <time>2019-03-16T13:20:18Z</time>
      </trkpt>
      <trkpt lat="44.36364" lon="5.88409">
        <ele>601</ele>
        <time>2019-03-16T13:20:19Z</time>
      </trkpt>
      <trkpt lat="44.36367" lon="5.8842">
        <ele>601</ele>
        <time>2019-03-16T13:20:20Z</time>
      </trkpt>
      <trkpt lat="44.3637" lon="5.8843">
        <ele>600</ele>
        <time>2019-03-16T13:20:21Z</time>
      </trkpt>
      <trkpt lat="44.36372" lon="5.8844">
        <ele>600</ele>
        <time>2019-03-16T13:20:22Z</time>
      </trkpt>
      <trkpt lat="44.36373" lon="5.8845">
        <ele>600</ele>
        <time>2019-03-16T13:20:23Z</time>
      </trkpt>
      <trkpt lat="44.36374" lon="5.88461">
        <ele>600</ele>
        <time>2019-03-16T13:20:24Z</time>
      </trkpt>
      <trkpt lat="44.36373" lon="5.88473">
        <ele>600</ele>
        <time>2019-03-16T13:20:25Z</time>
      </trkpt>
      <trkpt lat="44.36373" lon="5.88482">
        <ele>600</ele>
        <time>2019-03-16T13:20:26Z</time>
      </trkpt>
      <trkpt lat="44.36372" lon="5.88493">
        <ele>600</ele>
        <time>2019-03-16T13:20:27Z</time>
      </trkpt>
      <trkpt lat="44.36372" lon="5.88503">
        <ele>600</ele>
        <time>2019-03-16T13:20:28Z</time>
      </trkpt>
      <trkpt lat="44.3637" lon="5.88514">
        <ele>600</ele>
        <time>2019-03-16T13:20:29Z</time>
      </trkpt>
      <trkpt lat="44.3637" lon="5.88523">
        <ele>600</ele>
        <time>2019-03-16T13:20:30Z</time>
      </trkpt>
      <trkpt lat="44.36369" lon="5.88532">
        <ele>601</ele>
        <time>2019-03-16T13:20:31Z</time>
      </trkpt>
      <trkpt lat="44.36369" lon="5.88542">
        <ele>602</ele>
        <time>2019-03-16T13:20:32Z</time>
      </trkpt>
      <trkpt lat="44.36369" lon="5.88552">
        <ele>602</ele>
        <time>2019-03-16T13:20:33Z</time>
      </trkpt>
      <trkpt lat="44.36369" lon="5.88562">
        <ele>602</ele>
        <time>2019-03-16T13:20:34Z</time>
      </trkpt>
      <trkpt lat="44.36369" lon="5.88572">
        <ele>603</ele>
        <time>2019-03-16T13:20:35Z</time>
      </trkpt>
      <trkpt lat="44.36369" lon="5.88583">
        <ele>603</ele>
        <time>2019-03-16T13:20:36Z</time>
      </trkpt>
      <trkpt lat="44.3637" lon="5.88594">
        <ele>603</ele>
        <time>2019-03-16T13:20:37Z</time>
      </trkpt>
      <trkpt lat="44.36369" lon="5.88605">
        <ele>603</ele>
        <time>2019-03-16T13:20:38Z</time>
      </trkpt>
      <trkpt lat="44.36369" lon="5.88616">
        <ele>603</ele>
        <time>2019-03-16T13:20:39Z</time>
      </trkpt>
      <trkpt lat="44.36369" lon="5.88626">
        <ele>603</ele>
        <time>2019-03-16T13:20:40Z</time>
      </trkpt>
      <trkpt lat="44.36368" lon="5.88637">
        <ele>603</ele>
        <time>2019-03-16T13:20:41Z</time>
      </trkpt>
      <trkpt lat="44.36366" lon="5.88648">
        <ele>603</ele>
        <time>2019-03-16T13:20:42Z</time>
      </trkpt>
      <trkpt lat="44.36364" lon="5.88658">
        <ele>603</ele>
        <time>2019-03-16T13:20:43Z</time>
      </trkpt>
      <trkpt lat="44.3636" lon="5.88667">
        <ele>603</ele>
        <time>2019-03-16T13:20:44Z</time>
      </trkpt>
      <trkpt lat="44.36356" lon="5.88676">
        <ele>603</ele>
        <time>2019-03-16T13:20:45Z</time>
      </trkpt>
      <trkpt lat="44.36352" lon="5.88685">
        <ele>603</ele>
        <time>2019-03-16T13:20:46Z</time>
      </trkpt>
      <trkpt lat="44.36349" lon="5.88693">
        <ele>603</ele>
        <time>2019-03-16T13:20:47Z</time>
      </trkpt>
      <trkpt lat="44.36346" lon="5.887">
        <ele>603</ele>
        <time>2019-03-16T13:20:48Z</time>
      </trkpt>
      <trkpt lat="44.36343" lon="5.88708">
        <ele>603</ele>
        <time>2019-03-16T13:20:49Z</time>
      </trkpt>
      <trkpt lat="44.3634" lon="5.88716">
        <ele>603</ele>
        <time>2019-03-16T13:20:50Z</time>
      </trkpt>
      <trkpt lat="44.36338" lon="5.88725">
        <ele>603</ele>
        <time>2019-03-16T13:20:51Z</time>
      </trkpt>
      <trkpt lat="44.36337" lon="5.88733">
        <ele>603</ele>
        <time>2019-03-16T13:20:52Z</time>
      </trkpt>
      <trkpt lat="44.36336" lon="5.88741">
        <ele>603</ele>
        <time>2019-03-16T13:20:53Z</time>
      </trkpt>
      <trkpt lat="44.36336" lon="5.8875">
        <ele>603</ele>
        <time>2019-03-16T13:20:54Z</time>
      </trkpt>
      <trkpt lat="44.36337" lon="5.88758">
        <ele>603</ele>
        <time>2019-03-16T13:20:55Z</time>
      </trkpt>
      <trkpt lat="44.36338" lon="5.88767">
        <ele>603</ele>
        <time>2019-03-16T13:20:56Z</time>
      </trkpt>
      <trkpt lat="44.36339" lon="5.88777">
        <ele>603</ele>
        <time>2019-03-16T13:20:57Z</time>
      </trkpt>
      <trkpt lat="44.36341" lon="5.88786">
        <ele>603</ele>
        <time>2019-03-16T13:20:58Z</time>
      </trkpt>
      <trkpt lat="44.36344" lon="5.88796">
        <ele>603</ele>
        <time>2019-03-16T13:20:59Z</time>
      </trkpt>
      <trkpt lat="44.36348" lon="5.88805">
        <ele>603</ele>
        <time>2019-03-16T13:21:00Z</time>
      </trkpt>
      <trkpt lat="44.36351" lon="5.88815">
        <ele>603</ele>
        <time>2019-03-16T13:21:01Z</time>
      </trkpt>
      <trkpt lat="44.36355" lon="5.88825">
        <ele>603</ele>
        <time>2019-03-16T13:21:02Z</time>
      </trkpt>
      <trkpt lat="44.36359" lon="5.88834">
        <ele>603</ele>
        <time>2019-03-16T13:21:03Z</time>
      </trkpt>
      <trkpt lat="44.36363" lon="5.88844">
        <ele>603</ele>
        <time>2019-03-16T13:21:04Z</time>
      </trkpt>
      <trkpt lat="44.36366" lon="5.88855">
        <ele>603</ele>
        <time>2019-03-16T13:21:05Z</time>
      </trkpt>
      <trkpt lat="44.3637" lon="5.88865">
        <ele>603</ele>
        <time>2019-03-16T13:21:06Z</time>
      </trkpt>
      <trkpt lat="44.36374" lon="5.88875">
        <ele>603</ele>
        <time>2019-03-16T13:21:07Z</time>
      </trkpt>
      <trkpt lat="44.36378" lon="5.88885">
        <ele>603</ele>
        <time>2019-03-16T13:21:08Z</time>
      </trkpt>
      <trkpt lat="44.36382" lon="5.88895">
        <ele>603</ele>
        <time>2019-03-16T13:21:09Z</time>
      </trkpt>
      <trkpt lat="44.36385" lon="5.88905">
        <ele>603</ele>
        <time>2019-03-16T13:21:10Z</time>
      </trkpt>
      <trkpt lat="44.36389" lon="5.88916">
        <ele>603</ele>
        <time>2019-03-16T13:21:11Z</time>
      </trkpt>
      <trkpt lat="44.36393" lon="5.88926">
        <ele>602</ele>
        <time>2019-03-16T13:21:12Z</time>
      </trkpt>
      <trkpt lat="44.36398" lon="5.88936">
        <ele>602</ele>
        <time>2019-03-16T13:21:13Z</time>
      </trkpt>
      <trkpt lat="44.36402" lon="5.88947">
        <ele>601</ele>
        <time>2019-03-16T13:21:14Z</time>
      </trkpt>
      <trkpt lat="44.36406" lon="5.88957">
        <ele>601</ele>
        <time>2019-03-16T13:21:15Z</time>
      </trkpt>
      <trkpt lat="44.36409" lon="5.88968">
        <ele>600</ele>
        <time>2019-03-16T13:21:16Z</time>
      </trkpt>
      <trkpt lat="44.36413" lon="5.88977">
        <ele>600</ele>
        <time>2019-03-16T13:21:17Z</time>
      </trkpt>
      <trkpt lat="44.36417" lon="5.88987">
        <ele>600</ele>
        <time>2019-03-16T13:21:18Z</time>
      </trkpt>
      <trkpt lat="44.3642" lon="5.88996">
        <ele>600</ele>
        <time>2019-03-16T13:21:19Z</time>
      </trkpt>
      <trkpt lat="44.36423" lon="5.89004">
        <ele>600</ele>
        <time>2019-03-16T13:21:20Z</time>
      </trkpt>
      <trkpt lat="44.36426" lon="5.89012">
        <ele>600</ele>
        <time>2019-03-16T13:21:21Z</time>
      </trkpt>
      <trkpt lat="44.36429" lon="5.8902">
        <ele>600</ele>
        <time>2019-03-16T13:21:22Z</time>
      </trkpt>
      <trkpt lat="44.36432" lon="5.89029">
        <ele>600</ele>
        <time>2019-03-16T13:21:23Z</time>
      </trkpt>
      <trkpt lat="44.36435" lon="5.89037">
        <ele>600</ele>
        <time>2019-03-16T13:21:24Z</time>
      </trkpt>
      <trkpt lat="44.36438" lon="5.89045">
        <ele>600</ele>
        <time>2019-03-16T13:21:25Z</time>
      </trkpt>
      <trkpt lat="44.36441" lon="5.89054">
        <ele>599</ele>
        <time>2019-03-16T13:21:26Z</time>
      </trkpt>
      <trkpt lat="44.36445" lon="5.89063">
        <ele>599</ele>
        <time>2019-03-16T13:21:27Z</time>
      </trkpt>
      <trkpt lat="44.36449" lon="5.89072">
        <ele>599</ele>
        <time>2019-03-16T13:21:28Z</time>
      </trkpt>
      <trkpt lat="44.36452" lon="5.89081">
        <ele>599</ele>
        <time>2019-03-16T13:21:29Z</time>
      </trkpt>
      <trkpt lat="44.36456" lon="5.8909">
        <ele>598</ele>
        <time>2019-03-16T13:21:30Z</time>
      </trkpt>
      <trkpt lat="44.3646" lon="5.89101">
        <ele>598</ele>
        <time>2019-03-16T13:21:31Z</time>
      </trkpt>
      <trkpt lat="44.36464" lon="5.89111">
        <ele>598</ele>
        <time>2019-03-16T13:21:32Z</time>
      </trkpt>
      <trkpt lat="44.36468" lon="5.89121">
        <ele>597</ele>
        <time>2019-03-16T13:21:33Z</time>
      </trkpt>
      <trkpt lat="44.36472" lon="5.89132">
        <ele>597</ele>
        <time>2019-03-16T13:21:34Z</time>
      </trkpt>
      <trkpt lat="44.36476" lon="5.89142">
        <ele>597</ele>
        <time>2019-03-16T13:21:35Z</time>
      </trkpt>
      <trkpt lat="44.3648" lon="5.89152">
        <ele>596</ele>
        <time>2019-03-16T13:21:36Z</time>
      </trkpt>
      <trkpt lat="44.36485" lon="5.89163">
        <ele>596</ele>
        <time>2019-03-16T13:21:37Z</time>
      </trkpt>
      <trkpt lat="44.36488" lon="5.89173">
        <ele>596</ele>
        <time>2019-03-16T13:21:38Z</time>
      </trkpt>
      <trkpt lat="44.36492" lon="5.89184">
        <ele>596</ele>
        <time>2019-03-16T13:21:39Z</time>
      </trkpt>
      <trkpt lat="44.36496" lon="5.89194">
        <ele>596</ele>
        <time>2019-03-16T13:21:40Z</time>
      </trkpt>
      <trkpt lat="44.36499" lon="5.89204">
        <ele>595</ele>
        <time>2019-03-16T13:21:41Z</time>
      </trkpt>
      <trkpt lat="44.36504" lon="5.89215">
        <ele>595</ele>
        <time>2019-03-16T13:21:42Z</time>
      </trkpt>
      <trkpt lat="44.36508" lon="5.89224">
        <ele>595</ele>
        <time>2019-03-16T13:21:43Z</time>
      </trkpt>
      <trkpt lat="44.36512" lon="5.89234">
        <ele>594</ele>
        <time>2019-03-16T13:21:44Z</time>
      </trkpt>
      <trkpt lat="44.36516" lon="5.89245">
        <ele>594</ele>
        <time>2019-03-16T13:21:45Z</time>
      </trkpt>
      <trkpt lat="44.3652" lon="5.89255">
        <ele>593</ele>
        <time>2019-03-16T13:21:46Z</time>
      </trkpt>
      <trkpt lat="44.36524" lon="5.89267">
        <ele>592</ele>
        <time>2019-03-16T13:21:47Z</time>
      </trkpt>
      <trkpt lat="44.36528" lon="5.89279">
        <ele>592</ele>
        <time>2019-03-16T13:21:48Z</time>
      </trkpt>
      <trkpt lat="44.36532" lon="5.8929">
        <ele>591</ele>
        <time>2019-03-16T13:21:49Z</time>
      </trkpt>
      <trkpt lat="44.36536" lon="5.89303">
        <ele>591</ele>
        <time>2019-03-16T13:21:50Z</time>
      </trkpt>
      <trkpt lat="44.3654" lon="5.89316">
        <ele>590</ele>
        <time>2019-03-16T13:21:51Z</time>
      </trkpt>
      <trkpt lat="44.36543" lon="5.89329">
        <ele>589</ele>
        <time>2019-03-16T13:21:52Z</time>
      </trkpt>
      <trkpt lat="44.36545" lon="5.89343">
        <ele>589</ele>
        <time>2019-03-16T13:21:53Z</time>
      </trkpt>
      <trkpt lat="44.36547" lon="5.89357">
        <ele>588</ele>
        <time>2019-03-16T13:21:54Z</time>
      </trkpt>
      <trkpt lat="44.36548" lon="5.8937">
        <ele>588</ele>
        <time>2019-03-16T13:21:55Z</time>
      </trkpt>
      <trkpt lat="44.3655" lon="5.89384">
        <ele>588</ele>
        <time>2019-03-16T13:21:56Z</time>
      </trkpt>
      <trkpt lat="44.36552" lon="5.89396">
        <ele>588</ele>
        <time>2019-03-16T13:21:57Z</time>
      </trkpt>
      <trkpt lat="44.36554" lon="5.89407">
        <ele>588</ele>
        <time>2019-03-16T13:21:58Z</time>
      </trkpt>
      <trkpt lat="44.36556" lon="5.89419">
        <ele>588</ele>
        <time>2019-03-16T13:21:59Z</time>
      </trkpt>
      <trkpt lat="44.36559" lon="5.89429">
        <ele>588</ele>
        <time>2019-03-16T13:22:00Z</time>
      </trkpt>
      <trkpt lat="44.36563" lon="5.89439">
        <ele>588</ele>
        <time>2019-03-16T13:22:01Z</time>
      </trkpt>
      <trkpt lat="44.36567" lon="5.89448">
        <ele>588</ele>
        <time>2019-03-16T13:22:02Z</time>
      </trkpt>
      <trkpt lat="44.36572" lon="5.89457">
        <ele>588</ele>
        <time>2019-03-16T13:22:03Z</time>
      </trkpt>
      <trkpt lat="44.36577" lon="5.89466">
        <ele>588</ele>
        <time>2019-03-16T13:22:04Z</time>
      </trkpt>
      <trkpt lat="44.36582" lon="5.89473">
        <ele>588</ele>
        <time>2019-03-16T13:22:05Z</time>
      </trkpt>
      <trkpt lat="44.36588" lon="5.89482">
        <ele>588</ele>
        <time>2019-03-16T13:22:06Z</time>
      </trkpt>
      <trkpt lat="44.36594" lon="5.8949">
        <ele>588</ele>
        <time>2019-03-16T13:22:07Z</time>
      </trkpt>
      <trkpt lat="44.36599" lon="5.89499">
        <ele>588</ele>
        <time>2019-03-16T13:22:08Z</time>
      </trkpt>
      <trkpt lat="44.36604" lon="5.89507">
        <ele>588</ele>
        <time>2019-03-16T13:22:09Z</time>
      </trkpt>
      <trkpt lat="44.3661" lon="5.89515">
        <ele>588</ele>
        <time>2019-03-16T13:22:10Z</time>
      </trkpt>
      <trkpt lat="44.36615" lon="5.89523">
        <ele>588</ele>
        <time>2019-03-16T13:22:11Z</time>
      </trkpt>
      <trkpt lat="44.36621" lon="5.89532">
        <ele>588</ele>
        <time>2019-03-16T13:22:12Z</time>
      </trkpt>
      <trkpt lat="44.36626" lon="5.8954">
        <ele>588</ele>
        <time>2019-03-16T13:22:13Z</time>
      </trkpt>
      <trkpt lat="44.36632" lon="5.89549">
        <ele>588</ele>
        <time>2019-03-16T13:22:14Z</time>
      </trkpt>
      <trkpt lat="44.36637" lon="5.89558">
        <ele>587</ele>
        <time>2019-03-16T13:22:15Z</time>
      </trkpt>
      <trkpt lat="44.36643" lon="5.89566">
        <ele>587</ele>
        <time>2019-03-16T13:22:16Z</time>
      </trkpt>
      <trkpt lat="44.36649" lon="5.89575">
        <ele>587</ele>
        <time>2019-03-16T13:22:17Z</time>
      </trkpt>
      <trkpt lat="44.36654" lon="5.89583">
        <ele>587</ele>
        <time>2019-03-16T13:22:18Z</time>
      </trkpt>
      <trkpt lat="44.3666" lon="5.89592">
        <ele>587</ele>
        <time>2019-03-16T13:22:19Z</time>
      </trkpt>
      <trkpt lat="44.36666" lon="5.896">
        <ele>587</ele>
        <time>2019-03-16T13:22:20Z</time>
      </trkpt>
      <trkpt lat="44.36671" lon="5.89607">
        <ele>587</ele>
        <time>2019-03-16T13:22:21Z</time>
      </trkpt>
      <trkpt lat="44.36676" lon="5.89615">
        <ele>587</ele>
        <time>2019-03-16T13:22:22Z</time>
      </trkpt>
      <trkpt lat="44.36681" lon="5.89623">
        <ele>587</ele>
        <time>2019-03-16T13:22:23Z</time>
      </trkpt>
      <trkpt lat="44.36686" lon="5.8963">
        <ele>587</ele>
        <time>2019-03-16T13:22:24Z</time>
      </trkpt>
      <trkpt lat="44.3669" lon="5.89638">
        <ele>587</ele>
        <time>2019-03-16T13:22:25Z</time>
      </trkpt>
      <trkpt lat="44.36695" lon="5.89645">
        <ele>587</ele>
        <time>2019-03-16T13:22:26Z</time>
      </trkpt>
      <trkpt lat="44.367" lon="5.89652">
        <ele>587</ele>
        <time>2019-03-16T13:22:27Z</time>
      </trkpt>
      <trkpt lat="44.36704" lon="5.89659">
        <ele>587</ele>
        <time>2019-03-16T13:22:28Z</time>
      </trkpt>
      <trkpt lat="44.36709" lon="5.89666">
        <ele>587</ele>
        <time>2019-03-16T13:22:29Z</time>
      </trkpt>
      <trkpt lat="44.36713" lon="5.89674">
        <ele>587</ele>
        <time>2019-03-16T13:22:30Z</time>
      </trkpt>
      <trkpt lat="44.36718" lon="5.89681">
        <ele>587</ele>
        <time>2019-03-16T13:22:31Z</time>
      </trkpt>
      <trkpt lat="44.36723" lon="5.89688">
        <ele>587</ele>
        <time>2019-03-16T13:22:32Z</time>
      </trkpt>
      <trkpt lat="44.36727" lon="5.89696">
        <ele>587</ele>
        <time>2019-03-16T13:22:33Z</time>
      </trkpt>
      <trkpt lat="44.36731" lon="5.89703">
        <ele>587</ele>
        <time>2019-03-16T13:22:34Z</time>
      </trkpt>
      <trkpt lat="44.36736" lon="5.89711">
        <ele>587</ele>
        <time>2019-03-16T13:22:35Z</time>
      </trkpt>
      <trkpt lat="44.3674" lon="5.89718">
        <ele>587</ele>
        <time>2019-03-16T13:22:36Z</time>
      </trkpt>
      <trkpt lat="44.36745" lon="5.89725">
        <ele>587</ele>
        <time>2019-03-16T13:22:37Z</time>
      </trkpt>
      <trkpt lat="44.36749" lon="5.89733">
        <ele>587</ele>
        <time>2019-03-16T13:22:38Z</time>
      </trkpt>
      <trkpt lat="44.36753" lon="5.8974">
        <ele>587</ele>
        <time>2019-03-16T13:22:39Z</time>
      </trkpt>
      <trkpt lat="44.36758" lon="5.89747">
        <ele>587</ele>
        <time>2019-03-16T13:22:40Z</time>
      </trkpt>
      <trkpt lat="44.36762" lon="5.89753">
        <ele>587</ele>
        <time>2019-03-16T13:22:41Z</time>
      </trkpt>
      <trkpt lat="44.36766" lon="5.89761">
        <ele>587</ele>
        <time>2019-03-16T13:22:42Z</time>
      </trkpt>
      <trkpt lat="44.36769" lon="5.89768">
        <ele>587</ele>
        <time>2019-03-16T13:22:43Z</time>
      </trkpt>
      <trkpt lat="44.36773" lon="5.89776">
        <ele>587</ele>
        <time>2019-03-16T13:22:44Z</time>
      </trkpt>
      <trkpt lat="44.36777" lon="5.89783">
        <ele>587</ele>
        <time>2019-03-16T13:22:45Z</time>
      </trkpt>
      <trkpt lat="44.3678" lon="5.89791">
        <ele>587</ele>
        <time>2019-03-16T13:22:46Z</time>
      </trkpt>
      <trkpt lat="44.36784" lon="5.89799">
        <ele>587</ele>
        <time>2019-03-16T13:22:47Z</time>
      </trkpt>
      <trkpt lat="44.36787" lon="5.89808">
        <ele>587</ele>
        <time>2019-03-16T13:22:48Z</time>
      </trkpt>
      <trkpt lat="44.3679" lon="5.89817">
        <ele>587</ele>
        <time>2019-03-16T13:22:49Z</time>
      </trkpt>
      <trkpt lat="44.36794" lon="5.89826">
        <ele>587</ele>
        <time>2019-03-16T13:22:50Z</time>
      </trkpt>
      <trkpt lat="44.36797" lon="5.89836">
        <ele>587</ele>
        <time>2019-03-16T13:22:51Z</time>
      </trkpt>
      <trkpt lat="44.36801" lon="5.89846">
        <ele>587</ele>
        <time>2019-03-16T13:22:52Z</time>
      </trkpt>
      <trkpt lat="44.36806" lon="5.89855">
        <ele>587</ele>
        <time>2019-03-16T13:22:53Z</time>
      </trkpt>
      <trkpt lat="44.36812" lon="5.89865">
        <ele>587</ele>
        <time>2019-03-16T13:22:54Z</time>
      </trkpt>
      <trkpt lat="44.36818" lon="5.89874">
        <ele>587</ele>
        <time>2019-03-16T13:22:55Z</time>
      </trkpt>
      <trkpt lat="44.36825" lon="5.89882">
        <ele>587</ele>
        <time>2019-03-16T13:22:56Z</time>
      </trkpt>
      <trkpt lat="44.36832" lon="5.89891">
        <ele>587</ele>
        <time>2019-03-16T13:22:57Z</time>
      </trkpt>
      <trkpt lat="44.36839" lon="5.89899">
        <ele>587</ele>
        <time>2019-03-16T13:22:58Z</time>
      </trkpt>
      <trkpt lat="44.36847" lon="5.89906">
        <ele>587</ele>
        <time>2019-03-16T13:22:59Z</time>
      </trkpt>
      <trkpt lat="44.36854" lon="5.89914">
        <ele>587</ele>
        <time>2019-03-16T13:23:00Z</time>
      </trkpt>
      <trkpt lat="44.36861" lon="5.8992">
        <ele>587</ele>
        <time>2019-03-16T13:23:01Z</time>
      </trkpt>
      <trkpt lat="44.36868" lon="5.89926">
        <ele>587</ele>
        <time>2019-03-16T13:23:02Z</time>
      </trkpt>
      <trkpt lat="44.36875" lon="5.89931">
        <ele>587</ele>
        <time>2019-03-16T13:23:03Z</time>
      </trkpt>
      <trkpt lat="44.36882" lon="5.89935">
        <ele>587</ele>
        <time>2019-03-16T13:23:04Z</time>
      </trkpt>
      <trkpt lat="44.36888" lon="5.89939">
        <ele>587</ele>
        <time>2019-03-16T13:23:05Z</time>
      </trkpt>
      <trkpt lat="44.36894" lon="5.89943">
        <ele>587</ele>
        <time>2019-03-16T13:23:06Z</time>
      </trkpt>
      <trkpt lat="44.369" lon="5.89947">
        <ele>587</ele>
        <time>2019-03-16T13:23:07Z</time>
      </trkpt>
      <trkpt lat="44.36906" lon="5.8995">
        <ele>587</ele>
        <time>2019-03-16T13:23:08Z</time>
      </trkpt>
      <trkpt lat="44.36912" lon="5.89954">
        <ele>587</ele>
        <time>2019-03-16T13:23:09Z</time>
      </trkpt>
      <trkpt lat="44.36917" lon="5.89957">
        <ele>587</ele>
        <time>2019-03-16T13:23:10Z</time>
      </trkpt>
      <trkpt lat="44.36923" lon="5.89961">
        <ele>587</ele>
        <time>2019-03-16T13:23:11Z</time>
      </trkpt>
      <trkpt lat="44.36928" lon="5.89964">
        <ele>587</ele>
        <time>2019-03-16T13:23:12Z</time>
      </trkpt>
      <trkpt lat="44.36934" lon="5.89967">
        <ele>587</ele>
        <time>2019-03-16T13:23:13Z</time>
      </trkpt>
      <trkpt lat="44.36939" lon="5.89971">
        <ele>587</ele>
        <time>2019-03-16T13:23:14Z</time>
      </trkpt>
      <trkpt lat="44.36945" lon="5.89974">
        <ele>588</ele>
        <time>2019-03-16T13:23:15Z</time>
      </trkpt>
      <trkpt lat="44.36951" lon="5.89977">
        <ele>588</ele>
        <time>2019-03-16T13:23:16Z</time>
      </trkpt>
      <trkpt lat="44.36956" lon="5.8998">
        <ele>588</ele>
        <time>2019-03-16T13:23:17Z</time>
      </trkpt>
      <trkpt lat="44.36962" lon="5.89983">
        <ele>589</ele>
        <time>2019-03-16T13:23:18Z</time>
      </trkpt>
      <trkpt lat="44.36967" lon="5.89986">
        <ele>589</ele>
        <time>2019-03-16T13:23:19Z</time>
      </trkpt>
      <trkpt lat="44.36973" lon="5.89988">
        <ele>589</ele>
        <time>2019-03-16T13:23:20Z</time>
      </trkpt>
      <trkpt lat="44.36978" lon="5.89991">
        <ele>589</ele>
        <time>2019-03-16T13:23:21Z</time>
      </trkpt>
      <trkpt lat="44.36983" lon="5.89993">
        <ele>590</ele>
        <time>2019-03-16T13:23:22Z</time>
      </trkpt>
      <trkpt lat="44.36988" lon="5.89996">
        <ele>590</ele>
        <time>2019-03-16T13:23:23Z</time>
      </trkpt>
      <trkpt lat="44.36993" lon="5.89999">
        <ele>590</ele>
        <time>2019-03-16T13:23:24Z</time>
      </trkpt>
      <trkpt lat="44.36998" lon="5.90001">
        <ele>591</ele>
        <time>2019-03-16T13:23:25Z</time>
      </trkpt>
      <trkpt lat="44.37003" lon="5.90003">
        <ele>591</ele>
        <time>2019-03-16T13:23:26Z</time>
      </trkpt>
      <trkpt lat="44.37008" lon="5.90004">
        <ele>591</ele>
        <time>2019-03-16T13:23:27Z</time>
      </trkpt>
      <trkpt lat="44.37013" lon="5.90006">
        <ele>592</ele>
        <time>2019-03-16T13:23:28Z</time>
      </trkpt>
      <trkpt lat="44.37017" lon="5.90008">
        <ele>592</ele>
        <time>2019-03-16T13:23:29Z</time>
      </trkpt>
      <trkpt lat="44.37022" lon="5.90009">
        <ele>592</ele>
        <time>2019-03-16T13:23:30Z</time>
      </trkpt>
      <trkpt lat="44.37027" lon="5.9001">
        <ele>592</ele>
        <time>2019-03-16T13:23:31Z</time>
      </trkpt>
      <trkpt lat="44.37031" lon="5.90012">
        <ele>592</ele>
        <time>2019-03-16T13:23:32Z</time>
      </trkpt>
      <trkpt lat="44.37036" lon="5.90013">
        <ele>592</ele>
        <time>2019-03-16T13:23:33Z</time>
      </trkpt>
      <trkpt lat="44.37041" lon="5.90014">
        <ele>592</ele>
        <time>2019-03-16T13:23:34Z</time>
      </trkpt>
      <trkpt lat="44.37047" lon="5.90014">
        <ele>592</ele>
        <time>2019-03-16T13:23:35Z</time>
      </trkpt>
      <trkpt lat="44.37052" lon="5.90014">
        <ele>592</ele>
        <time>2019-03-16T13:23:36Z</time>
      </trkpt>
      <trkpt lat="44.37058" lon="5.90014">
        <ele>592</ele>
        <time>2019-03-16T13:23:37Z</time>
      </trkpt>
      <trkpt lat="44.37064" lon="5.90012">
        <ele>592</ele>
        <time>2019-03-16T13:23:38Z</time>
      </trkpt>
      <trkpt lat="44.3707" lon="5.9001">
        <ele>592</ele>
        <time>2019-03-16T13:23:39Z</time>
      </trkpt>
      <trkpt lat="44.37077" lon="5.90006">
        <ele>592</ele>
        <time>2019-03-16T13:23:40Z</time>
      </trkpt>
      <trkpt lat="44.37083" lon="5.90002">
        <ele>592</ele>
        <time>2019-03-16T13:23:41Z</time>
      </trkpt>
      <trkpt lat="44.3709" lon="5.89996">
        <ele>592</ele>
        <time>2019-03-16T13:23:42Z</time>
      </trkpt>
      <trkpt lat="44.37096" lon="5.8999">
        <ele>592</ele>
        <time>2019-03-16T13:23:43Z</time>
      </trkpt>
      <trkpt lat="44.37103" lon="5.89982">
        <ele>592</ele>
        <time>2019-03-16T13:23:44Z</time>
      </trkpt>
      <trkpt lat="44.37109" lon="5.89975">
        <ele>592</ele>
        <time>2019-03-16T13:23:45Z</time>
      </trkpt>
      <trkpt lat="44.37116" lon="5.89967">
        <ele>592</ele>
        <time>2019-03-16T13:23:46Z</time>
      </trkpt>
      <trkpt lat="44.37123" lon="5.89961">
        <ele>592</ele>
        <time>2019-03-16T13:23:47Z</time>
      </trkpt>
      <trkpt lat="44.37131" lon="5.89955">
        <ele>592</ele>
        <time>2019-03-16T13:23:48Z</time>
      </trkpt>
      <trkpt lat="44.37139" lon="5.89952">
        <ele>592</ele>
        <time>2019-03-16T13:23:49Z</time>
      </trkpt>
      <trkpt lat="44.37148" lon="5.8995">
        <ele>592</ele>
        <time>2019-03-16T13:23:50Z</time>
      </trkpt>
      <trkpt lat="44.37157" lon="5.89951">
        <ele>592</ele>
        <time>2019-03-16T13:23:51Z</time>
      </trkpt>
      <trkpt lat="44.37165" lon="5.89953">
        <ele>592</ele>
        <time>2019-03-16T13:23:52Z</time>
      </trkpt>
      <trkpt lat="44.37174" lon="5.89958">
        <ele>592</ele>
        <time>2019-03-16T13:23:53Z</time>
      </trkpt>
      <trkpt lat="44.37181" lon="5.89963">
        <ele>592</ele>
        <time>2019-03-16T13:23:54Z</time>
      </trkpt>
      <trkpt lat="44.37188" lon="5.8997">
        <ele>592</ele>
        <time>2019-03-16T13:23:55Z</time>
      </trkpt>
      <trkpt lat="44.37194" lon="5.89978">
        <ele>592</ele>
        <time>2019-03-16T13:23:56Z</time>
      </trkpt>
      <trkpt lat="44.372" lon="5.89985">
        <ele>592</ele>
        <time>2019-03-16T13:23:57Z</time>
      </trkpt>
      <trkpt lat="44.37206" lon="5.89993">
        <ele>592</ele>
        <time>2019-03-16T13:23:58Z</time>
      </trkpt>
      <trkpt lat="44.37212" lon="5.90001">
        <ele>592</ele>
        <time>2019-03-16T13:23:59Z</time>
      </trkpt>
      <trkpt lat="44.37217" lon="5.90008">
        <ele>592</ele>
        <time>2019-03-16T13:24:00Z</time>
      </trkpt>
      <trkpt lat="44.37223" lon="5.90016">
        <ele>592</ele>
        <time>2019-03-16T13:24:01Z</time>
      </trkpt>
      <trkpt lat="44.37228" lon="5.90024">
        <ele>592</ele>
        <time>2019-03-16T13:24:02Z</time>
      </trkpt>
      <trkpt lat="44.37233" lon="5.90032">
        <ele>592</ele>
        <time>2019-03-16T13:24:03Z</time>
      </trkpt>
      <trkpt lat="44.37237" lon="5.90039">
        <ele>592</ele>
        <time>2019-03-16T13:24:04Z</time>
      </trkpt>
      <trkpt lat="44.37242" lon="5.90046">
        <ele>592</ele>
        <time>2019-03-16T13:24:05Z</time>
      </trkpt>
      <trkpt lat="44.37246" lon="5.90053">
        <ele>592</ele>
        <time>2019-03-16T13:24:06Z</time>
      </trkpt>
      <trkpt lat="44.37251" lon="5.9006">
        <ele>592</ele>
        <time>2019-03-16T13:24:07Z</time>
      </trkpt>
      <trkpt lat="44.37255" lon="5.90066">
        <ele>592</ele>
        <time>2019-03-16T13:24:08Z</time>
      </trkpt>
      <trkpt lat="44.3726" lon="5.90072">
        <ele>592</ele>
        <time>2019-03-16T13:24:09Z</time>
      </trkpt>
      <trkpt lat="44.37264" lon="5.90078">
        <ele>592</ele>
        <time>2019-03-16T13:24:10Z</time>
      </trkpt>
      <trkpt lat="44.37269" lon="5.90084">
        <ele>592</ele>
        <time>2019-03-16T13:24:11Z</time>
      </trkpt>
      <trkpt lat="44.37273" lon="5.90091">
        <ele>592</ele>
        <time>2019-03-16T13:24:12Z</time>
      </trkpt>
      <trkpt lat="44.37278" lon="5.90097">
        <ele>592</ele>
        <time>2019-03-16T13:24:13Z</time>
      </trkpt>
      <trkpt lat="44.37282" lon="5.90102">
        <ele>592</ele>
        <time>2019-03-16T13:24:14Z</time>
      </trkpt>
      <trkpt lat="44.37286" lon="5.90108">
        <ele>592</ele>
        <time>2019-03-16T13:24:15Z</time>
      </trkpt>
      <trkpt lat="44.3729" lon="5.90114">
        <ele>592</ele>
        <time>2019-03-16T13:24:16Z</time>
      </trkpt>
      <trkpt lat="44.37294" lon="5.9012">
        <ele>592</ele>
        <time>2019-03-16T13:24:17Z</time>
      </trkpt>
      <trkpt lat="44.37299" lon="5.90125">
        <ele>592</ele>
        <time>2019-03-16T13:24:18Z</time>
      </trkpt>
      <trkpt lat="44.37303" lon="5.90131">
        <ele>592</ele>
        <time>2019-03-16T13:24:19Z</time>
      </trkpt>
      <trkpt lat="44.37307" lon="5.90136">
        <ele>592</ele>
        <time>2019-03-16T13:24:20Z</time>
      </trkpt>
      <trkpt lat="44.37311" lon="5.90141">
        <ele>592</ele>
        <time>2019-03-16T13:24:21Z</time>
      </trkpt>
      <trkpt lat="44.37316" lon="5.90147">
        <ele>592</ele>
        <time>2019-03-16T13:24:22Z</time>
      </trkpt>
      <trkpt lat="44.3732" lon="5.90152">
        <ele>592</ele>
        <time>2019-03-16T13:24:23Z</time>
      </trkpt>
      <trkpt lat="44.37324" lon="5.90158">
        <ele>592</ele>
        <time>2019-03-16T13:24:24Z</time>
      </trkpt>
      <trkpt lat="44.37328" lon="5.90163">
        <ele>592</ele>
        <time>2019-03-16T13:24:25Z</time>
      </trkpt>
      <trkpt lat="44.37332" lon="5.90168">
        <ele>592</ele>
        <time>2019-03-16T13:24:26Z</time>
      </trkpt>
      <trkpt lat="44.37336" lon="5.90173">
        <ele>592</ele>
        <time>2019-03-16T13:24:27Z</time>
      </trkpt>
      <trkpt lat="44.3734" lon="5.90178">
        <ele>592</ele>
        <time>2019-03-16T13:24:28Z</time>
      </trkpt>
      <trkpt lat="44.37344" lon="5.90183">
        <ele>592</ele>
        <time>2019-03-16T13:24:29Z</time>
      </trkpt>
      <trkpt lat="44.37347" lon="5.90188">
        <ele>592</ele>
        <time>2019-03-16T13:24:30Z</time>
      </trkpt>
      <trkpt lat="44.37351" lon="5.90193">
        <ele>592</ele>
        <time>2019-03-16T13:24:31Z</time>
      </trkpt>
      <trkpt lat="44.37355" lon="5.90198">
        <ele>592</ele>
        <time>2019-03-16T13:24:32Z</time>
      </trkpt>
      <trkpt lat="44.37358" lon="5.90203">
        <ele>592</ele>
        <time>2019-03-16T13:24:33Z</time>
      </trkpt>
      <trkpt lat="44.37362" lon="5.90207">
        <ele>592</ele>
        <time>2019-03-16T13:24:34Z</time>
      </trkpt>
      <trkpt lat="44.37366" lon="5.90212">
        <ele>592</ele>
        <time>2019-03-16T13:24:35Z</time>
      </trkpt>
      <trkpt lat="44.3737" lon="5.90216">
        <ele>592</ele>
        <time>2019-03-16T13:24:36Z</time>
      </trkpt>
      <trkpt lat="44.37374" lon="5.90221">
        <ele>592</ele>
        <time>2019-03-16T13:24:37Z</time>
      </trkpt>
      <trkpt lat="44.37378" lon="5.90226">
        <ele>592</ele>
        <time>2019-03-16T13:24:38Z</time>
      </trkpt>
      <trkpt lat="44.37382" lon="5.90231">
        <ele>592</ele>
        <time>2019-03-16T13:24:39Z</time>
      </trkpt>
      <trkpt lat="44.37386" lon="5.90236">
        <ele>592</ele>
        <time>2019-03-16T13:24:40Z</time>
      </trkpt>
      <trkpt lat="44.3739" lon="5.90241">
        <ele>592</ele>
        <time>2019-03-16T13:24:41Z</time>
      </trkpt>
      <trkpt lat="44.37394" lon="5.90246">
        <ele>592</ele>
        <time>2019-03-16T13:24:42Z</time>
      </trkpt>
      <trkpt lat="44.37399" lon="5.90251">
        <ele>592</ele>
        <time>2019-03-16T13:24:43Z</time>
      </trkpt>
      <trkpt lat="44.37403" lon="5.90256">
        <ele>592</ele>
        <time>2019-03-16T13:24:44Z</time>
      </trkpt>
      <trkpt lat="44.37407" lon="5.9026">
        <ele>592</ele>
        <time>2019-03-16T13:24:45Z</time>
      </trkpt>
      <trkpt lat="44.3741" lon="5.90265">
        <ele>592</ele>
        <time>2019-03-16T13:24:46Z</time>
      </trkpt>
      <trkpt lat="44.37414" lon="5.90269">
        <ele>592</ele>
        <time>2019-03-16T13:24:47Z</time>
      </trkpt>
      <trkpt lat="44.37418" lon="5.90274">
        <ele>592</ele>
        <time>2019-03-16T13:24:48Z</time>
      </trkpt>
      <trkpt lat="44.37421" lon="5.90279">
        <ele>592</ele>
        <time>2019-03-16T13:24:49Z</time>
      </trkpt>
      <trkpt lat="44.37425" lon="5.90284">
        <ele>592</ele>
        <time>2019-03-16T13:24:50Z</time>
      </trkpt>
      <trkpt lat="44.37429" lon="5.90289">
        <ele>592</ele>
        <time>2019-03-16T13:24:51Z</time>
      </trkpt>
      <trkpt lat="44.37433" lon="5.90295">
        <ele>592</ele>
        <time>2019-03-16T13:24:52Z</time>
      </trkpt>
      <trkpt lat="44.37437" lon="5.903">
        <ele>592</ele>
        <time>2019-03-16T13:24:53Z</time>
      </trkpt>
      <trkpt lat="44.3744" lon="5.90305">
        <ele>592</ele>
        <time>2019-03-16T13:24:54Z</time>
      </trkpt>
      <trkpt lat="44.37444" lon="5.9031">
        <ele>592</ele>
        <time>2019-03-16T13:24:55Z</time>
      </trkpt>
      <trkpt lat="44.37448" lon="5.90315">
        <ele>592</ele>
        <time>2019-03-16T13:24:56Z</time>
      </trkpt>
      <trkpt lat="44.37452" lon="5.9032">
        <ele>593</ele>
        <time>2019-03-16T13:24:57Z</time>
      </trkpt>
      <trkpt lat="44.37455" lon="5.90325">
        <ele>593</ele>
        <time>2019-03-16T13:24:58Z</time>
      </trkpt>
      <trkpt lat="44.37458" lon="5.90331">
        <ele>593</ele>
        <time>2019-03-16T13:24:59Z</time>
      </trkpt>
      <trkpt lat="44.37462" lon="5.90335">
        <ele>594</ele>
        <time>2019-03-16T13:25:00Z</time>
      </trkpt>
      <trkpt lat="44.37466" lon="5.9034">
        <ele>594</ele>
        <time>2019-03-16T13:25:01Z</time>
      </trkpt>
      <trkpt lat="44.3747" lon="5.90345">
        <ele>594</ele>
        <time>2019-03-16T13:25:02Z</time>
      </trkpt>
      <trkpt lat="44.37474" lon="5.90349">
        <ele>594</ele>
        <time>2019-03-16T13:25:03Z</time>
      </trkpt>
      <trkpt lat="44.37478" lon="5.90354">
        <ele>595</ele>
        <time>2019-03-16T13:25:04Z</time>
      </trkpt>
      <trkpt lat="44.37482" lon="5.90359">
        <ele>595</ele>
        <time>2019-03-16T13:25:05Z</time>
      </trkpt>
      <trkpt lat="44.37486" lon="5.90364">
        <ele>595</ele>
        <time>2019-03-16T13:25:06Z</time>
      </trkpt>
      <trkpt lat="44.3749" lon="5.90369">
        <ele>595</ele>
        <time>2019-03-16T13:25:07Z</time>
      </trkpt>
      <trkpt lat="44.37494" lon="5.90375">
        <ele>596</ele>
        <time>2019-03-16T13:25:08Z</time>
      </trkpt>
      <trkpt lat="44.37498" lon="5.9038">
        <ele>596</ele>
        <time>2019-03-16T13:25:09Z</time>
      </trkpt>
      <trkpt lat="44.37502" lon="5.90384">
        <ele>596</ele>
        <time>2019-03-16T13:25:10Z</time>
      </trkpt>
      <trkpt lat="44.37505" lon="5.90389">
        <ele>596</ele>
        <time>2019-03-16T13:25:11Z</time>
      </trkpt>
      <trkpt lat="44.37509" lon="5.90394">
        <ele>596</ele>
        <time>2019-03-16T13:25:12Z</time>
      </trkpt>
      <trkpt lat="44.37513" lon="5.90399">
        <ele>597</ele>
        <time>2019-03-16T13:25:13Z</time>
      </trkpt>
      <trkpt lat="44.37517" lon="5.90404">
        <ele>597</ele>
        <time>2019-03-16T13:25:14Z</time>
      </trkpt>
      <trkpt lat="44.37521" lon="5.90409">
        <ele>597</ele>
        <time>2019-03-16T13:25:15Z</time>
      </trkpt>
      <trkpt lat="44.37525" lon="5.90413">
        <ele>597</ele>
        <time>2019-03-16T13:25:16Z</time>
      </trkpt>
      <trkpt lat="44.37529" lon="5.90418">
        <ele>597</ele>
        <time>2019-03-16T13:25:17Z</time>
      </trkpt>
      <trkpt lat="44.37533" lon="5.90423">
        <ele>597</ele>
        <time>2019-03-16T13:25:18Z</time>
      </trkpt>
      <trkpt lat="44.37537" lon="5.90428">
        <ele>597</ele>
        <time>2019-03-16T13:25:19Z</time>
      </trkpt>
      <trkpt lat="44.37541" lon="5.90433">
        <ele>598</ele>
        <time>2019-03-16T13:25:20Z</time>
      </trkpt>
      <trkpt lat="44.37545" lon="5.90438">
        <ele>598</ele>
        <time>2019-03-16T13:25:21Z</time>
      </trkpt>
      <trkpt lat="44.3755" lon="5.90443">
        <ele>598</ele>
        <time>2019-03-16T13:25:22Z</time>
      </trkpt>
      <trkpt lat="44.37554" lon="5.90447">
        <ele>598</ele>
        <time>2019-03-16T13:25:23Z</time>
      </trkpt>
      <trkpt lat="44.37559" lon="5.90452">
        <ele>598</ele>
        <time>2019-03-16T13:25:24Z</time>
      </trkpt>
      <trkpt lat="44.37564" lon="5.90456">
        <ele>598</ele>
        <time>2019-03-16T13:25:25Z</time>
      </trkpt>
      <trkpt lat="44.37569" lon="5.9046">
        <ele>598</ele>
        <time>2019-03-16T13:25:26Z</time>
      </trkpt>
      <trkpt lat="44.37574" lon="5.90464">
        <ele>598</ele>
        <time>2019-03-16T13:25:27Z</time>
      </trkpt>
      <trkpt lat="44.3758" lon="5.90468">
        <ele>598</ele>
        <time>2019-03-16T13:25:28Z</time>
      </trkpt>
      <trkpt lat="44.37586" lon="5.90472">
        <ele>598</ele>
        <time>2019-03-16T13:25:29Z</time>
      </trkpt>
      <trkpt lat="44.37592" lon="5.90476">
        <ele>598</ele>
        <time>2019-03-16T13:25:30Z</time>
      </trkpt>
      <trkpt lat="44.37597" lon="5.9048">
        <ele>598</ele>
        <time>2019-03-16T13:25:31Z</time>
      </trkpt>
      <trkpt lat="44.37603" lon="5.90484">
        <ele>599</ele>
        <time>2019-03-16T13:25:32Z</time>
      </trkpt>
      <trkpt lat="44.37609" lon="5.90487">
        <ele>599</ele>
        <time>2019-03-16T13:25:33Z</time>
      </trkpt>
      <trkpt lat="44.37615" lon="5.90491">
        <ele>599</ele>
        <time>2019-03-16T13:25:34Z</time>
      </trkpt>
      <trkpt lat="44.37621" lon="5.90495">
        <ele>599</ele>
        <time>2019-03-16T13:25:35Z</time>
      </trkpt>
      <trkpt lat="44.37627" lon="5.90498">
        <ele>599</ele>
        <time>2019-03-16T13:25:36Z</time>
      </trkpt>
      <trkpt lat="44.37633" lon="5.90502">
        <ele>599</ele>
        <time>2019-03-16T13:25:37Z</time>
      </trkpt>
      <trkpt lat="44.37639" lon="5.90506">
        <ele>599</ele>
        <time>2019-03-16T13:25:38Z</time>
      </trkpt>
      <trkpt lat="44.37645" lon="5.9051">
        <ele>599</ele>
        <time>2019-03-16T13:25:39Z</time>
      </trkpt>
      <trkpt lat="44.37651" lon="5.90514">
        <ele>599</ele>
        <time>2019-03-16T13:25:40Z</time>
      </trkpt>
      <trkpt lat="44.37657" lon="5.90518">
        <ele>599</ele>
        <time>2019-03-16T13:25:41Z</time>
      </trkpt>
      <trkpt lat="44.37663" lon="5.90522">
        <ele>599</ele>
        <time>2019-03-16T13:25:42Z</time>
      </trkpt>
      <trkpt lat="44.37669" lon="5.90526">
        <ele>599</ele>
        <time>2019-03-16T13:25:43Z</time>
      </trkpt>
      <trkpt lat="44.37675" lon="5.90531">
        <ele>599</ele>
        <time>2019-03-16T13:25:44Z</time>
      </trkpt>
      <trkpt lat="44.37681" lon="5.90535">
        <ele>599</ele>
        <time>2019-03-16T13:25:45Z</time>
      </trkpt>
      <trkpt lat="44.37686" lon="5.9054">
        <ele>599</ele>
        <time>2019-03-16T13:25:46Z</time>
      </trkpt>
      <trkpt lat="44.37692" lon="5.90545">
        <ele>599</ele>
        <time>2019-03-16T13:25:47Z</time>
      </trkpt>
      <trkpt lat="44.37697" lon="5.9055">
        <ele>599</ele>
        <time>2019-03-16T13:25:48Z</time>
      </trkpt>
      <trkpt lat="44.37703" lon="5.90556">
        <ele>599</ele>
        <time>2019-03-16T13:25:49Z</time>
      </trkpt>
      <trkpt lat="44.37708" lon="5.90562">
        <ele>599</ele>
        <time>2019-03-16T13:25:50Z</time>
      </trkpt>
      <trkpt lat="44.37712" lon="5.90568">
        <ele>599</ele>
        <time>2019-03-16T13:25:51Z</time>
      </trkpt>
      <trkpt lat="44.37717" lon="5.90575">
        <ele>599</ele>
        <time>2019-03-16T13:25:52Z</time>
      </trkpt>
      <trkpt lat="44.37721" lon="5.90581">
        <ele>599</ele>
        <time>2019-03-16T13:25:53Z</time>
      </trkpt>
      <trkpt lat="44.37726" lon="5.90588">
        <ele>599</ele>
        <time>2019-03-16T13:25:54Z</time>
      </trkpt>
      <trkpt lat="44.3773" lon="5.90594">
        <ele>599</ele>
        <time>2019-03-16T13:25:55Z</time>
      </trkpt>
      <trkpt lat="44.37734" lon="5.90601">
        <ele>599</ele>
        <time>2019-03-16T13:25:56Z</time>
      </trkpt>
      <trkpt lat="44.37739" lon="5.90608">
        <ele>599</ele>
        <time>2019-03-16T13:25:57Z</time>
      </trkpt>
      <trkpt lat="44.37743" lon="5.90615">
        <ele>599</ele>
        <time>2019-03-16T13:25:58Z</time>
      </trkpt>
      <trkpt lat="44.37748" lon="5.90622">
        <ele>599</ele>
        <time>2019-03-16T13:25:59Z</time>
      </trkpt>
      <trkpt lat="44.37753" lon="5.90628">
        <ele>599</ele>
        <time>2019-03-16T13:26:00Z</time>
      </trkpt>
      <trkpt lat="44.37758" lon="5.90635">
        <ele>599</ele>
        <time>2019-03-16T13:26:01Z</time>
      </trkpt>
      <trkpt lat="44.37764" lon="5.90641">
        <ele>599</ele>
        <time>2019-03-16T13:26:02Z</time>
      </trkpt>
      <trkpt lat="44.37769" lon="5.90647">
        <ele>599</ele>
        <time>2019-03-16T13:26:03Z</time>
      </trkpt>
      <trkpt lat="44.37775" lon="5.90653">
        <ele>599</ele>
        <time>2019-03-16T13:26:04Z</time>
      </trkpt>
      <trkpt lat="44.37781" lon="5.90659">
        <ele>599</ele>
        <time>2019-03-16T13:26:05Z</time>
      </trkpt>
      <trkpt lat="44.37788" lon="5.90665">
        <ele>599</ele>
        <time>2019-03-16T13:26:06Z</time>
      </trkpt>
      <trkpt lat="44.37793" lon="5.9067">
        <ele>599</ele>
        <time>2019-03-16T13:26:07Z</time>
      </trkpt>
      <trkpt lat="44.378" lon="5.90676">
        <ele>599</ele>
        <time>2019-03-16T13:26:08Z</time>
      </trkpt>
      <trkpt lat="44.37806" lon="5.90681">
        <ele>599</ele>
        <time>2019-03-16T13:26:09Z</time>
      </trkpt>
      <trkpt lat="44.37812" lon="5.90687">
        <ele>599</ele>
        <time>2019-03-16T13:26:10Z</time>
      </trkpt>
      <trkpt lat="44.37818" lon="5.90693">
        <ele>599</ele>
        <time>2019-03-16T13:26:11Z</time>
      </trkpt>
      <trkpt lat="44.37824" lon="5.90698">
        <ele>599</ele>
        <time>2019-03-16T13:26:12Z</time>
      </trkpt>
      <trkpt lat="44.3783" lon="5.90704">
        <ele>599</ele>
        <time>2019-03-16T13:26:13Z</time>
      </trkpt>
      <trkpt lat="44.37836" lon="5.90709">
        <ele>599</ele>
        <time>2019-03-16T13:26:14Z</time>
      </trkpt>
      <trkpt lat="44.37841" lon="5.90714">
        <ele>599</ele>
        <time>2019-03-16T13:26:15Z</time>
      </trkpt>
      <trkpt lat="44.37847" lon="5.9072">
        <ele>599</ele>
        <time>2019-03-16T13:26:16Z</time>
      </trkpt>
      <trkpt lat="44.37853" lon="5.90725">
        <ele>599</ele>
        <time>2019-03-16T13:26:17Z</time>
      </trkpt>
      <trkpt lat="44.37859" lon="5.9073">
        <ele>599</ele>
        <time>2019-03-16T13:26:18Z</time>
      </trkpt>
      <trkpt lat="44.37865" lon="5.90735">
        <ele>599</ele>
        <time>2019-03-16T13:26:19Z</time>
      </trkpt>
      <trkpt lat="44.3787" lon="5.9074">
        <ele>599</ele>
        <time>2019-03-16T13:26:20Z</time>
      </trkpt>
      <trkpt lat="44.37876" lon="5.90746">
        <ele>599</ele>
        <time>2019-03-16T13:26:21Z</time>
      </trkpt>
      <trkpt lat="44.37882" lon="5.90751">
        <ele>599</ele>
        <time>2019-03-16T13:26:22Z</time>
      </trkpt>
      <trkpt lat="44.37887" lon="5.90757">
        <ele>599</ele>
        <time>2019-03-16T13:26:23Z</time>
      </trkpt>
      <trkpt lat="44.37893" lon="5.90763">
        <ele>599</ele>
        <time>2019-03-16T13:26:24Z</time>
      </trkpt>
      <trkpt lat="44.37899" lon="5.90768">
        <ele>599</ele>
        <time>2019-03-16T13:26:25Z</time>
      </trkpt>
      <trkpt lat="44.37905" lon="5.90774">
        <ele>599</ele>
        <time>2019-03-16T13:26:26Z</time>
      </trkpt>
      <trkpt lat="44.37911" lon="5.9078">
        <ele>599</ele>
        <time>2019-03-16T13:26:27Z</time>
      </trkpt>
      <trkpt lat="44.37917" lon="5.90787">
        <ele>599</ele>
        <time>2019-03-16T13:26:28Z</time>
      </trkpt>
      <trkpt lat="44.37922" lon="5.90794">
        <ele>599</ele>
        <time>2019-03-16T13:26:29Z</time>
      </trkpt>
      <trkpt lat="44.37927" lon="5.90801">
        <ele>599</ele>
        <time>2019-03-16T13:26:30Z</time>
      </trkpt>
      <trkpt lat="44.37932" lon="5.90808">
        <ele>599</ele>
        <time>2019-03-16T13:26:31Z</time>
      </trkpt>
      <trkpt lat="44.37937" lon="5.90816">
        <ele>599</ele>
        <time>2019-03-16T13:26:32Z</time>
      </trkpt>
      <trkpt lat="44.37942" lon="5.90824">
        <ele>599</ele>
        <time>2019-03-16T13:26:33Z</time>
      </trkpt>
      <trkpt lat="44.37946" lon="5.90832">
        <ele>599</ele>
        <time>2019-03-16T13:26:34Z</time>
      </trkpt>
      <trkpt lat="44.37949" lon="5.9084">
        <ele>599</ele>
        <time>2019-03-16T13:26:35Z</time>
      </trkpt>
      <trkpt lat="44.37952" lon="5.90849">
        <ele>599</ele>
        <time>2019-03-16T13:26:36Z</time>
      </trkpt>
      <trkpt lat="44.37956" lon="5.90858">
        <ele>599</ele>
        <time>2019-03-16T13:26:37Z</time>
      </trkpt>
      <trkpt lat="44.37959" lon="5.90867">
        <ele>599</ele>
        <time>2019-03-16T13:26:38Z</time>
      </trkpt>
      <trkpt lat="44.37963" lon="5.90875">
        <ele>599</ele>
        <time>2019-03-16T13:26:39Z</time>
      </trkpt>
      <trkpt lat="44.37966" lon="5.90884">
        <ele>599</ele>
        <time>2019-03-16T13:26:40Z</time>
      </trkpt>
      <trkpt lat="44.3797" lon="5.90893">
        <ele>599</ele>
        <time>2019-03-16T13:26:41Z</time>
      </trkpt>
      <trkpt lat="44.37973" lon="5.90901">
        <ele>599</ele>
        <time>2019-03-16T13:26:42Z</time>
      </trkpt>
      <trkpt lat="44.37977" lon="5.90909">
        <ele>599</ele>
        <time>2019-03-16T13:26:43Z</time>
      </trkpt>
      <trkpt lat="44.37981" lon="5.90917">
        <ele>599</ele>
        <time>2019-03-16T13:26:44Z</time>
      </trkpt>
      <trkpt lat="44.37985" lon="5.90925">
        <ele>599</ele>
        <time>2019-03-16T13:26:45Z</time>
      </trkpt>
      <trkpt lat="44.37989" lon="5.90933">
        <ele>599</ele>
        <time>2019-03-16T13:26:46Z</time>
      </trkpt>
      <trkpt lat="44.37992" lon="5.90941">
        <ele>599</ele>
        <time>2019-03-16T13:26:47Z</time>
      </trkpt>
      <trkpt lat="44.37996" lon="5.90949">
        <ele>599</ele>
        <time>2019-03-16T13:26:48Z</time>
      </trkpt>
      <trkpt lat="44.37999" lon="5.90957">
        <ele>599</ele>
        <time>2019-03-16T13:26:49Z</time>
      </trkpt>
      <trkpt lat="44.38003" lon="5.90966">
        <ele>599</ele>
        <time>2019-03-16T13:26:50Z</time>
      </trkpt>
      <trkpt lat="44.38007" lon="5.90974">
        <ele>599</ele>
        <time>2019-03-16T13:26:51Z</time>
      </trkpt>
      <trkpt lat="44.3801" lon="5.90982">
        <ele>599</ele>
        <time>2019-03-16T13:26:52Z</time>
      </trkpt>
      <trkpt lat="44.38014" lon="5.9099">
        <ele>599</ele>
        <time>2019-03-16T13:26:53Z</time>
      </trkpt>
      <trkpt lat="44.38017" lon="5.90998">
        <ele>599</ele>
        <time>2019-03-16T13:26:54Z</time>
      </trkpt>
      <trkpt lat="44.38021" lon="5.91006">
        <ele>599</ele>
        <time>2019-03-16T13:26:55Z</time>
      </trkpt>
      <trkpt lat="44.38024" lon="5.91013">
        <ele>599</ele>
        <time>2019-03-16T13:26:56Z</time>
      </trkpt>
      <trkpt lat="44.38027" lon="5.91021">
        <ele>599</ele>
        <time>2019-03-16T13:26:57Z</time>
      </trkpt>
      <trkpt lat="44.3803" lon="5.91029">
        <ele>599</ele>
        <time>2019-03-16T13:26:58Z</time>
      </trkpt>
      <trkpt lat="44.38033" lon="5.91036">
        <ele>599</ele>
        <time>2019-03-16T13:26:59Z</time>
      </trkpt>
      <trkpt lat="44.38036" lon="5.91044">
        <ele>599</ele>
        <time>2019-03-16T13:27:00Z</time>
      </trkpt>
      <trkpt lat="44.38039" lon="5.91051">
        <ele>599</ele>
        <time>2019-03-16T13:27:01Z</time>
      </trkpt>
      <trkpt lat="44.38042" lon="5.91059">
        <ele>599</ele>
        <time>2019-03-16T13:27:02Z</time>
      </trkpt>
      <trkpt lat="44.38045" lon="5.91066">
        <ele>599</ele>
        <time>2019-03-16T13:27:03Z</time>
      </trkpt>
      <trkpt lat="44.38048" lon="5.91074">
        <ele>599</ele>
        <time>2019-03-16T13:27:04Z</time>
      </trkpt>
      <trkpt lat="44.38051" lon="5.91081">
        <ele>599</ele>
        <time>2019-03-16T13:27:05Z</time>
      </trkpt>
      <trkpt lat="44.38054" lon="5.91089">
        <ele>599</ele>
        <time>2019-03-16T13:27:06Z</time>
      </trkpt>
      <trkpt lat="44.38057" lon="5.91097">
        <ele>599</ele>
        <time>2019-03-16T13:27:07Z</time>
      </trkpt>
      <trkpt lat="44.3806" lon="5.91105">
        <ele>599</ele>
        <time>2019-03-16T13:27:08Z</time>
      </trkpt>
      <trkpt lat="44.38063" lon="5.91113">
        <ele>599</ele>
        <time>2019-03-16T13:27:09Z</time>
      </trkpt>
      <trkpt lat="44.38066" lon="5.91121">
        <ele>599</ele>
        <time>2019-03-16T13:27:10Z</time>
      </trkpt>
      <trkpt lat="44.3807" lon="5.91129">
        <ele>599</ele>
        <time>2019-03-16T13:27:11Z</time>
      </trkpt>
      <trkpt lat="44.38073" lon="5.91138">
        <ele>599</ele>
        <time>2019-03-16T13:27:12Z</time>
      </trkpt>
      <trkpt lat="44.38076" lon="5.91146">
        <ele>599</ele>
        <time>2019-03-16T13:27:13Z</time>
      </trkpt>
      <trkpt lat="44.38079" lon="5.91154">
        <ele>599</ele>
        <time>2019-03-16T13:27:14Z</time>
      </trkpt>
      <trkpt lat="44.38083" lon="5.91163">
        <ele>599</ele>
        <time>2019-03-16T13:27:15Z</time>
      </trkpt>
      <trkpt lat="44.38086" lon="5.91171">
        <ele>599</ele>
        <time>2019-03-16T13:27:16Z</time>
      </trkpt>
      <trkpt lat="44.38089" lon="5.9118">
        <ele>599</ele>
        <time>2019-03-16T13:27:17Z</time>
      </trkpt>
      <trkpt lat="44.38093" lon="5.91188">
        <ele>599</ele>
        <time>2019-03-16T13:27:18Z</time>
      </trkpt>
      <trkpt lat="44.38096" lon="5.91196">
        <ele>599</ele>
        <time>2019-03-16T13:27:19Z</time>
      </trkpt>
      <trkpt lat="44.381" lon="5.91205">
        <ele>599</ele>
        <time>2019-03-16T13:27:20Z</time>
      </trkpt>
      <trkpt lat="44.38103" lon="5.91213">
        <ele>599</ele>
        <time>2019-03-16T13:27:21Z</time>
      </trkpt>
      <trkpt lat="44.38107" lon="5.91222">
        <ele>599</ele>
        <time>2019-03-16T13:27:22Z</time>
      </trkpt>
      <trkpt lat="44.3811" lon="5.9123">
        <ele>599</ele>
        <time>2019-03-16T13:27:23Z</time>
      </trkpt>
      <trkpt lat="44.38113" lon="5.91238">
        <ele>599</ele>
        <time>2019-03-16T13:27:24Z</time>
      </trkpt>
      <trkpt lat="44.38116" lon="5.91247">
        <ele>599</ele>
        <time>2019-03-16T13:27:25Z</time>
      </trkpt>
      <trkpt lat="44.3812" lon="5.91255">
        <ele>599</ele>
        <time>2019-03-16T13:27:26Z</time>
      </trkpt>
      <trkpt lat="44.38123" lon="5.91263">
        <ele>599</ele>
        <time>2019-03-16T13:27:27Z</time>
      </trkpt>
      <trkpt lat="44.38126" lon="5.91271">
        <ele>599</ele>
        <time>2019-03-16T13:27:28Z</time>
      </trkpt>
      <trkpt lat="44.38129" lon="5.91279">
        <ele>599</ele>
        <time>2019-03-16T13:27:29Z</time>
      </trkpt>
      <trkpt lat="44.38132" lon="5.91287">
        <ele>599</ele>
        <time>2019-03-16T13:27:30Z</time>
      </trkpt>
      <trkpt lat="44.38135" lon="5.91295">
        <ele>599</ele>
        <time>2019-03-16T13:27:31Z</time>
      </trkpt>
      <trkpt lat="44.38139" lon="5.91304">
        <ele>599</ele>
        <time>2019-03-16T13:27:32Z</time>
      </trkpt>
      <trkpt lat="44.38142" lon="5.91312">
        <ele>599</ele>
        <time>2019-03-16T13:27:33Z</time>
      </trkpt>
      <trkpt lat="44.38145" lon="5.9132">
        <ele>599</ele>
        <time>2019-03-16T13:27:34Z</time>
      </trkpt>
      <trkpt lat="44.38148" lon="5.91328">
        <ele>599</ele>
        <time>2019-03-16T13:27:35Z</time>
      </trkpt>
      <trkpt lat="44.38152" lon="5.91336">
        <ele>599</ele>
        <time>2019-03-16T13:27:36Z</time>
      </trkpt>
      <trkpt lat="44.38155" lon="5.91344">
        <ele>599</ele>
        <time>2019-03-16T13:27:37Z</time>
      </trkpt>
      <trkpt lat="44.38159" lon="5.91352">
        <ele>599</ele>
        <time>2019-03-16T13:27:38Z</time>
      </trkpt>
      <trkpt lat="44.38162" lon="5.9136">
        <ele>599</ele>
        <time>2019-03-16T13:27:39Z</time>
      </trkpt>
      <trkpt lat="44.38166" lon="5.91368">
        <ele>599</ele>
        <time>2019-03-16T13:27:40Z</time>
      </trkpt>
      <trkpt lat="44.38169" lon="5.91375">
        <ele>599</ele>
        <time>2019-03-16T13:27:41Z</time>
      </trkpt>
      <trkpt lat="44.38173" lon="5.91383">
        <ele>599</ele>
        <time>2019-03-16T13:27:42Z</time>
      </trkpt>
      <trkpt lat="44.38177" lon="5.9139">
        <ele>599</ele>
        <time>2019-03-16T13:27:43Z</time>
      </trkpt>
      <trkpt lat="44.38181" lon="5.91398">
        <ele>599</ele>
        <time>2019-03-16T13:27:44Z</time>
      </trkpt>
      <trkpt lat="44.38185" lon="5.91405">
        <ele>599</ele>
        <time>2019-03-16T13:27:45Z</time>
      </trkpt>
      <trkpt lat="44.38189" lon="5.91413">
        <ele>599</ele>
        <time>2019-03-16T13:27:46Z</time>
      </trkpt>
      <trkpt lat="44.38194" lon="5.91421">
        <ele>599</ele>
        <time>2019-03-16T13:27:47Z</time>
      </trkpt>
      <trkpt lat="44.38198" lon="5.91429">
        <ele>599</ele>
        <time>2019-03-16T13:27:48Z</time>
      </trkpt>
      <trkpt lat="44.38202" lon="5.91436">
        <ele>599</ele>
        <time>2019-03-16T13:27:49Z</time>
      </trkpt>
      <trkpt lat="44.38206" lon="5.91444">
        <ele>599</ele>
        <time>2019-03-16T13:27:50Z</time>
      </trkpt>
      <trkpt lat="44.3821" lon="5.91452">
        <ele>599</ele>
        <time>2019-03-16T13:27:51Z</time>
      </trkpt>
      <trkpt lat="44.38214" lon="5.9146">
        <ele>599</ele>
        <time>2019-03-16T13:27:52Z</time>
      </trkpt>
      <trkpt lat="44.38219" lon="5.91468">
        <ele>599</ele>
        <time>2019-03-16T13:27:53Z</time>
      </trkpt>
      <trkpt lat="44.38223" lon="5.91475">
        <ele>599</ele>
        <time>2019-03-16T13:27:54Z</time>
      </trkpt>
      <trkpt lat="44.38227" lon="5.91483">
        <ele>599</ele>
        <time>2019-03-16T13:27:55Z</time>
      </trkpt>
      <trkpt lat="44.38231" lon="5.91491">
        <ele>599</ele>
        <time>2019-03-16T13:27:56Z</time>
      </trkpt>
      <trkpt lat="44.38235" lon="5.91499">
        <ele>599</ele>
        <time>2019-03-16T13:27:57Z</time>
      </trkpt>
      <trkpt lat="44.3824" lon="5.91506">
        <ele>599</ele>
        <time>2019-03-16T13:27:58Z</time>
      </trkpt>
      <trkpt lat="44.38243" lon="5.91514">
        <ele>599</ele>
        <time>2019-03-16T13:27:59Z</time>
      </trkpt>
      <trkpt lat="44.38247" lon="5.91522">
        <ele>599</ele>
        <time>2019-03-16T13:28:00Z</time>
      </trkpt>
      <trkpt lat="44.38251" lon="5.91529">
        <ele>599</ele>
        <time>2019-03-16T13:28:01Z</time>
      </trkpt>
      <trkpt lat="44.38255" lon="5.91537">
        <ele>599</ele>
        <time>2019-03-16T13:28:02Z</time>
      </trkpt>
      <trkpt lat="44.38259" lon="5.91544">
        <ele>599</ele>
        <time>2019-03-16T13:28:03Z</time>
      </trkpt>
      <trkpt lat="44.38263" lon="5.91551">
        <ele>599</ele>
        <time>2019-03-16T13:28:04Z</time>
      </trkpt>
      <trkpt lat="44.38267" lon="5.91558">
        <ele>599</ele>
        <time>2019-03-16T13:28:05Z</time>
      </trkpt>
      <trkpt lat="44.38271" lon="5.91565">
        <ele>599</ele>
        <time>2019-03-16T13:28:06Z</time>
      </trkpt>
      <trkpt lat="44.38274" lon="5.91572">
        <ele>599</ele>
        <time>2019-03-16T13:28:07Z</time>
      </trkpt>
      <trkpt lat="44.38278" lon="5.91579">
        <ele>599</ele>
        <time>2019-03-16T13:28:08Z</time>
      </trkpt>
      <trkpt lat="44.38282" lon="5.91586">
        <ele>599</ele>
        <time>2019-03-16T13:28:09Z</time>
      </trkpt>
      <trkpt lat="44.38285" lon="5.91594">
        <ele>599</ele>
        <time>2019-03-16T13:28:10Z</time>
      </trkpt>
      <trkpt lat="44.38289" lon="5.91601">
        <ele>599</ele>
        <time>2019-03-16T13:28:11Z</time>
      </trkpt>
      <trkpt lat="44.38293" lon="5.91608">
        <ele>599</ele>
        <time>2019-03-16T13:28:12Z</time>
      </trkpt>
      <trkpt lat="44.38297" lon="5.91615">
        <ele>599</ele>
        <time>2019-03-16T13:28:13Z</time>
      </trkpt>
      <trkpt lat="44.38301" lon="5.91623">
        <ele>599</ele>
        <time>2019-03-16T13:28:14Z</time>
      </trkpt>
      <trkpt lat="44.38305" lon="5.9163">
        <ele>599</ele>
        <time>2019-03-16T13:28:15Z</time>
      </trkpt>
      <trkpt lat="44.38309" lon="5.91638">
        <ele>599</ele>
        <time>2019-03-16T13:28:16Z</time>
      </trkpt>
      <trkpt lat="44.38313" lon="5.91645">
        <ele>599</ele>
        <time>2019-03-16T13:28:17Z</time>
      </trkpt>
      <trkpt lat="44.38317" lon="5.91653">
        <ele>599</ele>
        <time>2019-03-16T13:28:18Z</time>
      </trkpt>
      <trkpt lat="44.38321" lon="5.9166">
        <ele>599</ele>
        <time>2019-03-16T13:28:19Z</time>
      </trkpt>
      <trkpt lat="44.38325" lon="5.91668">
        <ele>599</ele>
        <time>2019-03-16T13:28:20Z</time>
      </trkpt>
      <trkpt lat="44.38329" lon="5.91676">
        <ele>599</ele>
        <time>2019-03-16T13:28:21Z</time>
      </trkpt>
      <trkpt lat="44.38333" lon="5.91683">
        <ele>599</ele>
        <time>2019-03-16T13:28:22Z</time>
      </trkpt>
      <trkpt lat="44.38337" lon="5.91691">
        <ele>599</ele>
        <time>2019-03-16T13:28:23Z</time>
      </trkpt>
      <trkpt lat="44.38342" lon="5.91699">
        <ele>599</ele>
        <time>2019-03-16T13:28:24Z</time>
      </trkpt>
      <trkpt lat="44.38345" lon="5.91707">
        <ele>599</ele>
        <time>2019-03-16T13:28:25Z</time>
      </trkpt>
      <trkpt lat="44.38349" lon="5.91714">
        <ele>599</ele>
        <time>2019-03-16T13:28:26Z</time>
      </trkpt>
      <trkpt lat="44.38353" lon="5.91722">
        <ele>599</ele>
        <time>2019-03-16T13:28:27Z</time>
      </trkpt>
      <trkpt lat="44.38357" lon="5.91729">
        <ele>599</ele>
        <time>2019-03-16T13:28:28Z</time>
      </trkpt>
      <trkpt lat="44.38361" lon="5.91737">
        <ele>599</ele>
        <time>2019-03-16T13:28:29Z</time>
      </trkpt>
      <trkpt lat="44.38365" lon="5.91744">
        <ele>599</ele>
        <time>2019-03-16T13:28:30Z</time>
      </trkpt>
      <trkpt lat="44.38369" lon="5.91751">
        <ele>599</ele>
        <time>2019-03-16T13:28:31Z</time>
      </trkpt>
      <trkpt lat="44.38373" lon="5.91758">
        <ele>599</ele>
        <time>2019-03-16T13:28:32Z</time>
      </trkpt>
      <trkpt lat="44.38377" lon="5.91766">
        <ele>599</ele>
        <time>2019-03-16T13:28:33Z</time>
      </trkpt>
      <trkpt lat="44.38381" lon="5.91773">
        <ele>599</ele>
        <time>2019-03-16T13:28:34Z</time>
      </trkpt>
      <trkpt lat="44.38385" lon="5.9178">
        <ele>599</ele>
        <time>2019-03-16T13:28:35Z</time>
      </trkpt>
      <trkpt lat="44.38389" lon="5.91788">
        <ele>599</ele>
        <time>2019-03-16T13:28:36Z</time>
      </trkpt>
      <trkpt lat="44.38393" lon="5.91795">
        <ele>599</ele>
        <time>2019-03-16T13:28:37Z</time>
      </trkpt>
      <trkpt lat="44.38397" lon="5.91802">
        <ele>599</ele>
        <time>2019-03-16T13:28:38Z</time>
      </trkpt>
      <trkpt lat="44.38401" lon="5.91809">
        <ele>599</ele>
        <time>2019-03-16T13:28:39Z</time>
      </trkpt>
      <trkpt lat="44.38405" lon="5.91817">
        <ele>599</ele>
        <time>2019-03-16T13:28:40Z</time>
      </trkpt>
      <trkpt lat="44.38409" lon="5.91824">
        <ele>599</ele>
        <time>2019-03-16T13:28:41Z</time>
      </trkpt>
      <trkpt lat="44.38413" lon="5.91832">
        <ele>599</ele>
        <time>2019-03-16T13:28:42Z</time>
      </trkpt>
      <trkpt lat="44.38417" lon="5.9184">
        <ele>598</ele>
        <time>2019-03-16T13:28:43Z</time>
      </trkpt>
      <trkpt lat="44.38422" lon="5.91848">
        <ele>598</ele>
        <time>2019-03-16T13:28:44Z</time>
      </trkpt>
      <trkpt lat="44.38426" lon="5.91856">
        <ele>598</ele>
        <time>2019-03-16T13:28:45Z</time>
      </trkpt>
      <trkpt lat="44.38431" lon="5.91864">
        <ele>598</ele>
        <time>2019-03-16T13:28:46Z</time>
      </trkpt>
      <trkpt lat="44.38435" lon="5.91872">
        <ele>598</ele>
        <time>2019-03-16T13:28:47Z</time>
      </trkpt>
      <trkpt lat="44.3844" lon="5.9188">
        <ele>598</ele>
        <time>2019-03-16T13:28:48Z</time>
      </trkpt>
      <trkpt lat="44.38444" lon="5.91888">
        <ele>598</ele>
        <time>2019-03-16T13:28:49Z</time>
      </trkpt>
      <trkpt lat="44.38449" lon="5.91896">
        <ele>597</ele>
        <time>2019-03-16T13:28:50Z</time>
      </trkpt>
      <trkpt lat="44.38454" lon="5.91905">
        <ele>597</ele>
        <time>2019-03-16T13:28:51Z</time>
      </trkpt>
      <trkpt lat="44.38458" lon="5.91913">
        <ele>597</ele>
        <time>2019-03-16T13:28:52Z</time>
      </trkpt>
      <trkpt lat="44.38463" lon="5.91921">
        <ele>597</ele>
        <time>2019-03-16T13:28:53Z</time>
      </trkpt>
      <trkpt lat="44.38467" lon="5.91929">
        <ele>597</ele>
        <time>2019-03-16T13:28:54Z</time>
      </trkpt>
      <trkpt lat="44.38472" lon="5.91938">
        <ele>597</ele>
        <time>2019-03-16T13:28:55Z</time>
      </trkpt>
      <trkpt lat="44.38477" lon="5.91946">
        <ele>597</ele>
        <time>2019-03-16T13:28:56Z</time>
      </trkpt>
      <trkpt lat="44.38481" lon="5.91954">
        <ele>597</ele>
        <time>2019-03-16T13:28:57Z</time>
      </trkpt>
      <trkpt lat="44.38485" lon="5.91963">
        <ele>596</ele>
        <time>2019-03-16T13:28:58Z</time>
      </trkpt>
      <trkpt lat="44.3849" lon="5.91972">
        <ele>596</ele>
        <time>2019-03-16T13:28:59Z</time>
      </trkpt>
      <trkpt lat="44.38494" lon="5.9198">
        <ele>596</ele>
        <time>2019-03-16T13:29:00Z</time>
      </trkpt>
      <trkpt lat="44.38499" lon="5.91989">
        <ele>596</ele>
        <time>2019-03-16T13:29:01Z</time>
      </trkpt>
      <trkpt lat="44.38504" lon="5.91998">
        <ele>596</ele>
        <time>2019-03-16T13:29:02Z</time>
      </trkpt>
      <trkpt lat="44.38509" lon="5.92007">
        <ele>595</ele>
        <time>2019-03-16T13:29:03Z</time>
      </trkpt>
      <trkpt lat="44.38513" lon="5.92016">
        <ele>595</ele>
        <time>2019-03-16T13:29:04Z</time>
      </trkpt>
      <trkpt lat="44.38518" lon="5.92025">
        <ele>595</ele>
        <time>2019-03-16T13:29:05Z</time>
      </trkpt>
      <trkpt lat="44.38523" lon="5.92033">
        <ele>595</ele>
        <time>2019-03-16T13:29:06Z</time>
      </trkpt>
      <trkpt lat="44.38527" lon="5.92042">
        <ele>595</ele>
        <time>2019-03-16T13:29:07Z</time>
      </trkpt>
      <trkpt lat="44.38532" lon="5.92051">
        <ele>595</ele>
        <time>2019-03-16T13:29:08Z</time>
      </trkpt>
      <trkpt lat="44.38537" lon="5.9206">
        <ele>594</ele>
        <time>2019-03-16T13:29:09Z</time>
      </trkpt>
      <trkpt lat="44.38541" lon="5.92068">
        <ele>594</ele>
        <time>2019-03-16T13:29:10Z</time>
      </trkpt>
      <trkpt lat="44.38546" lon="5.92077">
        <ele>594</ele>
        <time>2019-03-16T13:29:11Z</time>
      </trkpt>
      <trkpt lat="44.38551" lon="5.92085">
        <ele>594</ele>
        <time>2019-03-16T13:29:12Z</time>
      </trkpt>
      <trkpt lat="44.38555" lon="5.92094">
        <ele>594</ele>
        <time>2019-03-16T13:29:13Z</time>
      </trkpt>
      <trkpt lat="44.38559" lon="5.92102">
        <ele>594</ele>
        <time>2019-03-16T13:29:14Z</time>
      </trkpt>
      <trkpt lat="44.38563" lon="5.92111">
        <ele>594</ele>
        <time>2019-03-16T13:29:15Z</time>
      </trkpt>
      <trkpt lat="44.38566" lon="5.9212">
        <ele>594</ele>
        <time>2019-03-16T13:29:16Z</time>
      </trkpt>
      <trkpt lat="44.38569" lon="5.92129">
        <ele>594</ele>
        <time>2019-03-16T13:29:17Z</time>
      </trkpt>
      <trkpt lat="44.38572" lon="5.92138">
        <ele>594</ele>
        <time>2019-03-16T13:29:18Z</time>
      </trkpt>
      <trkpt lat="44.38575" lon="5.92147">
        <ele>594</ele>
        <time>2019-03-16T13:29:19Z</time>
      </trkpt>
      <trkpt lat="44.38578" lon="5.92156">
        <ele>594</ele>
        <time>2019-03-16T13:29:20Z</time>
      </trkpt>
      <trkpt lat="44.38581" lon="5.92165">
        <ele>594</ele>
        <time>2019-03-16T13:29:21Z</time>
      </trkpt>
      <trkpt lat="44.38583" lon="5.92174">
        <ele>594</ele>
        <time>2019-03-16T13:29:22Z</time>
      </trkpt>
      <trkpt lat="44.38586" lon="5.92182">
        <ele>594</ele>
        <time>2019-03-16T13:29:23Z</time>
      </trkpt>
      <trkpt lat="44.38588" lon="5.92191">
        <ele>594</ele>
        <time>2019-03-16T13:29:24Z</time>
      </trkpt>
      <trkpt lat="44.38591" lon="5.92199">
        <ele>594</ele>
        <time>2019-03-16T13:29:25Z</time>
      </trkpt>
      <trkpt lat="44.38594" lon="5.92207">
        <ele>594</ele>
        <time>2019-03-16T13:29:26Z</time>
      </trkpt>
      <trkpt lat="44.38596" lon="5.92215">
        <ele>594</ele>
        <time>2019-03-16T13:29:27Z</time>
      </trkpt>
      <trkpt lat="44.38598" lon="5.92222">
        <ele>594</ele>
        <time>2019-03-16T13:29:28Z</time>
      </trkpt>
      <trkpt lat="44.38601" lon="5.9223">
        <ele>594</ele>
        <time>2019-03-16T13:29:29Z</time>
      </trkpt>
      <trkpt lat="44.38603" lon="5.92237">
        <ele>594</ele>
        <time>2019-03-16T13:29:30Z</time>
      </trkpt>
      <trkpt lat="44.38605" lon="5.92244">
        <ele>594</ele>
        <time>2019-03-16T13:29:31Z</time>
      </trkpt>
      <trkpt lat="44.38608" lon="5.92251">
        <ele>594</ele>
        <time>2019-03-16T13:29:32Z</time>
      </trkpt>
      <trkpt lat="44.3861" lon="5.92259">
        <ele>594</ele>
        <time>2019-03-16T13:29:33Z</time>
      </trkpt>
      <trkpt lat="44.38613" lon="5.92266">
        <ele>594</ele>
        <time>2019-03-16T13:29:34Z</time>
      </trkpt>
      <trkpt lat="44.38615" lon="5.92273">
        <ele>594</ele>
        <time>2019-03-16T13:29:35Z</time>
      </trkpt>
      <trkpt lat="44.38618" lon="5.92281">
        <ele>594</ele>
        <time>2019-03-16T13:29:36Z</time>
      </trkpt>
      <trkpt lat="44.38621" lon="5.92287">
        <ele>594</ele>
        <time>2019-03-16T13:29:37Z</time>
      </trkpt>
      <trkpt lat="44.38624" lon="5.92294">
        <ele>594</ele>
        <time>2019-03-16T13:29:38Z</time>
      </trkpt>
      <trkpt lat="44.38627" lon="5.92301">
        <ele>594</ele>
        <time>2019-03-16T13:29:39Z</time>
      </trkpt>
      <trkpt lat="44.38629" lon="5.92308">
        <ele>594</ele>
        <time>2019-03-16T13:29:40Z</time>
      </trkpt>
      <trkpt lat="44.38632" lon="5.92314">
        <ele>594</ele>
        <time>2019-03-16T13:29:41Z</time>
      </trkpt>
      <trkpt lat="44.38635" lon="5.92321">
        <ele>594</ele>
        <time>2019-03-16T13:29:42Z</time>
      </trkpt>
      <trkpt lat="44.38637" lon="5.92328">
        <ele>594</ele>
        <time>2019-03-16T13:29:43Z</time>
      </trkpt>
      <trkpt lat="44.3864" lon="5.92335">
        <ele>594</ele>
        <time>2019-03-16T13:29:44Z</time>
      </trkpt>
      <trkpt lat="44.38642" lon="5.92342">
        <ele>594</ele>
        <time>2019-03-16T13:29:45Z</time>
      </trkpt>
      <trkpt lat="44.38644" lon="5.9235">
        <ele>594</ele>
        <time>2019-03-16T13:29:46Z</time>
      </trkpt>
      <trkpt lat="44.38646" lon="5.92357">
        <ele>594</ele>
        <time>2019-03-16T13:29:47Z</time>
      </trkpt>
      <trkpt lat="44.38648" lon="5.92365">
        <ele>594</ele>
        <time>2019-03-16T13:29:48Z</time>
      </trkpt>
      <trkpt lat="44.3865" lon="5.92372">
        <ele>594</ele>
        <time>2019-03-16T13:29:49Z</time>
      </trkpt>
      <trkpt lat="44.38652" lon="5.9238">
        <ele>594</ele>
        <time>2019-03-16T13:29:50Z</time>
      </trkpt>
      <trkpt lat="44.38654" lon="5.92388">
        <ele>594</ele>
        <time>2019-03-16T13:29:51Z</time>
      </trkpt>
      <trkpt lat="44.38655" lon="5.92396">
        <ele>594</ele>
        <time>2019-03-16T13:29:52Z</time>
      </trkpt>
      <trkpt lat="44.38656" lon="5.92405">
        <ele>594</ele>
        <time>2019-03-16T13:29:53Z</time>
      </trkpt>
      <trkpt lat="44.38657" lon="5.92413">
        <ele>594</ele>
        <time>2019-03-16T13:29:54Z</time>
      </trkpt>
      <trkpt lat="44.38658" lon="5.92422">
        <ele>594</ele>
        <time>2019-03-16T13:29:55Z</time>
      </trkpt>
      <trkpt lat="44.38659" lon="5.92431">
        <ele>594</ele>
        <time>2019-03-16T13:29:56Z</time>
      </trkpt>
      <trkpt lat="44.3866" lon="5.9244">
        <ele>594</ele>
        <time>2019-03-16T13:29:57Z</time>
      </trkpt>
      <trkpt lat="44.3866" lon="5.92449">
        <ele>594</ele>
        <time>2019-03-16T13:29:58Z</time>
      </trkpt>
      <trkpt lat="44.38661" lon="5.92458">
        <ele>594</ele>
        <time>2019-03-16T13:29:59Z</time>
      </trkpt>
      <trkpt lat="44.38662" lon="5.92467">
        <ele>594</ele>
        <time>2019-03-16T13:30:00Z</time>
      </trkpt>
      <trkpt lat="44.38662" lon="5.92477">
        <ele>594</ele>
        <time>2019-03-16T13:30:01Z</time>
      </trkpt>
      <trkpt lat="44.38662" lon="5.92486">
        <ele>594</ele>
        <time>2019-03-16T13:30:02Z</time>
      </trkpt>
      <trkpt lat="44.38662" lon="5.92495">
        <ele>594</ele>
        <time>2019-03-16T13:30:03Z</time>
      </trkpt>
      <trkpt lat="44.38662" lon="5.92504">
        <ele>594</ele>
        <time>2019-03-16T13:30:04Z</time>
      </trkpt>
      <trkpt lat="44.38663" lon="5.92512">
        <ele>594</ele>
        <time>2019-03-16T13:30:05Z</time>
      </trkpt>
      <trkpt lat="44.38663" lon="5.92521">
        <ele>594</ele>
        <time>2019-03-16T13:30:06Z</time>
      </trkpt>
      <trkpt lat="44.38664" lon="5.9253">
        <ele>594</ele>
        <time>2019-03-16T13:30:07Z</time>
      </trkpt>
      <trkpt lat="44.38665" lon="5.92539">
        <ele>594</ele>
        <time>2019-03-16T13:30:08Z</time>
      </trkpt>
      <trkpt lat="44.38666" lon="5.92548">
        <ele>594</ele>
        <time>2019-03-16T13:30:09Z</time>
      </trkpt>
      <trkpt lat="44.38667" lon="5.92557">
        <ele>594</ele>
        <time>2019-03-16T13:30:10Z</time>
      </trkpt>
      <trkpt lat="44.38668" lon="5.92567">
        <ele>594</ele>
        <time>2019-03-16T13:30:11Z</time>
      </trkpt>
      <trkpt lat="44.3867" lon="5.92577">
        <ele>594</ele>
        <time>2019-03-16T13:30:12Z</time>
      </trkpt>
      <trkpt lat="44.38673" lon="5.92587">
        <ele>594</ele>
        <time>2019-03-16T13:30:13Z</time>
      </trkpt>
      <trkpt lat="44.38675" lon="5.92597">
        <ele>594</ele>
        <time>2019-03-16T13:30:14Z</time>
      </trkpt>
      <trkpt lat="44.38678" lon="5.92607">
        <ele>594</ele>
        <time>2019-03-16T13:30:15Z</time>
      </trkpt>
      <trkpt lat="44.3868" lon="5.92617">
        <ele>594</ele>
        <time>2019-03-16T13:30:16Z</time>
      </trkpt>
      <trkpt lat="44.38682" lon="5.92628">
        <ele>594</ele>
        <time>2019-03-16T13:30:17Z</time>
      </trkpt>
      <trkpt lat="44.38684" lon="5.92638">
        <ele>593</ele>
        <time>2019-03-16T13:30:18Z</time>
      </trkpt>
      <trkpt lat="44.38687" lon="5.92648">
        <ele>593</ele>
        <time>2019-03-16T13:30:19Z</time>
      </trkpt>
      <trkpt lat="44.38689" lon="5.92659">
        <ele>593</ele>
        <time>2019-03-16T13:30:20Z</time>
      </trkpt>
      <trkpt lat="44.38691" lon="5.92669">
        <ele>592</ele>
        <time>2019-03-16T13:30:21Z</time>
      </trkpt>
      <trkpt lat="44.38694" lon="5.92679">
        <ele>592</ele>
        <time>2019-03-16T13:30:22Z</time>
      </trkpt>
      <trkpt lat="44.38696" lon="5.9269">
        <ele>592</ele>
        <time>2019-03-16T13:30:23Z</time>
      </trkpt>
      <trkpt lat="44.38697" lon="5.92701">
        <ele>591</ele>
        <time>2019-03-16T13:30:24Z</time>
      </trkpt>
      <trkpt lat="44.38698" lon="5.92712">
        <ele>591</ele>
        <time>2019-03-16T13:30:25Z</time>
      </trkpt>
      <trkpt lat="44.38698" lon="5.92723">
        <ele>591</ele>
        <time>2019-03-16T13:30:26Z</time>
      </trkpt>
      <trkpt lat="44.38697" lon="5.92734">
        <ele>591</ele>
        <time>2019-03-16T13:30:27Z</time>
      </trkpt>
      <trkpt lat="44.38697" lon="5.92744">
        <ele>591</ele>
        <time>2019-03-16T13:30:28Z</time>
      </trkpt>
      <trkpt lat="44.38695" lon="5.92755">
        <ele>590</ele>
        <time>2019-03-16T13:30:29Z</time>
      </trkpt>
      <trkpt lat="44.38693" lon="5.92765">
        <ele>590</ele>
        <time>2019-03-16T13:30:30Z</time>
      </trkpt>
      <trkpt lat="44.38691" lon="5.92775">
        <ele>590</ele>
        <time>2019-03-16T13:30:31Z</time>
      </trkpt>
      <trkpt lat="44.38689" lon="5.92785">
        <ele>590</ele>
        <time>2019-03-16T13:30:32Z</time>
      </trkpt>
      <trkpt lat="44.38687" lon="5.92795">
        <ele>590</ele>
        <time>2019-03-16T13:30:33Z</time>
      </trkpt>
      <trkpt lat="44.38685" lon="5.92805">
        <ele>590</ele>
        <time>2019-03-16T13:30:34Z</time>
      </trkpt>
      <trkpt lat="44.38684" lon="5.92815">
        <ele>590</ele>
        <time>2019-03-16T13:30:35Z</time>
      </trkpt>
      <trkpt lat="44.38684" lon="5.92825">
        <ele>590</ele>
        <time>2019-03-16T13:30:36Z</time>
      </trkpt>
      <trkpt lat="44.38683" lon="5.92834">
        <ele>590</ele>
        <time>2019-03-16T13:30:37Z</time>
      </trkpt>
      <trkpt lat="44.38683" lon="5.92843">
        <ele>590</ele>
        <time>2019-03-16T13:30:38Z</time>
      </trkpt>
      <trkpt lat="44.38684" lon="5.92853">
        <ele>590</ele>
        <time>2019-03-16T13:30:39Z</time>
      </trkpt>
      <trkpt lat="44.38684" lon="5.92863">
        <ele>589</ele>
        <time>2019-03-16T13:30:40Z</time>
      </trkpt>
      <trkpt lat="44.38684" lon="5.92872">
        <ele>589</ele>
        <time>2019-03-16T13:30:41Z</time>
      </trkpt>
      <trkpt lat="44.38684" lon="5.92882">
        <ele>589</ele>
        <time>2019-03-16T13:30:42Z</time>
      </trkpt>
      <trkpt lat="44.38683" lon="5.92892">
        <ele>589</ele>
        <time>2019-03-16T13:30:43Z</time>
      </trkpt>
      <trkpt lat="44.38682" lon="5.92902">
        <ele>589</ele>
        <time>2019-03-16T13:30:44Z</time>
      </trkpt>
      <trkpt lat="44.38681" lon="5.92912">
        <ele>589</ele>
        <time>2019-03-16T13:30:45Z</time>
      </trkpt>
      <trkpt lat="44.38679" lon="5.92922">
        <ele>588</ele>
        <time>2019-03-16T13:30:46Z</time>
      </trkpt>
      <trkpt lat="44.38677" lon="5.92932">
        <ele>588</ele>
        <time>2019-03-16T13:30:47Z</time>
      </trkpt>
      <trkpt lat="44.38675" lon="5.92941">
        <ele>588</ele>
        <time>2019-03-16T13:30:48Z</time>
      </trkpt>
      <trkpt lat="44.38672" lon="5.92951">
        <ele>588</ele>
        <time>2019-03-16T13:30:49Z</time>
      </trkpt>
      <trkpt lat="44.3867" lon="5.9296">
        <ele>588</ele>
        <time>2019-03-16T13:30:50Z</time>
      </trkpt>
      <trkpt lat="44.38668" lon="5.9297">
        <ele>588</ele>
        <time>2019-03-16T13:30:51Z</time>
      </trkpt>
      <trkpt lat="44.38667" lon="5.92979">
        <ele>588</ele>
        <time>2019-03-16T13:30:52Z</time>
      </trkpt>
      <trkpt lat="44.38665" lon="5.92989">
        <ele>588</ele>
        <time>2019-03-16T13:30:53Z</time>
      </trkpt>
      <trkpt lat="44.38665" lon="5.92999">
        <ele>588</ele>
        <time>2019-03-16T13:30:54Z</time>
      </trkpt>
      <trkpt lat="44.38665" lon="5.93009">
        <ele>588</ele>
        <time>2019-03-16T13:30:55Z</time>
      </trkpt>
      <trkpt lat="44.38665" lon="5.93018">
        <ele>588</ele>
        <time>2019-03-16T13:30:56Z</time>
      </trkpt>
      <trkpt lat="44.38666" lon="5.93028">
        <ele>587</ele>
        <time>2019-03-16T13:30:57Z</time>
      </trkpt>
      <trkpt lat="44.38667" lon="5.93037">
        <ele>587</ele>
        <time>2019-03-16T13:30:58Z</time>
      </trkpt>
      <trkpt lat="44.38669" lon="5.93047">
        <ele>587</ele>
        <time>2019-03-16T13:30:59Z</time>
      </trkpt>
      <trkpt lat="44.3867" lon="5.93057">
        <ele>587</ele>
        <time>2019-03-16T13:31:00Z</time>
      </trkpt>
      <trkpt lat="44.38672" lon="5.93067">
        <ele>587</ele>
        <time>2019-03-16T13:31:01Z</time>
      </trkpt>
      <trkpt lat="44.38674" lon="5.93076">
        <ele>587</ele>
        <time>2019-03-16T13:31:02Z</time>
      </trkpt>
      <trkpt lat="44.38676" lon="5.93086">
        <ele>587</ele>
        <time>2019-03-16T13:31:03Z</time>
      </trkpt>
      <trkpt lat="44.38677" lon="5.93096">
        <ele>587</ele>
        <time>2019-03-16T13:31:04Z</time>
      </trkpt>
      <trkpt lat="44.38679" lon="5.93106">
        <ele>587</ele>
        <time>2019-03-16T13:31:05Z</time>
      </trkpt>
      <trkpt lat="44.38681" lon="5.93116">
        <ele>587</ele>
        <time>2019-03-16T13:31:06Z</time>
      </trkpt>
      <trkpt lat="44.38682" lon="5.93125">
        <ele>587</ele>
        <time>2019-03-16T13:31:07Z</time>
      </trkpt>
      <trkpt lat="44.38684" lon="5.93135">
        <ele>587</ele>
        <time>2019-03-16T13:31:08Z</time>
      </trkpt>
      <trkpt lat="44.38686" lon="5.93145">
        <ele>587</ele>
        <time>2019-03-16T13:31:09Z</time>
      </trkpt>
      <trkpt lat="44.38688" lon="5.93155">
        <ele>587</ele>
        <time>2019-03-16T13:31:10Z</time>
      </trkpt>
      <trkpt lat="44.3869" lon="5.93164">
        <ele>587</ele>
        <time>2019-03-16T13:31:11Z</time>
      </trkpt>
      <trkpt lat="44.38692" lon="5.93174">
        <ele>587</ele>
        <time>2019-03-16T13:31:12Z</time>
      </trkpt>
      <trkpt lat="44.38695" lon="5.93184">
        <ele>586</ele>
        <time>2019-03-16T13:31:13Z</time>
      </trkpt>
      <trkpt lat="44.38697" lon="5.93194">
        <ele>586</ele>
        <time>2019-03-16T13:31:14Z</time>
      </trkpt>
      <trkpt lat="44.387" lon="5.93203">
        <ele>586</ele>
        <time>2019-03-16T13:31:15Z</time>
      </trkpt>
      <trkpt lat="44.38703" lon="5.93213">
        <ele>586</ele>
        <time>2019-03-16T13:31:16Z</time>
      </trkpt>
      <trkpt lat="44.38705" lon="5.93223">
        <ele>585</ele>
        <time>2019-03-16T13:31:17Z</time>
      </trkpt>
      <trkpt lat="44.38708" lon="5.93233">
        <ele>585</ele>
        <time>2019-03-16T13:31:18Z</time>
      </trkpt>
      <trkpt lat="44.38711" lon="5.93243">
        <ele>585</ele>
        <time>2019-03-16T13:31:19Z</time>
      </trkpt>
      <trkpt lat="44.38714" lon="5.93253">
        <ele>584</ele>
        <time>2019-03-16T13:31:20Z</time>
      </trkpt>
      <trkpt lat="44.38716" lon="5.93263">
        <ele>584</ele>
        <time>2019-03-16T13:31:21Z</time>
      </trkpt>
      <trkpt lat="44.38719" lon="5.93273">
        <ele>584</ele>
        <time>2019-03-16T13:31:22Z</time>
      </trkpt>
      <trkpt lat="44.38721" lon="5.93284">
        <ele>583</ele>
        <time>2019-03-16T13:31:23Z</time>
      </trkpt>
      <trkpt lat="44.38722" lon="5.93295">
        <ele>583</ele>
        <time>2019-03-16T13:31:24Z</time>
      </trkpt>
      <trkpt lat="44.38723" lon="5.93307">
        <ele>583</ele>
        <time>2019-03-16T13:31:25Z</time>
      </trkpt>
      <trkpt lat="44.38724" lon="5.93318">
        <ele>583</ele>
        <time>2019-03-16T13:31:26Z</time>
      </trkpt>
      <trkpt lat="44.38724" lon="5.93329">
        <ele>583</ele>
        <time>2019-03-16T13:31:27Z</time>
      </trkpt>
      <trkpt lat="44.38724" lon="5.9334">
        <ele>583</ele>
        <time>2019-03-16T13:31:28Z</time>
      </trkpt>
      <trkpt lat="44.38724" lon="5.93351">
        <ele>583</ele>
        <time>2019-03-16T13:31:29Z</time>
      </trkpt>
      <trkpt lat="44.38723" lon="5.93362">
        <ele>582</ele>
        <time>2019-03-16T13:31:30Z</time>
      </trkpt>
      <trkpt lat="44.38723" lon="5.93373">
        <ele>582</ele>
        <time>2019-03-16T13:31:31Z</time>
      </trkpt>
      <trkpt lat="44.38722" lon="5.93384">
        <ele>582</ele>
        <time>2019-03-16T13:31:32Z</time>
      </trkpt>
      <trkpt lat="44.38721" lon="5.93395">
        <ele>582</ele>
        <time>2019-03-16T13:31:33Z</time>
      </trkpt>
      <trkpt lat="44.3872" lon="5.93406">
        <ele>581</ele>
        <time>2019-03-16T13:31:34Z</time>
      </trkpt>
      <trkpt lat="44.3872" lon="5.93418">
        <ele>581</ele>
        <time>2019-03-16T13:31:35Z</time>
      </trkpt>
      <trkpt lat="44.38718" lon="5.93429">
        <ele>581</ele>
        <time>2019-03-16T13:31:36Z</time>
      </trkpt>
      <trkpt lat="44.38718" lon="5.9344">
        <ele>581</ele>
        <time>2019-03-16T13:31:37Z</time>
      </trkpt>
      <trkpt lat="44.38717" lon="5.93451">
        <ele>580</ele>
        <time>2019-03-16T13:31:38Z</time>
      </trkpt>
      <trkpt lat="44.38716" lon="5.93463">
        <ele>580</ele>
        <time>2019-03-16T13:31:39Z</time>
      </trkpt>
      <trkpt lat="44.38715" lon="5.93475">
        <ele>579</ele>
        <time>2019-03-16T13:31:40Z</time>
      </trkpt>
      <trkpt lat="44.38715" lon="5.93486">
        <ele>579</ele>
        <time>2019-03-16T13:31:41Z</time>
      </trkpt>
      <trkpt lat="44.38714" lon="5.93498">
        <ele>578</ele>
        <time>2019-03-16T13:31:42Z</time>
      </trkpt>
      <trkpt lat="44.38713" lon="5.9351">
        <ele>578</ele>
        <time>2019-03-16T13:31:43Z</time>
      </trkpt>
      <trkpt lat="44.38713" lon="5.93522">
        <ele>577</ele>
        <time>2019-03-16T13:31:44Z</time>
      </trkpt>
      <trkpt lat="44.38712" lon="5.93533">
        <ele>577</ele>
        <time>2019-03-16T13:31:45Z</time>
      </trkpt>
      <trkpt lat="44.38712" lon="5.93544">
        <ele>576</ele>
        <time>2019-03-16T13:31:46Z</time>
      </trkpt>
      <trkpt lat="44.3871" lon="5.93555">
        <ele>576</ele>
        <time>2019-03-16T13:31:47Z</time>
      </trkpt>
      <trkpt lat="44.3871" lon="5.93567">
        <ele>575</ele>
        <time>2019-03-16T13:31:48Z</time>
      </trkpt>
      <trkpt lat="44.38709" lon="5.93578">
        <ele>575</ele>
        <time>2019-03-16T13:31:49Z</time>
      </trkpt>
      <trkpt lat="44.38709" lon="5.9359">
        <ele>575</ele>
        <time>2019-03-16T13:31:50Z</time>
      </trkpt>
      <trkpt lat="44.38708" lon="5.93601">
        <ele>574</ele>
        <time>2019-03-16T13:31:51Z</time>
      </trkpt>
      <trkpt lat="44.38708" lon="5.93613">
        <ele>574</ele>
        <time>2019-03-16T13:31:52Z</time>
      </trkpt>
      <trkpt lat="44.38707" lon="5.93624">
        <ele>574</ele>
        <time>2019-03-16T13:31:53Z</time>
      </trkpt>
      <trkpt lat="44.38707" lon="5.93635">
        <ele>574</ele>
        <time>2019-03-16T13:31:54Z</time>
      </trkpt>
      <trkpt lat="44.38706" lon="5.93646">
        <ele>574</ele>
        <time>2019-03-16T13:31:55Z</time>
      </trkpt>
      <trkpt lat="44.38705" lon="5.93656">
        <ele>573</ele>
        <time>2019-03-16T13:31:56Z</time>
      </trkpt>
      <trkpt lat="44.38705" lon="5.93667">
        <ele>573</ele>
        <time>2019-03-16T13:31:57Z</time>
      </trkpt>
      <trkpt lat="44.38704" lon="5.93678">
        <ele>573</ele>
        <time>2019-03-16T13:31:58Z</time>
      </trkpt>
      <trkpt lat="44.38703" lon="5.93688">
        <ele>573</ele>
        <time>2019-03-16T13:31:59Z</time>
      </trkpt>
      <trkpt lat="44.38703" lon="5.93698">
        <ele>573</ele>
        <time>2019-03-16T13:32:00Z</time>
      </trkpt>
      <trkpt lat="44.38702" lon="5.93708">
        <ele>573</ele>
        <time>2019-03-16T13:32:01Z</time>
      </trkpt>
      <trkpt lat="44.38702" lon="5.93717">
        <ele>573</ele>
        <time>2019-03-16T13:32:02Z</time>
      </trkpt>
      <trkpt lat="44.38701" lon="5.93726">
        <ele>573</ele>
        <time>2019-03-16T13:32:03Z</time>
      </trkpt>
      <trkpt lat="44.387" lon="5.93736">
        <ele>572</ele>
        <time>2019-03-16T13:32:04Z</time>
      </trkpt>
      <trkpt lat="44.387" lon="5.93745">
        <ele>572</ele>
        <time>2019-03-16T13:32:05Z</time>
      </trkpt>
      <trkpt lat="44.38699" lon="5.93754">
        <ele>572</ele>
        <time>2019-03-16T13:32:06Z</time>
      </trkpt>
      <trkpt lat="44.38699" lon="5.93763">
        <ele>572</ele>
        <time>2019-03-16T13:32:07Z</time>
      </trkpt>
      <trkpt lat="44.38698" lon="5.93773">
        <ele>571</ele>
        <time>2019-03-16T13:32:08Z</time>
      </trkpt>
      <trkpt lat="44.38698" lon="5.93783">
        <ele>571</ele>
        <time>2019-03-16T13:32:09Z</time>
      </trkpt>
      <trkpt lat="44.38697" lon="5.93792">
        <ele>571</ele>
        <time>2019-03-16T13:32:10Z</time>
      </trkpt>
      <trkpt lat="44.38697" lon="5.93803">
        <ele>570</ele>
        <time>2019-03-16T13:32:11Z</time>
      </trkpt>
      <trkpt lat="44.38696" lon="5.93813">
        <ele>570</ele>
        <time>2019-03-16T13:32:12Z</time>
      </trkpt>
      <trkpt lat="44.38696" lon="5.93824">
        <ele>569</ele>
        <time>2019-03-16T13:32:13Z</time>
      </trkpt>
      <trkpt lat="44.38695" lon="5.93835">
        <ele>569</ele>
        <time>2019-03-16T13:32:14Z</time>
      </trkpt>
      <trkpt lat="44.38694" lon="5.93845">
        <ele>568</ele>
        <time>2019-03-16T13:32:15Z</time>
      </trkpt>
      <trkpt lat="44.38694" lon="5.93855">
        <ele>568</ele>
        <time>2019-03-16T13:32:16Z</time>
      </trkpt>
      <trkpt lat="44.38694" lon="5.93864">
        <ele>567</ele>
        <time>2019-03-16T13:32:17Z</time>
      </trkpt>
      <trkpt lat="44.38693" lon="5.93874">
        <ele>567</ele>
        <time>2019-03-16T13:32:18Z</time>
      </trkpt>
      <trkpt lat="44.38691" lon="5.93883">
        <ele>567</ele>
        <time>2019-03-16T13:32:19Z</time>
      </trkpt>
      <trkpt lat="44.38688" lon="5.93892">
        <ele>566</ele>
        <time>2019-03-16T13:32:20Z</time>
      </trkpt>
      <trkpt lat="44.38684" lon="5.939">
        <ele>566</ele>
        <time>2019-03-16T13:32:21Z</time>
      </trkpt>
      <trkpt lat="44.38678" lon="5.93906">
        <ele>566</ele>
        <time>2019-03-16T13:32:22Z</time>
      </trkpt>
      <trkpt lat="44.38672" lon="5.9391">
        <ele>565</ele>
        <time>2019-03-16T13:32:23Z</time>
      </trkpt>
      <trkpt lat="44.38664" lon="5.93913">
        <ele>565</ele>
        <time>2019-03-16T13:32:24Z</time>
      </trkpt>
      <trkpt lat="44.38655" lon="5.93914">
        <ele>565</ele>
        <time>2019-03-16T13:32:25Z</time>
      </trkpt>
      <trkpt lat="44.38647" lon="5.93915">
        <ele>564</ele>
        <time>2019-03-16T13:32:26Z</time>
      </trkpt>
      <trkpt lat="44.38638" lon="5.93917">
        <ele>564</ele>
        <time>2019-03-16T13:32:27Z</time>
      </trkpt>
      <trkpt lat="44.38629" lon="5.93919">
        <ele>564</ele>
        <time>2019-03-16T13:32:28Z</time>
      </trkpt>
      <trkpt lat="44.3862" lon="5.9392">
        <ele>563</ele>
        <time>2019-03-16T13:32:29Z</time>
      </trkpt>
      <trkpt lat="44.38611" lon="5.93921">
        <ele>563</ele>
        <time>2019-03-16T13:32:30Z</time>
      </trkpt>
      <trkpt lat="44.38601" lon="5.93922">
        <ele>563</ele>
        <time>2019-03-16T13:32:31Z</time>
      </trkpt>
      <trkpt lat="44.38591" lon="5.93924">
        <ele>563</ele>
        <time>2019-03-16T13:32:32Z</time>
      </trkpt>
      <trkpt lat="44.38581" lon="5.93925">
        <ele>562</ele>
        <time>2019-03-16T13:32:33Z</time>
      </trkpt>
      <trkpt lat="44.38571" lon="5.93927">
        <ele>562</ele>
        <time>2019-03-16T13:32:34Z</time>
      </trkpt>
      <trkpt lat="44.38562" lon="5.93929">
        <ele>561</ele>
        <time>2019-03-16T13:32:35Z</time>
      </trkpt>
      <trkpt lat="44.38552" lon="5.93931">
        <ele>561</ele>
        <time>2019-03-16T13:32:36Z</time>
      </trkpt>
      <trkpt lat="44.38544" lon="5.93933">
        <ele>560</ele>
        <time>2019-03-16T13:32:37Z</time>
      </trkpt>
      <trkpt lat="44.38536" lon="5.93934">
        <ele>560</ele>
        <time>2019-03-16T13:32:38Z</time>
      </trkpt>
      <trkpt lat="44.38528" lon="5.93936">
        <ele>559</ele>
        <time>2019-03-16T13:32:39Z</time>
      </trkpt>
      <trkpt lat="44.3852" lon="5.93938">
        <ele>559</ele>
        <time>2019-03-16T13:32:40Z</time>
      </trkpt>
      <trkpt lat="44.38514" lon="5.93942">
        <ele>558</ele>
        <time>2019-03-16T13:32:41Z</time>
      </trkpt>
      <trkpt lat="44.38508" lon="5.93947">
        <ele>558</ele>
        <time>2019-03-16T13:32:42Z</time>
      </trkpt>
      <trkpt lat="44.38503" lon="5.93955">
        <ele>557</ele>
        <time>2019-03-16T13:32:43Z</time>
      </trkpt>
      <trkpt lat="44.38501" lon="5.93963">
        <ele>557</ele>
        <time>2019-03-16T13:32:44Z</time>
      </trkpt>
      <trkpt lat="44.385" lon="5.93973">
        <ele>556</ele>
        <time>2019-03-16T13:32:45Z</time>
      </trkpt>
      <trkpt lat="44.385" lon="5.93982">
        <ele>556</ele>
        <time>2019-03-16T13:32:46Z</time>
      </trkpt>
      <trkpt lat="44.38501" lon="5.93991">
        <ele>556</ele>
        <time>2019-03-16T13:32:47Z</time>
      </trkpt>
      <trkpt lat="44.38502" lon="5.93999">
        <ele>556</ele>
        <time>2019-03-16T13:32:48Z</time>
      </trkpt>
      <trkpt lat="44.38503" lon="5.94008">
        <ele>556</ele>
        <time>2019-03-16T13:32:49Z</time>
      </trkpt>
      <trkpt lat="44.38504" lon="5.94017">
        <ele>556</ele>
        <time>2019-03-16T13:32:50Z</time>
      </trkpt>
      <trkpt lat="44.38505" lon="5.94026">
        <ele>556</ele>
        <time>2019-03-16T13:32:51Z</time>
      </trkpt>
      <trkpt lat="44.38506" lon="5.94034">
        <ele>556</ele>
        <time>2019-03-16T13:32:52Z</time>
      </trkpt>
      <trkpt lat="44.38507" lon="5.94042">
        <ele>556</ele>
        <time>2019-03-16T13:32:53Z</time>
      </trkpt>
      <trkpt lat="44.38507" lon="5.9405">
        <ele>556</ele>
        <time>2019-03-16T13:32:54Z</time>
      </trkpt>
      <trkpt lat="44.38507" lon="5.94057">
        <ele>555</ele>
        <time>2019-03-16T13:32:55Z</time>
      </trkpt>
      <trkpt lat="44.38507" lon="5.94065">
        <ele>555</ele>
        <time>2019-03-16T13:32:56Z</time>
      </trkpt>
      <trkpt lat="44.38507" lon="5.94072">
        <ele>555</ele>
        <time>2019-03-16T13:32:57Z</time>
      </trkpt>
      <trkpt lat="44.38506" lon="5.9408">
        <ele>555</ele>
        <time>2019-03-16T13:32:58Z</time>
      </trkpt>
      <trkpt lat="44.38506" lon="5.94087">
        <ele>555</ele>
        <time>2019-03-16T13:32:59Z</time>
      </trkpt>
      <trkpt lat="44.38506" lon="5.94095">
        <ele>555</ele>
        <time>2019-03-16T13:33:00Z</time>
      </trkpt>
      <trkpt lat="44.38506" lon="5.94102">
        <ele>555</ele>
        <time>2019-03-16T13:33:01Z</time>
      </trkpt>
      <trkpt lat="44.38505" lon="5.94109">
        <ele>555</ele>
        <time>2019-03-16T13:33:02Z</time>
      </trkpt>
      <trkpt lat="44.38504" lon="5.94117">
        <ele>555</ele>
        <time>2019-03-16T13:33:03Z</time>
      </trkpt>
      <trkpt lat="44.38504" lon="5.94124">
        <ele>555</ele>
        <time>2019-03-16T13:33:04Z</time>
      </trkpt>
      <trkpt lat="44.38502" lon="5.94133">
        <ele>555</ele>
        <time>2019-03-16T13:33:05Z</time>
      </trkpt>
      <trkpt lat="44.38501" lon="5.9414">
        <ele>555</ele>
        <time>2019-03-16T13:33:06Z</time>
      </trkpt>
      <trkpt lat="44.385" lon="5.94147">
        <ele>555</ele>
        <time>2019-03-16T13:33:07Z</time>
      </trkpt>
      <trkpt lat="44.38499" lon="5.94155">
        <ele>555</ele>
        <time>2019-03-16T13:33:08Z</time>
      </trkpt>
      <trkpt lat="44.38497" lon="5.94162">
        <ele>555</ele>
        <time>2019-03-16T13:33:09Z</time>
      </trkpt>
      <trkpt lat="44.38496" lon="5.94169">
        <ele>555</ele>
        <time>2019-03-16T13:33:10Z</time>
      </trkpt>
      <trkpt lat="44.38495" lon="5.94175">
        <ele>555</ele>
        <time>2019-03-16T13:33:11Z</time>
      </trkpt>
      <trkpt lat="44.38494" lon="5.94182">
        <ele>555</ele>
        <time>2019-03-16T13:33:12Z</time>
      </trkpt>
      <trkpt lat="44.38493" lon="5.94189">
        <ele>555</ele>
        <time>2019-03-16T13:33:13Z</time>
      </trkpt>
      <trkpt lat="44.38491" lon="5.94195">
        <ele>555</ele>
        <time>2019-03-16T13:33:14Z</time>
      </trkpt>
      <trkpt lat="44.3849" lon="5.94202">
        <ele>555</ele>
        <time>2019-03-16T13:33:15Z</time>
      </trkpt>
      <trkpt lat="44.38489" lon="5.94207">
        <ele>554</ele>
        <time>2019-03-16T13:33:16Z</time>
      </trkpt>
      <trkpt lat="44.38489" lon="5.94213">
        <ele>554</ele>
        <time>2019-03-16T13:33:17Z</time>
      </trkpt>
      <trkpt lat="44.38488" lon="5.9422">
        <ele>554</ele>
        <time>2019-03-16T13:33:18Z</time>
      </trkpt>
      <trkpt lat="44.38489" lon="5.94226">
        <ele>554</ele>
        <time>2019-03-16T13:33:19Z</time>
      </trkpt>
      <trkpt lat="44.38489" lon="5.94231">
        <ele>554</ele>
        <time>2019-03-16T13:33:20Z</time>
      </trkpt>
      <trkpt lat="44.38489" lon="5.94237">
        <ele>554</ele>
        <time>2019-03-16T13:33:21Z</time>
      </trkpt>
      <trkpt lat="44.3849" lon="5.94242">
        <ele>554</ele>
        <time>2019-03-16T13:33:22Z</time>
      </trkpt>
      <trkpt lat="44.3849" lon="5.94249">
        <ele>553</ele>
        <time>2019-03-16T13:33:23Z</time>
      </trkpt>
      <trkpt lat="44.38489" lon="5.94256">
        <ele>553</ele>
        <time>2019-03-16T13:33:24Z</time>
      </trkpt>
      <trkpt lat="44.38486" lon="5.94262">
        <ele>552</ele>
        <time>2019-03-16T13:33:25Z</time>
      </trkpt>
      <trkpt lat="44.38483" lon="5.94268">
        <ele>551</ele>
        <time>2019-03-16T13:33:26Z</time>
      </trkpt>
      <trkpt lat="44.38477" lon="5.94272">
        <ele>551</ele>
        <time>2019-03-16T13:33:27Z</time>
      </trkpt>
      <trkpt lat="44.38471" lon="5.94275">
        <ele>550</ele>
        <time>2019-03-16T13:33:28Z</time>
      </trkpt>
      <trkpt lat="44.38464" lon="5.94276">
        <ele>550</ele>
        <time>2019-03-16T13:33:29Z</time>
      </trkpt>
      <trkpt lat="44.38458" lon="5.94275">
        <ele>550</ele>
        <time>2019-03-16T13:33:30Z</time>
      </trkpt>
      <trkpt lat="44.38451" lon="5.94272">
        <ele>549</ele>
        <time>2019-03-16T13:33:31Z</time>
      </trkpt>
      <trkpt lat="44.38444" lon="5.94268">
        <ele>549</ele>
        <time>2019-03-16T13:33:32Z</time>
      </trkpt>
      <trkpt lat="44.38437" lon="5.94264">
        <ele>549</ele>
        <time>2019-03-16T13:33:33Z</time>
      </trkpt>
      <trkpt lat="44.3843" lon="5.9426">
        <ele>548</ele>
        <time>2019-03-16T13:33:34Z</time>
      </trkpt>
      <trkpt lat="44.38422" lon="5.94255">
        <ele>548</ele>
        <time>2019-03-16T13:33:35Z</time>
      </trkpt>
      <trkpt lat="44.38415" lon="5.9425">
        <ele>548</ele>
        <time>2019-03-16T13:33:36Z</time>
      </trkpt>
      <trkpt lat="44.38407" lon="5.94245">
        <ele>548</ele>
        <time>2019-03-16T13:33:37Z</time>
      </trkpt>
      <trkpt lat="44.38399" lon="5.9424">
        <ele>548</ele>
        <time>2019-03-16T13:33:38Z</time>
      </trkpt>
      <trkpt lat="44.38392" lon="5.94234">
        <ele>548</ele>
        <time>2019-03-16T13:33:39Z</time>
      </trkpt>
      <trkpt lat="44.38385" lon="5.94226">
        <ele>547</ele>
        <time>2019-03-16T13:33:40Z</time>
      </trkpt>
      <trkpt lat="44.38379" lon="5.94217">
        <ele>547</ele>
        <time>2019-03-16T13:33:41Z</time>
      </trkpt>
      <trkpt lat="44.38374" lon="5.94207">
        <ele>547</ele>
        <time>2019-03-16T13:33:42Z</time>
      </trkpt>
      <trkpt lat="44.3837" lon="5.94197">
        <ele>547</ele>
        <time>2019-03-16T13:33:43Z</time>
      </trkpt>
      <trkpt lat="44.38367" lon="5.94186">
        <ele>546</ele>
        <time>2019-03-16T13:33:44Z</time>
      </trkpt>
      <trkpt lat="44.38363" lon="5.94176">
        <ele>546</ele>
        <time>2019-03-16T13:33:45Z</time>
      </trkpt>
      <trkpt lat="44.38359" lon="5.94166">
        <ele>545</ele>
        <time>2019-03-16T13:33:46Z</time>
      </trkpt>
      <trkpt lat="44.38353" lon="5.94158">
        <ele>545</ele>
        <time>2019-03-16T13:33:47Z</time>
      </trkpt>
      <trkpt lat="44.38347" lon="5.9415">
        <ele>544</ele>
        <time>2019-03-16T13:33:48Z</time>
      </trkpt>
      <trkpt lat="44.3834" lon="5.94144">
        <ele>544</ele>
        <time>2019-03-16T13:33:49Z</time>
      </trkpt>
      <trkpt lat="44.38333" lon="5.9414">
        <ele>544</ele>
        <time>2019-03-16T13:33:50Z</time>
      </trkpt>
      <trkpt lat="44.38326" lon="5.94138">
        <ele>544</ele>
        <time>2019-03-16T13:33:51Z</time>
      </trkpt>
      <trkpt lat="44.38319" lon="5.94139">
        <ele>543</ele>
        <time>2019-03-16T13:33:52Z</time>
      </trkpt>
      <trkpt lat="44.38313" lon="5.94145">
        <ele>543</ele>
        <time>2019-03-16T13:33:53Z</time>
      </trkpt>
      <trkpt lat="44.38307" lon="5.94152">
        <ele>542</ele>
        <time>2019-03-16T13:33:54Z</time>
      </trkpt>
      <trkpt lat="44.38301" lon="5.9416">
        <ele>542</ele>
        <time>2019-03-16T13:33:55Z</time>
      </trkpt>
      <trkpt lat="44.38296" lon="5.9417">
        <ele>541</ele>
        <time>2019-03-16T13:33:56Z</time>
      </trkpt>
      <trkpt lat="44.38291" lon="5.94179">
        <ele>540</ele>
        <time>2019-03-16T13:33:57Z</time>
      </trkpt>
      <trkpt lat="44.38287" lon="5.94189">
        <ele>540</ele>
        <time>2019-03-16T13:33:58Z</time>
      </trkpt>
      <trkpt lat="44.38282" lon="5.94199">
        <ele>540</ele>
        <time>2019-03-16T13:33:59Z</time>
      </trkpt>
      <trkpt lat="44.38278" lon="5.94208">
        <ele>540</ele>
        <time>2019-03-16T13:34:00Z</time>
      </trkpt>
      <trkpt lat="44.38273" lon="5.94217">
        <ele>540</ele>
        <time>2019-03-16T13:34:01Z</time>
      </trkpt>
      <trkpt lat="44.38269" lon="5.94226">
        <ele>540</ele>
        <time>2019-03-16T13:34:02Z</time>
      </trkpt>
      <trkpt lat="44.38264" lon="5.94235">
        <ele>540</ele>
        <time>2019-03-16T13:34:03Z</time>
      </trkpt>
      <trkpt lat="44.3826" lon="5.94244">
        <ele>540</ele>
        <time>2019-03-16T13:34:04Z</time>
      </trkpt>
      <trkpt lat="44.38256" lon="5.94253">
        <ele>539</ele>
        <time>2019-03-16T13:34:05Z</time>
      </trkpt>
      <trkpt lat="44.38252" lon="5.94263">
        <ele>539</ele>
        <time>2019-03-16T13:34:06Z</time>
      </trkpt>
      <trkpt lat="44.38248" lon="5.94271">
        <ele>539</ele>
        <time>2019-03-16T13:34:07Z</time>
      </trkpt>
      <trkpt lat="44.38243" lon="5.9428">
        <ele>539</ele>
        <time>2019-03-16T13:34:08Z</time>
      </trkpt>
      <trkpt lat="44.38239" lon="5.9429">
        <ele>539</ele>
        <time>2019-03-16T13:34:09Z</time>
      </trkpt>
      <trkpt lat="44.38234" lon="5.94299">
        <ele>539</ele>
        <time>2019-03-16T13:34:10Z</time>
      </trkpt>
      <trkpt lat="44.3823" lon="5.94307">
        <ele>539</ele>
        <time>2019-03-16T13:34:11Z</time>
      </trkpt>
      <trkpt lat="44.38224" lon="5.94316">
        <ele>538</ele>
        <time>2019-03-16T13:34:12Z</time>
      </trkpt>
      <trkpt lat="44.38219" lon="5.94324">
        <ele>538</ele>
        <time>2019-03-16T13:34:13Z</time>
      </trkpt>
      <trkpt lat="44.38213" lon="5.94331">
        <ele>538</ele>
        <time>2019-03-16T13:34:14Z</time>
      </trkpt>
      <trkpt lat="44.38207" lon="5.94338">
        <ele>538</ele>
        <time>2019-03-16T13:34:15Z</time>
      </trkpt>
      <trkpt lat="44.38201" lon="5.94345">
        <ele>538</ele>
        <time>2019-03-16T13:34:16Z</time>
      </trkpt>
      <trkpt lat="44.38195" lon="5.94351">
        <ele>538</ele>
        <time>2019-03-16T13:34:17Z</time>
      </trkpt>
      <trkpt lat="44.38188" lon="5.94358">
        <ele>538</ele>
        <time>2019-03-16T13:34:18Z</time>
      </trkpt>
      <trkpt lat="44.38182" lon="5.94364">
        <ele>538</ele>
        <time>2019-03-16T13:34:19Z</time>
      </trkpt>
      <trkpt lat="44.38176" lon="5.94371">
        <ele>538</ele>
        <time>2019-03-16T13:34:20Z</time>
      </trkpt>
      <trkpt lat="44.38169" lon="5.94377">
        <ele>538</ele>
        <time>2019-03-16T13:34:21Z</time>
      </trkpt>
      <trkpt lat="44.38163" lon="5.94383">
        <ele>538</ele>
        <time>2019-03-16T13:34:22Z</time>
      </trkpt>
      <trkpt lat="44.38157" lon="5.9439">
        <ele>538</ele>
        <time>2019-03-16T13:34:23Z</time>
      </trkpt>
      <trkpt lat="44.3815" lon="5.94396">
        <ele>538</ele>
        <time>2019-03-16T13:34:24Z</time>
      </trkpt>
      <trkpt lat="44.38144" lon="5.94402">
        <ele>538</ele>
        <time>2019-03-16T13:34:25Z</time>
      </trkpt>
      <trkpt lat="44.38137" lon="5.94407">
        <ele>538</ele>
        <time>2019-03-16T13:34:26Z</time>
      </trkpt>
      <trkpt lat="44.38131" lon="5.94412">
        <ele>538</ele>
        <time>2019-03-16T13:34:27Z</time>
      </trkpt>
      <trkpt lat="44.38124" lon="5.94415">
        <ele>538</ele>
        <time>2019-03-16T13:34:28Z</time>
      </trkpt>
      <trkpt lat="44.38117" lon="5.94418">
        <ele>538</ele>
        <time>2019-03-16T13:34:29Z</time>
      </trkpt>
      <trkpt lat="44.3811" lon="5.9442">
        <ele>538</ele>
        <time>2019-03-16T13:34:30Z</time>
      </trkpt>
      <trkpt lat="44.38103" lon="5.94422">
        <ele>538</ele>
        <time>2019-03-16T13:34:31Z</time>
      </trkpt>
      <trkpt lat="44.38097" lon="5.94425">
        <ele>538</ele>
        <time>2019-03-16T13:34:32Z</time>
      </trkpt>
      <trkpt lat="44.3809" lon="5.94429">
        <ele>538</ele>
        <time>2019-03-16T13:34:33Z</time>
      </trkpt>
      <trkpt lat="44.38084" lon="5.94433">
        <ele>538</ele>
        <time>2019-03-16T13:34:34Z</time>
      </trkpt>
      <trkpt lat="44.38078" lon="5.94439">
        <ele>538</ele>
        <time>2019-03-16T13:34:35Z</time>
      </trkpt>
      <trkpt lat="44.38073" lon="5.94446">
        <ele>538</ele>
        <time>2019-03-16T13:34:36Z</time>
      </trkpt>
      <trkpt lat="44.38069" lon="5.94455">
        <ele>538</ele>
        <time>2019-03-16T13:34:37Z</time>
      </trkpt>
      <trkpt lat="44.38065" lon="5.94464">
        <ele>538</ele>
        <time>2019-03-16T13:34:38Z</time>
      </trkpt>
      <trkpt lat="44.38062" lon="5.94474">
        <ele>538</ele>
        <time>2019-03-16T13:34:39Z</time>
      </trkpt>
      <trkpt lat="44.3806" lon="5.94485">
        <ele>538</ele>
        <time>2019-03-16T13:34:40Z</time>
      </trkpt>
      <trkpt lat="44.38057" lon="5.94494">
        <ele>538</ele>
        <time>2019-03-16T13:34:41Z</time>
      </trkpt>
      <trkpt lat="44.38054" lon="5.94504">
        <ele>538</ele>
        <time>2019-03-16T13:34:42Z</time>
      </trkpt>
      <trkpt lat="44.38052" lon="5.94514">
        <ele>538</ele>
        <time>2019-03-16T13:34:43Z</time>
      </trkpt>
      <trkpt lat="44.38049" lon="5.94523">
        <ele>538</ele>
        <time>2019-03-16T13:34:44Z</time>
      </trkpt>
      <trkpt lat="44.38047" lon="5.94532">
        <ele>538</ele>
        <time>2019-03-16T13:34:45Z</time>
      </trkpt>
      <trkpt lat="44.38044" lon="5.94541">
        <ele>538</ele>
        <time>2019-03-16T13:34:46Z</time>
      </trkpt>
      <trkpt lat="44.38042" lon="5.9455">
        <ele>538</ele>
        <time>2019-03-16T13:34:47Z</time>
      </trkpt>
      <trkpt lat="44.38039" lon="5.94559">
        <ele>538</ele>
        <time>2019-03-16T13:34:48Z</time>
      </trkpt>
      <trkpt lat="44.38037" lon="5.94567">
        <ele>538</ele>
        <time>2019-03-16T13:34:49Z</time>
      </trkpt>
      <trkpt lat="44.38035" lon="5.94576">
        <ele>538</ele>
        <time>2019-03-16T13:34:50Z</time>
      </trkpt>
      <trkpt lat="44.38032" lon="5.94585">
        <ele>538</ele>
        <time>2019-03-16T13:34:51Z</time>
      </trkpt>
      <trkpt lat="44.3803" lon="5.94594">
        <ele>538</ele>
        <time>2019-03-16T13:34:52Z</time>
      </trkpt>
      <trkpt lat="44.38028" lon="5.94603">
        <ele>538</ele>
        <time>2019-03-16T13:34:53Z</time>
      </trkpt>
      <trkpt lat="44.38025" lon="5.94611">
        <ele>538</ele>
        <time>2019-03-16T13:34:54Z</time>
      </trkpt>
      <trkpt lat="44.38023" lon="5.9462">
        <ele>538</ele>
        <time>2019-03-16T13:34:55Z</time>
      </trkpt>
      <trkpt lat="44.38019" lon="5.94628">
        <ele>538</ele>
        <time>2019-03-16T13:34:56Z</time>
      </trkpt>
      <trkpt lat="44.38016" lon="5.94636">
        <ele>538</ele>
        <time>2019-03-16T13:34:57Z</time>
      </trkpt>
      <trkpt lat="44.38011" lon="5.94643">
        <ele>538</ele>
        <time>2019-03-16T13:34:58Z</time>
      </trkpt>
      <trkpt lat="44.38006" lon="5.9465">
        <ele>538</ele>
        <time>2019-03-16T13:34:59Z</time>
      </trkpt>
      <trkpt lat="44.38001" lon="5.94655">
        <ele>538</ele>
        <time>2019-03-16T13:35:00Z</time>
      </trkpt>
      <trkpt lat="44.37995" lon="5.94659">
        <ele>538</ele>
        <time>2019-03-16T13:35:01Z</time>
      </trkpt>
      <trkpt lat="44.37989" lon="5.94662">
        <ele>538</ele>
        <time>2019-03-16T13:35:02Z</time>
      </trkpt>
      <trkpt lat="44.37983" lon="5.94664">
        <ele>538</ele>
        <time>2019-03-16T13:35:03Z</time>
      </trkpt>
      <trkpt lat="44.37977" lon="5.94665">
        <ele>538</ele>
        <time>2019-03-16T13:35:04Z</time>
      </trkpt>
      <trkpt lat="44.37971" lon="5.94667">
        <ele>538</ele>
        <time>2019-03-16T13:35:05Z</time>
      </trkpt>
      <trkpt lat="44.37965" lon="5.94668">
        <ele>538</ele>
        <time>2019-03-16T13:35:06Z</time>
      </trkpt>
      <trkpt lat="44.3796" lon="5.9467">
        <ele>538</ele>
        <time>2019-03-16T13:35:07Z</time>
      </trkpt>
      <trkpt lat="44.37954" lon="5.94672">
        <ele>538</ele>
        <time>2019-03-16T13:35:08Z</time>
      </trkpt>
      <trkpt lat="44.37949" lon="5.94674">
        <ele>538</ele>
        <time>2019-03-16T13:35:09Z</time>
      </trkpt>
      <trkpt lat="44.37943" lon="5.94677">
        <ele>538</ele>
        <time>2019-03-16T13:35:10Z</time>
      </trkpt>
      <trkpt lat="44.37938" lon="5.94681">
        <ele>538</ele>
        <time>2019-03-16T13:35:11Z</time>
      </trkpt>
      <trkpt lat="44.37933" lon="5.94685">
        <ele>538</ele>
        <time>2019-03-16T13:35:12Z</time>
      </trkpt>
      <trkpt lat="44.37928" lon="5.94689">
        <ele>538</ele>
        <time>2019-03-16T13:35:13Z</time>
      </trkpt>
      <trkpt lat="44.37923" lon="5.94694">
        <ele>538</ele>
        <time>2019-03-16T13:35:14Z</time>
      </trkpt>
      <trkpt lat="44.3792" lon="5.94699">
        <ele>538</ele>
        <time>2019-03-16T13:35:15Z</time>
      </trkpt>
      <trkpt lat="44.37916" lon="5.94705">
        <ele>538</ele>
        <time>2019-03-16T13:35:16Z</time>
      </trkpt>
      <trkpt lat="44.37912" lon="5.94711">
        <ele>538</ele>
        <time>2019-03-16T13:35:17Z</time>
      </trkpt>
      <trkpt lat="44.37909" lon="5.94717">
        <ele>538</ele>
        <time>2019-03-16T13:35:18Z</time>
      </trkpt>
      <trkpt lat="44.37905" lon="5.94723">
        <ele>538</ele>
        <time>2019-03-16T13:35:19Z</time>
      </trkpt>
      <trkpt lat="44.37902" lon="5.94728">
        <ele>538</ele>
        <time>2019-03-16T13:35:20Z</time>
      </trkpt>
      <trkpt lat="44.37899" lon="5.94734">
        <ele>538</ele>
        <time>2019-03-16T13:35:21Z</time>
      </trkpt>
      <trkpt lat="44.37896" lon="5.9474">
        <ele>538</ele>
        <time>2019-03-16T13:35:22Z</time>
      </trkpt>
      <trkpt lat="44.37893" lon="5.94745">
        <ele>538</ele>
        <time>2019-03-16T13:35:23Z</time>
      </trkpt>
      <trkpt lat="44.3789" lon="5.94751">
        <ele>538</ele>
        <time>2019-03-16T13:35:24Z</time>
      </trkpt>
      <trkpt lat="44.37887" lon="5.94756">
        <ele>538</ele>
        <time>2019-03-16T13:35:25Z</time>
      </trkpt>
      <trkpt lat="44.37883" lon="5.9476">
        <ele>538</ele>
        <time>2019-03-16T13:35:26Z</time>
      </trkpt>
      <trkpt lat="44.37879" lon="5.94764">
        <ele>538</ele>
        <time>2019-03-16T13:35:27Z</time>
      </trkpt>
      <trkpt lat="44.37875" lon="5.94768">
        <ele>539</ele>
        <time>2019-03-16T13:35:28Z</time>
      </trkpt>
      <trkpt lat="44.37871" lon="5.94771">
        <ele>540</ele>
        <time>2019-03-16T13:35:29Z</time>
      </trkpt>
      <trkpt lat="44.37867" lon="5.94773">
        <ele>540</ele>
        <time>2019-03-16T13:35:30Z</time>
      </trkpt>
      <trkpt lat="44.37863" lon="5.94776">
        <ele>541</ele>
        <time>2019-03-16T13:35:31Z</time>
      </trkpt>
      <trkpt lat="44.37859" lon="5.94779">
        <ele>541</ele>
        <time>2019-03-16T13:35:32Z</time>
      </trkpt>
      <trkpt lat="44.37856" lon="5.94782">
        <ele>542</ele>
        <time>2019-03-16T13:35:33Z</time>
      </trkpt>
      <trkpt lat="44.37852" lon="5.94784">
        <ele>542</ele>
        <time>2019-03-16T13:35:34Z</time>
      </trkpt>
      <trkpt lat="44.37849" lon="5.94787">
        <ele>543</ele>
        <time>2019-03-16T13:35:35Z</time>
      </trkpt>
      <trkpt lat="44.37846" lon="5.94791">
        <ele>543</ele>
        <time>2019-03-16T13:35:36Z</time>
      </trkpt>
      <trkpt lat="44.37843" lon="5.94794">
        <ele>543</ele>
        <time>2019-03-16T13:35:37Z</time>
      </trkpt>
      <trkpt lat="44.37841" lon="5.94799">
        <ele>544</ele>
        <time>2019-03-16T13:35:38Z</time>
      </trkpt>
      <trkpt lat="44.37839" lon="5.94803">
        <ele>544</ele>
        <time>2019-03-16T13:35:39Z</time>
      </trkpt>
      <trkpt lat="44.37837" lon="5.94808">
        <ele>544</ele>
        <time>2019-03-16T13:35:40Z</time>
      </trkpt>
      <trkpt lat="44.37836" lon="5.94814">
        <ele>545</ele>
        <time>2019-03-16T13:35:41Z</time>
      </trkpt>
      <trkpt lat="44.37835" lon="5.94819">
        <ele>545</ele>
        <time>2019-03-16T13:35:42Z</time>
      </trkpt>
      <trkpt lat="44.37834" lon="5.94825">
        <ele>545</ele>
        <time>2019-03-16T13:35:43Z</time>
      </trkpt>
      <trkpt lat="44.37833" lon="5.9483">
        <ele>546</ele>
        <time>2019-03-16T13:35:44Z</time>
      </trkpt>
      <trkpt lat="44.37833" lon="5.94836">
        <ele>546</ele>
        <time>2019-03-16T13:35:45Z</time>
      </trkpt>
      <trkpt lat="44.37833" lon="5.94841">
        <ele>546</ele>
        <time>2019-03-16T13:35:46Z</time>
      </trkpt>
      <trkpt lat="44.37833" lon="5.94846">
        <ele>546</ele>
        <time>2019-03-16T13:35:47Z</time>
      </trkpt>
      <trkpt lat="44.37832" lon="5.94851">
        <ele>546</ele>
        <time>2019-03-16T13:35:48Z</time>
      </trkpt>
      <trkpt lat="44.37832" lon="5.94856">
        <ele>546</ele>
        <time>2019-03-16T13:35:49Z</time>
      </trkpt>
      <trkpt lat="44.37831" lon="5.94861">
        <ele>546</ele>
        <time>2019-03-16T13:35:50Z</time>
      </trkpt>
      <trkpt lat="44.37831" lon="5.94866">
        <ele>546</ele>
        <time>2019-03-16T13:35:51Z</time>
      </trkpt>
      <trkpt lat="44.37831" lon="5.94871">
        <ele>546</ele>
        <time>2019-03-16T13:35:52Z</time>
      </trkpt>
      <trkpt lat="44.3783" lon="5.94875">
        <ele>546</ele>
        <time>2019-03-16T13:35:53Z</time>
      </trkpt>
      <trkpt lat="44.3783" lon="5.9488">
        <ele>547</ele>
        <time>2019-03-16T13:35:54Z</time>
      </trkpt>
      <trkpt lat="44.3783" lon="5.94884">
        <ele>547</ele>
        <time>2019-03-16T13:35:55Z</time>
      </trkpt>
      <trkpt lat="44.37829" lon="5.94888">
        <ele>547</ele>
        <time>2019-03-16T13:35:56Z</time>
      </trkpt>
      <trkpt lat="44.37828" lon="5.94893">
        <ele>547</ele>
        <time>2019-03-16T13:35:57Z</time>
      </trkpt>
      <trkpt lat="44.37827" lon="5.94896">
        <ele>547</ele>
        <time>2019-03-16T13:35:58Z</time>
      </trkpt>
      <trkpt lat="44.37827" lon="5.949">
        <ele>547</ele>
        <time>2019-03-16T13:35:59Z</time>
      </trkpt>
      <trkpt lat="44.37826" lon="5.94905">
        <ele>547</ele>
        <time>2019-03-16T13:36:00Z</time>
      </trkpt>
      <trkpt lat="44.37825" lon="5.94909">
        <ele>547</ele>
        <time>2019-03-16T13:36:01Z</time>
      </trkpt>
      <trkpt lat="44.37825" lon="5.94913">
        <ele>547</ele>
        <time>2019-03-16T13:36:02Z</time>
      </trkpt>
      <trkpt lat="44.37824" lon="5.94917">
        <ele>548</ele>
        <time>2019-03-16T13:36:03Z</time>
      </trkpt>
      <trkpt lat="44.37823" lon="5.94922">
        <ele>548</ele>
        <time>2019-03-16T13:36:04Z</time>
      </trkpt>
      <trkpt lat="44.37822" lon="5.94926">
        <ele>548</ele>
        <time>2019-03-16T13:36:05Z</time>
      </trkpt>
      <trkpt lat="44.37822" lon="5.9493">
        <ele>548</ele>
        <time>2019-03-16T13:36:06Z</time>
      </trkpt>
      <trkpt lat="44.37821" lon="5.94934">
        <ele>548</ele>
        <time>2019-03-16T13:36:07Z</time>
      </trkpt>
      <trkpt lat="44.3782" lon="5.94939">
        <ele>548</ele>
        <time>2019-03-16T13:36:08Z</time>
      </trkpt>
      <trkpt lat="44.37819" lon="5.94943">
        <ele>548</ele>
        <time>2019-03-16T13:36:09Z</time>
      </trkpt>
      <trkpt lat="44.37819" lon="5.94948">
        <ele>548</ele>
        <time>2019-03-16T13:36:10Z</time>
      </trkpt>
      <trkpt lat="44.37818" lon="5.94952">
        <ele>548</ele>
        <time>2019-03-16T13:36:11Z</time>
      </trkpt>
      <trkpt lat="44.37817" lon="5.94956">
        <ele>548</ele>
        <time>2019-03-16T13:36:12Z</time>
      </trkpt>
      <trkpt lat="44.37817" lon="5.94961">
        <ele>548</ele>
        <time>2019-03-16T13:36:13Z</time>
      </trkpt>
      <trkpt lat="44.37816" lon="5.94965">
        <ele>548</ele>
        <time>2019-03-16T13:36:14Z</time>
      </trkpt>
      <trkpt lat="44.37816" lon="5.94969">
        <ele>548</ele>
        <time>2019-03-16T13:36:15Z</time>
      </trkpt>
      <trkpt lat="44.37815" lon="5.94973">
        <ele>548</ele>
        <time>2019-03-16T13:36:16Z</time>
      </trkpt>
      <trkpt lat="44.37814" lon="5.94977">
        <ele>548</ele>
        <time>2019-03-16T13:36:17Z</time>
      </trkpt>
      <trkpt lat="44.37814" lon="5.94981">
        <ele>548</ele>
        <time>2019-03-16T13:36:18Z</time>
      </trkpt>
      <trkpt lat="44.37813" lon="5.94984">
        <ele>548</ele>
        <time>2019-03-16T13:36:19Z</time>
      </trkpt>
      <trkpt lat="44.37812" lon="5.94988">
        <ele>548</ele>
        <time>2019-03-16T13:36:20Z</time>
      </trkpt>
      <trkpt lat="44.37812" lon="5.94992">
        <ele>548</ele>
        <time>2019-03-16T13:36:21Z</time>
      </trkpt>
      <trkpt lat="44.37811" lon="5.94995">
        <ele>548</ele>
        <time>2019-03-16T13:36:22Z</time>
      </trkpt>
      <trkpt lat="44.3781" lon="5.94999">
        <ele>548</ele>
        <time>2019-03-16T13:36:23Z</time>
      </trkpt>
      <trkpt lat="44.37809" lon="5.95003">
        <ele>549</ele>
        <time>2019-03-16T13:36:24Z</time>
      </trkpt>
      <trkpt lat="44.37809" lon="5.95007">
        <ele>549</ele>
        <time>2019-03-16T13:36:25Z</time>
      </trkpt>
      <trkpt lat="44.37808" lon="5.95011">
        <ele>549</ele>
        <time>2019-03-16T13:36:26Z</time>
      </trkpt>
      <trkpt lat="44.37807" lon="5.95014">
        <ele>549</ele>
        <time>2019-03-16T13:36:27Z</time>
      </trkpt>
      <trkpt lat="44.37805" lon="5.95018">
        <ele>549</ele>
        <time>2019-03-16T13:36:28Z</time>
      </trkpt>
      <trkpt lat="44.37804" lon="5.95022">
        <ele>549</ele>
        <time>2019-03-16T13:36:29Z</time>
      </trkpt>
      <trkpt lat="44.37802" lon="5.95026">
        <ele>550</ele>
        <time>2019-03-16T13:36:30Z</time>
      </trkpt>
      <trkpt lat="44.378" lon="5.9503">
        <ele>550</ele>
        <time>2019-03-16T13:36:31Z</time>
      </trkpt>
      <trkpt lat="44.37798" lon="5.95033">
        <ele>550</ele>
        <time>2019-03-16T13:36:32Z</time>
      </trkpt>
      <trkpt lat="44.37796" lon="5.95036">
        <ele>550</ele>
        <time>2019-03-16T13:36:33Z</time>
      </trkpt>
      <trkpt lat="44.37793" lon="5.95039">
        <ele>551</ele>
        <time>2019-03-16T13:36:34Z</time>
      </trkpt>
      <trkpt lat="44.37791" lon="5.95041">
        <ele>551</ele>
        <time>2019-03-16T13:36:35Z</time>
      </trkpt>
      <trkpt lat="44.37788" lon="5.95044">
        <ele>552</ele>
        <time>2019-03-16T13:36:36Z</time>
      </trkpt>
      <trkpt lat="44.37785" lon="5.95046">
        <ele>552</ele>
        <time>2019-03-16T13:36:37Z</time>
      </trkpt>
      <trkpt lat="44.37782" lon="5.95048">
        <ele>553</ele>
        <time>2019-03-16T13:36:38Z</time>
      </trkpt>
      <trkpt lat="44.37779" lon="5.9505">
        <ele>553</ele>
        <time>2019-03-16T13:36:39Z</time>
      </trkpt>
      <trkpt lat="44.37776" lon="5.95052">
        <ele>553</ele>
        <time>2019-03-16T13:36:40Z</time>
      </trkpt>
      <trkpt lat="44.37772" lon="5.95053">
        <ele>554</ele>
        <time>2019-03-16T13:36:41Z</time>
      </trkpt>
      <trkpt lat="44.37769" lon="5.95055">
        <ele>554</ele>
        <time>2019-03-16T13:36:42Z</time>
      </trkpt>
      <trkpt lat="44.37765" lon="5.95056">
        <ele>554</ele>
        <time>2019-03-16T13:36:43Z</time>
      </trkpt>
      <trkpt lat="44.37761" lon="5.95058">
        <ele>555</ele>
        <time>2019-03-16T13:36:44Z</time>
      </trkpt>
      <trkpt lat="44.37758" lon="5.9506">
        <ele>556</ele>
        <time>2019-03-16T13:36:45Z</time>
      </trkpt>
      <trkpt lat="44.37754" lon="5.95062">
        <ele>556</ele>
        <time>2019-03-16T13:36:46Z</time>
      </trkpt>
      <trkpt lat="44.37751" lon="5.95064">
        <ele>557</ele>
        <time>2019-03-16T13:36:47Z</time>
      </trkpt>
      <trkpt lat="44.37747" lon="5.95066">
        <ele>557</ele>
        <time>2019-03-16T13:36:48Z</time>
      </trkpt>
      <trkpt lat="44.37744" lon="5.95067">
        <ele>557</ele>
        <time>2019-03-16T13:36:49Z</time>
      </trkpt>
      <trkpt lat="44.3774" lon="5.95068">
        <ele>558</ele>
        <time>2019-03-16T13:36:50Z</time>
      </trkpt>
      <trkpt lat="44.37737" lon="5.9507">
        <ele>558</ele>
        <time>2019-03-16T13:36:51Z</time>
      </trkpt>
      <trkpt lat="44.37734" lon="5.95072">
        <ele>559</ele>
        <time>2019-03-16T13:36:52Z</time>
      </trkpt>
      <trkpt lat="44.3773" lon="5.95074">
        <ele>559</ele>
        <time>2019-03-16T13:36:53Z</time>
      </trkpt>
      <trkpt lat="44.37727" lon="5.95075">
        <ele>559</ele>
        <time>2019-03-16T13:36:54Z</time>
      </trkpt>
      <trkpt lat="44.37724" lon="5.95076">
        <ele>559</ele>
        <time>2019-03-16T13:36:55Z</time>
      </trkpt>
      <trkpt lat="44.37721" lon="5.95077">
        <ele>560</ele>
        <time>2019-03-16T13:36:56Z</time>
      </trkpt>
      <trkpt lat="44.37717" lon="5.95078">
        <ele>560</ele>
        <time>2019-03-16T13:36:57Z</time>
      </trkpt>
      <trkpt lat="44.37714" lon="5.9508">
        <ele>560</ele>
        <time>2019-03-16T13:36:58Z</time>
      </trkpt>
      <trkpt lat="44.37711" lon="5.95081">
        <ele>560</ele>
        <time>2019-03-16T13:36:59Z</time>
      </trkpt>
      <trkpt lat="44.37708" lon="5.95083">
        <ele>561</ele>
        <time>2019-03-16T13:37:00Z</time>
      </trkpt>
      <trkpt lat="44.37705" lon="5.95084">
        <ele>561</ele>
        <time>2019-03-16T13:37:01Z</time>
      </trkpt>
      <trkpt lat="44.37702" lon="5.95085">
        <ele>561</ele>
        <time>2019-03-16T13:37:02Z</time>
      </trkpt>
      <trkpt lat="44.37698" lon="5.95087">
        <ele>561</ele>
        <time>2019-03-16T13:37:03Z</time>
      </trkpt>
      <trkpt lat="44.37695" lon="5.95088">
        <ele>562</ele>
        <time>2019-03-16T13:37:04Z</time>
      </trkpt>
      <trkpt lat="44.37692" lon="5.9509">
        <ele>562</ele>
        <time>2019-03-16T13:37:05Z</time>
      </trkpt>
      <trkpt lat="44.37689" lon="5.95091">
        <ele>562</ele>
        <time>2019-03-16T13:37:06Z</time>
      </trkpt>
      <trkpt lat="44.37686" lon="5.95092">
        <ele>562</ele>
        <time>2019-03-16T13:37:07Z</time>
      </trkpt>
      <trkpt lat="44.37683" lon="5.95094">
        <ele>562</ele>
        <time>2019-03-16T13:37:08Z</time>
      </trkpt>
      <trkpt lat="44.3768" lon="5.95095">
        <ele>563</ele>
        <time>2019-03-16T13:37:09Z</time>
      </trkpt>
      <trkpt lat="44.37676" lon="5.95097">
        <ele>563</ele>
        <time>2019-03-16T13:37:10Z</time>
      </trkpt>
      <trkpt lat="44.37673" lon="5.95098">
        <ele>563</ele>
        <time>2019-03-16T13:37:11Z</time>
      </trkpt>
      <trkpt lat="44.37669" lon="5.95099">
        <ele>563</ele>
        <time>2019-03-16T13:37:12Z</time>
      </trkpt>
      <trkpt lat="44.37666" lon="5.951">
        <ele>563</ele>
        <time>2019-03-16T13:37:13Z</time>
      </trkpt>
      <trkpt lat="44.37663" lon="5.95102">
        <ele>564</ele>
        <time>2019-03-16T13:37:14Z</time>
      </trkpt>
      <trkpt lat="44.37659" lon="5.95104">
        <ele>564</ele>
        <time>2019-03-16T13:37:15Z</time>
      </trkpt>
      <trkpt lat="44.37656" lon="5.95105">
        <ele>564</ele>
        <time>2019-03-16T13:37:16Z</time>
      </trkpt>
      <trkpt lat="44.37652" lon="5.95107">
        <ele>564</ele>
        <time>2019-03-16T13:37:17Z</time>
      </trkpt>
      <trkpt lat="44.37649" lon="5.95109">
        <ele>564</ele>
        <time>2019-03-16T13:37:18Z</time>
      </trkpt>
      <trkpt lat="44.37645" lon="5.9511">
        <ele>564</ele>
        <time>2019-03-16T13:37:19Z</time>
      </trkpt>
      <trkpt lat="44.37642" lon="5.95112">
        <ele>564</ele>
        <time>2019-03-16T13:37:20Z</time>
      </trkpt>
      <trkpt lat="44.37638" lon="5.95113">
        <ele>564</ele>
        <time>2019-03-16T13:37:21Z</time>
      </trkpt>
      <trkpt lat="44.37635" lon="5.95115">
        <ele>564</ele>
        <time>2019-03-16T13:37:22Z</time>
      </trkpt>
      <trkpt lat="44.37631" lon="5.95117">
        <ele>564</ele>
        <time>2019-03-16T13:37:23Z</time>
      </trkpt>
      <trkpt lat="44.37627" lon="5.95118">
        <ele>565</ele>
        <time>2019-03-16T13:37:24Z</time>
      </trkpt>
      <trkpt lat="44.37624" lon="5.95119">
        <ele>565</ele>
        <time>2019-03-16T13:37:25Z</time>
      </trkpt>
      <trkpt lat="44.3762" lon="5.95121">
        <ele>565</ele>
        <time>2019-03-16T13:37:26Z</time>
      </trkpt>
      <trkpt lat="44.37616" lon="5.95123">
        <ele>565</ele>
        <time>2019-03-16T13:37:27Z</time>
      </trkpt>
      <trkpt lat="44.37613" lon="5.95124">
        <ele>565</ele>
        <time>2019-03-16T13:37:28Z</time>
      </trkpt>
      <trkpt lat="44.37609" lon="5.95126">
        <ele>565</ele>
        <time>2019-03-16T13:37:29Z</time>
      </trkpt>
      <trkpt lat="44.37606" lon="5.95127">
        <ele>565</ele>
        <time>2019-03-16T13:37:30Z</time>
      </trkpt>
      <trkpt lat="44.37602" lon="5.95129">
        <ele>566</ele>
        <time>2019-03-16T13:37:31Z</time>
      </trkpt>
      <trkpt lat="44.37598" lon="5.95131">
        <ele>566</ele>
        <time>2019-03-16T13:37:32Z</time>
      </trkpt>
      <trkpt lat="44.37594" lon="5.95132">
        <ele>566</ele>
        <time>2019-03-16T13:37:33Z</time>
      </trkpt>
      <trkpt lat="44.3759" lon="5.95134">
        <ele>566</ele>
        <time>2019-03-16T13:37:34Z</time>
      </trkpt>
      <trkpt lat="44.37587" lon="5.95136">
        <ele>566</ele>
        <time>2019-03-16T13:37:35Z</time>
      </trkpt>
      <trkpt lat="44.37583" lon="5.95138">
        <ele>566</ele>
        <time>2019-03-16T13:37:36Z</time>
      </trkpt>
      <trkpt lat="44.37579" lon="5.95139">
        <ele>567</ele>
        <time>2019-03-16T13:37:37Z</time>
      </trkpt>
      <trkpt lat="44.37575" lon="5.95141">
        <ele>567</ele>
        <time>2019-03-16T13:37:38Z</time>
      </trkpt>
      <trkpt lat="44.37571" lon="5.95143">
        <ele>567</ele>
        <time>2019-03-16T13:37:39Z</time>
      </trkpt>
      <trkpt lat="44.37566" lon="5.95145">
        <ele>567</ele>
        <time>2019-03-16T13:37:40Z</time>
      </trkpt>
      <trkpt lat="44.37562" lon="5.95147">
        <ele>567</ele>
        <time>2019-03-16T13:37:41Z</time>
      </trkpt>
      <trkpt lat="44.37557" lon="5.95147">
        <ele>567</ele>
        <time>2019-03-16T13:37:42Z</time>
      </trkpt>
      <trkpt lat="44.37551" lon="5.95147">
        <ele>567</ele>
        <time>2019-03-16T13:37:43Z</time>
      </trkpt>
      <trkpt lat="44.37546" lon="5.95146">
        <ele>567</ele>
        <time>2019-03-16T13:37:44Z</time>
      </trkpt>
      <trkpt lat="44.3754" lon="5.95144">
        <ele>567</ele>
        <time>2019-03-16T13:37:45Z</time>
      </trkpt>
      <trkpt lat="44.37534" lon="5.95142">
        <ele>567</ele>
        <time>2019-03-16T13:37:46Z</time>
      </trkpt>
      <trkpt lat="44.37528" lon="5.9514">
        <ele>567</ele>
        <time>2019-03-16T13:37:47Z</time>
      </trkpt>
      <trkpt lat="44.37521" lon="5.95137">
        <ele>567</ele>
        <time>2019-03-16T13:37:48Z</time>
      </trkpt>
      <trkpt lat="44.37516" lon="5.95134">
        <ele>567</ele>
        <time>2019-03-16T13:37:49Z</time>
      </trkpt>
      <trkpt lat="44.3751" lon="5.95132">
        <ele>567</ele>
        <time>2019-03-16T13:37:50Z</time>
      </trkpt>
      <trkpt lat="44.37504" lon="5.95129">
        <ele>567</ele>
        <time>2019-03-16T13:37:51Z</time>
      </trkpt>
      <trkpt lat="44.37498" lon="5.95126">
        <ele>567</ele>
        <time>2019-03-16T13:37:52Z</time>
      </trkpt>
      <trkpt lat="44.37493" lon="5.95124">
        <ele>567</ele>
        <time>2019-03-16T13:37:53Z</time>
      </trkpt>
      <trkpt lat="44.37487" lon="5.95121">
        <ele>567</ele>
        <time>2019-03-16T13:37:54Z</time>
      </trkpt>
      <trkpt lat="44.37482" lon="5.95119">
        <ele>567</ele>
        <time>2019-03-16T13:37:55Z</time>
      </trkpt>
      <trkpt lat="44.37477" lon="5.95116">
        <ele>567</ele>
        <time>2019-03-16T13:37:56Z</time>
      </trkpt>
      <trkpt lat="44.37472" lon="5.95113">
        <ele>567</ele>
        <time>2019-03-16T13:37:57Z</time>
      </trkpt>
      <trkpt lat="44.37467" lon="5.9511">
        <ele>567</ele>
        <time>2019-03-16T13:37:58Z</time>
      </trkpt>
      <trkpt lat="44.37463" lon="5.95106">
        <ele>567</ele>
        <time>2019-03-16T13:37:59Z</time>
      </trkpt>
      <trkpt lat="44.37458" lon="5.95101">
        <ele>567</ele>
        <time>2019-03-16T13:38:00Z</time>
      </trkpt>
      <trkpt lat="44.37455" lon="5.95097">
        <ele>567</ele>
        <time>2019-03-16T13:38:01Z</time>
      </trkpt>
      <trkpt lat="44.37451" lon="5.95091">
        <ele>567</ele>
        <time>2019-03-16T13:38:02Z</time>
      </trkpt>
      <trkpt lat="44.37448" lon="5.95086">
        <ele>567</ele>
        <time>2019-03-16T13:38:03Z</time>
      </trkpt>
      <trkpt lat="44.37445" lon="5.95081">
        <ele>567</ele>
        <time>2019-03-16T13:38:04Z</time>
      </trkpt>
      <trkpt lat="44.37442" lon="5.95076">
        <ele>568</ele>
        <time>2019-03-16T13:38:05Z</time>
      </trkpt>
      <trkpt lat="44.37439" lon="5.95071">
        <ele>568</ele>
        <time>2019-03-16T13:38:06Z</time>
      </trkpt>
      <trkpt lat="44.37436" lon="5.95066">
        <ele>568</ele>
        <time>2019-03-16T13:38:07Z</time>
      </trkpt>
      <trkpt lat="44.37433" lon="5.95061">
        <ele>568</ele>
        <time>2019-03-16T13:38:08Z</time>
      </trkpt>
      <trkpt lat="44.37431" lon="5.95056">
        <ele>568</ele>
        <time>2019-03-16T13:38:09Z</time>
      </trkpt>
      <trkpt lat="44.37428" lon="5.95052">
        <ele>568</ele>
        <time>2019-03-16T13:38:10Z</time>
      </trkpt>
      <trkpt lat="44.37425" lon="5.95048">
        <ele>568</ele>
        <time>2019-03-16T13:38:11Z</time>
      </trkpt>
      <trkpt lat="44.37423" lon="5.95045">
        <ele>568</ele>
        <time>2019-03-16T13:38:12Z</time>
      </trkpt>
      <trkpt lat="44.3742" lon="5.95041">
        <ele>568</ele>
        <time>2019-03-16T13:38:13Z</time>
      </trkpt>
      <trkpt lat="44.37417" lon="5.95037">
        <ele>568</ele>
        <time>2019-03-16T13:38:14Z</time>
      </trkpt>
      <trkpt lat="44.37415" lon="5.95032">
        <ele>568</ele>
        <time>2019-03-16T13:38:15Z</time>
      </trkpt>
      <trkpt lat="44.37412" lon="5.95028">
        <ele>569</ele>
        <time>2019-03-16T13:38:16Z</time>
      </trkpt>
      <trkpt lat="44.37409" lon="5.95024">
        <ele>569</ele>
        <time>2019-03-16T13:38:17Z</time>
      </trkpt>
      <trkpt lat="44.37406" lon="5.9502">
        <ele>569</ele>
        <time>2019-03-16T13:38:18Z</time>
      </trkpt>
      <trkpt lat="44.37403" lon="5.95016">
        <ele>569</ele>
        <time>2019-03-16T13:38:19Z</time>
      </trkpt>
      <trkpt lat="44.374" lon="5.95012">
        <ele>569</ele>
        <time>2019-03-16T13:38:20Z</time>
      </trkpt>
      <trkpt lat="44.37398" lon="5.95008">
        <ele>569</ele>
        <time>2019-03-16T13:38:21Z</time>
      </trkpt>
      <trkpt lat="44.37395" lon="5.95005">
        <ele>569</ele>
        <time>2019-03-16T13:38:22Z</time>
      </trkpt>
      <trkpt lat="44.37392" lon="5.95001">
        <ele>570</ele>
        <time>2019-03-16T13:38:23Z</time>
      </trkpt>
      <trkpt lat="44.37389" lon="5.94997">
        <ele>570</ele>
        <time>2019-03-16T13:38:24Z</time>
      </trkpt>
      <trkpt lat="44.37386" lon="5.94994">
        <ele>570</ele>
        <time>2019-03-16T13:38:25Z</time>
      </trkpt>
      <trkpt lat="44.37383" lon="5.94989">
        <ele>570</ele>
        <time>2019-03-16T13:38:26Z</time>
      </trkpt>
      <trkpt lat="44.3738" lon="5.94985">
        <ele>570</ele>
        <time>2019-03-16T13:38:27Z</time>
      </trkpt>
      <trkpt lat="44.37377" lon="5.94981">
        <ele>570</ele>
        <time>2019-03-16T13:38:28Z</time>
      </trkpt>
      <trkpt lat="44.37373" lon="5.94977">
        <ele>570</ele>
        <time>2019-03-16T13:38:29Z</time>
      </trkpt>
      <trkpt lat="44.3737" lon="5.94972">
        <ele>571</ele>
        <time>2019-03-16T13:38:30Z</time>
      </trkpt>
      <trkpt lat="44.37367" lon="5.94968">
        <ele>571</ele>
        <time>2019-03-16T13:38:31Z</time>
      </trkpt>
      <trkpt lat="44.37364" lon="5.94964">
        <ele>571</ele>
        <time>2019-03-16T13:38:32Z</time>
      </trkpt>
      <trkpt lat="44.37361" lon="5.94959">
        <ele>571</ele>
        <time>2019-03-16T13:38:33Z</time>
      </trkpt>
      <trkpt lat="44.37357" lon="5.94955">
        <ele>571</ele>
        <time>2019-03-16T13:38:34Z</time>
      </trkpt>
      <trkpt lat="44.37355" lon="5.94951">
        <ele>571</ele>
        <time>2019-03-16T13:38:35Z</time>
      </trkpt>
      <trkpt lat="44.37352" lon="5.94947">
        <ele>572</ele>
        <time>2019-03-16T13:38:36Z</time>
      </trkpt>
      <trkpt lat="44.37349" lon="5.94944">
        <ele>572</ele>
        <time>2019-03-16T13:38:37Z</time>
      </trkpt>
      <trkpt lat="44.37346" lon="5.94941">
        <ele>572</ele>
        <time>2019-03-16T13:38:38Z</time>
      </trkpt>
      <trkpt lat="44.37342" lon="5.94938">
        <ele>572</ele>
        <time>2019-03-16T13:38:39Z</time>
      </trkpt>
      <trkpt lat="44.37339" lon="5.94935">
        <ele>572</ele>
        <time>2019-03-16T13:38:40Z</time>
      </trkpt>
      <trkpt lat="44.37336" lon="5.94933">
        <ele>572</ele>
        <time>2019-03-16T13:38:41Z</time>
      </trkpt>
      <trkpt lat="44.37333" lon="5.94931">
        <ele>572</ele>
        <time>2019-03-16T13:38:42Z</time>
      </trkpt>
      <trkpt lat="44.37329" lon="5.94929">
        <ele>572</ele>
        <time>2019-03-16T13:38:43Z</time>
      </trkpt>
      <trkpt lat="44.37325" lon="5.94927">
        <ele>572</ele>
        <time>2019-03-16T13:38:44Z</time>
      </trkpt>
      <trkpt lat="44.3732" lon="5.94925">
        <ele>572</ele>
        <time>2019-03-16T13:38:45Z</time>
      </trkpt>
      <trkpt lat="44.37315" lon="5.94924">
        <ele>572</ele>
        <time>2019-03-16T13:38:46Z</time>
      </trkpt>
      <trkpt lat="44.3731" lon="5.94924">
        <ele>572</ele>
        <time>2019-03-16T13:38:47Z</time>
      </trkpt>
      <trkpt lat="44.37304" lon="5.94923">
        <ele>572</ele>
        <time>2019-03-16T13:38:48Z</time>
      </trkpt>
      <trkpt lat="44.37298" lon="5.94922">
        <ele>572</ele>
        <time>2019-03-16T13:38:49Z</time>
      </trkpt>
      <trkpt lat="44.37291" lon="5.9492">
        <ele>572</ele>
        <time>2019-03-16T13:38:50Z</time>
      </trkpt>
      <trkpt lat="44.37284" lon="5.94919">
        <ele>572</ele>
        <time>2019-03-16T13:38:51Z</time>
      </trkpt>
      <trkpt lat="44.37276" lon="5.94918">
        <ele>572</ele>
        <time>2019-03-16T13:38:52Z</time>
      </trkpt>
      <trkpt lat="44.37268" lon="5.94916">
        <ele>572</ele>
        <time>2019-03-16T13:38:53Z</time>
      </trkpt>
      <trkpt lat="44.3726" lon="5.94914">
        <ele>572</ele>
        <time>2019-03-16T13:38:54Z</time>
      </trkpt>
      <trkpt lat="44.37252" lon="5.94913">
        <ele>572</ele>
        <time>2019-03-16T13:38:55Z</time>
      </trkpt>
      <trkpt lat="44.37244" lon="5.94911">
        <ele>572</ele>
        <time>2019-03-16T13:38:56Z</time>
      </trkpt>
      <trkpt lat="44.37235" lon="5.94909">
        <ele>572</ele>
        <time>2019-03-16T13:38:57Z</time>
      </trkpt>
      <trkpt lat="44.37225" lon="5.94908">
        <ele>572</ele>
        <time>2019-03-16T13:38:58Z</time>
      </trkpt>
      <trkpt lat="44.37216" lon="5.94906">
        <ele>572</ele>
        <time>2019-03-16T13:38:59Z</time>
      </trkpt>
      <trkpt lat="44.37207" lon="5.94904">
        <ele>571</ele>
        <time>2019-03-16T13:39:00Z</time>
      </trkpt>
      <trkpt lat="44.37199" lon="5.94903">
        <ele>571</ele>
        <time>2019-03-16T13:39:01Z</time>
      </trkpt>
      <trkpt lat="44.3719" lon="5.94902">
        <ele>570</ele>
        <time>2019-03-16T13:39:02Z</time>
      </trkpt>
      <trkpt lat="44.37182" lon="5.94901">
        <ele>570</ele>
        <time>2019-03-16T13:39:03Z</time>
      </trkpt>
      <trkpt lat="44.37173" lon="5.94899">
        <ele>569</ele>
        <time>2019-03-16T13:39:04Z</time>
      </trkpt>
      <trkpt lat="44.37165" lon="5.94897">
        <ele>568</ele>
        <time>2019-03-16T13:39:05Z</time>
      </trkpt>
      <trkpt lat="44.37157" lon="5.94894">
        <ele>568</ele>
        <time>2019-03-16T13:39:07Z</time>
      </trkpt>
      <trkpt lat="44.3715" lon="5.94888">
        <ele>567</ele>
        <time>2019-03-16T13:39:07Z</time>
      </trkpt>
      <trkpt lat="44.37143" lon="5.9488">
        <ele>567</ele>
        <time>2019-03-16T13:39:08Z</time>
      </trkpt>
      <trkpt lat="44.37136" lon="5.94872">
        <ele>566</ele>
        <time>2019-03-16T13:39:09Z</time>
      </trkpt>
      <trkpt lat="44.3713" lon="5.94863">
        <ele>566</ele>
        <time>2019-03-16T13:39:10Z</time>
      </trkpt>
      <trkpt lat="44.37123" lon="5.94853">
        <ele>565</ele>
        <time>2019-03-16T13:39:11Z</time>
      </trkpt>
      <trkpt lat="44.37116" lon="5.94844">
        <ele>565</ele>
        <time>2019-03-16T13:39:12Z</time>
      </trkpt>
      <trkpt lat="44.3711" lon="5.94834">
        <ele>564</ele>
        <time>2019-03-16T13:39:13Z</time>
      </trkpt>
      <trkpt lat="44.37103" lon="5.94823">
        <ele>563</ele>
        <time>2019-03-16T13:39:14Z</time>
      </trkpt>
      <trkpt lat="44.37096" lon="5.94813">
        <ele>563</ele>
        <time>2019-03-16T13:39:15Z</time>
      </trkpt>
      <trkpt lat="44.37089" lon="5.94802">
        <ele>562</ele>
        <time>2019-03-16T13:39:16Z</time>
      </trkpt>
      <trkpt lat="44.37081" lon="5.94792">
        <ele>561</ele>
        <time>2019-03-16T13:39:17Z</time>
      </trkpt>
      <trkpt lat="44.37073" lon="5.94783">
        <ele>561</ele>
        <time>2019-03-16T13:39:18Z</time>
      </trkpt>
      <trkpt lat="44.37065" lon="5.94774">
        <ele>560</ele>
        <time>2019-03-16T13:39:19Z</time>
      </trkpt>
      <trkpt lat="44.37057" lon="5.94765">
        <ele>559</ele>
        <time>2019-03-16T13:39:20Z</time>
      </trkpt>
      <trkpt lat="44.37049" lon="5.94757">
        <ele>559</ele>
        <time>2019-03-16T13:39:21Z</time>
      </trkpt>
      <trkpt lat="44.37041" lon="5.9475">
        <ele>558</ele>
        <time>2019-03-16T13:39:22Z</time>
      </trkpt>
      <trkpt lat="44.37033" lon="5.94742">
        <ele>558</ele>
        <time>2019-03-16T13:39:23Z</time>
      </trkpt>
      <trkpt lat="44.37025" lon="5.94735">
        <ele>558</ele>
        <time>2019-03-16T13:39:24Z</time>
      </trkpt>
      <trkpt lat="44.37017" lon="5.94727">
        <ele>557</ele>
        <time>2019-03-16T13:39:25Z</time>
      </trkpt>
      <trkpt lat="44.37009" lon="5.94719">
        <ele>557</ele>
        <time>2019-03-16T13:39:26Z</time>
      </trkpt>
      <trkpt lat="44.37001" lon="5.94712">
        <ele>557</ele>
        <time>2019-03-16T13:39:27Z</time>
      </trkpt>
      <trkpt lat="44.36992" lon="5.94706">
        <ele>557</ele>
        <time>2019-03-16T13:39:28Z</time>
      </trkpt>
      <trkpt lat="44.36983" lon="5.947">
        <ele>556</ele>
        <time>2019-03-16T13:39:29Z</time>
      </trkpt>
      <trkpt lat="44.36974" lon="5.94695">
        <ele>555</ele>
        <time>2019-03-16T13:39:30Z</time>
      </trkpt>
      <trkpt lat="44.36964" lon="5.94691">
        <ele>555</ele>
        <time>2019-03-16T13:39:31Z</time>
      </trkpt>
      <trkpt lat="44.36953" lon="5.94687">
        <ele>554</ele>
        <time>2019-03-16T13:39:32Z</time>
      </trkpt>
      <trkpt lat="44.36942" lon="5.94685">
        <ele>553</ele>
        <time>2019-03-16T13:39:33Z</time>
      </trkpt>
      <trkpt lat="44.3693" lon="5.94685">
        <ele>553</ele>
        <time>2019-03-16T13:39:34Z</time>
      </trkpt>
      <trkpt lat="44.36919" lon="5.94687">
        <ele>552</ele>
        <time>2019-03-16T13:39:35Z</time>
      </trkpt>
      <trkpt lat="44.36908" lon="5.94691">
        <ele>551</ele>
        <time>2019-03-16T13:39:36Z</time>
      </trkpt>
      <trkpt lat="44.36898" lon="5.94696">
        <ele>551</ele>
        <time>2019-03-16T13:39:37Z</time>
      </trkpt>
      <trkpt lat="44.36887" lon="5.947">
        <ele>550</ele>
        <time>2019-03-16T13:39:38Z</time>
      </trkpt>
      <trkpt lat="44.36876" lon="5.94704">
        <ele>549</ele>
        <time>2019-03-16T13:39:39Z</time>
      </trkpt>
      <trkpt lat="44.36865" lon="5.94706">
        <ele>549</ele>
        <time>2019-03-16T13:39:40Z</time>
      </trkpt>
      <trkpt lat="44.36855" lon="5.94706">
        <ele>549</ele>
        <time>2019-03-16T13:39:41Z</time>
      </trkpt>
      <trkpt lat="44.36845" lon="5.94706">
        <ele>549</ele>
        <time>2019-03-16T13:39:42Z</time>
      </trkpt>
      <trkpt lat="44.36836" lon="5.94706">
        <ele>549</ele>
        <time>2019-03-16T13:39:43Z</time>
      </trkpt>
      <trkpt lat="44.36827" lon="5.94707">
        <ele>549</ele>
        <time>2019-03-16T13:39:44Z</time>
      </trkpt>
      <trkpt lat="44.36818" lon="5.94708">
        <ele>549</ele>
        <time>2019-03-16T13:39:45Z</time>
      </trkpt>
      <trkpt lat="44.3681" lon="5.94709">
        <ele>549</ele>
        <time>2019-03-16T13:39:46Z</time>
      </trkpt>
      <trkpt lat="44.36802" lon="5.9471">
        <ele>549</ele>
        <time>2019-03-16T13:39:47Z</time>
      </trkpt>
      <trkpt lat="44.36794" lon="5.94711">
        <ele>549</ele>
        <time>2019-03-16T13:39:48Z</time>
      </trkpt>
      <trkpt lat="44.36787" lon="5.94713">
        <ele>549</ele>
        <time>2019-03-16T13:39:49Z</time>
      </trkpt>
      <trkpt lat="44.36779" lon="5.94713">
        <ele>549</ele>
        <time>2019-03-16T13:39:50Z</time>
      </trkpt>
      <trkpt lat="44.36773" lon="5.94714">
        <ele>549</ele>
        <time>2019-03-16T13:39:51Z</time>
      </trkpt>
      <trkpt lat="44.36766" lon="5.94714">
        <ele>549</ele>
        <time>2019-03-16T13:39:52Z</time>
      </trkpt>
      <trkpt lat="44.36759" lon="5.94715">
        <ele>549</ele>
        <time>2019-03-16T13:39:53Z</time>
      </trkpt>
      <trkpt lat="44.36752" lon="5.94715">
        <ele>549</ele>
        <time>2019-03-16T13:39:54Z</time>
      </trkpt>
      <trkpt lat="44.36746" lon="5.94716">
        <ele>549</ele>
        <time>2019-03-16T13:39:55Z</time>
      </trkpt>
      <trkpt lat="44.36739" lon="5.94717">
        <ele>549</ele>
        <time>2019-03-16T13:39:56Z</time>
      </trkpt>
      <trkpt lat="44.36732" lon="5.94717">
        <ele>549</ele>
        <time>2019-03-16T13:39:57Z</time>
      </trkpt>
      <trkpt lat="44.36724" lon="5.94717">
        <ele>549</ele>
        <time>2019-03-16T13:39:58Z</time>
      </trkpt>
      <trkpt lat="44.36717" lon="5.94716">
        <ele>549</ele>
        <time>2019-03-16T13:39:59Z</time>
      </trkpt>
      <trkpt lat="44.3671" lon="5.94715">
        <ele>549</ele>
        <time>2019-03-16T13:40:00Z</time>
      </trkpt>
      <trkpt lat="44.36703" lon="5.94713">
        <ele>549</ele>
        <time>2019-03-16T13:40:01Z</time>
      </trkpt>
      <trkpt lat="44.36696" lon="5.94711">
        <ele>549</ele>
        <time>2019-03-16T13:40:02Z</time>
      </trkpt>
      <trkpt lat="44.36689" lon="5.94708">
        <ele>549</ele>
        <time>2019-03-16T13:40:03Z</time>
      </trkpt>
      <trkpt lat="44.36683" lon="5.94705">
        <ele>549</ele>
        <time>2019-03-16T13:40:04Z</time>
      </trkpt>
      <trkpt lat="44.36676" lon="5.94702">
        <ele>549</ele>
        <time>2019-03-16T13:40:05Z</time>
      </trkpt>
      <trkpt lat="44.36669" lon="5.947">
        <ele>549</ele>
        <time>2019-03-16T13:40:06Z</time>
      </trkpt>
      <trkpt lat="44.36663" lon="5.94697">
        <ele>549</ele>
        <time>2019-03-16T13:40:07Z</time>
      </trkpt>
      <trkpt lat="44.36656" lon="5.94694">
        <ele>549</ele>
        <time>2019-03-16T13:40:08Z</time>
      </trkpt>
      <trkpt lat="44.3665" lon="5.9469">
        <ele>549</ele>
        <time>2019-03-16T13:40:09Z</time>
      </trkpt>
      <trkpt lat="44.36644" lon="5.94687">
        <ele>549</ele>
        <time>2019-03-16T13:40:10Z</time>
      </trkpt>
      <trkpt lat="44.36637" lon="5.94685">
        <ele>549</ele>
        <time>2019-03-16T13:40:11Z</time>
      </trkpt>
      <trkpt lat="44.36632" lon="5.94683">
        <ele>549</ele>
        <time>2019-03-16T13:40:12Z</time>
      </trkpt>
      <trkpt lat="44.36626" lon="5.94681">
        <ele>549</ele>
        <time>2019-03-16T13:40:13Z</time>
      </trkpt>
      <trkpt lat="44.36621" lon="5.94679">
        <ele>549</ele>
        <time>2019-03-16T13:40:14Z</time>
      </trkpt>
      <trkpt lat="44.36617" lon="5.94677">
        <ele>549</ele>
        <time>2019-03-16T13:40:15Z</time>
      </trkpt>
      <trkpt lat="44.36613" lon="5.94676">
        <ele>549</ele>
        <time>2019-03-16T13:40:16Z</time>
      </trkpt>
      <trkpt lat="44.36609" lon="5.94675">
        <ele>549</ele>
        <time>2019-03-16T13:40:17Z</time>
      </trkpt>
      <trkpt lat="44.36605" lon="5.94674">
        <ele>549</ele>
        <time>2019-03-16T13:40:18Z</time>
      </trkpt>
      <trkpt lat="44.36601" lon="5.94673">
        <ele>549</ele>
        <time>2019-03-16T13:40:19Z</time>
      </trkpt>
      <trkpt lat="44.36597" lon="5.94672">
        <ele>549</ele>
        <time>2019-03-16T13:40:20Z</time>
      </trkpt>
      <trkpt lat="44.36592" lon="5.94671">
        <ele>550</ele>
        <time>2019-03-16T13:40:21Z</time>
      </trkpt>
      <trkpt lat="44.36588" lon="5.94671">
        <ele>550</ele>
        <time>2019-03-16T13:40:22Z</time>
      </trkpt>
      <trkpt lat="44.36584" lon="5.94671">
        <ele>550</ele>
        <time>2019-03-16T13:40:23Z</time>
      </trkpt>
      <trkpt lat="44.3658" lon="5.9467">
        <ele>551</ele>
        <time>2019-03-16T13:40:24Z</time>
      </trkpt>
      <trkpt lat="44.36576" lon="5.94671">
        <ele>551</ele>
        <time>2019-03-16T13:40:25Z</time>
      </trkpt>
      <trkpt lat="44.36572" lon="5.94671">
        <ele>551</ele>
        <time>2019-03-16T13:40:26Z</time>
      </trkpt>
      <trkpt lat="44.36567" lon="5.94672">
        <ele>552</ele>
        <time>2019-03-16T13:40:27Z</time>
      </trkpt>
      <trkpt lat="44.36563" lon="5.94673">
        <ele>552</ele>
        <time>2019-03-16T13:40:28Z</time>
      </trkpt>
      <trkpt lat="44.36559" lon="5.94674">
        <ele>552</ele>
        <time>2019-03-16T13:40:29Z</time>
      </trkpt>
      <trkpt lat="44.36554" lon="5.94675">
        <ele>553</ele>
        <time>2019-03-16T13:40:30Z</time>
      </trkpt>
      <trkpt lat="44.3655" lon="5.94676">
        <ele>553</ele>
        <time>2019-03-16T13:40:31Z</time>
      </trkpt>
      <trkpt lat="44.36546" lon="5.94678">
        <ele>554</ele>
        <time>2019-03-16T13:40:32Z</time>
      </trkpt>
      <trkpt lat="44.36542" lon="5.94679">
        <ele>554</ele>
        <time>2019-03-16T13:40:33Z</time>
      </trkpt>
      <trkpt lat="44.36538" lon="5.9468">
        <ele>554</ele>
        <time>2019-03-16T13:40:34Z</time>
      </trkpt>
      <trkpt lat="44.36533" lon="5.94681">
        <ele>555</ele>
        <time>2019-03-16T13:40:35Z</time>
      </trkpt>
      <trkpt lat="44.36529" lon="5.94682">
        <ele>555</ele>
        <time>2019-03-16T13:40:36Z</time>
      </trkpt>
      <trkpt lat="44.36525" lon="5.94683">
        <ele>555</ele>
        <time>2019-03-16T13:40:37Z</time>
      </trkpt>
      <trkpt lat="44.3652" lon="5.94683">
        <ele>555</ele>
        <time>2019-03-16T13:40:38Z</time>
      </trkpt>
      <trkpt lat="44.36516" lon="5.94683">
        <ele>555</ele>
        <time>2019-03-16T13:40:39Z</time>
      </trkpt>
      <trkpt lat="44.36512" lon="5.94683">
        <ele>556</ele>
        <time>2019-03-16T13:40:40Z</time>
      </trkpt>
      <trkpt lat="44.36507" lon="5.94683">
        <ele>556</ele>
        <time>2019-03-16T13:40:41Z</time>
      </trkpt>
      <trkpt lat="44.36503" lon="5.94683">
        <ele>556</ele>
        <time>2019-03-16T13:40:42Z</time>
      </trkpt>
      <trkpt lat="44.36499" lon="5.94683">
        <ele>556</ele>
        <time>2019-03-16T13:40:43Z</time>
      </trkpt>
      <trkpt lat="44.36495" lon="5.94682">
        <ele>557</ele>
        <time>2019-03-16T13:40:44Z</time>
      </trkpt>
      <trkpt lat="44.36491" lon="5.94682">
        <ele>557</ele>
        <time>2019-03-16T13:40:45Z</time>
      </trkpt>
      <trkpt lat="44.36487" lon="5.94681">
        <ele>557</ele>
        <time>2019-03-16T13:40:46Z</time>
      </trkpt>
      <trkpt lat="44.36483" lon="5.9468">
        <ele>557</ele>
        <time>2019-03-16T13:40:47Z</time>
      </trkpt>
      <trkpt lat="44.36479" lon="5.94679">
        <ele>558</ele>
        <time>2019-03-16T13:40:48Z</time>
      </trkpt>
      <trkpt lat="44.36475" lon="5.94678">
        <ele>558</ele>
        <time>2019-03-16T13:40:49Z</time>
      </trkpt>
      <trkpt lat="44.36471" lon="5.94676">
        <ele>558</ele>
        <time>2019-03-16T13:40:50Z</time>
      </trkpt>
      <trkpt lat="44.36467" lon="5.94674">
        <ele>558</ele>
        <time>2019-03-16T13:40:51Z</time>
      </trkpt>
      <trkpt lat="44.36462" lon="5.94672">
        <ele>559</ele>
        <time>2019-03-16T13:40:52Z</time>
      </trkpt>
      <trkpt lat="44.36459" lon="5.94671">
        <ele>559</ele>
        <time>2019-03-16T13:40:53Z</time>
      </trkpt>
      <trkpt lat="44.36455" lon="5.94669">
        <ele>559</ele>
        <time>2019-03-16T13:40:54Z</time>
      </trkpt>
      <trkpt lat="44.36452" lon="5.94666">
        <ele>559</ele>
        <time>2019-03-16T13:40:55Z</time>
      </trkpt>
      <trkpt lat="44.36449" lon="5.94664">
        <ele>559</ele>
        <time>2019-03-16T13:40:56Z</time>
      </trkpt>
      <trkpt lat="44.36445" lon="5.94662">
        <ele>560</ele>
        <time>2019-03-16T13:40:57Z</time>
      </trkpt>
      <trkpt lat="44.36442" lon="5.9466">
        <ele>560</ele>
        <time>2019-03-16T13:40:58Z</time>
      </trkpt>
      <trkpt lat="44.36438" lon="5.94657">
        <ele>560</ele>
        <time>2019-03-16T13:40:59Z</time>
      </trkpt>
      <trkpt lat="44.36434" lon="5.94654">
        <ele>560</ele>
        <time>2019-03-16T13:41:00Z</time>
      </trkpt>
      <trkpt lat="44.3643" lon="5.94651">
        <ele>560</ele>
        <time>2019-03-16T13:41:01Z</time>
      </trkpt>
      <trkpt lat="44.36425" lon="5.94648">
        <ele>560</ele>
        <time>2019-03-16T13:41:02Z</time>
      </trkpt>
      <trkpt lat="44.36421" lon="5.94644">
        <ele>560</ele>
        <time>2019-03-16T13:41:03Z</time>
      </trkpt>
      <trkpt lat="44.36417" lon="5.94641">
        <ele>560</ele>
        <time>2019-03-16T13:41:04Z</time>
      </trkpt>
      <trkpt lat="44.36412" lon="5.94637">
        <ele>560</ele>
        <time>2019-03-16T13:41:05Z</time>
      </trkpt>
      <trkpt lat="44.36408" lon="5.94633">
        <ele>560</ele>
        <time>2019-03-16T13:41:06Z</time>
      </trkpt>
      <trkpt lat="44.36404" lon="5.94629">
        <ele>560</ele>
        <time>2019-03-16T13:41:07Z</time>
      </trkpt>
      <trkpt lat="44.36399" lon="5.94625">
        <ele>560</ele>
        <time>2019-03-16T13:41:08Z</time>
      </trkpt>
      <trkpt lat="44.36395" lon="5.94621">
        <ele>560</ele>
        <time>2019-03-16T13:41:09Z</time>
      </trkpt>
      <trkpt lat="44.36391" lon="5.94616">
        <ele>560</ele>
        <time>2019-03-16T13:41:10Z</time>
      </trkpt>
      <trkpt lat="44.36386" lon="5.94611">
        <ele>560</ele>
        <time>2019-03-16T13:41:11Z</time>
      </trkpt>
      <trkpt lat="44.36382" lon="5.94607">
        <ele>560</ele>
        <time>2019-03-16T13:41:12Z</time>
      </trkpt>
      <trkpt lat="44.36378" lon="5.94602">
        <ele>560</ele>
        <time>2019-03-16T13:41:13Z</time>
      </trkpt>
      <trkpt lat="44.36374" lon="5.94597">
        <ele>560</ele>
        <time>2019-03-16T13:41:14Z</time>
      </trkpt>
      <trkpt lat="44.36369" lon="5.94593">
        <ele>560</ele>
        <time>2019-03-16T13:41:15Z</time>
      </trkpt>
      <trkpt lat="44.36365" lon="5.9459">
        <ele>560</ele>
        <time>2019-03-16T13:41:16Z</time>
      </trkpt>
      <trkpt lat="44.3636" lon="5.94587">
        <ele>560</ele>
        <time>2019-03-16T13:41:17Z</time>
      </trkpt>
      <trkpt lat="44.36356" lon="5.94585">
        <ele>560</ele>
        <time>2019-03-16T13:41:18Z</time>
      </trkpt>
      <trkpt lat="44.36351" lon="5.94583">
        <ele>560</ele>
        <time>2019-03-16T13:41:19Z</time>
      </trkpt>
      <trkpt lat="44.36346" lon="5.94581">
        <ele>560</ele>
        <time>2019-03-16T13:41:20Z</time>
      </trkpt>
      <trkpt lat="44.3634" lon="5.94579">
        <ele>560</ele>
        <time>2019-03-16T13:41:21Z</time>
      </trkpt>
      <trkpt lat="44.36335" lon="5.94576">
        <ele>560</ele>
        <time>2019-03-16T13:41:22Z</time>
      </trkpt>
      <trkpt lat="44.36328" lon="5.94573">
        <ele>560</ele>
        <time>2019-03-16T13:41:23Z</time>
      </trkpt>
      <trkpt lat="44.36322" lon="5.94569">
        <ele>560</ele>
        <time>2019-03-16T13:41:24Z</time>
      </trkpt>
      <trkpt lat="44.36314" lon="5.94564">
        <ele>560</ele>
        <time>2019-03-16T13:41:25Z</time>
      </trkpt>
      <trkpt lat="44.36306" lon="5.94559">
        <ele>560</ele>
        <time>2019-03-16T13:41:26Z</time>
      </trkpt>
      <trkpt lat="44.36298" lon="5.94555">
        <ele>560</ele>
        <time>2019-03-16T13:41:27Z</time>
      </trkpt>
      <trkpt lat="44.36288" lon="5.94552">
        <ele>560</ele>
        <time>2019-03-16T13:41:28Z</time>
      </trkpt>
      <trkpt lat="44.36278" lon="5.94551">
        <ele>560</ele>
        <time>2019-03-16T13:41:29Z</time>
      </trkpt>
      <trkpt lat="44.36268" lon="5.94551">
        <ele>560</ele>
        <time>2019-03-16T13:41:30Z</time>
      </trkpt>
      <trkpt lat="44.36257" lon="5.94551">
        <ele>560</ele>
        <time>2019-03-16T13:41:31Z</time>
      </trkpt>
      <trkpt lat="44.36246" lon="5.94552">
        <ele>560</ele>
        <time>2019-03-16T13:41:32Z</time>
      </trkpt>
      <trkpt lat="44.36235" lon="5.94552">
        <ele>559</ele>
        <time>2019-03-16T13:41:33Z</time>
      </trkpt>
      <trkpt lat="44.36224" lon="5.94551">
        <ele>558</ele>
        <time>2019-03-16T13:41:34Z</time>
      </trkpt>
      <trkpt lat="44.36213" lon="5.94549">
        <ele>557</ele>
        <time>2019-03-16T13:41:35Z</time>
      </trkpt>
      <trkpt lat="44.36203" lon="5.94545">
        <ele>557</ele>
        <time>2019-03-16T13:41:36Z</time>
      </trkpt>
      <trkpt lat="44.36193" lon="5.94538">
        <ele>556</ele>
        <time>2019-03-16T13:41:37Z</time>
      </trkpt>
      <trkpt lat="44.36186" lon="5.9453">
        <ele>556</ele>
        <time>2019-03-16T13:41:38Z</time>
      </trkpt>
      <trkpt lat="44.3618" lon="5.9452">
        <ele>556</ele>
        <time>2019-03-16T13:41:39Z</time>
      </trkpt>
      <trkpt lat="44.36175" lon="5.94511">
        <ele>556</ele>
        <time>2019-03-16T13:41:40Z</time>
      </trkpt>
      <trkpt lat="44.36169" lon="5.94503">
        <ele>556</ele>
        <time>2019-03-16T13:41:41Z</time>
      </trkpt>
      <trkpt lat="44.36164" lon="5.94497">
        <ele>556</ele>
        <time>2019-03-16T13:41:42Z</time>
      </trkpt>
      <trkpt lat="44.36158" lon="5.94492">
        <ele>556</ele>
        <time>2019-03-16T13:41:43Z</time>
      </trkpt>
      <trkpt lat="44.36153" lon="5.94488">
        <ele>556</ele>
        <time>2019-03-16T13:41:44Z</time>
      </trkpt>
      <trkpt lat="44.36148" lon="5.94486">
        <ele>556</ele>
        <time>2019-03-16T13:41:45Z</time>
      </trkpt>
      <trkpt lat="44.36143" lon="5.94484">
        <ele>556</ele>
        <time>2019-03-16T13:41:46Z</time>
      </trkpt>
      <trkpt lat="44.36139" lon="5.94482">
        <ele>556</ele>
        <time>2019-03-16T13:41:47Z</time>
      </trkpt>
      <trkpt lat="44.36134" lon="5.94481">
        <ele>556</ele>
        <time>2019-03-16T13:41:48Z</time>
      </trkpt>
      <trkpt lat="44.3613" lon="5.94481">
        <ele>556</ele>
        <time>2019-03-16T13:41:49Z</time>
      </trkpt>
      <trkpt lat="44.36126" lon="5.9448">
        <ele>556</ele>
        <time>2019-03-16T13:41:50Z</time>
      </trkpt>
      <trkpt lat="44.36122" lon="5.94478">
        <ele>556</ele>
        <time>2019-03-16T13:41:51Z</time>
      </trkpt>
      <trkpt lat="44.36118" lon="5.94476">
        <ele>556</ele>
        <time>2019-03-16T13:41:52Z</time>
      </trkpt>
      <trkpt lat="44.36114" lon="5.94475">
        <ele>557</ele>
        <time>2019-03-16T13:41:53Z</time>
      </trkpt>
      <trkpt lat="44.3611" lon="5.94474">
        <ele>557</ele>
        <time>2019-03-16T13:41:54Z</time>
      </trkpt>
      <trkpt lat="44.36106" lon="5.94473">
        <ele>557</ele>
        <time>2019-03-16T13:41:55Z</time>
      </trkpt>
      <trkpt lat="44.36102" lon="5.94472">
        <ele>557</ele>
        <time>2019-03-16T13:41:56Z</time>
      </trkpt>
      <trkpt lat="44.36098" lon="5.94471">
        <ele>558</ele>
        <time>2019-03-16T13:41:57Z</time>
      </trkpt>
      <trkpt lat="44.36094" lon="5.94471">
        <ele>558</ele>
        <time>2019-03-16T13:41:58Z</time>
      </trkpt>
      <trkpt lat="44.3609" lon="5.9447">
        <ele>558</ele>
        <time>2019-03-16T13:41:59Z</time>
      </trkpt>
      <trkpt lat="44.36087" lon="5.94469">
        <ele>558</ele>
        <time>2019-03-16T13:42:00Z</time>
      </trkpt>
      <trkpt lat="44.36083" lon="5.94468">
        <ele>559</ele>
        <time>2019-03-16T13:42:01Z</time>
      </trkpt>
      <trkpt lat="44.36079" lon="5.94468">
        <ele>559</ele>
        <time>2019-03-16T13:42:02Z</time>
      </trkpt>
      <trkpt lat="44.36076" lon="5.94466">
        <ele>560</ele>
        <time>2019-03-16T13:42:03Z</time>
      </trkpt>
      <trkpt lat="44.36072" lon="5.94465">
        <ele>560</ele>
        <time>2019-03-16T13:42:04Z</time>
      </trkpt>
      <trkpt lat="44.36068" lon="5.94464">
        <ele>561</ele>
        <time>2019-03-16T13:42:05Z</time>
      </trkpt>
      <trkpt lat="44.36065" lon="5.94463">
        <ele>561</ele>
        <time>2019-03-16T13:42:06Z</time>
      </trkpt>
      <trkpt lat="44.3606" lon="5.94462">
        <ele>561</ele>
        <time>2019-03-16T13:42:07Z</time>
      </trkpt>
      <trkpt lat="44.36056" lon="5.94462">
        <ele>562</ele>
        <time>2019-03-16T13:42:08Z</time>
      </trkpt>
      <trkpt lat="44.36052" lon="5.94461">
        <ele>562</ele>
        <time>2019-03-16T13:42:09Z</time>
      </trkpt>
      <trkpt lat="44.36049" lon="5.9446">
        <ele>562</ele>
        <time>2019-03-16T13:42:10Z</time>
      </trkpt>
      <trkpt lat="44.36045" lon="5.94459">
        <ele>562</ele>
        <time>2019-03-16T13:42:11Z</time>
      </trkpt>
      <trkpt lat="44.36042" lon="5.94458">
        <ele>562</ele>
        <time>2019-03-16T13:42:12Z</time>
      </trkpt>
      <trkpt lat="44.36038" lon="5.94456">
        <ele>563</ele>
        <time>2019-03-16T13:42:13Z</time>
      </trkpt>
      <trkpt lat="44.36034" lon="5.94456">
        <ele>563</ele>
        <time>2019-03-16T13:42:14Z</time>
      </trkpt>
      <trkpt lat="44.3603" lon="5.94455">
        <ele>563</ele>
        <time>2019-03-16T13:42:15Z</time>
      </trkpt>
      <trkpt lat="44.36026" lon="5.94454">
        <ele>563</ele>
        <time>2019-03-16T13:42:16Z</time>
      </trkpt>
      <trkpt lat="44.36023" lon="5.94453">
        <ele>564</ele>
        <time>2019-03-16T13:42:17Z</time>
      </trkpt>
      <trkpt lat="44.36019" lon="5.94452">
        <ele>564</ele>
        <time>2019-03-16T13:42:18Z</time>
      </trkpt>
      <trkpt lat="44.36015" lon="5.9445">
        <ele>564</ele>
        <time>2019-03-16T13:42:19Z</time>
      </trkpt>
      <trkpt lat="44.36011" lon="5.94448">
        <ele>564</ele>
        <time>2019-03-16T13:42:20Z</time>
      </trkpt>
      <trkpt lat="44.36007" lon="5.94446">
        <ele>564</ele>
        <time>2019-03-16T13:42:21Z</time>
      </trkpt>
      <trkpt lat="44.36002" lon="5.94443">
        <ele>564</ele>
        <time>2019-03-16T13:42:22Z</time>
      </trkpt>
      <trkpt lat="44.35997" lon="5.94441">
        <ele>564</ele>
        <time>2019-03-16T13:42:23Z</time>
      </trkpt>
      <trkpt lat="44.35991" lon="5.94438">
        <ele>564</ele>
        <time>2019-03-16T13:42:24Z</time>
      </trkpt>
      <trkpt lat="44.35986" lon="5.94434">
        <ele>564</ele>
        <time>2019-03-16T13:42:25Z</time>
      </trkpt>
      <trkpt lat="44.35981" lon="5.9443">
        <ele>564</ele>
        <time>2019-03-16T13:42:26Z</time>
      </trkpt>
      <trkpt lat="44.35976" lon="5.94425">
        <ele>564</ele>
        <time>2019-03-16T13:42:27Z</time>
      </trkpt>
      <trkpt lat="44.35972" lon="5.9442">
        <ele>564</ele>
        <time>2019-03-16T13:42:28Z</time>
      </trkpt>
      <trkpt lat="44.35968" lon="5.94414">
        <ele>564</ele>
        <time>2019-03-16T13:42:29Z</time>
      </trkpt>
      <trkpt lat="44.35964" lon="5.94408">
        <ele>564</ele>
        <time>2019-03-16T13:42:30Z</time>
      </trkpt>
      <trkpt lat="44.3596" lon="5.94402">
        <ele>564</ele>
        <time>2019-03-16T13:42:31Z</time>
      </trkpt>
      <trkpt lat="44.35957" lon="5.94396">
        <ele>564</ele>
        <time>2019-03-16T13:42:32Z</time>
      </trkpt>
      <trkpt lat="44.35955" lon="5.9439">
        <ele>564</ele>
        <time>2019-03-16T13:42:33Z</time>
      </trkpt>
      <trkpt lat="44.35952" lon="5.94385">
        <ele>564</ele>
        <time>2019-03-16T13:42:34Z</time>
      </trkpt>
      <trkpt lat="44.35949" lon="5.94379">
        <ele>564</ele>
        <time>2019-03-16T13:42:35Z</time>
      </trkpt>
      <trkpt lat="44.35946" lon="5.94374">
        <ele>564</ele>
        <time>2019-03-16T13:42:36Z</time>
      </trkpt>
      <trkpt lat="44.35943" lon="5.94369">
        <ele>564</ele>
        <time>2019-03-16T13:42:37Z</time>
      </trkpt>
      <trkpt lat="44.3594" lon="5.94364">
        <ele>564</ele>
        <time>2019-03-16T13:42:38Z</time>
      </trkpt>
      <trkpt lat="44.35936" lon="5.94359">
        <ele>564</ele>
        <time>2019-03-16T13:42:39Z</time>
      </trkpt>
      <trkpt lat="44.35933" lon="5.94355">
        <ele>564</ele>
        <time>2019-03-16T13:42:40Z</time>
      </trkpt>
      <trkpt lat="44.35929" lon="5.94351">
        <ele>564</ele>
        <time>2019-03-16T13:42:41Z</time>
      </trkpt>
      <trkpt lat="44.35924" lon="5.94347">
        <ele>564</ele>
        <time>2019-03-16T13:42:42Z</time>
      </trkpt>
      <trkpt lat="44.35919" lon="5.94344">
        <ele>564</ele>
        <time>2019-03-16T13:42:43Z</time>
      </trkpt>
      <trkpt lat="44.35914" lon="5.9434">
        <ele>564</ele>
        <time>2019-03-16T13:42:44Z</time>
      </trkpt>
      <trkpt lat="44.35909" lon="5.94336">
        <ele>564</ele>
        <time>2019-03-16T13:42:45Z</time>
      </trkpt>
      <trkpt lat="44.35903" lon="5.94332">
        <ele>564</ele>
        <time>2019-03-16T13:42:46Z</time>
      </trkpt>
      <trkpt lat="44.35898" lon="5.94327">
        <ele>564</ele>
        <time>2019-03-16T13:42:47Z</time>
      </trkpt>
      <trkpt lat="44.35893" lon="5.94321">
        <ele>564</ele>
        <time>2019-03-16T13:42:48Z</time>
      </trkpt>
      <trkpt lat="44.35889" lon="5.94315">
        <ele>564</ele>
        <time>2019-03-16T13:42:49Z</time>
      </trkpt>
      <trkpt lat="44.35885" lon="5.94309">
        <ele>564</ele>
        <time>2019-03-16T13:42:50Z</time>
      </trkpt>
      <trkpt lat="44.35881" lon="5.94303">
        <ele>564</ele>
        <time>2019-03-16T13:42:51Z</time>
      </trkpt>
      <trkpt lat="44.35878" lon="5.94297">
        <ele>564</ele>
        <time>2019-03-16T13:42:52Z</time>
      </trkpt>
      <trkpt lat="44.35875" lon="5.94291">
        <ele>564</ele>
        <time>2019-03-16T13:42:53Z</time>
      </trkpt>
      <trkpt lat="44.35871" lon="5.94285">
        <ele>564</ele>
        <time>2019-03-16T13:42:54Z</time>
      </trkpt>
      <trkpt lat="44.35868" lon="5.94279">
        <ele>564</ele>
        <time>2019-03-16T13:42:55Z</time>
      </trkpt>
      <trkpt lat="44.35865" lon="5.94274">
        <ele>564</ele>
        <time>2019-03-16T13:42:56Z</time>
      </trkpt>
      <trkpt lat="44.35861" lon="5.94268">
        <ele>564</ele>
        <time>2019-03-16T13:42:57Z</time>
      </trkpt>
      <trkpt lat="44.35857" lon="5.94263">
        <ele>565</ele>
        <time>2019-03-16T13:42:58Z</time>
      </trkpt>
      <trkpt lat="44.35853" lon="5.94257">
        <ele>565</ele>
        <time>2019-03-16T13:42:59Z</time>
      </trkpt>
      <trkpt lat="44.35849" lon="5.94252">
        <ele>565</ele>
        <time>2019-03-16T13:43:00Z</time>
      </trkpt>
      <trkpt lat="44.35845" lon="5.94247">
        <ele>565</ele>
        <time>2019-03-16T13:43:01Z</time>
      </trkpt>
      <trkpt lat="44.35841" lon="5.94242">
        <ele>565</ele>
        <time>2019-03-16T13:43:02Z</time>
      </trkpt>
      <trkpt lat="44.35836" lon="5.94237">
        <ele>566</ele>
        <time>2019-03-16T13:43:03Z</time>
      </trkpt>
      <trkpt lat="44.35832" lon="5.94233">
        <ele>566</ele>
        <time>2019-03-16T13:43:04Z</time>
      </trkpt>
      <trkpt lat="44.35827" lon="5.94228">
        <ele>566</ele>
        <time>2019-03-16T13:43:05Z</time>
      </trkpt>
      <trkpt lat="44.35823" lon="5.94223">
        <ele>566</ele>
        <time>2019-03-16T13:43:06Z</time>
      </trkpt>
      <trkpt lat="44.35819" lon="5.94218">
        <ele>567</ele>
        <time>2019-03-16T13:43:07Z</time>
      </trkpt>
      <trkpt lat="44.35814" lon="5.94213">
        <ele>567</ele>
        <time>2019-03-16T13:43:08Z</time>
      </trkpt>
      <trkpt lat="44.3581" lon="5.94208">
        <ele>567</ele>
        <time>2019-03-16T13:43:09Z</time>
      </trkpt>
      <trkpt lat="44.35805" lon="5.94204">
        <ele>567</ele>
        <time>2019-03-16T13:43:10Z</time>
      </trkpt>
      <trkpt lat="44.35801" lon="5.942">
        <ele>568</ele>
        <time>2019-03-16T13:43:11Z</time>
      </trkpt>
      <trkpt lat="44.35796" lon="5.94196">
        <ele>568</ele>
        <time>2019-03-16T13:43:12Z</time>
      </trkpt>
      <trkpt lat="44.35791" lon="5.94192">
        <ele>568</ele>
        <time>2019-03-16T13:43:13Z</time>
      </trkpt>
      <trkpt lat="44.35786" lon="5.94188">
        <ele>568</ele>
        <time>2019-03-16T13:43:14Z</time>
      </trkpt>
      <trkpt lat="44.35781" lon="5.94184">
        <ele>568</ele>
        <time>2019-03-16T13:43:15Z</time>
      </trkpt>
      <trkpt lat="44.35777" lon="5.94181">
        <ele>568</ele>
        <time>2019-03-16T13:43:16Z</time>
      </trkpt>
      <trkpt lat="44.35772" lon="5.94177">
        <ele>568</ele>
        <time>2019-03-16T13:43:17Z</time>
      </trkpt>
      <trkpt lat="44.35767" lon="5.94174">
        <ele>568</ele>
        <time>2019-03-16T13:43:18Z</time>
      </trkpt>
      <trkpt lat="44.35762" lon="5.94171">
        <ele>568</ele>
        <time>2019-03-16T13:43:19Z</time>
      </trkpt>
      <trkpt lat="44.35757" lon="5.94167">
        <ele>568</ele>
        <time>2019-03-16T13:43:20Z</time>
      </trkpt>
      <trkpt lat="44.35752" lon="5.94164">
        <ele>568</ele>
        <time>2019-03-16T13:43:21Z</time>
      </trkpt>
      <trkpt lat="44.35747" lon="5.94161">
        <ele>569</ele>
        <time>2019-03-16T13:43:22Z</time>
      </trkpt>
      <trkpt lat="44.35743" lon="5.94158">
        <ele>569</ele>
        <time>2019-03-16T13:43:23Z</time>
      </trkpt>
      <trkpt lat="44.35738" lon="5.94155">
        <ele>569</ele>
        <time>2019-03-16T13:43:24Z</time>
      </trkpt>
      <trkpt lat="44.35733" lon="5.94151">
        <ele>569</ele>
        <time>2019-03-16T13:43:25Z</time>
      </trkpt>
      <trkpt lat="44.35728" lon="5.94148">
        <ele>569</ele>
        <time>2019-03-16T13:43:26Z</time>
      </trkpt>
      <trkpt lat="44.35723" lon="5.94146">
        <ele>569</ele>
        <time>2019-03-16T13:43:27Z</time>
      </trkpt>
      <trkpt lat="44.35719" lon="5.94143">
        <ele>569</ele>
        <time>2019-03-16T13:43:28Z</time>
      </trkpt>
      <trkpt lat="44.35714" lon="5.9414">
        <ele>569</ele>
        <time>2019-03-16T13:43:29Z</time>
      </trkpt>
      <trkpt lat="44.35709" lon="5.94137">
        <ele>569</ele>
        <time>2019-03-16T13:43:30Z</time>
      </trkpt>
      <trkpt lat="44.35703" lon="5.94134">
        <ele>569</ele>
        <time>2019-03-16T13:43:31Z</time>
      </trkpt>
      <trkpt lat="44.35698" lon="5.94131">
        <ele>569</ele>
        <time>2019-03-16T13:43:32Z</time>
      </trkpt>
      <trkpt lat="44.35692" lon="5.94128">
        <ele>569</ele>
        <time>2019-03-16T13:43:33Z</time>
      </trkpt>
      <trkpt lat="44.35685" lon="5.94125">
        <ele>569</ele>
        <time>2019-03-16T13:43:34Z</time>
      </trkpt>
      <trkpt lat="44.35679" lon="5.94122">
        <ele>569</ele>
        <time>2019-03-16T13:43:35Z</time>
      </trkpt>
      <trkpt lat="44.35673" lon="5.94118">
        <ele>569</ele>
        <time>2019-03-16T13:43:36Z</time>
      </trkpt>
      <trkpt lat="44.35666" lon="5.94115">
        <ele>569</ele>
        <time>2019-03-16T13:43:37Z</time>
      </trkpt>
      <trkpt lat="44.3566" lon="5.94112">
        <ele>569</ele>
        <time>2019-03-16T13:43:38Z</time>
      </trkpt>
      <trkpt lat="44.35654" lon="5.94109">
        <ele>569</ele>
        <time>2019-03-16T13:43:39Z</time>
      </trkpt>
      <trkpt lat="44.35647" lon="5.94105">
        <ele>569</ele>
        <time>2019-03-16T13:43:40Z</time>
      </trkpt>
      <trkpt lat="44.35641" lon="5.94102">
        <ele>569</ele>
        <time>2019-03-16T13:43:41Z</time>
      </trkpt>
      <trkpt lat="44.35635" lon="5.94099">
        <ele>569</ele>
        <time>2019-03-16T13:43:42Z</time>
      </trkpt>
      <trkpt lat="44.35629" lon="5.94096">
        <ele>569</ele>
        <time>2019-03-16T13:43:43Z</time>
      </trkpt>
      <trkpt lat="44.35623" lon="5.94093">
        <ele>569</ele>
        <time>2019-03-16T13:43:44Z</time>
      </trkpt>
      <trkpt lat="44.35617" lon="5.94089">
        <ele>569</ele>
        <time>2019-03-16T13:43:45Z</time>
      </trkpt>
      <trkpt lat="44.35611" lon="5.94086">
        <ele>569</ele>
        <time>2019-03-16T13:43:46Z</time>
      </trkpt>
      <trkpt lat="44.35605" lon="5.94083">
        <ele>569</ele>
        <time>2019-03-16T13:43:47Z</time>
      </trkpt>
      <trkpt lat="44.35599" lon="5.94079">
        <ele>569</ele>
        <time>2019-03-16T13:43:48Z</time>
      </trkpt>
      <trkpt lat="44.35594" lon="5.94076">
        <ele>569</ele>
        <time>2019-03-16T13:43:49Z</time>
      </trkpt>
      <trkpt lat="44.35588" lon="5.94073">
        <ele>569</ele>
        <time>2019-03-16T13:43:50Z</time>
      </trkpt>
      <trkpt lat="44.35583" lon="5.9407">
        <ele>569</ele>
        <time>2019-03-16T13:43:51Z</time>
      </trkpt>
      <trkpt lat="44.35577" lon="5.94066">
        <ele>569</ele>
        <time>2019-03-16T13:43:52Z</time>
      </trkpt>
      <trkpt lat="44.35572" lon="5.94063">
        <ele>569</ele>
        <time>2019-03-16T13:43:53Z</time>
      </trkpt>
      <trkpt lat="44.35566" lon="5.9406">
        <ele>569</ele>
        <time>2019-03-16T13:43:54Z</time>
      </trkpt>
      <trkpt lat="44.35561" lon="5.94057">
        <ele>569</ele>
        <time>2019-03-16T13:43:55Z</time>
      </trkpt>
      <trkpt lat="44.35556" lon="5.94055">
        <ele>569</ele>
        <time>2019-03-16T13:43:56Z</time>
      </trkpt>
      <trkpt lat="44.3555" lon="5.94052">
        <ele>569</ele>
        <time>2019-03-16T13:43:57Z</time>
      </trkpt>
      <trkpt lat="44.35544" lon="5.9405">
        <ele>569</ele>
        <time>2019-03-16T13:43:58Z</time>
      </trkpt>
      <trkpt lat="44.35538" lon="5.94048">
        <ele>569</ele>
        <time>2019-03-16T13:43:59Z</time>
      </trkpt>
      <trkpt lat="44.35531" lon="5.94046">
        <ele>569</ele>
        <time>2019-03-16T13:44:00Z</time>
      </trkpt>
      <trkpt lat="44.35524" lon="5.94045">
        <ele>569</ele>
        <time>2019-03-16T13:44:01Z</time>
      </trkpt>
      <trkpt lat="44.35517" lon="5.94045">
        <ele>569</ele>
        <time>2019-03-16T13:44:02Z</time>
      </trkpt>
      <trkpt lat="44.3551" lon="5.94045">
        <ele>569</ele>
        <time>2019-03-16T13:44:03Z</time>
      </trkpt>
      <trkpt lat="44.35503" lon="5.94046">
        <ele>569</ele>
        <time>2019-03-16T13:44:04Z</time>
      </trkpt>
      <trkpt lat="44.35496" lon="5.94047">
        <ele>569</ele>
        <time>2019-03-16T13:44:05Z</time>
      </trkpt>
      <trkpt lat="44.35489" lon="5.94047">
        <ele>569</ele>
        <time>2019-03-16T13:44:06Z</time>
      </trkpt>
      <trkpt lat="44.35481" lon="5.94048">
        <ele>569</ele>
        <time>2019-03-16T13:44:07Z</time>
      </trkpt>
      <trkpt lat="44.35473" lon="5.94049">
        <ele>569</ele>
        <time>2019-03-16T13:44:08Z</time>
      </trkpt>
      <trkpt lat="44.35464" lon="5.9405">
        <ele>569</ele>
        <time>2019-03-16T13:44:09Z</time>
      </trkpt>
      <trkpt lat="44.35456" lon="5.94049">
        <ele>569</ele>
        <time>2019-03-16T13:44:10Z</time>
      </trkpt>
      <trkpt lat="44.35447" lon="5.94047">
        <ele>569</ele>
        <time>2019-03-16T13:44:11Z</time>
      </trkpt>
      <trkpt lat="44.35439" lon="5.94043">
        <ele>568</ele>
        <time>2019-03-16T13:44:12Z</time>
      </trkpt>
      <trkpt lat="44.35431" lon="5.94037">
        <ele>568</ele>
        <time>2019-03-16T13:44:13Z</time>
      </trkpt>
      <trkpt lat="44.35424" lon="5.94031">
        <ele>568</ele>
        <time>2019-03-16T13:44:14Z</time>
      </trkpt>
      <trkpt lat="44.35417" lon="5.94024">
        <ele>568</ele>
        <time>2019-03-16T13:44:15Z</time>
      </trkpt>
      <trkpt lat="44.35411" lon="5.94017">
        <ele>568</ele>
        <time>2019-03-16T13:44:16Z</time>
      </trkpt>
      <trkpt lat="44.35404" lon="5.94011">
        <ele>568</ele>
        <time>2019-03-16T13:44:17Z</time>
      </trkpt>
      <trkpt lat="44.35398" lon="5.94007">
        <ele>568</ele>
        <time>2019-03-16T13:44:18Z</time>
      </trkpt>
      <trkpt lat="44.35392" lon="5.94003">
        <ele>568</ele>
        <time>2019-03-16T13:44:19Z</time>
      </trkpt>
      <trkpt lat="44.35386" lon="5.93999">
        <ele>568</ele>
        <time>2019-03-16T13:44:20Z</time>
      </trkpt>
      <trkpt lat="44.35379" lon="5.93996">
        <ele>568</ele>
        <time>2019-03-16T13:44:21Z</time>
      </trkpt>
      <trkpt lat="44.35373" lon="5.93994">
        <ele>568</ele>
        <time>2019-03-16T13:44:22Z</time>
      </trkpt>
      <trkpt lat="44.35367" lon="5.93991">
        <ele>568</ele>
        <time>2019-03-16T13:44:23Z</time>
      </trkpt>
      <trkpt lat="44.35362" lon="5.93987">
        <ele>568</ele>
        <time>2019-03-16T13:44:24Z</time>
      </trkpt>
      <trkpt lat="44.35357" lon="5.93984">
        <ele>568</ele>
        <time>2019-03-16T13:44:25Z</time>
      </trkpt>
      <trkpt lat="44.35351" lon="5.93982">
        <ele>568</ele>
        <time>2019-03-16T13:44:26Z</time>
      </trkpt>
      <trkpt lat="44.35346" lon="5.93979">
        <ele>568</ele>
        <time>2019-03-16T13:44:27Z</time>
      </trkpt>
      <trkpt lat="44.35341" lon="5.93975">
        <ele>568</ele>
        <time>2019-03-16T13:44:28Z</time>
      </trkpt>
      <trkpt lat="44.35336" lon="5.93972">
        <ele>568</ele>
        <time>2019-03-16T13:44:29Z</time>
      </trkpt>
      <trkpt lat="44.35331" lon="5.93969">
        <ele>568</ele>
        <time>2019-03-16T13:44:30Z</time>
      </trkpt>
      <trkpt lat="44.35326" lon="5.93966">
        <ele>568</ele>
        <time>2019-03-16T13:44:31Z</time>
      </trkpt>
      <trkpt lat="44.35321" lon="5.93964">
        <ele>568</ele>
        <time>2019-03-16T13:44:32Z</time>
      </trkpt>
      <trkpt lat="44.35315" lon="5.93961">
        <ele>568</ele>
        <time>2019-03-16T13:44:33Z</time>
      </trkpt>
      <trkpt lat="44.3531" lon="5.93958">
        <ele>568</ele>
        <time>2019-03-16T13:44:34Z</time>
      </trkpt>
      <trkpt lat="44.35305" lon="5.93955">
        <ele>568</ele>
        <time>2019-03-16T13:44:35Z</time>
      </trkpt>
      <trkpt lat="44.353" lon="5.93952">
        <ele>568</ele>
        <time>2019-03-16T13:44:36Z</time>
      </trkpt>
      <trkpt lat="44.35295" lon="5.93949">
        <ele>568</ele>
        <time>2019-03-16T13:44:37Z</time>
      </trkpt>
      <trkpt lat="44.35291" lon="5.93945">
        <ele>568</ele>
        <time>2019-03-16T13:44:38Z</time>
      </trkpt>
      <trkpt lat="44.35286" lon="5.93942">
        <ele>568</ele>
        <time>2019-03-16T13:44:39Z</time>
      </trkpt>
      <trkpt lat="44.35281" lon="5.93939">
        <ele>568</ele>
        <time>2019-03-16T13:44:40Z</time>
      </trkpt>
      <trkpt lat="44.35276" lon="5.93936">
        <ele>568</ele>
        <time>2019-03-16T13:44:41Z</time>
      </trkpt>
      <trkpt lat="44.3527" lon="5.93932">
        <ele>568</ele>
        <time>2019-03-16T13:44:42Z</time>
      </trkpt>
      <trkpt lat="44.35265" lon="5.93929">
        <ele>568</ele>
        <time>2019-03-16T13:44:43Z</time>
      </trkpt>
      <trkpt lat="44.3526" lon="5.93927">
        <ele>568</ele>
        <time>2019-03-16T13:44:44Z</time>
      </trkpt>
      <trkpt lat="44.35254" lon="5.93923">
        <ele>568</ele>
        <time>2019-03-16T13:44:45Z</time>
      </trkpt>
      <trkpt lat="44.35249" lon="5.9392">
        <ele>568</ele>
        <time>2019-03-16T13:44:46Z</time>
      </trkpt>
      <trkpt lat="44.35244" lon="5.93917">
        <ele>568</ele>
        <time>2019-03-16T13:44:47Z</time>
      </trkpt>
      <trkpt lat="44.35239" lon="5.93914">
        <ele>568</ele>
        <time>2019-03-16T13:44:48Z</time>
      </trkpt>
      <trkpt lat="44.35234" lon="5.9391">
        <ele>568</ele>
        <time>2019-03-16T13:44:49Z</time>
      </trkpt>
      <trkpt lat="44.35229" lon="5.93907">
        <ele>568</ele>
        <time>2019-03-16T13:44:50Z</time>
      </trkpt>
      <trkpt lat="44.35224" lon="5.93904">
        <ele>568</ele>
        <time>2019-03-16T13:44:51Z</time>
      </trkpt>
      <trkpt lat="44.35219" lon="5.93902">
        <ele>568</ele>
        <time>2019-03-16T13:44:52Z</time>
      </trkpt>
      <trkpt lat="44.35215" lon="5.93899">
        <ele>568</ele>
        <time>2019-03-16T13:44:53Z</time>
      </trkpt>
      <trkpt lat="44.3521" lon="5.93896">
        <ele>568</ele>
        <time>2019-03-16T13:44:54Z</time>
      </trkpt>
      <trkpt lat="44.35206" lon="5.93893">
        <ele>568</ele>
        <time>2019-03-16T13:44:55Z</time>
      </trkpt>
      <trkpt lat="44.35202" lon="5.9389">
        <ele>568</ele>
        <time>2019-03-16T13:44:56Z</time>
      </trkpt>
      <trkpt lat="44.35197" lon="5.93887">
        <ele>569</ele>
        <time>2019-03-16T13:44:57Z</time>
      </trkpt>
      <trkpt lat="44.35193" lon="5.93885">
        <ele>569</ele>
        <time>2019-03-16T13:44:58Z</time>
      </trkpt>
      <trkpt lat="44.35189" lon="5.93882">
        <ele>569</ele>
        <time>2019-03-16T13:44:59Z</time>
      </trkpt>
      <trkpt lat="44.35184" lon="5.93879">
        <ele>569</ele>
        <time>2019-03-16T13:45:00Z</time>
      </trkpt>
      <trkpt lat="44.3518" lon="5.93875">
        <ele>569</ele>
        <time>2019-03-16T13:45:01Z</time>
      </trkpt>
      <trkpt lat="44.35175" lon="5.93872">
        <ele>569</ele>
        <time>2019-03-16T13:45:02Z</time>
      </trkpt>
      <trkpt lat="44.3517" lon="5.93869">
        <ele>569</ele>
        <time>2019-03-16T13:45:03Z</time>
      </trkpt>
      <trkpt lat="44.35165" lon="5.93865">
        <ele>569</ele>
        <time>2019-03-16T13:45:04Z</time>
      </trkpt>
      <trkpt lat="44.35159" lon="5.93862">
        <ele>569</ele>
        <time>2019-03-16T13:45:05Z</time>
      </trkpt>
      <trkpt lat="44.35154" lon="5.93858">
        <ele>569</ele>
        <time>2019-03-16T13:45:06Z</time>
      </trkpt>
      <trkpt lat="44.35148" lon="5.93854">
        <ele>569</ele>
        <time>2019-03-16T13:45:07Z</time>
      </trkpt>
      <trkpt lat="44.35142" lon="5.93849">
        <ele>569</ele>
        <time>2019-03-16T13:45:08Z</time>
      </trkpt>
      <trkpt lat="44.35136" lon="5.93845">
        <ele>569</ele>
        <time>2019-03-16T13:45:09Z</time>
      </trkpt>
      <trkpt lat="44.35129" lon="5.93841">
        <ele>569</ele>
        <time>2019-03-16T13:45:10Z</time>
      </trkpt>
      <trkpt lat="44.35123" lon="5.93836">
        <ele>569</ele>
        <time>2019-03-16T13:45:11Z</time>
      </trkpt>
      <trkpt lat="44.35117" lon="5.93832">
        <ele>569</ele>
        <time>2019-03-16T13:45:12Z</time>
      </trkpt>
      <trkpt lat="44.35111" lon="5.93827">
        <ele>569</ele>
        <time>2019-03-16T13:45:13Z</time>
      </trkpt>
      <trkpt lat="44.35106" lon="5.93823">
        <ele>569</ele>
        <time>2019-03-16T13:45:14Z</time>
      </trkpt>
      <trkpt lat="44.351" lon="5.93819">
        <ele>569</ele>
        <time>2019-03-16T13:45:15Z</time>
      </trkpt>
      <trkpt lat="44.35094" lon="5.93815">
        <ele>569</ele>
        <time>2019-03-16T13:45:16Z</time>
      </trkpt>
      <trkpt lat="44.35088" lon="5.93811">
        <ele>569</ele>
        <time>2019-03-16T13:45:17Z</time>
      </trkpt>
      <trkpt lat="44.35083" lon="5.93807">
        <ele>569</ele>
        <time>2019-03-16T13:45:18Z</time>
      </trkpt>
      <trkpt lat="44.35077" lon="5.93803">
        <ele>569</ele>
        <time>2019-03-16T13:45:19Z</time>
      </trkpt>
      <trkpt lat="44.35072" lon="5.93799">
        <ele>569</ele>
        <time>2019-03-16T13:45:20Z</time>
      </trkpt>
      <trkpt lat="44.35066" lon="5.93796">
        <ele>569</ele>
        <time>2019-03-16T13:45:21Z</time>
      </trkpt>
      <trkpt lat="44.35061" lon="5.93793">
        <ele>569</ele>
        <time>2019-03-16T13:45:22Z</time>
      </trkpt>
      <trkpt lat="44.35056" lon="5.9379">
        <ele>569</ele>
        <time>2019-03-16T13:45:23Z</time>
      </trkpt>
      <trkpt lat="44.3505" lon="5.93787">
        <ele>569</ele>
        <time>2019-03-16T13:45:24Z</time>
      </trkpt>
      <trkpt lat="44.35045" lon="5.93785">
        <ele>569</ele>
        <time>2019-03-16T13:45:25Z</time>
      </trkpt>
      <trkpt lat="44.3504" lon="5.93783">
        <ele>569</ele>
        <time>2019-03-16T13:45:26Z</time>
      </trkpt>
      <trkpt lat="44.35034" lon="5.9378">
        <ele>569</ele>
        <time>2019-03-16T13:45:27Z</time>
      </trkpt>
      <trkpt lat="44.35029" lon="5.93778">
        <ele>569</ele>
        <time>2019-03-16T13:45:28Z</time>
      </trkpt>
      <trkpt lat="44.35024" lon="5.93776">
        <ele>569</ele>
        <time>2019-03-16T13:45:29Z</time>
      </trkpt>
      <trkpt lat="44.35019" lon="5.93774">
        <ele>569</ele>
        <time>2019-03-16T13:45:30Z</time>
      </trkpt>
      <trkpt lat="44.35014" lon="5.93772">
        <ele>569</ele>
        <time>2019-03-16T13:45:31Z</time>
      </trkpt>
      <trkpt lat="44.35009" lon="5.9377">
        <ele>569</ele>
        <time>2019-03-16T13:45:32Z</time>
      </trkpt>
      <trkpt lat="44.35004" lon="5.93768">
        <ele>569</ele>
        <time>2019-03-16T13:45:33Z</time>
      </trkpt>
      <trkpt lat="44.34999" lon="5.93765">
        <ele>569</ele>
        <time>2019-03-16T13:45:34Z</time>
      </trkpt>
      <trkpt lat="44.34994" lon="5.93764">
        <ele>569</ele>
        <time>2019-03-16T13:45:35Z</time>
      </trkpt>
      <trkpt lat="44.34989" lon="5.93761">
        <ele>569</ele>
        <time>2019-03-16T13:45:36Z</time>
      </trkpt>
      <trkpt lat="44.34984" lon="5.93759">
        <ele>569</ele>
        <time>2019-03-16T13:45:37Z</time>
      </trkpt>
      <trkpt lat="44.34979" lon="5.93756">
        <ele>569</ele>
        <time>2019-03-16T13:45:38Z</time>
      </trkpt>
      <trkpt lat="44.34974" lon="5.93752">
        <ele>569</ele>
        <time>2019-03-16T13:45:39Z</time>
      </trkpt>
      <trkpt lat="44.34967" lon="5.93749">
        <ele>569</ele>
        <time>2019-03-16T13:45:40Z</time>
      </trkpt>
      <trkpt lat="44.34961" lon="5.93745">
        <ele>569</ele>
        <time>2019-03-16T13:45:41Z</time>
      </trkpt>
      <trkpt lat="44.34954" lon="5.93741">
        <ele>569</ele>
        <time>2019-03-16T13:45:42Z</time>
      </trkpt>
      <trkpt lat="44.34948" lon="5.93736">
        <ele>569</ele>
        <time>2019-03-16T13:45:43Z</time>
      </trkpt>
      <trkpt lat="44.3494" lon="5.93731">
        <ele>569</ele>
        <time>2019-03-16T13:45:44Z</time>
      </trkpt>
      <trkpt lat="44.34932" lon="5.93726">
        <ele>569</ele>
        <time>2019-03-16T13:45:45Z</time>
      </trkpt>
      <trkpt lat="44.34924" lon="5.93721">
        <ele>569</ele>
        <time>2019-03-16T13:45:46Z</time>
      </trkpt>
      <trkpt lat="44.34916" lon="5.93716">
        <ele>569</ele>
        <time>2019-03-16T13:45:47Z</time>
      </trkpt>
      <trkpt lat="44.34907" lon="5.93711">
        <ele>569</ele>
        <time>2019-03-16T13:45:48Z</time>
      </trkpt>
      <trkpt lat="44.34899" lon="5.93706">
        <ele>569</ele>
        <time>2019-03-16T13:45:49Z</time>
      </trkpt>
      <trkpt lat="44.34891" lon="5.93701">
        <ele>569</ele>
        <time>2019-03-16T13:45:50Z</time>
      </trkpt>
      <trkpt lat="44.34883" lon="5.93695">
        <ele>569</ele>
        <time>2019-03-16T13:45:51Z</time>
      </trkpt>
      <trkpt lat="44.34875" lon="5.93691">
        <ele>569</ele>
        <time>2019-03-16T13:45:52Z</time>
      </trkpt>
      <trkpt lat="44.34868" lon="5.93686">
        <ele>569</ele>
        <time>2019-03-16T13:45:53Z</time>
      </trkpt>
      <trkpt lat="44.34861" lon="5.93681">
        <ele>569</ele>
        <time>2019-03-16T13:45:54Z</time>
      </trkpt>
      <trkpt lat="44.34854" lon="5.93676">
        <ele>569</ele>
        <time>2019-03-16T13:45:55Z</time>
      </trkpt>
      <trkpt lat="44.34847" lon="5.93671">
        <ele>569</ele>
        <time>2019-03-16T13:45:56Z</time>
      </trkpt>
      <trkpt lat="44.3484" lon="5.93666">
        <ele>569</ele>
        <time>2019-03-16T13:45:57Z</time>
      </trkpt>
      <trkpt lat="44.34834" lon="5.93661">
        <ele>569</ele>
        <time>2019-03-16T13:45:58Z</time>
      </trkpt>
      <trkpt lat="44.34828" lon="5.93656">
        <ele>569</ele>
        <time>2019-03-16T13:45:59Z</time>
      </trkpt>
      <trkpt lat="44.34822" lon="5.93651">
        <ele>569</ele>
        <time>2019-03-16T13:46:00Z</time>
      </trkpt>
      <trkpt lat="44.34817" lon="5.93646">
        <ele>569</ele>
        <time>2019-03-16T13:46:01Z</time>
      </trkpt>
      <trkpt lat="44.34811" lon="5.93641">
        <ele>569</ele>
        <time>2019-03-16T13:46:02Z</time>
      </trkpt>
      <trkpt lat="44.34806" lon="5.93635">
        <ele>569</ele>
        <time>2019-03-16T13:46:03Z</time>
      </trkpt>
      <trkpt lat="44.348" lon="5.9363">
        <ele>569</ele>
        <time>2019-03-16T13:46:04Z</time>
      </trkpt>
      <trkpt lat="44.34795" lon="5.93624">
        <ele>569</ele>
        <time>2019-03-16T13:46:05Z</time>
      </trkpt>
      <trkpt lat="44.3479" lon="5.93619">
        <ele>569</ele>
        <time>2019-03-16T13:46:06Z</time>
      </trkpt>
      <trkpt lat="44.34785" lon="5.93613">
        <ele>569</ele>
        <time>2019-03-16T13:46:07Z</time>
      </trkpt>
      <trkpt lat="44.34779" lon="5.93608">
        <ele>569</ele>
        <time>2019-03-16T13:46:08Z</time>
      </trkpt>
      <trkpt lat="44.34774" lon="5.93602">
        <ele>569</ele>
        <time>2019-03-16T13:46:09Z</time>
      </trkpt>
      <trkpt lat="44.34768" lon="5.93596">
        <ele>569</ele>
        <time>2019-03-16T13:46:10Z</time>
      </trkpt>
      <trkpt lat="44.34763" lon="5.9359">
        <ele>569</ele>
        <time>2019-03-16T13:46:11Z</time>
      </trkpt>
      <trkpt lat="44.34757" lon="5.93583">
        <ele>569</ele>
        <time>2019-03-16T13:46:12Z</time>
      </trkpt>
      <trkpt lat="44.34751" lon="5.93577">
        <ele>569</ele>
        <time>2019-03-16T13:46:13Z</time>
      </trkpt>
      <trkpt lat="44.34745" lon="5.93571">
        <ele>569</ele>
        <time>2019-03-16T13:46:14Z</time>
      </trkpt>
      <trkpt lat="44.3474" lon="5.93565">
        <ele>569</ele>
        <time>2019-03-16T13:46:15Z</time>
      </trkpt>
      <trkpt lat="44.34734" lon="5.93558">
        <ele>569</ele>
        <time>2019-03-16T13:46:16Z</time>
      </trkpt>
      <trkpt lat="44.34728" lon="5.93552">
        <ele>569</ele>
        <time>2019-03-16T13:46:17Z</time>
      </trkpt>
      <trkpt lat="44.34722" lon="5.93545">
        <ele>569</ele>
        <time>2019-03-16T13:46:18Z</time>
      </trkpt>
      <trkpt lat="44.34717" lon="5.93539">
        <ele>569</ele>
        <time>2019-03-16T13:46:19Z</time>
      </trkpt>
      <trkpt lat="44.34711" lon="5.93532">
        <ele>569</ele>
        <time>2019-03-16T13:46:20Z</time>
      </trkpt>
      <trkpt lat="44.34705" lon="5.93525">
        <ele>569</ele>
        <time>2019-03-16T13:46:21Z</time>
      </trkpt>
      <trkpt lat="44.34699" lon="5.93518">
        <ele>569</ele>
        <time>2019-03-16T13:46:22Z</time>
      </trkpt>
      <trkpt lat="44.34692" lon="5.93511">
        <ele>569</ele>
        <time>2019-03-16T13:46:23Z</time>
      </trkpt>
      <trkpt lat="44.34686" lon="5.93505">
        <ele>569</ele>
        <time>2019-03-16T13:46:24Z</time>
      </trkpt>
      <trkpt lat="44.3468" lon="5.93498">
        <ele>569</ele>
        <time>2019-03-16T13:46:25Z</time>
      </trkpt>
      <trkpt lat="44.34674" lon="5.93491">
        <ele>569</ele>
        <time>2019-03-16T13:46:26Z</time>
      </trkpt>
      <trkpt lat="44.34668" lon="5.93484">
        <ele>569</ele>
        <time>2019-03-16T13:46:27Z</time>
      </trkpt>
      <trkpt lat="44.34661" lon="5.93478">
        <ele>569</ele>
        <time>2019-03-16T13:46:28Z</time>
      </trkpt>
      <trkpt lat="44.34655" lon="5.93471">
        <ele>569</ele>
        <time>2019-03-16T13:46:29Z</time>
      </trkpt>
      <trkpt lat="44.34649" lon="5.93465">
        <ele>569</ele>
        <time>2019-03-16T13:46:30Z</time>
      </trkpt>
      <trkpt lat="44.34643" lon="5.93459">
        <ele>569</ele>
        <time>2019-03-16T13:46:31Z</time>
      </trkpt>
      <trkpt lat="44.34637" lon="5.93454">
        <ele>569</ele>
        <time>2019-03-16T13:46:32Z</time>
      </trkpt>
      <trkpt lat="44.34631" lon="5.9345">
        <ele>569</ele>
        <time>2019-03-16T13:46:33Z</time>
      </trkpt>
      <trkpt lat="44.34623" lon="5.93448">
        <ele>569</ele>
        <time>2019-03-16T13:46:34Z</time>
      </trkpt>
      <trkpt lat="44.34616" lon="5.93447">
        <ele>569</ele>
        <time>2019-03-16T13:46:35Z</time>
      </trkpt>
      <trkpt lat="44.34608" lon="5.93448">
        <ele>569</ele>
        <time>2019-03-16T13:46:36Z</time>
      </trkpt>
      <trkpt lat="44.346" lon="5.93451">
        <ele>569</ele>
        <time>2019-03-16T13:46:37Z</time>
      </trkpt>
      <trkpt lat="44.34593" lon="5.93455">
        <ele>569</ele>
        <time>2019-03-16T13:46:38Z</time>
      </trkpt>
      <trkpt lat="44.34585" lon="5.93459">
        <ele>568</ele>
        <time>2019-03-16T13:46:39Z</time>
      </trkpt>
      <trkpt lat="44.34577" lon="5.93463">
        <ele>568</ele>
        <time>2019-03-16T13:46:40Z</time>
      </trkpt>
      <trkpt lat="44.34569" lon="5.93467">
        <ele>568</ele>
        <time>2019-03-16T13:46:41Z</time>
      </trkpt>
      <trkpt lat="44.34561" lon="5.93471">
        <ele>567</ele>
        <time>2019-03-16T13:46:42Z</time>
      </trkpt>
      <trkpt lat="44.34553" lon="5.93475">
        <ele>567</ele>
        <time>2019-03-16T13:46:43Z</time>
      </trkpt>
      <trkpt lat="44.34545" lon="5.9348">
        <ele>566</ele>
        <time>2019-03-16T13:46:44Z</time>
      </trkpt>
      <trkpt lat="44.34537" lon="5.93483">
        <ele>566</ele>
        <time>2019-03-16T13:46:45Z</time>
      </trkpt>
      <trkpt lat="44.34529" lon="5.93488">
        <ele>565</ele>
        <time>2019-03-16T13:46:46Z</time>
      </trkpt>
      <trkpt lat="44.34521" lon="5.93493">
        <ele>565</ele>
        <time>2019-03-16T13:46:47Z</time>
      </trkpt>
      <trkpt lat="44.34515" lon="5.93499">
        <ele>564</ele>
        <time>2019-03-16T13:46:48Z</time>
      </trkpt>
      <trkpt lat="44.34508" lon="5.93505">
        <ele>564</ele>
        <time>2019-03-16T13:46:49Z</time>
      </trkpt>
      <trkpt lat="44.34501" lon="5.93512">
        <ele>564</ele>
        <time>2019-03-16T13:46:50Z</time>
      </trkpt>
      <trkpt lat="44.34493" lon="5.93518">
        <ele>563</ele>
        <time>2019-03-16T13:46:51Z</time>
      </trkpt>
      <trkpt lat="44.34484" lon="5.93523">
        <ele>563</ele>
        <time>2019-03-16T13:46:52Z</time>
      </trkpt>
      <trkpt lat="44.34475" lon="5.93526">
        <ele>563</ele>
        <time>2019-03-16T13:46:53Z</time>
      </trkpt>
      <trkpt lat="44.34466" lon="5.93526">
        <ele>562</ele>
        <time>2019-03-16T13:46:54Z</time>
      </trkpt>
      <trkpt lat="44.34456" lon="5.93524">
        <ele>562</ele>
        <time>2019-03-16T13:46:55Z</time>
      </trkpt>
      <trkpt lat="44.34447" lon="5.93521">
        <ele>561</ele>
        <time>2019-03-16T13:46:56Z</time>
      </trkpt>
      <trkpt lat="44.34438" lon="5.93518">
        <ele>561</ele>
        <time>2019-03-16T13:46:57Z</time>
      </trkpt>
      <trkpt lat="44.34429" lon="5.93516">
        <ele>561</ele>
        <time>2019-03-16T13:46:58Z</time>
      </trkpt>
      <trkpt lat="44.3442" lon="5.93514">
        <ele>561</ele>
        <time>2019-03-16T13:46:59Z</time>
      </trkpt>
      <trkpt lat="44.34413" lon="5.9351">
        <ele>561</ele>
        <time>2019-03-16T13:47:00Z</time>
      </trkpt>
      <trkpt lat="44.34405" lon="5.93506">
        <ele>561</ele>
        <time>2019-03-16T13:47:01Z</time>
      </trkpt>
      <trkpt lat="44.34398" lon="5.935">
        <ele>561</ele>
        <time>2019-03-16T13:47:02Z</time>
      </trkpt>
      <trkpt lat="44.34393" lon="5.93495">
        <ele>560</ele>
        <time>2019-03-16T13:47:03Z</time>
      </trkpt>
      <trkpt lat="44.34389" lon="5.9349">
        <ele>560</ele>
        <time>2019-03-16T13:47:04Z</time>
      </trkpt>
      <trkpt lat="44.34386" lon="5.93486">
        <ele>559</ele>
        <time>2019-03-16T13:47:05Z</time>
      </trkpt>
      <trkpt lat="44.34384" lon="5.93483">
        <ele>558</ele>
        <time>2019-03-16T13:47:06Z</time>
      </trkpt>
      <trkpt lat="44.34383" lon="5.93479">
        <ele>557</ele>
        <time>2019-03-16T13:47:07Z</time>
      </trkpt>
      <trkpt lat="44.34383" lon="5.93475">
        <ele>556</ele>
        <time>2019-03-16T13:47:08Z</time>
      </trkpt>
      <trkpt lat="44.34383" lon="5.93471">
        <ele>555</ele>
        <time>2019-03-16T13:47:09Z</time>
      </trkpt>
      <trkpt lat="44.34385" lon="5.93466">
        <ele>554</ele>
        <time>2019-03-16T13:47:10Z</time>
      </trkpt>
      <trkpt lat="44.34387" lon="5.93459">
        <ele>553</ele>
        <time>2019-03-16T13:47:11Z</time>
      </trkpt>
      <trkpt lat="44.3439" lon="5.93453">
        <ele>552</ele>
        <time>2019-03-16T13:47:12Z</time>
      </trkpt>
      <trkpt lat="44.34392" lon="5.93446">
        <ele>551</ele>
        <time>2019-03-16T13:47:13Z</time>
      </trkpt>
      <trkpt lat="44.34395" lon="5.9344">
        <ele>550</ele>
        <time>2019-03-16T13:47:14Z</time>
      </trkpt>
      <trkpt lat="44.34397" lon="5.93433">
        <ele>549</ele>
        <time>2019-03-16T13:47:15Z</time>
      </trkpt>
      <trkpt lat="44.344" lon="5.93426">
        <ele>548</ele>
        <time>2019-03-16T13:47:16Z</time>
      </trkpt>
      <trkpt lat="44.34403" lon="5.93418">
        <ele>547</ele>
        <time>2019-03-16T13:47:17Z</time>
      </trkpt>
      <trkpt lat="44.34404" lon="5.93411">
        <ele>546</ele>
        <time>2019-03-16T13:47:18Z</time>
      </trkpt>
      <trkpt lat="44.34412" lon="5.93401">
        <ele>546</ele>
        <time>2019-03-16T13:47:19Z</time>
      </trkpt>
      <trkpt lat="44.34416" lon="5.93392">
        <ele>546</ele>
        <time>2019-03-16T13:47:20Z</time>
      </trkpt>
      <trkpt lat="44.3442" lon="5.93383">
        <ele>546</ele>
        <time>2019-03-16T13:47:21Z</time>
      </trkpt>
      <trkpt lat="44.34424" lon="5.93373">
        <ele>546</ele>
        <time>2019-03-16T13:47:22Z</time>
      </trkpt>
      <trkpt lat="44.34426" lon="5.93365">
        <ele>546</ele>
        <time>2019-03-16T13:47:23Z</time>
      </trkpt>
      <trkpt lat="44.34427" lon="5.93356">
        <ele>546</ele>
        <time>2019-03-16T13:47:24Z</time>
      </trkpt>
      <trkpt lat="44.34427" lon="5.93348">
        <ele>547</ele>
        <time>2019-03-16T13:47:25Z</time>
      </trkpt>
      <trkpt lat="44.34428" lon="5.9334">
        <ele>548</ele>
        <time>2019-03-16T13:47:26Z</time>
      </trkpt>
      <trkpt lat="44.34428" lon="5.93332">
        <ele>549</ele>
        <time>2019-03-16T13:47:27Z</time>
      </trkpt>
      <trkpt lat="44.34428" lon="5.93324">
        <ele>550</ele>
        <time>2019-03-16T13:47:28Z</time>
      </trkpt>
      <trkpt lat="44.34428" lon="5.93317">
        <ele>551</ele>
        <time>2019-03-16T13:47:29Z</time>
      </trkpt>
      <trkpt lat="44.34426" lon="5.93309">
        <ele>552</ele>
        <time>2019-03-16T13:47:30Z</time>
      </trkpt>
      <trkpt lat="44.34425" lon="5.93302">
        <ele>553</ele>
        <time>2019-03-16T13:47:31Z</time>
      </trkpt>
      <trkpt lat="44.34424" lon="5.93296">
        <ele>554</ele>
        <time>2019-03-16T13:47:32Z</time>
      </trkpt>
      <trkpt lat="44.34423" lon="5.93289">
        <ele>555</ele>
        <time>2019-03-16T13:47:33Z</time>
      </trkpt>
      <trkpt lat="44.34421" lon="5.93283">
        <ele>556</ele>
        <time>2019-03-16T13:47:34Z</time>
      </trkpt>
      <trkpt lat="44.3442" lon="5.93277">
        <ele>557</ele>
        <time>2019-03-16T13:47:35Z</time>
      </trkpt>
      <trkpt lat="44.34417" lon="5.93271">
        <ele>558</ele>
        <time>2019-03-16T13:47:36Z</time>
      </trkpt>
      <trkpt lat="44.34415" lon="5.93265">
        <ele>559</ele>
        <time>2019-03-16T13:47:37Z</time>
      </trkpt>
      <trkpt lat="44.34412" lon="5.9326">
        <ele>560</ele>
        <time>2019-03-16T13:47:38Z</time>
      </trkpt>
      <trkpt lat="44.34409" lon="5.93256">
        <ele>561</ele>
        <time>2019-03-16T13:47:39Z</time>
      </trkpt>
      <trkpt lat="44.34405" lon="5.93252">
        <ele>562</ele>
        <time>2019-03-16T13:47:40Z</time>
      </trkpt>
      <trkpt lat="44.34401" lon="5.93249">
        <ele>562</ele>
        <time>2019-03-16T13:47:41Z</time>
      </trkpt>
      <trkpt lat="44.34397" lon="5.93246">
        <ele>562</ele>
        <time>2019-03-16T13:47:42Z</time>
      </trkpt>
      <trkpt lat="44.34393" lon="5.93243">
        <ele>562</ele>
        <time>2019-03-16T13:47:43Z</time>
      </trkpt>
      <trkpt lat="44.34388" lon="5.9324">
        <ele>563</ele>
        <time>2019-03-16T13:47:44Z</time>
      </trkpt>
      <trkpt lat="44.34383" lon="5.93238">
        <ele>563</ele>
        <time>2019-03-16T13:47:45Z</time>
      </trkpt>
      <trkpt lat="44.34379" lon="5.93236">
        <ele>563</ele>
        <time>2019-03-16T13:47:46Z</time>
      </trkpt>
      <trkpt lat="44.34374" lon="5.93234">
        <ele>564</ele>
        <time>2019-03-16T13:47:47Z</time>
      </trkpt>
      <trkpt lat="44.34369" lon="5.93232">
        <ele>564</ele>
        <time>2019-03-16T13:47:48Z</time>
      </trkpt>
      <trkpt lat="44.34364" lon="5.9323">
        <ele>564</ele>
        <time>2019-03-16T13:47:49Z</time>
      </trkpt>
      <trkpt lat="44.34359" lon="5.93228">
        <ele>564</ele>
        <time>2019-03-16T13:47:50Z</time>
      </trkpt>
      <trkpt lat="44.34354" lon="5.93226">
        <ele>565</ele>
        <time>2019-03-16T13:47:51Z</time>
      </trkpt>
      <trkpt lat="44.34349" lon="5.93224">
        <ele>565</ele>
        <time>2019-03-16T13:47:52Z</time>
      </trkpt>
      <trkpt lat="44.34344" lon="5.93223">
        <ele>565</ele>
        <time>2019-03-16T13:47:53Z</time>
      </trkpt>
      <trkpt lat="44.34339" lon="5.93221">
        <ele>565</ele>
        <time>2019-03-16T13:47:54Z</time>
      </trkpt>
      <trkpt lat="44.34334" lon="5.93219">
        <ele>565</ele>
        <time>2019-03-16T13:47:55Z</time>
      </trkpt>
      <trkpt lat="44.34329" lon="5.93217">
        <ele>565</ele>
        <time>2019-03-16T13:47:56Z</time>
      </trkpt>
      <trkpt lat="44.34324" lon="5.93215">
        <ele>566</ele>
        <time>2019-03-16T13:47:57Z</time>
      </trkpt>
      <trkpt lat="44.34319" lon="5.93213">
        <ele>566</ele>
        <time>2019-03-16T13:47:58Z</time>
      </trkpt>
      <trkpt lat="44.34314" lon="5.93211">
        <ele>566</ele>
        <time>2019-03-16T13:47:59Z</time>
      </trkpt>
      <trkpt lat="44.34309" lon="5.93209">
        <ele>566</ele>
        <time>2019-03-16T13:48:00Z</time>
      </trkpt>
      <trkpt lat="44.34304" lon="5.93207">
        <ele>566</ele>
        <time>2019-03-16T13:48:01Z</time>
      </trkpt>
      <trkpt lat="44.34299" lon="5.93205">
        <ele>567</ele>
        <time>2019-03-16T13:48:02Z</time>
      </trkpt>
      <trkpt lat="44.34293" lon="5.93203">
        <ele>567</ele>
        <time>2019-03-16T13:48:03Z</time>
      </trkpt>
      <trkpt lat="44.34288" lon="5.93201">
        <ele>567</ele>
        <time>2019-03-16T13:48:04Z</time>
      </trkpt>
      <trkpt lat="44.34283" lon="5.93199">
        <ele>567</ele>
        <time>2019-03-16T13:48:05Z</time>
      </trkpt>
      <trkpt lat="44.34277" lon="5.93197">
        <ele>567</ele>
        <time>2019-03-16T13:48:06Z</time>
      </trkpt>
      <trkpt lat="44.34272" lon="5.93195">
        <ele>567</ele>
        <time>2019-03-16T13:48:07Z</time>
      </trkpt>
      <trkpt lat="44.34266" lon="5.93193">
        <ele>567</ele>
        <time>2019-03-16T13:48:08Z</time>
      </trkpt>
      <trkpt lat="44.34261" lon="5.9319">
        <ele>567</ele>
        <time>2019-03-16T13:48:09Z</time>
      </trkpt>
      <trkpt lat="44.34255" lon="5.93188">
        <ele>567</ele>
        <time>2019-03-16T13:48:10Z</time>
      </trkpt>
      <trkpt lat="44.34249" lon="5.93186">
        <ele>567</ele>
        <time>2019-03-16T13:48:11Z</time>
      </trkpt>
      <trkpt lat="44.34243" lon="5.93184">
        <ele>567</ele>
        <time>2019-03-16T13:48:12Z</time>
      </trkpt>
      <trkpt lat="44.34238" lon="5.93182">
        <ele>567</ele>
        <time>2019-03-16T13:48:13Z</time>
      </trkpt>
      <trkpt lat="44.34232" lon="5.9318">
        <ele>567</ele>
        <time>2019-03-16T13:48:14Z</time>
      </trkpt>
      <trkpt lat="44.34227" lon="5.93178">
        <ele>567</ele>
        <time>2019-03-16T13:48:15Z</time>
      </trkpt>
      <trkpt lat="44.34221" lon="5.93176">
        <ele>568</ele>
        <time>2019-03-16T13:48:16Z</time>
      </trkpt>
      <trkpt lat="44.34215" lon="5.93174">
        <ele>568</ele>
        <time>2019-03-16T13:48:17Z</time>
      </trkpt>
      <trkpt lat="44.34209" lon="5.93172">
        <ele>568</ele>
        <time>2019-03-16T13:48:18Z</time>
      </trkpt>
      <trkpt lat="44.34204" lon="5.9317">
        <ele>568</ele>
        <time>2019-03-16T13:48:19Z</time>
      </trkpt>
      <trkpt lat="44.34198" lon="5.93168">
        <ele>568</ele>
        <time>2019-03-16T13:48:20Z</time>
      </trkpt>
      <trkpt lat="44.34193" lon="5.93165">
        <ele>568</ele>
        <time>2019-03-16T13:48:21Z</time>
      </trkpt>
      <trkpt lat="44.34187" lon="5.93163">
        <ele>568</ele>
        <time>2019-03-16T13:48:22Z</time>
      </trkpt>
      <trkpt lat="44.34182" lon="5.93161">
        <ele>568</ele>
        <time>2019-03-16T13:48:23Z</time>
      </trkpt>
      <trkpt lat="44.34176" lon="5.93159">
        <ele>568</ele>
        <time>2019-03-16T13:48:24Z</time>
      </trkpt>
      <trkpt lat="44.3417" lon="5.93157">
        <ele>568</ele>
        <time>2019-03-16T13:48:25Z</time>
      </trkpt>
      <trkpt lat="44.34164" lon="5.93154">
        <ele>568</ele>
        <time>2019-03-16T13:48:26Z</time>
      </trkpt>
      <trkpt lat="44.34158" lon="5.93152">
        <ele>568</ele>
        <time>2019-03-16T13:48:27Z</time>
      </trkpt>
      <trkpt lat="44.34152" lon="5.9315">
        <ele>568</ele>
        <time>2019-03-16T13:48:28Z</time>
      </trkpt>
      <trkpt lat="44.34146" lon="5.93148">
        <ele>568</ele>
        <time>2019-03-16T13:48:29Z</time>
      </trkpt>
      <trkpt lat="44.3414" lon="5.93146">
        <ele>568</ele>
        <time>2019-03-16T13:48:30Z</time>
      </trkpt>
      <trkpt lat="44.34134" lon="5.93143">
        <ele>568</ele>
        <time>2019-03-16T13:48:31Z</time>
      </trkpt>
      <trkpt lat="44.34128" lon="5.93141">
        <ele>568</ele>
        <time>2019-03-16T13:48:32Z</time>
      </trkpt>
      <trkpt lat="44.34122" lon="5.93139">
        <ele>568</ele>
        <time>2019-03-16T13:48:33Z</time>
      </trkpt>
      <trkpt lat="44.34116" lon="5.93137">
        <ele>568</ele>
        <time>2019-03-16T13:48:34Z</time>
      </trkpt>
      <trkpt lat="44.34111" lon="5.93134">
        <ele>568</ele>
        <time>2019-03-16T13:48:35Z</time>
      </trkpt>
      <trkpt lat="44.34105" lon="5.93132">
        <ele>568</ele>
        <time>2019-03-16T13:48:36Z</time>
      </trkpt>
      <trkpt lat="44.34099" lon="5.9313">
        <ele>568</ele>
        <time>2019-03-16T13:48:37Z</time>
      </trkpt>
      <trkpt lat="44.34093" lon="5.93127">
        <ele>568</ele>
        <time>2019-03-16T13:48:38Z</time>
      </trkpt>
      <trkpt lat="44.34087" lon="5.93125">
        <ele>568</ele>
        <time>2019-03-16T13:48:39Z</time>
      </trkpt>
      <trkpt lat="44.34081" lon="5.93123">
        <ele>569</ele>
        <time>2019-03-16T13:48:40Z</time>
      </trkpt>
      <trkpt lat="44.34075" lon="5.93121">
        <ele>569</ele>
        <time>2019-03-16T13:48:41Z</time>
      </trkpt>
      <trkpt lat="44.3407" lon="5.93119">
        <ele>569</ele>
        <time>2019-03-16T13:48:42Z</time>
      </trkpt>
      <trkpt lat="44.34064" lon="5.93117">
        <ele>569</ele>
        <time>2019-03-16T13:48:43Z</time>
      </trkpt>
      <trkpt lat="44.34058" lon="5.93115">
        <ele>569</ele>
        <time>2019-03-16T13:48:44Z</time>
      </trkpt>
      <trkpt lat="44.34053" lon="5.93113">
        <ele>569</ele>
        <time>2019-03-16T13:48:45Z</time>
      </trkpt>
      <trkpt lat="44.34047" lon="5.93111">
        <ele>569</ele>
        <time>2019-03-16T13:48:46Z</time>
      </trkpt>
      <trkpt lat="44.34041" lon="5.93109">
        <ele>569</ele>
        <time>2019-03-16T13:48:47Z</time>
      </trkpt>
      <trkpt lat="44.34035" lon="5.93107">
        <ele>569</ele>
        <time>2019-03-16T13:48:48Z</time>
      </trkpt>
      <trkpt lat="44.34029" lon="5.93105">
        <ele>569</ele>
        <time>2019-03-16T13:48:49Z</time>
      </trkpt>
      <trkpt lat="44.34024" lon="5.93102">
        <ele>569</ele>
        <time>2019-03-16T13:48:50Z</time>
      </trkpt>
      <trkpt lat="44.34018" lon="5.931">
        <ele>569</ele>
        <time>2019-03-16T13:48:51Z</time>
      </trkpt>
      <trkpt lat="44.34012" lon="5.93097">
        <ele>569</ele>
        <time>2019-03-16T13:48:52Z</time>
      </trkpt>
      <trkpt lat="44.34006" lon="5.93095">
        <ele>569</ele>
        <time>2019-03-16T13:48:53Z</time>
      </trkpt>
      <trkpt lat="44.34" lon="5.93093">
        <ele>569</ele>
        <time>2019-03-16T13:48:54Z</time>
      </trkpt>
      <trkpt lat="44.33995" lon="5.93091">
        <ele>569</ele>
        <time>2019-03-16T13:48:55Z</time>
      </trkpt>
      <trkpt lat="44.33989" lon="5.93089">
        <ele>569</ele>
        <time>2019-03-16T13:48:56Z</time>
      </trkpt>
      <trkpt lat="44.33983" lon="5.93087">
        <ele>569</ele>
        <time>2019-03-16T13:48:57Z</time>
      </trkpt>
      <trkpt lat="44.33978" lon="5.93085">
        <ele>569</ele>
        <time>2019-03-16T13:48:58Z</time>
      </trkpt>
      <trkpt lat="44.33972" lon="5.93083">
        <ele>569</ele>
        <time>2019-03-16T13:48:59Z</time>
      </trkpt>
      <trkpt lat="44.33966" lon="5.9308">
        <ele>569</ele>
        <time>2019-03-16T13:49:00Z</time>
      </trkpt>
      <trkpt lat="44.33961" lon="5.93078">
        <ele>569</ele>
        <time>2019-03-16T13:49:01Z</time>
      </trkpt>
      <trkpt lat="44.33955" lon="5.93076">
        <ele>569</ele>
        <time>2019-03-16T13:49:02Z</time>
      </trkpt>
      <trkpt lat="44.3395" lon="5.93074">
        <ele>569</ele>
        <time>2019-03-16T13:49:03Z</time>
      </trkpt>
      <trkpt lat="44.33945" lon="5.93072">
        <ele>569</ele>
        <time>2019-03-16T13:49:04Z</time>
      </trkpt>
      <trkpt lat="44.3394" lon="5.9307">
        <ele>569</ele>
        <time>2019-03-16T13:49:05Z</time>
      </trkpt>
      <trkpt lat="44.33935" lon="5.93068">
        <ele>569</ele>
        <time>2019-03-16T13:49:06Z</time>
      </trkpt>
      <trkpt lat="44.3393" lon="5.93067">
        <ele>569</ele>
        <time>2019-03-16T13:49:07Z</time>
      </trkpt>
      <trkpt lat="44.33925" lon="5.93065">
        <ele>570</ele>
        <time>2019-03-16T13:49:08Z</time>
      </trkpt>
      <trkpt lat="44.3392" lon="5.93064">
        <ele>570</ele>
        <time>2019-03-16T13:49:09Z</time>
      </trkpt>
      <trkpt lat="44.33915" lon="5.93062">
        <ele>570</ele>
        <time>2019-03-16T13:49:10Z</time>
      </trkpt>
      <trkpt lat="44.3391" lon="5.9306">
        <ele>570</ele>
        <time>2019-03-16T13:49:11Z</time>
      </trkpt>
      <trkpt lat="44.33905" lon="5.93058">
        <ele>570</ele>
        <time>2019-03-16T13:49:12Z</time>
      </trkpt>
      <trkpt lat="44.339" lon="5.93056">
        <ele>570</ele>
        <time>2019-03-16T13:49:13Z</time>
      </trkpt>
      <trkpt lat="44.33894" lon="5.93053">
        <ele>570</ele>
        <time>2019-03-16T13:49:14Z</time>
      </trkpt>
      <trkpt lat="44.33889" lon="5.9305">
        <ele>570</ele>
        <time>2019-03-16T13:49:15Z</time>
      </trkpt>
      <trkpt lat="44.33883" lon="5.93047">
        <ele>570</ele>
        <time>2019-03-16T13:49:16Z</time>
      </trkpt>
      <trkpt lat="44.33878" lon="5.93043">
        <ele>570</ele>
        <time>2019-03-16T13:49:17Z</time>
      </trkpt>
      <trkpt lat="44.33872" lon="5.93038">
        <ele>570</ele>
        <time>2019-03-16T13:49:18Z</time>
      </trkpt>
      <trkpt lat="44.33867" lon="5.93034">
        <ele>570</ele>
        <time>2019-03-16T13:49:19Z</time>
      </trkpt>
      <trkpt lat="44.33862" lon="5.93028">
        <ele>570</ele>
        <time>2019-03-16T13:49:20Z</time>
      </trkpt>
      <trkpt lat="44.33857" lon="5.93023">
        <ele>570</ele>
        <time>2019-03-16T13:49:21Z</time>
      </trkpt>
      <trkpt lat="44.33852" lon="5.93017">
        <ele>570</ele>
        <time>2019-03-16T13:49:22Z</time>
      </trkpt>
      <trkpt lat="44.33846" lon="5.93012">
        <ele>570</ele>
        <time>2019-03-16T13:49:23Z</time>
      </trkpt>
      <trkpt lat="44.33841" lon="5.93006">
        <ele>570</ele>
        <time>2019-03-16T13:49:24Z</time>
      </trkpt>
      <trkpt lat="44.33836" lon="5.93001">
        <ele>570</ele>
        <time>2019-03-16T13:49:25Z</time>
      </trkpt>
      <trkpt lat="44.33831" lon="5.92996">
        <ele>570</ele>
        <time>2019-03-16T13:49:26Z</time>
      </trkpt>
      <trkpt lat="44.33826" lon="5.9299">
        <ele>570</ele>
        <time>2019-03-16T13:49:27Z</time>
      </trkpt>
      <trkpt lat="44.33821" lon="5.92985">
        <ele>571</ele>
        <time>2019-03-16T13:49:28Z</time>
      </trkpt>
      <trkpt lat="44.33816" lon="5.92979">
        <ele>571</ele>
        <time>2019-03-16T13:49:29Z</time>
      </trkpt>
      <trkpt lat="44.33811" lon="5.92974">
        <ele>571</ele>
        <time>2019-03-16T13:49:30Z</time>
      </trkpt>
      <trkpt lat="44.33806" lon="5.92969">
        <ele>571</ele>
        <time>2019-03-16T13:49:31Z</time>
      </trkpt>
      <trkpt lat="44.33801" lon="5.92964">
        <ele>571</ele>
        <time>2019-03-16T13:49:32Z</time>
      </trkpt>
      <trkpt lat="44.33796" lon="5.92959">
        <ele>571</ele>
        <time>2019-03-16T13:49:33Z</time>
      </trkpt>
      <trkpt lat="44.3379" lon="5.92954">
        <ele>571</ele>
        <time>2019-03-16T13:49:34Z</time>
      </trkpt>
      <trkpt lat="44.33786" lon="5.92949">
        <ele>571</ele>
        <time>2019-03-16T13:49:35Z</time>
      </trkpt>
      <trkpt lat="44.33781" lon="5.92944">
        <ele>571</ele>
        <time>2019-03-16T13:49:36Z</time>
      </trkpt>
      <trkpt lat="44.33776" lon="5.92939">
        <ele>571</ele>
        <time>2019-03-16T13:49:37Z</time>
      </trkpt>
      <trkpt lat="44.33771" lon="5.92934">
        <ele>571</ele>
        <time>2019-03-16T13:49:38Z</time>
      </trkpt>
      <trkpt lat="44.33766" lon="5.92928">
        <ele>571</ele>
        <time>2019-03-16T13:49:39Z</time>
      </trkpt>
      <trkpt lat="44.33761" lon="5.92923">
        <ele>571</ele>
        <time>2019-03-16T13:49:40Z</time>
      </trkpt>
      <trkpt lat="44.33756" lon="5.92917">
        <ele>571</ele>
        <time>2019-03-16T13:49:41Z</time>
      </trkpt>
      <trkpt lat="44.3375" lon="5.92912">
        <ele>571</ele>
        <time>2019-03-16T13:49:42Z</time>
      </trkpt>
      <trkpt lat="44.33745" lon="5.92906">
        <ele>571</ele>
        <time>2019-03-16T13:49:43Z</time>
      </trkpt>
      <trkpt lat="44.3374" lon="5.92901">
        <ele>571</ele>
        <time>2019-03-16T13:49:44Z</time>
      </trkpt>
      <trkpt lat="44.33734" lon="5.92896">
        <ele>571</ele>
        <time>2019-03-16T13:49:45Z</time>
      </trkpt>
      <trkpt lat="44.33729" lon="5.9289">
        <ele>571</ele>
        <time>2019-03-16T13:49:46Z</time>
      </trkpt>
      <trkpt lat="44.33724" lon="5.92884">
        <ele>571</ele>
        <time>2019-03-16T13:49:47Z</time>
      </trkpt>
      <trkpt lat="44.33719" lon="5.92878">
        <ele>571</ele>
        <time>2019-03-16T13:49:48Z</time>
      </trkpt>
      <trkpt lat="44.33715" lon="5.92872">
        <ele>571</ele>
        <time>2019-03-16T13:49:49Z</time>
      </trkpt>
      <trkpt lat="44.3371" lon="5.92865">
        <ele>571</ele>
        <time>2019-03-16T13:49:50Z</time>
      </trkpt>
      <trkpt lat="44.33705" lon="5.92858">
        <ele>571</ele>
        <time>2019-03-16T13:49:51Z</time>
      </trkpt>
      <trkpt lat="44.33701" lon="5.92851">
        <ele>571</ele>
        <time>2019-03-16T13:49:52Z</time>
      </trkpt>
      <trkpt lat="44.33696" lon="5.92845">
        <ele>571</ele>
        <time>2019-03-16T13:49:53Z</time>
      </trkpt>
      <trkpt lat="44.33692" lon="5.92838">
        <ele>571</ele>
        <time>2019-03-16T13:49:54Z</time>
      </trkpt>
      <trkpt lat="44.33688" lon="5.92831">
        <ele>571</ele>
        <time>2019-03-16T13:49:55Z</time>
      </trkpt>
      <trkpt lat="44.33684" lon="5.92824">
        <ele>571</ele>
        <time>2019-03-16T13:49:56Z</time>
      </trkpt>
      <trkpt lat="44.3368" lon="5.92816">
        <ele>571</ele>
        <time>2019-03-16T13:49:57Z</time>
      </trkpt>
      <trkpt lat="44.33676" lon="5.92809">
        <ele>571</ele>
        <time>2019-03-16T13:49:58Z</time>
      </trkpt>
      <trkpt lat="44.33672" lon="5.92802">
        <ele>571</ele>
        <time>2019-03-16T13:49:59Z</time>
      </trkpt>
      <trkpt lat="44.33668" lon="5.92795">
        <ele>571</ele>
        <time>2019-03-16T13:50:00Z</time>
      </trkpt>
      <trkpt lat="44.33664" lon="5.92788">
        <ele>571</ele>
        <time>2019-03-16T13:50:01Z</time>
      </trkpt>
      <trkpt lat="44.3366" lon="5.92781">
        <ele>571</ele>
        <time>2019-03-16T13:50:02Z</time>
      </trkpt>
      <trkpt lat="44.33656" lon="5.92774">
        <ele>571</ele>
        <time>2019-03-16T13:50:03Z</time>
      </trkpt>
      <trkpt lat="44.33652" lon="5.92767">
        <ele>571</ele>
        <time>2019-03-16T13:50:04Z</time>
      </trkpt>
      <trkpt lat="44.33648" lon="5.9276">
        <ele>571</ele>
        <time>2019-03-16T13:50:05Z</time>
      </trkpt>
      <trkpt lat="44.33644" lon="5.92754">
        <ele>571</ele>
        <time>2019-03-16T13:50:06Z</time>
      </trkpt>
      <trkpt lat="44.33641" lon="5.92747">
        <ele>571</ele>
        <time>2019-03-16T13:50:07Z</time>
      </trkpt>
      <trkpt lat="44.33637" lon="5.9274">
        <ele>571</ele>
        <time>2019-03-16T13:50:08Z</time>
      </trkpt>
      <trkpt lat="44.33633" lon="5.92733">
        <ele>571</ele>
        <time>2019-03-16T13:50:09Z</time>
      </trkpt>
      <trkpt lat="44.33629" lon="5.92726">
        <ele>571</ele>
        <time>2019-03-16T13:50:10Z</time>
      </trkpt>
      <trkpt lat="44.33625" lon="5.9272">
        <ele>571</ele>
        <time>2019-03-16T13:50:11Z</time>
      </trkpt>
      <trkpt lat="44.33622" lon="5.92713">
        <ele>571</ele>
        <time>2019-03-16T13:50:12Z</time>
      </trkpt>
      <trkpt lat="44.33618" lon="5.92707">
        <ele>571</ele>
        <time>2019-03-16T13:50:13Z</time>
      </trkpt>
      <trkpt lat="44.33614" lon="5.927">
        <ele>571</ele>
        <time>2019-03-16T13:50:14Z</time>
      </trkpt>
      <trkpt lat="44.3361" lon="5.92693">
        <ele>571</ele>
        <time>2019-03-16T13:50:15Z</time>
      </trkpt>
      <trkpt lat="44.33606" lon="5.92687">
        <ele>571</ele>
        <time>2019-03-16T13:50:16Z</time>
      </trkpt>
      <trkpt lat="44.33602" lon="5.9268">
        <ele>571</ele>
        <time>2019-03-16T13:50:17Z</time>
      </trkpt>
      <trkpt lat="44.33597" lon="5.92673">
        <ele>571</ele>
        <time>2019-03-16T13:50:18Z</time>
      </trkpt>
      <trkpt lat="44.33593" lon="5.92667">
        <ele>571</ele>
        <time>2019-03-16T13:50:19Z</time>
      </trkpt>
      <trkpt lat="44.33588" lon="5.9266">
        <ele>571</ele>
        <time>2019-03-16T13:50:20Z</time>
      </trkpt>
      <trkpt lat="44.33583" lon="5.92654">
        <ele>571</ele>
        <time>2019-03-16T13:50:21Z</time>
      </trkpt>
      <trkpt lat="44.33579" lon="5.92647">
        <ele>571</ele>
        <time>2019-03-16T13:50:22Z</time>
      </trkpt>
      <trkpt lat="44.33574" lon="5.9264">
        <ele>571</ele>
        <time>2019-03-16T13:50:23Z</time>
      </trkpt>
      <trkpt lat="44.33569" lon="5.92634">
        <ele>571</ele>
        <time>2019-03-16T13:50:24Z</time>
      </trkpt>
      <trkpt lat="44.33564" lon="5.92627">
        <ele>571</ele>
        <time>2019-03-16T13:50:25Z</time>
      </trkpt>
      <trkpt lat="44.33559" lon="5.9262">
        <ele>571</ele>
        <time>2019-03-16T13:50:26Z</time>
      </trkpt>
      <trkpt lat="44.33555" lon="5.92613">
        <ele>571</ele>
        <time>2019-03-16T13:50:27Z</time>
      </trkpt>
      <trkpt lat="44.3355" lon="5.92606">
        <ele>571</ele>
        <time>2019-03-16T13:50:28Z</time>
      </trkpt>
      <trkpt lat="44.33545" lon="5.92599">
        <ele>571</ele>
        <time>2019-03-16T13:50:29Z</time>
      </trkpt>
      <trkpt lat="44.3354" lon="5.92592">
        <ele>571</ele>
        <time>2019-03-16T13:50:30Z</time>
      </trkpt>
      <trkpt lat="44.33535" lon="5.92585">
        <ele>571</ele>
        <time>2019-03-16T13:50:31Z</time>
      </trkpt>
      <trkpt lat="44.3353" lon="5.92578">
        <ele>571</ele>
        <time>2019-03-16T13:50:32Z</time>
      </trkpt>
      <trkpt lat="44.33525" lon="5.92571">
        <ele>571</ele>
        <time>2019-03-16T13:50:33Z</time>
      </trkpt>
      <trkpt lat="44.3352" lon="5.92564">
        <ele>571</ele>
        <time>2019-03-16T13:50:34Z</time>
      </trkpt>
      <trkpt lat="44.33516" lon="5.92557">
        <ele>571</ele>
        <time>2019-03-16T13:50:35Z</time>
      </trkpt>
      <trkpt lat="44.33511" lon="5.9255">
        <ele>571</ele>
        <time>2019-03-16T13:50:36Z</time>
      </trkpt>
      <trkpt lat="44.33506" lon="5.92543">
        <ele>571</ele>
        <time>2019-03-16T13:50:37Z</time>
      </trkpt>
      <trkpt lat="44.33501" lon="5.92536">
        <ele>571</ele>
        <time>2019-03-16T13:50:38Z</time>
      </trkpt>
      <trkpt lat="44.33495" lon="5.92529">
        <ele>571</ele>
        <time>2019-03-16T13:50:39Z</time>
      </trkpt>
      <trkpt lat="44.3349" lon="5.92523">
        <ele>571</ele>
        <time>2019-03-16T13:50:40Z</time>
      </trkpt>
      <trkpt lat="44.33484" lon="5.92517">
        <ele>571</ele>
        <time>2019-03-16T13:50:41Z</time>
      </trkpt>
      <trkpt lat="44.33479" lon="5.92511">
        <ele>571</ele>
        <time>2019-03-16T13:50:42Z</time>
      </trkpt>
      <trkpt lat="44.33472" lon="5.92505">
        <ele>571</ele>
        <time>2019-03-16T13:50:43Z</time>
      </trkpt>
      <trkpt lat="44.33466" lon="5.925">
        <ele>571</ele>
        <time>2019-03-16T13:50:44Z</time>
      </trkpt>
      <trkpt lat="44.33459" lon="5.92495">
        <ele>571</ele>
        <time>2019-03-16T13:50:45Z</time>
      </trkpt>
      <trkpt lat="44.33453" lon="5.92491">
        <ele>571</ele>
        <time>2019-03-16T13:50:46Z</time>
      </trkpt>
      <trkpt lat="44.33446" lon="5.92487">
        <ele>571</ele>
        <time>2019-03-16T13:50:47Z</time>
      </trkpt>
      <trkpt lat="44.33439" lon="5.92482">
        <ele>571</ele>
        <time>2019-03-16T13:50:48Z</time>
      </trkpt>
      <trkpt lat="44.33432" lon="5.92478">
        <ele>571</ele>
        <time>2019-03-16T13:50:49Z</time>
      </trkpt>
      <trkpt lat="44.33424" lon="5.92474">
        <ele>571</ele>
        <time>2019-03-16T13:50:50Z</time>
      </trkpt>
      <trkpt lat="44.33417" lon="5.92469">
        <ele>571</ele>
        <time>2019-03-16T13:50:51Z</time>
      </trkpt>
      <trkpt lat="44.3341" lon="5.92464">
        <ele>571</ele>
        <time>2019-03-16T13:50:52Z</time>
      </trkpt>
      <trkpt lat="44.33403" lon="5.9246">
        <ele>570</ele>
        <time>2019-03-16T13:50:53Z</time>
      </trkpt>
      <trkpt lat="44.33395" lon="5.92455">
        <ele>570</ele>
        <time>2019-03-16T13:50:54Z</time>
      </trkpt>
      <trkpt lat="44.33388" lon="5.92451">
        <ele>570</ele>
        <time>2019-03-16T13:50:55Z</time>
      </trkpt>
      <trkpt lat="44.33381" lon="5.92446">
        <ele>570</ele>
        <time>2019-03-16T13:50:56Z</time>
      </trkpt>
      <trkpt lat="44.33374" lon="5.92442">
        <ele>570</ele>
        <time>2019-03-16T13:50:57Z</time>
      </trkpt>
      <trkpt lat="44.33367" lon="5.92437">
        <ele>570</ele>
        <time>2019-03-16T13:50:58Z</time>
      </trkpt>
      <trkpt lat="44.3336" lon="5.92433">
        <ele>570</ele>
        <time>2019-03-16T13:50:59Z</time>
      </trkpt>
      <trkpt lat="44.33353" lon="5.92428">
        <ele>570</ele>
        <time>2019-03-16T13:51:00Z</time>
      </trkpt>
      <trkpt lat="44.33347" lon="5.92424">
        <ele>570</ele>
        <time>2019-03-16T13:51:01Z</time>
      </trkpt>
      <trkpt lat="44.3334" lon="5.9242">
        <ele>570</ele>
        <time>2019-03-16T13:51:02Z</time>
      </trkpt>
      <trkpt lat="44.33333" lon="5.92416">
        <ele>570</ele>
        <time>2019-03-16T13:51:03Z</time>
      </trkpt>
      <trkpt lat="44.33327" lon="5.92412">
        <ele>570</ele>
        <time>2019-03-16T13:51:04Z</time>
      </trkpt>
      <trkpt lat="44.3332" lon="5.92408">
        <ele>570</ele>
        <time>2019-03-16T13:51:05Z</time>
      </trkpt>
      <trkpt lat="44.33314" lon="5.92403">
        <ele>570</ele>
        <time>2019-03-16T13:51:06Z</time>
      </trkpt>
      <trkpt lat="44.33307" lon="5.92399">
        <ele>570</ele>
        <time>2019-03-16T13:51:07Z</time>
      </trkpt>
      <trkpt lat="44.33301" lon="5.92395">
        <ele>570</ele>
        <time>2019-03-16T13:51:08Z</time>
      </trkpt>
      <trkpt lat="44.33295" lon="5.92391">
        <ele>570</ele>
        <time>2019-03-16T13:51:09Z</time>
      </trkpt>
      <trkpt lat="44.33288" lon="5.92387">
        <ele>570</ele>
        <time>2019-03-16T13:51:10Z</time>
      </trkpt>
      <trkpt lat="44.33282" lon="5.92383">
        <ele>570</ele>
        <time>2019-03-16T13:51:11Z</time>
      </trkpt>
      <trkpt lat="44.33276" lon="5.92379">
        <ele>570</ele>
        <time>2019-03-16T13:51:12Z</time>
      </trkpt>
      <trkpt lat="44.33269" lon="5.92375">
        <ele>570</ele>
        <time>2019-03-16T13:51:13Z</time>
      </trkpt>
      <trkpt lat="44.33263" lon="5.92371">
        <ele>570</ele>
        <time>2019-03-16T13:51:14Z</time>
      </trkpt>
      <trkpt lat="44.33257" lon="5.92367">
        <ele>570</ele>
        <time>2019-03-16T13:51:15Z</time>
      </trkpt>
      <trkpt lat="44.3325" lon="5.92362">
        <ele>570</ele>
        <time>2019-03-16T13:51:16Z</time>
      </trkpt>
      <trkpt lat="44.33244" lon="5.92358">
        <ele>570</ele>
        <time>2019-03-16T13:51:17Z</time>
      </trkpt>
      <trkpt lat="44.33238" lon="5.92354">
        <ele>570</ele>
        <time>2019-03-16T13:51:18Z</time>
      </trkpt>
      <trkpt lat="44.33232" lon="5.9235">
        <ele>570</ele>
        <time>2019-03-16T13:51:19Z</time>
      </trkpt>
      <trkpt lat="44.33226" lon="5.92346">
        <ele>570</ele>
        <time>2019-03-16T13:51:20Z</time>
      </trkpt>
      <trkpt lat="44.3322" lon="5.92342">
        <ele>570</ele>
        <time>2019-03-16T13:51:21Z</time>
      </trkpt>
      <trkpt lat="44.33214" lon="5.92338">
        <ele>570</ele>
        <time>2019-03-16T13:51:22Z</time>
      </trkpt>
      <trkpt lat="44.33207" lon="5.92334">
        <ele>570</ele>
        <time>2019-03-16T13:51:23Z</time>
      </trkpt>
      <trkpt lat="44.33201" lon="5.9233">
        <ele>570</ele>
        <time>2019-03-16T13:51:24Z</time>
      </trkpt>
      <trkpt lat="44.33195" lon="5.92326">
        <ele>570</ele>
        <time>2019-03-16T13:51:25Z</time>
      </trkpt>
      <trkpt lat="44.33189" lon="5.92322">
        <ele>570</ele>
        <time>2019-03-16T13:51:26Z</time>
      </trkpt>
      <trkpt lat="44.33183" lon="5.92318">
        <ele>570</ele>
        <time>2019-03-16T13:51:27Z</time>
      </trkpt>
      <trkpt lat="44.33177" lon="5.92314">
        <ele>570</ele>
        <time>2019-03-16T13:51:28Z</time>
      </trkpt>
      <trkpt lat="44.33171" lon="5.9231">
        <ele>570</ele>
        <time>2019-03-16T13:51:29Z</time>
      </trkpt>
      <trkpt lat="44.33165" lon="5.92306">
        <ele>570</ele>
        <time>2019-03-16T13:51:30Z</time>
      </trkpt>
      <trkpt lat="44.33159" lon="5.92302">
        <ele>569</ele>
        <time>2019-03-16T13:51:31Z</time>
      </trkpt>
      <trkpt lat="44.33153" lon="5.92298">
        <ele>569</ele>
        <time>2019-03-16T13:51:32Z</time>
      </trkpt>
      <trkpt lat="44.33147" lon="5.92294">
        <ele>569</ele>
        <time>2019-03-16T13:51:33Z</time>
      </trkpt>
      <trkpt lat="44.33141" lon="5.92289">
        <ele>569</ele>
        <time>2019-03-16T13:51:34Z</time>
      </trkpt>
      <trkpt lat="44.33135" lon="5.92285">
        <ele>569</ele>
        <time>2019-03-16T13:51:35Z</time>
      </trkpt>
      <trkpt lat="44.33128" lon="5.9228">
        <ele>569</ele>
        <time>2019-03-16T13:51:36Z</time>
      </trkpt>
      <trkpt lat="44.33122" lon="5.92276">
        <ele>569</ele>
        <time>2019-03-16T13:51:37Z</time>
      </trkpt>
      <trkpt lat="44.33116" lon="5.92271">
        <ele>569</ele>
        <time>2019-03-16T13:51:38Z</time>
      </trkpt>
      <trkpt lat="44.3311" lon="5.92267">
        <ele>569</ele>
        <time>2019-03-16T13:51:39Z</time>
      </trkpt>
      <trkpt lat="44.33104" lon="5.92263">
        <ele>569</ele>
        <time>2019-03-16T13:51:40Z</time>
      </trkpt>
      <trkpt lat="44.33098" lon="5.92258">
        <ele>569</ele>
        <time>2019-03-16T13:51:41Z</time>
      </trkpt>
      <trkpt lat="44.33092" lon="5.92254">
        <ele>569</ele>
        <time>2019-03-16T13:51:42Z</time>
      </trkpt>
      <trkpt lat="44.33086" lon="5.92249">
        <ele>569</ele>
        <time>2019-03-16T13:51:43Z</time>
      </trkpt>
      <trkpt lat="44.3308" lon="5.92245">
        <ele>569</ele>
        <time>2019-03-16T13:51:44Z</time>
      </trkpt>
      <trkpt lat="44.33074" lon="5.92241">
        <ele>568</ele>
        <time>2019-03-16T13:51:45Z</time>
      </trkpt>
      <trkpt lat="44.33068" lon="5.92237">
        <ele>568</ele>
        <time>2019-03-16T13:51:46Z</time>
      </trkpt>
      <trkpt lat="44.33063" lon="5.92233">
        <ele>568</ele>
        <time>2019-03-16T13:51:47Z</time>
      </trkpt>
      <trkpt lat="44.33057" lon="5.92228">
        <ele>568</ele>
        <time>2019-03-16T13:51:48Z</time>
      </trkpt>
      <trkpt lat="44.33051" lon="5.92224">
        <ele>568</ele>
        <time>2019-03-16T13:51:49Z</time>
      </trkpt>
      <trkpt lat="44.33045" lon="5.92219">
        <ele>568</ele>
        <time>2019-03-16T13:51:50Z</time>
      </trkpt>
      <trkpt lat="44.33039" lon="5.92215">
        <ele>568</ele>
        <time>2019-03-16T13:51:51Z</time>
      </trkpt>
      <trkpt lat="44.33033" lon="5.92211">
        <ele>568</ele>
        <time>2019-03-16T13:51:52Z</time>
      </trkpt>
      <trkpt lat="44.33028" lon="5.92207">
        <ele>568</ele>
        <time>2019-03-16T13:51:53Z</time>
      </trkpt>
      <trkpt lat="44.33022" lon="5.92203">
        <ele>568</ele>
        <time>2019-03-16T13:51:54Z</time>
      </trkpt>
      <trkpt lat="44.33017" lon="5.92198">
        <ele>568</ele>
        <time>2019-03-16T13:51:55Z</time>
      </trkpt>
      <trkpt lat="44.33011" lon="5.92194">
        <ele>568</ele>
        <time>2019-03-16T13:51:56Z</time>
      </trkpt>
      <trkpt lat="44.33006" lon="5.92189">
        <ele>568</ele>
        <time>2019-03-16T13:51:57Z</time>
      </trkpt>
      <trkpt lat="44.33001" lon="5.92185">
        <ele>568</ele>
        <time>2019-03-16T13:51:58Z</time>
      </trkpt>
      <trkpt lat="44.32995" lon="5.9218">
        <ele>568</ele>
        <time>2019-03-16T13:51:59Z</time>
      </trkpt>
      <trkpt lat="44.3299" lon="5.92175">
        <ele>568</ele>
        <time>2019-03-16T13:52:00Z</time>
      </trkpt>
      <trkpt lat="44.32985" lon="5.9217">
        <ele>568</ele>
        <time>2019-03-16T13:52:01Z</time>
      </trkpt>
      <trkpt lat="44.3298" lon="5.92165">
        <ele>568</ele>
        <time>2019-03-16T13:52:02Z</time>
      </trkpt>
      <trkpt lat="44.32974" lon="5.9216">
        <ele>568</ele>
        <time>2019-03-16T13:52:03Z</time>
      </trkpt>
      <trkpt lat="44.32969" lon="5.92155">
        <ele>568</ele>
        <time>2019-03-16T13:52:04Z</time>
      </trkpt>
      <trkpt lat="44.32964" lon="5.92149">
        <ele>568</ele>
        <time>2019-03-16T13:52:05Z</time>
      </trkpt>
      <trkpt lat="44.32959" lon="5.92145">
        <ele>568</ele>
        <time>2019-03-16T13:52:06Z</time>
      </trkpt>
      <trkpt lat="44.32953" lon="5.92141">
        <ele>568</ele>
        <time>2019-03-16T13:52:07Z</time>
      </trkpt>
      <trkpt lat="44.32947" lon="5.92137">
        <ele>568</ele>
        <time>2019-03-16T13:52:08Z</time>
      </trkpt>
      <trkpt lat="44.32941" lon="5.92134">
        <ele>568</ele>
        <time>2019-03-16T13:52:09Z</time>
      </trkpt>
      <trkpt lat="44.32935" lon="5.92131">
        <ele>568</ele>
        <time>2019-03-16T13:52:10Z</time>
      </trkpt>
      <trkpt lat="44.32929" lon="5.92128">
        <ele>568</ele>
        <time>2019-03-16T13:52:11Z</time>
      </trkpt>
      <trkpt lat="44.32923" lon="5.92125">
        <ele>568</ele>
        <time>2019-03-16T13:52:12Z</time>
      </trkpt>
      <trkpt lat="44.32917" lon="5.92123">
        <ele>568</ele>
        <time>2019-03-16T13:52:13Z</time>
      </trkpt>
      <trkpt lat="44.32911" lon="5.9212">
        <ele>568</ele>
        <time>2019-03-16T13:52:14Z</time>
      </trkpt>
      <trkpt lat="44.32905" lon="5.92117">
        <ele>568</ele>
        <time>2019-03-16T13:52:15Z</time>
      </trkpt>
      <trkpt lat="44.32899" lon="5.92114">
        <ele>568</ele>
        <time>2019-03-16T13:52:16Z</time>
      </trkpt>
      <trkpt lat="44.32893" lon="5.92112">
        <ele>568</ele>
        <time>2019-03-16T13:52:17Z</time>
      </trkpt>
      <trkpt lat="44.32887" lon="5.9211">
        <ele>568</ele>
        <time>2019-03-16T13:52:18Z</time>
      </trkpt>
      <trkpt lat="44.3288" lon="5.92108">
        <ele>568</ele>
        <time>2019-03-16T13:52:19Z</time>
      </trkpt>
      <trkpt lat="44.32874" lon="5.92106">
        <ele>568</ele>
        <time>2019-03-16T13:52:20Z</time>
      </trkpt>
      <trkpt lat="44.32868" lon="5.92105">
        <ele>568</ele>
        <time>2019-03-16T13:52:21Z</time>
      </trkpt>
      <trkpt lat="44.32862" lon="5.92105">
        <ele>568</ele>
        <time>2019-03-16T13:52:22Z</time>
      </trkpt>
      <trkpt lat="44.32856" lon="5.92104">
        <ele>568</ele>
        <time>2019-03-16T13:52:23Z</time>
      </trkpt>
      <trkpt lat="44.32849" lon="5.92104">
        <ele>568</ele>
        <time>2019-03-16T13:52:24Z</time>
      </trkpt>
      <trkpt lat="44.32843" lon="5.92104">
        <ele>568</ele>
        <time>2019-03-16T13:52:25Z</time>
      </trkpt>
      <trkpt lat="44.32837" lon="5.92103">
        <ele>568</ele>
        <time>2019-03-16T13:52:26Z</time>
      </trkpt>
      <trkpt lat="44.3283" lon="5.92103">
        <ele>568</ele>
        <time>2019-03-16T13:52:27Z</time>
      </trkpt>
      <trkpt lat="44.32824" lon="5.92103">
        <ele>568</ele>
        <time>2019-03-16T13:52:28Z</time>
      </trkpt>
      <trkpt lat="44.32818" lon="5.92103">
        <ele>568</ele>
        <time>2019-03-16T13:52:29Z</time>
      </trkpt>
      <trkpt lat="44.32812" lon="5.92103">
        <ele>568</ele>
        <time>2019-03-16T13:52:30Z</time>
      </trkpt>
      <trkpt lat="44.32806" lon="5.92103">
        <ele>568</ele>
        <time>2019-03-16T13:52:31Z</time>
      </trkpt>
      <trkpt lat="44.328" lon="5.92103">
        <ele>568</ele>
        <time>2019-03-16T13:52:32Z</time>
      </trkpt>
      <trkpt lat="44.32794" lon="5.92103">
        <ele>568</ele>
        <time>2019-03-16T13:52:33Z</time>
      </trkpt>
      <trkpt lat="44.32788" lon="5.92103">
        <ele>568</ele>
        <time>2019-03-16T13:52:34Z</time>
      </trkpt>
      <trkpt lat="44.32782" lon="5.92103">
        <ele>568</ele>
        <time>2019-03-16T13:52:35Z</time>
      </trkpt>
      <trkpt lat="44.32777" lon="5.92103">
        <ele>568</ele>
        <time>2019-03-16T13:52:36Z</time>
      </trkpt>
      <trkpt lat="44.32771" lon="5.92103">
        <ele>568</ele>
        <time>2019-03-16T13:52:37Z</time>
      </trkpt>
      <trkpt lat="44.32765" lon="5.92103">
        <ele>568</ele>
        <time>2019-03-16T13:52:38Z</time>
      </trkpt>
      <trkpt lat="44.32759" lon="5.92102">
        <ele>568</ele>
        <time>2019-03-16T13:52:39Z</time>
      </trkpt>
      <trkpt lat="44.32754" lon="5.92102">
        <ele>568</ele>
        <time>2019-03-16T13:52:40Z</time>
      </trkpt>
      <trkpt lat="44.32748" lon="5.92101">
        <ele>568</ele>
        <time>2019-03-16T13:52:41Z</time>
      </trkpt>
      <trkpt lat="44.32742" lon="5.92101">
        <ele>568</ele>
        <time>2019-03-16T13:52:42Z</time>
      </trkpt>
      <trkpt lat="44.32737" lon="5.92101">
        <ele>568</ele>
        <time>2019-03-16T13:52:43Z</time>
      </trkpt>
      <trkpt lat="44.32731" lon="5.92101">
        <ele>568</ele>
        <time>2019-03-16T13:52:44Z</time>
      </trkpt>
      <trkpt lat="44.32725" lon="5.921">
        <ele>568</ele>
        <time>2019-03-16T13:52:45Z</time>
      </trkpt>
      <trkpt lat="44.32719" lon="5.921">
        <ele>568</ele>
        <time>2019-03-16T13:52:46Z</time>
      </trkpt>
      <trkpt lat="44.32714" lon="5.921">
        <ele>568</ele>
        <time>2019-03-16T13:52:47Z</time>
      </trkpt>
      <trkpt lat="44.32708" lon="5.921">
        <ele>568</ele>
        <time>2019-03-16T13:52:48Z</time>
      </trkpt>
      <trkpt lat="44.32702" lon="5.921">
        <ele>568</ele>
        <time>2019-03-16T13:52:49Z</time>
      </trkpt>
      <trkpt lat="44.32697" lon="5.921">
        <ele>568</ele>
        <time>2019-03-16T13:52:50Z</time>
      </trkpt>
      <trkpt lat="44.32691" lon="5.921">
        <ele>568</ele>
        <time>2019-03-16T13:52:51Z</time>
      </trkpt>
      <trkpt lat="44.32686" lon="5.921">
        <ele>568</ele>
        <time>2019-03-16T13:52:52Z</time>
      </trkpt>
      <trkpt lat="44.3268" lon="5.921">
        <ele>568</ele>
        <time>2019-03-16T13:52:53Z</time>
      </trkpt>
      <trkpt lat="44.32675" lon="5.921">
        <ele>568</ele>
        <time>2019-03-16T13:52:54Z</time>
      </trkpt>
      <trkpt lat="44.32669" lon="5.921">
        <ele>568</ele>
        <time>2019-03-16T13:52:55Z</time>
      </trkpt>
      <trkpt lat="44.32663" lon="5.921">
        <ele>568</ele>
        <time>2019-03-16T13:52:56Z</time>
      </trkpt>
      <trkpt lat="44.32657" lon="5.921">
        <ele>568</ele>
        <time>2019-03-16T13:52:57Z</time>
      </trkpt>
      <trkpt lat="44.32651" lon="5.921">
        <ele>568</ele>
        <time>2019-03-16T13:52:58Z</time>
      </trkpt>
      <trkpt lat="44.32644" lon="5.921">
        <ele>568</ele>
        <time>2019-03-16T13:52:59Z</time>
      </trkpt>
      <trkpt lat="44.32638" lon="5.921">
        <ele>568</ele>
        <time>2019-03-16T13:53:00Z</time>
      </trkpt>
      <trkpt lat="44.32631" lon="5.92101">
        <ele>568</ele>
        <time>2019-03-16T13:53:01Z</time>
      </trkpt>
      <trkpt lat="44.32625" lon="5.92101">
        <ele>568</ele>
        <time>2019-03-16T13:53:02Z</time>
      </trkpt>
      <trkpt lat="44.32618" lon="5.92101">
        <ele>568</ele>
        <time>2019-03-16T13:53:03Z</time>
      </trkpt>
      <trkpt lat="44.32611" lon="5.92101">
        <ele>568</ele>
        <time>2019-03-16T13:53:04Z</time>
      </trkpt>
      <trkpt lat="44.32605" lon="5.92101">
        <ele>568</ele>
        <time>2019-03-16T13:53:05Z</time>
      </trkpt>
      <trkpt lat="44.32598" lon="5.92101">
        <ele>568</ele>
        <time>2019-03-16T13:53:06Z</time>
      </trkpt>
      <trkpt lat="44.32591" lon="5.92101">
        <ele>568</ele>
        <time>2019-03-16T13:53:07Z</time>
      </trkpt>
      <trkpt lat="44.32584" lon="5.92101">
        <ele>568</ele>
        <time>2019-03-16T13:53:08Z</time>
      </trkpt>
      <trkpt lat="44.32576" lon="5.92101">
        <ele>568</ele>
        <time>2019-03-16T13:53:09Z</time>
      </trkpt>
      <trkpt lat="44.32569" lon="5.92101">
        <ele>568</ele>
        <time>2019-03-16T13:53:10Z</time>
      </trkpt>
      <trkpt lat="44.32561" lon="5.92101">
        <ele>568</ele>
        <time>2019-03-16T13:53:11Z</time>
      </trkpt>
      <trkpt lat="44.32554" lon="5.92101">
        <ele>568</ele>
        <time>2019-03-16T13:53:12Z</time>
      </trkpt>
      <trkpt lat="44.32547" lon="5.92102">
        <ele>568</ele>
        <time>2019-03-16T13:53:13Z</time>
      </trkpt>
      <trkpt lat="44.32539" lon="5.92102">
        <ele>568</ele>
        <time>2019-03-16T13:53:14Z</time>
      </trkpt>
      <trkpt lat="44.32532" lon="5.92102">
        <ele>568</ele>
        <time>2019-03-16T13:53:15Z</time>
      </trkpt>
      <trkpt lat="44.32524" lon="5.92103">
        <ele>568</ele>
        <time>2019-03-16T13:53:16Z</time>
      </trkpt>
      <trkpt lat="44.32517" lon="5.92103">
        <ele>568</ele>
        <time>2019-03-16T13:53:17Z</time>
      </trkpt>
      <trkpt lat="44.3251" lon="5.92103">
        <ele>568</ele>
        <time>2019-03-16T13:53:18Z</time>
      </trkpt>
      <trkpt lat="44.32502" lon="5.92103">
        <ele>568</ele>
        <time>2019-03-16T13:53:19Z</time>
      </trkpt>
      <trkpt lat="44.32495" lon="5.92103">
        <ele>568</ele>
        <time>2019-03-16T13:53:20Z</time>
      </trkpt>
      <trkpt lat="44.32487" lon="5.92103">
        <ele>568</ele>
        <time>2019-03-16T13:53:21Z</time>
      </trkpt>
      <trkpt lat="44.32479" lon="5.92103">
        <ele>568</ele>
        <time>2019-03-16T13:53:22Z</time>
      </trkpt>
      <trkpt lat="44.32472" lon="5.92103">
        <ele>568</ele>
        <time>2019-03-16T13:53:23Z</time>
      </trkpt>
      <trkpt lat="44.32464" lon="5.92103">
        <ele>568</ele>
        <time>2019-03-16T13:53:24Z</time>
      </trkpt>
      <trkpt lat="44.32457" lon="5.92103">
        <ele>568</ele>
        <time>2019-03-16T13:53:25Z</time>
      </trkpt>
      <trkpt lat="44.32449" lon="5.92103">
        <ele>568</ele>
        <time>2019-03-16T13:53:26Z</time>
      </trkpt>
      <trkpt lat="44.32442" lon="5.92103">
        <ele>568</ele>
        <time>2019-03-16T13:53:27Z</time>
      </trkpt>
      <trkpt lat="44.32434" lon="5.92103">
        <ele>568</ele>
        <time>2019-03-16T13:53:28Z</time>
      </trkpt>
      <trkpt lat="44.32427" lon="5.92103">
        <ele>568</ele>
        <time>2019-03-16T13:53:29Z</time>
      </trkpt>
      <trkpt lat="44.32419" lon="5.92103">
        <ele>568</ele>
        <time>2019-03-16T13:53:30Z</time>
      </trkpt>
      <trkpt lat="44.32411" lon="5.92103">
        <ele>568</ele>
        <time>2019-03-16T13:53:31Z</time>
      </trkpt>
      <trkpt lat="44.32404" lon="5.92104">
        <ele>568</ele>
        <time>2019-03-16T13:53:32Z</time>
      </trkpt>
      <trkpt lat="44.32396" lon="5.92104">
        <ele>568</ele>
        <time>2019-03-16T13:53:33Z</time>
      </trkpt>
      <trkpt lat="44.32388" lon="5.92104">
        <ele>568</ele>
        <time>2019-03-16T13:53:34Z</time>
      </trkpt>
      <trkpt lat="44.32381" lon="5.92104">
        <ele>568</ele>
        <time>2019-03-16T13:53:35Z</time>
      </trkpt>
      <trkpt lat="44.32373" lon="5.92104">
        <ele>568</ele>
        <time>2019-03-16T13:53:36Z</time>
      </trkpt>
      <trkpt lat="44.32365" lon="5.92104">
        <ele>568</ele>
        <time>2019-03-16T13:53:37Z</time>
      </trkpt>
      <trkpt lat="44.32358" lon="5.92104">
        <ele>568</ele>
        <time>2019-03-16T13:53:38Z</time>
      </trkpt>
      <trkpt lat="44.32351" lon="5.92104">
        <ele>568</ele>
        <time>2019-03-16T13:53:39Z</time>
      </trkpt>
      <trkpt lat="44.32343" lon="5.92104">
        <ele>568</ele>
        <time>2019-03-16T13:53:40Z</time>
      </trkpt>
      <trkpt lat="44.32335" lon="5.92104">
        <ele>568</ele>
        <time>2019-03-16T13:53:41Z</time>
      </trkpt>
      <trkpt lat="44.32328" lon="5.92103">
        <ele>568</ele>
        <time>2019-03-16T13:53:42Z</time>
      </trkpt>
      <trkpt lat="44.3232" lon="5.92103">
        <ele>568</ele>
        <time>2019-03-16T13:53:43Z</time>
      </trkpt>
      <trkpt lat="44.32312" lon="5.92102">
        <ele>568</ele>
        <time>2019-03-16T13:53:44Z</time>
      </trkpt>
      <trkpt lat="44.32305" lon="5.92102">
        <ele>568</ele>
        <time>2019-03-16T13:53:45Z</time>
      </trkpt>
      <trkpt lat="44.32297" lon="5.92101">
        <ele>568</ele>
        <time>2019-03-16T13:53:46Z</time>
      </trkpt>
      <trkpt lat="44.3229" lon="5.921">
        <ele>568</ele>
        <time>2019-03-16T13:53:47Z</time>
      </trkpt>
      <trkpt lat="44.32282" lon="5.92098">
        <ele>568</ele>
        <time>2019-03-16T13:53:48Z</time>
      </trkpt>
      <trkpt lat="44.32274" lon="5.92097">
        <ele>568</ele>
        <time>2019-03-16T13:53:49Z</time>
      </trkpt>
      <trkpt lat="44.32267" lon="5.92096">
        <ele>568</ele>
        <time>2019-03-16T13:53:50Z</time>
      </trkpt>
      <trkpt lat="44.32259" lon="5.92095">
        <ele>568</ele>
        <time>2019-03-16T13:53:51Z</time>
      </trkpt>
      <trkpt lat="44.32251" lon="5.92093">
        <ele>568</ele>
        <time>2019-03-16T13:53:52Z</time>
      </trkpt>
      <trkpt lat="44.32244" lon="5.92092">
        <ele>568</ele>
        <time>2019-03-16T13:53:53Z</time>
      </trkpt>
      <trkpt lat="44.32236" lon="5.9209">
        <ele>568</ele>
        <time>2019-03-16T13:53:54Z</time>
      </trkpt>
      <trkpt lat="44.32228" lon="5.92089">
        <ele>568</ele>
        <time>2019-03-16T13:53:55Z</time>
      </trkpt>
      <trkpt lat="44.32221" lon="5.92088">
        <ele>568</ele>
        <time>2019-03-16T13:53:56Z</time>
      </trkpt>
      <trkpt lat="44.32213" lon="5.92086">
        <ele>568</ele>
        <time>2019-03-16T13:53:57Z</time>
      </trkpt>
      <trkpt lat="44.32206" lon="5.92085">
        <ele>568</ele>
        <time>2019-03-16T13:53:58Z</time>
      </trkpt>
      <trkpt lat="44.32198" lon="5.92083">
        <ele>568</ele>
        <time>2019-03-16T13:53:59Z</time>
      </trkpt>
      <trkpt lat="44.3219" lon="5.92082">
        <ele>568</ele>
        <time>2019-03-16T13:54:00Z</time>
      </trkpt>
      <trkpt lat="44.32182" lon="5.92081">
        <ele>568</ele>
        <time>2019-03-16T13:54:01Z</time>
      </trkpt>
      <trkpt lat="44.32175" lon="5.92079">
        <ele>568</ele>
        <time>2019-03-16T13:54:02Z</time>
      </trkpt>
      <trkpt lat="44.32167" lon="5.92078">
        <ele>568</ele>
        <time>2019-03-16T13:54:03Z</time>
      </trkpt>
      <trkpt lat="44.3216" lon="5.92077">
        <ele>568</ele>
        <time>2019-03-16T13:54:04Z</time>
      </trkpt>
      <trkpt lat="44.32152" lon="5.92075">
        <ele>568</ele>
        <time>2019-03-16T13:54:05Z</time>
      </trkpt>
      <trkpt lat="44.32144" lon="5.92074">
        <ele>568</ele>
        <time>2019-03-16T13:54:06Z</time>
      </trkpt>
      <trkpt lat="44.32137" lon="5.92072">
        <ele>568</ele>
        <time>2019-03-16T13:54:07Z</time>
      </trkpt>
      <trkpt lat="44.32129" lon="5.92071">
        <ele>568</ele>
        <time>2019-03-16T13:54:08Z</time>
      </trkpt>
      <trkpt lat="44.32122" lon="5.9207">
        <ele>568</ele>
        <time>2019-03-16T13:54:09Z</time>
      </trkpt>
      <trkpt lat="44.32114" lon="5.92068">
        <ele>568</ele>
        <time>2019-03-16T13:54:10Z</time>
      </trkpt>
      <trkpt lat="44.32107" lon="5.92067">
        <ele>568</ele>
        <time>2019-03-16T13:54:11Z</time>
      </trkpt>
      <trkpt lat="44.321" lon="5.92065">
        <ele>568</ele>
        <time>2019-03-16T13:54:12Z</time>
      </trkpt>
      <trkpt lat="44.32092" lon="5.92064">
        <ele>568</ele>
        <time>2019-03-16T13:54:13Z</time>
      </trkpt>
      <trkpt lat="44.32085" lon="5.92063">
        <ele>568</ele>
        <time>2019-03-16T13:54:14Z</time>
      </trkpt>
      <trkpt lat="44.32077" lon="5.92061">
        <ele>568</ele>
        <time>2019-03-16T13:54:15Z</time>
      </trkpt>
      <trkpt lat="44.3207" lon="5.9206">
        <ele>568</ele>
        <time>2019-03-16T13:54:16Z</time>
      </trkpt>
      <trkpt lat="44.32063" lon="5.92059">
        <ele>568</ele>
        <time>2019-03-16T13:54:17Z</time>
      </trkpt>
      <trkpt lat="44.32056" lon="5.92058">
        <ele>568</ele>
        <time>2019-03-16T13:54:18Z</time>
      </trkpt>
      <trkpt lat="44.32049" lon="5.92056">
        <ele>568</ele>
        <time>2019-03-16T13:54:19Z</time>
      </trkpt>
      <trkpt lat="44.32042" lon="5.92055">
        <ele>568</ele>
        <time>2019-03-16T13:54:20Z</time>
      </trkpt>
      <trkpt lat="44.32035" lon="5.92054">
        <ele>568</ele>
        <time>2019-03-16T13:54:21Z</time>
      </trkpt>
      <trkpt lat="44.32028" lon="5.92053">
        <ele>568</ele>
        <time>2019-03-16T13:54:22Z</time>
      </trkpt>
      <trkpt lat="44.32021" lon="5.92054">
        <ele>568</ele>
        <time>2019-03-16T13:54:23Z</time>
      </trkpt>
      <trkpt lat="44.32014" lon="5.92054">
        <ele>568</ele>
        <time>2019-03-16T13:54:24Z</time>
      </trkpt>
      <trkpt lat="44.32007" lon="5.92056">
        <ele>568</ele>
        <time>2019-03-16T13:54:25Z</time>
      </trkpt>
      <trkpt lat="44.32" lon="5.92059">
        <ele>568</ele>
        <time>2019-03-16T13:54:26Z</time>
      </trkpt>
      <trkpt lat="44.31994" lon="5.92064">
        <ele>568</ele>
        <time>2019-03-16T13:54:27Z</time>
      </trkpt>
      <trkpt lat="44.31988" lon="5.92068">
        <ele>568</ele>
        <time>2019-03-16T13:54:28Z</time>
      </trkpt>
      <trkpt lat="44.31982" lon="5.92073">
        <ele>568</ele>
        <time>2019-03-16T13:54:29Z</time>
      </trkpt>
      <trkpt lat="44.31976" lon="5.92078">
        <ele>568</ele>
        <time>2019-03-16T13:54:30Z</time>
      </trkpt>
      <trkpt lat="44.3197" lon="5.92082">
        <ele>568</ele>
        <time>2019-03-16T13:54:31Z</time>
      </trkpt>
      <trkpt lat="44.31964" lon="5.92087">
        <ele>568</ele>
        <time>2019-03-16T13:54:32Z</time>
      </trkpt>
      <trkpt lat="44.31958" lon="5.92091">
        <ele>568</ele>
        <time>2019-03-16T13:54:33Z</time>
      </trkpt>
      <trkpt lat="44.31952" lon="5.92095">
        <ele>568</ele>
        <time>2019-03-16T13:54:34Z</time>
      </trkpt>
      <trkpt lat="44.31947" lon="5.92098">
        <ele>567</ele>
        <time>2019-03-16T13:54:35Z</time>
      </trkpt>
      <trkpt lat="44.31941" lon="5.92102">
        <ele>567</ele>
        <time>2019-03-16T13:54:36Z</time>
      </trkpt>
      <trkpt lat="44.31936" lon="5.92107">
        <ele>567</ele>
        <time>2019-03-16T13:54:37Z</time>
      </trkpt>
      <trkpt lat="44.31931" lon="5.9211">
        <ele>567</ele>
        <time>2019-03-16T13:54:38Z</time>
      </trkpt>
      <trkpt lat="44.31926" lon="5.92114">
        <ele>567</ele>
        <time>2019-03-16T13:54:39Z</time>
      </trkpt>
      <trkpt lat="44.31921" lon="5.92118">
        <ele>567</ele>
        <time>2019-03-16T13:54:40Z</time>
      </trkpt>
      <trkpt lat="44.31916" lon="5.9212">
        <ele>567</ele>
        <time>2019-03-16T13:54:41Z</time>
      </trkpt>
      <trkpt lat="44.31912" lon="5.92123">
        <ele>567</ele>
        <time>2019-03-16T13:54:42Z</time>
      </trkpt>
      <trkpt lat="44.31908" lon="5.92126">
        <ele>567</ele>
        <time>2019-03-16T13:54:43Z</time>
      </trkpt>
      <trkpt lat="44.31903" lon="5.92129">
        <ele>567</ele>
        <time>2019-03-16T13:54:44Z</time>
      </trkpt>
      <trkpt lat="44.31898" lon="5.92132">
        <ele>567</ele>
        <time>2019-03-16T13:54:45Z</time>
      </trkpt>
      <trkpt lat="44.31894" lon="5.92135">
        <ele>567</ele>
        <time>2019-03-16T13:54:46Z</time>
      </trkpt>
      <trkpt lat="44.31889" lon="5.92138">
        <ele>567</ele>
        <time>2019-03-16T13:54:47Z</time>
      </trkpt>
      <trkpt lat="44.31884" lon="5.92142">
        <ele>567</ele>
        <time>2019-03-16T13:54:48Z</time>
      </trkpt>
      <trkpt lat="44.31879" lon="5.92146">
        <ele>567</ele>
        <time>2019-03-16T13:54:49Z</time>
      </trkpt>
      <trkpt lat="44.31873" lon="5.92149">
        <ele>566</ele>
        <time>2019-03-16T13:54:50Z</time>
      </trkpt>
      <trkpt lat="44.31868" lon="5.92153">
        <ele>566</ele>
        <time>2019-03-16T13:54:51Z</time>
      </trkpt>
      <trkpt lat="44.31862" lon="5.92157">
        <ele>566</ele>
        <time>2019-03-16T13:54:52Z</time>
      </trkpt>
      <trkpt lat="44.31856" lon="5.9216">
        <ele>565</ele>
        <time>2019-03-16T13:54:53Z</time>
      </trkpt>
      <trkpt lat="44.31851" lon="5.92163">
        <ele>565</ele>
        <time>2019-03-16T13:54:54Z</time>
      </trkpt>
      <trkpt lat="44.31847" lon="5.92166">
        <ele>564</ele>
        <time>2019-03-16T13:54:55Z</time>
      </trkpt>
      <trkpt lat="44.31843" lon="5.92168">
        <ele>564</ele>
        <time>2019-03-16T13:54:56Z</time>
      </trkpt>
      <trkpt lat="44.3184" lon="5.92172">
        <ele>564</ele>
        <time>2019-03-16T13:54:57Z</time>
      </trkpt>
      <trkpt lat="44.31837" lon="5.92174">
        <ele>564</ele>
        <time>2019-03-16T13:54:58Z</time>
      </trkpt>
      <trkpt lat="44.31835" lon="5.92177">
        <ele>564</ele>
        <time>2019-03-16T13:54:59Z</time>
      </trkpt>
      <trkpt lat="44.31834" lon="5.9218">
        <ele>564</ele>
        <time>2019-03-16T13:55:00Z</time>
      </trkpt>
      <trkpt lat="44.31832" lon="5.92182">
        <ele>564</ele>
        <time>2019-03-16T13:55:01Z</time>
      </trkpt>
      <trkpt lat="44.3183" lon="5.92184">
        <ele>564</ele>
        <time>2019-03-16T13:55:02Z</time>
      </trkpt>
      <trkpt lat="44.31828" lon="5.92186">
        <ele>563</ele>
        <time>2019-03-16T13:55:03Z</time>
      </trkpt>
      <trkpt lat="44.31827" lon="5.92188">
        <ele>563</ele>
        <time>2019-03-16T13:55:04Z</time>
      </trkpt>
      <trkpt lat="44.31826" lon="5.9219">
        <ele>563</ele>
        <time>2019-03-16T13:55:06Z</time>
      </trkpt>
      <trkpt lat="44.31827" lon="5.92191">
        <ele>563</ele>
        <time>2019-03-16T13:55:28Z</time>
      </trkpt>
      <trkpt lat="44.31831" lon="5.92191">
        <ele>564</ele>
        <time>2019-03-16T13:55:56Z</time>
      </trkpt>
      <trkpt lat="44.31832" lon="5.92193">
        <ele>564</ele>
        <time>2019-03-16T13:55:57Z</time>
      </trkpt>
      <trkpt lat="44.31833" lon="5.92197">
        <ele>564</ele>
        <time>2019-03-16T13:55:58Z</time>
      </trkpt>
      <trkpt lat="44.31834" lon="5.922">
        <ele>564</ele>
        <time>2019-03-16T13:55:59Z</time>
      </trkpt>
      <trkpt lat="44.31834" lon="5.92203">
        <ele>564</ele>
        <time>2019-03-16T13:56:00Z</time>
      </trkpt>
      <trkpt lat="44.31834" lon="5.92207">
        <ele>564</ele>
        <time>2019-03-16T13:56:01Z</time>
      </trkpt>
      <trkpt lat="44.31831" lon="5.92213">
        <ele>564</ele>
        <time>2019-03-16T13:56:02Z</time>
      </trkpt>
      <trkpt lat="44.31829" lon="5.9222">
        <ele>564</ele>
        <time>2019-03-16T13:56:03Z</time>
      </trkpt>
      <trkpt lat="44.31826" lon="5.92227">
        <ele>564</ele>
        <time>2019-03-16T13:56:04Z</time>
      </trkpt>
      <trkpt lat="44.31824" lon="5.92235">
        <ele>564</ele>
        <time>2019-03-16T13:56:05Z</time>
      </trkpt>
      <trkpt lat="44.31822" lon="5.92243">
        <ele>564</ele>
        <time>2019-03-16T13:56:06Z</time>
      </trkpt>
      <trkpt lat="44.31821" lon="5.92252">
        <ele>564</ele>
        <time>2019-03-16T13:56:07Z</time>
      </trkpt>
      <trkpt lat="44.31823" lon="5.92262">
        <ele>564</ele>
        <time>2019-03-16T13:56:08Z</time>
      </trkpt>
      <trkpt lat="44.31825" lon="5.92271">
        <ele>564</ele>
        <time>2019-03-16T13:56:09Z</time>
      </trkpt>
      <trkpt lat="44.31828" lon="5.9228">
        <ele>564</ele>
        <time>2019-03-16T13:56:10Z</time>
      </trkpt>
      <trkpt lat="44.31832" lon="5.92291">
        <ele>564</ele>
        <time>2019-03-16T13:56:11Z</time>
      </trkpt>
      <trkpt lat="44.31836" lon="5.92302">
        <ele>564</ele>
        <time>2019-03-16T13:56:12Z</time>
      </trkpt>
      <trkpt lat="44.3184" lon="5.92313">
        <ele>564</ele>
        <time>2019-03-16T13:56:13Z</time>
      </trkpt>
      <trkpt lat="44.31844" lon="5.92324">
        <ele>564</ele>
        <time>2019-03-16T13:56:14Z</time>
      </trkpt>
      <trkpt lat="44.31848" lon="5.92335">
        <ele>563</ele>
        <time>2019-03-16T13:56:15Z</time>
      </trkpt>
      <trkpt lat="44.31852" lon="5.92347">
        <ele>562</ele>
        <time>2019-03-16T13:56:16Z</time>
      </trkpt>
      <trkpt lat="44.31855" lon="5.9236">
        <ele>561</ele>
        <time>2019-03-16T13:56:17Z</time>
      </trkpt>
      <trkpt lat="44.31858" lon="5.92373">
        <ele>560</ele>
        <time>2019-03-16T13:56:18Z</time>
      </trkpt>
      <trkpt lat="44.31863" lon="5.92386">
        <ele>559</ele>
        <time>2019-03-16T13:56:19Z</time>
      </trkpt>
      <trkpt lat="44.31868" lon="5.924">
        <ele>558</ele>
        <time>2019-03-16T13:56:20Z</time>
      </trkpt>
      <trkpt lat="44.31872" lon="5.92414">
        <ele>557</ele>
        <time>2019-03-16T13:56:21Z</time>
      </trkpt>
      <trkpt lat="44.31875" lon="5.92427">
        <ele>556</ele>
        <time>2019-03-16T13:56:22Z</time>
      </trkpt>
      <trkpt lat="44.31878" lon="5.92438">
        <ele>555</ele>
        <time>2019-03-16T13:56:23Z</time>
      </trkpt>
      <trkpt lat="44.31879" lon="5.92449">
        <ele>554</ele>
        <time>2019-03-16T13:56:24Z</time>
      </trkpt>
      <trkpt lat="44.31877" lon="5.92458">
        <ele>553</ele>
        <time>2019-03-16T13:56:25Z</time>
      </trkpt>
      <trkpt lat="44.31873" lon="5.92465">
        <ele>552</ele>
        <time>2019-03-16T13:56:26Z</time>
      </trkpt>
      <trkpt lat="44.31866" lon="5.92471">
        <ele>551</ele>
        <time>2019-03-16T13:56:27Z</time>
      </trkpt>
      <trkpt lat="44.31858" lon="5.92473">
        <ele>551</ele>
        <time>2019-03-16T13:56:28Z</time>
      </trkpt>
      <trkpt lat="44.31849" lon="5.92472">
        <ele>550</ele>
        <time>2019-03-16T13:56:29Z</time>
      </trkpt>
      <trkpt lat="44.31841" lon="5.92469">
        <ele>549</ele>
        <time>2019-03-16T13:56:30Z</time>
      </trkpt>
      <trkpt lat="44.31833" lon="5.92464">
        <ele>548</ele>
        <time>2019-03-16T13:56:31Z</time>
      </trkpt>
      <trkpt lat="44.31826" lon="5.92457">
        <ele>547</ele>
        <time>2019-03-16T13:56:32Z</time>
      </trkpt>
      <trkpt lat="44.31821" lon="5.92449">
        <ele>547</ele>
        <time>2019-03-16T13:56:33Z</time>
      </trkpt>
      <trkpt lat="44.31815" lon="5.9244">
        <ele>547</ele>
        <time>2019-03-16T13:56:34Z</time>
      </trkpt>
      <trkpt lat="44.31811" lon="5.92431">
        <ele>547</ele>
        <time>2019-03-16T13:56:35Z</time>
      </trkpt>
      <trkpt lat="44.31805" lon="5.92423">
        <ele>547</ele>
        <time>2019-03-16T13:56:36Z</time>
      </trkpt>
      <trkpt lat="44.318" lon="5.92415">
        <ele>547</ele>
        <time>2019-03-16T13:56:37Z</time>
      </trkpt>
      <trkpt lat="44.31796" lon="5.92405">
        <ele>547</ele>
        <time>2019-03-16T13:56:38Z</time>
      </trkpt>
      <trkpt lat="44.31792" lon="5.92395">
        <ele>547</ele>
        <time>2019-03-16T13:56:39Z</time>
      </trkpt>
      <trkpt lat="44.31788" lon="5.92385">
        <ele>546</ele>
        <time>2019-03-16T13:56:40Z</time>
      </trkpt>
      <trkpt lat="44.31784" lon="5.92375">
        <ele>546</ele>
        <time>2019-03-16T13:56:41Z</time>
      </trkpt>
      <trkpt lat="44.31779" lon="5.92367">
        <ele>546</ele>
        <time>2019-03-16T13:56:42Z</time>
      </trkpt>
      <trkpt lat="44.31773" lon="5.9236">
        <ele>546</ele>
        <time>2019-03-16T13:56:43Z</time>
      </trkpt>
      <trkpt lat="44.31766" lon="5.92354">
        <ele>545</ele>
        <time>2019-03-16T13:56:44Z</time>
      </trkpt>
      <trkpt lat="44.31759" lon="5.9235">
        <ele>545</ele>
        <time>2019-03-16T13:56:45Z</time>
      </trkpt>
      <trkpt lat="44.31752" lon="5.92346">
        <ele>545</ele>
        <time>2019-03-16T13:56:46Z</time>
      </trkpt>
      <trkpt lat="44.31745" lon="5.92344">
        <ele>545</ele>
        <time>2019-03-16T13:56:47Z</time>
      </trkpt>
      <trkpt lat="44.31737" lon="5.92344">
        <ele>544</ele>
        <time>2019-03-16T13:56:48Z</time>
      </trkpt>
      <trkpt lat="44.3173" lon="5.92346">
        <ele>544</ele>
        <time>2019-03-16T13:56:49Z</time>
      </trkpt>
      <trkpt lat="44.31723" lon="5.9235">
        <ele>544</ele>
        <time>2019-03-16T13:56:50Z</time>
      </trkpt>
      <trkpt lat="44.31716" lon="5.92356">
        <ele>543</ele>
        <time>2019-03-16T13:56:51Z</time>
      </trkpt>
      <trkpt lat="44.31709" lon="5.92362">
        <ele>543</ele>
        <time>2019-03-16T13:56:52Z</time>
      </trkpt>
      <trkpt lat="44.31703" lon="5.92368">
        <ele>543</ele>
        <time>2019-03-16T13:56:53Z</time>
      </trkpt>
      <trkpt lat="44.31696" lon="5.92375">
        <ele>543</ele>
        <time>2019-03-16T13:56:54Z</time>
      </trkpt>
      <trkpt lat="44.3169" lon="5.92382">
        <ele>543</ele>
        <time>2019-03-16T13:56:55Z</time>
      </trkpt>
      <trkpt lat="44.31684" lon="5.92389">
        <ele>543</ele>
        <time>2019-03-16T13:56:56Z</time>
      </trkpt>
      <trkpt lat="44.31678" lon="5.92397">
        <ele>542</ele>
        <time>2019-03-16T13:56:57Z</time>
      </trkpt>
      <trkpt lat="44.31671" lon="5.92404">
        <ele>542</ele>
        <time>2019-03-16T13:56:58Z</time>
      </trkpt>
      <trkpt lat="44.31664" lon="5.92411">
        <ele>541</ele>
        <time>2019-03-16T13:56:59Z</time>
      </trkpt>
      <trkpt lat="44.31657" lon="5.92418">
        <ele>541</ele>
        <time>2019-03-16T13:57:00Z</time>
      </trkpt>
      <trkpt lat="44.31651" lon="5.92426">
        <ele>541</ele>
        <time>2019-03-16T13:57:01Z</time>
      </trkpt>
      <trkpt lat="44.31645" lon="5.92437">
        <ele>540</ele>
        <time>2019-03-16T13:57:02Z</time>
      </trkpt>
      <trkpt lat="44.3164" lon="5.92448">
        <ele>540</ele>
        <time>2019-03-16T13:57:03Z</time>
      </trkpt>
      <trkpt lat="44.31636" lon="5.92459">
        <ele>540</ele>
        <time>2019-03-16T13:57:04Z</time>
      </trkpt>
      <trkpt lat="44.31632" lon="5.92471">
        <ele>539</ele>
        <time>2019-03-16T13:57:05Z</time>
      </trkpt>
      <trkpt lat="44.31626" lon="5.92482">
        <ele>539</ele>
        <time>2019-03-16T13:57:06Z</time>
      </trkpt>
      <trkpt lat="44.3162" lon="5.92491">
        <ele>539</ele>
        <time>2019-03-16T13:57:07Z</time>
      </trkpt>
      <trkpt lat="44.31613" lon="5.92501">
        <ele>538</ele>
        <time>2019-03-16T13:57:08Z</time>
      </trkpt>
      <trkpt lat="44.31607" lon="5.92511">
        <ele>538</ele>
        <time>2019-03-16T13:57:09Z</time>
      </trkpt>
      <trkpt lat="44.31602" lon="5.92521">
        <ele>538</ele>
        <time>2019-03-16T13:57:10Z</time>
      </trkpt>
      <trkpt lat="44.31597" lon="5.92532">
        <ele>537</ele>
        <time>2019-03-16T13:57:11Z</time>
      </trkpt>
      <trkpt lat="44.31592" lon="5.92543">
        <ele>537</ele>
        <time>2019-03-16T13:57:12Z</time>
      </trkpt>
      <trkpt lat="44.31586" lon="5.92554">
        <ele>537</ele>
        <time>2019-03-16T13:57:13Z</time>
      </trkpt>
      <trkpt lat="44.3158" lon="5.92563">
        <ele>536</ele>
        <time>2019-03-16T13:57:14Z</time>
      </trkpt>
      <trkpt lat="44.31573" lon="5.92573">
        <ele>536</ele>
        <time>2019-03-16T13:57:15Z</time>
      </trkpt>
      <trkpt lat="44.31566" lon="5.92581">
        <ele>536</ele>
        <time>2019-03-16T13:57:16Z</time>
      </trkpt>
      <trkpt lat="44.31558" lon="5.92589">
        <ele>535</ele>
        <time>2019-03-16T13:57:17Z</time>
      </trkpt>
      <trkpt lat="44.3155" lon="5.92597">
        <ele>535</ele>
        <time>2019-03-16T13:57:18Z</time>
      </trkpt>
      <trkpt lat="44.31543" lon="5.92606">
        <ele>535</ele>
        <time>2019-03-16T13:57:19Z</time>
      </trkpt>
      <trkpt lat="44.31536" lon="5.92614">
        <ele>535</ele>
        <time>2019-03-16T13:57:20Z</time>
      </trkpt>
      <trkpt lat="44.31528" lon="5.92622">
        <ele>535</ele>
        <time>2019-03-16T13:57:21Z</time>
      </trkpt>
      <trkpt lat="44.31521" lon="5.92629">
        <ele>534</ele>
        <time>2019-03-16T13:57:22Z</time>
      </trkpt>
      <trkpt lat="44.31514" lon="5.92635">
        <ele>534</ele>
        <time>2019-03-16T13:57:23Z</time>
      </trkpt>
      <trkpt lat="44.31506" lon="5.9264">
        <ele>533</ele>
        <time>2019-03-16T13:57:24Z</time>
      </trkpt>
      <trkpt lat="44.31497" lon="5.92644">
        <ele>533</ele>
        <time>2019-03-16T13:57:25Z</time>
      </trkpt>
      <trkpt lat="44.31489" lon="5.92648">
        <ele>532</ele>
        <time>2019-03-16T13:57:26Z</time>
      </trkpt>
      <trkpt lat="44.31481" lon="5.92653">
        <ele>532</ele>
        <time>2019-03-16T13:57:27Z</time>
      </trkpt>
      <trkpt lat="44.31474" lon="5.92658">
        <ele>531</ele>
        <time>2019-03-16T13:57:28Z</time>
      </trkpt>
      <trkpt lat="44.31467" lon="5.92666">
        <ele>531</ele>
        <time>2019-03-16T13:57:29Z</time>
      </trkpt>
      <trkpt lat="44.31461" lon="5.92674">
        <ele>530</ele>
        <time>2019-03-16T13:57:30Z</time>
      </trkpt>
      <trkpt lat="44.31454" lon="5.92681">
        <ele>529</ele>
        <time>2019-03-16T13:57:31Z</time>
      </trkpt>
      <trkpt lat="44.31446" lon="5.92686">
        <ele>529</ele>
        <time>2019-03-16T13:57:32Z</time>
      </trkpt>
      <trkpt lat="44.31438" lon="5.92691">
        <ele>528</ele>
        <time>2019-03-16T13:57:33Z</time>
      </trkpt>
      <trkpt lat="44.31429" lon="5.92695">
        <ele>528</ele>
        <time>2019-03-16T13:57:34Z</time>
      </trkpt>
      <trkpt lat="44.31421" lon="5.92698">
        <ele>528</ele>
        <time>2019-03-16T13:57:35Z</time>
      </trkpt>
      <trkpt lat="44.31412" lon="5.92701">
        <ele>528</ele>
        <time>2019-03-16T13:57:36Z</time>
      </trkpt>
      <trkpt lat="44.31404" lon="5.92705">
        <ele>528</ele>
        <time>2019-03-16T13:57:37Z</time>
      </trkpt>
      <trkpt lat="44.31396" lon="5.92709">
        <ele>528</ele>
        <time>2019-03-16T13:57:38Z</time>
      </trkpt>
      <trkpt lat="44.31388" lon="5.92713">
        <ele>528</ele>
        <time>2019-03-16T13:57:39Z</time>
      </trkpt>
      <trkpt lat="44.3138" lon="5.92719">
        <ele>528</ele>
        <time>2019-03-16T13:57:40Z</time>
      </trkpt>
      <trkpt lat="44.31372" lon="5.92724">
        <ele>528</ele>
        <time>2019-03-16T13:57:41Z</time>
      </trkpt>
      <trkpt lat="44.31364" lon="5.9273">
        <ele>528</ele>
        <time>2019-03-16T13:57:42Z</time>
      </trkpt>
      <trkpt lat="44.31357" lon="5.92736">
        <ele>528</ele>
        <time>2019-03-16T13:57:43Z</time>
      </trkpt>
      <trkpt lat="44.3135" lon="5.92742">
        <ele>528</ele>
        <time>2019-03-16T13:57:44Z</time>
      </trkpt>
      <trkpt lat="44.31342" lon="5.92747">
        <ele>528</ele>
        <time>2019-03-16T13:57:45Z</time>
      </trkpt>
      <trkpt lat="44.31334" lon="5.92752">
        <ele>528</ele>
        <time>2019-03-16T13:57:46Z</time>
      </trkpt>
      <trkpt lat="44.31326" lon="5.92757">
        <ele>528</ele>
        <time>2019-03-16T13:57:47Z</time>
      </trkpt>
      <trkpt lat="44.31318" lon="5.92761">
        <ele>528</ele>
        <time>2019-03-16T13:57:48Z</time>
      </trkpt>
      <trkpt lat="44.3131" lon="5.92764">
        <ele>528</ele>
        <time>2019-03-16T13:57:49Z</time>
      </trkpt>
      <trkpt lat="44.31301" lon="5.92767">
        <ele>528</ele>
        <time>2019-03-16T13:57:50Z</time>
      </trkpt>
      <trkpt lat="44.31293" lon="5.92769">
        <ele>528</ele>
        <time>2019-03-16T13:57:51Z</time>
      </trkpt>
      <trkpt lat="44.31285" lon="5.92772">
        <ele>528</ele>
        <time>2019-03-16T13:57:52Z</time>
      </trkpt>
      <trkpt lat="44.31277" lon="5.92775">
        <ele>528</ele>
        <time>2019-03-16T13:57:53Z</time>
      </trkpt>
      <trkpt lat="44.31269" lon="5.9278">
        <ele>528</ele>
        <time>2019-03-16T13:57:54Z</time>
      </trkpt>
      <trkpt lat="44.31263" lon="5.92788">
        <ele>528</ele>
        <time>2019-03-16T13:57:55Z</time>
      </trkpt>
      <trkpt lat="44.31258" lon="5.92797">
        <ele>528</ele>
        <time>2019-03-16T13:57:56Z</time>
      </trkpt>
      <trkpt lat="44.31254" lon="5.92807">
        <ele>528</ele>
        <time>2019-03-16T13:57:57Z</time>
      </trkpt>
      <trkpt lat="44.3125" lon="5.92817">
        <ele>528</ele>
        <time>2019-03-16T13:57:58Z</time>
      </trkpt>
      <trkpt lat="44.31247" lon="5.92828">
        <ele>528</ele>
        <time>2019-03-16T13:57:59Z</time>
      </trkpt>
      <trkpt lat="44.31244" lon="5.92837">
        <ele>528</ele>
        <time>2019-03-16T13:58:00Z</time>
      </trkpt>
      <trkpt lat="44.3124" lon="5.92847">
        <ele>528</ele>
        <time>2019-03-16T13:58:01Z</time>
      </trkpt>
      <trkpt lat="44.31237" lon="5.92856">
        <ele>528</ele>
        <time>2019-03-16T13:58:02Z</time>
      </trkpt>
      <trkpt lat="44.31235" lon="5.92866">
        <ele>528</ele>
        <time>2019-03-16T13:58:03Z</time>
      </trkpt>
      <trkpt lat="44.31234" lon="5.92877">
        <ele>527</ele>
        <time>2019-03-16T13:58:04Z</time>
      </trkpt>
      <trkpt lat="44.31235" lon="5.92887">
        <ele>527</ele>
        <time>2019-03-16T13:58:05Z</time>
      </trkpt>
      <trkpt lat="44.31239" lon="5.92898">
        <ele>527</ele>
        <time>2019-03-16T13:58:06Z</time>
      </trkpt>
      <trkpt lat="44.31243" lon="5.92907">
        <ele>527</ele>
        <time>2019-03-16T13:58:07Z</time>
      </trkpt>
      <trkpt lat="44.31248" lon="5.92914">
        <ele>526</ele>
        <time>2019-03-16T13:58:08Z</time>
      </trkpt>
      <trkpt lat="44.31255" lon="5.92922">
        <ele>526</ele>
        <time>2019-03-16T13:58:09Z</time>
      </trkpt>
      <trkpt lat="44.31261" lon="5.9293">
        <ele>525</ele>
        <time>2019-03-16T13:58:10Z</time>
      </trkpt>
      <trkpt lat="44.31266" lon="5.92939">
        <ele>525</ele>
        <time>2019-03-16T13:58:11Z</time>
      </trkpt>
      <trkpt lat="44.31271" lon="5.92949">
        <ele>524</ele>
        <time>2019-03-16T13:58:12Z</time>
      </trkpt>
      <trkpt lat="44.31275" lon="5.92959">
        <ele>524</ele>
        <time>2019-03-16T13:58:13Z</time>
      </trkpt>
      <trkpt lat="44.31276" lon="5.92972">
        <ele>524</ele>
        <time>2019-03-16T13:58:14Z</time>
      </trkpt>
      <trkpt lat="44.31274" lon="5.92984">
        <ele>523</ele>
        <time>2019-03-16T13:58:15Z</time>
      </trkpt>
      <trkpt lat="44.31269" lon="5.92995">
        <ele>523</ele>
        <time>2019-03-16T13:58:16Z</time>
      </trkpt>
      <trkpt lat="44.31262" lon="5.93005">
        <ele>523</ele>
        <time>2019-03-16T13:58:17Z</time>
      </trkpt>
      <trkpt lat="44.31256" lon="5.93013">
        <ele>523</ele>
        <time>2019-03-16T13:58:18Z</time>
      </trkpt>
      <trkpt lat="44.3125" lon="5.93018">
        <ele>523</ele>
        <time>2019-03-16T13:58:19Z</time>
      </trkpt>
      <trkpt lat="44.31244" lon="5.9302">
        <ele>523</ele>
        <time>2019-03-16T13:58:20Z</time>
      </trkpt>
      <trkpt lat="44.31238" lon="5.93018">
        <ele>523</ele>
        <time>2019-03-16T13:58:21Z</time>
      </trkpt>
      <trkpt lat="44.31231" lon="5.93015">
        <ele>523</ele>
        <time>2019-03-16T13:58:22Z</time>
      </trkpt>
      <trkpt lat="44.31226" lon="5.9301">
        <ele>523</ele>
        <time>2019-03-16T13:58:23Z</time>
      </trkpt>
      <trkpt lat="44.31223" lon="5.93003">
        <ele>522</ele>
        <time>2019-03-16T13:58:24Z</time>
      </trkpt>
      <trkpt lat="44.3122" lon="5.92996">
        <ele>522</ele>
        <time>2019-03-16T13:58:25Z</time>
      </trkpt>
      <trkpt lat="44.31215" lon="5.92989">
        <ele>522</ele>
        <time>2019-03-16T13:58:26Z</time>
      </trkpt>
      <trkpt lat="44.31211" lon="5.92984">
        <ele>522</ele>
        <time>2019-03-16T13:58:27Z</time>
      </trkpt>
      <trkpt lat="44.31206" lon="5.92978">
        <ele>522</ele>
        <time>2019-03-16T13:58:28Z</time>
      </trkpt>
      <trkpt lat="44.31202" lon="5.92973">
        <ele>522</ele>
        <time>2019-03-16T13:58:29Z</time>
      </trkpt>
      <trkpt lat="44.31197" lon="5.92967">
        <ele>522</ele>
        <time>2019-03-16T13:58:30Z</time>
      </trkpt>
      <trkpt lat="44.31192" lon="5.92962">
        <ele>522</ele>
        <time>2019-03-16T13:58:31Z</time>
      </trkpt>
      <trkpt lat="44.31186" lon="5.92956">
        <ele>522</ele>
        <time>2019-03-16T13:58:32Z</time>
      </trkpt>
      <trkpt lat="44.3118" lon="5.92951">
        <ele>522</ele>
        <time>2019-03-16T13:58:33Z</time>
      </trkpt>
      <trkpt lat="44.31174" lon="5.92946">
        <ele>522</ele>
        <time>2019-03-16T13:58:34Z</time>
      </trkpt>
      <trkpt lat="44.31169" lon="5.9294">
        <ele>522</ele>
        <time>2019-03-16T13:58:35Z</time>
      </trkpt>
      <trkpt lat="44.31165" lon="5.92934">
        <ele>522</ele>
        <time>2019-03-16T13:58:36Z</time>
      </trkpt>
      <trkpt lat="44.3116" lon="5.92928">
        <ele>522</ele>
        <time>2019-03-16T13:58:37Z</time>
      </trkpt>
      <trkpt lat="44.31155" lon="5.92922">
        <ele>522</ele>
        <time>2019-03-16T13:58:38Z</time>
      </trkpt>
      <trkpt lat="44.3115" lon="5.92916">
        <ele>522</ele>
        <time>2019-03-16T13:58:39Z</time>
      </trkpt>
      <trkpt lat="44.31144" lon="5.92911">
        <ele>522</ele>
        <time>2019-03-16T13:58:40Z</time>
      </trkpt>
      <trkpt lat="44.31137" lon="5.92907">
        <ele>522</ele>
        <time>2019-03-16T13:58:41Z</time>
      </trkpt>
      <trkpt lat="44.31131" lon="5.92904">
        <ele>522</ele>
        <time>2019-03-16T13:58:42Z</time>
      </trkpt>
      <trkpt lat="44.31125" lon="5.92902">
        <ele>522</ele>
        <time>2019-03-16T13:58:43Z</time>
      </trkpt>
      <trkpt lat="44.31118" lon="5.92901">
        <ele>522</ele>
        <time>2019-03-16T13:58:44Z</time>
      </trkpt>
      <trkpt lat="44.31112" lon="5.92902">
        <ele>522</ele>
        <time>2019-03-16T13:58:45Z</time>
      </trkpt>
      <trkpt lat="44.31105" lon="5.92903">
        <ele>522</ele>
        <time>2019-03-16T13:58:46Z</time>
      </trkpt>
      <trkpt lat="44.31099" lon="5.92905">
        <ele>522</ele>
        <time>2019-03-16T13:58:47Z</time>
      </trkpt>
      <trkpt lat="44.31093" lon="5.92907">
        <ele>522</ele>
        <time>2019-03-16T13:58:48Z</time>
      </trkpt>
      <trkpt lat="44.31087" lon="5.9291">
        <ele>522</ele>
        <time>2019-03-16T13:58:49Z</time>
      </trkpt>
      <trkpt lat="44.31081" lon="5.92914">
        <ele>522</ele>
        <time>2019-03-16T13:58:50Z</time>
      </trkpt>
      <trkpt lat="44.31076" lon="5.92918">
        <ele>522</ele>
        <time>2019-03-16T13:58:51Z</time>
      </trkpt>
      <trkpt lat="44.3107" lon="5.9292">
        <ele>522</ele>
        <time>2019-03-16T13:58:52Z</time>
      </trkpt>
      <trkpt lat="44.31065" lon="5.92923">
        <ele>522</ele>
        <time>2019-03-16T13:58:53Z</time>
      </trkpt>
      <trkpt lat="44.31059" lon="5.92927">
        <ele>522</ele>
        <time>2019-03-16T13:58:54Z</time>
      </trkpt>
      <trkpt lat="44.31054" lon="5.9293">
        <ele>522</ele>
        <time>2019-03-16T13:58:55Z</time>
      </trkpt>
      <trkpt lat="44.31049" lon="5.92933">
        <ele>522</ele>
        <time>2019-03-16T13:58:56Z</time>
      </trkpt>
      <trkpt lat="44.31043" lon="5.92936">
        <ele>522</ele>
        <time>2019-03-16T13:58:57Z</time>
      </trkpt>
      <trkpt lat="44.31038" lon="5.92939">
        <ele>522</ele>
        <time>2019-03-16T13:58:58Z</time>
      </trkpt>
      <trkpt lat="44.31032" lon="5.92943">
        <ele>522</ele>
        <time>2019-03-16T13:58:59Z</time>
      </trkpt>
      <trkpt lat="44.31026" lon="5.92946">
        <ele>522</ele>
        <time>2019-03-16T13:59:00Z</time>
      </trkpt>
      <trkpt lat="44.31021" lon="5.9295">
        <ele>522</ele>
        <time>2019-03-16T13:59:01Z</time>
      </trkpt>
      <trkpt lat="44.31015" lon="5.92954">
        <ele>522</ele>
        <time>2019-03-16T13:59:02Z</time>
      </trkpt>
      <trkpt lat="44.31009" lon="5.92958">
        <ele>522</ele>
        <time>2019-03-16T13:59:03Z</time>
      </trkpt>
      <trkpt lat="44.31003" lon="5.92963">
        <ele>522</ele>
        <time>2019-03-16T13:59:04Z</time>
      </trkpt>
      <trkpt lat="44.30996" lon="5.92967">
        <ele>522</ele>
        <time>2019-03-16T13:59:05Z</time>
      </trkpt>
      <trkpt lat="44.30989" lon="5.92972">
        <ele>522</ele>
        <time>2019-03-16T13:59:06Z</time>
      </trkpt>
      <trkpt lat="44.30982" lon="5.92976">
        <ele>522</ele>
        <time>2019-03-16T13:59:07Z</time>
      </trkpt>
      <trkpt lat="44.30974" lon="5.9298">
        <ele>521</ele>
        <time>2019-03-16T13:59:08Z</time>
      </trkpt>
      <trkpt lat="44.30966" lon="5.92984">
        <ele>521</ele>
        <time>2019-03-16T13:59:09Z</time>
      </trkpt>
      <trkpt lat="44.30958" lon="5.92989">
        <ele>520</ele>
        <time>2019-03-16T13:59:10Z</time>
      </trkpt>
      <trkpt lat="44.3095" lon="5.92993">
        <ele>520</ele>
        <time>2019-03-16T13:59:11Z</time>
      </trkpt>
      <trkpt lat="44.30941" lon="5.92998">
        <ele>519</ele>
        <time>2019-03-16T13:59:12Z</time>
      </trkpt>
      <trkpt lat="44.30932" lon="5.93002">
        <ele>519</ele>
        <time>2019-03-16T13:59:13Z</time>
      </trkpt>
      <trkpt lat="44.30924" lon="5.93007">
        <ele>518</ele>
        <time>2019-03-16T13:59:14Z</time>
      </trkpt>
      <trkpt lat="44.30915" lon="5.93011">
        <ele>518</ele>
        <time>2019-03-16T13:59:15Z</time>
      </trkpt>
      <trkpt lat="44.30907" lon="5.93015">
        <ele>518</ele>
        <time>2019-03-16T13:59:16Z</time>
      </trkpt>
      <trkpt lat="44.30898" lon="5.93019">
        <ele>517</ele>
        <time>2019-03-16T13:59:17Z</time>
      </trkpt>
      <trkpt lat="44.3089" lon="5.93024">
        <ele>517</ele>
        <time>2019-03-16T13:59:18Z</time>
      </trkpt>
      <trkpt lat="44.30882" lon="5.93028">
        <ele>517</ele>
        <time>2019-03-16T13:59:19Z</time>
      </trkpt>
      <trkpt lat="44.30874" lon="5.93033">
        <ele>517</ele>
        <time>2019-03-16T13:59:20Z</time>
      </trkpt>
      <trkpt lat="44.30866" lon="5.93037">
        <ele>517</ele>
        <time>2019-03-16T13:59:21Z</time>
      </trkpt>
      <trkpt lat="44.30858" lon="5.93041">
        <ele>517</ele>
        <time>2019-03-16T13:59:22Z</time>
      </trkpt>
      <trkpt lat="44.3085" lon="5.93045">
        <ele>517</ele>
        <time>2019-03-16T13:59:23Z</time>
      </trkpt>
      <trkpt lat="44.30842" lon="5.93049">
        <ele>517</ele>
        <time>2019-03-16T13:59:24Z</time>
      </trkpt>
      <trkpt lat="44.30834" lon="5.93053">
        <ele>517</ele>
        <time>2019-03-16T13:59:25Z</time>
      </trkpt>
      <trkpt lat="44.30826" lon="5.93058">
        <ele>517</ele>
        <time>2019-03-16T13:59:26Z</time>
      </trkpt>
      <trkpt lat="44.30818" lon="5.93062">
        <ele>517</ele>
        <time>2019-03-16T13:59:27Z</time>
      </trkpt>
      <trkpt lat="44.3081" lon="5.93066">
        <ele>517</ele>
        <time>2019-03-16T13:59:28Z</time>
      </trkpt>
      <trkpt lat="44.30803" lon="5.9307">
        <ele>517</ele>
        <time>2019-03-16T13:59:29Z</time>
      </trkpt>
      <trkpt lat="44.30795" lon="5.93075">
        <ele>517</ele>
        <time>2019-03-16T13:59:30Z</time>
      </trkpt>
      <trkpt lat="44.30788" lon="5.93079">
        <ele>517</ele>
        <time>2019-03-16T13:59:31Z</time>
      </trkpt>
      <trkpt lat="44.3078" lon="5.93083">
        <ele>517</ele>
        <time>2019-03-16T13:59:32Z</time>
      </trkpt>
      <trkpt lat="44.30773" lon="5.93087">
        <ele>517</ele>
        <time>2019-03-16T13:59:33Z</time>
      </trkpt>
      <trkpt lat="44.30766" lon="5.93091">
        <ele>517</ele>
        <time>2019-03-16T13:59:34Z</time>
      </trkpt>
      <trkpt lat="44.30759" lon="5.93095">
        <ele>517</ele>
        <time>2019-03-16T13:59:35Z</time>
      </trkpt>
      <trkpt lat="44.30752" lon="5.93099">
        <ele>517</ele>
        <time>2019-03-16T13:59:36Z</time>
      </trkpt>
      <trkpt lat="44.30745" lon="5.93103">
        <ele>517</ele>
        <time>2019-03-16T13:59:37Z</time>
      </trkpt>
      <trkpt lat="44.30738" lon="5.93106">
        <ele>517</ele>
        <time>2019-03-16T13:59:38Z</time>
      </trkpt>
      <trkpt lat="44.30732" lon="5.9311">
        <ele>517</ele>
        <time>2019-03-16T13:59:39Z</time>
      </trkpt>
      <trkpt lat="44.30725" lon="5.93113">
        <ele>517</ele>
        <time>2019-03-16T13:59:40Z</time>
      </trkpt>
      <trkpt lat="44.30718" lon="5.93117">
        <ele>517</ele>
        <time>2019-03-16T13:59:41Z</time>
      </trkpt>
      <trkpt lat="44.30712" lon="5.9312">
        <ele>517</ele>
        <time>2019-03-16T13:59:42Z</time>
      </trkpt>
      <trkpt lat="44.30706" lon="5.93124">
        <ele>517</ele>
        <time>2019-03-16T13:59:43Z</time>
      </trkpt>
      <trkpt lat="44.30699" lon="5.93127">
        <ele>517</ele>
        <time>2019-03-16T13:59:44Z</time>
      </trkpt>
      <trkpt lat="44.30693" lon="5.93131">
        <ele>517</ele>
        <time>2019-03-16T13:59:45Z</time>
      </trkpt>
      <trkpt lat="44.30687" lon="5.93134">
        <ele>517</ele>
        <time>2019-03-16T13:59:46Z</time>
      </trkpt>
      <trkpt lat="44.3068" lon="5.93138">
        <ele>517</ele>
        <time>2019-03-16T13:59:47Z</time>
      </trkpt>
      <trkpt lat="44.30674" lon="5.93142">
        <ele>517</ele>
        <time>2019-03-16T13:59:48Z</time>
      </trkpt>
      <trkpt lat="44.30668" lon="5.93145">
        <ele>517</ele>
        <time>2019-03-16T13:59:49Z</time>
      </trkpt>
      <trkpt lat="44.30663" lon="5.93148">
        <ele>517</ele>
        <time>2019-03-16T13:59:50Z</time>
      </trkpt>
      <trkpt lat="44.30657" lon="5.93151">
        <ele>517</ele>
        <time>2019-03-16T13:59:51Z</time>
      </trkpt>
      <trkpt lat="44.30651" lon="5.93154">
        <ele>517</ele>
        <time>2019-03-16T13:59:52Z</time>
      </trkpt>
      <trkpt lat="44.30646" lon="5.93157">
        <ele>517</ele>
        <time>2019-03-16T13:59:53Z</time>
      </trkpt>
      <trkpt lat="44.3064" lon="5.9316">
        <ele>517</ele>
        <time>2019-03-16T13:59:54Z</time>
      </trkpt>
      <trkpt lat="44.30635" lon="5.93163">
        <ele>517</ele>
        <time>2019-03-16T13:59:55Z</time>
      </trkpt>
      <trkpt lat="44.30629" lon="5.93166">
        <ele>517</ele>
        <time>2019-03-16T13:59:56Z</time>
      </trkpt>
      <trkpt lat="44.30624" lon="5.93169">
        <ele>517</ele>
        <time>2019-03-16T13:59:57Z</time>
      </trkpt>
      <trkpt lat="44.30618" lon="5.93172">
        <ele>517</ele>
        <time>2019-03-16T13:59:58Z</time>
      </trkpt>
      <trkpt lat="44.30613" lon="5.93175">
        <ele>517</ele>
        <time>2019-03-16T13:59:59Z</time>
      </trkpt>
      <trkpt lat="44.30607" lon="5.93178">
        <ele>517</ele>
        <time>2019-03-16T14:00:00Z</time>
      </trkpt>
      <trkpt lat="44.30601" lon="5.93181">
        <ele>517</ele>
        <time>2019-03-16T14:00:01Z</time>
      </trkpt>
      <trkpt lat="44.30595" lon="5.93184">
        <ele>517</ele>
        <time>2019-03-16T14:00:02Z</time>
      </trkpt>
      <trkpt lat="44.30589" lon="5.93187">
        <ele>517</ele>
        <time>2019-03-16T14:00:03Z</time>
      </trkpt>
      <trkpt lat="44.30583" lon="5.93189">
        <ele>517</ele>
        <time>2019-03-16T14:00:04Z</time>
      </trkpt>
      <trkpt lat="44.30576" lon="5.93192">
        <ele>517</ele>
        <time>2019-03-16T14:00:05Z</time>
      </trkpt>
      <trkpt lat="44.3057" lon="5.93195">
        <ele>517</ele>
        <time>2019-03-16T14:00:06Z</time>
      </trkpt>
      <trkpt lat="44.30564" lon="5.93197">
        <ele>517</ele>
        <time>2019-03-16T14:00:07Z</time>
      </trkpt>
      <trkpt lat="44.30557" lon="5.932">
        <ele>517</ele>
        <time>2019-03-16T14:00:08Z</time>
      </trkpt>
      <trkpt lat="44.30551" lon="5.93203">
        <ele>517</ele>
        <time>2019-03-16T14:00:09Z</time>
      </trkpt>
      <trkpt lat="44.30544" lon="5.93205">
        <ele>517</ele>
        <time>2019-03-16T14:00:10Z</time>
      </trkpt>
      <trkpt lat="44.30538" lon="5.93208">
        <ele>517</ele>
        <time>2019-03-16T14:00:11Z</time>
      </trkpt>
      <trkpt lat="44.30531" lon="5.93211">
        <ele>517</ele>
        <time>2019-03-16T14:00:12Z</time>
      </trkpt>
      <trkpt lat="44.30524" lon="5.93213">
        <ele>517</ele>
        <time>2019-03-16T14:00:13Z</time>
      </trkpt>
      <trkpt lat="44.30518" lon="5.93216">
        <ele>517</ele>
        <time>2019-03-16T14:00:14Z</time>
      </trkpt>
      <trkpt lat="44.30511" lon="5.93218">
        <ele>517</ele>
        <time>2019-03-16T14:00:15Z</time>
      </trkpt>
      <trkpt lat="44.30504" lon="5.93221">
        <ele>517</ele>
        <time>2019-03-16T14:00:16Z</time>
      </trkpt>
      <trkpt lat="44.30497" lon="5.93223">
        <ele>517</ele>
        <time>2019-03-16T14:00:17Z</time>
      </trkpt>
      <trkpt lat="44.30491" lon="5.93226">
        <ele>517</ele>
        <time>2019-03-16T14:00:18Z</time>
      </trkpt>
      <trkpt lat="44.30484" lon="5.93228">
        <ele>517</ele>
        <time>2019-03-16T14:00:19Z</time>
      </trkpt>
      <trkpt lat="44.30477" lon="5.93231">
        <ele>517</ele>
        <time>2019-03-16T14:00:20Z</time>
      </trkpt>
      <trkpt lat="44.30471" lon="5.93234">
        <ele>517</ele>
        <time>2019-03-16T14:00:21Z</time>
      </trkpt>
      <trkpt lat="44.30464" lon="5.93236">
        <ele>517</ele>
        <time>2019-03-16T14:00:22Z</time>
      </trkpt>
      <trkpt lat="44.30457" lon="5.93239">
        <ele>517</ele>
        <time>2019-03-16T14:00:23Z</time>
      </trkpt>
      <trkpt lat="44.3045" lon="5.93241">
        <ele>517</ele>
        <time>2019-03-16T14:00:24Z</time>
      </trkpt>
      <trkpt lat="44.30444" lon="5.93244">
        <ele>517</ele>
        <time>2019-03-16T14:00:25Z</time>
      </trkpt>
      <trkpt lat="44.30437" lon="5.93246">
        <ele>517</ele>
        <time>2019-03-16T14:00:26Z</time>
      </trkpt>
      <trkpt lat="44.3043" lon="5.93249">
        <ele>517</ele>
        <time>2019-03-16T14:00:27Z</time>
      </trkpt>
      <trkpt lat="44.30424" lon="5.93251">
        <ele>517</ele>
        <time>2019-03-16T14:00:28Z</time>
      </trkpt>
      <trkpt lat="44.30417" lon="5.93254">
        <ele>517</ele>
        <time>2019-03-16T14:00:29Z</time>
      </trkpt>
      <trkpt lat="44.30411" lon="5.93256">
        <ele>517</ele>
        <time>2019-03-16T14:00:30Z</time>
      </trkpt>
      <trkpt lat="44.30404" lon="5.93259">
        <ele>517</ele>
        <time>2019-03-16T14:00:31Z</time>
      </trkpt>
      <trkpt lat="44.30398" lon="5.93262">
        <ele>517</ele>
        <time>2019-03-16T14:00:32Z</time>
      </trkpt>
      <trkpt lat="44.30391" lon="5.93264">
        <ele>517</ele>
        <time>2019-03-16T14:00:33Z</time>
      </trkpt>
      <trkpt lat="44.30385" lon="5.93267">
        <ele>517</ele>
        <time>2019-03-16T14:00:34Z</time>
      </trkpt>
      <trkpt lat="44.30378" lon="5.93269">
        <ele>517</ele>
        <time>2019-03-16T14:00:35Z</time>
      </trkpt>
      <trkpt lat="44.30372" lon="5.93271">
        <ele>517</ele>
        <time>2019-03-16T14:00:36Z</time>
      </trkpt>
      <trkpt lat="44.30365" lon="5.93274">
        <ele>517</ele>
        <time>2019-03-16T14:00:37Z</time>
      </trkpt>
      <trkpt lat="44.30358" lon="5.93276">
        <ele>517</ele>
        <time>2019-03-16T14:00:38Z</time>
      </trkpt>
      <trkpt lat="44.30352" lon="5.93279">
        <ele>517</ele>
        <time>2019-03-16T14:00:39Z</time>
      </trkpt>
      <trkpt lat="44.30345" lon="5.93281">
        <ele>517</ele>
        <time>2019-03-16T14:00:40Z</time>
      </trkpt>
      <trkpt lat="44.30338" lon="5.93284">
        <ele>517</ele>
        <time>2019-03-16T14:00:41Z</time>
      </trkpt>
      <trkpt lat="44.30332" lon="5.93286">
        <ele>517</ele>
        <time>2019-03-16T14:00:42Z</time>
      </trkpt>
      <trkpt lat="44.30325" lon="5.93289">
        <ele>517</ele>
        <time>2019-03-16T14:00:43Z</time>
      </trkpt>
      <trkpt lat="44.30319" lon="5.93292">
        <ele>517</ele>
        <time>2019-03-16T14:00:44Z</time>
      </trkpt>
      <trkpt lat="44.30313" lon="5.93294">
        <ele>517</ele>
        <time>2019-03-16T14:00:45Z</time>
      </trkpt>
      <trkpt lat="44.30307" lon="5.93297">
        <ele>517</ele>
        <time>2019-03-16T14:00:46Z</time>
      </trkpt>
      <trkpt lat="44.30301" lon="5.93299">
        <ele>517</ele>
        <time>2019-03-16T14:00:47Z</time>
      </trkpt>
      <trkpt lat="44.30295" lon="5.93302">
        <ele>517</ele>
        <time>2019-03-16T14:00:48Z</time>
      </trkpt>
      <trkpt lat="44.30289" lon="5.93304">
        <ele>517</ele>
        <time>2019-03-16T14:00:49Z</time>
      </trkpt>
      <trkpt lat="44.30284" lon="5.93307">
        <ele>517</ele>
        <time>2019-03-16T14:00:50Z</time>
      </trkpt>
      <trkpt lat="44.30278" lon="5.93308">
        <ele>517</ele>
        <time>2019-03-16T14:00:51Z</time>
      </trkpt>
      <trkpt lat="44.30273" lon="5.9331">
        <ele>517</ele>
        <time>2019-03-16T14:00:52Z</time>
      </trkpt>
      <trkpt lat="44.30268" lon="5.93312">
        <ele>517</ele>
        <time>2019-03-16T14:00:53Z</time>
      </trkpt>
      <trkpt lat="44.30263" lon="5.93314">
        <ele>517</ele>
        <time>2019-03-16T14:00:54Z</time>
      </trkpt>
      <trkpt lat="44.30258" lon="5.93314">
        <ele>517</ele>
        <time>2019-03-16T14:00:55Z</time>
      </trkpt>
      <trkpt lat="44.30254" lon="5.93317">
        <ele>517</ele>
        <time>2019-03-16T14:00:56Z</time>
      </trkpt>
      <trkpt lat="44.3025" lon="5.93321">
        <ele>517</ele>
        <time>2019-03-16T14:00:57Z</time>
      </trkpt>
      <trkpt lat="44.30248" lon="5.93327">
        <ele>517</ele>
        <time>2019-03-16T14:00:58Z</time>
      </trkpt>
      <trkpt lat="44.30249" lon="5.93333">
        <ele>517</ele>
        <time>2019-03-16T14:00:59Z</time>
      </trkpt>
      <trkpt lat="44.30251" lon="5.93339">
        <ele>517</ele>
        <time>2019-03-16T14:01:00Z</time>
      </trkpt>
      <trkpt lat="44.30254" lon="5.93344">
        <ele>517</ele>
        <time>2019-03-16T14:01:01Z</time>
      </trkpt>
      <trkpt lat="44.30257" lon="5.93348">
        <ele>517</ele>
        <time>2019-03-16T14:01:02Z</time>
      </trkpt>
      <trkpt lat="44.3026" lon="5.93352">
        <ele>517</ele>
        <time>2019-03-16T14:01:03Z</time>
      </trkpt>
      <trkpt lat="44.30262" lon="5.93357">
        <ele>517</ele>
        <time>2019-03-16T14:01:04Z</time>
      </trkpt>
      <trkpt lat="44.30264" lon="5.93361">
        <ele>517</ele>
        <time>2019-03-16T14:01:05Z</time>
      </trkpt>
      <trkpt lat="44.30266" lon="5.93366">
        <ele>517</ele>
        <time>2019-03-16T14:01:06Z</time>
      </trkpt>
      <trkpt lat="44.30269" lon="5.9337">
        <ele>516</ele>
        <time>2019-03-16T14:01:07Z</time>
      </trkpt>
      <trkpt lat="44.30271" lon="5.93375">
        <ele>516</ele>
        <time>2019-03-16T14:01:08Z</time>
      </trkpt>
      <trkpt lat="44.30275" lon="5.93379">
        <ele>516</ele>
        <time>2019-03-16T14:01:09Z</time>
      </trkpt>
      <trkpt lat="44.30278" lon="5.93383">
        <ele>516</ele>
        <time>2019-03-16T14:01:10Z</time>
      </trkpt>
      <trkpt lat="44.30281" lon="5.93387">
        <ele>516</ele>
        <time>2019-03-16T14:01:11Z</time>
      </trkpt>
      <trkpt lat="44.30283" lon="5.93391">
        <ele>516</ele>
        <time>2019-03-16T14:01:12Z</time>
      </trkpt>
      <trkpt lat="44.30286" lon="5.93395">
        <ele>516</ele>
        <time>2019-03-16T14:01:13Z</time>
      </trkpt>
      <trkpt lat="44.30289" lon="5.93399">
        <ele>516</ele>
        <time>2019-03-16T14:01:14Z</time>
      </trkpt>
      <trkpt lat="44.30293" lon="5.93403">
        <ele>516</ele>
        <time>2019-03-16T14:01:15Z</time>
      </trkpt>
      <trkpt lat="44.30296" lon="5.93406">
        <ele>516</ele>
        <time>2019-03-16T14:01:16Z</time>
      </trkpt>
      <trkpt lat="44.30299" lon="5.9341">
        <ele>516</ele>
        <time>2019-03-16T14:01:17Z</time>
      </trkpt>
      <trkpt lat="44.30301" lon="5.93414">
        <ele>516</ele>
        <time>2019-03-16T14:01:18Z</time>
      </trkpt>
      <trkpt lat="44.30303" lon="5.93417">
        <ele>516</ele>
        <time>2019-03-16T14:01:19Z</time>
      </trkpt>
      <trkpt lat="44.30306" lon="5.9342">
        <ele>516</ele>
        <time>2019-03-16T14:01:20Z</time>
      </trkpt>
      <trkpt lat="44.30309" lon="5.93422">
        <ele>516</ele>
        <time>2019-03-16T14:01:21Z</time>
      </trkpt>
      <trkpt lat="44.30312" lon="5.93426">
        <ele>516</ele>
        <time>2019-03-16T14:01:22Z</time>
      </trkpt>
      <trkpt lat="44.30314" lon="5.93429">
        <ele>516</ele>
        <time>2019-03-16T14:01:23Z</time>
      </trkpt>
      <trkpt lat="44.30316" lon="5.93433">
        <ele>516</ele>
        <time>2019-03-16T14:01:24Z</time>
      </trkpt>
      <trkpt lat="44.30318" lon="5.93437">
        <ele>516</ele>
        <time>2019-03-16T14:01:25Z</time>
      </trkpt>
      <trkpt lat="44.30321" lon="5.9344">
        <ele>516</ele>
        <time>2019-03-16T14:01:26Z</time>
      </trkpt>
      <trkpt lat="44.30323" lon="5.93444">
        <ele>516</ele>
        <time>2019-03-16T14:01:27Z</time>
      </trkpt>
      <trkpt lat="44.30326" lon="5.93447">
        <ele>516</ele>
        <time>2019-03-16T14:01:28Z</time>
      </trkpt>
      <trkpt lat="44.30329" lon="5.9345">
        <ele>516</ele>
        <time>2019-03-16T14:01:29Z</time>
      </trkpt>
      <trkpt lat="44.30331" lon="5.93454">
        <ele>516</ele>
        <time>2019-03-16T14:01:30Z</time>
      </trkpt>
      <trkpt lat="44.30334" lon="5.93457">
        <ele>517</ele>
        <time>2019-03-16T14:01:31Z</time>
      </trkpt>
      <trkpt lat="44.30336" lon="5.93461">
        <ele>517</ele>
        <time>2019-03-16T14:01:32Z</time>
      </trkpt>
      <trkpt lat="44.30338" lon="5.93464">
        <ele>518</ele>
        <time>2019-03-16T14:01:33Z</time>
      </trkpt>
      <trkpt lat="44.30341" lon="5.93468">
        <ele>518</ele>
        <time>2019-03-16T14:01:34Z</time>
      </trkpt>
      <trkpt lat="44.30343" lon="5.9347">
        <ele>518</ele>
        <time>2019-03-16T14:01:35Z</time>
      </trkpt>
      <trkpt lat="44.30346" lon="5.93473">
        <ele>519</ele>
        <time>2019-03-16T14:01:36Z</time>
      </trkpt>
      <trkpt lat="44.30349" lon="5.93476">
        <ele>519</ele>
        <time>2019-03-16T14:01:37Z</time>
      </trkpt>
      <trkpt lat="44.30351" lon="5.93479">
        <ele>519</ele>
        <time>2019-03-16T14:01:38Z</time>
      </trkpt>
      <trkpt lat="44.30352" lon="5.93481">
        <ele>520</ele>
        <time>2019-03-16T14:01:39Z</time>
      </trkpt>
      <trkpt lat="44.30354" lon="5.93484">
        <ele>520</ele>
        <time>2019-03-16T14:01:40Z</time>
      </trkpt>
      <trkpt lat="44.30355" lon="5.93487">
        <ele>520</ele>
        <time>2019-03-16T14:01:41Z</time>
      </trkpt>
      <trkpt lat="44.30357" lon="5.93489">
        <ele>521</ele>
        <time>2019-03-16T14:01:42Z</time>
      </trkpt>
      <trkpt lat="44.30358" lon="5.93492">
        <ele>521</ele>
        <time>2019-03-16T14:01:43Z</time>
      </trkpt>
      <trkpt lat="44.3036" lon="5.93494">
        <ele>521</ele>
        <time>2019-03-16T14:01:44Z</time>
      </trkpt>
      <trkpt lat="44.30361" lon="5.93497">
        <ele>521</ele>
        <time>2019-03-16T14:01:45Z</time>
      </trkpt>
      <trkpt lat="44.30363" lon="5.93498">
        <ele>522</ele>
        <time>2019-03-16T14:01:46Z</time>
      </trkpt>
      <trkpt lat="44.30366" lon="5.93501">
        <ele>522</ele>
        <time>2019-03-16T14:01:47Z</time>
      </trkpt>
      <trkpt lat="44.30368" lon="5.93504">
        <ele>522</ele>
        <time>2019-03-16T14:01:48Z</time>
      </trkpt>
      <trkpt lat="44.3037" lon="5.93507">
        <ele>522</ele>
        <time>2019-03-16T14:01:49Z</time>
      </trkpt>
      <trkpt lat="44.30372" lon="5.9351">
        <ele>523</ele>
        <time>2019-03-16T14:01:50Z</time>
      </trkpt>
      <trkpt lat="44.30375" lon="5.93514">
        <ele>523</ele>
        <time>2019-03-16T14:01:51Z</time>
      </trkpt>
      <trkpt lat="44.30377" lon="5.93517">
        <ele>523</ele>
        <time>2019-03-16T14:01:52Z</time>
      </trkpt>
      <trkpt lat="44.30379" lon="5.9352">
        <ele>523</ele>
        <time>2019-03-16T14:01:53Z</time>
      </trkpt>
      <trkpt lat="44.30382" lon="5.93523">
        <ele>523</ele>
        <time>2019-03-16T14:01:54Z</time>
      </trkpt>
      <trkpt lat="44.30384" lon="5.93527">
        <ele>523</ele>
        <time>2019-03-16T14:01:55Z</time>
      </trkpt>
      <trkpt lat="44.30386" lon="5.9353">
        <ele>523</ele>
        <time>2019-03-16T14:01:56Z</time>
      </trkpt>
      <trkpt lat="44.30388" lon="5.93533">
        <ele>524</ele>
        <time>2019-03-16T14:01:57Z</time>
      </trkpt>
      <trkpt lat="44.3039" lon="5.93536">
        <ele>524</ele>
        <time>2019-03-16T14:01:58Z</time>
      </trkpt>
      <trkpt lat="44.30392" lon="5.93539">
        <ele>524</ele>
        <time>2019-03-16T14:01:59Z</time>
      </trkpt>
      <trkpt lat="44.30394" lon="5.93542">
        <ele>524</ele>
        <time>2019-03-16T14:02:00Z</time>
      </trkpt>
      <trkpt lat="44.30396" lon="5.93545">
        <ele>524</ele>
        <time>2019-03-16T14:02:01Z</time>
      </trkpt>
      <trkpt lat="44.30397" lon="5.93548">
        <ele>524</ele>
        <time>2019-03-16T14:02:02Z</time>
      </trkpt>
      <trkpt lat="44.30399" lon="5.93551">
        <ele>524</ele>
        <time>2019-03-16T14:02:03Z</time>
      </trkpt>
      <trkpt lat="44.30401" lon="5.93553">
        <ele>525</ele>
        <time>2019-03-16T14:02:04Z</time>
      </trkpt>
      <trkpt lat="44.30403" lon="5.93556">
        <ele>525</ele>
        <time>2019-03-16T14:02:05Z</time>
      </trkpt>
      <trkpt lat="44.30404" lon="5.93559">
        <ele>525</ele>
        <time>2019-03-16T14:02:06Z</time>
      </trkpt>
      <trkpt lat="44.30406" lon="5.93562">
        <ele>525</ele>
        <time>2019-03-16T14:02:07Z</time>
      </trkpt>
      <trkpt lat="44.30407" lon="5.93564">
        <ele>526</ele>
        <time>2019-03-16T14:02:08Z</time>
      </trkpt>
      <trkpt lat="44.30409" lon="5.93567">
        <ele>526</ele>
        <time>2019-03-16T14:02:09Z</time>
      </trkpt>
      <trkpt lat="44.30411" lon="5.93569">
        <ele>527</ele>
        <time>2019-03-16T14:02:10Z</time>
      </trkpt>
      <trkpt lat="44.30413" lon="5.93572">
        <ele>527</ele>
        <time>2019-03-16T14:02:11Z</time>
      </trkpt>
      <trkpt lat="44.30415" lon="5.93574">
        <ele>527</ele>
        <time>2019-03-16T14:02:12Z</time>
      </trkpt>
      <trkpt lat="44.30417" lon="5.93577">
        <ele>527</ele>
        <time>2019-03-16T14:02:13Z</time>
      </trkpt>
      <trkpt lat="44.30419" lon="5.9358">
        <ele>528</ele>
        <time>2019-03-16T14:02:14Z</time>
      </trkpt>
      <trkpt lat="44.30421" lon="5.93582">
        <ele>528</ele>
        <time>2019-03-16T14:02:15Z</time>
      </trkpt>
      <trkpt lat="44.30423" lon="5.93585">
        <ele>528</ele>
        <time>2019-03-16T14:02:16Z</time>
      </trkpt>
      <trkpt lat="44.30424" lon="5.93588">
        <ele>528</ele>
        <time>2019-03-16T14:02:17Z</time>
      </trkpt>
      <trkpt lat="44.30426" lon="5.93591">
        <ele>528</ele>
        <time>2019-03-16T14:02:18Z</time>
      </trkpt>
      <trkpt lat="44.30428" lon="5.93593">
        <ele>528</ele>
        <time>2019-03-16T14:02:19Z</time>
      </trkpt>
      <trkpt lat="44.30429" lon="5.93596">
        <ele>528</ele>
        <time>2019-03-16T14:02:20Z</time>
      </trkpt>
      <trkpt lat="44.30431" lon="5.93599">
        <ele>528</ele>
        <time>2019-03-16T14:02:21Z</time>
      </trkpt>
      <trkpt lat="44.30433" lon="5.93601">
        <ele>528</ele>
        <time>2019-03-16T14:02:22Z</time>
      </trkpt>
      <trkpt lat="44.30435" lon="5.93604">
        <ele>528</ele>
        <time>2019-03-16T14:02:23Z</time>
      </trkpt>
      <trkpt lat="44.30437" lon="5.93606">
        <ele>528</ele>
        <time>2019-03-16T14:02:24Z</time>
      </trkpt>
      <trkpt lat="44.30439" lon="5.93608">
        <ele>528</ele>
        <time>2019-03-16T14:02:25Z</time>
      </trkpt>
      <trkpt lat="44.30441" lon="5.9361">
        <ele>528</ele>
        <time>2019-03-16T14:02:26Z</time>
      </trkpt>
      <trkpt lat="44.30442" lon="5.93613">
        <ele>529</ele>
        <time>2019-03-16T14:02:27Z</time>
      </trkpt>
      <trkpt lat="44.30444" lon="5.93615">
        <ele>529</ele>
        <time>2019-03-16T14:02:28Z</time>
      </trkpt>
      <trkpt lat="44.30446" lon="5.93617">
        <ele>529</ele>
        <time>2019-03-16T14:02:29Z</time>
      </trkpt>
      <trkpt lat="44.30448" lon="5.9362">
        <ele>530</ele>
        <time>2019-03-16T14:02:30Z</time>
      </trkpt>
      <trkpt lat="44.30449" lon="5.93621">
        <ele>530</ele>
        <time>2019-03-16T14:02:31Z</time>
      </trkpt>
      <trkpt lat="44.30451" lon="5.93623">
        <ele>531</ele>
        <time>2019-03-16T14:02:32Z</time>
      </trkpt>
      <trkpt lat="44.30453" lon="5.93625">
        <ele>531</ele>
        <time>2019-03-16T14:02:33Z</time>
      </trkpt>
      <trkpt lat="44.30454" lon="5.93627">
        <ele>532</ele>
        <time>2019-03-16T14:02:34Z</time>
      </trkpt>
      <trkpt lat="44.30455" lon="5.93629">
        <ele>532</ele>
        <time>2019-03-16T14:02:35Z</time>
      </trkpt>
      <trkpt lat="44.30457" lon="5.93631">
        <ele>532</ele>
        <time>2019-03-16T14:02:36Z</time>
      </trkpt>
      <trkpt lat="44.30458" lon="5.93633">
        <ele>532</ele>
        <time>2019-03-16T14:02:37Z</time>
      </trkpt>
      <trkpt lat="44.30459" lon="5.93635">
        <ele>533</ele>
        <time>2019-03-16T14:02:38Z</time>
      </trkpt>
      <trkpt lat="44.30461" lon="5.93636">
        <ele>533</ele>
        <time>2019-03-16T14:02:39Z</time>
      </trkpt>
      <trkpt lat="44.30463" lon="5.93638">
        <ele>533</ele>
        <time>2019-03-16T14:02:40Z</time>
      </trkpt>
      <trkpt lat="44.30465" lon="5.93639">
        <ele>534</ele>
        <time>2019-03-16T14:02:41Z</time>
      </trkpt>
      <trkpt lat="44.30466" lon="5.9364">
        <ele>534</ele>
        <time>2019-03-16T14:02:42Z</time>
      </trkpt>
      <trkpt lat="44.30468" lon="5.93641">
        <ele>534</ele>
        <time>2019-03-16T14:02:43Z</time>
      </trkpt>
      <trkpt lat="44.3047" lon="5.93642">
        <ele>534</ele>
        <time>2019-03-16T14:02:44Z</time>
      </trkpt>
      <trkpt lat="44.30472" lon="5.93642">
        <ele>535</ele>
        <time>2019-03-16T14:02:45Z</time>
      </trkpt>
      <trkpt lat="44.30474" lon="5.93643">
        <ele>535</ele>
        <time>2019-03-16T14:02:46Z</time>
      </trkpt>
      <trkpt lat="44.30476" lon="5.93642">
        <ele>535</ele>
        <time>2019-03-16T14:02:47Z</time>
      </trkpt>
      <trkpt lat="44.30478" lon="5.93641">
        <ele>535</ele>
        <time>2019-03-16T14:02:48Z</time>
      </trkpt>
      <trkpt lat="44.3048" lon="5.93641">
        <ele>535</ele>
        <time>2019-03-16T14:02:49Z</time>
      </trkpt>
      <trkpt lat="44.30482" lon="5.9364">
        <ele>535</ele>
        <time>2019-03-16T14:02:50Z</time>
      </trkpt>
      <trkpt lat="44.30484" lon="5.9364">
        <ele>535</ele>
        <time>2019-03-16T14:02:51Z</time>
      </trkpt>
      <trkpt lat="44.30486" lon="5.93639">
        <ele>536</ele>
        <time>2019-03-16T14:02:52Z</time>
      </trkpt>
      <trkpt lat="44.30488" lon="5.93638">
        <ele>536</ele>
        <time>2019-03-16T14:02:53Z</time>
      </trkpt>
      <trkpt lat="44.3049" lon="5.93636">
        <ele>536</ele>
        <time>2019-03-16T14:02:54Z</time>
      </trkpt>
      <trkpt lat="44.30492" lon="5.93634">
        <ele>536</ele>
        <time>2019-03-16T14:02:55Z</time>
      </trkpt>
      <trkpt lat="44.30494" lon="5.93632">
        <ele>537</ele>
        <time>2019-03-16T14:02:56Z</time>
      </trkpt>
      <trkpt lat="44.30496" lon="5.9363">
        <ele>537</ele>
        <time>2019-03-16T14:02:57Z</time>
      </trkpt>
      <trkpt lat="44.30498" lon="5.93627">
        <ele>537</ele>
        <time>2019-03-16T14:02:58Z</time>
      </trkpt>
      <trkpt lat="44.305" lon="5.93625">
        <ele>537</ele>
        <time>2019-03-16T14:02:59Z</time>
      </trkpt>
      <trkpt lat="44.30502" lon="5.93623">
        <ele>537</ele>
        <time>2019-03-16T14:03:00Z</time>
      </trkpt>
      <trkpt lat="44.30504" lon="5.93622">
        <ele>538</ele>
        <time>2019-03-16T14:03:01Z</time>
      </trkpt>
      <trkpt lat="44.30506" lon="5.93622">
        <ele>538</ele>
        <time>2019-03-16T14:03:02Z</time>
      </trkpt>
      <trkpt lat="44.30509" lon="5.93622">
        <ele>538</ele>
        <time>2019-03-16T14:03:03Z</time>
      </trkpt>
      <trkpt lat="44.30511" lon="5.93624">
        <ele>538</ele>
        <time>2019-03-16T14:03:04Z</time>
      </trkpt>
      <trkpt lat="44.30513" lon="5.93626">
        <ele>538</ele>
        <time>2019-03-16T14:03:05Z</time>
      </trkpt>
      <trkpt lat="44.30514" lon="5.93629">
        <ele>538</ele>
        <time>2019-03-16T14:03:06Z</time>
      </trkpt>
      <trkpt lat="44.30515" lon="5.93631">
        <ele>539</ele>
        <time>2019-03-16T14:03:07Z</time>
      </trkpt>
      <trkpt lat="44.30515" lon="5.93633">
        <ele>539</ele>
        <time>2019-03-16T14:03:08Z</time>
      </trkpt>
      <trkpt lat="44.30516" lon="5.93635">
        <ele>539</ele>
        <time>2019-03-16T14:03:09Z</time>
      </trkpt>
      <trkpt lat="44.30515" lon="5.93638">
        <ele>540</ele>
        <time>2019-03-16T14:03:10Z</time>
      </trkpt>
      <trkpt lat="44.30515" lon="5.93641">
        <ele>540</ele>
        <time>2019-03-16T14:03:11Z</time>
      </trkpt>
      <trkpt lat="44.30514" lon="5.93643">
        <ele>540</ele>
        <time>2019-03-16T14:03:12Z</time>
      </trkpt>
      <trkpt lat="44.30513" lon="5.93646">
        <ele>540</ele>
        <time>2019-03-16T14:03:13Z</time>
      </trkpt>
      <trkpt lat="44.30513" lon="5.93648">
        <ele>541</ele>
        <time>2019-03-16T14:03:14Z</time>
      </trkpt>
      <trkpt lat="44.30513" lon="5.93651">
        <ele>541</ele>
        <time>2019-03-16T14:03:15Z</time>
      </trkpt>
      <trkpt lat="44.30512" lon="5.93653">
        <ele>541</ele>
        <time>2019-03-16T14:03:16Z</time>
      </trkpt>
      <trkpt lat="44.30512" lon="5.93656">
        <ele>541</ele>
        <time>2019-03-16T14:03:17Z</time>
      </trkpt>
      <trkpt lat="44.30512" lon="5.93659">
        <ele>542</ele>
        <time>2019-03-16T14:03:18Z</time>
      </trkpt>
      <trkpt lat="44.30512" lon="5.93661">
        <ele>542</ele>
        <time>2019-03-16T14:03:19Z</time>
      </trkpt>
      <trkpt lat="44.30513" lon="5.93664">
        <ele>542</ele>
        <time>2019-03-16T14:03:20Z</time>
      </trkpt>
      <trkpt lat="44.30513" lon="5.93667">
        <ele>542</ele>
        <time>2019-03-16T14:03:21Z</time>
      </trkpt>
      <trkpt lat="44.30514" lon="5.93669">
        <ele>543</ele>
        <time>2019-03-16T14:03:22Z</time>
      </trkpt>
      <trkpt lat="44.30515" lon="5.93672">
        <ele>543</ele>
        <time>2019-03-16T14:03:23Z</time>
      </trkpt>
      <trkpt lat="44.30516" lon="5.93675">
        <ele>543</ele>
        <time>2019-03-16T14:03:24Z</time>
      </trkpt>
      <trkpt lat="44.30518" lon="5.93677">
        <ele>543</ele>
        <time>2019-03-16T14:03:25Z</time>
      </trkpt>
      <trkpt lat="44.3052" lon="5.93679">
        <ele>544</ele>
        <time>2019-03-16T14:03:26Z</time>
      </trkpt>
      <trkpt lat="44.30522" lon="5.93681">
        <ele>544</ele>
        <time>2019-03-16T14:03:27Z</time>
      </trkpt>
      <trkpt lat="44.30523" lon="5.93684">
        <ele>544</ele>
        <time>2019-03-16T14:03:28Z</time>
      </trkpt>
      <trkpt lat="44.30525" lon="5.93686">
        <ele>545</ele>
        <time>2019-03-16T14:03:29Z</time>
      </trkpt>
      <trkpt lat="44.30526" lon="5.93689">
        <ele>545</ele>
        <time>2019-03-16T14:03:30Z</time>
      </trkpt>
      <trkpt lat="44.30528" lon="5.93691">
        <ele>546</ele>
        <time>2019-03-16T14:03:31Z</time>
      </trkpt>
      <trkpt lat="44.3053" lon="5.93693">
        <ele>546</ele>
        <time>2019-03-16T14:03:32Z</time>
      </trkpt>
      <trkpt lat="44.30531" lon="5.93695">
        <ele>546</ele>
        <time>2019-03-16T14:03:33Z</time>
      </trkpt>
      <trkpt lat="44.30533" lon="5.93698">
        <ele>546</ele>
        <time>2019-03-16T14:03:34Z</time>
      </trkpt>
      <trkpt lat="44.30535" lon="5.937">
        <ele>547</ele>
        <time>2019-03-16T14:03:35Z</time>
      </trkpt>
      <trkpt lat="44.30537" lon="5.93702">
        <ele>547</ele>
        <time>2019-03-16T14:03:36Z</time>
      </trkpt>
      <trkpt lat="44.30539" lon="5.93705">
        <ele>547</ele>
        <time>2019-03-16T14:03:37Z</time>
      </trkpt>
      <trkpt lat="44.3054" lon="5.93707">
        <ele>547</ele>
        <time>2019-03-16T14:03:38Z</time>
      </trkpt>
      <trkpt lat="44.30542" lon="5.93709">
        <ele>548</ele>
        <time>2019-03-16T14:03:39Z</time>
      </trkpt>
      <trkpt lat="44.30544" lon="5.93711">
        <ele>548</ele>
        <time>2019-03-16T14:03:40Z</time>
      </trkpt>
      <trkpt lat="44.30545" lon="5.93713">
        <ele>548</ele>
        <time>2019-03-16T14:03:41Z</time>
      </trkpt>
      <trkpt lat="44.30547" lon="5.93715">
        <ele>548</ele>
        <time>2019-03-16T14:03:42Z</time>
      </trkpt>
      <trkpt lat="44.30549" lon="5.93716">
        <ele>548</ele>
        <time>2019-03-16T14:03:43Z</time>
      </trkpt>
      <trkpt lat="44.3055" lon="5.93718">
        <ele>548</ele>
        <time>2019-03-16T14:03:44Z</time>
      </trkpt>
      <trkpt lat="44.30552" lon="5.9372">
        <ele>548</ele>
        <time>2019-03-16T14:03:45Z</time>
      </trkpt>
      <trkpt lat="44.30554" lon="5.93721">
        <ele>549</ele>
        <time>2019-03-16T14:03:46Z</time>
      </trkpt>
      <trkpt lat="44.30556" lon="5.93723">
        <ele>549</ele>
        <time>2019-03-16T14:03:47Z</time>
      </trkpt>
      <trkpt lat="44.30558" lon="5.93724">
        <ele>549</ele>
        <time>2019-03-16T14:03:48Z</time>
      </trkpt>
      <trkpt lat="44.30559" lon="5.93726">
        <ele>549</ele>
        <time>2019-03-16T14:03:49Z</time>
      </trkpt>
      <trkpt lat="44.30561" lon="5.93727">
        <ele>549</ele>
        <time>2019-03-16T14:03:50Z</time>
      </trkpt>
      <trkpt lat="44.30563" lon="5.93728">
        <ele>550</ele>
        <time>2019-03-16T14:03:51Z</time>
      </trkpt>
      <trkpt lat="44.30565" lon="5.9373">
        <ele>550</ele>
        <time>2019-03-16T14:03:52Z</time>
      </trkpt>
      <trkpt lat="44.30567" lon="5.93731">
        <ele>550</ele>
        <time>2019-03-16T14:03:53Z</time>
      </trkpt>
      <trkpt lat="44.30569" lon="5.93732">
        <ele>550</ele>
        <time>2019-03-16T14:03:54Z</time>
      </trkpt>
      <trkpt lat="44.30571" lon="5.93733">
        <ele>551</ele>
        <time>2019-03-16T14:03:55Z</time>
      </trkpt>
      <trkpt lat="44.30573" lon="5.93734">
        <ele>551</ele>
        <time>2019-03-16T14:03:56Z</time>
      </trkpt>
      <trkpt lat="44.30575" lon="5.93735">
        <ele>551</ele>
        <time>2019-03-16T14:03:57Z</time>
      </trkpt>
      <trkpt lat="44.30576" lon="5.93737">
        <ele>551</ele>
        <time>2019-03-16T14:03:58Z</time>
      </trkpt>
      <trkpt lat="44.30579" lon="5.93738">
        <ele>552</ele>
        <time>2019-03-16T14:03:59Z</time>
      </trkpt>
      <trkpt lat="44.30581" lon="5.93739">
        <ele>552</ele>
        <time>2019-03-16T14:04:00Z</time>
      </trkpt>
      <trkpt lat="44.30582" lon="5.9374">
        <ele>552</ele>
        <time>2019-03-16T14:04:01Z</time>
      </trkpt>
      <trkpt lat="44.30584" lon="5.93741">
        <ele>552</ele>
        <time>2019-03-16T14:04:02Z</time>
      </trkpt>
      <trkpt lat="44.30586" lon="5.93742">
        <ele>552</ele>
        <time>2019-03-16T14:04:03Z</time>
      </trkpt>
      <trkpt lat="44.30589" lon="5.93743">
        <ele>552</ele>
        <time>2019-03-16T14:04:04Z</time>
      </trkpt>
      <trkpt lat="44.30591" lon="5.93743">
        <ele>552</ele>
        <time>2019-03-16T14:04:05Z</time>
      </trkpt>
      <trkpt lat="44.30593" lon="5.93742">
        <ele>552</ele>
        <time>2019-03-16T14:04:06Z</time>
      </trkpt>
      <trkpt lat="44.30595" lon="5.93742">
        <ele>552</ele>
        <time>2019-03-16T14:04:07Z</time>
      </trkpt>
      <trkpt lat="44.30598" lon="5.93742">
        <ele>553</ele>
        <time>2019-03-16T14:04:08Z</time>
      </trkpt>
      <trkpt lat="44.30599" lon="5.93741">
        <ele>553</ele>
        <time>2019-03-16T14:04:09Z</time>
      </trkpt>
      <trkpt lat="44.30601" lon="5.9374">
        <ele>554</ele>
        <time>2019-03-16T14:04:10Z</time>
      </trkpt>
      <trkpt lat="44.30603" lon="5.93739">
        <ele>554</ele>
        <time>2019-03-16T14:04:11Z</time>
      </trkpt>
      <trkpt lat="44.30605" lon="5.93739">
        <ele>554</ele>
        <time>2019-03-16T14:04:12Z</time>
      </trkpt>
      <trkpt lat="44.30607" lon="5.93738">
        <ele>555</ele>
        <time>2019-03-16T14:04:13Z</time>
      </trkpt>
      <trkpt lat="44.30609" lon="5.93737">
        <ele>555</ele>
        <time>2019-03-16T14:04:14Z</time>
      </trkpt>
      <trkpt lat="44.30611" lon="5.93736">
        <ele>555</ele>
        <time>2019-03-16T14:04:15Z</time>
      </trkpt>
      <trkpt lat="44.30614" lon="5.93736">
        <ele>556</ele>
        <time>2019-03-16T14:04:16Z</time>
      </trkpt>
      <trkpt lat="44.30616" lon="5.93736">
        <ele>556</ele>
        <time>2019-03-16T14:04:17Z</time>
      </trkpt>
      <trkpt lat="44.30618" lon="5.93736">
        <ele>556</ele>
        <time>2019-03-16T14:04:18Z</time>
      </trkpt>
      <trkpt lat="44.3062" lon="5.93736">
        <ele>557</ele>
        <time>2019-03-16T14:04:19Z</time>
      </trkpt>
      <trkpt lat="44.30622" lon="5.93736">
        <ele>557</ele>
        <time>2019-03-16T14:04:20Z</time>
      </trkpt>
      <trkpt lat="44.30624" lon="5.93736">
        <ele>557</ele>
        <time>2019-03-16T14:04:21Z</time>
      </trkpt>
      <trkpt lat="44.30626" lon="5.93736">
        <ele>557</ele>
        <time>2019-03-16T14:04:22Z</time>
      </trkpt>
      <trkpt lat="44.30628" lon="5.93736">
        <ele>557</ele>
        <time>2019-03-16T14:04:23Z</time>
      </trkpt>
      <trkpt lat="44.3063" lon="5.93738">
        <ele>557</ele>
        <time>2019-03-16T14:04:24Z</time>
      </trkpt>
      <trkpt lat="44.30633" lon="5.93738">
        <ele>557</ele>
        <time>2019-03-16T14:04:25Z</time>
      </trkpt>
      <trkpt lat="44.30635" lon="5.93739">
        <ele>557</ele>
        <time>2019-03-16T14:04:26Z</time>
      </trkpt>
      <trkpt lat="44.30638" lon="5.9374">
        <ele>557</ele>
        <time>2019-03-16T14:04:27Z</time>
      </trkpt>
      <trkpt lat="44.3064" lon="5.93741">
        <ele>557</ele>
        <time>2019-03-16T14:04:28Z</time>
      </trkpt>
      <trkpt lat="44.30642" lon="5.93743">
        <ele>557</ele>
        <time>2019-03-16T14:04:29Z</time>
      </trkpt>
      <trkpt lat="44.30644" lon="5.93744">
        <ele>557</ele>
        <time>2019-03-16T14:04:30Z</time>
      </trkpt>
      <trkpt lat="44.30646" lon="5.93746">
        <ele>558</ele>
        <time>2019-03-16T14:04:31Z</time>
      </trkpt>
      <trkpt lat="44.30648" lon="5.93747">
        <ele>558</ele>
        <time>2019-03-16T14:04:32Z</time>
      </trkpt>
      <trkpt lat="44.3065" lon="5.93748">
        <ele>558</ele>
        <time>2019-03-16T14:04:33Z</time>
      </trkpt>
      <trkpt lat="44.30652" lon="5.9375">
        <ele>558</ele>
        <time>2019-03-16T14:04:34Z</time>
      </trkpt>
      <trkpt lat="44.30654" lon="5.93751">
        <ele>559</ele>
        <time>2019-03-16T14:04:35Z</time>
      </trkpt>
      <trkpt lat="44.30656" lon="5.93752">
        <ele>559</ele>
        <time>2019-03-16T14:04:36Z</time>
      </trkpt>
      <trkpt lat="44.30658" lon="5.93754">
        <ele>559</ele>
        <time>2019-03-16T14:04:37Z</time>
      </trkpt>
      <trkpt lat="44.30659" lon="5.93755">
        <ele>559</ele>
        <time>2019-03-16T14:04:38Z</time>
      </trkpt>
      <trkpt lat="44.30661" lon="5.93756">
        <ele>559</ele>
        <time>2019-03-16T14:04:39Z</time>
      </trkpt>
      <trkpt lat="44.30663" lon="5.93758">
        <ele>560</ele>
        <time>2019-03-16T14:04:40Z</time>
      </trkpt>
      <trkpt lat="44.30665" lon="5.93759">
        <ele>560</ele>
        <time>2019-03-16T14:04:41Z</time>
      </trkpt>
      <trkpt lat="44.30667" lon="5.93761">
        <ele>560</ele>
        <time>2019-03-16T14:04:42Z</time>
      </trkpt>
      <trkpt lat="44.30669" lon="5.93763">
        <ele>560</ele>
        <time>2019-03-16T14:04:43Z</time>
      </trkpt>
      <trkpt lat="44.30671" lon="5.93764">
        <ele>561</ele>
        <time>2019-03-16T14:04:44Z</time>
      </trkpt>
      <trkpt lat="44.30672" lon="5.93766">
        <ele>561</ele>
        <time>2019-03-16T14:04:45Z</time>
      </trkpt>
      <trkpt lat="44.30674" lon="5.93769">
        <ele>561</ele>
        <time>2019-03-16T14:04:46Z</time>
      </trkpt>
      <trkpt lat="44.30676" lon="5.9377">
        <ele>561</ele>
        <time>2019-03-16T14:04:47Z</time>
      </trkpt>
      <trkpt lat="44.30679" lon="5.93772">
        <ele>562</ele>
        <time>2019-03-16T14:04:48Z</time>
      </trkpt>
      <trkpt lat="44.3068" lon="5.93774">
        <ele>562</ele>
        <time>2019-03-16T14:04:49Z</time>
      </trkpt>
      <trkpt lat="44.30682" lon="5.93776">
        <ele>562</ele>
        <time>2019-03-16T14:04:50Z</time>
      </trkpt>
      <trkpt lat="44.30684" lon="5.93778">
        <ele>562</ele>
        <time>2019-03-16T14:04:51Z</time>
      </trkpt>
      <trkpt lat="44.30685" lon="5.9378">
        <ele>563</ele>
        <time>2019-03-16T14:04:52Z</time>
      </trkpt>
      <trkpt lat="44.30687" lon="5.93781">
        <ele>563</ele>
        <time>2019-03-16T14:04:53Z</time>
      </trkpt>
      <trkpt lat="44.30688" lon="5.93783">
        <ele>563</ele>
        <time>2019-03-16T14:04:54Z</time>
      </trkpt>
      <trkpt lat="44.3069" lon="5.93785">
        <ele>564</ele>
        <time>2019-03-16T14:04:55Z</time>
      </trkpt>
      <trkpt lat="44.30692" lon="5.93786">
        <ele>564</ele>
        <time>2019-03-16T14:04:56Z</time>
      </trkpt>
      <trkpt lat="44.30694" lon="5.93788">
        <ele>565</ele>
        <time>2019-03-16T14:04:57Z</time>
      </trkpt>
      <trkpt lat="44.30695" lon="5.9379">
        <ele>565</ele>
        <time>2019-03-16T14:04:58Z</time>
      </trkpt>
      <trkpt lat="44.30697" lon="5.93792">
        <ele>565</ele>
        <time>2019-03-16T14:04:59Z</time>
      </trkpt>
      <trkpt lat="44.30699" lon="5.93794">
        <ele>566</ele>
        <time>2019-03-16T14:05:00Z</time>
      </trkpt>
      <trkpt lat="44.30701" lon="5.93796">
        <ele>566</ele>
        <time>2019-03-16T14:05:01Z</time>
      </trkpt>
      <trkpt lat="44.30703" lon="5.93798">
        <ele>567</ele>
        <time>2019-03-16T14:05:02Z</time>
      </trkpt>
      <trkpt lat="44.30706" lon="5.93799">
        <ele>567</ele>
        <time>2019-03-16T14:05:03Z</time>
      </trkpt>
      <trkpt lat="44.30707" lon="5.93801">
        <ele>568</ele>
        <time>2019-03-16T14:05:04Z</time>
      </trkpt>
      <trkpt lat="44.30709" lon="5.93802">
        <ele>569</ele>
        <time>2019-03-16T14:05:05Z</time>
      </trkpt>
      <trkpt lat="44.30711" lon="5.93804">
        <ele>569</ele>
        <time>2019-03-16T14:05:06Z</time>
      </trkpt>
      <trkpt lat="44.30712" lon="5.93806">
        <ele>570</ele>
        <time>2019-03-16T14:05:07Z</time>
      </trkpt>
      <trkpt lat="44.30714" lon="5.93808">
        <ele>571</ele>
        <time>2019-03-16T14:05:08Z</time>
      </trkpt>
      <trkpt lat="44.30715" lon="5.9381">
        <ele>572</ele>
        <time>2019-03-16T14:05:09Z</time>
      </trkpt>
      <trkpt lat="44.30716" lon="5.93811">
        <ele>572</ele>
        <time>2019-03-16T14:05:10Z</time>
      </trkpt>
      <trkpt lat="44.30718" lon="5.93813">
        <ele>572</ele>
        <time>2019-03-16T14:05:11Z</time>
      </trkpt>
      <trkpt lat="44.3072" lon="5.93814">
        <ele>573</ele>
        <time>2019-03-16T14:05:12Z</time>
      </trkpt>
      <trkpt lat="44.30722" lon="5.93816">
        <ele>573</ele>
        <time>2019-03-16T14:05:13Z</time>
      </trkpt>
      <trkpt lat="44.30723" lon="5.93818">
        <ele>573</ele>
        <time>2019-03-16T14:05:14Z</time>
      </trkpt>
      <trkpt lat="44.30725" lon="5.9382">
        <ele>574</ele>
        <time>2019-03-16T14:05:15Z</time>
      </trkpt>
      <trkpt lat="44.30726" lon="5.93822">
        <ele>574</ele>
        <time>2019-03-16T14:05:16Z</time>
      </trkpt>
      <trkpt lat="44.30728" lon="5.93824">
        <ele>574</ele>
        <time>2019-03-16T14:05:17Z</time>
      </trkpt>
      <trkpt lat="44.30729" lon="5.93825">
        <ele>574</ele>
        <time>2019-03-16T14:05:18Z</time>
      </trkpt>
      <trkpt lat="44.30732" lon="5.93828">
        <ele>575</ele>
        <time>2019-03-16T14:05:19Z</time>
      </trkpt>
      <trkpt lat="44.30733" lon="5.93829">
        <ele>575</ele>
        <time>2019-03-16T14:05:20Z</time>
      </trkpt>
      <trkpt lat="44.30735" lon="5.93831">
        <ele>575</ele>
        <time>2019-03-16T14:05:21Z</time>
      </trkpt>
      <trkpt lat="44.30737" lon="5.93833">
        <ele>575</ele>
        <time>2019-03-16T14:05:22Z</time>
      </trkpt>
      <trkpt lat="44.30739" lon="5.93835">
        <ele>575</ele>
        <time>2019-03-16T14:05:23Z</time>
      </trkpt>
      <trkpt lat="44.30741" lon="5.93836">
        <ele>575</ele>
        <time>2019-03-16T14:05:24Z</time>
      </trkpt>
      <trkpt lat="44.30743" lon="5.93838">
        <ele>576</ele>
        <time>2019-03-16T14:05:25Z</time>
      </trkpt>
      <trkpt lat="44.30744" lon="5.9384">
        <ele>576</ele>
        <time>2019-03-16T14:05:26Z</time>
      </trkpt>
      <trkpt lat="44.30746" lon="5.93842">
        <ele>576</ele>
        <time>2019-03-16T14:05:27Z</time>
      </trkpt>
      <trkpt lat="44.30747" lon="5.93843">
        <ele>577</ele>
        <time>2019-03-16T14:05:28Z</time>
      </trkpt>
      <trkpt lat="44.30749" lon="5.93845">
        <ele>577</ele>
        <time>2019-03-16T14:05:29Z</time>
      </trkpt>
      <trkpt lat="44.30751" lon="5.93846">
        <ele>577</ele>
        <time>2019-03-16T14:05:30Z</time>
      </trkpt>
      <trkpt lat="44.30753" lon="5.93847">
        <ele>577</ele>
        <time>2019-03-16T14:05:31Z</time>
      </trkpt>
      <trkpt lat="44.30754" lon="5.93849">
        <ele>577</ele>
        <time>2019-03-16T14:05:32Z</time>
      </trkpt>
      <trkpt lat="44.30756" lon="5.9385">
        <ele>577</ele>
        <time>2019-03-16T14:05:33Z</time>
      </trkpt>
      <trkpt lat="44.30758" lon="5.93852">
        <ele>577</ele>
        <time>2019-03-16T14:05:34Z</time>
      </trkpt>
      <trkpt lat="44.3076" lon="5.93853">
        <ele>577</ele>
        <time>2019-03-16T14:05:35Z</time>
      </trkpt>
      <trkpt lat="44.30762" lon="5.93854">
        <ele>577</ele>
        <time>2019-03-16T14:05:36Z</time>
      </trkpt>
      <trkpt lat="44.30764" lon="5.93855">
        <ele>578</ele>
        <time>2019-03-16T14:05:37Z</time>
      </trkpt>
      <trkpt lat="44.30766" lon="5.93856">
        <ele>578</ele>
        <time>2019-03-16T14:05:38Z</time>
      </trkpt>
      <trkpt lat="44.30768" lon="5.93856">
        <ele>578</ele>
        <time>2019-03-16T14:05:39Z</time>
      </trkpt>
      <trkpt lat="44.3077" lon="5.93857">
        <ele>578</ele>
        <time>2019-03-16T14:05:40Z</time>
      </trkpt>
      <trkpt lat="44.30772" lon="5.93858">
        <ele>578</ele>
        <time>2019-03-16T14:05:41Z</time>
      </trkpt>
      <trkpt lat="44.30774" lon="5.93859">
        <ele>578</ele>
        <time>2019-03-16T14:05:42Z</time>
      </trkpt>
      <trkpt lat="44.30776" lon="5.93859">
        <ele>578</ele>
        <time>2019-03-16T14:05:43Z</time>
      </trkpt>
      <trkpt lat="44.30778" lon="5.9386">
        <ele>578</ele>
        <time>2019-03-16T14:05:44Z</time>
      </trkpt>
      <trkpt lat="44.3078" lon="5.9386">
        <ele>578</ele>
        <time>2019-03-16T14:05:45Z</time>
      </trkpt>
      <trkpt lat="44.30782" lon="5.9386">
        <ele>578</ele>
        <time>2019-03-16T14:05:46Z</time>
      </trkpt>
      <trkpt lat="44.30785" lon="5.93861">
        <ele>578</ele>
        <time>2019-03-16T14:05:47Z</time>
      </trkpt>
      <trkpt lat="44.30787" lon="5.93862">
        <ele>578</ele>
        <time>2019-03-16T14:05:48Z</time>
      </trkpt>
      <trkpt lat="44.30789" lon="5.93862">
        <ele>578</ele>
        <time>2019-03-16T14:05:49Z</time>
      </trkpt>
      <trkpt lat="44.30791" lon="5.93863">
        <ele>578</ele>
        <time>2019-03-16T14:05:50Z</time>
      </trkpt>
      <trkpt lat="44.30793" lon="5.93863">
        <ele>578</ele>
        <time>2019-03-16T14:05:51Z</time>
      </trkpt>
      <trkpt lat="44.30795" lon="5.93864">
        <ele>578</ele>
        <time>2019-03-16T14:05:52Z</time>
      </trkpt>
      <trkpt lat="44.30796" lon="5.93864">
        <ele>578</ele>
        <time>2019-03-16T14:05:53Z</time>
      </trkpt>
      <trkpt lat="44.30798" lon="5.93865">
        <ele>578</ele>
        <time>2019-03-16T14:05:54Z</time>
      </trkpt>
      <trkpt lat="44.308" lon="5.93864">
        <ele>578</ele>
        <time>2019-03-16T14:05:55Z</time>
      </trkpt>
      <trkpt lat="44.30802" lon="5.93864">
        <ele>578</ele>
        <time>2019-03-16T14:05:56Z</time>
      </trkpt>
      <trkpt lat="44.30804" lon="5.93865">
        <ele>578</ele>
        <time>2019-03-16T14:05:57Z</time>
      </trkpt>
      <trkpt lat="44.30806" lon="5.93865">
        <ele>578</ele>
        <time>2019-03-16T14:05:58Z</time>
      </trkpt>
      <trkpt lat="44.30808" lon="5.93865">
        <ele>578</ele>
        <time>2019-03-16T14:05:59Z</time>
      </trkpt>
      <trkpt lat="44.3081" lon="5.93865">
        <ele>579</ele>
        <time>2019-03-16T14:06:00Z</time>
      </trkpt>
      <trkpt lat="44.30812" lon="5.93865">
        <ele>579</ele>
        <time>2019-03-16T14:06:01Z</time>
      </trkpt>
      <trkpt lat="44.30814" lon="5.93865">
        <ele>580</ele>
        <time>2019-03-16T14:06:02Z</time>
      </trkpt>
      <trkpt lat="44.30816" lon="5.93866">
        <ele>580</ele>
        <time>2019-03-16T14:06:03Z</time>
      </trkpt>
      <trkpt lat="44.30818" lon="5.93866">
        <ele>580</ele>
        <time>2019-03-16T14:06:04Z</time>
      </trkpt>
      <trkpt lat="44.3082" lon="5.93866">
        <ele>581</ele>
        <time>2019-03-16T14:06:05Z</time>
      </trkpt>
      <trkpt lat="44.30822" lon="5.93867">
        <ele>581</ele>
        <time>2019-03-16T14:06:06Z</time>
      </trkpt>
      <trkpt lat="44.30824" lon="5.93867">
        <ele>581</ele>
        <time>2019-03-16T14:06:07Z</time>
      </trkpt>
      <trkpt lat="44.30826" lon="5.93868">
        <ele>581</ele>
        <time>2019-03-16T14:06:08Z</time>
      </trkpt>
      <trkpt lat="44.30827" lon="5.93868">
        <ele>581</ele>
        <time>2019-03-16T14:06:09Z</time>
      </trkpt>
      <trkpt lat="44.30829" lon="5.93868">
        <ele>581</ele>
        <time>2019-03-16T14:06:10Z</time>
      </trkpt>
      <trkpt lat="44.30831" lon="5.93868">
        <ele>582</ele>
        <time>2019-03-16T14:06:11Z</time>
      </trkpt>
      <trkpt lat="44.30833" lon="5.93867">
        <ele>582</ele>
        <time>2019-03-16T14:06:12Z</time>
      </trkpt>
      <trkpt lat="44.30835" lon="5.93867">
        <ele>582</ele>
        <time>2019-03-16T14:06:13Z</time>
      </trkpt>
      <trkpt lat="44.30836" lon="5.93867">
        <ele>582</ele>
        <time>2019-03-16T14:06:14Z</time>
      </trkpt>
      <trkpt lat="44.30838" lon="5.93867">
        <ele>582</ele>
        <time>2019-03-16T14:06:15Z</time>
      </trkpt>
      <trkpt lat="44.3084" lon="5.93867">
        <ele>582</ele>
        <time>2019-03-16T14:06:16Z</time>
      </trkpt>
      <trkpt lat="44.30841" lon="5.93866">
        <ele>583</ele>
        <time>2019-03-16T14:06:17Z</time>
      </trkpt>
      <trkpt lat="44.30843" lon="5.93866">
        <ele>583</ele>
        <time>2019-03-16T14:06:18Z</time>
      </trkpt>
      <trkpt lat="44.30845" lon="5.93866">
        <ele>583</ele>
        <time>2019-03-16T14:06:19Z</time>
      </trkpt>
      <trkpt lat="44.30846" lon="5.93866">
        <ele>583</ele>
        <time>2019-03-16T14:06:20Z</time>
      </trkpt>
      <trkpt lat="44.30848" lon="5.93866">
        <ele>584</ele>
        <time>2019-03-16T14:06:21Z</time>
      </trkpt>
      <trkpt lat="44.30849" lon="5.93866">
        <ele>584</ele>
        <time>2019-03-16T14:06:22Z</time>
      </trkpt>
      <trkpt lat="44.30851" lon="5.93866">
        <ele>584</ele>
        <time>2019-03-16T14:06:23Z</time>
      </trkpt>
      <trkpt lat="44.30853" lon="5.93866">
        <ele>584</ele>
        <time>2019-03-16T14:06:24Z</time>
      </trkpt>
      <trkpt lat="44.30855" lon="5.93866">
        <ele>584</ele>
        <time>2019-03-16T14:06:25Z</time>
      </trkpt>
      <trkpt lat="44.30857" lon="5.93866">
        <ele>584</ele>
        <time>2019-03-16T14:06:26Z</time>
      </trkpt>
      <trkpt lat="44.30859" lon="5.93866">
        <ele>584</ele>
        <time>2019-03-16T14:06:27Z</time>
      </trkpt>
      <trkpt lat="44.30861" lon="5.93865">
        <ele>584</ele>
        <time>2019-03-16T14:06:28Z</time>
      </trkpt>
      <trkpt lat="44.30863" lon="5.93866">
        <ele>584</ele>
        <time>2019-03-16T14:06:29Z</time>
      </trkpt>
      <trkpt lat="44.30865" lon="5.93866">
        <ele>584</ele>
        <time>2019-03-16T14:06:30Z</time>
      </trkpt>
      <trkpt lat="44.30866" lon="5.93866">
        <ele>584</ele>
        <time>2019-03-16T14:06:31Z</time>
      </trkpt>
      <trkpt lat="44.30867" lon="5.93866">
        <ele>584</ele>
        <time>2019-03-16T14:06:32Z</time>
      </trkpt>
      <trkpt lat="44.30869" lon="5.93867">
        <ele>584</ele>
        <time>2019-03-16T14:06:33Z</time>
      </trkpt>
      <trkpt lat="44.3087" lon="5.93867">
        <ele>584</ele>
        <time>2019-03-16T14:06:34Z</time>
      </trkpt>
      <trkpt lat="44.30872" lon="5.93867">
        <ele>584</ele>
        <time>2019-03-16T14:06:35Z</time>
      </trkpt>
      <trkpt lat="44.30874" lon="5.93867">
        <ele>584</ele>
        <time>2019-03-16T14:06:36Z</time>
      </trkpt>
      <trkpt lat="44.30876" lon="5.93867">
        <ele>584</ele>
        <time>2019-03-16T14:06:37Z</time>
      </trkpt>
      <trkpt lat="44.30878" lon="5.93867">
        <ele>584</ele>
        <time>2019-03-16T14:06:38Z</time>
      </trkpt>
      <trkpt lat="44.30879" lon="5.93866">
        <ele>584</ele>
        <time>2019-03-16T14:06:39Z</time>
      </trkpt>
      <trkpt lat="44.30881" lon="5.93866">
        <ele>584</ele>
        <time>2019-03-16T14:06:40Z</time>
      </trkpt>
      <trkpt lat="44.30883" lon="5.93866">
        <ele>584</ele>
        <time>2019-03-16T14:06:41Z</time>
      </trkpt>
      <trkpt lat="44.30884" lon="5.93865">
        <ele>584</ele>
        <time>2019-03-16T14:06:42Z</time>
      </trkpt>
      <trkpt lat="44.30886" lon="5.93865">
        <ele>584</ele>
        <time>2019-03-16T14:06:43Z</time>
      </trkpt>
      <trkpt lat="44.30887" lon="5.93865">
        <ele>584</ele>
        <time>2019-03-16T14:06:44Z</time>
      </trkpt>
      <trkpt lat="44.30889" lon="5.93864">
        <ele>584</ele>
        <time>2019-03-16T14:06:45Z</time>
      </trkpt>
      <trkpt lat="44.30891" lon="5.93864">
        <ele>584</ele>
        <time>2019-03-16T14:06:46Z</time>
      </trkpt>
      <trkpt lat="44.30893" lon="5.93863">
        <ele>584</ele>
        <time>2019-03-16T14:06:47Z</time>
      </trkpt>
      <trkpt lat="44.30895" lon="5.93863">
        <ele>584</ele>
        <time>2019-03-16T14:06:48Z</time>
      </trkpt>
      <trkpt lat="44.30897" lon="5.93864">
        <ele>584</ele>
        <time>2019-03-16T14:06:49Z</time>
      </trkpt>
      <trkpt lat="44.30898" lon="5.93864">
        <ele>584</ele>
        <time>2019-03-16T14:06:50Z</time>
      </trkpt>
      <trkpt lat="44.309" lon="5.93865">
        <ele>584</ele>
        <time>2019-03-16T14:06:51Z</time>
      </trkpt>
      <trkpt lat="44.30902" lon="5.93864">
        <ele>584</ele>
        <time>2019-03-16T14:06:52Z</time>
      </trkpt>
      <trkpt lat="44.30904" lon="5.93864">
        <ele>584</ele>
        <time>2019-03-16T14:06:53Z</time>
      </trkpt>
      <trkpt lat="44.30906" lon="5.93864">
        <ele>584</ele>
        <time>2019-03-16T14:06:54Z</time>
      </trkpt>
      <trkpt lat="44.30908" lon="5.93865">
        <ele>584</ele>
        <time>2019-03-16T14:06:55Z</time>
      </trkpt>
      <trkpt lat="44.30909" lon="5.93865">
        <ele>584</ele>
        <time>2019-03-16T14:06:56Z</time>
      </trkpt>
      <trkpt lat="44.30911" lon="5.93866">
        <ele>584</ele>
        <time>2019-03-16T14:06:57Z</time>
      </trkpt>
      <trkpt lat="44.30913" lon="5.93867">
        <ele>584</ele>
        <time>2019-03-16T14:06:58Z</time>
      </trkpt>
      <trkpt lat="44.30915" lon="5.93867">
        <ele>585</ele>
        <time>2019-03-16T14:06:59Z</time>
      </trkpt>
      <trkpt lat="44.30917" lon="5.93868">
        <ele>585</ele>
        <time>2019-03-16T14:07:00Z</time>
      </trkpt>
      <trkpt lat="44.30918" lon="5.93869">
        <ele>585</ele>
        <time>2019-03-16T14:07:01Z</time>
      </trkpt>
      <trkpt lat="44.3092" lon="5.9387">
        <ele>586</ele>
        <time>2019-03-16T14:07:02Z</time>
      </trkpt>
      <trkpt lat="44.30921" lon="5.9387">
        <ele>586</ele>
        <time>2019-03-16T14:07:03Z</time>
      </trkpt>
      <trkpt lat="44.30923" lon="5.9387">
        <ele>586</ele>
        <time>2019-03-16T14:07:04Z</time>
      </trkpt>
      <trkpt lat="44.30925" lon="5.93871">
        <ele>586</ele>
        <time>2019-03-16T14:07:05Z</time>
      </trkpt>
      <trkpt lat="44.30927" lon="5.93871">
        <ele>586</ele>
        <time>2019-03-16T14:07:06Z</time>
      </trkpt>
      <trkpt lat="44.30928" lon="5.93872">
        <ele>587</ele>
        <time>2019-03-16T14:07:07Z</time>
      </trkpt>
      <trkpt lat="44.3093" lon="5.93872">
        <ele>587</ele>
        <time>2019-03-16T14:07:08Z</time>
      </trkpt>
      <trkpt lat="44.30932" lon="5.93873">
        <ele>587</ele>
        <time>2019-03-16T14:07:09Z</time>
      </trkpt>
      <trkpt lat="44.30933" lon="5.93874">
        <ele>587</ele>
        <time>2019-03-16T14:07:10Z</time>
      </trkpt>
      <trkpt lat="44.30935" lon="5.93875">
        <ele>587</ele>
        <time>2019-03-16T14:07:11Z</time>
      </trkpt>
      <trkpt lat="44.30937" lon="5.93875">
        <ele>588</ele>
        <time>2019-03-16T14:07:12Z</time>
      </trkpt>
      <trkpt lat="44.30938" lon="5.93876">
        <ele>588</ele>
        <time>2019-03-16T14:07:13Z</time>
      </trkpt>
      <trkpt lat="44.30941" lon="5.93876">
        <ele>589</ele>
        <time>2019-03-16T14:07:14Z</time>
      </trkpt>
      <trkpt lat="44.30943" lon="5.93877">
        <ele>590</ele>
        <time>2019-03-16T14:07:15Z</time>
      </trkpt>
      <trkpt lat="44.30945" lon="5.93878">
        <ele>590</ele>
        <time>2019-03-16T14:07:16Z</time>
      </trkpt>
      <trkpt lat="44.30946" lon="5.93879">
        <ele>591</ele>
        <time>2019-03-16T14:07:17Z</time>
      </trkpt>
      <trkpt lat="44.30948" lon="5.9388">
        <ele>592</ele>
        <time>2019-03-16T14:07:18Z</time>
      </trkpt>
      <trkpt lat="44.3095" lon="5.93882">
        <ele>592</ele>
        <time>2019-03-16T14:07:19Z</time>
      </trkpt>
      <trkpt lat="44.30952" lon="5.93884">
        <ele>592</ele>
        <time>2019-03-16T14:07:20Z</time>
      </trkpt>
      <trkpt lat="44.30953" lon="5.93885">
        <ele>593</ele>
        <time>2019-03-16T14:07:21Z</time>
      </trkpt>
      <trkpt lat="44.30955" lon="5.93886">
        <ele>593</ele>
        <time>2019-03-16T14:07:22Z</time>
      </trkpt>
      <trkpt lat="44.30957" lon="5.93887">
        <ele>593</ele>
        <time>2019-03-16T14:07:23Z</time>
      </trkpt>
      <trkpt lat="44.30958" lon="5.93888">
        <ele>593</ele>
        <time>2019-03-16T14:07:24Z</time>
      </trkpt>
      <trkpt lat="44.30959" lon="5.9389">
        <ele>593</ele>
        <time>2019-03-16T14:07:25Z</time>
      </trkpt>
      <trkpt lat="44.30961" lon="5.93892">
        <ele>594</ele>
        <time>2019-03-16T14:07:26Z</time>
      </trkpt>
      <trkpt lat="44.30962" lon="5.93894">
        <ele>594</ele>
        <time>2019-03-16T14:07:27Z</time>
      </trkpt>
      <trkpt lat="44.30962" lon="5.93897">
        <ele>594</ele>
        <time>2019-03-16T14:07:28Z</time>
      </trkpt>
      <trkpt lat="44.30963" lon="5.939">
        <ele>594</ele>
        <time>2019-03-16T14:07:29Z</time>
      </trkpt>
      <trkpt lat="44.30963" lon="5.93903">
        <ele>594</ele>
        <time>2019-03-16T14:07:30Z</time>
      </trkpt>
      <trkpt lat="44.30964" lon="5.93905">
        <ele>594</ele>
        <time>2019-03-16T14:07:31Z</time>
      </trkpt>
      <trkpt lat="44.30965" lon="5.93908">
        <ele>594</ele>
        <time>2019-03-16T14:07:32Z</time>
      </trkpt>
      <trkpt lat="44.30965" lon="5.93911">
        <ele>594</ele>
        <time>2019-03-16T14:07:33Z</time>
      </trkpt>
      <trkpt lat="44.30966" lon="5.93914">
        <ele>594</ele>
        <time>2019-03-16T14:07:34Z</time>
      </trkpt>
      <trkpt lat="44.30966" lon="5.93917">
        <ele>594</ele>
        <time>2019-03-16T14:07:35Z</time>
      </trkpt>
      <trkpt lat="44.30966" lon="5.9392">
        <ele>594</ele>
        <time>2019-03-16T14:07:36Z</time>
      </trkpt>
      <trkpt lat="44.30967" lon="5.93923">
        <ele>594</ele>
        <time>2019-03-16T14:07:37Z</time>
      </trkpt>
      <trkpt lat="44.30967" lon="5.93926">
        <ele>594</ele>
        <time>2019-03-16T14:07:38Z</time>
      </trkpt>
      <trkpt lat="44.30967" lon="5.93929">
        <ele>594</ele>
        <time>2019-03-16T14:07:39Z</time>
      </trkpt>
      <trkpt lat="44.30967" lon="5.93932">
        <ele>594</ele>
        <time>2019-03-16T14:07:40Z</time>
      </trkpt>
      <trkpt lat="44.30967" lon="5.93935">
        <ele>594</ele>
        <time>2019-03-16T14:07:41Z</time>
      </trkpt>
      <trkpt lat="44.30967" lon="5.93938">
        <ele>594</ele>
        <time>2019-03-16T14:07:42Z</time>
      </trkpt>
      <trkpt lat="44.30968" lon="5.9394">
        <ele>594</ele>
        <time>2019-03-16T14:07:43Z</time>
      </trkpt>
      <trkpt lat="44.30968" lon="5.93944">
        <ele>594</ele>
        <time>2019-03-16T14:07:44Z</time>
      </trkpt>
      <trkpt lat="44.30968" lon="5.93947">
        <ele>594</ele>
        <time>2019-03-16T14:07:45Z</time>
      </trkpt>
      <trkpt lat="44.30968" lon="5.9395">
        <ele>594</ele>
        <time>2019-03-16T14:07:46Z</time>
      </trkpt>
      <trkpt lat="44.30968" lon="5.93953">
        <ele>594</ele>
        <time>2019-03-16T14:07:47Z</time>
      </trkpt>
      <trkpt lat="44.30968" lon="5.93957">
        <ele>594</ele>
        <time>2019-03-16T14:07:48Z</time>
      </trkpt>
      <trkpt lat="44.30968" lon="5.93961">
        <ele>594</ele>
        <time>2019-03-16T14:07:49Z</time>
      </trkpt>
      <trkpt lat="44.30968" lon="5.93965">
        <ele>594</ele>
        <time>2019-03-16T14:07:50Z</time>
      </trkpt>
      <trkpt lat="44.30969" lon="5.93969">
        <ele>594</ele>
        <time>2019-03-16T14:07:51Z</time>
      </trkpt>
      <trkpt lat="44.3097" lon="5.93973">
        <ele>594</ele>
        <time>2019-03-16T14:07:52Z</time>
      </trkpt>
      <trkpt lat="44.3097" lon="5.93977">
        <ele>594</ele>
        <time>2019-03-16T14:07:53Z</time>
      </trkpt>
      <trkpt lat="44.3097" lon="5.93981">
        <ele>594</ele>
        <time>2019-03-16T14:07:54Z</time>
      </trkpt>
      <trkpt lat="44.3097" lon="5.93985">
        <ele>594</ele>
        <time>2019-03-16T14:07:55Z</time>
      </trkpt>
      <trkpt lat="44.3097" lon="5.93989">
        <ele>594</ele>
        <time>2019-03-16T14:07:56Z</time>
      </trkpt>
      <trkpt lat="44.3097" lon="5.93993">
        <ele>594</ele>
        <time>2019-03-16T14:07:57Z</time>
      </trkpt>
      <trkpt lat="44.3097" lon="5.93997">
        <ele>594</ele>
        <time>2019-03-16T14:07:58Z</time>
      </trkpt>
      <trkpt lat="44.3097" lon="5.94001">
        <ele>594</ele>
        <time>2019-03-16T14:07:59Z</time>
      </trkpt>
      <trkpt lat="44.3097" lon="5.94005">
        <ele>595</ele>
        <time>2019-03-16T14:08:00Z</time>
      </trkpt>
      <trkpt lat="44.3097" lon="5.94009">
        <ele>595</ele>
        <time>2019-03-16T14:08:01Z</time>
      </trkpt>
      <trkpt lat="44.3097" lon="5.94013">
        <ele>595</ele>
        <time>2019-03-16T14:08:02Z</time>
      </trkpt>
      <trkpt lat="44.3097" lon="5.94017">
        <ele>595</ele>
        <time>2019-03-16T14:08:03Z</time>
      </trkpt>
      <trkpt lat="44.30969" lon="5.94021">
        <ele>595</ele>
        <time>2019-03-16T14:08:04Z</time>
      </trkpt>
      <trkpt lat="44.3097" lon="5.94025">
        <ele>595</ele>
        <time>2019-03-16T14:08:05Z</time>
      </trkpt>
      <trkpt lat="44.3097" lon="5.94029">
        <ele>595</ele>
        <time>2019-03-16T14:08:06Z</time>
      </trkpt>
      <trkpt lat="44.3097" lon="5.94033">
        <ele>595</ele>
        <time>2019-03-16T14:08:07Z</time>
      </trkpt>
      <trkpt lat="44.3097" lon="5.94037">
        <ele>595</ele>
        <time>2019-03-16T14:08:08Z</time>
      </trkpt>
      <trkpt lat="44.30969" lon="5.94041">
        <ele>595</ele>
        <time>2019-03-16T14:08:09Z</time>
      </trkpt>
      <trkpt lat="44.30969" lon="5.94045">
        <ele>596</ele>
        <time>2019-03-16T14:08:10Z</time>
      </trkpt>
      <trkpt lat="44.30969" lon="5.94049">
        <ele>596</ele>
        <time>2019-03-16T14:08:11Z</time>
      </trkpt>
      <trkpt lat="44.30968" lon="5.94053">
        <ele>596</ele>
        <time>2019-03-16T14:08:12Z</time>
      </trkpt>
      <trkpt lat="44.30968" lon="5.94057">
        <ele>597</ele>
        <time>2019-03-16T14:08:13Z</time>
      </trkpt>
      <trkpt lat="44.30968" lon="5.94061">
        <ele>597</ele>
        <time>2019-03-16T14:08:14Z</time>
      </trkpt>
      <trkpt lat="44.30967" lon="5.94065">
        <ele>598</ele>
        <time>2019-03-16T14:08:15Z</time>
      </trkpt>
      <trkpt lat="44.30967" lon="5.9407">
        <ele>598</ele>
        <time>2019-03-16T14:08:16Z</time>
      </trkpt>
      <trkpt lat="44.30966" lon="5.94074">
        <ele>599</ele>
        <time>2019-03-16T14:08:17Z</time>
      </trkpt>
      <trkpt lat="44.30966" lon="5.94078">
        <ele>599</ele>
        <time>2019-03-16T14:08:18Z</time>
      </trkpt>
      <trkpt lat="44.30965" lon="5.94083">
        <ele>599</ele>
        <time>2019-03-16T14:08:19Z</time>
      </trkpt>
      <trkpt lat="44.30965" lon="5.94088">
        <ele>600</ele>
        <time>2019-03-16T14:08:20Z</time>
      </trkpt>
      <trkpt lat="44.30964" lon="5.94092">
        <ele>601</ele>
        <time>2019-03-16T14:08:21Z</time>
      </trkpt>
      <trkpt lat="44.30963" lon="5.94096">
        <ele>601</ele>
        <time>2019-03-16T14:08:22Z</time>
      </trkpt>
      <trkpt lat="44.30962" lon="5.941">
        <ele>602</ele>
        <time>2019-03-16T14:08:23Z</time>
      </trkpt>
      <trkpt lat="44.30961" lon="5.94104">
        <ele>603</ele>
        <time>2019-03-16T14:08:24Z</time>
      </trkpt>
      <trkpt lat="44.30959" lon="5.94107">
        <ele>603</ele>
        <time>2019-03-16T14:08:25Z</time>
      </trkpt>
      <trkpt lat="44.30959" lon="5.94111">
        <ele>603</ele>
        <time>2019-03-16T14:08:26Z</time>
      </trkpt>
      <trkpt lat="44.30957" lon="5.94114">
        <ele>604</ele>
        <time>2019-03-16T14:08:27Z</time>
      </trkpt>
      <trkpt lat="44.30956" lon="5.94118">
        <ele>604</ele>
        <time>2019-03-16T14:08:28Z</time>
      </trkpt>
      <trkpt lat="44.30955" lon="5.94121">
        <ele>605</ele>
        <time>2019-03-16T14:08:29Z</time>
      </trkpt>
      <trkpt lat="44.30954" lon="5.94125">
        <ele>605</ele>
        <time>2019-03-16T14:08:30Z</time>
      </trkpt>
      <trkpt lat="44.30953" lon="5.94128">
        <ele>605</ele>
        <time>2019-03-16T14:08:31Z</time>
      </trkpt>
      <trkpt lat="44.30952" lon="5.94132">
        <ele>606</ele>
        <time>2019-03-16T14:08:32Z</time>
      </trkpt>
      <trkpt lat="44.30951" lon="5.94135">
        <ele>606</ele>
        <time>2019-03-16T14:08:33Z</time>
      </trkpt>
      <trkpt lat="44.3095" lon="5.94139">
        <ele>606</ele>
        <time>2019-03-16T14:08:34Z</time>
      </trkpt>
      <trkpt lat="44.30949" lon="5.94143">
        <ele>607</ele>
        <time>2019-03-16T14:08:35Z</time>
      </trkpt>
      <trkpt lat="44.30948" lon="5.94147">
        <ele>607</ele>
        <time>2019-03-16T14:08:36Z</time>
      </trkpt>
      <trkpt lat="44.30947" lon="5.9415">
        <ele>608</ele>
        <time>2019-03-16T14:08:37Z</time>
      </trkpt>
      <trkpt lat="44.30946" lon="5.94154">
        <ele>608</ele>
        <time>2019-03-16T14:08:38Z</time>
      </trkpt>
      <trkpt lat="44.30944" lon="5.94158">
        <ele>609</ele>
        <time>2019-03-16T14:08:39Z</time>
      </trkpt>
      <trkpt lat="44.30944" lon="5.94161">
        <ele>609</ele>
        <time>2019-03-16T14:08:40Z</time>
      </trkpt>
      <trkpt lat="44.30943" lon="5.94165">
        <ele>609</ele>
        <time>2019-03-16T14:08:41Z</time>
      </trkpt>
      <trkpt lat="44.30941" lon="5.94169">
        <ele>610</ele>
        <time>2019-03-16T14:08:42Z</time>
      </trkpt>
      <trkpt lat="44.3094" lon="5.94173">
        <ele>610</ele>
        <time>2019-03-16T14:08:43Z</time>
      </trkpt>
      <trkpt lat="44.30938" lon="5.94177">
        <ele>610</ele>
        <time>2019-03-16T14:08:44Z</time>
      </trkpt>
      <trkpt lat="44.30938" lon="5.94181">
        <ele>611</ele>
        <time>2019-03-16T14:08:45Z</time>
      </trkpt>
      <trkpt lat="44.30936" lon="5.94186">
        <ele>611</ele>
        <time>2019-03-16T14:08:46Z</time>
      </trkpt>
      <trkpt lat="44.30935" lon="5.9419">
        <ele>612</ele>
        <time>2019-03-16T14:08:47Z</time>
      </trkpt>
      <trkpt lat="44.30933" lon="5.94194">
        <ele>612</ele>
        <time>2019-03-16T14:08:48Z</time>
      </trkpt>
      <trkpt lat="44.30932" lon="5.94198">
        <ele>612</ele>
        <time>2019-03-16T14:08:49Z</time>
      </trkpt>
      <trkpt lat="44.3093" lon="5.94201">
        <ele>612</ele>
        <time>2019-03-16T14:08:50Z</time>
      </trkpt>
      <trkpt lat="44.30929" lon="5.94205">
        <ele>612</ele>
        <time>2019-03-16T14:08:51Z</time>
      </trkpt>
      <trkpt lat="44.30927" lon="5.94208">
        <ele>612</ele>
        <time>2019-03-16T14:08:52Z</time>
      </trkpt>
      <trkpt lat="44.30926" lon="5.94212">
        <ele>612</ele>
        <time>2019-03-16T14:08:53Z</time>
      </trkpt>
      <trkpt lat="44.30925" lon="5.94215">
        <ele>612</ele>
        <time>2019-03-16T14:08:54Z</time>
      </trkpt>
      <trkpt lat="44.30923" lon="5.94218">
        <ele>612</ele>
        <time>2019-03-16T14:08:55Z</time>
      </trkpt>
      <trkpt lat="44.30922" lon="5.94221">
        <ele>612</ele>
        <time>2019-03-16T14:08:56Z</time>
      </trkpt>
      <trkpt lat="44.30921" lon="5.94224">
        <ele>612</ele>
        <time>2019-03-16T14:08:57Z</time>
      </trkpt>
      <trkpt lat="44.3092" lon="5.94227">
        <ele>612</ele>
        <time>2019-03-16T14:08:58Z</time>
      </trkpt>
      <trkpt lat="44.30918" lon="5.9423">
        <ele>612</ele>
        <time>2019-03-16T14:08:59Z</time>
      </trkpt>
      <trkpt lat="44.30917" lon="5.94233">
        <ele>612</ele>
        <time>2019-03-16T14:09:00Z</time>
      </trkpt>
      <trkpt lat="44.30916" lon="5.94236">
        <ele>613</ele>
        <time>2019-03-16T14:09:01Z</time>
      </trkpt>
      <trkpt lat="44.30914" lon="5.94239">
        <ele>613</ele>
        <time>2019-03-16T14:09:02Z</time>
      </trkpt>
      <trkpt lat="44.30912" lon="5.94242">
        <ele>613</ele>
        <time>2019-03-16T14:09:03Z</time>
      </trkpt>
      <trkpt lat="44.3091" lon="5.94245">
        <ele>613</ele>
        <time>2019-03-16T14:09:04Z</time>
      </trkpt>
      <trkpt lat="44.30908" lon="5.94249">
        <ele>613</ele>
        <time>2019-03-16T14:09:05Z</time>
      </trkpt>
      <trkpt lat="44.30907" lon="5.94252">
        <ele>613</ele>
        <time>2019-03-16T14:09:06Z</time>
      </trkpt>
      <trkpt lat="44.30905" lon="5.94255">
        <ele>613</ele>
        <time>2019-03-16T14:09:07Z</time>
      </trkpt>
      <trkpt lat="44.30903" lon="5.94259">
        <ele>613</ele>
        <time>2019-03-16T14:09:08Z</time>
      </trkpt>
      <trkpt lat="44.30902" lon="5.94262">
        <ele>613</ele>
        <time>2019-03-16T14:09:09Z</time>
      </trkpt>
      <trkpt lat="44.30901" lon="5.94265">
        <ele>613</ele>
        <time>2019-03-16T14:09:10Z</time>
      </trkpt>
      <trkpt lat="44.30899" lon="5.94269">
        <ele>613</ele>
        <time>2019-03-16T14:09:11Z</time>
      </trkpt>
      <trkpt lat="44.30897" lon="5.94271">
        <ele>613</ele>
        <time>2019-03-16T14:09:12Z</time>
      </trkpt>
      <trkpt lat="44.30896" lon="5.94274">
        <ele>614</ele>
        <time>2019-03-16T14:09:13Z</time>
      </trkpt>
      <trkpt lat="44.30895" lon="5.94277">
        <ele>614</ele>
        <time>2019-03-16T14:09:14Z</time>
      </trkpt>
      <trkpt lat="44.30893" lon="5.9428">
        <ele>614</ele>
        <time>2019-03-16T14:09:15Z</time>
      </trkpt>
      <trkpt lat="44.30892" lon="5.94283">
        <ele>614</ele>
        <time>2019-03-16T14:09:16Z</time>
      </trkpt>
      <trkpt lat="44.30891" lon="5.94286">
        <ele>614</ele>
        <time>2019-03-16T14:09:17Z</time>
      </trkpt>
      <trkpt lat="44.3089" lon="5.94289">
        <ele>614</ele>
        <time>2019-03-16T14:09:18Z</time>
      </trkpt>
      <trkpt lat="44.30889" lon="5.94292">
        <ele>614</ele>
        <time>2019-03-16T14:09:19Z</time>
      </trkpt>
      <trkpt lat="44.30887" lon="5.94295">
        <ele>614</ele>
        <time>2019-03-16T14:09:20Z</time>
      </trkpt>
      <trkpt lat="44.30886" lon="5.94297">
        <ele>614</ele>
        <time>2019-03-16T14:09:21Z</time>
      </trkpt>
      <trkpt lat="44.30885" lon="5.943">
        <ele>614</ele>
        <time>2019-03-16T14:09:22Z</time>
      </trkpt>
      <trkpt lat="44.30884" lon="5.94302">
        <ele>615</ele>
        <time>2019-03-16T14:09:23Z</time>
      </trkpt>
      <trkpt lat="44.30883" lon="5.94305">
        <ele>615</ele>
        <time>2019-03-16T14:09:24Z</time>
      </trkpt>
      <trkpt lat="44.30882" lon="5.94308">
        <ele>615</ele>
        <time>2019-03-16T14:09:25Z</time>
      </trkpt>
      <trkpt lat="44.30881" lon="5.9431">
        <ele>615</ele>
        <time>2019-03-16T14:09:26Z</time>
      </trkpt>
      <trkpt lat="44.3088" lon="5.94313">
        <ele>616</ele>
        <time>2019-03-16T14:09:27Z</time>
      </trkpt>
      <trkpt lat="44.30879" lon="5.94315">
        <ele>616</ele>
        <time>2019-03-16T14:09:28Z</time>
      </trkpt>
      <trkpt lat="44.30878" lon="5.94318">
        <ele>616</ele>
        <time>2019-03-16T14:09:29Z</time>
      </trkpt>
      <trkpt lat="44.30878" lon="5.9432">
        <ele>616</ele>
        <time>2019-03-16T14:09:30Z</time>
      </trkpt>
      <trkpt lat="44.30876" lon="5.94322">
        <ele>617</ele>
        <time>2019-03-16T14:09:31Z</time>
      </trkpt>
      <trkpt lat="44.30876" lon="5.94325">
        <ele>617</ele>
        <time>2019-03-16T14:09:32Z</time>
      </trkpt>
      <trkpt lat="44.30875" lon="5.94327">
        <ele>617</ele>
        <time>2019-03-16T14:09:33Z</time>
      </trkpt>
      <trkpt lat="44.30874" lon="5.94329">
        <ele>617</ele>
        <time>2019-03-16T14:09:34Z</time>
      </trkpt>
      <trkpt lat="44.30872" lon="5.94331">
        <ele>618</ele>
        <time>2019-03-16T14:09:35Z</time>
      </trkpt>
      <trkpt lat="44.30871" lon="5.94334">
        <ele>618</ele>
        <time>2019-03-16T14:09:36Z</time>
      </trkpt>
      <trkpt lat="44.3087" lon="5.94336">
        <ele>618</ele>
        <time>2019-03-16T14:09:37Z</time>
      </trkpt>
      <trkpt lat="44.30869" lon="5.94339">
        <ele>618</ele>
        <time>2019-03-16T14:09:38Z</time>
      </trkpt>
      <trkpt lat="44.30867" lon="5.94341">
        <ele>618</ele>
        <time>2019-03-16T14:09:39Z</time>
      </trkpt>
      <trkpt lat="44.30866" lon="5.94343">
        <ele>618</ele>
        <time>2019-03-16T14:09:40Z</time>
      </trkpt>
      <trkpt lat="44.30865" lon="5.94345">
        <ele>618</ele>
        <time>2019-03-16T14:09:41Z</time>
      </trkpt>
      <trkpt lat="44.30864" lon="5.94348">
        <ele>618</ele>
        <time>2019-03-16T14:09:42Z</time>
      </trkpt>
      <trkpt lat="44.30863" lon="5.9435">
        <ele>618</ele>
        <time>2019-03-16T14:09:43Z</time>
      </trkpt>
      <trkpt lat="44.30862" lon="5.94353">
        <ele>619</ele>
        <time>2019-03-16T14:09:44Z</time>
      </trkpt>
      <trkpt lat="44.30861" lon="5.94356">
        <ele>619</ele>
        <time>2019-03-16T14:09:45Z</time>
      </trkpt>
      <trkpt lat="44.3086" lon="5.94359">
        <ele>619</ele>
        <time>2019-03-16T14:09:46Z</time>
      </trkpt>
      <trkpt lat="44.30859" lon="5.94362">
        <ele>619</ele>
        <time>2019-03-16T14:09:47Z</time>
      </trkpt>
      <trkpt lat="44.30857" lon="5.94365">
        <ele>620</ele>
        <time>2019-03-16T14:09:48Z</time>
      </trkpt>
      <trkpt lat="44.30856" lon="5.94368">
        <ele>620</ele>
        <time>2019-03-16T14:09:49Z</time>
      </trkpt>
      <trkpt lat="44.30854" lon="5.94371">
        <ele>621</ele>
        <time>2019-03-16T14:09:50Z</time>
      </trkpt>
      <trkpt lat="44.30853" lon="5.94373">
        <ele>621</ele>
        <time>2019-03-16T14:09:51Z</time>
      </trkpt>
      <trkpt lat="44.30852" lon="5.94375">
        <ele>621</ele>
        <time>2019-03-16T14:09:52Z</time>
      </trkpt>
      <trkpt lat="44.30852" lon="5.94378">
        <ele>622</ele>
        <time>2019-03-16T14:09:53Z</time>
      </trkpt>
      <trkpt lat="44.30851" lon="5.9438">
        <ele>622</ele>
        <time>2019-03-16T14:09:54Z</time>
      </trkpt>
      <trkpt lat="44.3085" lon="5.94383">
        <ele>622</ele>
        <time>2019-03-16T14:09:55Z</time>
      </trkpt>
      <trkpt lat="44.30849" lon="5.94386">
        <ele>623</ele>
        <time>2019-03-16T14:09:56Z</time>
      </trkpt>
      <trkpt lat="44.30848" lon="5.94388">
        <ele>623</ele>
        <time>2019-03-16T14:09:57Z</time>
      </trkpt>
      <trkpt lat="44.30848" lon="5.9439">
        <ele>624</ele>
        <time>2019-03-16T14:09:58Z</time>
      </trkpt>
      <trkpt lat="44.30846" lon="5.94392">
        <ele>624</ele>
        <time>2019-03-16T14:09:59Z</time>
      </trkpt>
      <trkpt lat="44.30845" lon="5.94394">
        <ele>624</ele>
        <time>2019-03-16T14:10:00Z</time>
      </trkpt>
      <trkpt lat="44.30844" lon="5.94396">
        <ele>625</ele>
        <time>2019-03-16T14:10:01Z</time>
      </trkpt>
      <trkpt lat="44.30843" lon="5.94398">
        <ele>625</ele>
        <time>2019-03-16T14:10:02Z</time>
      </trkpt>
      <trkpt lat="44.30842" lon="5.94401">
        <ele>625</ele>
        <time>2019-03-16T14:10:03Z</time>
      </trkpt>
      <trkpt lat="44.3084" lon="5.94403">
        <ele>625</ele>
        <time>2019-03-16T14:10:04Z</time>
      </trkpt>
      <trkpt lat="44.30838" lon="5.94405">
        <ele>625</ele>
        <time>2019-03-16T14:10:05Z</time>
      </trkpt>
      <trkpt lat="44.30837" lon="5.94407">
        <ele>625</ele>
        <time>2019-03-16T14:10:06Z</time>
      </trkpt>
      <trkpt lat="44.30835" lon="5.94409">
        <ele>625</ele>
        <time>2019-03-16T14:10:07Z</time>
      </trkpt>
      <trkpt lat="44.30834" lon="5.94411">
        <ele>625</ele>
        <time>2019-03-16T14:10:08Z</time>
      </trkpt>
      <trkpt lat="44.30833" lon="5.94414">
        <ele>625</ele>
        <time>2019-03-16T14:10:09Z</time>
      </trkpt>
      <trkpt lat="44.30831" lon="5.94415">
        <ele>625</ele>
        <time>2019-03-16T14:10:10Z</time>
      </trkpt>
      <trkpt lat="44.3083" lon="5.94417">
        <ele>625</ele>
        <time>2019-03-16T14:10:11Z</time>
      </trkpt>
      <trkpt lat="44.30828" lon="5.94419">
        <ele>625</ele>
        <time>2019-03-16T14:10:12Z</time>
      </trkpt>
      <trkpt lat="44.30826" lon="5.94421">
        <ele>625</ele>
        <time>2019-03-16T14:10:13Z</time>
      </trkpt>
      <trkpt lat="44.30824" lon="5.94423">
        <ele>625</ele>
        <time>2019-03-16T14:10:14Z</time>
      </trkpt>
      <trkpt lat="44.30822" lon="5.94425">
        <ele>625</ele>
        <time>2019-03-16T14:10:15Z</time>
      </trkpt>
      <trkpt lat="44.30821" lon="5.94426">
        <ele>625</ele>
        <time>2019-03-16T14:10:16Z</time>
      </trkpt>
      <trkpt lat="44.30819" lon="5.94428">
        <ele>625</ele>
        <time>2019-03-16T14:10:17Z</time>
      </trkpt>
      <trkpt lat="44.30817" lon="5.9443">
        <ele>625</ele>
        <time>2019-03-16T14:10:18Z</time>
      </trkpt>
      <trkpt lat="44.30816" lon="5.94431">
        <ele>625</ele>
        <time>2019-03-16T14:10:19Z</time>
      </trkpt>
      <trkpt lat="44.30814" lon="5.94433">
        <ele>625</ele>
        <time>2019-03-16T14:10:20Z</time>
      </trkpt>
      <trkpt lat="44.30812" lon="5.94435">
        <ele>625</ele>
        <time>2019-03-16T14:10:21Z</time>
      </trkpt>
      <trkpt lat="44.30811" lon="5.94437">
        <ele>625</ele>
        <time>2019-03-16T14:10:22Z</time>
      </trkpt>
      <trkpt lat="44.30809" lon="5.94439">
        <ele>625</ele>
        <time>2019-03-16T14:10:23Z</time>
      </trkpt>
      <trkpt lat="44.30808" lon="5.94441">
        <ele>625</ele>
        <time>2019-03-16T14:10:24Z</time>
      </trkpt>
      <trkpt lat="44.30807" lon="5.94444">
        <ele>625</ele>
        <time>2019-03-16T14:10:25Z</time>
      </trkpt>
      <trkpt lat="44.30806" lon="5.94447">
        <ele>625</ele>
        <time>2019-03-16T14:10:26Z</time>
      </trkpt>
      <trkpt lat="44.30805" lon="5.9445">
        <ele>625</ele>
        <time>2019-03-16T14:10:27Z</time>
      </trkpt>
      <trkpt lat="44.30804" lon="5.94452">
        <ele>625</ele>
        <time>2019-03-16T14:10:28Z</time>
      </trkpt>
      <trkpt lat="44.30804" lon="5.94456">
        <ele>625</ele>
        <time>2019-03-16T14:10:29Z</time>
      </trkpt>
      <trkpt lat="44.30805" lon="5.94458">
        <ele>625</ele>
        <time>2019-03-16T14:10:30Z</time>
      </trkpt>
      <trkpt lat="44.30806" lon="5.94461">
        <ele>625</ele>
        <time>2019-03-16T14:10:31Z</time>
      </trkpt>
      <trkpt lat="44.30807" lon="5.94463">
        <ele>625</ele>
        <time>2019-03-16T14:10:32Z</time>
      </trkpt>
      <trkpt lat="44.30809" lon="5.94465">
        <ele>625</ele>
        <time>2019-03-16T14:10:33Z</time>
      </trkpt>
      <trkpt lat="44.3081" lon="5.94467">
        <ele>625</ele>
        <time>2019-03-16T14:10:34Z</time>
      </trkpt>
      <trkpt lat="44.30812" lon="5.94469">
        <ele>626</ele>
        <time>2019-03-16T14:10:35Z</time>
      </trkpt>
      <trkpt lat="44.30814" lon="5.94471">
        <ele>626</ele>
        <time>2019-03-16T14:10:36Z</time>
      </trkpt>
      <trkpt lat="44.30815" lon="5.94473">
        <ele>626</ele>
        <time>2019-03-16T14:10:37Z</time>
      </trkpt>
      <trkpt lat="44.30817" lon="5.94475">
        <ele>627</ele>
        <time>2019-03-16T14:10:38Z</time>
      </trkpt>
      <trkpt lat="44.30818" lon="5.94476">
        <ele>627</ele>
        <time>2019-03-16T14:10:39Z</time>
      </trkpt>
      <trkpt lat="44.3082" lon="5.94478">
        <ele>627</ele>
        <time>2019-03-16T14:10:40Z</time>
      </trkpt>
      <trkpt lat="44.30821" lon="5.9448">
        <ele>628</ele>
        <time>2019-03-16T14:10:41Z</time>
      </trkpt>
      <trkpt lat="44.30822" lon="5.94483">
        <ele>628</ele>
        <time>2019-03-16T14:10:42Z</time>
      </trkpt>
      <trkpt lat="44.30822" lon="5.94485">
        <ele>628</ele>
        <time>2019-03-16T14:10:43Z</time>
      </trkpt>
      <trkpt lat="44.30823" lon="5.94487">
        <ele>629</ele>
        <time>2019-03-16T14:10:44Z</time>
      </trkpt>
      <trkpt lat="44.30824" lon="5.9449">
        <ele>629</ele>
        <time>2019-03-16T14:10:45Z</time>
      </trkpt>
      <trkpt lat="44.30825" lon="5.94492">
        <ele>629</ele>
        <time>2019-03-16T14:10:46Z</time>
      </trkpt>
      <trkpt lat="44.30825" lon="5.94495">
        <ele>630</ele>
        <time>2019-03-16T14:10:47Z</time>
      </trkpt>
      <trkpt lat="44.30825" lon="5.94498">
        <ele>630</ele>
        <time>2019-03-16T14:10:48Z</time>
      </trkpt>
      <trkpt lat="44.30826" lon="5.945">
        <ele>630</ele>
        <time>2019-03-16T14:10:49Z</time>
      </trkpt>
      <trkpt lat="44.30826" lon="5.94503">
        <ele>630</ele>
        <time>2019-03-16T14:10:50Z</time>
      </trkpt>
      <trkpt lat="44.30826" lon="5.94506">
        <ele>631</ele>
        <time>2019-03-16T14:10:51Z</time>
      </trkpt>
      <trkpt lat="44.30825" lon="5.94509">
        <ele>631</ele>
        <time>2019-03-16T14:10:52Z</time>
      </trkpt>
      <trkpt lat="44.30825" lon="5.94513">
        <ele>631</ele>
        <time>2019-03-16T14:10:53Z</time>
      </trkpt>
      <trkpt lat="44.30825" lon="5.94516">
        <ele>631</ele>
        <time>2019-03-16T14:10:54Z</time>
      </trkpt>
      <trkpt lat="44.30825" lon="5.94519">
        <ele>631</ele>
        <time>2019-03-16T14:10:55Z</time>
      </trkpt>
      <trkpt lat="44.30824" lon="5.94522">
        <ele>631</ele>
        <time>2019-03-16T14:10:56Z</time>
      </trkpt>
      <trkpt lat="44.30824" lon="5.94525">
        <ele>632</ele>
        <time>2019-03-16T14:10:57Z</time>
      </trkpt>
      <trkpt lat="44.30824" lon="5.94528">
        <ele>632</ele>
        <time>2019-03-16T14:10:58Z</time>
      </trkpt>
      <trkpt lat="44.30823" lon="5.94531">
        <ele>632</ele>
        <time>2019-03-16T14:10:59Z</time>
      </trkpt>
      <trkpt lat="44.30822" lon="5.94534">
        <ele>632</ele>
        <time>2019-03-16T14:11:00Z</time>
      </trkpt>
      <trkpt lat="44.30822" lon="5.94537">
        <ele>632</ele>
        <time>2019-03-16T14:11:01Z</time>
      </trkpt>
      <trkpt lat="44.30821" lon="5.9454">
        <ele>633</ele>
        <time>2019-03-16T14:11:02Z</time>
      </trkpt>
      <trkpt lat="44.3082" lon="5.94543">
        <ele>633</ele>
        <time>2019-03-16T14:11:03Z</time>
      </trkpt>
      <trkpt lat="44.3082" lon="5.94546">
        <ele>633</ele>
        <time>2019-03-16T14:11:04Z</time>
      </trkpt>
      <trkpt lat="44.30819" lon="5.94549">
        <ele>633</ele>
        <time>2019-03-16T14:11:05Z</time>
      </trkpt>
      <trkpt lat="44.30818" lon="5.94552">
        <ele>633</ele>
        <time>2019-03-16T14:11:06Z</time>
      </trkpt>
      <trkpt lat="44.30817" lon="5.94555">
        <ele>633</ele>
        <time>2019-03-16T14:11:07Z</time>
      </trkpt>
      <trkpt lat="44.30817" lon="5.94558">
        <ele>634</ele>
        <time>2019-03-16T14:11:08Z</time>
      </trkpt>
      <trkpt lat="44.30816" lon="5.9456">
        <ele>634</ele>
        <time>2019-03-16T14:11:09Z</time>
      </trkpt>
      <trkpt lat="44.30816" lon="5.94563">
        <ele>634</ele>
        <time>2019-03-16T14:11:10Z</time>
      </trkpt>
      <trkpt lat="44.30815" lon="5.94566">
        <ele>634</ele>
        <time>2019-03-16T14:11:11Z</time>
      </trkpt>
      <trkpt lat="44.30814" lon="5.94569">
        <ele>634</ele>
        <time>2019-03-16T14:11:12Z</time>
      </trkpt>
      <trkpt lat="44.30813" lon="5.94572">
        <ele>635</ele>
        <time>2019-03-16T14:11:13Z</time>
      </trkpt>
      <trkpt lat="44.30813" lon="5.94575">
        <ele>635</ele>
        <time>2019-03-16T14:11:14Z</time>
      </trkpt>
      <trkpt lat="44.30812" lon="5.94578">
        <ele>635</ele>
        <time>2019-03-16T14:11:15Z</time>
      </trkpt>
      <trkpt lat="44.30811" lon="5.94581">
        <ele>635</ele>
        <time>2019-03-16T14:11:16Z</time>
      </trkpt>
      <trkpt lat="44.30811" lon="5.94584">
        <ele>635</ele>
        <time>2019-03-16T14:11:17Z</time>
      </trkpt>
      <trkpt lat="44.3081" lon="5.94586">
        <ele>636</ele>
        <time>2019-03-16T14:11:18Z</time>
      </trkpt>
      <trkpt lat="44.30809" lon="5.94589">
        <ele>636</ele>
        <time>2019-03-16T14:11:19Z</time>
      </trkpt>
      <trkpt lat="44.30808" lon="5.94592">
        <ele>636</ele>
        <time>2019-03-16T14:11:20Z</time>
      </trkpt>
      <trkpt lat="44.30807" lon="5.94595">
        <ele>636</ele>
        <time>2019-03-16T14:11:21Z</time>
      </trkpt>
      <trkpt lat="44.30806" lon="5.94597">
        <ele>636</ele>
        <time>2019-03-16T14:11:22Z</time>
      </trkpt>
      <trkpt lat="44.30805" lon="5.946">
        <ele>636</ele>
        <time>2019-03-16T14:11:23Z</time>
      </trkpt>
      <trkpt lat="44.30804" lon="5.94603">
        <ele>637</ele>
        <time>2019-03-16T14:11:24Z</time>
      </trkpt>
      <trkpt lat="44.30803" lon="5.94605">
        <ele>637</ele>
        <time>2019-03-16T14:11:25Z</time>
      </trkpt>
      <trkpt lat="44.30802" lon="5.94608">
        <ele>637</ele>
        <time>2019-03-16T14:11:26Z</time>
      </trkpt>
      <trkpt lat="44.30801" lon="5.9461">
        <ele>637</ele>
        <time>2019-03-16T14:11:27Z</time>
      </trkpt>
      <trkpt lat="44.30799" lon="5.94612">
        <ele>637</ele>
        <time>2019-03-16T14:11:28Z</time>
      </trkpt>
      <trkpt lat="44.30798" lon="5.94614">
        <ele>638</ele>
        <time>2019-03-16T14:11:29Z</time>
      </trkpt>
      <trkpt lat="44.30797" lon="5.94617">
        <ele>638</ele>
        <time>2019-03-16T14:11:30Z</time>
      </trkpt>
      <trkpt lat="44.30796" lon="5.94618">
        <ele>638</ele>
        <time>2019-03-16T14:11:31Z</time>
      </trkpt>
      <trkpt lat="44.30795" lon="5.9462">
        <ele>638</ele>
        <time>2019-03-16T14:11:32Z</time>
      </trkpt>
      <trkpt lat="44.30793" lon="5.94623">
        <ele>638</ele>
        <time>2019-03-16T14:11:33Z</time>
      </trkpt>
      <trkpt lat="44.30792" lon="5.94624">
        <ele>639</ele>
        <time>2019-03-16T14:11:34Z</time>
      </trkpt>
      <trkpt lat="44.30791" lon="5.94626">
        <ele>639</ele>
        <time>2019-03-16T14:11:35Z</time>
      </trkpt>
      <trkpt lat="44.30789" lon="5.94628">
        <ele>639</ele>
        <time>2019-03-16T14:11:36Z</time>
      </trkpt>
      <trkpt lat="44.30788" lon="5.9463">
        <ele>639</ele>
        <time>2019-03-16T14:11:37Z</time>
      </trkpt>
      <trkpt lat="44.30787" lon="5.94633">
        <ele>639</ele>
        <time>2019-03-16T14:11:38Z</time>
      </trkpt>
      <trkpt lat="44.30785" lon="5.94635">
        <ele>640</ele>
        <time>2019-03-16T14:11:39Z</time>
      </trkpt>
      <trkpt lat="44.30784" lon="5.94636">
        <ele>640</ele>
        <time>2019-03-16T14:11:40Z</time>
      </trkpt>
      <trkpt lat="44.30782" lon="5.94638">
        <ele>640</ele>
        <time>2019-03-16T14:11:41Z</time>
      </trkpt>
      <trkpt lat="44.30781" lon="5.9464">
        <ele>640</ele>
        <time>2019-03-16T14:11:42Z</time>
      </trkpt>
      <trkpt lat="44.30779" lon="5.94643">
        <ele>641</ele>
        <time>2019-03-16T14:11:43Z</time>
      </trkpt>
      <trkpt lat="44.30778" lon="5.94645">
        <ele>641</ele>
        <time>2019-03-16T14:11:44Z</time>
      </trkpt>
      <trkpt lat="44.30777" lon="5.94647">
        <ele>641</ele>
        <time>2019-03-16T14:11:45Z</time>
      </trkpt>
      <trkpt lat="44.30775" lon="5.94649">
        <ele>641</ele>
        <time>2019-03-16T14:11:46Z</time>
      </trkpt>
      <trkpt lat="44.30774" lon="5.94651">
        <ele>641</ele>
        <time>2019-03-16T14:11:47Z</time>
      </trkpt>
      <trkpt lat="44.30772" lon="5.94653">
        <ele>642</ele>
        <time>2019-03-16T14:11:48Z</time>
      </trkpt>
      <trkpt lat="44.30771" lon="5.94655">
        <ele>642</ele>
        <time>2019-03-16T14:11:49Z</time>
      </trkpt>
      <trkpt lat="44.30769" lon="5.94657">
        <ele>642</ele>
        <time>2019-03-16T14:11:50Z</time>
      </trkpt>
      <trkpt lat="44.30768" lon="5.94659">
        <ele>642</ele>
        <time>2019-03-16T14:11:51Z</time>
      </trkpt>
      <trkpt lat="44.30767" lon="5.94661">
        <ele>642</ele>
        <time>2019-03-16T14:11:52Z</time>
      </trkpt>
      <trkpt lat="44.30766" lon="5.94664">
        <ele>643</ele>
        <time>2019-03-16T14:11:53Z</time>
      </trkpt>
      <trkpt lat="44.30765" lon="5.94666">
        <ele>643</ele>
        <time>2019-03-16T14:11:54Z</time>
      </trkpt>
      <trkpt lat="44.30764" lon="5.94668">
        <ele>643</ele>
        <time>2019-03-16T14:11:55Z</time>
      </trkpt>
      <trkpt lat="44.30762" lon="5.9467">
        <ele>643</ele>
        <time>2019-03-16T14:11:56Z</time>
      </trkpt>
      <trkpt lat="44.30761" lon="5.94673">
        <ele>643</ele>
        <time>2019-03-16T14:11:57Z</time>
      </trkpt>
      <trkpt lat="44.3076" lon="5.94675">
        <ele>643</ele>
        <time>2019-03-16T14:11:58Z</time>
      </trkpt>
      <trkpt lat="44.30759" lon="5.94678">
        <ele>643</ele>
        <time>2019-03-16T14:11:59Z</time>
      </trkpt>
      <trkpt lat="44.30759" lon="5.94681">
        <ele>644</ele>
        <time>2019-03-16T14:12:00Z</time>
      </trkpt>
      <trkpt lat="44.30758" lon="5.94684">
        <ele>644</ele>
        <time>2019-03-16T14:12:01Z</time>
      </trkpt>
      <trkpt lat="44.30758" lon="5.94687">
        <ele>644</ele>
        <time>2019-03-16T14:12:02Z</time>
      </trkpt>
      <trkpt lat="44.30757" lon="5.94689">
        <ele>644</ele>
        <time>2019-03-16T14:12:03Z</time>
      </trkpt>
      <trkpt lat="44.30757" lon="5.94692">
        <ele>645</ele>
        <time>2019-03-16T14:12:04Z</time>
      </trkpt>
      <trkpt lat="44.30757" lon="5.94695">
        <ele>645</ele>
        <time>2019-03-16T14:12:05Z</time>
      </trkpt>
      <trkpt lat="44.30757" lon="5.94698">
        <ele>645</ele>
        <time>2019-03-16T14:12:06Z</time>
      </trkpt>
      <trkpt lat="44.30758" lon="5.947">
        <ele>645</ele>
        <time>2019-03-16T14:12:07Z</time>
      </trkpt>
      <trkpt lat="44.30758" lon="5.94703">
        <ele>646</ele>
        <time>2019-03-16T14:12:08Z</time>
      </trkpt>
      <trkpt lat="44.30758" lon="5.94705">
        <ele>646</ele>
        <time>2019-03-16T14:12:09Z</time>
      </trkpt>
      <trkpt lat="44.30759" lon="5.94708">
        <ele>646</ele>
        <time>2019-03-16T14:12:10Z</time>
      </trkpt>
      <trkpt lat="44.30759" lon="5.94711">
        <ele>646</ele>
        <time>2019-03-16T14:12:11Z</time>
      </trkpt>
      <trkpt lat="44.30759" lon="5.94713">
        <ele>646</ele>
        <time>2019-03-16T14:12:12Z</time>
      </trkpt>
      <trkpt lat="44.3076" lon="5.94716">
        <ele>646</ele>
        <time>2019-03-16T14:12:13Z</time>
      </trkpt>
      <trkpt lat="44.30761" lon="5.94719">
        <ele>646</ele>
        <time>2019-03-16T14:12:14Z</time>
      </trkpt>
      <trkpt lat="44.30761" lon="5.94721">
        <ele>647</ele>
        <time>2019-03-16T14:12:15Z</time>
      </trkpt>
      <trkpt lat="44.30762" lon="5.94724">
        <ele>647</ele>
        <time>2019-03-16T14:12:16Z</time>
      </trkpt>
      <trkpt lat="44.30762" lon="5.94726">
        <ele>647</ele>
        <time>2019-03-16T14:12:17Z</time>
      </trkpt>
      <trkpt lat="44.30763" lon="5.94729">
        <ele>647</ele>
        <time>2019-03-16T14:12:18Z</time>
      </trkpt>
      <trkpt lat="44.30763" lon="5.94732">
        <ele>647</ele>
        <time>2019-03-16T14:12:19Z</time>
      </trkpt>
      <trkpt lat="44.30763" lon="5.94734">
        <ele>647</ele>
        <time>2019-03-16T14:12:20Z</time>
      </trkpt>
      <trkpt lat="44.30763" lon="5.94737">
        <ele>647</ele>
        <time>2019-03-16T14:12:21Z</time>
      </trkpt>
      <trkpt lat="44.30763" lon="5.94739">
        <ele>647</ele>
        <time>2019-03-16T14:12:22Z</time>
      </trkpt>
      <trkpt lat="44.30764" lon="5.94742">
        <ele>647</ele>
        <time>2019-03-16T14:12:23Z</time>
      </trkpt>
      <trkpt lat="44.30764" lon="5.94745">
        <ele>647</ele>
        <time>2019-03-16T14:12:24Z</time>
      </trkpt>
      <trkpt lat="44.30764" lon="5.94747">
        <ele>647</ele>
        <time>2019-03-16T14:12:25Z</time>
      </trkpt>
      <trkpt lat="44.30764" lon="5.9475">
        <ele>647</ele>
        <time>2019-03-16T14:12:26Z</time>
      </trkpt>
      <trkpt lat="44.30764" lon="5.94753">
        <ele>647</ele>
        <time>2019-03-16T14:12:27Z</time>
      </trkpt>
      <trkpt lat="44.30763" lon="5.94756">
        <ele>647</ele>
        <time>2019-03-16T14:12:28Z</time>
      </trkpt>
      <trkpt lat="44.30763" lon="5.94758">
        <ele>647</ele>
        <time>2019-03-16T14:12:29Z</time>
      </trkpt>
      <trkpt lat="44.30763" lon="5.94761">
        <ele>647</ele>
        <time>2019-03-16T14:12:30Z</time>
      </trkpt>
      <trkpt lat="44.30763" lon="5.94763">
        <ele>647</ele>
        <time>2019-03-16T14:12:31Z</time>
      </trkpt>
      <trkpt lat="44.30763" lon="5.94766">
        <ele>647</ele>
        <time>2019-03-16T14:12:32Z</time>
      </trkpt>
      <trkpt lat="44.30764" lon="5.94769">
        <ele>647</ele>
        <time>2019-03-16T14:12:33Z</time>
      </trkpt>
      <trkpt lat="44.30764" lon="5.94771">
        <ele>648</ele>
        <time>2019-03-16T14:12:34Z</time>
      </trkpt>
      <trkpt lat="44.30764" lon="5.94774">
        <ele>648</ele>
        <time>2019-03-16T14:12:35Z</time>
      </trkpt>
      <trkpt lat="44.30764" lon="5.94776">
        <ele>648</ele>
        <time>2019-03-16T14:12:36Z</time>
      </trkpt>
      <trkpt lat="44.30764" lon="5.94779">
        <ele>648</ele>
        <time>2019-03-16T14:12:37Z</time>
      </trkpt>
      <trkpt lat="44.30763" lon="5.94782">
        <ele>649</ele>
        <time>2019-03-16T14:12:38Z</time>
      </trkpt>
      <trkpt lat="44.30763" lon="5.94784">
        <ele>649</ele>
        <time>2019-03-16T14:12:39Z</time>
      </trkpt>
      <trkpt lat="44.30764" lon="5.94787">
        <ele>649</ele>
        <time>2019-03-16T14:12:40Z</time>
      </trkpt>
      <trkpt lat="44.30764" lon="5.9479">
        <ele>650</ele>
        <time>2019-03-16T14:12:41Z</time>
      </trkpt>
      <trkpt lat="44.30764" lon="5.94793">
        <ele>650</ele>
        <time>2019-03-16T14:12:42Z</time>
      </trkpt>
      <trkpt lat="44.30763" lon="5.94796">
        <ele>650</ele>
        <time>2019-03-16T14:12:43Z</time>
      </trkpt>
      <trkpt lat="44.30763" lon="5.94799">
        <ele>651</ele>
        <time>2019-03-16T14:12:44Z</time>
      </trkpt>
      <trkpt lat="44.30763" lon="5.94801">
        <ele>651</ele>
        <time>2019-03-16T14:12:45Z</time>
      </trkpt>
      <trkpt lat="44.30762" lon="5.94804">
        <ele>651</ele>
        <time>2019-03-16T14:12:46Z</time>
      </trkpt>
      <trkpt lat="44.30762" lon="5.94807">
        <ele>651</ele>
        <time>2019-03-16T14:12:47Z</time>
      </trkpt>
      <trkpt lat="44.30762" lon="5.9481">
        <ele>652</ele>
        <time>2019-03-16T14:12:48Z</time>
      </trkpt>
      <trkpt lat="44.30762" lon="5.94813">
        <ele>652</ele>
        <time>2019-03-16T14:12:49Z</time>
      </trkpt>
      <trkpt lat="44.30763" lon="5.94816">
        <ele>652</ele>
        <time>2019-03-16T14:12:50Z</time>
      </trkpt>
      <trkpt lat="44.30763" lon="5.94819">
        <ele>652</ele>
        <time>2019-03-16T14:12:51Z</time>
      </trkpt>
      <trkpt lat="44.30763" lon="5.94822">
        <ele>653</ele>
        <time>2019-03-16T14:12:52Z</time>
      </trkpt>
      <trkpt lat="44.30763" lon="5.94825">
        <ele>653</ele>
        <time>2019-03-16T14:12:53Z</time>
      </trkpt>
      <trkpt lat="44.30764" lon="5.94828">
        <ele>653</ele>
        <time>2019-03-16T14:12:54Z</time>
      </trkpt>
      <trkpt lat="44.30764" lon="5.94831">
        <ele>654</ele>
        <time>2019-03-16T14:12:55Z</time>
      </trkpt>
      <trkpt lat="44.30763" lon="5.94833">
        <ele>654</ele>
        <time>2019-03-16T14:12:56Z</time>
      </trkpt>
      <trkpt lat="44.30763" lon="5.94836">
        <ele>655</ele>
        <time>2019-03-16T14:12:57Z</time>
      </trkpt>
      <trkpt lat="44.30763" lon="5.94838">
        <ele>655</ele>
        <time>2019-03-16T14:12:58Z</time>
      </trkpt>
      <trkpt lat="44.30762" lon="5.94841">
        <ele>656</ele>
        <time>2019-03-16T14:12:59Z</time>
      </trkpt>
      <trkpt lat="44.30762" lon="5.94843">
        <ele>656</ele>
        <time>2019-03-16T14:13:00Z</time>
      </trkpt>
      <trkpt lat="44.30762" lon="5.94845">
        <ele>656</ele>
        <time>2019-03-16T14:13:01Z</time>
      </trkpt>
      <trkpt lat="44.30762" lon="5.94848">
        <ele>656</ele>
        <time>2019-03-16T14:13:02Z</time>
      </trkpt>
      <trkpt lat="44.30761" lon="5.9485">
        <ele>657</ele>
        <time>2019-03-16T14:13:03Z</time>
      </trkpt>
      <trkpt lat="44.30762" lon="5.94852">
        <ele>657</ele>
        <time>2019-03-16T14:13:04Z</time>
      </trkpt>
      <trkpt lat="44.30762" lon="5.94856">
        <ele>657</ele>
        <time>2019-03-16T14:13:05Z</time>
      </trkpt>
      <trkpt lat="44.30762" lon="5.94858">
        <ele>657</ele>
        <time>2019-03-16T14:13:06Z</time>
      </trkpt>
      <trkpt lat="44.30762" lon="5.9486">
        <ele>657</ele>
        <time>2019-03-16T14:13:07Z</time>
      </trkpt>
      <trkpt lat="44.30762" lon="5.94862">
        <ele>657</ele>
        <time>2019-03-16T14:13:08Z</time>
      </trkpt>
      <trkpt lat="44.30762" lon="5.94865">
        <ele>657</ele>
        <time>2019-03-16T14:13:09Z</time>
      </trkpt>
      <trkpt lat="44.30761" lon="5.94868">
        <ele>658</ele>
        <time>2019-03-16T14:13:10Z</time>
      </trkpt>
      <trkpt lat="44.30761" lon="5.94871">
        <ele>658</ele>
        <time>2019-03-16T14:13:11Z</time>
      </trkpt>
      <trkpt lat="44.30761" lon="5.94874">
        <ele>658</ele>
        <time>2019-03-16T14:13:12Z</time>
      </trkpt>
      <trkpt lat="44.30761" lon="5.94876">
        <ele>658</ele>
        <time>2019-03-16T14:13:13Z</time>
      </trkpt>
      <trkpt lat="44.30761" lon="5.94878">
        <ele>658</ele>
        <time>2019-03-16T14:13:14Z</time>
      </trkpt>
      <trkpt lat="44.30761" lon="5.94881">
        <ele>658</ele>
        <time>2019-03-16T14:13:15Z</time>
      </trkpt>
      <trkpt lat="44.30761" lon="5.94883">
        <ele>659</ele>
        <time>2019-03-16T14:13:16Z</time>
      </trkpt>
      <trkpt lat="44.3076" lon="5.94886">
        <ele>659</ele>
        <time>2019-03-16T14:13:17Z</time>
      </trkpt>
      <trkpt lat="44.3076" lon="5.94888">
        <ele>659</ele>
        <time>2019-03-16T14:13:18Z</time>
      </trkpt>
      <trkpt lat="44.3076" lon="5.9489">
        <ele>659</ele>
        <time>2019-03-16T14:13:19Z</time>
      </trkpt>
      <trkpt lat="44.3076" lon="5.94893">
        <ele>659</ele>
        <time>2019-03-16T14:13:20Z</time>
      </trkpt>
      <trkpt lat="44.3076" lon="5.94896">
        <ele>659</ele>
        <time>2019-03-16T14:13:21Z</time>
      </trkpt>
      <trkpt lat="44.30759" lon="5.94899">
        <ele>660</ele>
        <time>2019-03-16T14:13:22Z</time>
      </trkpt>
      <trkpt lat="44.30759" lon="5.94901">
        <ele>660</ele>
        <time>2019-03-16T14:13:23Z</time>
      </trkpt>
      <trkpt lat="44.30759" lon="5.94904">
        <ele>660</ele>
        <time>2019-03-16T14:13:24Z</time>
      </trkpt>
      <trkpt lat="44.30758" lon="5.94906">
        <ele>660</ele>
        <time>2019-03-16T14:13:25Z</time>
      </trkpt>
      <trkpt lat="44.30758" lon="5.94908">
        <ele>660</ele>
        <time>2019-03-16T14:13:26Z</time>
      </trkpt>
      <trkpt lat="44.30759" lon="5.94911">
        <ele>660</ele>
        <time>2019-03-16T14:13:27Z</time>
      </trkpt>
      <trkpt lat="44.30759" lon="5.94913">
        <ele>661</ele>
        <time>2019-03-16T14:13:28Z</time>
      </trkpt>
      <trkpt lat="44.30759" lon="5.94916">
        <ele>661</ele>
        <time>2019-03-16T14:13:29Z</time>
      </trkpt>
      <trkpt lat="44.3076" lon="5.94919">
        <ele>661</ele>
        <time>2019-03-16T14:13:30Z</time>
      </trkpt>
      <trkpt lat="44.30761" lon="5.94923">
        <ele>661</ele>
        <time>2019-03-16T14:13:31Z</time>
      </trkpt>
      <trkpt lat="44.30761" lon="5.94925">
        <ele>662</ele>
        <time>2019-03-16T14:13:32Z</time>
      </trkpt>
      <trkpt lat="44.30762" lon="5.94928">
        <ele>662</ele>
        <time>2019-03-16T14:13:33Z</time>
      </trkpt>
      <trkpt lat="44.30762" lon="5.9493">
        <ele>662</ele>
        <time>2019-03-16T14:13:34Z</time>
      </trkpt>
      <trkpt lat="44.30763" lon="5.94933">
        <ele>662</ele>
        <time>2019-03-16T14:13:35Z</time>
      </trkpt>
      <trkpt lat="44.30764" lon="5.94935">
        <ele>662</ele>
        <time>2019-03-16T14:13:36Z</time>
      </trkpt>
      <trkpt lat="44.30765" lon="5.94938">
        <ele>662</ele>
        <time>2019-03-16T14:13:37Z</time>
      </trkpt>
      <trkpt lat="44.30766" lon="5.94941">
        <ele>662</ele>
        <time>2019-03-16T14:13:38Z</time>
      </trkpt>
      <trkpt lat="44.30767" lon="5.94944">
        <ele>662</ele>
        <time>2019-03-16T14:13:39Z</time>
      </trkpt>
      <trkpt lat="44.30768" lon="5.94947">
        <ele>662</ele>
        <time>2019-03-16T14:13:40Z</time>
      </trkpt>
      <trkpt lat="44.30769" lon="5.94949">
        <ele>662</ele>
        <time>2019-03-16T14:13:41Z</time>
      </trkpt>
      <trkpt lat="44.3077" lon="5.94953">
        <ele>662</ele>
        <time>2019-03-16T14:13:42Z</time>
      </trkpt>
      <trkpt lat="44.3077" lon="5.94956">
        <ele>663</ele>
        <time>2019-03-16T14:13:43Z</time>
      </trkpt>
      <trkpt lat="44.30771" lon="5.94959">
        <ele>663</ele>
        <time>2019-03-16T14:13:44Z</time>
      </trkpt>
      <trkpt lat="44.30772" lon="5.94961">
        <ele>663</ele>
        <time>2019-03-16T14:13:45Z</time>
      </trkpt>
      <trkpt lat="44.30772" lon="5.94964">
        <ele>663</ele>
        <time>2019-03-16T14:13:46Z</time>
      </trkpt>
      <trkpt lat="44.30773" lon="5.94967">
        <ele>664</ele>
        <time>2019-03-16T14:13:47Z</time>
      </trkpt>
      <trkpt lat="44.30773" lon="5.9497">
        <ele>664</ele>
        <time>2019-03-16T14:13:48Z</time>
      </trkpt>
      <trkpt lat="44.30774" lon="5.94973">
        <ele>664</ele>
        <time>2019-03-16T14:13:49Z</time>
      </trkpt>
      <trkpt lat="44.30774" lon="5.94976">
        <ele>664</ele>
        <time>2019-03-16T14:13:50Z</time>
      </trkpt>
      <trkpt lat="44.30774" lon="5.94979">
        <ele>664</ele>
        <time>2019-03-16T14:13:51Z</time>
      </trkpt>
      <trkpt lat="44.30775" lon="5.94982">
        <ele>664</ele>
        <time>2019-03-16T14:13:52Z</time>
      </trkpt>
      <trkpt lat="44.30775" lon="5.94986">
        <ele>664</ele>
        <time>2019-03-16T14:13:53Z</time>
      </trkpt>
      <trkpt lat="44.30775" lon="5.94989">
        <ele>664</ele>
        <time>2019-03-16T14:13:54Z</time>
      </trkpt>
      <trkpt lat="44.30776" lon="5.94992">
        <ele>664</ele>
        <time>2019-03-16T14:13:55Z</time>
      </trkpt>
      <trkpt lat="44.30777" lon="5.94995">
        <ele>664</ele>
        <time>2019-03-16T14:13:56Z</time>
      </trkpt>
      <trkpt lat="44.30777" lon="5.94999">
        <ele>664</ele>
        <time>2019-03-16T14:13:57Z</time>
      </trkpt>
      <trkpt lat="44.30777" lon="5.95002">
        <ele>664</ele>
        <time>2019-03-16T14:13:58Z</time>
      </trkpt>
      <trkpt lat="44.30778" lon="5.95005">
        <ele>664</ele>
        <time>2019-03-16T14:13:59Z</time>
      </trkpt>
      <trkpt lat="44.30778" lon="5.95008">
        <ele>664</ele>
        <time>2019-03-16T14:14:00Z</time>
      </trkpt>
      <trkpt lat="44.30779" lon="5.95011">
        <ele>664</ele>
        <time>2019-03-16T14:14:01Z</time>
      </trkpt>
      <trkpt lat="44.30779" lon="5.95014">
        <ele>665</ele>
        <time>2019-03-16T14:14:02Z</time>
      </trkpt>
      <trkpt lat="44.3078" lon="5.95017">
        <ele>665</ele>
        <time>2019-03-16T14:14:03Z</time>
      </trkpt>
      <trkpt lat="44.3078" lon="5.95021">
        <ele>665</ele>
        <time>2019-03-16T14:14:04Z</time>
      </trkpt>
      <trkpt lat="44.3078" lon="5.95024">
        <ele>665</ele>
        <time>2019-03-16T14:14:05Z</time>
      </trkpt>
      <trkpt lat="44.30781" lon="5.95027">
        <ele>665</ele>
        <time>2019-03-16T14:14:06Z</time>
      </trkpt>
      <trkpt lat="44.30782" lon="5.9503">
        <ele>666</ele>
        <time>2019-03-16T14:14:07Z</time>
      </trkpt>
      <trkpt lat="44.30783" lon="5.95033">
        <ele>666</ele>
        <time>2019-03-16T14:14:08Z</time>
      </trkpt>
      <trkpt lat="44.30784" lon="5.95036">
        <ele>666</ele>
        <time>2019-03-16T14:14:09Z</time>
      </trkpt>
      <trkpt lat="44.30784" lon="5.9504">
        <ele>667</ele>
        <time>2019-03-16T14:14:10Z</time>
      </trkpt>
      <trkpt lat="44.30785" lon="5.95043">
        <ele>667</ele>
        <time>2019-03-16T14:14:11Z</time>
      </trkpt>
      <trkpt lat="44.30785" lon="5.95046">
        <ele>667</ele>
        <time>2019-03-16T14:14:12Z</time>
      </trkpt>
      <trkpt lat="44.30785" lon="5.95049">
        <ele>668</ele>
        <time>2019-03-16T14:14:13Z</time>
      </trkpt>
      <trkpt lat="44.30786" lon="5.95052">
        <ele>668</ele>
        <time>2019-03-16T14:14:14Z</time>
      </trkpt>
      <trkpt lat="44.30787" lon="5.95055">
        <ele>668</ele>
        <time>2019-03-16T14:14:15Z</time>
      </trkpt>
      <trkpt lat="44.30787" lon="5.95058">
        <ele>668</ele>
        <time>2019-03-16T14:14:16Z</time>
      </trkpt>
      <trkpt lat="44.30788" lon="5.95061">
        <ele>669</ele>
        <time>2019-03-16T14:14:17Z</time>
      </trkpt>
      <trkpt lat="44.30788" lon="5.95064">
        <ele>669</ele>
        <time>2019-03-16T14:14:18Z</time>
      </trkpt>
      <trkpt lat="44.30789" lon="5.95068">
        <ele>669</ele>
        <time>2019-03-16T14:14:19Z</time>
      </trkpt>
      <trkpt lat="44.3079" lon="5.95071">
        <ele>669</ele>
        <time>2019-03-16T14:14:20Z</time>
      </trkpt>
      <trkpt lat="44.3079" lon="5.95074">
        <ele>670</ele>
        <time>2019-03-16T14:14:21Z</time>
      </trkpt>
      <trkpt lat="44.30791" lon="5.95077">
        <ele>670</ele>
        <time>2019-03-16T14:14:22Z</time>
      </trkpt>
      <trkpt lat="44.30791" lon="5.9508">
        <ele>670</ele>
        <time>2019-03-16T14:14:23Z</time>
      </trkpt>
      <trkpt lat="44.30792" lon="5.95083">
        <ele>671</ele>
        <time>2019-03-16T14:14:24Z</time>
      </trkpt>
      <trkpt lat="44.30792" lon="5.95086">
        <ele>671</ele>
        <time>2019-03-16T14:14:25Z</time>
      </trkpt>
      <trkpt lat="44.30792" lon="5.95089">
        <ele>671</ele>
        <time>2019-03-16T14:14:26Z</time>
      </trkpt>
      <trkpt lat="44.30793" lon="5.95092">
        <ele>671</ele>
        <time>2019-03-16T14:14:27Z</time>
      </trkpt>
      <trkpt lat="44.30793" lon="5.95095">
        <ele>671</ele>
        <time>2019-03-16T14:14:28Z</time>
      </trkpt>
      <trkpt lat="44.30793" lon="5.95097">
        <ele>672</ele>
        <time>2019-03-16T14:14:29Z</time>
      </trkpt>
      <trkpt lat="44.30793" lon="5.951">
        <ele>672</ele>
        <time>2019-03-16T14:14:30Z</time>
      </trkpt>
      <trkpt lat="44.30794" lon="5.95104">
        <ele>672</ele>
        <time>2019-03-16T14:14:31Z</time>
      </trkpt>
      <trkpt lat="44.30794" lon="5.95106">
        <ele>672</ele>
        <time>2019-03-16T14:14:32Z</time>
      </trkpt>
      <trkpt lat="44.30795" lon="5.95109">
        <ele>672</ele>
        <time>2019-03-16T14:14:33Z</time>
      </trkpt>
      <trkpt lat="44.30795" lon="5.95112">
        <ele>672</ele>
        <time>2019-03-16T14:14:34Z</time>
      </trkpt>
      <trkpt lat="44.30795" lon="5.95116">
        <ele>672</ele>
        <time>2019-03-16T14:14:35Z</time>
      </trkpt>
      <trkpt lat="44.30796" lon="5.95119">
        <ele>672</ele>
        <time>2019-03-16T14:14:36Z</time>
      </trkpt>
      <trkpt lat="44.30796" lon="5.95122">
        <ele>672</ele>
        <time>2019-03-16T14:14:37Z</time>
      </trkpt>
      <trkpt lat="44.30796" lon="5.95125">
        <ele>673</ele>
        <time>2019-03-16T14:14:38Z</time>
      </trkpt>
      <trkpt lat="44.30797" lon="5.95128">
        <ele>673</ele>
        <time>2019-03-16T14:14:39Z</time>
      </trkpt>
      <trkpt lat="44.30797" lon="5.95131">
        <ele>673</ele>
        <time>2019-03-16T14:14:40Z</time>
      </trkpt>
      <trkpt lat="44.30798" lon="5.95134">
        <ele>674</ele>
        <time>2019-03-16T14:14:41Z</time>
      </trkpt>
      <trkpt lat="44.30798" lon="5.95137">
        <ele>674</ele>
        <time>2019-03-16T14:14:42Z</time>
      </trkpt>
      <trkpt lat="44.30798" lon="5.9514">
        <ele>674</ele>
        <time>2019-03-16T14:14:43Z</time>
      </trkpt>
      <trkpt lat="44.30798" lon="5.95143">
        <ele>674</ele>
        <time>2019-03-16T14:14:44Z</time>
      </trkpt>
      <trkpt lat="44.30799" lon="5.95146">
        <ele>675</ele>
        <time>2019-03-16T14:14:45Z</time>
      </trkpt>
      <trkpt lat="44.30799" lon="5.95149">
        <ele>675</ele>
        <time>2019-03-16T14:14:46Z</time>
      </trkpt>
      <trkpt lat="44.30799" lon="5.95152">
        <ele>675</ele>
        <time>2019-03-16T14:14:47Z</time>
      </trkpt>
      <trkpt lat="44.30799" lon="5.95155">
        <ele>675</ele>
        <time>2019-03-16T14:14:48Z</time>
      </trkpt>
      <trkpt lat="44.30799" lon="5.95159">
        <ele>676</ele>
        <time>2019-03-16T14:14:49Z</time>
      </trkpt>
      <trkpt lat="44.30799" lon="5.95162">
        <ele>676</ele>
        <time>2019-03-16T14:14:50Z</time>
      </trkpt>
      <trkpt lat="44.30799" lon="5.95165">
        <ele>676</ele>
        <time>2019-03-16T14:14:51Z</time>
      </trkpt>
      <trkpt lat="44.30799" lon="5.95169">
        <ele>676</ele>
        <time>2019-03-16T14:14:52Z</time>
      </trkpt>
      <trkpt lat="44.30799" lon="5.95172">
        <ele>676</ele>
        <time>2019-03-16T14:14:53Z</time>
      </trkpt>
      <trkpt lat="44.30799" lon="5.95176">
        <ele>676</ele>
        <time>2019-03-16T14:14:54Z</time>
      </trkpt>
      <trkpt lat="44.30799" lon="5.95179">
        <ele>676</ele>
        <time>2019-03-16T14:14:55Z</time>
      </trkpt>
      <trkpt lat="44.30799" lon="5.95183">
        <ele>676</ele>
        <time>2019-03-16T14:14:56Z</time>
      </trkpt>
      <trkpt lat="44.30799" lon="5.95186">
        <ele>676</ele>
        <time>2019-03-16T14:14:57Z</time>
      </trkpt>
      <trkpt lat="44.30799" lon="5.95189">
        <ele>676</ele>
        <time>2019-03-16T14:14:58Z</time>
      </trkpt>
      <trkpt lat="44.30799" lon="5.95192">
        <ele>676</ele>
        <time>2019-03-16T14:14:59Z</time>
      </trkpt>
      <trkpt lat="44.308" lon="5.95196">
        <ele>677</ele>
        <time>2019-03-16T14:15:00Z</time>
      </trkpt>
      <trkpt lat="44.308" lon="5.95199">
        <ele>677</ele>
        <time>2019-03-16T14:15:01Z</time>
      </trkpt>
      <trkpt lat="44.308" lon="5.95201">
        <ele>677</ele>
        <time>2019-03-16T14:15:02Z</time>
      </trkpt>
      <trkpt lat="44.308" lon="5.95204">
        <ele>677</ele>
        <time>2019-03-16T14:15:03Z</time>
      </trkpt>
      <trkpt lat="44.30799" lon="5.95207">
        <ele>677</ele>
        <time>2019-03-16T14:15:04Z</time>
      </trkpt>
      <trkpt lat="44.30799" lon="5.9521">
        <ele>677</ele>
        <time>2019-03-16T14:15:05Z</time>
      </trkpt>
      <trkpt lat="44.30799" lon="5.95213">
        <ele>677</ele>
        <time>2019-03-16T14:15:06Z</time>
      </trkpt>
      <trkpt lat="44.30799" lon="5.95217">
        <ele>677</ele>
        <time>2019-03-16T14:15:07Z</time>
      </trkpt>
      <trkpt lat="44.30799" lon="5.9522">
        <ele>677</ele>
        <time>2019-03-16T14:15:08Z</time>
      </trkpt>
      <trkpt lat="44.30799" lon="5.95223">
        <ele>677</ele>
        <time>2019-03-16T14:15:09Z</time>
      </trkpt>
      <trkpt lat="44.308" lon="5.95226">
        <ele>677</ele>
        <time>2019-03-16T14:15:10Z</time>
      </trkpt>
      <trkpt lat="44.308" lon="5.95229">
        <ele>677</ele>
        <time>2019-03-16T14:15:11Z</time>
      </trkpt>
      <trkpt lat="44.308" lon="5.95233">
        <ele>677</ele>
        <time>2019-03-16T14:15:12Z</time>
      </trkpt>
      <trkpt lat="44.308" lon="5.95236">
        <ele>677</ele>
        <time>2019-03-16T14:15:13Z</time>
      </trkpt>
      <trkpt lat="44.308" lon="5.9524">
        <ele>677</ele>
        <time>2019-03-16T14:15:14Z</time>
      </trkpt>
      <trkpt lat="44.30801" lon="5.95244">
        <ele>677</ele>
        <time>2019-03-16T14:15:15Z</time>
      </trkpt>
      <trkpt lat="44.30801" lon="5.95247">
        <ele>677</ele>
        <time>2019-03-16T14:15:16Z</time>
      </trkpt>
      <trkpt lat="44.30801" lon="5.95251">
        <ele>677</ele>
        <time>2019-03-16T14:15:17Z</time>
      </trkpt>
      <trkpt lat="44.30801" lon="5.95255">
        <ele>677</ele>
        <time>2019-03-16T14:15:18Z</time>
      </trkpt>
      <trkpt lat="44.30801" lon="5.95258">
        <ele>677</ele>
        <time>2019-03-16T14:15:19Z</time>
      </trkpt>
      <trkpt lat="44.30801" lon="5.95261">
        <ele>677</ele>
        <time>2019-03-16T14:15:20Z</time>
      </trkpt>
      <trkpt lat="44.30801" lon="5.95265">
        <ele>677</ele>
        <time>2019-03-16T14:15:21Z</time>
      </trkpt>
      <trkpt lat="44.30801" lon="5.95268">
        <ele>677</ele>
        <time>2019-03-16T14:15:22Z</time>
      </trkpt>
      <trkpt lat="44.30801" lon="5.95272">
        <ele>677</ele>
        <time>2019-03-16T14:15:23Z</time>
      </trkpt>
      <trkpt lat="44.308" lon="5.95275">
        <ele>677</ele>
        <time>2019-03-16T14:15:24Z</time>
      </trkpt>
      <trkpt lat="44.308" lon="5.95279">
        <ele>678</ele>
        <time>2019-03-16T14:15:25Z</time>
      </trkpt>
      <trkpt lat="44.308" lon="5.95282">
        <ele>678</ele>
        <time>2019-03-16T14:15:26Z</time>
      </trkpt>
      <trkpt lat="44.308" lon="5.95285">
        <ele>678</ele>
        <time>2019-03-16T14:15:27Z</time>
      </trkpt>
      <trkpt lat="44.308" lon="5.95289">
        <ele>679</ele>
        <time>2019-03-16T14:15:28Z</time>
      </trkpt>
      <trkpt lat="44.308" lon="5.95292">
        <ele>679</ele>
        <time>2019-03-16T14:15:29Z</time>
      </trkpt>
      <trkpt lat="44.308" lon="5.95295">
        <ele>679</ele>
        <time>2019-03-16T14:15:30Z</time>
      </trkpt>
      <trkpt lat="44.30799" lon="5.95298">
        <ele>680</ele>
        <time>2019-03-16T14:15:31Z</time>
      </trkpt>
      <trkpt lat="44.30799" lon="5.95301">
        <ele>680</ele>
        <time>2019-03-16T14:15:32Z</time>
      </trkpt>
      <trkpt lat="44.30799" lon="5.95305">
        <ele>680</ele>
        <time>2019-03-16T14:15:33Z</time>
      </trkpt>
      <trkpt lat="44.30799" lon="5.95308">
        <ele>681</ele>
        <time>2019-03-16T14:15:34Z</time>
      </trkpt>
      <trkpt lat="44.30798" lon="5.95311">
        <ele>681</ele>
        <time>2019-03-16T14:15:35Z</time>
      </trkpt>
      <trkpt lat="44.30798" lon="5.95314">
        <ele>681</ele>
        <time>2019-03-16T14:15:36Z</time>
      </trkpt>
      <trkpt lat="44.30797" lon="5.95317">
        <ele>681</ele>
        <time>2019-03-16T14:15:37Z</time>
      </trkpt>
      <trkpt lat="44.30797" lon="5.9532">
        <ele>682</ele>
        <time>2019-03-16T14:15:38Z</time>
      </trkpt>
      <trkpt lat="44.30796" lon="5.95323">
        <ele>682</ele>
        <time>2019-03-16T14:15:39Z</time>
      </trkpt>
      <trkpt lat="44.30796" lon="5.95327">
        <ele>682</ele>
        <time>2019-03-16T14:15:40Z</time>
      </trkpt>
      <trkpt lat="44.30796" lon="5.9533">
        <ele>682</ele>
        <time>2019-03-16T14:15:41Z</time>
      </trkpt>
      <trkpt lat="44.30795" lon="5.95332">
        <ele>682</ele>
        <time>2019-03-16T14:15:42Z</time>
      </trkpt>
      <trkpt lat="44.30795" lon="5.95335">
        <ele>682</ele>
        <time>2019-03-16T14:15:43Z</time>
      </trkpt>
      <trkpt lat="44.30795" lon="5.95339">
        <ele>682</ele>
        <time>2019-03-16T14:15:44Z</time>
      </trkpt>
      <trkpt lat="44.30794" lon="5.95342">
        <ele>682</ele>
        <time>2019-03-16T14:15:45Z</time>
      </trkpt>
      <trkpt lat="44.30794" lon="5.95345">
        <ele>682</ele>
        <time>2019-03-16T14:15:46Z</time>
      </trkpt>
      <trkpt lat="44.30793" lon="5.95348">
        <ele>682</ele>
        <time>2019-03-16T14:15:47Z</time>
      </trkpt>
      <trkpt lat="44.30793" lon="5.95351">
        <ele>682</ele>
        <time>2019-03-16T14:15:48Z</time>
      </trkpt>
      <trkpt lat="44.30793" lon="5.95354">
        <ele>682</ele>
        <time>2019-03-16T14:15:49Z</time>
      </trkpt>
      <trkpt lat="44.30793" lon="5.95357">
        <ele>682</ele>
        <time>2019-03-16T14:15:50Z</time>
      </trkpt>
      <trkpt lat="44.30793" lon="5.9536">
        <ele>683</ele>
        <time>2019-03-16T14:15:51Z</time>
      </trkpt>
      <trkpt lat="44.30793" lon="5.95363">
        <ele>683</ele>
        <time>2019-03-16T14:15:52Z</time>
      </trkpt>
      <trkpt lat="44.30792" lon="5.95366">
        <ele>683</ele>
        <time>2019-03-16T14:15:53Z</time>
      </trkpt>
      <trkpt lat="44.30792" lon="5.95369">
        <ele>683</ele>
        <time>2019-03-16T14:15:54Z</time>
      </trkpt>
      <trkpt lat="44.30791" lon="5.95372">
        <ele>684</ele>
        <time>2019-03-16T14:15:55Z</time>
      </trkpt>
      <trkpt lat="44.30791" lon="5.95375">
        <ele>684</ele>
        <time>2019-03-16T14:15:56Z</time>
      </trkpt>
      <trkpt lat="44.30791" lon="5.95377">
        <ele>684</ele>
        <time>2019-03-16T14:15:57Z</time>
      </trkpt>
      <trkpt lat="44.30791" lon="5.9538">
        <ele>684</ele>
        <time>2019-03-16T14:15:58Z</time>
      </trkpt>
      <trkpt lat="44.3079" lon="5.95383">
        <ele>684</ele>
        <time>2019-03-16T14:15:59Z</time>
      </trkpt>
      <trkpt lat="44.3079" lon="5.95386">
        <ele>684</ele>
        <time>2019-03-16T14:16:00Z</time>
      </trkpt>
      <trkpt lat="44.3079" lon="5.95389">
        <ele>684</ele>
        <time>2019-03-16T14:16:01Z</time>
      </trkpt>
      <trkpt lat="44.3079" lon="5.95392">
        <ele>685</ele>
        <time>2019-03-16T14:16:02Z</time>
      </trkpt>
      <trkpt lat="44.30789" lon="5.95395">
        <ele>685</ele>
        <time>2019-03-16T14:16:03Z</time>
      </trkpt>
      <trkpt lat="44.30789" lon="5.95397">
        <ele>685</ele>
        <time>2019-03-16T14:16:04Z</time>
      </trkpt>
      <trkpt lat="44.30789" lon="5.954">
        <ele>685</ele>
        <time>2019-03-16T14:16:05Z</time>
      </trkpt>
      <trkpt lat="44.30788" lon="5.95403">
        <ele>685</ele>
        <time>2019-03-16T14:16:06Z</time>
      </trkpt>
      <trkpt lat="44.30788" lon="5.95405">
        <ele>685</ele>
        <time>2019-03-16T14:16:07Z</time>
      </trkpt>
      <trkpt lat="44.30788" lon="5.95408">
        <ele>686</ele>
        <time>2019-03-16T14:16:08Z</time>
      </trkpt>
      <trkpt lat="44.30788" lon="5.95411">
        <ele>686</ele>
        <time>2019-03-16T14:16:09Z</time>
      </trkpt>
      <trkpt lat="44.30788" lon="5.95413">
        <ele>686</ele>
        <time>2019-03-16T14:16:10Z</time>
      </trkpt>
      <trkpt lat="44.30787" lon="5.95416">
        <ele>686</ele>
        <time>2019-03-16T14:16:11Z</time>
      </trkpt>
      <trkpt lat="44.30787" lon="5.95419">
        <ele>686</ele>
        <time>2019-03-16T14:16:12Z</time>
      </trkpt>
      <trkpt lat="44.30787" lon="5.95421">
        <ele>686</ele>
        <time>2019-03-16T14:16:13Z</time>
      </trkpt>
      <trkpt lat="44.30786" lon="5.95424">
        <ele>686</ele>
        <time>2019-03-16T14:16:14Z</time>
      </trkpt>
      <trkpt lat="44.30786" lon="5.95427">
        <ele>686</ele>
        <time>2019-03-16T14:16:15Z</time>
      </trkpt>
      <trkpt lat="44.30786" lon="5.95429">
        <ele>686</ele>
        <time>2019-03-16T14:16:16Z</time>
      </trkpt>
      <trkpt lat="44.30785" lon="5.95432">
        <ele>686</ele>
        <time>2019-03-16T14:16:17Z</time>
      </trkpt>
      <trkpt lat="44.30785" lon="5.95435">
        <ele>687</ele>
        <time>2019-03-16T14:16:18Z</time>
      </trkpt>
      <trkpt lat="44.30784" lon="5.95438">
        <ele>687</ele>
        <time>2019-03-16T14:16:19Z</time>
      </trkpt>
      <trkpt lat="44.30785" lon="5.95441">
        <ele>687</ele>
        <time>2019-03-16T14:16:20Z</time>
      </trkpt>
      <trkpt lat="44.30785" lon="5.95444">
        <ele>687</ele>
        <time>2019-03-16T14:16:21Z</time>
      </trkpt>
      <trkpt lat="44.30784" lon="5.95447">
        <ele>688</ele>
        <time>2019-03-16T14:16:22Z</time>
      </trkpt>
      <trkpt lat="44.30784" lon="5.9545">
        <ele>688</ele>
        <time>2019-03-16T14:16:23Z</time>
      </trkpt>
      <trkpt lat="44.30783" lon="5.95453">
        <ele>689</ele>
        <time>2019-03-16T14:16:24Z</time>
      </trkpt>
      <trkpt lat="44.30783" lon="5.95456">
        <ele>689</ele>
        <time>2019-03-16T14:16:25Z</time>
      </trkpt>
      <trkpt lat="44.30783" lon="5.95459">
        <ele>689</ele>
        <time>2019-03-16T14:16:26Z</time>
      </trkpt>
      <trkpt lat="44.30783" lon="5.95462">
        <ele>690</ele>
        <time>2019-03-16T14:16:27Z</time>
      </trkpt>
      <trkpt lat="44.30782" lon="5.95464">
        <ele>690</ele>
        <time>2019-03-16T14:16:28Z</time>
      </trkpt>
      <trkpt lat="44.30784" lon="5.95468">
        <ele>690</ele>
        <time>2019-03-16T14:16:29Z</time>
      </trkpt>
      <trkpt lat="44.30784" lon="5.95471">
        <ele>691</ele>
        <time>2019-03-16T14:16:30Z</time>
      </trkpt>
      <trkpt lat="44.30784" lon="5.95474">
        <ele>692</ele>
        <time>2019-03-16T14:16:31Z</time>
      </trkpt>
      <trkpt lat="44.30784" lon="5.95477">
        <ele>693</ele>
        <time>2019-03-16T14:16:32Z</time>
      </trkpt>
      <trkpt lat="44.30784" lon="5.9548">
        <ele>693</ele>
        <time>2019-03-16T14:16:33Z</time>
      </trkpt>
      <trkpt lat="44.30785" lon="5.95483">
        <ele>694</ele>
        <time>2019-03-16T14:16:34Z</time>
      </trkpt>
      <trkpt lat="44.30785" lon="5.95486">
        <ele>695</ele>
        <time>2019-03-16T14:16:35Z</time>
      </trkpt>
      <trkpt lat="44.30785" lon="5.95489">
        <ele>695</ele>
        <time>2019-03-16T14:16:36Z</time>
      </trkpt>
      <trkpt lat="44.30786" lon="5.95492">
        <ele>696</ele>
        <time>2019-03-16T14:16:37Z</time>
      </trkpt>
      <trkpt lat="44.30787" lon="5.95495">
        <ele>696</ele>
        <time>2019-03-16T14:16:38Z</time>
      </trkpt>
      <trkpt lat="44.30788" lon="5.95498">
        <ele>697</ele>
        <time>2019-03-16T14:16:39Z</time>
      </trkpt>
      <trkpt lat="44.30789" lon="5.95502">
        <ele>697</ele>
        <time>2019-03-16T14:16:40Z</time>
      </trkpt>
      <trkpt lat="44.3079" lon="5.95505">
        <ele>698</ele>
        <time>2019-03-16T14:16:41Z</time>
      </trkpt>
      <trkpt lat="44.30792" lon="5.95508">
        <ele>698</ele>
        <time>2019-03-16T14:16:42Z</time>
      </trkpt>
      <trkpt lat="44.30794" lon="5.95511">
        <ele>698</ele>
        <time>2019-03-16T14:16:43Z</time>
      </trkpt>
      <trkpt lat="44.30796" lon="5.95514">
        <ele>698</ele>
        <time>2019-03-16T14:16:44Z</time>
      </trkpt>
      <trkpt lat="44.30798" lon="5.95516">
        <ele>699</ele>
        <time>2019-03-16T14:16:45Z</time>
      </trkpt>
      <trkpt lat="44.30799" lon="5.95518">
        <ele>699</ele>
        <time>2019-03-16T14:16:46Z</time>
      </trkpt>
      <trkpt lat="44.30801" lon="5.95519">
        <ele>699</ele>
        <time>2019-03-16T14:16:47Z</time>
      </trkpt>
      <trkpt lat="44.30803" lon="5.95521">
        <ele>699</ele>
        <time>2019-03-16T14:16:48Z</time>
      </trkpt>
      <trkpt lat="44.30805" lon="5.95522">
        <ele>699</ele>
        <time>2019-03-16T14:16:49Z</time>
      </trkpt>
      <trkpt lat="44.30807" lon="5.95524">
        <ele>699</ele>
        <time>2019-03-16T14:16:50Z</time>
      </trkpt>
      <trkpt lat="44.30809" lon="5.95525">
        <ele>699</ele>
        <time>2019-03-16T14:16:51Z</time>
      </trkpt>
      <trkpt lat="44.30811" lon="5.95526">
        <ele>699</ele>
        <time>2019-03-16T14:16:52Z</time>
      </trkpt>
      <trkpt lat="44.30812" lon="5.95527">
        <ele>699</ele>
        <time>2019-03-16T14:16:53Z</time>
      </trkpt>
      <trkpt lat="44.30814" lon="5.95528">
        <ele>699</ele>
        <time>2019-03-16T14:16:54Z</time>
      </trkpt>
      <trkpt lat="44.30816" lon="5.9553">
        <ele>700</ele>
        <time>2019-03-16T14:16:55Z</time>
      </trkpt>
      <trkpt lat="44.30818" lon="5.95531">
        <ele>700</ele>
        <time>2019-03-16T14:16:56Z</time>
      </trkpt>
      <trkpt lat="44.30819" lon="5.95532">
        <ele>700</ele>
        <time>2019-03-16T14:16:57Z</time>
      </trkpt>
      <trkpt lat="44.30821" lon="5.95533">
        <ele>700</ele>
        <time>2019-03-16T14:16:58Z</time>
      </trkpt>
      <trkpt lat="44.30823" lon="5.95535">
        <ele>700</ele>
        <time>2019-03-16T14:16:59Z</time>
      </trkpt>
      <trkpt lat="44.30825" lon="5.95535">
        <ele>701</ele>
        <time>2019-03-16T14:17:00Z</time>
      </trkpt>
      <trkpt lat="44.30827" lon="5.95536">
        <ele>701</ele>
        <time>2019-03-16T14:17:01Z</time>
      </trkpt>
      <trkpt lat="44.30828" lon="5.95538">
        <ele>701</ele>
        <time>2019-03-16T14:17:02Z</time>
      </trkpt>
      <trkpt lat="44.3083" lon="5.95539">
        <ele>702</ele>
        <time>2019-03-16T14:17:03Z</time>
      </trkpt>
      <trkpt lat="44.30832" lon="5.9554">
        <ele>702</ele>
        <time>2019-03-16T14:17:04Z</time>
      </trkpt>
      <trkpt lat="44.30834" lon="5.95541">
        <ele>702</ele>
        <time>2019-03-16T14:17:05Z</time>
      </trkpt>
      <trkpt lat="44.30836" lon="5.95542">
        <ele>703</ele>
        <time>2019-03-16T14:17:06Z</time>
      </trkpt>
      <trkpt lat="44.30838" lon="5.95544">
        <ele>703</ele>
        <time>2019-03-16T14:17:07Z</time>
      </trkpt>
      <trkpt lat="44.30839" lon="5.95545">
        <ele>703</ele>
        <time>2019-03-16T14:17:08Z</time>
      </trkpt>
      <trkpt lat="44.30841" lon="5.95547">
        <ele>703</ele>
        <time>2019-03-16T14:17:09Z</time>
      </trkpt>
      <trkpt lat="44.30843" lon="5.95548">
        <ele>703</ele>
        <time>2019-03-16T14:17:10Z</time>
      </trkpt>
      <trkpt lat="44.30844" lon="5.9555">
        <ele>703</ele>
        <time>2019-03-16T14:17:11Z</time>
      </trkpt>
      <trkpt lat="44.30846" lon="5.95551">
        <ele>703</ele>
        <time>2019-03-16T14:17:12Z</time>
      </trkpt>
      <trkpt lat="44.30848" lon="5.95552">
        <ele>703</ele>
        <time>2019-03-16T14:17:13Z</time>
      </trkpt>
      <trkpt lat="44.3085" lon="5.95554">
        <ele>703</ele>
        <time>2019-03-16T14:17:14Z</time>
      </trkpt>
      <trkpt lat="44.30851" lon="5.95555">
        <ele>703</ele>
        <time>2019-03-16T14:17:15Z</time>
      </trkpt>
      <trkpt lat="44.30853" lon="5.95556">
        <ele>703</ele>
        <time>2019-03-16T14:17:16Z</time>
      </trkpt>
      <trkpt lat="44.30855" lon="5.95557">
        <ele>703</ele>
        <time>2019-03-16T14:17:17Z</time>
      </trkpt>
      <trkpt lat="44.30857" lon="5.95559">
        <ele>703</ele>
        <time>2019-03-16T14:17:18Z</time>
      </trkpt>
      <trkpt lat="44.30858" lon="5.9556">
        <ele>703</ele>
        <time>2019-03-16T14:17:19Z</time>
      </trkpt>
      <trkpt lat="44.3086" lon="5.95561">
        <ele>703</ele>
        <time>2019-03-16T14:17:20Z</time>
      </trkpt>
      <trkpt lat="44.30862" lon="5.95563">
        <ele>703</ele>
        <time>2019-03-16T14:17:21Z</time>
      </trkpt>
      <trkpt lat="44.30864" lon="5.95565">
        <ele>703</ele>
        <time>2019-03-16T14:17:22Z</time>
      </trkpt>
      <trkpt lat="44.30865" lon="5.95566">
        <ele>703</ele>
        <time>2019-03-16T14:17:23Z</time>
      </trkpt>
      <trkpt lat="44.30867" lon="5.95568">
        <ele>703</ele>
        <time>2019-03-16T14:17:24Z</time>
      </trkpt>
      <trkpt lat="44.30869" lon="5.9557">
        <ele>703</ele>
        <time>2019-03-16T14:17:25Z</time>
      </trkpt>
      <trkpt lat="44.3087" lon="5.95572">
        <ele>703</ele>
        <time>2019-03-16T14:17:26Z</time>
      </trkpt>
      <trkpt lat="44.30872" lon="5.95574">
        <ele>703</ele>
        <time>2019-03-16T14:17:27Z</time>
      </trkpt>
      <trkpt lat="44.30873" lon="5.95576">
        <ele>703</ele>
        <time>2019-03-16T14:17:28Z</time>
      </trkpt>
      <trkpt lat="44.30875" lon="5.95578">
        <ele>703</ele>
        <time>2019-03-16T14:17:29Z</time>
      </trkpt>
      <trkpt lat="44.30876" lon="5.95581">
        <ele>703</ele>
        <time>2019-03-16T14:17:30Z</time>
      </trkpt>
      <trkpt lat="44.30878" lon="5.95583">
        <ele>703</ele>
        <time>2019-03-16T14:17:31Z</time>
      </trkpt>
      <trkpt lat="44.30879" lon="5.95585">
        <ele>703</ele>
        <time>2019-03-16T14:17:32Z</time>
      </trkpt>
      <trkpt lat="44.3088" lon="5.95588">
        <ele>703</ele>
        <time>2019-03-16T14:17:33Z</time>
      </trkpt>
      <trkpt lat="44.30881" lon="5.9559">
        <ele>703</ele>
        <time>2019-03-16T14:17:34Z</time>
      </trkpt>
      <trkpt lat="44.30882" lon="5.95593">
        <ele>703</ele>
        <time>2019-03-16T14:17:35Z</time>
      </trkpt>
      <trkpt lat="44.30883" lon="5.95596">
        <ele>703</ele>
        <time>2019-03-16T14:17:36Z</time>
      </trkpt>
      <trkpt lat="44.30884" lon="5.95598">
        <ele>703</ele>
        <time>2019-03-16T14:17:37Z</time>
      </trkpt>
      <trkpt lat="44.30885" lon="5.95601">
        <ele>703</ele>
        <time>2019-03-16T14:17:38Z</time>
      </trkpt>
      <trkpt lat="44.30887" lon="5.95604">
        <ele>703</ele>
        <time>2019-03-16T14:17:39Z</time>
      </trkpt>
      <trkpt lat="44.30888" lon="5.95607">
        <ele>703</ele>
        <time>2019-03-16T14:17:40Z</time>
      </trkpt>
      <trkpt lat="44.30888" lon="5.9561">
        <ele>703</ele>
        <time>2019-03-16T14:17:41Z</time>
      </trkpt>
      <trkpt lat="44.30889" lon="5.95612">
        <ele>703</ele>
        <time>2019-03-16T14:17:42Z</time>
      </trkpt>
      <trkpt lat="44.3089" lon="5.95614">
        <ele>703</ele>
        <time>2019-03-16T14:17:43Z</time>
      </trkpt>
      <trkpt lat="44.30891" lon="5.95617">
        <ele>703</ele>
        <time>2019-03-16T14:17:44Z</time>
      </trkpt>
      <trkpt lat="44.30892" lon="5.9562">
        <ele>703</ele>
        <time>2019-03-16T14:17:45Z</time>
      </trkpt>
      <trkpt lat="44.30893" lon="5.95623">
        <ele>703</ele>
        <time>2019-03-16T14:17:46Z</time>
      </trkpt>
      <trkpt lat="44.30894" lon="5.95626">
        <ele>703</ele>
        <time>2019-03-16T14:17:47Z</time>
      </trkpt>
      <trkpt lat="44.30896" lon="5.95628">
        <ele>703</ele>
        <time>2019-03-16T14:17:48Z</time>
      </trkpt>
      <trkpt lat="44.30897" lon="5.95631">
        <ele>703</ele>
        <time>2019-03-16T14:17:49Z</time>
      </trkpt>
      <trkpt lat="44.30898" lon="5.95633">
        <ele>703</ele>
        <time>2019-03-16T14:17:50Z</time>
      </trkpt>
      <trkpt lat="44.30899" lon="5.95636">
        <ele>703</ele>
        <time>2019-03-16T14:17:51Z</time>
      </trkpt>
      <trkpt lat="44.309" lon="5.95638">
        <ele>703</ele>
        <time>2019-03-16T14:17:52Z</time>
      </trkpt>
      <trkpt lat="44.30902" lon="5.95641">
        <ele>703</ele>
        <time>2019-03-16T14:17:53Z</time>
      </trkpt>
      <trkpt lat="44.30904" lon="5.95644">
        <ele>703</ele>
        <time>2019-03-16T14:17:54Z</time>
      </trkpt>
      <trkpt lat="44.30905" lon="5.95646">
        <ele>703</ele>
        <time>2019-03-16T14:17:55Z</time>
      </trkpt>
      <trkpt lat="44.30907" lon="5.95649">
        <ele>703</ele>
        <time>2019-03-16T14:17:56Z</time>
      </trkpt>
      <trkpt lat="44.30909" lon="5.95652">
        <ele>704</ele>
        <time>2019-03-16T14:17:57Z</time>
      </trkpt>
      <trkpt lat="44.3091" lon="5.95654">
        <ele>705</ele>
        <time>2019-03-16T14:17:58Z</time>
      </trkpt>
      <trkpt lat="44.30912" lon="5.95657">
        <ele>705</ele>
        <time>2019-03-16T14:17:59Z</time>
      </trkpt>
      <trkpt lat="44.30914" lon="5.95659">
        <ele>706</ele>
        <time>2019-03-16T14:18:00Z</time>
      </trkpt>
      <trkpt lat="44.30916" lon="5.9566">
        <ele>706</ele>
        <time>2019-03-16T14:18:01Z</time>
      </trkpt>
      <trkpt lat="44.30919" lon="5.95661">
        <ele>707</ele>
        <time>2019-03-16T14:18:02Z</time>
      </trkpt>
      <trkpt lat="44.30921" lon="5.95662">
        <ele>707</ele>
        <time>2019-03-16T14:18:03Z</time>
      </trkpt>
      <trkpt lat="44.30923" lon="5.95662">
        <ele>707</ele>
        <time>2019-03-16T14:18:04Z</time>
      </trkpt>
      <trkpt lat="44.30925" lon="5.95663">
        <ele>708</ele>
        <time>2019-03-16T14:18:05Z</time>
      </trkpt>
      <trkpt lat="44.30928" lon="5.95663">
        <ele>708</ele>
        <time>2019-03-16T14:18:06Z</time>
      </trkpt>
      <trkpt lat="44.3093" lon="5.95662">
        <ele>708</ele>
        <time>2019-03-16T14:18:07Z</time>
      </trkpt>
      <trkpt lat="44.30932" lon="5.9566">
        <ele>708</ele>
        <time>2019-03-16T14:18:08Z</time>
      </trkpt>
      <trkpt lat="44.30935" lon="5.95659">
        <ele>708</ele>
        <time>2019-03-16T14:18:09Z</time>
      </trkpt>
      <trkpt lat="44.30936" lon="5.95657">
        <ele>708</ele>
        <time>2019-03-16T14:18:10Z</time>
      </trkpt>
      <trkpt lat="44.30938" lon="5.95655">
        <ele>708</ele>
        <time>2019-03-16T14:18:11Z</time>
      </trkpt>
      <trkpt lat="44.30941" lon="5.95653">
        <ele>708</ele>
        <time>2019-03-16T14:18:12Z</time>
      </trkpt>
      <trkpt lat="44.30943" lon="5.95651">
        <ele>708</ele>
        <time>2019-03-16T14:18:13Z</time>
      </trkpt>
      <trkpt lat="44.30944" lon="5.95649">
        <ele>708</ele>
        <time>2019-03-16T14:18:14Z</time>
      </trkpt>
      <trkpt lat="44.30946" lon="5.95648">
        <ele>708</ele>
        <time>2019-03-16T14:18:15Z</time>
      </trkpt>
      <trkpt lat="44.30948" lon="5.95646">
        <ele>708</ele>
        <time>2019-03-16T14:18:16Z</time>
      </trkpt>
      <trkpt lat="44.3095" lon="5.95644">
        <ele>708</ele>
        <time>2019-03-16T14:18:17Z</time>
      </trkpt>
      <trkpt lat="44.30952" lon="5.95642">
        <ele>708</ele>
        <time>2019-03-16T14:18:18Z</time>
      </trkpt>
      <trkpt lat="44.30954" lon="5.9564">
        <ele>708</ele>
        <time>2019-03-16T14:18:19Z</time>
      </trkpt>
      <trkpt lat="44.30956" lon="5.95638">
        <ele>708</ele>
        <time>2019-03-16T14:18:20Z</time>
      </trkpt>
      <trkpt lat="44.30958" lon="5.95637">
        <ele>708</ele>
        <time>2019-03-16T14:18:21Z</time>
      </trkpt>
      <trkpt lat="44.3096" lon="5.95635">
        <ele>708</ele>
        <time>2019-03-16T14:18:22Z</time>
      </trkpt>
      <trkpt lat="44.30962" lon="5.95634">
        <ele>708</ele>
        <time>2019-03-16T14:18:23Z</time>
      </trkpt>
      <trkpt lat="44.30965" lon="5.95632">
        <ele>708</ele>
        <time>2019-03-16T14:18:24Z</time>
      </trkpt>
      <trkpt lat="44.30967" lon="5.95631">
        <ele>708</ele>
        <time>2019-03-16T14:18:25Z</time>
      </trkpt>
      <trkpt lat="44.30969" lon="5.95629">
        <ele>708</ele>
        <time>2019-03-16T14:18:26Z</time>
      </trkpt>
      <trkpt lat="44.30971" lon="5.95627">
        <ele>708</ele>
        <time>2019-03-16T14:18:27Z</time>
      </trkpt>
      <trkpt lat="44.30973" lon="5.95626">
        <ele>709</ele>
        <time>2019-03-16T14:18:28Z</time>
      </trkpt>
      <trkpt lat="44.30976" lon="5.95625">
        <ele>709</ele>
        <time>2019-03-16T14:18:29Z</time>
      </trkpt>
      <trkpt lat="44.30978" lon="5.95624">
        <ele>709</ele>
        <time>2019-03-16T14:18:30Z</time>
      </trkpt>
      <trkpt lat="44.3098" lon="5.95623">
        <ele>709</ele>
        <time>2019-03-16T14:18:31Z</time>
      </trkpt>
      <trkpt lat="44.30982" lon="5.95622">
        <ele>709</ele>
        <time>2019-03-16T14:18:32Z</time>
      </trkpt>
      <trkpt lat="44.30984" lon="5.95621">
        <ele>709</ele>
        <time>2019-03-16T14:18:33Z</time>
      </trkpt>
      <trkpt lat="44.30987" lon="5.9562">
        <ele>709</ele>
        <time>2019-03-16T14:18:34Z</time>
      </trkpt>
      <trkpt lat="44.30989" lon="5.95619">
        <ele>709</ele>
        <time>2019-03-16T14:18:35Z</time>
      </trkpt>
      <trkpt lat="44.30991" lon="5.95618">
        <ele>710</ele>
        <time>2019-03-16T14:18:36Z</time>
      </trkpt>
      <trkpt lat="44.30993" lon="5.95617">
        <ele>710</ele>
        <time>2019-03-16T14:18:37Z</time>
      </trkpt>
      <trkpt lat="44.30995" lon="5.95616">
        <ele>710</ele>
        <time>2019-03-16T14:18:38Z</time>
      </trkpt>
      <trkpt lat="44.30997" lon="5.95615">
        <ele>710</ele>
        <time>2019-03-16T14:18:39Z</time>
      </trkpt>
      <trkpt lat="44.30999" lon="5.95614">
        <ele>710</ele>
        <time>2019-03-16T14:18:40Z</time>
      </trkpt>
      <trkpt lat="44.31002" lon="5.95614">
        <ele>711</ele>
        <time>2019-03-16T14:18:41Z</time>
      </trkpt>
      <trkpt lat="44.31004" lon="5.95613">
        <ele>711</ele>
        <time>2019-03-16T14:18:42Z</time>
      </trkpt>
      <trkpt lat="44.31005" lon="5.95612">
        <ele>711</ele>
        <time>2019-03-16T14:18:43Z</time>
      </trkpt>
      <trkpt lat="44.31007" lon="5.95611">
        <ele>711</ele>
        <time>2019-03-16T14:18:44Z</time>
      </trkpt>
      <trkpt lat="44.3101" lon="5.9561">
        <ele>712</ele>
        <time>2019-03-16T14:18:45Z</time>
      </trkpt>
      <trkpt lat="44.31012" lon="5.9561">
        <ele>712</ele>
        <time>2019-03-16T14:18:46Z</time>
      </trkpt>
      <trkpt lat="44.31014" lon="5.95609">
        <ele>712</ele>
        <time>2019-03-16T14:18:47Z</time>
      </trkpt>
      <trkpt lat="44.31016" lon="5.95608">
        <ele>712</ele>
        <time>2019-03-16T14:18:48Z</time>
      </trkpt>
      <trkpt lat="44.31018" lon="5.95607">
        <ele>712</ele>
        <time>2019-03-16T14:18:49Z</time>
      </trkpt>
      <trkpt lat="44.3102" lon="5.95606">
        <ele>712</ele>
        <time>2019-03-16T14:18:50Z</time>
      </trkpt>
      <trkpt lat="44.31023" lon="5.95605">
        <ele>713</ele>
        <time>2019-03-16T14:18:51Z</time>
      </trkpt>
      <trkpt lat="44.31025" lon="5.95605">
        <ele>713</ele>
        <time>2019-03-16T14:18:52Z</time>
      </trkpt>
      <trkpt lat="44.31027" lon="5.95604">
        <ele>713</ele>
        <time>2019-03-16T14:18:53Z</time>
      </trkpt>
      <trkpt lat="44.31029" lon="5.95603">
        <ele>713</ele>
        <time>2019-03-16T14:18:54Z</time>
      </trkpt>
      <trkpt lat="44.31031" lon="5.95603">
        <ele>714</ele>
        <time>2019-03-16T14:18:55Z</time>
      </trkpt>
      <trkpt lat="44.31033" lon="5.95602">
        <ele>714</ele>
        <time>2019-03-16T14:18:56Z</time>
      </trkpt>
      <trkpt lat="44.31035" lon="5.95601">
        <ele>714</ele>
        <time>2019-03-16T14:18:57Z</time>
      </trkpt>
      <trkpt lat="44.31037" lon="5.956">
        <ele>714</ele>
        <time>2019-03-16T14:18:58Z</time>
      </trkpt>
      <trkpt lat="44.31039" lon="5.956">
        <ele>714</ele>
        <time>2019-03-16T14:18:59Z</time>
      </trkpt>
      <trkpt lat="44.31041" lon="5.95599">
        <ele>714</ele>
        <time>2019-03-16T14:19:00Z</time>
      </trkpt>
      <trkpt lat="44.31043" lon="5.95599">
        <ele>714</ele>
        <time>2019-03-16T14:19:01Z</time>
      </trkpt>
      <trkpt lat="44.31045" lon="5.95599">
        <ele>714</ele>
        <time>2019-03-16T14:19:02Z</time>
      </trkpt>
      <trkpt lat="44.31047" lon="5.956">
        <ele>714</ele>
        <time>2019-03-16T14:19:03Z</time>
      </trkpt>
      <trkpt lat="44.31048" lon="5.956">
        <ele>714</ele>
        <time>2019-03-16T14:19:04Z</time>
      </trkpt>
      <trkpt lat="44.3105" lon="5.956">
        <ele>714</ele>
        <time>2019-03-16T14:19:05Z</time>
      </trkpt>
      <trkpt lat="44.31052" lon="5.956">
        <ele>714</ele>
        <time>2019-03-16T14:19:06Z</time>
      </trkpt>
      <trkpt lat="44.31054" lon="5.95599">
        <ele>714</ele>
        <time>2019-03-16T14:19:07Z</time>
      </trkpt>
      <trkpt lat="44.31055" lon="5.95599">
        <ele>714</ele>
        <time>2019-03-16T14:19:08Z</time>
      </trkpt>
      <trkpt lat="44.31057" lon="5.95598">
        <ele>714</ele>
        <time>2019-03-16T14:19:09Z</time>
      </trkpt>
      <trkpt lat="44.3106" lon="5.95598">
        <ele>714</ele>
        <time>2019-03-16T14:19:10Z</time>
      </trkpt>
      <trkpt lat="44.31062" lon="5.95597">
        <ele>714</ele>
        <time>2019-03-16T14:19:11Z</time>
      </trkpt>
      <trkpt lat="44.31064" lon="5.95597">
        <ele>714</ele>
        <time>2019-03-16T14:19:12Z</time>
      </trkpt>
      <trkpt lat="44.31066" lon="5.95596">
        <ele>714</ele>
        <time>2019-03-16T14:19:13Z</time>
      </trkpt>
      <trkpt lat="44.31068" lon="5.95595">
        <ele>714</ele>
        <time>2019-03-16T14:19:14Z</time>
      </trkpt>
      <trkpt lat="44.3107" lon="5.95594">
        <ele>714</ele>
        <time>2019-03-16T14:19:15Z</time>
      </trkpt>
      <trkpt lat="44.31072" lon="5.95592">
        <ele>714</ele>
        <time>2019-03-16T14:19:16Z</time>
      </trkpt>
      <trkpt lat="44.31074" lon="5.95591">
        <ele>714</ele>
        <time>2019-03-16T14:19:17Z</time>
      </trkpt>
      <trkpt lat="44.31076" lon="5.95589">
        <ele>714</ele>
        <time>2019-03-16T14:19:18Z</time>
      </trkpt>
      <trkpt lat="44.31079" lon="5.95588">
        <ele>714</ele>
        <time>2019-03-16T14:19:19Z</time>
      </trkpt>
      <trkpt lat="44.31081" lon="5.95586">
        <ele>714</ele>
        <time>2019-03-16T14:19:20Z</time>
      </trkpt>
      <trkpt lat="44.31083" lon="5.95584">
        <ele>714</ele>
        <time>2019-03-16T14:19:21Z</time>
      </trkpt>
      <trkpt lat="44.31084" lon="5.95581">
        <ele>715</ele>
        <time>2019-03-16T14:19:22Z</time>
      </trkpt>
      <trkpt lat="44.31086" lon="5.95579">
        <ele>715</ele>
        <time>2019-03-16T14:19:23Z</time>
      </trkpt>
      <trkpt lat="44.31088" lon="5.95577">
        <ele>716</ele>
        <time>2019-03-16T14:19:24Z</time>
      </trkpt>
      <trkpt lat="44.31089" lon="5.95575">
        <ele>716</ele>
        <time>2019-03-16T14:19:25Z</time>
      </trkpt>
      <trkpt lat="44.31091" lon="5.95573">
        <ele>717</ele>
        <time>2019-03-16T14:19:26Z</time>
      </trkpt>
      <trkpt lat="44.31093" lon="5.95571">
        <ele>717</ele>
        <time>2019-03-16T14:19:27Z</time>
      </trkpt>
      <trkpt lat="44.31095" lon="5.95569">
        <ele>717</ele>
        <time>2019-03-16T14:19:28Z</time>
      </trkpt>
      <trkpt lat="44.31097" lon="5.95568">
        <ele>717</ele>
        <time>2019-03-16T14:19:29Z</time>
      </trkpt>
      <trkpt lat="44.31099" lon="5.95567">
        <ele>718</ele>
        <time>2019-03-16T14:19:30Z</time>
      </trkpt>
      <trkpt lat="44.31101" lon="5.95566">
        <ele>718</ele>
        <time>2019-03-16T14:19:31Z</time>
      </trkpt>
      <trkpt lat="44.31103" lon="5.95565">
        <ele>718</ele>
        <time>2019-03-16T14:19:32Z</time>
      </trkpt>
      <trkpt lat="44.31105" lon="5.95564">
        <ele>718</ele>
        <time>2019-03-16T14:19:33Z</time>
      </trkpt>
      <trkpt lat="44.31107" lon="5.95562">
        <ele>719</ele>
        <time>2019-03-16T14:19:34Z</time>
      </trkpt>
      <trkpt lat="44.3111" lon="5.95561">
        <ele>719</ele>
        <time>2019-03-16T14:19:35Z</time>
      </trkpt>
      <trkpt lat="44.31112" lon="5.95561">
        <ele>719</ele>
        <time>2019-03-16T14:19:36Z</time>
      </trkpt>
      <trkpt lat="44.31115" lon="5.9556">
        <ele>719</ele>
        <time>2019-03-16T14:19:37Z</time>
      </trkpt>
      <trkpt lat="44.31117" lon="5.95559">
        <ele>719</ele>
        <time>2019-03-16T14:19:38Z</time>
      </trkpt>
      <trkpt lat="44.31119" lon="5.95558">
        <ele>719</ele>
        <time>2019-03-16T14:19:39Z</time>
      </trkpt>
      <trkpt lat="44.31121" lon="5.95557">
        <ele>719</ele>
        <time>2019-03-16T14:19:40Z</time>
      </trkpt>
      <trkpt lat="44.31123" lon="5.95557">
        <ele>719</ele>
        <time>2019-03-16T14:19:41Z</time>
      </trkpt>
      <trkpt lat="44.31126" lon="5.95556">
        <ele>719</ele>
        <time>2019-03-16T14:19:42Z</time>
      </trkpt>
      <trkpt lat="44.31128" lon="5.95555">
        <ele>720</ele>
        <time>2019-03-16T14:19:43Z</time>
      </trkpt>
      <trkpt lat="44.3113" lon="5.95554">
        <ele>720</ele>
        <time>2019-03-16T14:19:44Z</time>
      </trkpt>
      <trkpt lat="44.31133" lon="5.95553">
        <ele>720</ele>
        <time>2019-03-16T14:19:45Z</time>
      </trkpt>
      <trkpt lat="44.31135" lon="5.95553">
        <ele>720</ele>
        <time>2019-03-16T14:19:46Z</time>
      </trkpt>
      <trkpt lat="44.31137" lon="5.95552">
        <ele>720</ele>
        <time>2019-03-16T14:19:47Z</time>
      </trkpt>
      <trkpt lat="44.3114" lon="5.95551">
        <ele>720</ele>
        <time>2019-03-16T14:19:48Z</time>
      </trkpt>
      <trkpt lat="44.31142" lon="5.95551">
        <ele>720</ele>
        <time>2019-03-16T14:19:49Z</time>
      </trkpt>
      <trkpt lat="44.31144" lon="5.9555">
        <ele>720</ele>
        <time>2019-03-16T14:19:50Z</time>
      </trkpt>
      <trkpt lat="44.31147" lon="5.95549">
        <ele>720</ele>
        <time>2019-03-16T14:19:51Z</time>
      </trkpt>
      <trkpt lat="44.31149" lon="5.95549">
        <ele>720</ele>
        <time>2019-03-16T14:19:52Z</time>
      </trkpt>
      <trkpt lat="44.31151" lon="5.95548">
        <ele>720</ele>
        <time>2019-03-16T14:19:53Z</time>
      </trkpt>
      <trkpt lat="44.31153" lon="5.95548">
        <ele>720</ele>
        <time>2019-03-16T14:19:54Z</time>
      </trkpt>
      <trkpt lat="44.31155" lon="5.95548">
        <ele>720</ele>
        <time>2019-03-16T14:19:55Z</time>
      </trkpt>
      <trkpt lat="44.31157" lon="5.95548">
        <ele>720</ele>
        <time>2019-03-16T14:19:56Z</time>
      </trkpt>
      <trkpt lat="44.31159" lon="5.95547">
        <ele>720</ele>
        <time>2019-03-16T14:19:57Z</time>
      </trkpt>
      <trkpt lat="44.31161" lon="5.95546">
        <ele>720</ele>
        <time>2019-03-16T14:19:58Z</time>
      </trkpt>
      <trkpt lat="44.31163" lon="5.95546">
        <ele>720</ele>
        <time>2019-03-16T14:19:59Z</time>
      </trkpt>
      <trkpt lat="44.31165" lon="5.95546">
        <ele>720</ele>
        <time>2019-03-16T14:20:00Z</time>
      </trkpt>
      <trkpt lat="44.31168" lon="5.95545">
        <ele>720</ele>
        <time>2019-03-16T14:20:01Z</time>
      </trkpt>
      <trkpt lat="44.3117" lon="5.95544">
        <ele>720</ele>
        <time>2019-03-16T14:20:02Z</time>
      </trkpt>
      <trkpt lat="44.31172" lon="5.95544">
        <ele>720</ele>
        <time>2019-03-16T14:20:03Z</time>
      </trkpt>
      <trkpt lat="44.31174" lon="5.95543">
        <ele>720</ele>
        <time>2019-03-16T14:20:04Z</time>
      </trkpt>
      <trkpt lat="44.31176" lon="5.95543">
        <ele>720</ele>
        <time>2019-03-16T14:20:05Z</time>
      </trkpt>
      <trkpt lat="44.31179" lon="5.95542">
        <ele>720</ele>
        <time>2019-03-16T14:20:06Z</time>
      </trkpt>
      <trkpt lat="44.31181" lon="5.95541">
        <ele>720</ele>
        <time>2019-03-16T14:20:07Z</time>
      </trkpt>
      <trkpt lat="44.31183" lon="5.9554">
        <ele>720</ele>
        <time>2019-03-16T14:20:08Z</time>
      </trkpt>
      <trkpt lat="44.31185" lon="5.95539">
        <ele>720</ele>
        <time>2019-03-16T14:20:09Z</time>
      </trkpt>
      <trkpt lat="44.31187" lon="5.95539">
        <ele>720</ele>
        <time>2019-03-16T14:20:10Z</time>
      </trkpt>
      <trkpt lat="44.31189" lon="5.95538">
        <ele>721</ele>
        <time>2019-03-16T14:20:11Z</time>
      </trkpt>
      <trkpt lat="44.31191" lon="5.95538">
        <ele>721</ele>
        <time>2019-03-16T14:20:12Z</time>
      </trkpt>
      <trkpt lat="44.31193" lon="5.95537">
        <ele>721</ele>
        <time>2019-03-16T14:20:13Z</time>
      </trkpt>
      <trkpt lat="44.31195" lon="5.95537">
        <ele>721</ele>
        <time>2019-03-16T14:20:14Z</time>
      </trkpt>
      <trkpt lat="44.31198" lon="5.95537">
        <ele>721</ele>
        <time>2019-03-16T14:20:15Z</time>
      </trkpt>
      <trkpt lat="44.312" lon="5.95537">
        <ele>722</ele>
        <time>2019-03-16T14:20:16Z</time>
      </trkpt>
      <trkpt lat="44.31202" lon="5.95537">
        <ele>722</ele>
        <time>2019-03-16T14:20:17Z</time>
      </trkpt>
      <trkpt lat="44.31204" lon="5.95536">
        <ele>722</ele>
        <time>2019-03-16T14:20:18Z</time>
      </trkpt>
      <trkpt lat="44.31206" lon="5.95535">
        <ele>722</ele>
        <time>2019-03-16T14:20:19Z</time>
      </trkpt>
      <trkpt lat="44.31208" lon="5.95534">
        <ele>722</ele>
        <time>2019-03-16T14:20:20Z</time>
      </trkpt>
      <trkpt lat="44.31211" lon="5.95534">
        <ele>722</ele>
        <time>2019-03-16T14:20:21Z</time>
      </trkpt>
      <trkpt lat="44.31213" lon="5.95534">
        <ele>722</ele>
        <time>2019-03-16T14:20:22Z</time>
      </trkpt>
      <trkpt lat="44.31215" lon="5.95534">
        <ele>723</ele>
        <time>2019-03-16T14:20:23Z</time>
      </trkpt>
      <trkpt lat="44.31218" lon="5.95534">
        <ele>723</ele>
        <time>2019-03-16T14:20:24Z</time>
      </trkpt>
      <trkpt lat="44.3122" lon="5.95534">
        <ele>723</ele>
        <time>2019-03-16T14:20:25Z</time>
      </trkpt>
      <trkpt lat="44.31222" lon="5.95534">
        <ele>723</ele>
        <time>2019-03-16T14:20:26Z</time>
      </trkpt>
      <trkpt lat="44.31224" lon="5.95534">
        <ele>723</ele>
        <time>2019-03-16T14:20:27Z</time>
      </trkpt>
      <trkpt lat="44.31227" lon="5.95535">
        <ele>723</ele>
        <time>2019-03-16T14:20:28Z</time>
      </trkpt>
      <trkpt lat="44.31229" lon="5.95535">
        <ele>724</ele>
        <time>2019-03-16T14:20:29Z</time>
      </trkpt>
      <trkpt lat="44.31231" lon="5.95535">
        <ele>724</ele>
        <time>2019-03-16T14:20:30Z</time>
      </trkpt>
      <trkpt lat="44.31234" lon="5.95535">
        <ele>724</ele>
        <time>2019-03-16T14:20:31Z</time>
      </trkpt>
      <trkpt lat="44.31236" lon="5.95535">
        <ele>724</ele>
        <time>2019-03-16T14:20:32Z</time>
      </trkpt>
      <trkpt lat="44.31238" lon="5.95535">
        <ele>724</ele>
        <time>2019-03-16T14:20:33Z</time>
      </trkpt>
      <trkpt lat="44.3124" lon="5.95536">
        <ele>724</ele>
        <time>2019-03-16T14:20:34Z</time>
      </trkpt>
      <trkpt lat="44.31243" lon="5.95536">
        <ele>725</ele>
        <time>2019-03-16T14:20:35Z</time>
      </trkpt>
      <trkpt lat="44.31245" lon="5.95536">
        <ele>725</ele>
        <time>2019-03-16T14:20:36Z</time>
      </trkpt>
      <trkpt lat="44.31247" lon="5.95537">
        <ele>725</ele>
        <time>2019-03-16T14:20:37Z</time>
      </trkpt>
      <trkpt lat="44.3125" lon="5.95537">
        <ele>725</ele>
        <time>2019-03-16T14:20:38Z</time>
      </trkpt>
      <trkpt lat="44.31252" lon="5.95538">
        <ele>725</ele>
        <time>2019-03-16T14:20:39Z</time>
      </trkpt>
      <trkpt lat="44.31254" lon="5.95539">
        <ele>726</ele>
        <time>2019-03-16T14:20:40Z</time>
      </trkpt>
      <trkpt lat="44.31256" lon="5.95539">
        <ele>726</ele>
        <time>2019-03-16T14:20:41Z</time>
      </trkpt>
      <trkpt lat="44.31258" lon="5.9554">
        <ele>726</ele>
        <time>2019-03-16T14:20:42Z</time>
      </trkpt>
      <trkpt lat="44.31261" lon="5.95541">
        <ele>726</ele>
        <time>2019-03-16T14:20:43Z</time>
      </trkpt>
      <trkpt lat="44.31263" lon="5.95541">
        <ele>727</ele>
        <time>2019-03-16T14:20:44Z</time>
      </trkpt>
      <trkpt lat="44.31265" lon="5.95542">
        <ele>727</ele>
        <time>2019-03-16T14:20:45Z</time>
      </trkpt>
      <trkpt lat="44.31268" lon="5.95543">
        <ele>727</ele>
        <time>2019-03-16T14:20:46Z</time>
      </trkpt>
      <trkpt lat="44.3127" lon="5.95544">
        <ele>727</ele>
        <time>2019-03-16T14:20:47Z</time>
      </trkpt>
      <trkpt lat="44.31272" lon="5.95545">
        <ele>727</ele>
        <time>2019-03-16T14:20:48Z</time>
      </trkpt>
      <trkpt lat="44.31274" lon="5.95547">
        <ele>728</ele>
        <time>2019-03-16T14:20:49Z</time>
      </trkpt>
      <trkpt lat="44.31276" lon="5.95548">
        <ele>728</ele>
        <time>2019-03-16T14:20:50Z</time>
      </trkpt>
      <trkpt lat="44.31278" lon="5.95549">
        <ele>728</ele>
        <time>2019-03-16T14:20:51Z</time>
      </trkpt>
      <trkpt lat="44.31279" lon="5.95551">
        <ele>729</ele>
        <time>2019-03-16T14:20:52Z</time>
      </trkpt>
      <trkpt lat="44.31282" lon="5.95552">
        <ele>729</ele>
        <time>2019-03-16T14:20:53Z</time>
      </trkpt>
      <trkpt lat="44.31284" lon="5.95553">
        <ele>729</ele>
        <time>2019-03-16T14:20:54Z</time>
      </trkpt>
      <trkpt lat="44.31286" lon="5.95555">
        <ele>730</ele>
        <time>2019-03-16T14:20:55Z</time>
      </trkpt>
      <trkpt lat="44.31288" lon="5.95556">
        <ele>730</ele>
        <time>2019-03-16T14:20:56Z</time>
      </trkpt>
      <trkpt lat="44.3129" lon="5.95557">
        <ele>730</ele>
        <time>2019-03-16T14:20:57Z</time>
      </trkpt>
      <trkpt lat="44.31292" lon="5.95559">
        <ele>730</ele>
        <time>2019-03-16T14:20:58Z</time>
      </trkpt>
      <trkpt lat="44.31294" lon="5.9556">
        <ele>731</ele>
        <time>2019-03-16T14:20:59Z</time>
      </trkpt>
      <trkpt lat="44.31296" lon="5.95561">
        <ele>731</ele>
        <time>2019-03-16T14:21:00Z</time>
      </trkpt>
      <trkpt lat="44.31298" lon="5.95562">
        <ele>731</ele>
        <time>2019-03-16T14:21:01Z</time>
      </trkpt>
      <trkpt lat="44.313" lon="5.95564">
        <ele>731</ele>
        <time>2019-03-16T14:21:02Z</time>
      </trkpt>
      <trkpt lat="44.31302" lon="5.95565">
        <ele>731</ele>
        <time>2019-03-16T14:21:03Z</time>
      </trkpt>
      <trkpt lat="44.31304" lon="5.95567">
        <ele>732</ele>
        <time>2019-03-16T14:21:04Z</time>
      </trkpt>
      <trkpt lat="44.31306" lon="5.95569">
        <ele>732</ele>
        <time>2019-03-16T14:21:05Z</time>
      </trkpt>
      <trkpt lat="44.31308" lon="5.95571">
        <ele>732</ele>
        <time>2019-03-16T14:21:06Z</time>
      </trkpt>
      <trkpt lat="44.3131" lon="5.95572">
        <ele>732</ele>
        <time>2019-03-16T14:21:07Z</time>
      </trkpt>
      <trkpt lat="44.31312" lon="5.95574">
        <ele>732</ele>
        <time>2019-03-16T14:21:08Z</time>
      </trkpt>
      <trkpt lat="44.31313" lon="5.95576">
        <ele>732</ele>
        <time>2019-03-16T14:21:09Z</time>
      </trkpt>
      <trkpt lat="44.31315" lon="5.95578">
        <ele>733</ele>
        <time>2019-03-16T14:21:10Z</time>
      </trkpt>
      <trkpt lat="44.31317" lon="5.9558">
        <ele>733</ele>
        <time>2019-03-16T14:21:11Z</time>
      </trkpt>
      <trkpt lat="44.31319" lon="5.95581">
        <ele>733</ele>
        <time>2019-03-16T14:21:12Z</time>
      </trkpt>
      <trkpt lat="44.31321" lon="5.95583">
        <ele>733</ele>
        <time>2019-03-16T14:21:13Z</time>
      </trkpt>
      <trkpt lat="44.31323" lon="5.95585">
        <ele>733</ele>
        <time>2019-03-16T14:21:14Z</time>
      </trkpt>
      <trkpt lat="44.31325" lon="5.95586">
        <ele>733</ele>
        <time>2019-03-16T14:21:15Z</time>
      </trkpt>
      <trkpt lat="44.31327" lon="5.95588">
        <ele>733</ele>
        <time>2019-03-16T14:21:16Z</time>
      </trkpt>
      <trkpt lat="44.31329" lon="5.95589">
        <ele>733</ele>
        <time>2019-03-16T14:21:17Z</time>
      </trkpt>
      <trkpt lat="44.31331" lon="5.95592">
        <ele>733</ele>
        <time>2019-03-16T14:21:18Z</time>
      </trkpt>
      <trkpt lat="44.31332" lon="5.95594">
        <ele>733</ele>
        <time>2019-03-16T14:21:19Z</time>
      </trkpt>
      <trkpt lat="44.31334" lon="5.95596">
        <ele>733</ele>
        <time>2019-03-16T14:21:20Z</time>
      </trkpt>
      <trkpt lat="44.31336" lon="5.95598">
        <ele>733</ele>
        <time>2019-03-16T14:21:21Z</time>
      </trkpt>
      <trkpt lat="44.31338" lon="5.95599">
        <ele>734</ele>
        <time>2019-03-16T14:21:22Z</time>
      </trkpt>
      <trkpt lat="44.3134" lon="5.95601">
        <ele>734</ele>
        <time>2019-03-16T14:21:23Z</time>
      </trkpt>
      <trkpt lat="44.31342" lon="5.95603">
        <ele>734</ele>
        <time>2019-03-16T14:21:24Z</time>
      </trkpt>
      <trkpt lat="44.31344" lon="5.95606">
        <ele>734</ele>
        <time>2019-03-16T14:21:25Z</time>
      </trkpt>
      <trkpt lat="44.31345" lon="5.95608">
        <ele>734</ele>
        <time>2019-03-16T14:21:26Z</time>
      </trkpt>
      <trkpt lat="44.31347" lon="5.9561">
        <ele>734</ele>
        <time>2019-03-16T14:21:27Z</time>
      </trkpt>
      <trkpt lat="44.31348" lon="5.95613">
        <ele>734</ele>
        <time>2019-03-16T14:21:28Z</time>
      </trkpt>
      <trkpt lat="44.3135" lon="5.95615">
        <ele>735</ele>
        <time>2019-03-16T14:21:29Z</time>
      </trkpt>
      <trkpt lat="44.31352" lon="5.95617">
        <ele>735</ele>
        <time>2019-03-16T14:21:30Z</time>
      </trkpt>
      <trkpt lat="44.31353" lon="5.9562">
        <ele>735</ele>
        <time>2019-03-16T14:21:31Z</time>
      </trkpt>
      <trkpt lat="44.31355" lon="5.95622">
        <ele>735</ele>
        <time>2019-03-16T14:21:32Z</time>
      </trkpt>
      <trkpt lat="44.31356" lon="5.95624">
        <ele>735</ele>
        <time>2019-03-16T14:21:33Z</time>
      </trkpt>
      <trkpt lat="44.31358" lon="5.95627">
        <ele>735</ele>
        <time>2019-03-16T14:21:34Z</time>
      </trkpt>
      <trkpt lat="44.31359" lon="5.95629">
        <ele>735</ele>
        <time>2019-03-16T14:21:35Z</time>
      </trkpt>
      <trkpt lat="44.3136" lon="5.95632">
        <ele>736</ele>
        <time>2019-03-16T14:21:36Z</time>
      </trkpt>
      <trkpt lat="44.31361" lon="5.95634">
        <ele>736</ele>
        <time>2019-03-16T14:21:37Z</time>
      </trkpt>
      <trkpt lat="44.31363" lon="5.95637">
        <ele>736</ele>
        <time>2019-03-16T14:21:38Z</time>
      </trkpt>
      <trkpt lat="44.31364" lon="5.95639">
        <ele>736</ele>
        <time>2019-03-16T14:21:39Z</time>
      </trkpt>
      <trkpt lat="44.31365" lon="5.95641">
        <ele>736</ele>
        <time>2019-03-16T14:21:40Z</time>
      </trkpt>
      <trkpt lat="44.31366" lon="5.95644">
        <ele>736</ele>
        <time>2019-03-16T14:21:41Z</time>
      </trkpt>
      <trkpt lat="44.31367" lon="5.95646">
        <ele>736</ele>
        <time>2019-03-16T14:21:42Z</time>
      </trkpt>
      <trkpt lat="44.31368" lon="5.95649">
        <ele>736</ele>
        <time>2019-03-16T14:21:43Z</time>
      </trkpt>
      <trkpt lat="44.31369" lon="5.95652">
        <ele>736</ele>
        <time>2019-03-16T14:21:44Z</time>
      </trkpt>
      <trkpt lat="44.3137" lon="5.95655">
        <ele>736</ele>
        <time>2019-03-16T14:21:45Z</time>
      </trkpt>
      <trkpt lat="44.31371" lon="5.95657">
        <ele>736</ele>
        <time>2019-03-16T14:21:46Z</time>
      </trkpt>
      <trkpt lat="44.31371" lon="5.9566">
        <ele>736</ele>
        <time>2019-03-16T14:21:47Z</time>
      </trkpt>
      <trkpt lat="44.31372" lon="5.95663">
        <ele>736</ele>
        <time>2019-03-16T14:21:48Z</time>
      </trkpt>
      <trkpt lat="44.31372" lon="5.95666">
        <ele>736</ele>
        <time>2019-03-16T14:21:49Z</time>
      </trkpt>
      <trkpt lat="44.31373" lon="5.95669">
        <ele>736</ele>
        <time>2019-03-16T14:21:50Z</time>
      </trkpt>
      <trkpt lat="44.31374" lon="5.95672">
        <ele>736</ele>
        <time>2019-03-16T14:21:51Z</time>
      </trkpt>
      <trkpt lat="44.31374" lon="5.95676">
        <ele>736</ele>
        <time>2019-03-16T14:21:52Z</time>
      </trkpt>
      <trkpt lat="44.31375" lon="5.95679">
        <ele>736</ele>
        <time>2019-03-16T14:21:53Z</time>
      </trkpt>
      <trkpt lat="44.31376" lon="5.95681">
        <ele>736</ele>
        <time>2019-03-16T14:21:54Z</time>
      </trkpt>
      <trkpt lat="44.31377" lon="5.95684">
        <ele>736</ele>
        <time>2019-03-16T14:21:55Z</time>
      </trkpt>
      <trkpt lat="44.31378" lon="5.95687">
        <ele>737</ele>
        <time>2019-03-16T14:21:56Z</time>
      </trkpt>
      <trkpt lat="44.31379" lon="5.9569">
        <ele>737</ele>
        <time>2019-03-16T14:21:57Z</time>
      </trkpt>
      <trkpt lat="44.31379" lon="5.95693">
        <ele>737</ele>
        <time>2019-03-16T14:21:58Z</time>
      </trkpt>
      <trkpt lat="44.3138" lon="5.95696">
        <ele>738</ele>
        <time>2019-03-16T14:21:59Z</time>
      </trkpt>
      <trkpt lat="44.3138" lon="5.95699">
        <ele>738</ele>
        <time>2019-03-16T14:22:00Z</time>
      </trkpt>
      <trkpt lat="44.31381" lon="5.95702">
        <ele>738</ele>
        <time>2019-03-16T14:22:01Z</time>
      </trkpt>
      <trkpt lat="44.31381" lon="5.95704">
        <ele>738</ele>
        <time>2019-03-16T14:22:02Z</time>
      </trkpt>
      <trkpt lat="44.31382" lon="5.95707">
        <ele>739</ele>
        <time>2019-03-16T14:22:03Z</time>
      </trkpt>
      <trkpt lat="44.31382" lon="5.9571">
        <ele>739</ele>
        <time>2019-03-16T14:22:04Z</time>
      </trkpt>
      <trkpt lat="44.31383" lon="5.95713">
        <ele>739</ele>
        <time>2019-03-16T14:22:05Z</time>
      </trkpt>
      <trkpt lat="44.31383" lon="5.95716">
        <ele>739</ele>
        <time>2019-03-16T14:22:06Z</time>
      </trkpt>
      <trkpt lat="44.31384" lon="5.95718">
        <ele>739</ele>
        <time>2019-03-16T14:22:07Z</time>
      </trkpt>
      <trkpt lat="44.31384" lon="5.95721">
        <ele>739</ele>
        <time>2019-03-16T14:22:08Z</time>
      </trkpt>
      <trkpt lat="44.31385" lon="5.95724">
        <ele>739</ele>
        <time>2019-03-16T14:22:09Z</time>
      </trkpt>
      <trkpt lat="44.31385" lon="5.95727">
        <ele>739</ele>
        <time>2019-03-16T14:22:10Z</time>
      </trkpt>
      <trkpt lat="44.31385" lon="5.95729">
        <ele>739</ele>
        <time>2019-03-16T14:22:11Z</time>
      </trkpt>
      <trkpt lat="44.31386" lon="5.95732">
        <ele>739</ele>
        <time>2019-03-16T14:22:12Z</time>
      </trkpt>
      <trkpt lat="44.31386" lon="5.95735">
        <ele>739</ele>
        <time>2019-03-16T14:22:13Z</time>
      </trkpt>
      <trkpt lat="44.31386" lon="5.95738">
        <ele>739</ele>
        <time>2019-03-16T14:22:14Z</time>
      </trkpt>
      <trkpt lat="44.31386" lon="5.95741">
        <ele>739</ele>
        <time>2019-03-16T14:22:15Z</time>
      </trkpt>
      <trkpt lat="44.31386" lon="5.95744">
        <ele>739</ele>
        <time>2019-03-16T14:22:16Z</time>
      </trkpt>
      <trkpt lat="44.31386" lon="5.95747">
        <ele>739</ele>
        <time>2019-03-16T14:22:17Z</time>
      </trkpt>
      <trkpt lat="44.31387" lon="5.95751">
        <ele>740</ele>
        <time>2019-03-16T14:22:18Z</time>
      </trkpt>
      <trkpt lat="44.31386" lon="5.95753">
        <ele>740</ele>
        <time>2019-03-16T14:22:19Z</time>
      </trkpt>
      <trkpt lat="44.31386" lon="5.95756">
        <ele>740</ele>
        <time>2019-03-16T14:22:20Z</time>
      </trkpt>
      <trkpt lat="44.31386" lon="5.95759">
        <ele>740</ele>
        <time>2019-03-16T14:22:21Z</time>
      </trkpt>
      <trkpt lat="44.31386" lon="5.95762">
        <ele>740</ele>
        <time>2019-03-16T14:22:22Z</time>
      </trkpt>
      <trkpt lat="44.31387" lon="5.95766">
        <ele>740</ele>
        <time>2019-03-16T14:22:23Z</time>
      </trkpt>
      <trkpt lat="44.31389" lon="5.95769">
        <ele>740</ele>
        <time>2019-03-16T14:22:24Z</time>
      </trkpt>
      <trkpt lat="44.3139" lon="5.95772">
        <ele>740</ele>
        <time>2019-03-16T14:22:25Z</time>
      </trkpt>
      <trkpt lat="44.31392" lon="5.95775">
        <ele>740</ele>
        <time>2019-03-16T14:22:26Z</time>
      </trkpt>
      <trkpt lat="44.31394" lon="5.95777">
        <ele>741</ele>
        <time>2019-03-16T14:22:27Z</time>
      </trkpt>
      <trkpt lat="44.31396" lon="5.95779">
        <ele>741</ele>
        <time>2019-03-16T14:22:28Z</time>
      </trkpt>
      <trkpt lat="44.31398" lon="5.95781">
        <ele>741</ele>
        <time>2019-03-16T14:22:29Z</time>
      </trkpt>
      <trkpt lat="44.314" lon="5.95783">
        <ele>742</ele>
        <time>2019-03-16T14:22:30Z</time>
      </trkpt>
      <trkpt lat="44.31402" lon="5.95784">
        <ele>742</ele>
        <time>2019-03-16T14:22:31Z</time>
      </trkpt>
      <trkpt lat="44.31404" lon="5.95786">
        <ele>743</ele>
        <time>2019-03-16T14:22:32Z</time>
      </trkpt>
      <trkpt lat="44.31406" lon="5.95787">
        <ele>743</ele>
        <time>2019-03-16T14:22:33Z</time>
      </trkpt>
      <trkpt lat="44.31408" lon="5.95789">
        <ele>744</ele>
        <time>2019-03-16T14:22:34Z</time>
      </trkpt>
      <trkpt lat="44.3141" lon="5.9579">
        <ele>744</ele>
        <time>2019-03-16T14:22:35Z</time>
      </trkpt>
      <trkpt lat="44.31412" lon="5.95791">
        <ele>745</ele>
        <time>2019-03-16T14:22:36Z</time>
      </trkpt>
      <trkpt lat="44.31414" lon="5.95793">
        <ele>746</ele>
        <time>2019-03-16T14:22:37Z</time>
      </trkpt>
      <trkpt lat="44.31416" lon="5.95794">
        <ele>746</ele>
        <time>2019-03-16T14:22:38Z</time>
      </trkpt>
      <trkpt lat="44.31418" lon="5.95796">
        <ele>747</ele>
        <time>2019-03-16T14:22:39Z</time>
      </trkpt>
      <trkpt lat="44.3142" lon="5.95798">
        <ele>747</ele>
        <time>2019-03-16T14:22:40Z</time>
      </trkpt>
      <trkpt lat="44.31422" lon="5.958">
        <ele>748</ele>
        <time>2019-03-16T14:22:41Z</time>
      </trkpt>
      <trkpt lat="44.31424" lon="5.95802">
        <ele>748</ele>
        <time>2019-03-16T14:22:42Z</time>
      </trkpt>
      <trkpt lat="44.31426" lon="5.95804">
        <ele>749</ele>
        <time>2019-03-16T14:22:43Z</time>
      </trkpt>
      <trkpt lat="44.31427" lon="5.95807">
        <ele>749</ele>
        <time>2019-03-16T14:22:44Z</time>
      </trkpt>
      <trkpt lat="44.31428" lon="5.9581">
        <ele>750</ele>
        <time>2019-03-16T14:22:45Z</time>
      </trkpt>
      <trkpt lat="44.31428" lon="5.95814">
        <ele>750</ele>
        <time>2019-03-16T14:22:46Z</time>
      </trkpt>
      <trkpt lat="44.31428" lon="5.95817">
        <ele>751</ele>
        <time>2019-03-16T14:22:47Z</time>
      </trkpt>
      <trkpt lat="44.31426" lon="5.95819">
        <ele>751</ele>
        <time>2019-03-16T14:22:48Z</time>
      </trkpt>
      <trkpt lat="44.31425" lon="5.95821">
        <ele>752</ele>
        <time>2019-03-16T14:22:49Z</time>
      </trkpt>
      <trkpt lat="44.31422" lon="5.95823">
        <ele>752</ele>
        <time>2019-03-16T14:22:50Z</time>
      </trkpt>
      <trkpt lat="44.3142" lon="5.95823">
        <ele>753</ele>
        <time>2019-03-16T14:22:51Z</time>
      </trkpt>
      <trkpt lat="44.31417" lon="5.95822">
        <ele>753</ele>
        <time>2019-03-16T14:22:52Z</time>
      </trkpt>
      <trkpt lat="44.31415" lon="5.95821">
        <ele>754</ele>
        <time>2019-03-16T14:22:53Z</time>
      </trkpt>
      <trkpt lat="44.31413" lon="5.9582">
        <ele>754</ele>
        <time>2019-03-16T14:22:54Z</time>
      </trkpt>
      <trkpt lat="44.31411" lon="5.95819">
        <ele>755</ele>
        <time>2019-03-16T14:22:55Z</time>
      </trkpt>
      <trkpt lat="44.31408" lon="5.95818">
        <ele>755</ele>
        <time>2019-03-16T14:22:56Z</time>
      </trkpt>
      <trkpt lat="44.31406" lon="5.95817">
        <ele>756</ele>
        <time>2019-03-16T14:22:57Z</time>
      </trkpt>
      <trkpt lat="44.31403" lon="5.95815">
        <ele>756</ele>
        <time>2019-03-16T14:22:58Z</time>
      </trkpt>
      <trkpt lat="44.31401" lon="5.95815">
        <ele>756</ele>
        <time>2019-03-16T14:22:59Z</time>
      </trkpt>
      <trkpt lat="44.31398" lon="5.95815">
        <ele>756</ele>
        <time>2019-03-16T14:23:00Z</time>
      </trkpt>
      <trkpt lat="44.31395" lon="5.95815">
        <ele>757</ele>
        <time>2019-03-16T14:23:01Z</time>
      </trkpt>
      <trkpt lat="44.31392" lon="5.95816">
        <ele>757</ele>
        <time>2019-03-16T14:23:02Z</time>
      </trkpt>
      <trkpt lat="44.3139" lon="5.95818">
        <ele>757</ele>
        <time>2019-03-16T14:23:03Z</time>
      </trkpt>
      <trkpt lat="44.31387" lon="5.95821">
        <ele>757</ele>
        <time>2019-03-16T14:23:04Z</time>
      </trkpt>
      <trkpt lat="44.31386" lon="5.95824">
        <ele>758</ele>
        <time>2019-03-16T14:23:05Z</time>
      </trkpt>
      <trkpt lat="44.31385" lon="5.95828">
        <ele>758</ele>
        <time>2019-03-16T14:23:06Z</time>
      </trkpt>
      <trkpt lat="44.31384" lon="5.95832">
        <ele>758</ele>
        <time>2019-03-16T14:23:07Z</time>
      </trkpt>
      <trkpt lat="44.31384" lon="5.95835">
        <ele>758</ele>
        <time>2019-03-16T14:23:08Z</time>
      </trkpt>
      <trkpt lat="44.31384" lon="5.95839">
        <ele>759</ele>
        <time>2019-03-16T14:23:09Z</time>
      </trkpt>
      <trkpt lat="44.31384" lon="5.95843">
        <ele>759</ele>
        <time>2019-03-16T14:23:10Z</time>
      </trkpt>
      <trkpt lat="44.31385" lon="5.95846">
        <ele>759</ele>
        <time>2019-03-16T14:23:11Z</time>
      </trkpt>
      <trkpt lat="44.31385" lon="5.9585">
        <ele>760</ele>
        <time>2019-03-16T14:23:12Z</time>
      </trkpt>
      <trkpt lat="44.31386" lon="5.95853">
        <ele>760</ele>
        <time>2019-03-16T14:23:13Z</time>
      </trkpt>
      <trkpt lat="44.31387" lon="5.95856">
        <ele>760</ele>
        <time>2019-03-16T14:23:14Z</time>
      </trkpt>
      <trkpt lat="44.31389" lon="5.95859">
        <ele>760</ele>
        <time>2019-03-16T14:23:15Z</time>
      </trkpt>
      <trkpt lat="44.3139" lon="5.95862">
        <ele>761</ele>
        <time>2019-03-16T14:23:16Z</time>
      </trkpt>
      <trkpt lat="44.31391" lon="5.95865">
        <ele>761</ele>
        <time>2019-03-16T14:23:17Z</time>
      </trkpt>
      <trkpt lat="44.31392" lon="5.95868">
        <ele>761</ele>
        <time>2019-03-16T14:23:18Z</time>
      </trkpt>
      <trkpt lat="44.31393" lon="5.95871">
        <ele>762</ele>
        <time>2019-03-16T14:23:19Z</time>
      </trkpt>
      <trkpt lat="44.31394" lon="5.95874">
        <ele>762</ele>
        <time>2019-03-16T14:23:20Z</time>
      </trkpt>
      <trkpt lat="44.31395" lon="5.95877">
        <ele>762</ele>
        <time>2019-03-16T14:23:21Z</time>
      </trkpt>
      <trkpt lat="44.31396" lon="5.95879">
        <ele>763</ele>
        <time>2019-03-16T14:23:22Z</time>
      </trkpt>
      <trkpt lat="44.31398" lon="5.95882">
        <ele>763</ele>
        <time>2019-03-16T14:23:23Z</time>
      </trkpt>
      <trkpt lat="44.31399" lon="5.95885">
        <ele>763</ele>
        <time>2019-03-16T14:23:24Z</time>
      </trkpt>
      <trkpt lat="44.314" lon="5.95887">
        <ele>763</ele>
        <time>2019-03-16T14:23:25Z</time>
      </trkpt>
      <trkpt lat="44.31401" lon="5.9589">
        <ele>764</ele>
        <time>2019-03-16T14:23:26Z</time>
      </trkpt>
      <trkpt lat="44.31403" lon="5.95893">
        <ele>764</ele>
        <time>2019-03-16T14:23:27Z</time>
      </trkpt>
      <trkpt lat="44.31404" lon="5.95895">
        <ele>764</ele>
        <time>2019-03-16T14:23:28Z</time>
      </trkpt>
      <trkpt lat="44.31406" lon="5.95898">
        <ele>764</ele>
        <time>2019-03-16T14:23:29Z</time>
      </trkpt>
      <trkpt lat="44.31408" lon="5.959">
        <ele>764</ele>
        <time>2019-03-16T14:23:30Z</time>
      </trkpt>
      <trkpt lat="44.31409" lon="5.95903">
        <ele>765</ele>
        <time>2019-03-16T14:23:31Z</time>
      </trkpt>
      <trkpt lat="44.31411" lon="5.95905">
        <ele>765</ele>
        <time>2019-03-16T14:23:32Z</time>
      </trkpt>
      <trkpt lat="44.31413" lon="5.95907">
        <ele>765</ele>
        <time>2019-03-16T14:23:33Z</time>
      </trkpt>
      <trkpt lat="44.31415" lon="5.95908">
        <ele>765</ele>
        <time>2019-03-16T14:23:34Z</time>
      </trkpt>
      <trkpt lat="44.31417" lon="5.9591">
        <ele>765</ele>
        <time>2019-03-16T14:23:35Z</time>
      </trkpt>
      <trkpt lat="44.31419" lon="5.95912">
        <ele>765</ele>
        <time>2019-03-16T14:23:36Z</time>
      </trkpt>
      <trkpt lat="44.31421" lon="5.95913">
        <ele>766</ele>
        <time>2019-03-16T14:23:37Z</time>
      </trkpt>
      <trkpt lat="44.31423" lon="5.95914">
        <ele>766</ele>
        <time>2019-03-16T14:23:38Z</time>
      </trkpt>
      <trkpt lat="44.31425" lon="5.95916">
        <ele>766</ele>
        <time>2019-03-16T14:23:39Z</time>
      </trkpt>
      <trkpt lat="44.31427" lon="5.95917">
        <ele>766</ele>
        <time>2019-03-16T14:23:40Z</time>
      </trkpt>
      <trkpt lat="44.3143" lon="5.95918">
        <ele>766</ele>
        <time>2019-03-16T14:23:41Z</time>
      </trkpt>
      <trkpt lat="44.31432" lon="5.95919">
        <ele>767</ele>
        <time>2019-03-16T14:23:42Z</time>
      </trkpt>
      <trkpt lat="44.31435" lon="5.9592">
        <ele>767</ele>
        <time>2019-03-16T14:23:43Z</time>
      </trkpt>
      <trkpt lat="44.31437" lon="5.9592">
        <ele>767</ele>
        <time>2019-03-16T14:23:44Z</time>
      </trkpt>
      <trkpt lat="44.31439" lon="5.95921">
        <ele>767</ele>
        <time>2019-03-16T14:23:45Z</time>
      </trkpt>
      <trkpt lat="44.31442" lon="5.95921">
        <ele>767</ele>
        <time>2019-03-16T14:23:46Z</time>
      </trkpt>
      <trkpt lat="44.31444" lon="5.95921">
        <ele>768</ele>
        <time>2019-03-16T14:23:47Z</time>
      </trkpt>
      <trkpt lat="44.31447" lon="5.95922">
        <ele>768</ele>
        <time>2019-03-16T14:23:48Z</time>
      </trkpt>
      <trkpt lat="44.3145" lon="5.95922">
        <ele>768</ele>
        <time>2019-03-16T14:23:49Z</time>
      </trkpt>
      <trkpt lat="44.31452" lon="5.95922">
        <ele>768</ele>
        <time>2019-03-16T14:23:50Z</time>
      </trkpt>
      <trkpt lat="44.31454" lon="5.95922">
        <ele>768</ele>
        <time>2019-03-16T14:23:51Z</time>
      </trkpt>
      <trkpt lat="44.31457" lon="5.95923">
        <ele>768</ele>
        <time>2019-03-16T14:23:52Z</time>
      </trkpt>
      <trkpt lat="44.31459" lon="5.95923">
        <ele>768</ele>
        <time>2019-03-16T14:23:53Z</time>
      </trkpt>
      <trkpt lat="44.31462" lon="5.95923">
        <ele>768</ele>
        <time>2019-03-16T14:23:54Z</time>
      </trkpt>
      <trkpt lat="44.31464" lon="5.95923">
        <ele>768</ele>
        <time>2019-03-16T14:23:55Z</time>
      </trkpt>
      <trkpt lat="44.31466" lon="5.95923">
        <ele>768</ele>
        <time>2019-03-16T14:23:56Z</time>
      </trkpt>
      <trkpt lat="44.31469" lon="5.95924">
        <ele>768</ele>
        <time>2019-03-16T14:23:57Z</time>
      </trkpt>
      <trkpt lat="44.31471" lon="5.95924">
        <ele>769</ele>
        <time>2019-03-16T14:23:58Z</time>
      </trkpt>
      <trkpt lat="44.31473" lon="5.95924">
        <ele>769</ele>
        <time>2019-03-16T14:23:59Z</time>
      </trkpt>
      <trkpt lat="44.31476" lon="5.95925">
        <ele>769</ele>
        <time>2019-03-16T14:24:00Z</time>
      </trkpt>
      <trkpt lat="44.31478" lon="5.95925">
        <ele>769</ele>
        <time>2019-03-16T14:24:01Z</time>
      </trkpt>
      <trkpt lat="44.3148" lon="5.95925">
        <ele>769</ele>
        <time>2019-03-16T14:24:02Z</time>
      </trkpt>
      <trkpt lat="44.31483" lon="5.95925">
        <ele>769</ele>
        <time>2019-03-16T14:24:03Z</time>
      </trkpt>
      <trkpt lat="44.31485" lon="5.95925">
        <ele>769</ele>
        <time>2019-03-16T14:24:04Z</time>
      </trkpt>
      <trkpt lat="44.31488" lon="5.95925">
        <ele>769</ele>
        <time>2019-03-16T14:24:05Z</time>
      </trkpt>
      <trkpt lat="44.3149" lon="5.95925">
        <ele>770</ele>
        <time>2019-03-16T14:24:06Z</time>
      </trkpt>
      <trkpt lat="44.31493" lon="5.95924">
        <ele>770</ele>
        <time>2019-03-16T14:24:07Z</time>
      </trkpt>
      <trkpt lat="44.31495" lon="5.95924">
        <ele>770</ele>
        <time>2019-03-16T14:24:08Z</time>
      </trkpt>
      <trkpt lat="44.31498" lon="5.95923">
        <ele>770</ele>
        <time>2019-03-16T14:24:09Z</time>
      </trkpt>
      <trkpt lat="44.315" lon="5.95922">
        <ele>771</ele>
        <time>2019-03-16T14:24:10Z</time>
      </trkpt>
      <trkpt lat="44.31502" lon="5.95922">
        <ele>771</ele>
        <time>2019-03-16T14:24:11Z</time>
      </trkpt>
      <trkpt lat="44.31504" lon="5.95921">
        <ele>771</ele>
        <time>2019-03-16T14:24:12Z</time>
      </trkpt>
      <trkpt lat="44.31507" lon="5.9592">
        <ele>771</ele>
        <time>2019-03-16T14:24:13Z</time>
      </trkpt>
      <trkpt lat="44.31509" lon="5.95919">
        <ele>772</ele>
        <time>2019-03-16T14:24:14Z</time>
      </trkpt>
      <trkpt lat="44.31512" lon="5.95919">
        <ele>772</ele>
        <time>2019-03-16T14:24:15Z</time>
      </trkpt>
      <trkpt lat="44.31514" lon="5.95918">
        <ele>772</ele>
        <time>2019-03-16T14:24:16Z</time>
      </trkpt>
      <trkpt lat="44.31516" lon="5.95917">
        <ele>772</ele>
        <time>2019-03-16T14:24:17Z</time>
      </trkpt>
      <trkpt lat="44.31519" lon="5.95916">
        <ele>772</ele>
        <time>2019-03-16T14:24:18Z</time>
      </trkpt>
      <trkpt lat="44.31521" lon="5.95915">
        <ele>772</ele>
        <time>2019-03-16T14:24:19Z</time>
      </trkpt>
      <trkpt lat="44.31523" lon="5.95915">
        <ele>773</ele>
        <time>2019-03-16T14:24:20Z</time>
      </trkpt>
      <trkpt lat="44.31525" lon="5.95914">
        <ele>773</ele>
        <time>2019-03-16T14:24:21Z</time>
      </trkpt>
      <trkpt lat="44.31528" lon="5.95914">
        <ele>773</ele>
        <time>2019-03-16T14:24:22Z</time>
      </trkpt>
      <trkpt lat="44.3153" lon="5.95914">
        <ele>773</ele>
        <time>2019-03-16T14:24:23Z</time>
      </trkpt>
      <trkpt lat="44.31532" lon="5.95914">
        <ele>773</ele>
        <time>2019-03-16T14:24:24Z</time>
      </trkpt>
      <trkpt lat="44.31534" lon="5.95914">
        <ele>773</ele>
        <time>2019-03-16T14:24:25Z</time>
      </trkpt>
      <trkpt lat="44.31536" lon="5.95914">
        <ele>773</ele>
        <time>2019-03-16T14:24:26Z</time>
      </trkpt>
      <trkpt lat="44.31539" lon="5.95914">
        <ele>773</ele>
        <time>2019-03-16T14:24:27Z</time>
      </trkpt>
      <trkpt lat="44.31541" lon="5.95914">
        <ele>773</ele>
        <time>2019-03-16T14:24:28Z</time>
      </trkpt>
      <trkpt lat="44.31543" lon="5.95915">
        <ele>773</ele>
        <time>2019-03-16T14:24:29Z</time>
      </trkpt>
      <trkpt lat="44.31545" lon="5.95915">
        <ele>773</ele>
        <time>2019-03-16T14:24:30Z</time>
      </trkpt>
      <trkpt lat="44.31548" lon="5.95916">
        <ele>774</ele>
        <time>2019-03-16T14:24:31Z</time>
      </trkpt>
      <trkpt lat="44.3155" lon="5.95917">
        <ele>774</ele>
        <time>2019-03-16T14:24:32Z</time>
      </trkpt>
      <trkpt lat="44.31552" lon="5.95918">
        <ele>774</ele>
        <time>2019-03-16T14:24:33Z</time>
      </trkpt>
      <trkpt lat="44.31554" lon="5.95919">
        <ele>774</ele>
        <time>2019-03-16T14:24:34Z</time>
      </trkpt>
      <trkpt lat="44.31556" lon="5.9592">
        <ele>774</ele>
        <time>2019-03-16T14:24:35Z</time>
      </trkpt>
      <trkpt lat="44.31558" lon="5.95921">
        <ele>774</ele>
        <time>2019-03-16T14:24:36Z</time>
      </trkpt>
      <trkpt lat="44.31561" lon="5.95922">
        <ele>775</ele>
        <time>2019-03-16T14:24:37Z</time>
      </trkpt>
      <trkpt lat="44.31563" lon="5.95923">
        <ele>775</ele>
        <time>2019-03-16T14:24:38Z</time>
      </trkpt>
      <trkpt lat="44.31565" lon="5.95924">
        <ele>776</ele>
        <time>2019-03-16T14:24:39Z</time>
      </trkpt>
      <trkpt lat="44.31567" lon="5.95925">
        <ele>776</ele>
        <time>2019-03-16T14:24:40Z</time>
      </trkpt>
      <trkpt lat="44.3157" lon="5.95927">
        <ele>776</ele>
        <time>2019-03-16T14:24:41Z</time>
      </trkpt>
      <trkpt lat="44.31572" lon="5.95928">
        <ele>776</ele>
        <time>2019-03-16T14:24:42Z</time>
      </trkpt>
      <trkpt lat="44.31575" lon="5.95929">
        <ele>777</ele>
        <time>2019-03-16T14:24:43Z</time>
      </trkpt>
      <trkpt lat="44.31577" lon="5.9593">
        <ele>777</ele>
        <time>2019-03-16T14:24:44Z</time>
      </trkpt>
      <trkpt lat="44.31579" lon="5.9593">
        <ele>777</ele>
        <time>2019-03-16T14:24:45Z</time>
      </trkpt>
      <trkpt lat="44.31582" lon="5.9593">
        <ele>777</ele>
        <time>2019-03-16T14:24:46Z</time>
      </trkpt>
      <trkpt lat="44.31584" lon="5.95931">
        <ele>778</ele>
        <time>2019-03-16T14:24:47Z</time>
      </trkpt>
      <trkpt lat="44.31586" lon="5.95932">
        <ele>778</ele>
        <time>2019-03-16T14:24:48Z</time>
      </trkpt>
      <trkpt lat="44.31589" lon="5.95933">
        <ele>778</ele>
        <time>2019-03-16T14:24:49Z</time>
      </trkpt>
      <trkpt lat="44.31591" lon="5.95933">
        <ele>778</ele>
        <time>2019-03-16T14:24:50Z</time>
      </trkpt>
      <trkpt lat="44.31593" lon="5.95933">
        <ele>778</ele>
        <time>2019-03-16T14:24:51Z</time>
      </trkpt>
      <trkpt lat="44.31596" lon="5.95933">
        <ele>778</ele>
        <time>2019-03-16T14:24:52Z</time>
      </trkpt>
      <trkpt lat="44.31598" lon="5.95933">
        <ele>778</ele>
        <time>2019-03-16T14:24:53Z</time>
      </trkpt>
      <trkpt lat="44.316" lon="5.95933">
        <ele>778</ele>
        <time>2019-03-16T14:24:54Z</time>
      </trkpt>
      <trkpt lat="44.31602" lon="5.95934">
        <ele>778</ele>
        <time>2019-03-16T14:24:55Z</time>
      </trkpt>
      <trkpt lat="44.31604" lon="5.95934">
        <ele>778</ele>
        <time>2019-03-16T14:24:56Z</time>
      </trkpt>
      <trkpt lat="44.31607" lon="5.95933">
        <ele>778</ele>
        <time>2019-03-16T14:24:57Z</time>
      </trkpt>
      <trkpt lat="44.31609" lon="5.95933">
        <ele>778</ele>
        <time>2019-03-16T14:24:58Z</time>
      </trkpt>
      <trkpt lat="44.31612" lon="5.95933">
        <ele>778</ele>
        <time>2019-03-16T14:24:59Z</time>
      </trkpt>
      <trkpt lat="44.31614" lon="5.95933">
        <ele>778</ele>
        <time>2019-03-16T14:25:00Z</time>
      </trkpt>
      <trkpt lat="44.31616" lon="5.95933">
        <ele>778</ele>
        <time>2019-03-16T14:25:01Z</time>
      </trkpt>
      <trkpt lat="44.31619" lon="5.95933">
        <ele>778</ele>
        <time>2019-03-16T14:25:02Z</time>
      </trkpt>
      <trkpt lat="44.31621" lon="5.95933">
        <ele>779</ele>
        <time>2019-03-16T14:25:03Z</time>
      </trkpt>
      <trkpt lat="44.31624" lon="5.95933">
        <ele>779</ele>
        <time>2019-03-16T14:25:04Z</time>
      </trkpt>
      <trkpt lat="44.31626" lon="5.95933">
        <ele>779</ele>
        <time>2019-03-16T14:25:05Z</time>
      </trkpt>
      <trkpt lat="44.31628" lon="5.95933">
        <ele>779</ele>
        <time>2019-03-16T14:25:06Z</time>
      </trkpt>
      <trkpt lat="44.31631" lon="5.95933">
        <ele>779</ele>
        <time>2019-03-16T14:25:07Z</time>
      </trkpt>
      <trkpt lat="44.31633" lon="5.95933">
        <ele>779</ele>
        <time>2019-03-16T14:25:08Z</time>
      </trkpt>
      <trkpt lat="44.31636" lon="5.95934">
        <ele>779</ele>
        <time>2019-03-16T14:25:09Z</time>
      </trkpt>
      <trkpt lat="44.31638" lon="5.95934">
        <ele>779</ele>
        <time>2019-03-16T14:25:10Z</time>
      </trkpt>
      <trkpt lat="44.31641" lon="5.95933">
        <ele>779</ele>
        <time>2019-03-16T14:25:11Z</time>
      </trkpt>
      <trkpt lat="44.31643" lon="5.95933">
        <ele>779</ele>
        <time>2019-03-16T14:25:12Z</time>
      </trkpt>
      <trkpt lat="44.31645" lon="5.95933">
        <ele>779</ele>
        <time>2019-03-16T14:25:13Z</time>
      </trkpt>
      <trkpt lat="44.31648" lon="5.95933">
        <ele>779</ele>
        <time>2019-03-16T14:25:14Z</time>
      </trkpt>
      <trkpt lat="44.3165" lon="5.95933">
        <ele>779</ele>
        <time>2019-03-16T14:25:15Z</time>
      </trkpt>
      <trkpt lat="44.31652" lon="5.95933">
        <ele>779</ele>
        <time>2019-03-16T14:25:16Z</time>
      </trkpt>
      <trkpt lat="44.31655" lon="5.95933">
        <ele>779</ele>
        <time>2019-03-16T14:25:17Z</time>
      </trkpt>
      <trkpt lat="44.31657" lon="5.95933">
        <ele>779</ele>
        <time>2019-03-16T14:25:18Z</time>
      </trkpt>
      <trkpt lat="44.3166" lon="5.95933">
        <ele>779</ele>
        <time>2019-03-16T14:25:19Z</time>
      </trkpt>
      <trkpt lat="44.31662" lon="5.95933">
        <ele>779</ele>
        <time>2019-03-16T14:25:20Z</time>
      </trkpt>
      <trkpt lat="44.31664" lon="5.95933">
        <ele>779</ele>
        <time>2019-03-16T14:25:21Z</time>
      </trkpt>
      <trkpt lat="44.31667" lon="5.95933">
        <ele>779</ele>
        <time>2019-03-16T14:25:22Z</time>
      </trkpt>
      <trkpt lat="44.31669" lon="5.95932">
        <ele>779</ele>
        <time>2019-03-16T14:25:23Z</time>
      </trkpt>
      <trkpt lat="44.31671" lon="5.95932">
        <ele>779</ele>
        <time>2019-03-16T14:25:24Z</time>
      </trkpt>
      <trkpt lat="44.31674" lon="5.95932">
        <ele>779</ele>
        <time>2019-03-16T14:25:25Z</time>
      </trkpt>
      <trkpt lat="44.31676" lon="5.95931">
        <ele>780</ele>
        <time>2019-03-16T14:25:26Z</time>
      </trkpt>
      <trkpt lat="44.31678" lon="5.95931">
        <ele>780</ele>
        <time>2019-03-16T14:25:27Z</time>
      </trkpt>
      <trkpt lat="44.31681" lon="5.95931">
        <ele>780</ele>
        <time>2019-03-16T14:25:28Z</time>
      </trkpt>
      <trkpt lat="44.31683" lon="5.95931">
        <ele>780</ele>
        <time>2019-03-16T14:25:29Z</time>
      </trkpt>
      <trkpt lat="44.31686" lon="5.95931">
        <ele>781</ele>
        <time>2019-03-16T14:25:30Z</time>
      </trkpt>
      <trkpt lat="44.31688" lon="5.9593">
        <ele>781</ele>
        <time>2019-03-16T14:25:31Z</time>
      </trkpt>
      <trkpt lat="44.31691" lon="5.9593">
        <ele>781</ele>
        <time>2019-03-16T14:25:32Z</time>
      </trkpt>
      <trkpt lat="44.31693" lon="5.95929">
        <ele>781</ele>
        <time>2019-03-16T14:25:33Z</time>
      </trkpt>
      <trkpt lat="44.31696" lon="5.95929">
        <ele>781</ele>
        <time>2019-03-16T14:25:34Z</time>
      </trkpt>
      <trkpt lat="44.31698" lon="5.95928">
        <ele>781</ele>
        <time>2019-03-16T14:25:35Z</time>
      </trkpt>
      <trkpt lat="44.31701" lon="5.95927">
        <ele>781</ele>
        <time>2019-03-16T14:25:36Z</time>
      </trkpt>
      <trkpt lat="44.31703" lon="5.95926">
        <ele>782</ele>
        <time>2019-03-16T14:25:37Z</time>
      </trkpt>
      <trkpt lat="44.31706" lon="5.95925">
        <ele>782</ele>
        <time>2019-03-16T14:25:38Z</time>
      </trkpt>
      <trkpt lat="44.31708" lon="5.95923">
        <ele>782</ele>
        <time>2019-03-16T14:25:39Z</time>
      </trkpt>
      <trkpt lat="44.3171" lon="5.95922">
        <ele>782</ele>
        <time>2019-03-16T14:25:40Z</time>
      </trkpt>
      <trkpt lat="44.31712" lon="5.9592">
        <ele>783</ele>
        <time>2019-03-16T14:25:41Z</time>
      </trkpt>
      <trkpt lat="44.31714" lon="5.95917">
        <ele>783</ele>
        <time>2019-03-16T14:25:42Z</time>
      </trkpt>
      <trkpt lat="44.31716" lon="5.95915">
        <ele>783</ele>
        <time>2019-03-16T14:25:43Z</time>
      </trkpt>
      <trkpt lat="44.31718" lon="5.95913">
        <ele>783</ele>
        <time>2019-03-16T14:25:44Z</time>
      </trkpt>
      <trkpt lat="44.3172" lon="5.95911">
        <ele>784</ele>
        <time>2019-03-16T14:25:45Z</time>
      </trkpt>
      <trkpt lat="44.31721" lon="5.95908">
        <ele>784</ele>
        <time>2019-03-16T14:25:46Z</time>
      </trkpt>
      <trkpt lat="44.31723" lon="5.95906">
        <ele>784</ele>
        <time>2019-03-16T14:25:47Z</time>
      </trkpt>
      <trkpt lat="44.31724" lon="5.95903">
        <ele>784</ele>
        <time>2019-03-16T14:25:48Z</time>
      </trkpt>
      <trkpt lat="44.31725" lon="5.959">
        <ele>784</ele>
        <time>2019-03-16T14:25:49Z</time>
      </trkpt>
      <trkpt lat="44.31726" lon="5.95897">
        <ele>785</ele>
        <time>2019-03-16T14:25:50Z</time>
      </trkpt>
      <trkpt lat="44.31728" lon="5.95894">
        <ele>785</ele>
        <time>2019-03-16T14:25:51Z</time>
      </trkpt>
      <trkpt lat="44.31729" lon="5.95891">
        <ele>785</ele>
        <time>2019-03-16T14:25:52Z</time>
      </trkpt>
      <trkpt lat="44.3173" lon="5.95888">
        <ele>785</ele>
        <time>2019-03-16T14:25:53Z</time>
      </trkpt>
      <trkpt lat="44.31731" lon="5.95886">
        <ele>785</ele>
        <time>2019-03-16T14:25:54Z</time>
      </trkpt>
      <trkpt lat="44.31732" lon="5.95883">
        <ele>785</ele>
        <time>2019-03-16T14:25:55Z</time>
      </trkpt>
      <trkpt lat="44.31733" lon="5.9588">
        <ele>785</ele>
        <time>2019-03-16T14:25:56Z</time>
      </trkpt>
      <trkpt lat="44.31734" lon="5.95877">
        <ele>786</ele>
        <time>2019-03-16T14:25:57Z</time>
      </trkpt>
      <trkpt lat="44.31735" lon="5.95874">
        <ele>786</ele>
        <time>2019-03-16T14:25:58Z</time>
      </trkpt>
      <trkpt lat="44.31737" lon="5.95872">
        <ele>786</ele>
        <time>2019-03-16T14:25:59Z</time>
      </trkpt>
      <trkpt lat="44.31738" lon="5.95869">
        <ele>786</ele>
        <time>2019-03-16T14:26:00Z</time>
      </trkpt>
      <trkpt lat="44.3174" lon="5.95866">
        <ele>786</ele>
        <time>2019-03-16T14:26:01Z</time>
      </trkpt>
      <trkpt lat="44.31742" lon="5.95864">
        <ele>787</ele>
        <time>2019-03-16T14:26:02Z</time>
      </trkpt>
      <trkpt lat="44.31745" lon="5.95863">
        <ele>787</ele>
        <time>2019-03-16T14:26:03Z</time>
      </trkpt>
      <trkpt lat="44.31747" lon="5.95862">
        <ele>787</ele>
        <time>2019-03-16T14:26:04Z</time>
      </trkpt>
      <trkpt lat="44.31749" lon="5.95861">
        <ele>788</ele>
        <time>2019-03-16T14:26:05Z</time>
      </trkpt>
      <trkpt lat="44.31752" lon="5.9586">
        <ele>788</ele>
        <time>2019-03-16T14:26:06Z</time>
      </trkpt>
      <trkpt lat="44.31754" lon="5.9586">
        <ele>788</ele>
        <time>2019-03-16T14:26:07Z</time>
      </trkpt>
      <trkpt lat="44.31757" lon="5.9586">
        <ele>789</ele>
        <time>2019-03-16T14:26:08Z</time>
      </trkpt>
      <trkpt lat="44.31759" lon="5.95861">
        <ele>789</ele>
        <time>2019-03-16T14:26:09Z</time>
      </trkpt>
      <trkpt lat="44.31762" lon="5.95861">
        <ele>789</ele>
        <time>2019-03-16T14:26:10Z</time>
      </trkpt>
      <trkpt lat="44.31764" lon="5.95861">
        <ele>790</ele>
        <time>2019-03-16T14:26:11Z</time>
      </trkpt>
      <trkpt lat="44.31767" lon="5.95861">
        <ele>790</ele>
        <time>2019-03-16T14:26:12Z</time>
      </trkpt>
      <trkpt lat="44.31769" lon="5.95862">
        <ele>790</ele>
        <time>2019-03-16T14:26:13Z</time>
      </trkpt>
      <trkpt lat="44.31772" lon="5.95862">
        <ele>791</ele>
        <time>2019-03-16T14:26:14Z</time>
      </trkpt>
      <trkpt lat="44.31775" lon="5.95862">
        <ele>791</ele>
        <time>2019-03-16T14:26:15Z</time>
      </trkpt>
      <trkpt lat="44.31777" lon="5.95862">
        <ele>792</ele>
        <time>2019-03-16T14:26:16Z</time>
      </trkpt>
      <trkpt lat="44.3178" lon="5.95862">
        <ele>792</ele>
        <time>2019-03-16T14:26:17Z</time>
      </trkpt>
      <trkpt lat="44.31782" lon="5.95862">
        <ele>792</ele>
        <time>2019-03-16T14:26:18Z</time>
      </trkpt>
      <trkpt lat="44.31785" lon="5.95861">
        <ele>792</ele>
        <time>2019-03-16T14:26:19Z</time>
      </trkpt>
      <trkpt lat="44.31787" lon="5.95861">
        <ele>793</ele>
        <time>2019-03-16T14:26:20Z</time>
      </trkpt>
      <trkpt lat="44.3179" lon="5.95861">
        <ele>793</ele>
        <time>2019-03-16T14:26:21Z</time>
      </trkpt>
      <trkpt lat="44.31792" lon="5.95861">
        <ele>793</ele>
        <time>2019-03-16T14:26:22Z</time>
      </trkpt>
      <trkpt lat="44.31795" lon="5.95861">
        <ele>793</ele>
        <time>2019-03-16T14:26:23Z</time>
      </trkpt>
      <trkpt lat="44.31797" lon="5.9586">
        <ele>794</ele>
        <time>2019-03-16T14:26:24Z</time>
      </trkpt>
      <trkpt lat="44.318" lon="5.9586">
        <ele>794</ele>
        <time>2019-03-16T14:26:25Z</time>
      </trkpt>
      <trkpt lat="44.31802" lon="5.95859">
        <ele>794</ele>
        <time>2019-03-16T14:26:26Z</time>
      </trkpt>
      <trkpt lat="44.31805" lon="5.95859">
        <ele>794</ele>
        <time>2019-03-16T14:26:27Z</time>
      </trkpt>
      <trkpt lat="44.31807" lon="5.95859">
        <ele>795</ele>
        <time>2019-03-16T14:26:28Z</time>
      </trkpt>
      <trkpt lat="44.3181" lon="5.95858">
        <ele>795</ele>
        <time>2019-03-16T14:26:29Z</time>
      </trkpt>
      <trkpt lat="44.31812" lon="5.95858">
        <ele>795</ele>
        <time>2019-03-16T14:26:30Z</time>
      </trkpt>
      <trkpt lat="44.31815" lon="5.95857">
        <ele>795</ele>
        <time>2019-03-16T14:26:31Z</time>
      </trkpt>
      <trkpt lat="44.31818" lon="5.95857">
        <ele>796</ele>
        <time>2019-03-16T14:26:32Z</time>
      </trkpt>
      <trkpt lat="44.3182" lon="5.95857">
        <ele>796</ele>
        <time>2019-03-16T14:26:33Z</time>
      </trkpt>
      <trkpt lat="44.31823" lon="5.95857">
        <ele>796</ele>
        <time>2019-03-16T14:26:34Z</time>
      </trkpt>
      <trkpt lat="44.31825" lon="5.95856">
        <ele>796</ele>
        <time>2019-03-16T14:26:35Z</time>
      </trkpt>
      <trkpt lat="44.31828" lon="5.95856">
        <ele>797</ele>
        <time>2019-03-16T14:26:36Z</time>
      </trkpt>
      <trkpt lat="44.3183" lon="5.95856">
        <ele>797</ele>
        <time>2019-03-16T14:26:37Z</time>
      </trkpt>
      <trkpt lat="44.31833" lon="5.95856">
        <ele>797</ele>
        <time>2019-03-16T14:26:38Z</time>
      </trkpt>
      <trkpt lat="44.31835" lon="5.95856">
        <ele>797</ele>
        <time>2019-03-16T14:26:39Z</time>
      </trkpt>
      <trkpt lat="44.31837" lon="5.95856">
        <ele>798</ele>
        <time>2019-03-16T14:26:40Z</time>
      </trkpt>
      <trkpt lat="44.31839" lon="5.95856">
        <ele>798</ele>
        <time>2019-03-16T14:26:41Z</time>
      </trkpt>
      <trkpt lat="44.31841" lon="5.95856">
        <ele>798</ele>
        <time>2019-03-16T14:26:42Z</time>
      </trkpt>
      <trkpt lat="44.31843" lon="5.95856">
        <ele>798</ele>
        <time>2019-03-16T14:26:43Z</time>
      </trkpt>
      <trkpt lat="44.31844" lon="5.95856">
        <ele>798</ele>
        <time>2019-03-16T14:26:44Z</time>
      </trkpt>
      <trkpt lat="44.31845" lon="5.95856">
        <ele>798</ele>
        <time>2019-03-16T14:26:45Z</time>
      </trkpt>
      <trkpt lat="44.31847" lon="5.95856">
        <ele>798</ele>
        <time>2019-03-16T14:26:46Z</time>
      </trkpt>
      <trkpt lat="44.31849" lon="5.95857">
        <ele>798</ele>
        <time>2019-03-16T14:26:48Z</time>
      </trkpt>
      <trkpt lat="44.3185" lon="5.95857">
        <ele>799</ele>
        <time>2019-03-16T14:26:51Z</time>
      </trkpt>
      <trkpt lat="44.3185" lon="5.95856">
        <ele>800</ele>
        <time>2019-03-16T14:27:08Z</time>
      </trkpt>
      <trkpt lat="44.31847" lon="5.95855">
        <ele>805</ele>
        <time>2019-03-16T14:27:21Z</time>
      </trkpt>
      <trkpt lat="44.31846" lon="5.95854">
        <ele>807</ele>
        <time>2019-03-16T14:27:26Z</time>
      </trkpt>
      <trkpt lat="44.31846" lon="5.95852">
        <ele>809</ele>
        <time>2019-03-16T14:27:36Z</time>
      </trkpt>
      <trkpt lat="44.31848" lon="5.95853">
        <ele>809</ele>
        <time>2019-03-16T14:27:38Z</time>
      </trkpt>
      <trkpt lat="44.3185" lon="5.95854">
        <ele>809</ele>
        <time>2019-03-16T14:27:40Z</time>
      </trkpt>
      <trkpt lat="44.31851" lon="5.95854">
        <ele>809</ele>
        <time>2019-03-16T14:27:41Z</time>
      </trkpt>
      <trkpt lat="44.31853" lon="5.95853">
        <ele>809</ele>
        <time>2019-03-16T14:27:42Z</time>
      </trkpt>
      <trkpt lat="44.31857" lon="5.95854">
        <ele>809</ele>
        <time>2019-03-16T14:27:43Z</time>
      </trkpt>
      <trkpt lat="44.3186" lon="5.95855">
        <ele>809</ele>
        <time>2019-03-16T14:27:44Z</time>
      </trkpt>
      <trkpt lat="44.31863" lon="5.95856">
        <ele>809</ele>
        <time>2019-03-16T14:27:45Z</time>
      </trkpt>
      <trkpt lat="44.31867" lon="5.95858">
        <ele>809</ele>
        <time>2019-03-16T14:27:46Z</time>
      </trkpt>
      <trkpt lat="44.31871" lon="5.95859">
        <ele>809</ele>
        <time>2019-03-16T14:27:47Z</time>
      </trkpt>
      <trkpt lat="44.31876" lon="5.95861">
        <ele>809</ele>
        <time>2019-03-16T14:27:48Z</time>
      </trkpt>
      <trkpt lat="44.3188" lon="5.95863">
        <ele>809</ele>
        <time>2019-03-16T14:27:49Z</time>
      </trkpt>
      <trkpt lat="44.31885" lon="5.95866">
        <ele>809</ele>
        <time>2019-03-16T14:27:50Z</time>
      </trkpt>
      <trkpt lat="44.3189" lon="5.95868">
        <ele>808</ele>
        <time>2019-03-16T14:27:51Z</time>
      </trkpt>
      <trkpt lat="44.31895" lon="5.95869">
        <ele>808</ele>
        <time>2019-03-16T14:27:52Z</time>
      </trkpt>
      <trkpt lat="44.319" lon="5.95869">
        <ele>808</ele>
        <time>2019-03-16T14:27:53Z</time>
      </trkpt>
      <trkpt lat="44.31905" lon="5.95869">
        <ele>808</ele>
        <time>2019-03-16T14:27:54Z</time>
      </trkpt>
      <trkpt lat="44.3191" lon="5.95869">
        <ele>808</ele>
        <time>2019-03-16T14:27:55Z</time>
      </trkpt>
      <trkpt lat="44.31914" lon="5.95869">
        <ele>808</ele>
        <time>2019-03-16T14:27:56Z</time>
      </trkpt>
      <trkpt lat="44.31918" lon="5.95869">
        <ele>808</ele>
        <time>2019-03-16T14:27:57Z</time>
      </trkpt>
      <trkpt lat="44.31922" lon="5.95868">
        <ele>808</ele>
        <time>2019-03-16T14:27:58Z</time>
      </trkpt>
      <trkpt lat="44.31926" lon="5.95866">
        <ele>808</ele>
        <time>2019-03-16T14:27:59Z</time>
      </trkpt>
      <trkpt lat="44.31929" lon="5.95864">
        <ele>808</ele>
        <time>2019-03-16T14:28:00Z</time>
      </trkpt>
      <trkpt lat="44.31932" lon="5.95862">
        <ele>808</ele>
        <time>2019-03-16T14:28:01Z</time>
      </trkpt>
      <trkpt lat="44.31936" lon="5.9586">
        <ele>808</ele>
        <time>2019-03-16T14:28:02Z</time>
      </trkpt>
      <trkpt lat="44.31939" lon="5.95857">
        <ele>808</ele>
        <time>2019-03-16T14:28:03Z</time>
      </trkpt>
      <trkpt lat="44.31942" lon="5.95855">
        <ele>808</ele>
        <time>2019-03-16T14:28:04Z</time>
      </trkpt>
      <trkpt lat="44.31945" lon="5.95851">
        <ele>808</ele>
        <time>2019-03-16T14:28:05Z</time>
      </trkpt>
      <trkpt lat="44.31948" lon="5.95848">
        <ele>808</ele>
        <time>2019-03-16T14:28:06Z</time>
      </trkpt>
      <trkpt lat="44.31951" lon="5.95844">
        <ele>808</ele>
        <time>2019-03-16T14:28:07Z</time>
      </trkpt>
      <trkpt lat="44.31954" lon="5.95841">
        <ele>808</ele>
        <time>2019-03-16T14:28:08Z</time>
      </trkpt>
      <trkpt lat="44.31957" lon="5.95837">
        <ele>808</ele>
        <time>2019-03-16T14:28:09Z</time>
      </trkpt>
      <trkpt lat="44.3196" lon="5.95833">
        <ele>808</ele>
        <time>2019-03-16T14:28:10Z</time>
      </trkpt>
      <trkpt lat="44.31963" lon="5.9583">
        <ele>808</ele>
        <time>2019-03-16T14:28:11Z</time>
      </trkpt>
      <trkpt lat="44.31966" lon="5.95826">
        <ele>808</ele>
        <time>2019-03-16T14:28:12Z</time>
      </trkpt>
      <trkpt lat="44.3197" lon="5.95823">
        <ele>808</ele>
        <time>2019-03-16T14:28:13Z</time>
      </trkpt>
      <trkpt lat="44.31973" lon="5.9582">
        <ele>808</ele>
        <time>2019-03-16T14:28:14Z</time>
      </trkpt>
      <trkpt lat="44.31977" lon="5.95818">
        <ele>808</ele>
        <time>2019-03-16T14:28:15Z</time>
      </trkpt>
      <trkpt lat="44.31981" lon="5.95815">
        <ele>808</ele>
        <time>2019-03-16T14:28:16Z</time>
      </trkpt>
      <trkpt lat="44.31985" lon="5.95814">
        <ele>808</ele>
        <time>2019-03-16T14:28:17Z</time>
      </trkpt>
      <trkpt lat="44.31989" lon="5.95813">
        <ele>808</ele>
        <time>2019-03-16T14:28:18Z</time>
      </trkpt>
      <trkpt lat="44.31993" lon="5.95813">
        <ele>808</ele>
        <time>2019-03-16T14:28:19Z</time>
      </trkpt>
      <trkpt lat="44.31997" lon="5.95814">
        <ele>808</ele>
        <time>2019-03-16T14:28:20Z</time>
      </trkpt>
      <trkpt lat="44.32001" lon="5.95816">
        <ele>808</ele>
        <time>2019-03-16T14:28:21Z</time>
      </trkpt>
      <trkpt lat="44.32005" lon="5.95818">
        <ele>808</ele>
        <time>2019-03-16T14:28:22Z</time>
      </trkpt>
      <trkpt lat="44.32008" lon="5.95822">
        <ele>808</ele>
        <time>2019-03-16T14:28:23Z</time>
      </trkpt>
      <trkpt lat="44.32011" lon="5.95825">
        <ele>808</ele>
        <time>2019-03-16T14:28:24Z</time>
      </trkpt>
      <trkpt lat="44.32013" lon="5.95829">
        <ele>808</ele>
        <time>2019-03-16T14:28:25Z</time>
      </trkpt>
      <trkpt lat="44.32015" lon="5.95834">
        <ele>808</ele>
        <time>2019-03-16T14:28:26Z</time>
      </trkpt>
      <trkpt lat="44.32016" lon="5.95838">
        <ele>808</ele>
        <time>2019-03-16T14:28:27Z</time>
      </trkpt>
      <trkpt lat="44.32018" lon="5.95843">
        <ele>808</ele>
        <time>2019-03-16T14:28:28Z</time>
      </trkpt>
      <trkpt lat="44.32019" lon="5.95848">
        <ele>808</ele>
        <time>2019-03-16T14:28:29Z</time>
      </trkpt>
      <trkpt lat="44.3202" lon="5.95854">
        <ele>808</ele>
        <time>2019-03-16T14:28:30Z</time>
      </trkpt>
      <trkpt lat="44.32021" lon="5.95859">
        <ele>808</ele>
        <time>2019-03-16T14:28:31Z</time>
      </trkpt>
      <trkpt lat="44.32022" lon="5.95864">
        <ele>808</ele>
        <time>2019-03-16T14:28:32Z</time>
      </trkpt>
      <trkpt lat="44.32022" lon="5.9587">
        <ele>808</ele>
        <time>2019-03-16T14:28:33Z</time>
      </trkpt>
      <trkpt lat="44.32023" lon="5.95875">
        <ele>808</ele>
        <time>2019-03-16T14:28:34Z</time>
      </trkpt>
      <trkpt lat="44.32024" lon="5.95881">
        <ele>808</ele>
        <time>2019-03-16T14:28:35Z</time>
      </trkpt>
      <trkpt lat="44.32025" lon="5.95886">
        <ele>808</ele>
        <time>2019-03-16T14:28:36Z</time>
      </trkpt>
      <trkpt lat="44.32027" lon="5.95891">
        <ele>808</ele>
        <time>2019-03-16T14:28:37Z</time>
      </trkpt>
      <trkpt lat="44.32028" lon="5.95897">
        <ele>808</ele>
        <time>2019-03-16T14:28:38Z</time>
      </trkpt>
      <trkpt lat="44.3203" lon="5.95902">
        <ele>808</ele>
        <time>2019-03-16T14:28:39Z</time>
      </trkpt>
      <trkpt lat="44.32032" lon="5.95907">
        <ele>808</ele>
        <time>2019-03-16T14:28:40Z</time>
      </trkpt>
      <trkpt lat="44.32035" lon="5.95912">
        <ele>808</ele>
        <time>2019-03-16T14:28:41Z</time>
      </trkpt>
      <trkpt lat="44.32037" lon="5.95916">
        <ele>808</ele>
        <time>2019-03-16T14:28:42Z</time>
      </trkpt>
      <trkpt lat="44.3204" lon="5.95921">
        <ele>808</ele>
        <time>2019-03-16T14:28:43Z</time>
      </trkpt>
      <trkpt lat="44.32043" lon="5.95925">
        <ele>808</ele>
        <time>2019-03-16T14:28:44Z</time>
      </trkpt>
      <trkpt lat="44.32046" lon="5.95929">
        <ele>808</ele>
        <time>2019-03-16T14:28:45Z</time>
      </trkpt>
      <trkpt lat="44.32049" lon="5.95933">
        <ele>808</ele>
        <time>2019-03-16T14:28:46Z</time>
      </trkpt>
      <trkpt lat="44.32052" lon="5.95937">
        <ele>808</ele>
        <time>2019-03-16T14:28:47Z</time>
      </trkpt>
      <trkpt lat="44.32055" lon="5.95941">
        <ele>808</ele>
        <time>2019-03-16T14:28:48Z</time>
      </trkpt>
      <trkpt lat="44.32058" lon="5.95946">
        <ele>808</ele>
        <time>2019-03-16T14:28:49Z</time>
      </trkpt>
      <trkpt lat="44.3206" lon="5.9595">
        <ele>808</ele>
        <time>2019-03-16T14:28:50Z</time>
      </trkpt>
      <trkpt lat="44.32064" lon="5.95954">
        <ele>808</ele>
        <time>2019-03-16T14:28:51Z</time>
      </trkpt>
      <trkpt lat="44.32066" lon="5.95958">
        <ele>808</ele>
        <time>2019-03-16T14:28:52Z</time>
      </trkpt>
      <trkpt lat="44.3207" lon="5.95962">
        <ele>808</ele>
        <time>2019-03-16T14:28:53Z</time>
      </trkpt>
      <trkpt lat="44.32073" lon="5.95966">
        <ele>808</ele>
        <time>2019-03-16T14:28:54Z</time>
      </trkpt>
      <trkpt lat="44.32077" lon="5.95969">
        <ele>808</ele>
        <time>2019-03-16T14:28:55Z</time>
      </trkpt>
      <trkpt lat="44.3208" lon="5.95972">
        <ele>808</ele>
        <time>2019-03-16T14:28:56Z</time>
      </trkpt>
      <trkpt lat="44.32084" lon="5.95975">
        <ele>808</ele>
        <time>2019-03-16T14:28:57Z</time>
      </trkpt>
      <trkpt lat="44.32088" lon="5.95978">
        <ele>808</ele>
        <time>2019-03-16T14:28:58Z</time>
      </trkpt>
      <trkpt lat="44.32092" lon="5.9598">
        <ele>808</ele>
        <time>2019-03-16T14:28:59Z</time>
      </trkpt>
      <trkpt lat="44.32095" lon="5.95982">
        <ele>808</ele>
        <time>2019-03-16T14:29:00Z</time>
      </trkpt>
      <trkpt lat="44.321" lon="5.95983">
        <ele>808</ele>
        <time>2019-03-16T14:29:01Z</time>
      </trkpt>
      <trkpt lat="44.32104" lon="5.95984">
        <ele>808</ele>
        <time>2019-03-16T14:29:02Z</time>
      </trkpt>
      <trkpt lat="44.32108" lon="5.95984">
        <ele>808</ele>
        <time>2019-03-16T14:29:03Z</time>
      </trkpt>
      <trkpt lat="44.32112" lon="5.95985">
        <ele>808</ele>
        <time>2019-03-16T14:29:04Z</time>
      </trkpt>
      <trkpt lat="44.32116" lon="5.95985">
        <ele>808</ele>
        <time>2019-03-16T14:29:05Z</time>
      </trkpt>
      <trkpt lat="44.3212" lon="5.95984">
        <ele>808</ele>
        <time>2019-03-16T14:29:06Z</time>
      </trkpt>
      <trkpt lat="44.32124" lon="5.95983">
        <ele>808</ele>
        <time>2019-03-16T14:29:07Z</time>
      </trkpt>
      <trkpt lat="44.32129" lon="5.95982">
        <ele>808</ele>
        <time>2019-03-16T14:29:08Z</time>
      </trkpt>
      <trkpt lat="44.32133" lon="5.9598">
        <ele>808</ele>
        <time>2019-03-16T14:29:09Z</time>
      </trkpt>
      <trkpt lat="44.32137" lon="5.95977">
        <ele>808</ele>
        <time>2019-03-16T14:29:10Z</time>
      </trkpt>
      <trkpt lat="44.32141" lon="5.95975">
        <ele>808</ele>
        <time>2019-03-16T14:29:11Z</time>
      </trkpt>
      <trkpt lat="44.32145" lon="5.95972">
        <ele>808</ele>
        <time>2019-03-16T14:29:12Z</time>
      </trkpt>
      <trkpt lat="44.3215" lon="5.9597">
        <ele>808</ele>
        <time>2019-03-16T14:29:13Z</time>
      </trkpt>
      <trkpt lat="44.32154" lon="5.95968">
        <ele>808</ele>
        <time>2019-03-16T14:29:14Z</time>
      </trkpt>
      <trkpt lat="44.32158" lon="5.95966">
        <ele>808</ele>
        <time>2019-03-16T14:29:15Z</time>
      </trkpt>
      <trkpt lat="44.32163" lon="5.95965">
        <ele>808</ele>
        <time>2019-03-16T14:29:16Z</time>
      </trkpt>
      <trkpt lat="44.32167" lon="5.95965">
        <ele>808</ele>
        <time>2019-03-16T14:29:17Z</time>
      </trkpt>
      <trkpt lat="44.32172" lon="5.95965">
        <ele>808</ele>
        <time>2019-03-16T14:29:18Z</time>
      </trkpt>
      <trkpt lat="44.32176" lon="5.95967">
        <ele>808</ele>
        <time>2019-03-16T14:29:19Z</time>
      </trkpt>
      <trkpt lat="44.3218" lon="5.95968">
        <ele>808</ele>
        <time>2019-03-16T14:29:20Z</time>
      </trkpt>
      <trkpt lat="44.32183" lon="5.9597">
        <ele>808</ele>
        <time>2019-03-16T14:29:21Z</time>
      </trkpt>
      <trkpt lat="44.32186" lon="5.95973">
        <ele>808</ele>
        <time>2019-03-16T14:29:22Z</time>
      </trkpt>
      <trkpt lat="44.32189" lon="5.95977">
        <ele>808</ele>
        <time>2019-03-16T14:29:23Z</time>
      </trkpt>
      <trkpt lat="44.32193" lon="5.95982">
        <ele>808</ele>
        <time>2019-03-16T14:29:24Z</time>
      </trkpt>
      <trkpt lat="44.32196" lon="5.95986">
        <ele>808</ele>
        <time>2019-03-16T14:29:25Z</time>
      </trkpt>
      <trkpt lat="44.32199" lon="5.95991">
        <ele>808</ele>
        <time>2019-03-16T14:29:26Z</time>
      </trkpt>
      <trkpt lat="44.32202" lon="5.95996">
        <ele>808</ele>
        <time>2019-03-16T14:29:27Z</time>
      </trkpt>
      <trkpt lat="44.32205" lon="5.96">
        <ele>808</ele>
        <time>2019-03-16T14:29:28Z</time>
      </trkpt>
      <trkpt lat="44.32208" lon="5.96005">
        <ele>808</ele>
        <time>2019-03-16T14:29:29Z</time>
      </trkpt>
      <trkpt lat="44.32211" lon="5.96011">
        <ele>808</ele>
        <time>2019-03-16T14:29:30Z</time>
      </trkpt>
      <trkpt lat="44.32214" lon="5.96016">
        <ele>808</ele>
        <time>2019-03-16T14:29:31Z</time>
      </trkpt>
      <trkpt lat="44.32217" lon="5.96021">
        <ele>808</ele>
        <time>2019-03-16T14:29:32Z</time>
      </trkpt>
      <trkpt lat="44.3222" lon="5.96027">
        <ele>808</ele>
        <time>2019-03-16T14:29:33Z</time>
      </trkpt>
      <trkpt lat="44.32223" lon="5.96032">
        <ele>808</ele>
        <time>2019-03-16T14:29:34Z</time>
      </trkpt>
      <trkpt lat="44.32226" lon="5.96037">
        <ele>808</ele>
        <time>2019-03-16T14:29:35Z</time>
      </trkpt>
      <trkpt lat="44.32229" lon="5.96042">
        <ele>808</ele>
        <time>2019-03-16T14:29:36Z</time>
      </trkpt>
      <trkpt lat="44.32233" lon="5.96047">
        <ele>808</ele>
        <time>2019-03-16T14:29:37Z</time>
      </trkpt>
      <trkpt lat="44.32236" lon="5.96052">
        <ele>808</ele>
        <time>2019-03-16T14:29:38Z</time>
      </trkpt>
      <trkpt lat="44.3224" lon="5.96056">
        <ele>808</ele>
        <time>2019-03-16T14:29:39Z</time>
      </trkpt>
      <trkpt lat="44.32244" lon="5.96061">
        <ele>808</ele>
        <time>2019-03-16T14:29:40Z</time>
      </trkpt>
      <trkpt lat="44.32248" lon="5.96064">
        <ele>808</ele>
        <time>2019-03-16T14:29:41Z</time>
      </trkpt>
      <trkpt lat="44.32252" lon="5.96067">
        <ele>808</ele>
        <time>2019-03-16T14:29:42Z</time>
      </trkpt>
      <trkpt lat="44.32257" lon="5.96069">
        <ele>808</ele>
        <time>2019-03-16T14:29:43Z</time>
      </trkpt>
      <trkpt lat="44.32262" lon="5.96071">
        <ele>808</ele>
        <time>2019-03-16T14:29:44Z</time>
      </trkpt>
      <trkpt lat="44.32266" lon="5.96073">
        <ele>808</ele>
        <time>2019-03-16T14:29:45Z</time>
      </trkpt>
      <trkpt lat="44.32271" lon="5.96074">
        <ele>808</ele>
        <time>2019-03-16T14:29:46Z</time>
      </trkpt>
      <trkpt lat="44.32276" lon="5.96075">
        <ele>808</ele>
        <time>2019-03-16T14:29:47Z</time>
      </trkpt>
      <trkpt lat="44.32281" lon="5.96075">
        <ele>808</ele>
        <time>2019-03-16T14:29:48Z</time>
      </trkpt>
      <trkpt lat="44.32285" lon="5.96076">
        <ele>808</ele>
        <time>2019-03-16T14:29:49Z</time>
      </trkpt>
      <trkpt lat="44.3229" lon="5.96076">
        <ele>808</ele>
        <time>2019-03-16T14:29:50Z</time>
      </trkpt>
      <trkpt lat="44.32294" lon="5.96077">
        <ele>808</ele>
        <time>2019-03-16T14:29:51Z</time>
      </trkpt>
      <trkpt lat="44.32299" lon="5.96078">
        <ele>808</ele>
        <time>2019-03-16T14:29:52Z</time>
      </trkpt>
      <trkpt lat="44.32303" lon="5.96079">
        <ele>808</ele>
        <time>2019-03-16T14:29:53Z</time>
      </trkpt>
      <trkpt lat="44.32308" lon="5.96081">
        <ele>808</ele>
        <time>2019-03-16T14:29:54Z</time>
      </trkpt>
      <trkpt lat="44.32312" lon="5.96085">
        <ele>808</ele>
        <time>2019-03-16T14:29:55Z</time>
      </trkpt>
      <trkpt lat="44.32315" lon="5.96089">
        <ele>808</ele>
        <time>2019-03-16T14:29:56Z</time>
      </trkpt>
      <trkpt lat="44.32317" lon="5.96095">
        <ele>808</ele>
        <time>2019-03-16T14:29:57Z</time>
      </trkpt>
      <trkpt lat="44.32318" lon="5.96102">
        <ele>808</ele>
        <time>2019-03-16T14:29:58Z</time>
      </trkpt>
      <trkpt lat="44.32318" lon="5.96109">
        <ele>808</ele>
        <time>2019-03-16T14:29:59Z</time>
      </trkpt>
      <trkpt lat="44.32319" lon="5.96116">
        <ele>808</ele>
        <time>2019-03-16T14:30:00Z</time>
      </trkpt>
      <trkpt lat="44.3232" lon="5.96123">
        <ele>808</ele>
        <time>2019-03-16T14:30:01Z</time>
      </trkpt>
      <trkpt lat="44.3232" lon="5.96131">
        <ele>808</ele>
        <time>2019-03-16T14:30:02Z</time>
      </trkpt>
      <trkpt lat="44.32322" lon="5.96138">
        <ele>808</ele>
        <time>2019-03-16T14:30:03Z</time>
      </trkpt>
      <trkpt lat="44.32324" lon="5.96145">
        <ele>808</ele>
        <time>2019-03-16T14:30:04Z</time>
      </trkpt>
      <trkpt lat="44.32327" lon="5.96152">
        <ele>808</ele>
        <time>2019-03-16T14:30:05Z</time>
      </trkpt>
      <trkpt lat="44.3233" lon="5.96158">
        <ele>808</ele>
        <time>2019-03-16T14:30:06Z</time>
      </trkpt>
      <trkpt lat="44.32334" lon="5.96164">
        <ele>808</ele>
        <time>2019-03-16T14:30:07Z</time>
      </trkpt>
      <trkpt lat="44.32338" lon="5.96169">
        <ele>808</ele>
        <time>2019-03-16T14:30:08Z</time>
      </trkpt>
      <trkpt lat="44.32342" lon="5.96175">
        <ele>808</ele>
        <time>2019-03-16T14:30:09Z</time>
      </trkpt>
      <trkpt lat="44.32346" lon="5.9618">
        <ele>808</ele>
        <time>2019-03-16T14:30:10Z</time>
      </trkpt>
      <trkpt lat="44.32351" lon="5.96185">
        <ele>808</ele>
        <time>2019-03-16T14:30:11Z</time>
      </trkpt>
      <trkpt lat="44.32355" lon="5.96191">
        <ele>808</ele>
        <time>2019-03-16T14:30:12Z</time>
      </trkpt>
      <trkpt lat="44.32359" lon="5.96196">
        <ele>808</ele>
        <time>2019-03-16T14:30:13Z</time>
      </trkpt>
      <trkpt lat="44.32363" lon="5.96202">
        <ele>808</ele>
        <time>2019-03-16T14:30:14Z</time>
      </trkpt>
      <trkpt lat="44.32368" lon="5.96207">
        <ele>808</ele>
        <time>2019-03-16T14:30:15Z</time>
      </trkpt>
      <trkpt lat="44.32372" lon="5.96212">
        <ele>808</ele>
        <time>2019-03-16T14:30:16Z</time>
      </trkpt>
      <trkpt lat="44.32377" lon="5.96218">
        <ele>808</ele>
        <time>2019-03-16T14:30:17Z</time>
      </trkpt>
      <trkpt lat="44.32381" lon="5.96223">
        <ele>808</ele>
        <time>2019-03-16T14:30:18Z</time>
      </trkpt>
      <trkpt lat="44.32386" lon="5.96229">
        <ele>808</ele>
        <time>2019-03-16T14:30:19Z</time>
      </trkpt>
      <trkpt lat="44.3239" lon="5.96235">
        <ele>808</ele>
        <time>2019-03-16T14:30:20Z</time>
      </trkpt>
      <trkpt lat="44.32395" lon="5.96241">
        <ele>808</ele>
        <time>2019-03-16T14:30:21Z</time>
      </trkpt>
      <trkpt lat="44.32399" lon="5.96247">
        <ele>808</ele>
        <time>2019-03-16T14:30:22Z</time>
      </trkpt>
      <trkpt lat="44.32404" lon="5.96252">
        <ele>808</ele>
        <time>2019-03-16T14:30:23Z</time>
      </trkpt>
      <trkpt lat="44.32408" lon="5.96258">
        <ele>808</ele>
        <time>2019-03-16T14:30:24Z</time>
      </trkpt>
      <trkpt lat="44.32413" lon="5.96264">
        <ele>808</ele>
        <time>2019-03-16T14:30:25Z</time>
      </trkpt>
      <trkpt lat="44.32417" lon="5.9627">
        <ele>808</ele>
        <time>2019-03-16T14:30:26Z</time>
      </trkpt>
      <trkpt lat="44.32422" lon="5.96275">
        <ele>808</ele>
        <time>2019-03-16T14:30:27Z</time>
      </trkpt>
      <trkpt lat="44.32426" lon="5.96281">
        <ele>808</ele>
        <time>2019-03-16T14:30:28Z</time>
      </trkpt>
      <trkpt lat="44.32431" lon="5.96287">
        <ele>808</ele>
        <time>2019-03-16T14:30:29Z</time>
      </trkpt>
      <trkpt lat="44.32436" lon="5.96293">
        <ele>808</ele>
        <time>2019-03-16T14:30:30Z</time>
      </trkpt>
      <trkpt lat="44.32441" lon="5.96299">
        <ele>808</ele>
        <time>2019-03-16T14:30:31Z</time>
      </trkpt>
      <trkpt lat="44.32446" lon="5.96305">
        <ele>808</ele>
        <time>2019-03-16T14:30:32Z</time>
      </trkpt>
      <trkpt lat="44.3245" lon="5.96311">
        <ele>808</ele>
        <time>2019-03-16T14:30:33Z</time>
      </trkpt>
      <trkpt lat="44.32454" lon="5.96317">
        <ele>808</ele>
        <time>2019-03-16T14:30:34Z</time>
      </trkpt>
      <trkpt lat="44.32458" lon="5.96322">
        <ele>808</ele>
        <time>2019-03-16T14:30:35Z</time>
      </trkpt>
      <trkpt lat="44.32462" lon="5.96328">
        <ele>808</ele>
        <time>2019-03-16T14:30:36Z</time>
      </trkpt>
      <trkpt lat="44.32465" lon="5.96333">
        <ele>808</ele>
        <time>2019-03-16T14:30:37Z</time>
      </trkpt>
      <trkpt lat="44.32469" lon="5.96338">
        <ele>808</ele>
        <time>2019-03-16T14:30:38Z</time>
      </trkpt>
      <trkpt lat="44.32472" lon="5.96344">
        <ele>808</ele>
        <time>2019-03-16T14:30:39Z</time>
      </trkpt>
      <trkpt lat="44.32475" lon="5.96348">
        <ele>808</ele>
        <time>2019-03-16T14:30:40Z</time>
      </trkpt>
      <trkpt lat="44.32479" lon="5.96353">
        <ele>808</ele>
        <time>2019-03-16T14:30:41Z</time>
      </trkpt>
      <trkpt lat="44.32482" lon="5.96359">
        <ele>808</ele>
        <time>2019-03-16T14:30:42Z</time>
      </trkpt>
      <trkpt lat="44.32485" lon="5.96364">
        <ele>808</ele>
        <time>2019-03-16T14:30:43Z</time>
      </trkpt>
      <trkpt lat="44.32488" lon="5.96369">
        <ele>808</ele>
        <time>2019-03-16T14:30:44Z</time>
      </trkpt>
      <trkpt lat="44.32491" lon="5.96373">
        <ele>808</ele>
        <time>2019-03-16T14:30:45Z</time>
      </trkpt>
      <trkpt lat="44.32494" lon="5.96378">
        <ele>808</ele>
        <time>2019-03-16T14:30:46Z</time>
      </trkpt>
      <trkpt lat="44.32497" lon="5.96382">
        <ele>808</ele>
        <time>2019-03-16T14:30:47Z</time>
      </trkpt>
      <trkpt lat="44.325" lon="5.96387">
        <ele>808</ele>
        <time>2019-03-16T14:30:48Z</time>
      </trkpt>
      <trkpt lat="44.32503" lon="5.96391">
        <ele>808</ele>
        <time>2019-03-16T14:30:49Z</time>
      </trkpt>
      <trkpt lat="44.32506" lon="5.96395">
        <ele>808</ele>
        <time>2019-03-16T14:30:50Z</time>
      </trkpt>
      <trkpt lat="44.32509" lon="5.96399">
        <ele>808</ele>
        <time>2019-03-16T14:30:51Z</time>
      </trkpt>
      <trkpt lat="44.32513" lon="5.96404">
        <ele>808</ele>
        <time>2019-03-16T14:30:52Z</time>
      </trkpt>
      <trkpt lat="44.32516" lon="5.96407">
        <ele>808</ele>
        <time>2019-03-16T14:30:53Z</time>
      </trkpt>
      <trkpt lat="44.3252" lon="5.96411">
        <ele>808</ele>
        <time>2019-03-16T14:30:54Z</time>
      </trkpt>
      <trkpt lat="44.32524" lon="5.96414">
        <ele>808</ele>
        <time>2019-03-16T14:30:55Z</time>
      </trkpt>
      <trkpt lat="44.32528" lon="5.96416">
        <ele>808</ele>
        <time>2019-03-16T14:30:56Z</time>
      </trkpt>
      <trkpt lat="44.32532" lon="5.96418">
        <ele>808</ele>
        <time>2019-03-16T14:30:57Z</time>
      </trkpt>
      <trkpt lat="44.32537" lon="5.9642">
        <ele>808</ele>
        <time>2019-03-16T14:30:58Z</time>
      </trkpt>
      <trkpt lat="44.32541" lon="5.96421">
        <ele>808</ele>
        <time>2019-03-16T14:30:59Z</time>
      </trkpt>
      <trkpt lat="44.32545" lon="5.96422">
        <ele>808</ele>
        <time>2019-03-16T14:31:00Z</time>
      </trkpt>
      <trkpt lat="44.3255" lon="5.96422">
        <ele>808</ele>
        <time>2019-03-16T14:31:01Z</time>
      </trkpt>
      <trkpt lat="44.32554" lon="5.96422">
        <ele>808</ele>
        <time>2019-03-16T14:31:02Z</time>
      </trkpt>
      <trkpt lat="44.32558" lon="5.96422">
        <ele>808</ele>
        <time>2019-03-16T14:31:03Z</time>
      </trkpt>
      <trkpt lat="44.32563" lon="5.96421">
        <ele>808</ele>
        <time>2019-03-16T14:31:04Z</time>
      </trkpt>
      <trkpt lat="44.32567" lon="5.9642">
        <ele>808</ele>
        <time>2019-03-16T14:31:05Z</time>
      </trkpt>
      <trkpt lat="44.32571" lon="5.96419">
        <ele>808</ele>
        <time>2019-03-16T14:31:06Z</time>
      </trkpt>
      <trkpt lat="44.32576" lon="5.96417">
        <ele>808</ele>
        <time>2019-03-16T14:31:07Z</time>
      </trkpt>
      <trkpt lat="44.3258" lon="5.96415">
        <ele>808</ele>
        <time>2019-03-16T14:31:08Z</time>
      </trkpt>
      <trkpt lat="44.32584" lon="5.96412">
        <ele>808</ele>
        <time>2019-03-16T14:31:09Z</time>
      </trkpt>
      <trkpt lat="44.32588" lon="5.9641">
        <ele>808</ele>
        <time>2019-03-16T14:31:10Z</time>
      </trkpt>
      <trkpt lat="44.32592" lon="5.96408">
        <ele>808</ele>
        <time>2019-03-16T14:31:11Z</time>
      </trkpt>
      <trkpt lat="44.32596" lon="5.96406">
        <ele>808</ele>
        <time>2019-03-16T14:31:12Z</time>
      </trkpt>
      <trkpt lat="44.326" lon="5.96403">
        <ele>808</ele>
        <time>2019-03-16T14:31:13Z</time>
      </trkpt>
      <trkpt lat="44.32604" lon="5.96401">
        <ele>808</ele>
        <time>2019-03-16T14:31:14Z</time>
      </trkpt>
      <trkpt lat="44.32608" lon="5.96399">
        <ele>808</ele>
        <time>2019-03-16T14:31:15Z</time>
      </trkpt>
      <trkpt lat="44.32612" lon="5.96397">
        <ele>808</ele>
        <time>2019-03-16T14:31:16Z</time>
      </trkpt>
      <trkpt lat="44.32616" lon="5.96395">
        <ele>808</ele>
        <time>2019-03-16T14:31:17Z</time>
      </trkpt>
      <trkpt lat="44.32619" lon="5.96393">
        <ele>808</ele>
        <time>2019-03-16T14:31:18Z</time>
      </trkpt>
      <trkpt lat="44.32623" lon="5.9639">
        <ele>809</ele>
        <time>2019-03-16T14:31:19Z</time>
      </trkpt>
      <trkpt lat="44.32627" lon="5.96387">
        <ele>809</ele>
        <time>2019-03-16T14:31:20Z</time>
      </trkpt>
      <trkpt lat="44.32631" lon="5.96385">
        <ele>809</ele>
        <time>2019-03-16T14:31:21Z</time>
      </trkpt>
      <trkpt lat="44.32635" lon="5.96382">
        <ele>809</ele>
        <time>2019-03-16T14:31:22Z</time>
      </trkpt>
      <trkpt lat="44.32639" lon="5.9638">
        <ele>809</ele>
        <time>2019-03-16T14:31:23Z</time>
      </trkpt>
      <trkpt lat="44.32644" lon="5.96378">
        <ele>809</ele>
        <time>2019-03-16T14:31:24Z</time>
      </trkpt>
      <trkpt lat="44.32648" lon="5.96376">
        <ele>809</ele>
        <time>2019-03-16T14:31:25Z</time>
      </trkpt>
      <trkpt lat="44.32652" lon="5.96374">
        <ele>809</ele>
        <time>2019-03-16T14:31:26Z</time>
      </trkpt>
      <trkpt lat="44.32656" lon="5.96373">
        <ele>810</ele>
        <time>2019-03-16T14:31:27Z</time>
      </trkpt>
      <trkpt lat="44.32661" lon="5.96371">
        <ele>810</ele>
        <time>2019-03-16T14:31:28Z</time>
      </trkpt>
      <trkpt lat="44.32665" lon="5.9637">
        <ele>810</ele>
        <time>2019-03-16T14:31:29Z</time>
      </trkpt>
      <trkpt lat="44.32669" lon="5.96369">
        <ele>810</ele>
        <time>2019-03-16T14:31:30Z</time>
      </trkpt>
      <trkpt lat="44.32673" lon="5.96369">
        <ele>810</ele>
        <time>2019-03-16T14:31:31Z</time>
      </trkpt>
      <trkpt lat="44.32677" lon="5.96368">
        <ele>810</ele>
        <time>2019-03-16T14:31:32Z</time>
      </trkpt>
      <trkpt lat="44.32682" lon="5.96368">
        <ele>810</ele>
        <time>2019-03-16T14:31:33Z</time>
      </trkpt>
      <trkpt lat="44.32686" lon="5.96369">
        <ele>810</ele>
        <time>2019-03-16T14:31:34Z</time>
      </trkpt>
      <trkpt lat="44.3269" lon="5.96369">
        <ele>810</ele>
        <time>2019-03-16T14:31:35Z</time>
      </trkpt>
      <trkpt lat="44.32694" lon="5.96369">
        <ele>810</ele>
        <time>2019-03-16T14:31:36Z</time>
      </trkpt>
      <trkpt lat="44.32698" lon="5.96369">
        <ele>810</ele>
        <time>2019-03-16T14:31:37Z</time>
      </trkpt>
      <trkpt lat="44.32703" lon="5.96369">
        <ele>810</ele>
        <time>2019-03-16T14:31:38Z</time>
      </trkpt>
      <trkpt lat="44.32707" lon="5.96369">
        <ele>810</ele>
        <time>2019-03-16T14:31:39Z</time>
      </trkpt>
      <trkpt lat="44.32711" lon="5.96369">
        <ele>810</ele>
        <time>2019-03-16T14:31:40Z</time>
      </trkpt>
      <trkpt lat="44.32716" lon="5.96369">
        <ele>810</ele>
        <time>2019-03-16T14:31:41Z</time>
      </trkpt>
      <trkpt lat="44.3272" lon="5.96369">
        <ele>810</ele>
        <time>2019-03-16T14:31:42Z</time>
      </trkpt>
      <trkpt lat="44.32724" lon="5.96369">
        <ele>810</ele>
        <time>2019-03-16T14:31:43Z</time>
      </trkpt>
      <trkpt lat="44.32729" lon="5.96369">
        <ele>810</ele>
        <time>2019-03-16T14:31:44Z</time>
      </trkpt>
      <trkpt lat="44.32733" lon="5.96369">
        <ele>810</ele>
        <time>2019-03-16T14:31:45Z</time>
      </trkpt>
      <trkpt lat="44.32737" lon="5.96369">
        <ele>810</ele>
        <time>2019-03-16T14:31:46Z</time>
      </trkpt>
      <trkpt lat="44.32742" lon="5.9637">
        <ele>810</ele>
        <time>2019-03-16T14:31:47Z</time>
      </trkpt>
      <trkpt lat="44.32746" lon="5.9637">
        <ele>810</ele>
        <time>2019-03-16T14:31:48Z</time>
      </trkpt>
      <trkpt lat="44.3275" lon="5.96372">
        <ele>810</ele>
        <time>2019-03-16T14:31:49Z</time>
      </trkpt>
      <trkpt lat="44.32754" lon="5.96373">
        <ele>810</ele>
        <time>2019-03-16T14:31:50Z</time>
      </trkpt>
      <trkpt lat="44.32758" lon="5.96375">
        <ele>810</ele>
        <time>2019-03-16T14:31:51Z</time>
      </trkpt>
      <trkpt lat="44.32762" lon="5.96378">
        <ele>810</ele>
        <time>2019-03-16T14:31:52Z</time>
      </trkpt>
      <trkpt lat="44.32765" lon="5.96381">
        <ele>811</ele>
        <time>2019-03-16T14:31:53Z</time>
      </trkpt>
      <trkpt lat="44.32769" lon="5.96384">
        <ele>811</ele>
        <time>2019-03-16T14:31:54Z</time>
      </trkpt>
      <trkpt lat="44.32772" lon="5.96388">
        <ele>811</ele>
        <time>2019-03-16T14:31:55Z</time>
      </trkpt>
      <trkpt lat="44.32775" lon="5.96392">
        <ele>811</ele>
        <time>2019-03-16T14:31:56Z</time>
      </trkpt>
      <trkpt lat="44.32778" lon="5.96397">
        <ele>811</ele>
        <time>2019-03-16T14:31:57Z</time>
      </trkpt>
      <trkpt lat="44.3278" lon="5.96401">
        <ele>811</ele>
        <time>2019-03-16T14:31:58Z</time>
      </trkpt>
      <trkpt lat="44.32783" lon="5.96406">
        <ele>811</ele>
        <time>2019-03-16T14:31:59Z</time>
      </trkpt>
      <trkpt lat="44.32786" lon="5.96411">
        <ele>811</ele>
        <time>2019-03-16T14:32:00Z</time>
      </trkpt>
      <trkpt lat="44.32789" lon="5.96415">
        <ele>811</ele>
        <time>2019-03-16T14:32:01Z</time>
      </trkpt>
      <trkpt lat="44.32791" lon="5.9642">
        <ele>811</ele>
        <time>2019-03-16T14:32:02Z</time>
      </trkpt>
      <trkpt lat="44.32794" lon="5.96424">
        <ele>812</ele>
        <time>2019-03-16T14:32:03Z</time>
      </trkpt>
      <trkpt lat="44.32796" lon="5.96429">
        <ele>812</ele>
        <time>2019-03-16T14:32:04Z</time>
      </trkpt>
      <trkpt lat="44.32799" lon="5.96434">
        <ele>812</ele>
        <time>2019-03-16T14:32:05Z</time>
      </trkpt>
      <trkpt lat="44.32801" lon="5.96438">
        <ele>812</ele>
        <time>2019-03-16T14:32:06Z</time>
      </trkpt>
      <trkpt lat="44.32804" lon="5.96443">
        <ele>812</ele>
        <time>2019-03-16T14:32:07Z</time>
      </trkpt>
      <trkpt lat="44.32807" lon="5.96447">
        <ele>812</ele>
        <time>2019-03-16T14:32:08Z</time>
      </trkpt>
      <trkpt lat="44.32809" lon="5.96452">
        <ele>813</ele>
        <time>2019-03-16T14:32:09Z</time>
      </trkpt>
      <trkpt lat="44.32812" lon="5.96456">
        <ele>813</ele>
        <time>2019-03-16T14:32:10Z</time>
      </trkpt>
      <trkpt lat="44.32814" lon="5.9646">
        <ele>813</ele>
        <time>2019-03-16T14:32:11Z</time>
      </trkpt>
      <trkpt lat="44.32817" lon="5.96464">
        <ele>813</ele>
        <time>2019-03-16T14:32:12Z</time>
      </trkpt>
      <trkpt lat="44.3282" lon="5.96468">
        <ele>814</ele>
        <time>2019-03-16T14:32:13Z</time>
      </trkpt>
      <trkpt lat="44.32822" lon="5.96473">
        <ele>814</ele>
        <time>2019-03-16T14:32:14Z</time>
      </trkpt>
      <trkpt lat="44.32825" lon="5.96477">
        <ele>814</ele>
        <time>2019-03-16T14:32:15Z</time>
      </trkpt>
      <trkpt lat="44.32828" lon="5.96481">
        <ele>814</ele>
        <time>2019-03-16T14:32:16Z</time>
      </trkpt>
      <trkpt lat="44.32831" lon="5.96484">
        <ele>815</ele>
        <time>2019-03-16T14:32:17Z</time>
      </trkpt>
      <trkpt lat="44.32834" lon="5.96488">
        <ele>815</ele>
        <time>2019-03-16T14:32:18Z</time>
      </trkpt>
      <trkpt lat="44.32837" lon="5.96491">
        <ele>815</ele>
        <time>2019-03-16T14:32:19Z</time>
      </trkpt>
      <trkpt lat="44.3284" lon="5.96495">
        <ele>815</ele>
        <time>2019-03-16T14:32:20Z</time>
      </trkpt>
      <trkpt lat="44.32844" lon="5.96498">
        <ele>815</ele>
        <time>2019-03-16T14:32:21Z</time>
      </trkpt>
      <trkpt lat="44.32847" lon="5.96502">
        <ele>815</ele>
        <time>2019-03-16T14:32:22Z</time>
      </trkpt>
      <trkpt lat="44.3285" lon="5.96506">
        <ele>815</ele>
        <time>2019-03-16T14:32:23Z</time>
      </trkpt>
      <trkpt lat="44.32854" lon="5.96509">
        <ele>815</ele>
        <time>2019-03-16T14:32:24Z</time>
      </trkpt>
      <trkpt lat="44.32857" lon="5.96513">
        <ele>815</ele>
        <time>2019-03-16T14:32:25Z</time>
      </trkpt>
      <trkpt lat="44.32861" lon="5.96516">
        <ele>815</ele>
        <time>2019-03-16T14:32:26Z</time>
      </trkpt>
      <trkpt lat="44.32865" lon="5.9652">
        <ele>815</ele>
        <time>2019-03-16T14:32:27Z</time>
      </trkpt>
      <trkpt lat="44.32868" lon="5.96523">
        <ele>815</ele>
        <time>2019-03-16T14:32:28Z</time>
      </trkpt>
      <trkpt lat="44.32872" lon="5.96527">
        <ele>815</ele>
        <time>2019-03-16T14:32:29Z</time>
      </trkpt>
      <trkpt lat="44.32875" lon="5.9653">
        <ele>815</ele>
        <time>2019-03-16T14:32:30Z</time>
      </trkpt>
      <trkpt lat="44.32879" lon="5.96534">
        <ele>815</ele>
        <time>2019-03-16T14:32:31Z</time>
      </trkpt>
      <trkpt lat="44.32883" lon="5.96538">
        <ele>815</ele>
        <time>2019-03-16T14:32:32Z</time>
      </trkpt>
      <trkpt lat="44.32886" lon="5.96541">
        <ele>815</ele>
        <time>2019-03-16T14:32:33Z</time>
      </trkpt>
      <trkpt lat="44.3289" lon="5.96545">
        <ele>815</ele>
        <time>2019-03-16T14:32:34Z</time>
      </trkpt>
      <trkpt lat="44.32893" lon="5.96548">
        <ele>815</ele>
        <time>2019-03-16T14:32:35Z</time>
      </trkpt>
      <trkpt lat="44.32897" lon="5.96552">
        <ele>815</ele>
        <time>2019-03-16T14:32:36Z</time>
      </trkpt>
      <trkpt lat="44.32901" lon="5.96556">
        <ele>815</ele>
        <time>2019-03-16T14:32:37Z</time>
      </trkpt>
      <trkpt lat="44.32904" lon="5.96559">
        <ele>816</ele>
        <time>2019-03-16T14:32:38Z</time>
      </trkpt>
      <trkpt lat="44.32908" lon="5.96563">
        <ele>816</ele>
        <time>2019-03-16T14:32:39Z</time>
      </trkpt>
      <trkpt lat="44.32912" lon="5.96567">
        <ele>816</ele>
        <time>2019-03-16T14:32:40Z</time>
      </trkpt>
      <trkpt lat="44.32915" lon="5.9657">
        <ele>816</ele>
        <time>2019-03-16T14:32:41Z</time>
      </trkpt>
      <trkpt lat="44.32919" lon="5.96573">
        <ele>816</ele>
        <time>2019-03-16T14:32:42Z</time>
      </trkpt>
      <trkpt lat="44.32922" lon="5.96576">
        <ele>816</ele>
        <time>2019-03-16T14:32:43Z</time>
      </trkpt>
      <trkpt lat="44.32925" lon="5.96579">
        <ele>816</ele>
        <time>2019-03-16T14:32:44Z</time>
      </trkpt>
      <trkpt lat="44.32929" lon="5.9658">
        <ele>816</ele>
        <time>2019-03-16T14:32:45Z</time>
      </trkpt>
      <trkpt lat="44.32933" lon="5.96582">
        <ele>816</ele>
        <time>2019-03-16T14:32:46Z</time>
      </trkpt>
      <trkpt lat="44.32937" lon="5.96583">
        <ele>816</ele>
        <time>2019-03-16T14:32:47Z</time>
      </trkpt>
      <trkpt lat="44.3294" lon="5.96583">
        <ele>816</ele>
        <time>2019-03-16T14:32:48Z</time>
      </trkpt>
      <trkpt lat="44.32944" lon="5.96582">
        <ele>816</ele>
        <time>2019-03-16T14:32:49Z</time>
      </trkpt>
      <trkpt lat="44.32948" lon="5.96581">
        <ele>816</ele>
        <time>2019-03-16T14:32:50Z</time>
      </trkpt>
      <trkpt lat="44.32951" lon="5.96579">
        <ele>816</ele>
        <time>2019-03-16T14:32:51Z</time>
      </trkpt>
      <trkpt lat="44.32955" lon="5.96578">
        <ele>816</ele>
        <time>2019-03-16T14:32:52Z</time>
      </trkpt>
      <trkpt lat="44.32959" lon="5.96575">
        <ele>817</ele>
        <time>2019-03-16T14:32:53Z</time>
      </trkpt>
      <trkpt lat="44.32962" lon="5.96573">
        <ele>817</ele>
        <time>2019-03-16T14:32:54Z</time>
      </trkpt>
      <trkpt lat="44.32966" lon="5.96571">
        <ele>817</ele>
        <time>2019-03-16T14:32:55Z</time>
      </trkpt>
      <trkpt lat="44.3297" lon="5.96568">
        <ele>817</ele>
        <time>2019-03-16T14:32:56Z</time>
      </trkpt>
      <trkpt lat="44.32973" lon="5.96566">
        <ele>817</ele>
        <time>2019-03-16T14:32:57Z</time>
      </trkpt>
      <trkpt lat="44.32976" lon="5.96563">
        <ele>817</ele>
        <time>2019-03-16T14:32:58Z</time>
      </trkpt>
      <trkpt lat="44.32979" lon="5.9656">
        <ele>817</ele>
        <time>2019-03-16T14:32:59Z</time>
      </trkpt>
      <trkpt lat="44.32982" lon="5.96557">
        <ele>817</ele>
        <time>2019-03-16T14:33:00Z</time>
      </trkpt>
      <trkpt lat="44.32986" lon="5.96554">
        <ele>817</ele>
        <time>2019-03-16T14:33:01Z</time>
      </trkpt>
      <trkpt lat="44.32989" lon="5.9655">
        <ele>817</ele>
        <time>2019-03-16T14:33:02Z</time>
      </trkpt>
      <trkpt lat="44.32992" lon="5.96546">
        <ele>817</ele>
        <time>2019-03-16T14:33:03Z</time>
      </trkpt>
      <trkpt lat="44.32995" lon="5.96543">
        <ele>817</ele>
        <time>2019-03-16T14:33:04Z</time>
      </trkpt>
      <trkpt lat="44.32998" lon="5.96539">
        <ele>817</ele>
        <time>2019-03-16T14:33:05Z</time>
      </trkpt>
      <trkpt lat="44.33001" lon="5.96536">
        <ele>817</ele>
        <time>2019-03-16T14:33:06Z</time>
      </trkpt>
      <trkpt lat="44.33005" lon="5.96532">
        <ele>817</ele>
        <time>2019-03-16T14:33:07Z</time>
      </trkpt>
      <trkpt lat="44.33008" lon="5.96529">
        <ele>817</ele>
        <time>2019-03-16T14:33:08Z</time>
      </trkpt>
      <trkpt lat="44.33012" lon="5.96527">
        <ele>817</ele>
        <time>2019-03-16T14:33:09Z</time>
      </trkpt>
      <trkpt lat="44.33016" lon="5.96525">
        <ele>817</ele>
        <time>2019-03-16T14:33:10Z</time>
      </trkpt>
      <trkpt lat="44.3302" lon="5.96523">
        <ele>817</ele>
        <time>2019-03-16T14:33:11Z</time>
      </trkpt>
      <trkpt lat="44.33024" lon="5.96523">
        <ele>817</ele>
        <time>2019-03-16T14:33:12Z</time>
      </trkpt>
      <trkpt lat="44.33028" lon="5.96523">
        <ele>817</ele>
        <time>2019-03-16T14:33:13Z</time>
      </trkpt>
      <trkpt lat="44.33033" lon="5.96524">
        <ele>817</ele>
        <time>2019-03-16T14:33:14Z</time>
      </trkpt>
      <trkpt lat="44.33037" lon="5.96525">
        <ele>817</ele>
        <time>2019-03-16T14:33:15Z</time>
      </trkpt>
      <trkpt lat="44.33041" lon="5.96527">
        <ele>817</ele>
        <time>2019-03-16T14:33:16Z</time>
      </trkpt>
      <trkpt lat="44.33046" lon="5.96528">
        <ele>817</ele>
        <time>2019-03-16T14:33:17Z</time>
      </trkpt>
      <trkpt lat="44.3305" lon="5.9653">
        <ele>817</ele>
        <time>2019-03-16T14:33:18Z</time>
      </trkpt>
      <trkpt lat="44.33054" lon="5.96532">
        <ele>817</ele>
        <time>2019-03-16T14:33:19Z</time>
      </trkpt>
      <trkpt lat="44.33059" lon="5.96534">
        <ele>817</ele>
        <time>2019-03-16T14:33:20Z</time>
      </trkpt>
      <trkpt lat="44.33064" lon="5.96535">
        <ele>817</ele>
        <time>2019-03-16T14:33:21Z</time>
      </trkpt>
      <trkpt lat="44.33069" lon="5.96538">
        <ele>817</ele>
        <time>2019-03-16T14:33:22Z</time>
      </trkpt>
      <trkpt lat="44.33074" lon="5.96539">
        <ele>817</ele>
        <time>2019-03-16T14:33:23Z</time>
      </trkpt>
      <trkpt lat="44.33079" lon="5.96542">
        <ele>817</ele>
        <time>2019-03-16T14:33:24Z</time>
      </trkpt>
      <trkpt lat="44.33084" lon="5.96544">
        <ele>817</ele>
        <time>2019-03-16T14:33:25Z</time>
      </trkpt>
      <trkpt lat="44.3309" lon="5.96546">
        <ele>817</ele>
        <time>2019-03-16T14:33:26Z</time>
      </trkpt>
      <trkpt lat="44.33095" lon="5.96549">
        <ele>817</ele>
        <time>2019-03-16T14:33:27Z</time>
      </trkpt>
      <trkpt lat="44.33101" lon="5.96551">
        <ele>817</ele>
        <time>2019-03-16T14:33:28Z</time>
      </trkpt>
      <trkpt lat="44.33106" lon="5.96553">
        <ele>817</ele>
        <time>2019-03-16T14:33:29Z</time>
      </trkpt>
      <trkpt lat="44.33112" lon="5.96555">
        <ele>817</ele>
        <time>2019-03-16T14:33:30Z</time>
      </trkpt>
      <trkpt lat="44.33117" lon="5.96557">
        <ele>817</ele>
        <time>2019-03-16T14:33:31Z</time>
      </trkpt>
      <trkpt lat="44.33123" lon="5.96558">
        <ele>817</ele>
        <time>2019-03-16T14:33:32Z</time>
      </trkpt>
      <trkpt lat="44.33129" lon="5.96559">
        <ele>817</ele>
        <time>2019-03-16T14:33:33Z</time>
      </trkpt>
      <trkpt lat="44.33136" lon="5.96559">
        <ele>817</ele>
        <time>2019-03-16T14:33:34Z</time>
      </trkpt>
      <trkpt lat="44.33142" lon="5.9656">
        <ele>817</ele>
        <time>2019-03-16T14:33:35Z</time>
      </trkpt>
      <trkpt lat="44.33148" lon="5.9656">
        <ele>817</ele>
        <time>2019-03-16T14:33:36Z</time>
      </trkpt>
      <trkpt lat="44.33154" lon="5.9656">
        <ele>817</ele>
        <time>2019-03-16T14:33:37Z</time>
      </trkpt>
      <trkpt lat="44.3316" lon="5.96561">
        <ele>817</ele>
        <time>2019-03-16T14:33:38Z</time>
      </trkpt>
      <trkpt lat="44.33166" lon="5.9656">
        <ele>817</ele>
        <time>2019-03-16T14:33:39Z</time>
      </trkpt>
      <trkpt lat="44.33173" lon="5.9656">
        <ele>817</ele>
        <time>2019-03-16T14:33:40Z</time>
      </trkpt>
      <trkpt lat="44.3318" lon="5.9656">
        <ele>817</ele>
        <time>2019-03-16T14:33:41Z</time>
      </trkpt>
      <trkpt lat="44.33186" lon="5.9656">
        <ele>817</ele>
        <time>2019-03-16T14:33:42Z</time>
      </trkpt>
      <trkpt lat="44.33193" lon="5.9656">
        <ele>817</ele>
        <time>2019-03-16T14:33:43Z</time>
      </trkpt>
      <trkpt lat="44.332" lon="5.9656">
        <ele>817</ele>
        <time>2019-03-16T14:33:44Z</time>
      </trkpt>
      <trkpt lat="44.33206" lon="5.9656">
        <ele>817</ele>
        <time>2019-03-16T14:33:45Z</time>
      </trkpt>
      <trkpt lat="44.33213" lon="5.9656">
        <ele>817</ele>
        <time>2019-03-16T14:33:46Z</time>
      </trkpt>
      <trkpt lat="44.33221" lon="5.96559">
        <ele>817</ele>
        <time>2019-03-16T14:33:47Z</time>
      </trkpt>
      <trkpt lat="44.33228" lon="5.96559">
        <ele>817</ele>
        <time>2019-03-16T14:33:48Z</time>
      </trkpt>
      <trkpt lat="44.33235" lon="5.9656">
        <ele>817</ele>
        <time>2019-03-16T14:33:49Z</time>
      </trkpt>
      <trkpt lat="44.33242" lon="5.96561">
        <ele>817</ele>
        <time>2019-03-16T14:33:50Z</time>
      </trkpt>
      <trkpt lat="44.33249" lon="5.96561">
        <ele>817</ele>
        <time>2019-03-16T14:33:51Z</time>
      </trkpt>
      <trkpt lat="44.33257" lon="5.96562">
        <ele>817</ele>
        <time>2019-03-16T14:33:52Z</time>
      </trkpt>
      <trkpt lat="44.33264" lon="5.96563">
        <ele>817</ele>
        <time>2019-03-16T14:33:53Z</time>
      </trkpt>
      <trkpt lat="44.33271" lon="5.96564">
        <ele>817</ele>
        <time>2019-03-16T14:33:54Z</time>
      </trkpt>
      <trkpt lat="44.33279" lon="5.96565">
        <ele>817</ele>
        <time>2019-03-16T14:33:55Z</time>
      </trkpt>
      <trkpt lat="44.33287" lon="5.96568">
        <ele>817</ele>
        <time>2019-03-16T14:33:56Z</time>
      </trkpt>
      <trkpt lat="44.33294" lon="5.9657">
        <ele>817</ele>
        <time>2019-03-16T14:33:57Z</time>
      </trkpt>
      <trkpt lat="44.33302" lon="5.96573">
        <ele>817</ele>
        <time>2019-03-16T14:33:58Z</time>
      </trkpt>
      <trkpt lat="44.33309" lon="5.96577">
        <ele>817</ele>
        <time>2019-03-16T14:33:59Z</time>
      </trkpt>
      <trkpt lat="44.33316" lon="5.96581">
        <ele>817</ele>
        <time>2019-03-16T14:34:00Z</time>
      </trkpt>
      <trkpt lat="44.33323" lon="5.96586">
        <ele>817</ele>
        <time>2019-03-16T14:34:01Z</time>
      </trkpt>
      <trkpt lat="44.3333" lon="5.9659">
        <ele>817</ele>
        <time>2019-03-16T14:34:02Z</time>
      </trkpt>
      <trkpt lat="44.33336" lon="5.96594">
        <ele>817</ele>
        <time>2019-03-16T14:34:03Z</time>
      </trkpt>
      <trkpt lat="44.33342" lon="5.96599">
        <ele>817</ele>
        <time>2019-03-16T14:34:04Z</time>
      </trkpt>
      <trkpt lat="44.33348" lon="5.96603">
        <ele>817</ele>
        <time>2019-03-16T14:34:05Z</time>
      </trkpt>
      <trkpt lat="44.33354" lon="5.96608">
        <ele>817</ele>
        <time>2019-03-16T14:34:06Z</time>
      </trkpt>
      <trkpt lat="44.3336" lon="5.96612">
        <ele>817</ele>
        <time>2019-03-16T14:34:07Z</time>
      </trkpt>
      <trkpt lat="44.33366" lon="5.96616">
        <ele>817</ele>
        <time>2019-03-16T14:34:08Z</time>
      </trkpt>
      <trkpt lat="44.33371" lon="5.96621">
        <ele>817</ele>
        <time>2019-03-16T14:34:09Z</time>
      </trkpt>
      <trkpt lat="44.33377" lon="5.96625">
        <ele>817</ele>
        <time>2019-03-16T14:34:10Z</time>
      </trkpt>
      <trkpt lat="44.33382" lon="5.96629">
        <ele>817</ele>
        <time>2019-03-16T14:34:11Z</time>
      </trkpt>
      <trkpt lat="44.33388" lon="5.96633">
        <ele>817</ele>
        <time>2019-03-16T14:34:12Z</time>
      </trkpt>
      <trkpt lat="44.33394" lon="5.96638">
        <ele>817</ele>
        <time>2019-03-16T14:34:13Z</time>
      </trkpt>
      <trkpt lat="44.33399" lon="5.96642">
        <ele>816</ele>
        <time>2019-03-16T14:34:14Z</time>
      </trkpt>
      <trkpt lat="44.33405" lon="5.96647">
        <ele>816</ele>
        <time>2019-03-16T14:34:15Z</time>
      </trkpt>
      <trkpt lat="44.3341" lon="5.96651">
        <ele>816</ele>
        <time>2019-03-16T14:34:16Z</time>
      </trkpt>
      <trkpt lat="44.33416" lon="5.96655">
        <ele>816</ele>
        <time>2019-03-16T14:34:17Z</time>
      </trkpt>
      <trkpt lat="44.33421" lon="5.96659">
        <ele>816</ele>
        <time>2019-03-16T14:34:18Z</time>
      </trkpt>
      <trkpt lat="44.33427" lon="5.96664">
        <ele>816</ele>
        <time>2019-03-16T14:34:19Z</time>
      </trkpt>
      <trkpt lat="44.33432" lon="5.96668">
        <ele>816</ele>
        <time>2019-03-16T14:34:20Z</time>
      </trkpt>
      <trkpt lat="44.33438" lon="5.96673">
        <ele>816</ele>
        <time>2019-03-16T14:34:21Z</time>
      </trkpt>
      <trkpt lat="44.33443" lon="5.96678">
        <ele>816</ele>
        <time>2019-03-16T14:34:22Z</time>
      </trkpt>
      <trkpt lat="44.33448" lon="5.96683">
        <ele>816</ele>
        <time>2019-03-16T14:34:23Z</time>
      </trkpt>
      <trkpt lat="44.33453" lon="5.96688">
        <ele>816</ele>
        <time>2019-03-16T14:34:24Z</time>
      </trkpt>
      <trkpt lat="44.33457" lon="5.96694">
        <ele>816</ele>
        <time>2019-03-16T14:34:25Z</time>
      </trkpt>
      <trkpt lat="44.33461" lon="5.967">
        <ele>816</ele>
        <time>2019-03-16T14:34:26Z</time>
      </trkpt>
      <trkpt lat="44.33465" lon="5.96706">
        <ele>816</ele>
        <time>2019-03-16T14:34:27Z</time>
      </trkpt>
      <trkpt lat="44.33469" lon="5.96713">
        <ele>816</ele>
        <time>2019-03-16T14:34:28Z</time>
      </trkpt>
      <trkpt lat="44.33473" lon="5.9672">
        <ele>816</ele>
        <time>2019-03-16T14:34:29Z</time>
      </trkpt>
      <trkpt lat="44.33476" lon="5.96726">
        <ele>816</ele>
        <time>2019-03-16T14:34:30Z</time>
      </trkpt>
      <trkpt lat="44.3348" lon="5.96733">
        <ele>816</ele>
        <time>2019-03-16T14:34:31Z</time>
      </trkpt>
      <trkpt lat="44.33484" lon="5.96739">
        <ele>816</ele>
        <time>2019-03-16T14:34:32Z</time>
      </trkpt>
      <trkpt lat="44.33489" lon="5.96745">
        <ele>816</ele>
        <time>2019-03-16T14:34:33Z</time>
      </trkpt>
      <trkpt lat="44.33494" lon="5.9675">
        <ele>816</ele>
        <time>2019-03-16T14:34:34Z</time>
      </trkpt>
      <trkpt lat="44.33499" lon="5.96755">
        <ele>816</ele>
        <time>2019-03-16T14:34:35Z</time>
      </trkpt>
      <trkpt lat="44.33504" lon="5.96759">
        <ele>816</ele>
        <time>2019-03-16T14:34:36Z</time>
      </trkpt>
      <trkpt lat="44.33509" lon="5.96763">
        <ele>816</ele>
        <time>2019-03-16T14:34:37Z</time>
      </trkpt>
      <trkpt lat="44.33514" lon="5.96767">
        <ele>816</ele>
        <time>2019-03-16T14:34:38Z</time>
      </trkpt>
      <trkpt lat="44.33519" lon="5.96773">
        <ele>816</ele>
        <time>2019-03-16T14:34:39Z</time>
      </trkpt>
      <trkpt lat="44.33523" lon="5.96779">
        <ele>816</ele>
        <time>2019-03-16T14:34:40Z</time>
      </trkpt>
      <trkpt lat="44.33526" lon="5.96786">
        <ele>816</ele>
        <time>2019-03-16T14:34:41Z</time>
      </trkpt>
      <trkpt lat="44.33529" lon="5.96795">
        <ele>816</ele>
        <time>2019-03-16T14:34:42Z</time>
      </trkpt>
      <trkpt lat="44.3353" lon="5.96803">
        <ele>816</ele>
        <time>2019-03-16T14:34:43Z</time>
      </trkpt>
      <trkpt lat="44.33531" lon="5.9681">
        <ele>816</ele>
        <time>2019-03-16T14:34:44Z</time>
      </trkpt>
      <trkpt lat="44.33532" lon="5.96819">
        <ele>816</ele>
        <time>2019-03-16T14:34:45Z</time>
      </trkpt>
      <trkpt lat="44.33532" lon="5.96827">
        <ele>816</ele>
        <time>2019-03-16T14:34:46Z</time>
      </trkpt>
      <trkpt lat="44.33531" lon="5.96835">
        <ele>816</ele>
        <time>2019-03-16T14:34:47Z</time>
      </trkpt>
      <trkpt lat="44.33531" lon="5.96844">
        <ele>816</ele>
        <time>2019-03-16T14:34:48Z</time>
      </trkpt>
      <trkpt lat="44.33532" lon="5.96852">
        <ele>816</ele>
        <time>2019-03-16T14:34:49Z</time>
      </trkpt>
      <trkpt lat="44.33533" lon="5.9686">
        <ele>816</ele>
        <time>2019-03-16T14:34:50Z</time>
      </trkpt>
      <trkpt lat="44.33536" lon="5.96867">
        <ele>816</ele>
        <time>2019-03-16T14:34:51Z</time>
      </trkpt>
      <trkpt lat="44.33539" lon="5.96874">
        <ele>816</ele>
        <time>2019-03-16T14:34:52Z</time>
      </trkpt>
      <trkpt lat="44.33543" lon="5.9688">
        <ele>816</ele>
        <time>2019-03-16T14:34:53Z</time>
      </trkpt>
      <trkpt lat="44.33547" lon="5.96886">
        <ele>816</ele>
        <time>2019-03-16T14:34:54Z</time>
      </trkpt>
      <trkpt lat="44.33552" lon="5.96891">
        <ele>816</ele>
        <time>2019-03-16T14:34:55Z</time>
      </trkpt>
      <trkpt lat="44.33557" lon="5.96897">
        <ele>816</ele>
        <time>2019-03-16T14:34:56Z</time>
      </trkpt>
      <trkpt lat="44.33562" lon="5.96902">
        <ele>816</ele>
        <time>2019-03-16T14:34:57Z</time>
      </trkpt>
      <trkpt lat="44.33566" lon="5.96908">
        <ele>816</ele>
        <time>2019-03-16T14:34:58Z</time>
      </trkpt>
      <trkpt lat="44.3357" lon="5.96914">
        <ele>816</ele>
        <time>2019-03-16T14:34:59Z</time>
      </trkpt>
      <trkpt lat="44.33573" lon="5.96921">
        <ele>816</ele>
        <time>2019-03-16T14:35:00Z</time>
      </trkpt>
      <trkpt lat="44.33575" lon="5.96928">
        <ele>816</ele>
        <time>2019-03-16T14:35:01Z</time>
      </trkpt>
      <trkpt lat="44.33577" lon="5.96936">
        <ele>816</ele>
        <time>2019-03-16T14:35:02Z</time>
      </trkpt>
      <trkpt lat="44.33577" lon="5.96943">
        <ele>816</ele>
        <time>2019-03-16T14:35:03Z</time>
      </trkpt>
      <trkpt lat="44.33577" lon="5.96951">
        <ele>816</ele>
        <time>2019-03-16T14:35:04Z</time>
      </trkpt>
      <trkpt lat="44.33576" lon="5.96959">
        <ele>816</ele>
        <time>2019-03-16T14:35:05Z</time>
      </trkpt>
      <trkpt lat="44.33576" lon="5.96967">
        <ele>816</ele>
        <time>2019-03-16T14:35:06Z</time>
      </trkpt>
      <trkpt lat="44.33575" lon="5.96975">
        <ele>816</ele>
        <time>2019-03-16T14:35:07Z</time>
      </trkpt>
      <trkpt lat="44.33575" lon="5.96983">
        <ele>816</ele>
        <time>2019-03-16T14:35:08Z</time>
      </trkpt>
      <trkpt lat="44.33575" lon="5.96991">
        <ele>816</ele>
        <time>2019-03-16T14:35:09Z</time>
      </trkpt>
      <trkpt lat="44.33576" lon="5.97">
        <ele>816</ele>
        <time>2019-03-16T14:35:10Z</time>
      </trkpt>
      <trkpt lat="44.33578" lon="5.97008">
        <ele>816</ele>
        <time>2019-03-16T14:35:11Z</time>
      </trkpt>
      <trkpt lat="44.3358" lon="5.97015">
        <ele>816</ele>
        <time>2019-03-16T14:35:12Z</time>
      </trkpt>
      <trkpt lat="44.33584" lon="5.97022">
        <ele>816</ele>
        <time>2019-03-16T14:35:13Z</time>
      </trkpt>
      <trkpt lat="44.33588" lon="5.97027">
        <ele>816</ele>
        <time>2019-03-16T14:35:14Z</time>
      </trkpt>
      <trkpt lat="44.33592" lon="5.97032">
        <ele>816</ele>
        <time>2019-03-16T14:35:15Z</time>
      </trkpt>
      <trkpt lat="44.33596" lon="5.97037">
        <ele>816</ele>
        <time>2019-03-16T14:35:16Z</time>
      </trkpt>
      <trkpt lat="44.33601" lon="5.97042">
        <ele>816</ele>
        <time>2019-03-16T14:35:17Z</time>
      </trkpt>
      <trkpt lat="44.33606" lon="5.97046">
        <ele>816</ele>
        <time>2019-03-16T14:35:18Z</time>
      </trkpt>
      <trkpt lat="44.3361" lon="5.9705">
        <ele>816</ele>
        <time>2019-03-16T14:35:19Z</time>
      </trkpt>
      <trkpt lat="44.33615" lon="5.97054">
        <ele>816</ele>
        <time>2019-03-16T14:35:20Z</time>
      </trkpt>
      <trkpt lat="44.3362" lon="5.97058">
        <ele>816</ele>
        <time>2019-03-16T14:35:21Z</time>
      </trkpt>
      <trkpt lat="44.33625" lon="5.97063">
        <ele>816</ele>
        <time>2019-03-16T14:35:22Z</time>
      </trkpt>
      <trkpt lat="44.3363" lon="5.97067">
        <ele>816</ele>
        <time>2019-03-16T14:35:23Z</time>
      </trkpt>
      <trkpt lat="44.33635" lon="5.97071">
        <ele>816</ele>
        <time>2019-03-16T14:35:24Z</time>
      </trkpt>
      <trkpt lat="44.3364" lon="5.97074">
        <ele>816</ele>
        <time>2019-03-16T14:35:25Z</time>
      </trkpt>
      <trkpt lat="44.33645" lon="5.97078">
        <ele>816</ele>
        <time>2019-03-16T14:35:26Z</time>
      </trkpt>
      <trkpt lat="44.3365" lon="5.97082">
        <ele>816</ele>
        <time>2019-03-16T14:35:27Z</time>
      </trkpt>
      <trkpt lat="44.33655" lon="5.97085">
        <ele>816</ele>
        <time>2019-03-16T14:35:28Z</time>
      </trkpt>
      <trkpt lat="44.3366" lon="5.97089">
        <ele>816</ele>
        <time>2019-03-16T14:35:29Z</time>
      </trkpt>
      <trkpt lat="44.33665" lon="5.97093">
        <ele>816</ele>
        <time>2019-03-16T14:35:30Z</time>
      </trkpt>
      <trkpt lat="44.3367" lon="5.97098">
        <ele>816</ele>
        <time>2019-03-16T14:35:31Z</time>
      </trkpt>
      <trkpt lat="44.33674" lon="5.97103">
        <ele>816</ele>
        <time>2019-03-16T14:35:32Z</time>
      </trkpt>
      <trkpt lat="44.33679" lon="5.97108">
        <ele>816</ele>
        <time>2019-03-16T14:35:33Z</time>
      </trkpt>
      <trkpt lat="44.33684" lon="5.97113">
        <ele>816</ele>
        <time>2019-03-16T14:35:34Z</time>
      </trkpt>
      <trkpt lat="44.33688" lon="5.97118">
        <ele>816</ele>
        <time>2019-03-16T14:35:35Z</time>
      </trkpt>
      <trkpt lat="44.33693" lon="5.97123">
        <ele>816</ele>
        <time>2019-03-16T14:35:36Z</time>
      </trkpt>
      <trkpt lat="44.33698" lon="5.97128">
        <ele>816</ele>
        <time>2019-03-16T14:35:37Z</time>
      </trkpt>
      <trkpt lat="44.33704" lon="5.97132">
        <ele>816</ele>
        <time>2019-03-16T14:35:38Z</time>
      </trkpt>
      <trkpt lat="44.33709" lon="5.97135">
        <ele>816</ele>
        <time>2019-03-16T14:35:39Z</time>
      </trkpt>
      <trkpt lat="44.33714" lon="5.97136">
        <ele>816</ele>
        <time>2019-03-16T14:35:40Z</time>
      </trkpt>
      <trkpt lat="44.3372" lon="5.97136">
        <ele>816</ele>
        <time>2019-03-16T14:35:41Z</time>
      </trkpt>
      <trkpt lat="44.33726" lon="5.97137">
        <ele>816</ele>
        <time>2019-03-16T14:35:42Z</time>
      </trkpt>
      <trkpt lat="44.33731" lon="5.9714">
        <ele>816</ele>
        <time>2019-03-16T14:35:43Z</time>
      </trkpt>
      <trkpt lat="44.33736" lon="5.97144">
        <ele>816</ele>
        <time>2019-03-16T14:35:44Z</time>
      </trkpt>
      <trkpt lat="44.33741" lon="5.9715">
        <ele>816</ele>
        <time>2019-03-16T14:35:45Z</time>
      </trkpt>
      <trkpt lat="44.33745" lon="5.97157">
        <ele>816</ele>
        <time>2019-03-16T14:35:46Z</time>
      </trkpt>
      <trkpt lat="44.33748" lon="5.97165">
        <ele>816</ele>
        <time>2019-03-16T14:35:47Z</time>
      </trkpt>
      <trkpt lat="44.33751" lon="5.97173">
        <ele>816</ele>
        <time>2019-03-16T14:35:48Z</time>
      </trkpt>
      <trkpt lat="44.33755" lon="5.9718">
        <ele>816</ele>
        <time>2019-03-16T14:35:49Z</time>
      </trkpt>
      <trkpt lat="44.33759" lon="5.97187">
        <ele>816</ele>
        <time>2019-03-16T14:35:50Z</time>
      </trkpt>
      <trkpt lat="44.33762" lon="5.97193">
        <ele>816</ele>
        <time>2019-03-16T14:35:51Z</time>
      </trkpt>
      <trkpt lat="44.33767" lon="5.97199">
        <ele>816</ele>
        <time>2019-03-16T14:35:52Z</time>
      </trkpt>
      <trkpt lat="44.3377" lon="5.97205">
        <ele>816</ele>
        <time>2019-03-16T14:35:53Z</time>
      </trkpt>
      <trkpt lat="44.33775" lon="5.97211">
        <ele>816</ele>
        <time>2019-03-16T14:35:54Z</time>
      </trkpt>
      <trkpt lat="44.33779" lon="5.97217">
        <ele>816</ele>
        <time>2019-03-16T14:35:55Z</time>
      </trkpt>
      <trkpt lat="44.33783" lon="5.97223">
        <ele>816</ele>
        <time>2019-03-16T14:35:56Z</time>
      </trkpt>
      <trkpt lat="44.33788" lon="5.97229">
        <ele>816</ele>
        <time>2019-03-16T14:35:57Z</time>
      </trkpt>
      <trkpt lat="44.33792" lon="5.97235">
        <ele>816</ele>
        <time>2019-03-16T14:35:58Z</time>
      </trkpt>
      <trkpt lat="44.33796" lon="5.97242">
        <ele>816</ele>
        <time>2019-03-16T14:35:59Z</time>
      </trkpt>
      <trkpt lat="44.33801" lon="5.97249">
        <ele>816</ele>
        <time>2019-03-16T14:36:00Z</time>
      </trkpt>
      <trkpt lat="44.33806" lon="5.97255">
        <ele>816</ele>
        <time>2019-03-16T14:36:01Z</time>
      </trkpt>
      <trkpt lat="44.3381" lon="5.97261">
        <ele>816</ele>
        <time>2019-03-16T14:36:02Z</time>
      </trkpt>
      <trkpt lat="44.33815" lon="5.97268">
        <ele>816</ele>
        <time>2019-03-16T14:36:03Z</time>
      </trkpt>
      <trkpt lat="44.33819" lon="5.97274">
        <ele>816</ele>
        <time>2019-03-16T14:36:04Z</time>
      </trkpt>
      <trkpt lat="44.33824" lon="5.97281">
        <ele>816</ele>
        <time>2019-03-16T14:36:05Z</time>
      </trkpt>
      <trkpt lat="44.33828" lon="5.97287">
        <ele>816</ele>
        <time>2019-03-16T14:36:06Z</time>
      </trkpt>
      <trkpt lat="44.33832" lon="5.97293">
        <ele>816</ele>
        <time>2019-03-16T14:36:07Z</time>
      </trkpt>
      <trkpt lat="44.33836" lon="5.97299">
        <ele>816</ele>
        <time>2019-03-16T14:36:08Z</time>
      </trkpt>
      <trkpt lat="44.33841" lon="5.97304">
        <ele>816</ele>
        <time>2019-03-16T14:36:09Z</time>
      </trkpt>
      <trkpt lat="44.33845" lon="5.9731">
        <ele>816</ele>
        <time>2019-03-16T14:36:10Z</time>
      </trkpt>
      <trkpt lat="44.3385" lon="5.97316">
        <ele>816</ele>
        <time>2019-03-16T14:36:11Z</time>
      </trkpt>
      <trkpt lat="44.33854" lon="5.97322">
        <ele>816</ele>
        <time>2019-03-16T14:36:12Z</time>
      </trkpt>
      <trkpt lat="44.33858" lon="5.97328">
        <ele>816</ele>
        <time>2019-03-16T14:36:13Z</time>
      </trkpt>
      <trkpt lat="44.33862" lon="5.97334">
        <ele>816</ele>
        <time>2019-03-16T14:36:14Z</time>
      </trkpt>
      <trkpt lat="44.33865" lon="5.97339">
        <ele>816</ele>
        <time>2019-03-16T14:36:15Z</time>
      </trkpt>
      <trkpt lat="44.33869" lon="5.97345">
        <ele>816</ele>
        <time>2019-03-16T14:36:16Z</time>
      </trkpt>
      <trkpt lat="44.33873" lon="5.9735">
        <ele>816</ele>
        <time>2019-03-16T14:36:17Z</time>
      </trkpt>
      <trkpt lat="44.33876" lon="5.97354">
        <ele>816</ele>
        <time>2019-03-16T14:36:18Z</time>
      </trkpt>
      <trkpt lat="44.3388" lon="5.97357">
        <ele>816</ele>
        <time>2019-03-16T14:36:19Z</time>
      </trkpt>
      <trkpt lat="44.33885" lon="5.9736">
        <ele>816</ele>
        <time>2019-03-16T14:36:20Z</time>
      </trkpt>
      <trkpt lat="44.33889" lon="5.97361">
        <ele>816</ele>
        <time>2019-03-16T14:36:21Z</time>
      </trkpt>
      <trkpt lat="44.33894" lon="5.97362">
        <ele>816</ele>
        <time>2019-03-16T14:36:22Z</time>
      </trkpt>
      <trkpt lat="44.33899" lon="5.97363">
        <ele>816</ele>
        <time>2019-03-16T14:36:23Z</time>
      </trkpt>
      <trkpt lat="44.33903" lon="5.97363">
        <ele>816</ele>
        <time>2019-03-16T14:36:24Z</time>
      </trkpt>
      <trkpt lat="44.33908" lon="5.97363">
        <ele>816</ele>
        <time>2019-03-16T14:36:25Z</time>
      </trkpt>
      <trkpt lat="44.33912" lon="5.97364">
        <ele>817</ele>
        <time>2019-03-16T14:36:26Z</time>
      </trkpt>
      <trkpt lat="44.33917" lon="5.97364">
        <ele>817</ele>
        <time>2019-03-16T14:36:27Z</time>
      </trkpt>
      <trkpt lat="44.33922" lon="5.97364">
        <ele>817</ele>
        <time>2019-03-16T14:36:28Z</time>
      </trkpt>
      <trkpt lat="44.33926" lon="5.97365">
        <ele>818</ele>
        <time>2019-03-16T14:36:29Z</time>
      </trkpt>
      <trkpt lat="44.33931" lon="5.97366">
        <ele>818</ele>
        <time>2019-03-16T14:36:30Z</time>
      </trkpt>
      <trkpt lat="44.33935" lon="5.97367">
        <ele>818</ele>
        <time>2019-03-16T14:36:31Z</time>
      </trkpt>
      <trkpt lat="44.33939" lon="5.97368">
        <ele>819</ele>
        <time>2019-03-16T14:36:32Z</time>
      </trkpt>
      <trkpt lat="44.33944" lon="5.97369">
        <ele>819</ele>
        <time>2019-03-16T14:36:33Z</time>
      </trkpt>
      <trkpt lat="44.33948" lon="5.9737">
        <ele>819</ele>
        <time>2019-03-16T14:36:34Z</time>
      </trkpt>
      <trkpt lat="44.33952" lon="5.97373">
        <ele>819</ele>
        <time>2019-03-16T14:36:35Z</time>
      </trkpt>
      <trkpt lat="44.33956" lon="5.97375">
        <ele>819</ele>
        <time>2019-03-16T14:36:36Z</time>
      </trkpt>
      <trkpt lat="44.3396" lon="5.97378">
        <ele>819</ele>
        <time>2019-03-16T14:36:37Z</time>
      </trkpt>
      <trkpt lat="44.33965" lon="5.9738">
        <ele>819</ele>
        <time>2019-03-16T14:36:38Z</time>
      </trkpt>
      <trkpt lat="44.33969" lon="5.97383">
        <ele>819</ele>
        <time>2019-03-16T14:36:39Z</time>
      </trkpt>
      <trkpt lat="44.33973" lon="5.97386">
        <ele>819</ele>
        <time>2019-03-16T14:36:40Z</time>
      </trkpt>
      <trkpt lat="44.33976" lon="5.9739">
        <ele>820</ele>
        <time>2019-03-16T14:36:41Z</time>
      </trkpt>
      <trkpt lat="44.3398" lon="5.97393">
        <ele>820</ele>
        <time>2019-03-16T14:36:42Z</time>
      </trkpt>
      <trkpt lat="44.33984" lon="5.97396">
        <ele>820</ele>
        <time>2019-03-16T14:36:43Z</time>
      </trkpt>
      <trkpt lat="44.33987" lon="5.974">
        <ele>820</ele>
        <time>2019-03-16T14:36:44Z</time>
      </trkpt>
      <trkpt lat="44.3399" lon="5.97403">
        <ele>820</ele>
        <time>2019-03-16T14:36:45Z</time>
      </trkpt>
      <trkpt lat="44.33993" lon="5.97407">
        <ele>821</ele>
        <time>2019-03-16T14:36:46Z</time>
      </trkpt>
      <trkpt lat="44.33996" lon="5.9741">
        <ele>821</ele>
        <time>2019-03-16T14:36:47Z</time>
      </trkpt>
      <trkpt lat="44.33999" lon="5.97414">
        <ele>821</ele>
        <time>2019-03-16T14:36:48Z</time>
      </trkpt>
      <trkpt lat="44.34003" lon="5.97417">
        <ele>821</ele>
        <time>2019-03-16T14:36:49Z</time>
      </trkpt>
      <trkpt lat="44.34005" lon="5.97421">
        <ele>821</ele>
        <time>2019-03-16T14:36:50Z</time>
      </trkpt>
      <trkpt lat="44.34008" lon="5.97425">
        <ele>821</ele>
        <time>2019-03-16T14:36:51Z</time>
      </trkpt>
      <trkpt lat="44.34011" lon="5.97429">
        <ele>822</ele>
        <time>2019-03-16T14:36:52Z</time>
      </trkpt>
      <trkpt lat="44.34013" lon="5.97433">
        <ele>822</ele>
        <time>2019-03-16T14:36:53Z</time>
      </trkpt>
      <trkpt lat="44.34016" lon="5.97437">
        <ele>822</ele>
        <time>2019-03-16T14:36:54Z</time>
      </trkpt>
      <trkpt lat="44.34018" lon="5.97442">
        <ele>822</ele>
        <time>2019-03-16T14:36:55Z</time>
      </trkpt>
      <trkpt lat="44.34021" lon="5.97446">
        <ele>822</ele>
        <time>2019-03-16T14:36:56Z</time>
      </trkpt>
      <trkpt lat="44.34023" lon="5.97451">
        <ele>822</ele>
        <time>2019-03-16T14:36:57Z</time>
      </trkpt>
      <trkpt lat="44.34026" lon="5.97456">
        <ele>822</ele>
        <time>2019-03-16T14:36:58Z</time>
      </trkpt>
      <trkpt lat="44.34028" lon="5.97461">
        <ele>823</ele>
        <time>2019-03-16T14:36:59Z</time>
      </trkpt>
      <trkpt lat="44.3403" lon="5.97466">
        <ele>823</ele>
        <time>2019-03-16T14:37:00Z</time>
      </trkpt>
      <trkpt lat="44.34032" lon="5.97471">
        <ele>823</ele>
        <time>2019-03-16T14:37:01Z</time>
      </trkpt>
      <trkpt lat="44.34034" lon="5.97476">
        <ele>823</ele>
        <time>2019-03-16T14:37:02Z</time>
      </trkpt>
      <trkpt lat="44.34035" lon="5.97481">
        <ele>824</ele>
        <time>2019-03-16T14:37:03Z</time>
      </trkpt>
      <trkpt lat="44.34037" lon="5.97487">
        <ele>824</ele>
        <time>2019-03-16T14:37:04Z</time>
      </trkpt>
      <trkpt lat="44.34038" lon="5.97492">
        <ele>824</ele>
        <time>2019-03-16T14:37:05Z</time>
      </trkpt>
      <trkpt lat="44.3404" lon="5.97498">
        <ele>824</ele>
        <time>2019-03-16T14:37:06Z</time>
      </trkpt>
      <trkpt lat="44.3404" lon="5.97503">
        <ele>825</ele>
        <time>2019-03-16T14:37:07Z</time>
      </trkpt>
      <trkpt lat="44.34042" lon="5.97508">
        <ele>825</ele>
        <time>2019-03-16T14:37:08Z</time>
      </trkpt>
      <trkpt lat="44.34042" lon="5.97514">
        <ele>825</ele>
        <time>2019-03-16T14:37:09Z</time>
      </trkpt>
      <trkpt lat="44.34043" lon="5.97519">
        <ele>825</ele>
        <time>2019-03-16T14:37:10Z</time>
      </trkpt>
      <trkpt lat="44.34044" lon="5.97525">
        <ele>825</ele>
        <time>2019-03-16T14:37:11Z</time>
      </trkpt>
      <trkpt lat="44.34045" lon="5.9753">
        <ele>826</ele>
        <time>2019-03-16T14:37:12Z</time>
      </trkpt>
      <trkpt lat="44.34045" lon="5.97536">
        <ele>826</ele>
        <time>2019-03-16T14:37:13Z</time>
      </trkpt>
      <trkpt lat="44.34045" lon="5.97541">
        <ele>826</ele>
        <time>2019-03-16T14:37:14Z</time>
      </trkpt>
      <trkpt lat="44.34046" lon="5.97546">
        <ele>826</ele>
        <time>2019-03-16T14:37:15Z</time>
      </trkpt>
      <trkpt lat="44.34046" lon="5.97551">
        <ele>826</ele>
        <time>2019-03-16T14:37:16Z</time>
      </trkpt>
      <trkpt lat="44.34046" lon="5.97556">
        <ele>827</ele>
        <time>2019-03-16T14:37:17Z</time>
      </trkpt>
      <trkpt lat="44.34045" lon="5.97561">
        <ele>827</ele>
        <time>2019-03-16T14:37:18Z</time>
      </trkpt>
      <trkpt lat="44.34045" lon="5.97566">
        <ele>827</ele>
        <time>2019-03-16T14:37:19Z</time>
      </trkpt>
      <trkpt lat="44.34045" lon="5.97571">
        <ele>827</ele>
        <time>2019-03-16T14:37:20Z</time>
      </trkpt>
      <trkpt lat="44.34044" lon="5.97576">
        <ele>828</ele>
        <time>2019-03-16T14:37:21Z</time>
      </trkpt>
      <trkpt lat="44.34044" lon="5.97581">
        <ele>828</ele>
        <time>2019-03-16T14:37:22Z</time>
      </trkpt>
      <trkpt lat="44.34043" lon="5.97586">
        <ele>828</ele>
        <time>2019-03-16T14:37:23Z</time>
      </trkpt>
      <trkpt lat="44.34042" lon="5.97592">
        <ele>828</ele>
        <time>2019-03-16T14:37:24Z</time>
      </trkpt>
      <trkpt lat="44.34042" lon="5.97597">
        <ele>828</ele>
        <time>2019-03-16T14:37:25Z</time>
      </trkpt>
      <trkpt lat="44.34041" lon="5.97602">
        <ele>828</ele>
        <time>2019-03-16T14:37:26Z</time>
      </trkpt>
      <trkpt lat="44.3404" lon="5.97608">
        <ele>828</ele>
        <time>2019-03-16T14:37:27Z</time>
      </trkpt>
      <trkpt lat="44.3404" lon="5.97613">
        <ele>828</ele>
        <time>2019-03-16T14:37:28Z</time>
      </trkpt>
      <trkpt lat="44.3404" lon="5.97618">
        <ele>828</ele>
        <time>2019-03-16T14:37:29Z</time>
      </trkpt>
      <trkpt lat="44.34041" lon="5.97623">
        <ele>829</ele>
        <time>2019-03-16T14:37:30Z</time>
      </trkpt>
      <trkpt lat="44.34043" lon="5.97627">
        <ele>829</ele>
        <time>2019-03-16T14:37:31Z</time>
      </trkpt>
      <trkpt lat="44.34045" lon="5.97633">
        <ele>829</ele>
        <time>2019-03-16T14:37:32Z</time>
      </trkpt>
      <trkpt lat="44.34047" lon="5.97638">
        <ele>830</ele>
        <time>2019-03-16T14:37:33Z</time>
      </trkpt>
      <trkpt lat="44.34048" lon="5.97643">
        <ele>830</ele>
        <time>2019-03-16T14:37:34Z</time>
      </trkpt>
      <trkpt lat="44.3405" lon="5.97648">
        <ele>830</ele>
        <time>2019-03-16T14:37:35Z</time>
      </trkpt>
      <trkpt lat="44.34052" lon="5.97653">
        <ele>830</ele>
        <time>2019-03-16T14:37:36Z</time>
      </trkpt>
      <trkpt lat="44.34054" lon="5.97657">
        <ele>831</ele>
        <time>2019-03-16T14:37:37Z</time>
      </trkpt>
      <trkpt lat="44.34056" lon="5.97662">
        <ele>831</ele>
        <time>2019-03-16T14:37:38Z</time>
      </trkpt>
      <trkpt lat="44.34058" lon="5.97666">
        <ele>831</ele>
        <time>2019-03-16T14:37:39Z</time>
      </trkpt>
      <trkpt lat="44.34061" lon="5.97671">
        <ele>831</ele>
        <time>2019-03-16T14:37:40Z</time>
      </trkpt>
      <trkpt lat="44.34063" lon="5.97675">
        <ele>831</ele>
        <time>2019-03-16T14:37:41Z</time>
      </trkpt>
      <trkpt lat="44.34065" lon="5.97679">
        <ele>831</ele>
        <time>2019-03-16T14:37:42Z</time>
      </trkpt>
      <trkpt lat="44.34067" lon="5.97683">
        <ele>832</ele>
        <time>2019-03-16T14:37:43Z</time>
      </trkpt>
      <trkpt lat="44.34069" lon="5.97687">
        <ele>832</ele>
        <time>2019-03-16T14:37:44Z</time>
      </trkpt>
      <trkpt lat="44.34071" lon="5.97691">
        <ele>832</ele>
        <time>2019-03-16T14:37:45Z</time>
      </trkpt>
      <trkpt lat="44.34072" lon="5.97695">
        <ele>832</ele>
        <time>2019-03-16T14:37:46Z</time>
      </trkpt>
      <trkpt lat="44.34074" lon="5.977">
        <ele>832</ele>
        <time>2019-03-16T14:37:47Z</time>
      </trkpt>
      <trkpt lat="44.34076" lon="5.97704">
        <ele>833</ele>
        <time>2019-03-16T14:37:48Z</time>
      </trkpt>
      <trkpt lat="44.34077" lon="5.97708">
        <ele>833</ele>
        <time>2019-03-16T14:37:49Z</time>
      </trkpt>
      <trkpt lat="44.34079" lon="5.97712">
        <ele>833</ele>
        <time>2019-03-16T14:37:50Z</time>
      </trkpt>
      <trkpt lat="44.34081" lon="5.97716">
        <ele>833</ele>
        <time>2019-03-16T14:37:51Z</time>
      </trkpt>
      <trkpt lat="44.34082" lon="5.97721">
        <ele>833</ele>
        <time>2019-03-16T14:37:52Z</time>
      </trkpt>
      <trkpt lat="44.34084" lon="5.97725">
        <ele>833</ele>
        <time>2019-03-16T14:37:53Z</time>
      </trkpt>
      <trkpt lat="44.34085" lon="5.9773">
        <ele>834</ele>
        <time>2019-03-16T14:37:54Z</time>
      </trkpt>
      <trkpt lat="44.34086" lon="5.97735">
        <ele>834</ele>
        <time>2019-03-16T14:37:55Z</time>
      </trkpt>
      <trkpt lat="44.34087" lon="5.9774">
        <ele>834</ele>
        <time>2019-03-16T14:37:56Z</time>
      </trkpt>
      <trkpt lat="44.34087" lon="5.97745">
        <ele>834</ele>
        <time>2019-03-16T14:37:57Z</time>
      </trkpt>
      <trkpt lat="44.34087" lon="5.97749">
        <ele>834</ele>
        <time>2019-03-16T14:37:58Z</time>
      </trkpt>
      <trkpt lat="44.34087" lon="5.97754">
        <ele>834</ele>
        <time>2019-03-16T14:37:59Z</time>
      </trkpt>
      <trkpt lat="44.34087" lon="5.97759">
        <ele>835</ele>
        <time>2019-03-16T14:38:00Z</time>
      </trkpt>
      <trkpt lat="44.34087" lon="5.97765">
        <ele>835</ele>
        <time>2019-03-16T14:38:01Z</time>
      </trkpt>
      <trkpt lat="44.34087" lon="5.9777">
        <ele>835</ele>
        <time>2019-03-16T14:38:02Z</time>
      </trkpt>
      <trkpt lat="44.34087" lon="5.97775">
        <ele>835</ele>
        <time>2019-03-16T14:38:03Z</time>
      </trkpt>
      <trkpt lat="44.34087" lon="5.9778">
        <ele>836</ele>
        <time>2019-03-16T14:38:04Z</time>
      </trkpt>
      <trkpt lat="44.34088" lon="5.97785">
        <ele>836</ele>
        <time>2019-03-16T14:38:05Z</time>
      </trkpt>
      <trkpt lat="44.34088" lon="5.97789">
        <ele>836</ele>
        <time>2019-03-16T14:38:06Z</time>
      </trkpt>
      <trkpt lat="44.34089" lon="5.97794">
        <ele>836</ele>
        <time>2019-03-16T14:38:07Z</time>
      </trkpt>
      <trkpt lat="44.3409" lon="5.97799">
        <ele>837</ele>
        <time>2019-03-16T14:38:08Z</time>
      </trkpt>
      <trkpt lat="44.34092" lon="5.97803">
        <ele>837</ele>
        <time>2019-03-16T14:38:09Z</time>
      </trkpt>
      <trkpt lat="44.34094" lon="5.97808">
        <ele>837</ele>
        <time>2019-03-16T14:38:10Z</time>
      </trkpt>
      <trkpt lat="44.34096" lon="5.97813">
        <ele>837</ele>
        <time>2019-03-16T14:38:11Z</time>
      </trkpt>
      <trkpt lat="44.34099" lon="5.97817">
        <ele>837</ele>
        <time>2019-03-16T14:38:12Z</time>
      </trkpt>
      <trkpt lat="44.34102" lon="5.97821">
        <ele>837</ele>
        <time>2019-03-16T14:38:13Z</time>
      </trkpt>
      <trkpt lat="44.34105" lon="5.97825">
        <ele>837</ele>
        <time>2019-03-16T14:38:14Z</time>
      </trkpt>
      <trkpt lat="44.34109" lon="5.97829">
        <ele>837</ele>
        <time>2019-03-16T14:38:15Z</time>
      </trkpt>
      <trkpt lat="44.34113" lon="5.97833">
        <ele>837</ele>
        <time>2019-03-16T14:38:16Z</time>
      </trkpt>
      <trkpt lat="44.34116" lon="5.97838">
        <ele>837</ele>
        <time>2019-03-16T14:38:17Z</time>
      </trkpt>
      <trkpt lat="44.3412" lon="5.97843">
        <ele>837</ele>
        <time>2019-03-16T14:38:18Z</time>
      </trkpt>
      <trkpt lat="44.34123" lon="5.97848">
        <ele>837</ele>
        <time>2019-03-16T14:38:19Z</time>
      </trkpt>
      <trkpt lat="44.34126" lon="5.97854">
        <ele>837</ele>
        <time>2019-03-16T14:38:20Z</time>
      </trkpt>
      <trkpt lat="44.34129" lon="5.9786">
        <ele>837</ele>
        <time>2019-03-16T14:38:21Z</time>
      </trkpt>
      <trkpt lat="44.34132" lon="5.97866">
        <ele>837</ele>
        <time>2019-03-16T14:38:22Z</time>
      </trkpt>
      <trkpt lat="44.34135" lon="5.97872">
        <ele>837</ele>
        <time>2019-03-16T14:38:23Z</time>
      </trkpt>
      <trkpt lat="44.34137" lon="5.97878">
        <ele>837</ele>
        <time>2019-03-16T14:38:24Z</time>
      </trkpt>
      <trkpt lat="44.3414" lon="5.97884">
        <ele>837</ele>
        <time>2019-03-16T14:38:25Z</time>
      </trkpt>
      <trkpt lat="44.34142" lon="5.9789">
        <ele>837</ele>
        <time>2019-03-16T14:38:26Z</time>
      </trkpt>
      <trkpt lat="44.34145" lon="5.97896">
        <ele>837</ele>
        <time>2019-03-16T14:38:27Z</time>
      </trkpt>
      <trkpt lat="44.34147" lon="5.97902">
        <ele>837</ele>
        <time>2019-03-16T14:38:28Z</time>
      </trkpt>
      <trkpt lat="44.34148" lon="5.97908">
        <ele>837</ele>
        <time>2019-03-16T14:38:29Z</time>
      </trkpt>
      <trkpt lat="44.34149" lon="5.97915">
        <ele>837</ele>
        <time>2019-03-16T14:38:30Z</time>
      </trkpt>
      <trkpt lat="44.3415" lon="5.97922">
        <ele>837</ele>
        <time>2019-03-16T14:38:31Z</time>
      </trkpt>
      <trkpt lat="44.3415" lon="5.9793">
        <ele>837</ele>
        <time>2019-03-16T14:38:32Z</time>
      </trkpt>
      <trkpt lat="44.34149" lon="5.97937">
        <ele>837</ele>
        <time>2019-03-16T14:38:33Z</time>
      </trkpt>
      <trkpt lat="44.34148" lon="5.97944">
        <ele>837</ele>
        <time>2019-03-16T14:38:34Z</time>
      </trkpt>
      <trkpt lat="44.34148" lon="5.97951">
        <ele>837</ele>
        <time>2019-03-16T14:38:35Z</time>
      </trkpt>
      <trkpt lat="44.34147" lon="5.97958">
        <ele>837</ele>
        <time>2019-03-16T14:38:36Z</time>
      </trkpt>
      <trkpt lat="44.34147" lon="5.97965">
        <ele>837</ele>
        <time>2019-03-16T14:38:37Z</time>
      </trkpt>
      <trkpt lat="44.34146" lon="5.97972">
        <ele>837</ele>
        <time>2019-03-16T14:38:38Z</time>
      </trkpt>
      <trkpt lat="44.34146" lon="5.97979">
        <ele>837</ele>
        <time>2019-03-16T14:38:39Z</time>
      </trkpt>
      <trkpt lat="44.34146" lon="5.97986">
        <ele>837</ele>
        <time>2019-03-16T14:38:40Z</time>
      </trkpt>
      <trkpt lat="44.34145" lon="5.97994">
        <ele>837</ele>
        <time>2019-03-16T14:38:41Z</time>
      </trkpt>
      <trkpt lat="44.34145" lon="5.98001">
        <ele>837</ele>
        <time>2019-03-16T14:38:42Z</time>
      </trkpt>
      <trkpt lat="44.34146" lon="5.98008">
        <ele>837</ele>
        <time>2019-03-16T14:38:43Z</time>
      </trkpt>
      <trkpt lat="44.34148" lon="5.98015">
        <ele>837</ele>
        <time>2019-03-16T14:38:44Z</time>
      </trkpt>
      <trkpt lat="44.3415" lon="5.98022">
        <ele>837</ele>
        <time>2019-03-16T14:38:45Z</time>
      </trkpt>
      <trkpt lat="44.34153" lon="5.98028">
        <ele>837</ele>
        <time>2019-03-16T14:38:46Z</time>
      </trkpt>
      <trkpt lat="44.34157" lon="5.98034">
        <ele>837</ele>
        <time>2019-03-16T14:38:47Z</time>
      </trkpt>
      <trkpt lat="44.34161" lon="5.98039">
        <ele>837</ele>
        <time>2019-03-16T14:38:48Z</time>
      </trkpt>
      <trkpt lat="44.34165" lon="5.98045">
        <ele>837</ele>
        <time>2019-03-16T14:38:49Z</time>
      </trkpt>
      <trkpt lat="44.34169" lon="5.9805">
        <ele>837</ele>
        <time>2019-03-16T14:38:50Z</time>
      </trkpt>
      <trkpt lat="44.34172" lon="5.98057">
        <ele>837</ele>
        <time>2019-03-16T14:38:51Z</time>
      </trkpt>
      <trkpt lat="44.34175" lon="5.98064">
        <ele>837</ele>
        <time>2019-03-16T14:38:52Z</time>
      </trkpt>
      <trkpt lat="44.34177" lon="5.98071">
        <ele>837</ele>
        <time>2019-03-16T14:38:53Z</time>
      </trkpt>
      <trkpt lat="44.3418" lon="5.98078">
        <ele>837</ele>
        <time>2019-03-16T14:38:54Z</time>
      </trkpt>
      <trkpt lat="44.34181" lon="5.98086">
        <ele>837</ele>
        <time>2019-03-16T14:38:55Z</time>
      </trkpt>
      <trkpt lat="44.34183" lon="5.98094">
        <ele>837</ele>
        <time>2019-03-16T14:38:56Z</time>
      </trkpt>
      <trkpt lat="44.34184" lon="5.98102">
        <ele>837</ele>
        <time>2019-03-16T14:38:57Z</time>
      </trkpt>
      <trkpt lat="44.34185" lon="5.9811">
        <ele>837</ele>
        <time>2019-03-16T14:38:58Z</time>
      </trkpt>
      <trkpt lat="44.34187" lon="5.98118">
        <ele>837</ele>
        <time>2019-03-16T14:38:59Z</time>
      </trkpt>
      <trkpt lat="44.34188" lon="5.98127">
        <ele>837</ele>
        <time>2019-03-16T14:39:00Z</time>
      </trkpt>
      <trkpt lat="44.34189" lon="5.98135">
        <ele>837</ele>
        <time>2019-03-16T14:39:01Z</time>
      </trkpt>
      <trkpt lat="44.3419" lon="5.98143">
        <ele>837</ele>
        <time>2019-03-16T14:39:02Z</time>
      </trkpt>
      <trkpt lat="44.34193" lon="5.98151">
        <ele>837</ele>
        <time>2019-03-16T14:39:03Z</time>
      </trkpt>
      <trkpt lat="44.34195" lon="5.98158">
        <ele>837</ele>
        <time>2019-03-16T14:39:04Z</time>
      </trkpt>
      <trkpt lat="44.34198" lon="5.98166">
        <ele>837</ele>
        <time>2019-03-16T14:39:05Z</time>
      </trkpt>
      <trkpt lat="44.34201" lon="5.98172">
        <ele>837</ele>
        <time>2019-03-16T14:39:06Z</time>
      </trkpt>
      <trkpt lat="44.34205" lon="5.98178">
        <ele>837</ele>
        <time>2019-03-16T14:39:07Z</time>
      </trkpt>
      <trkpt lat="44.3421" lon="5.98183">
        <ele>837</ele>
        <time>2019-03-16T14:39:08Z</time>
      </trkpt>
      <trkpt lat="44.34214" lon="5.98189">
        <ele>837</ele>
        <time>2019-03-16T14:39:09Z</time>
      </trkpt>
      <trkpt lat="44.34218" lon="5.98196">
        <ele>837</ele>
        <time>2019-03-16T14:39:10Z</time>
      </trkpt>
      <trkpt lat="44.34221" lon="5.98203">
        <ele>837</ele>
        <time>2019-03-16T14:39:11Z</time>
      </trkpt>
      <trkpt lat="44.34223" lon="5.9821">
        <ele>837</ele>
        <time>2019-03-16T14:39:12Z</time>
      </trkpt>
      <trkpt lat="44.34225" lon="5.98218">
        <ele>837</ele>
        <time>2019-03-16T14:39:13Z</time>
      </trkpt>
      <trkpt lat="44.34227" lon="5.98226">
        <ele>837</ele>
        <time>2019-03-16T14:39:14Z</time>
      </trkpt>
      <trkpt lat="44.34229" lon="5.98234">
        <ele>837</ele>
        <time>2019-03-16T14:39:15Z</time>
      </trkpt>
      <trkpt lat="44.34232" lon="5.98242">
        <ele>837</ele>
        <time>2019-03-16T14:39:16Z</time>
      </trkpt>
      <trkpt lat="44.34235" lon="5.98249">
        <ele>837</ele>
        <time>2019-03-16T14:39:17Z</time>
      </trkpt>
      <trkpt lat="44.3424" lon="5.98256">
        <ele>837</ele>
        <time>2019-03-16T14:39:18Z</time>
      </trkpt>
      <trkpt lat="44.34244" lon="5.98263">
        <ele>837</ele>
        <time>2019-03-16T14:39:19Z</time>
      </trkpt>
      <trkpt lat="44.34248" lon="5.9827">
        <ele>837</ele>
        <time>2019-03-16T14:39:20Z</time>
      </trkpt>
      <trkpt lat="44.34252" lon="5.98276">
        <ele>837</ele>
        <time>2019-03-16T14:39:21Z</time>
      </trkpt>
      <trkpt lat="44.34256" lon="5.98282">
        <ele>837</ele>
        <time>2019-03-16T14:39:22Z</time>
      </trkpt>
      <trkpt lat="44.34261" lon="5.98288">
        <ele>837</ele>
        <time>2019-03-16T14:39:23Z</time>
      </trkpt>
      <trkpt lat="44.34265" lon="5.98293">
        <ele>837</ele>
        <time>2019-03-16T14:39:24Z</time>
      </trkpt>
      <trkpt lat="44.34269" lon="5.98299">
        <ele>837</ele>
        <time>2019-03-16T14:39:25Z</time>
      </trkpt>
      <trkpt lat="44.34274" lon="5.98304">
        <ele>837</ele>
        <time>2019-03-16T14:39:26Z</time>
      </trkpt>
      <trkpt lat="44.34278" lon="5.98308">
        <ele>837</ele>
        <time>2019-03-16T14:39:27Z</time>
      </trkpt>
      <trkpt lat="44.34283" lon="5.98313">
        <ele>837</ele>
        <time>2019-03-16T14:39:28Z</time>
      </trkpt>
      <trkpt lat="44.34287" lon="5.98317">
        <ele>837</ele>
        <time>2019-03-16T14:39:29Z</time>
      </trkpt>
      <trkpt lat="44.34292" lon="5.98321">
        <ele>837</ele>
        <time>2019-03-16T14:39:30Z</time>
      </trkpt>
      <trkpt lat="44.34298" lon="5.98325">
        <ele>837</ele>
        <time>2019-03-16T14:39:31Z</time>
      </trkpt>
      <trkpt lat="44.34303" lon="5.98329">
        <ele>837</ele>
        <time>2019-03-16T14:39:32Z</time>
      </trkpt>
      <trkpt lat="44.34308" lon="5.98333">
        <ele>837</ele>
        <time>2019-03-16T14:39:33Z</time>
      </trkpt>
      <trkpt lat="44.34313" lon="5.98336">
        <ele>837</ele>
        <time>2019-03-16T14:39:34Z</time>
      </trkpt>
      <trkpt lat="44.34318" lon="5.9834">
        <ele>837</ele>
        <time>2019-03-16T14:39:35Z</time>
      </trkpt>
      <trkpt lat="44.34323" lon="5.98343">
        <ele>837</ele>
        <time>2019-03-16T14:39:36Z</time>
      </trkpt>
      <trkpt lat="44.34328" lon="5.98346">
        <ele>837</ele>
        <time>2019-03-16T14:39:37Z</time>
      </trkpt>
      <trkpt lat="44.34333" lon="5.98349">
        <ele>837</ele>
        <time>2019-03-16T14:39:38Z</time>
      </trkpt>
      <trkpt lat="44.34338" lon="5.98352">
        <ele>837</ele>
        <time>2019-03-16T14:39:39Z</time>
      </trkpt>
      <trkpt lat="44.34343" lon="5.98355">
        <ele>837</ele>
        <time>2019-03-16T14:39:40Z</time>
      </trkpt>
      <trkpt lat="44.34348" lon="5.98358">
        <ele>837</ele>
        <time>2019-03-16T14:39:41Z</time>
      </trkpt>
      <trkpt lat="44.34353" lon="5.98361">
        <ele>837</ele>
        <time>2019-03-16T14:39:42Z</time>
      </trkpt>
      <trkpt lat="44.34358" lon="5.98364">
        <ele>837</ele>
        <time>2019-03-16T14:39:43Z</time>
      </trkpt>
      <trkpt lat="44.34363" lon="5.98368">
        <ele>837</ele>
        <time>2019-03-16T14:39:44Z</time>
      </trkpt>
      <trkpt lat="44.34368" lon="5.98371">
        <ele>837</ele>
        <time>2019-03-16T14:39:45Z</time>
      </trkpt>
      <trkpt lat="44.34373" lon="5.98373">
        <ele>837</ele>
        <time>2019-03-16T14:39:46Z</time>
      </trkpt>
      <trkpt lat="44.34378" lon="5.98376">
        <ele>837</ele>
        <time>2019-03-16T14:39:47Z</time>
      </trkpt>
      <trkpt lat="44.34382" lon="5.98378">
        <ele>837</ele>
        <time>2019-03-16T14:39:48Z</time>
      </trkpt>
      <trkpt lat="44.34387" lon="5.98381">
        <ele>837</ele>
        <time>2019-03-16T14:39:49Z</time>
      </trkpt>
      <trkpt lat="44.34392" lon="5.98384">
        <ele>837</ele>
        <time>2019-03-16T14:39:50Z</time>
      </trkpt>
      <trkpt lat="44.34396" lon="5.98387">
        <ele>837</ele>
        <time>2019-03-16T14:39:51Z</time>
      </trkpt>
      <trkpt lat="44.344" lon="5.98391">
        <ele>837</ele>
        <time>2019-03-16T14:39:52Z</time>
      </trkpt>
      <trkpt lat="44.34404" lon="5.98394">
        <ele>837</ele>
        <time>2019-03-16T14:39:53Z</time>
      </trkpt>
      <trkpt lat="44.34408" lon="5.98397">
        <ele>837</ele>
        <time>2019-03-16T14:39:54Z</time>
      </trkpt>
      <trkpt lat="44.34412" lon="5.98399">
        <ele>837</ele>
        <time>2019-03-16T14:39:55Z</time>
      </trkpt>
      <trkpt lat="44.34417" lon="5.98402">
        <ele>837</ele>
        <time>2019-03-16T14:39:56Z</time>
      </trkpt>
      <trkpt lat="44.34421" lon="5.98405">
        <ele>837</ele>
        <time>2019-03-16T14:39:57Z</time>
      </trkpt>
      <trkpt lat="44.34425" lon="5.98407">
        <ele>837</ele>
        <time>2019-03-16T14:39:58Z</time>
      </trkpt>
      <trkpt lat="44.34429" lon="5.9841">
        <ele>837</ele>
        <time>2019-03-16T14:39:59Z</time>
      </trkpt>
      <trkpt lat="44.34433" lon="5.98413">
        <ele>837</ele>
        <time>2019-03-16T14:40:00Z</time>
      </trkpt>
      <trkpt lat="44.34436" lon="5.98418">
        <ele>837</ele>
        <time>2019-03-16T14:40:01Z</time>
      </trkpt>
      <trkpt lat="44.34439" lon="5.98424">
        <ele>837</ele>
        <time>2019-03-16T14:40:02Z</time>
      </trkpt>
      <trkpt lat="44.34443" lon="5.9843">
        <ele>837</ele>
        <time>2019-03-16T14:40:03Z</time>
      </trkpt>
      <trkpt lat="44.34446" lon="5.98438">
        <ele>837</ele>
        <time>2019-03-16T14:40:04Z</time>
      </trkpt>
      <trkpt lat="44.34449" lon="5.98445">
        <ele>837</ele>
        <time>2019-03-16T14:40:05Z</time>
      </trkpt>
      <trkpt lat="44.34453" lon="5.98453">
        <ele>837</ele>
        <time>2019-03-16T14:40:06Z</time>
      </trkpt>
      <trkpt lat="44.34456" lon="5.9846">
        <ele>837</ele>
        <time>2019-03-16T14:40:07Z</time>
      </trkpt>
      <trkpt lat="44.3446" lon="5.98469">
        <ele>837</ele>
        <time>2019-03-16T14:40:08Z</time>
      </trkpt>
      <trkpt lat="44.34464" lon="5.98478">
        <ele>837</ele>
        <time>2019-03-16T14:40:09Z</time>
      </trkpt>
      <trkpt lat="44.34468" lon="5.98488">
        <ele>837</ele>
        <time>2019-03-16T14:40:10Z</time>
      </trkpt>
      <trkpt lat="44.34472" lon="5.98497">
        <ele>837</ele>
        <time>2019-03-16T14:40:11Z</time>
      </trkpt>
      <trkpt lat="44.34477" lon="5.98507">
        <ele>837</ele>
        <time>2019-03-16T14:40:12Z</time>
      </trkpt>
      <trkpt lat="44.34482" lon="5.98517">
        <ele>837</ele>
        <time>2019-03-16T14:40:13Z</time>
      </trkpt>
      <trkpt lat="44.34486" lon="5.98527">
        <ele>837</ele>
        <time>2019-03-16T14:40:14Z</time>
      </trkpt>
      <trkpt lat="44.34492" lon="5.98537">
        <ele>837</ele>
        <time>2019-03-16T14:40:15Z</time>
      </trkpt>
      <trkpt lat="44.34497" lon="5.98548">
        <ele>837</ele>
        <time>2019-03-16T14:40:16Z</time>
      </trkpt>
      <trkpt lat="44.34502" lon="5.98558">
        <ele>837</ele>
        <time>2019-03-16T14:40:17Z</time>
      </trkpt>
      <trkpt lat="44.34506" lon="5.98568">
        <ele>837</ele>
        <time>2019-03-16T14:40:18Z</time>
      </trkpt>
      <trkpt lat="44.34511" lon="5.98578">
        <ele>837</ele>
        <time>2019-03-16T14:40:19Z</time>
      </trkpt>
      <trkpt lat="44.34515" lon="5.98587">
        <ele>837</ele>
        <time>2019-03-16T14:40:20Z</time>
      </trkpt>
      <trkpt lat="44.34519" lon="5.98596">
        <ele>837</ele>
        <time>2019-03-16T14:40:21Z</time>
      </trkpt>
      <trkpt lat="44.34521" lon="5.98606">
        <ele>837</ele>
        <time>2019-03-16T14:40:22Z</time>
      </trkpt>
      <trkpt lat="44.34523" lon="5.98616">
        <ele>837</ele>
        <time>2019-03-16T14:40:23Z</time>
      </trkpt>
      <trkpt lat="44.34525" lon="5.98625">
        <ele>837</ele>
        <time>2019-03-16T14:40:24Z</time>
      </trkpt>
      <trkpt lat="44.34527" lon="5.98635">
        <ele>837</ele>
        <time>2019-03-16T14:40:25Z</time>
      </trkpt>
      <trkpt lat="44.34528" lon="5.98644">
        <ele>836</ele>
        <time>2019-03-16T14:40:26Z</time>
      </trkpt>
      <trkpt lat="44.3453" lon="5.98654">
        <ele>836</ele>
        <time>2019-03-16T14:40:27Z</time>
      </trkpt>
      <trkpt lat="44.34532" lon="5.98664">
        <ele>836</ele>
        <time>2019-03-16T14:40:28Z</time>
      </trkpt>
      <trkpt lat="44.34533" lon="5.98673">
        <ele>836</ele>
        <time>2019-03-16T14:40:29Z</time>
      </trkpt>
      <trkpt lat="44.34536" lon="5.98683">
        <ele>836</ele>
        <time>2019-03-16T14:40:30Z</time>
      </trkpt>
      <trkpt lat="44.34538" lon="5.98692">
        <ele>836</ele>
        <time>2019-03-16T14:40:31Z</time>
      </trkpt>
      <trkpt lat="44.34541" lon="5.98701">
        <ele>836</ele>
        <time>2019-03-16T14:40:32Z</time>
      </trkpt>
      <trkpt lat="44.34545" lon="5.9871">
        <ele>836</ele>
        <time>2019-03-16T14:40:33Z</time>
      </trkpt>
      <trkpt lat="44.3455" lon="5.98717">
        <ele>835</ele>
        <time>2019-03-16T14:40:34Z</time>
      </trkpt>
      <trkpt lat="44.34556" lon="5.98723">
        <ele>835</ele>
        <time>2019-03-16T14:40:35Z</time>
      </trkpt>
      <trkpt lat="44.34562" lon="5.98727">
        <ele>835</ele>
        <time>2019-03-16T14:40:36Z</time>
      </trkpt>
      <trkpt lat="44.34568" lon="5.98731">
        <ele>835</ele>
        <time>2019-03-16T14:40:37Z</time>
      </trkpt>
      <trkpt lat="44.34574" lon="5.98735">
        <ele>835</ele>
        <time>2019-03-16T14:40:38Z</time>
      </trkpt>
      <trkpt lat="44.3458" lon="5.98738">
        <ele>835</ele>
        <time>2019-03-16T14:40:39Z</time>
      </trkpt>
      <trkpt lat="44.34586" lon="5.98742">
        <ele>835</ele>
        <time>2019-03-16T14:40:40Z</time>
      </trkpt>
      <trkpt lat="44.34592" lon="5.98745">
        <ele>835</ele>
        <time>2019-03-16T14:40:41Z</time>
      </trkpt>
      <trkpt lat="44.34597" lon="5.98748">
        <ele>835</ele>
        <time>2019-03-16T14:40:42Z</time>
      </trkpt>
      <trkpt lat="44.34602" lon="5.98751">
        <ele>835</ele>
        <time>2019-03-16T14:40:43Z</time>
      </trkpt>
      <trkpt lat="44.34608" lon="5.98755">
        <ele>835</ele>
        <time>2019-03-16T14:40:44Z</time>
      </trkpt>
      <trkpt lat="44.34613" lon="5.98758">
        <ele>835</ele>
        <time>2019-03-16T14:40:45Z</time>
      </trkpt>
      <trkpt lat="44.34618" lon="5.98761">
        <ele>835</ele>
        <time>2019-03-16T14:40:46Z</time>
      </trkpt>
      <trkpt lat="44.34623" lon="5.98764">
        <ele>835</ele>
        <time>2019-03-16T14:40:47Z</time>
      </trkpt>
      <trkpt lat="44.34628" lon="5.98767">
        <ele>835</ele>
        <time>2019-03-16T14:40:48Z</time>
      </trkpt>
      <trkpt lat="44.34634" lon="5.98771">
        <ele>835</ele>
        <time>2019-03-16T14:40:49Z</time>
      </trkpt>
      <trkpt lat="44.34639" lon="5.98774">
        <ele>835</ele>
        <time>2019-03-16T14:40:50Z</time>
      </trkpt>
      <trkpt lat="44.34645" lon="5.98778">
        <ele>835</ele>
        <time>2019-03-16T14:40:51Z</time>
      </trkpt>
      <trkpt lat="44.34651" lon="5.98782">
        <ele>835</ele>
        <time>2019-03-16T14:40:52Z</time>
      </trkpt>
      <trkpt lat="44.34656" lon="5.98787">
        <ele>835</ele>
        <time>2019-03-16T14:40:53Z</time>
      </trkpt>
      <trkpt lat="44.34661" lon="5.98792">
        <ele>835</ele>
        <time>2019-03-16T14:40:54Z</time>
      </trkpt>
      <trkpt lat="44.34666" lon="5.98797">
        <ele>835</ele>
        <time>2019-03-16T14:40:55Z</time>
      </trkpt>
      <trkpt lat="44.34671" lon="5.98803">
        <ele>835</ele>
        <time>2019-03-16T14:40:56Z</time>
      </trkpt>
      <trkpt lat="44.34676" lon="5.98809">
        <ele>835</ele>
        <time>2019-03-16T14:40:57Z</time>
      </trkpt>
      <trkpt lat="44.34682" lon="5.98815">
        <ele>835</ele>
        <time>2019-03-16T14:40:58Z</time>
      </trkpt>
      <trkpt lat="44.34687" lon="5.98821">
        <ele>835</ele>
        <time>2019-03-16T14:40:59Z</time>
      </trkpt>
      <trkpt lat="44.34692" lon="5.98826">
        <ele>835</ele>
        <time>2019-03-16T14:41:00Z</time>
      </trkpt>
      <trkpt lat="44.34698" lon="5.98831">
        <ele>835</ele>
        <time>2019-03-16T14:41:01Z</time>
      </trkpt>
      <trkpt lat="44.34703" lon="5.98836">
        <ele>835</ele>
        <time>2019-03-16T14:41:02Z</time>
      </trkpt>
      <trkpt lat="44.34709" lon="5.9884">
        <ele>835</ele>
        <time>2019-03-16T14:41:03Z</time>
      </trkpt>
      <trkpt lat="44.34716" lon="5.98844">
        <ele>834</ele>
        <time>2019-03-16T14:41:04Z</time>
      </trkpt>
      <trkpt lat="44.34723" lon="5.98848">
        <ele>834</ele>
        <time>2019-03-16T14:41:05Z</time>
      </trkpt>
      <trkpt lat="44.3473" lon="5.98851">
        <ele>833</ele>
        <time>2019-03-16T14:41:06Z</time>
      </trkpt>
      <trkpt lat="44.34737" lon="5.98854">
        <ele>833</ele>
        <time>2019-03-16T14:41:07Z</time>
      </trkpt>
      <trkpt lat="44.34745" lon="5.98856">
        <ele>833</ele>
        <time>2019-03-16T14:41:08Z</time>
      </trkpt>
      <trkpt lat="44.34753" lon="5.98857">
        <ele>832</ele>
        <time>2019-03-16T14:41:09Z</time>
      </trkpt>
      <trkpt lat="44.3476" lon="5.98859">
        <ele>832</ele>
        <time>2019-03-16T14:41:10Z</time>
      </trkpt>
      <trkpt lat="44.34767" lon="5.98862">
        <ele>832</ele>
        <time>2019-03-16T14:41:11Z</time>
      </trkpt>
      <trkpt lat="44.34774" lon="5.98865">
        <ele>832</ele>
        <time>2019-03-16T14:41:12Z</time>
      </trkpt>
      <trkpt lat="44.3478" lon="5.98869">
        <ele>832</ele>
        <time>2019-03-16T14:41:13Z</time>
      </trkpt>
      <trkpt lat="44.34786" lon="5.98873">
        <ele>832</ele>
        <time>2019-03-16T14:41:14Z</time>
      </trkpt>
      <trkpt lat="44.34792" lon="5.98878">
        <ele>832</ele>
        <time>2019-03-16T14:41:15Z</time>
      </trkpt>
      <trkpt lat="44.34798" lon="5.98884">
        <ele>831</ele>
        <time>2019-03-16T14:41:16Z</time>
      </trkpt>
      <trkpt lat="44.34803" lon="5.98892">
        <ele>831</ele>
        <time>2019-03-16T14:41:17Z</time>
      </trkpt>
      <trkpt lat="44.34808" lon="5.98901">
        <ele>830</ele>
        <time>2019-03-16T14:41:18Z</time>
      </trkpt>
      <trkpt lat="44.34811" lon="5.98911">
        <ele>830</ele>
        <time>2019-03-16T14:41:19Z</time>
      </trkpt>
      <trkpt lat="44.34814" lon="5.98921">
        <ele>829</ele>
        <time>2019-03-16T14:41:20Z</time>
      </trkpt>
      <trkpt lat="44.34816" lon="5.98933">
        <ele>829</ele>
        <time>2019-03-16T14:41:21Z</time>
      </trkpt>
      <trkpt lat="44.34818" lon="5.98945">
        <ele>828</ele>
        <time>2019-03-16T14:41:22Z</time>
      </trkpt>
      <trkpt lat="44.3482" lon="5.98956">
        <ele>828</ele>
        <time>2019-03-16T14:41:23Z</time>
      </trkpt>
      <trkpt lat="44.34821" lon="5.98969">
        <ele>827</ele>
        <time>2019-03-16T14:41:24Z</time>
      </trkpt>
      <trkpt lat="44.34823" lon="5.98981">
        <ele>827</ele>
        <time>2019-03-16T14:41:25Z</time>
      </trkpt>
      <trkpt lat="44.34825" lon="5.98993">
        <ele>826</ele>
        <time>2019-03-16T14:41:26Z</time>
      </trkpt>
      <trkpt lat="44.34827" lon="5.99006">
        <ele>825</ele>
        <time>2019-03-16T14:41:27Z</time>
      </trkpt>
      <trkpt lat="44.34829" lon="5.99018">
        <ele>825</ele>
        <time>2019-03-16T14:41:28Z</time>
      </trkpt>
      <trkpt lat="44.34831" lon="5.99031">
        <ele>825</ele>
        <time>2019-03-16T14:41:29Z</time>
      </trkpt>
      <trkpt lat="44.34833" lon="5.99043">
        <ele>824</ele>
        <time>2019-03-16T14:41:30Z</time>
      </trkpt>
      <trkpt lat="44.34835" lon="5.99055">
        <ele>824</ele>
        <time>2019-03-16T14:41:31Z</time>
      </trkpt>
      <trkpt lat="44.34837" lon="5.99067">
        <ele>824</ele>
        <time>2019-03-16T14:41:32Z</time>
      </trkpt>
      <trkpt lat="44.34839" lon="5.99079">
        <ele>824</ele>
        <time>2019-03-16T14:41:33Z</time>
      </trkpt>
      <trkpt lat="44.34841" lon="5.99091">
        <ele>824</ele>
        <time>2019-03-16T14:41:34Z</time>
      </trkpt>
      <trkpt lat="44.34843" lon="5.99103">
        <ele>824</ele>
        <time>2019-03-16T14:41:35Z</time>
      </trkpt>
      <trkpt lat="44.34845" lon="5.99115">
        <ele>823</ele>
        <time>2019-03-16T14:41:36Z</time>
      </trkpt>
      <trkpt lat="44.34847" lon="5.99126">
        <ele>823</ele>
        <time>2019-03-16T14:41:37Z</time>
      </trkpt>
      <trkpt lat="44.34849" lon="5.99138">
        <ele>823</ele>
        <time>2019-03-16T14:41:38Z</time>
      </trkpt>
      <trkpt lat="44.34851" lon="5.99149">
        <ele>823</ele>
        <time>2019-03-16T14:41:39Z</time>
      </trkpt>
      <trkpt lat="44.34854" lon="5.99159">
        <ele>823</ele>
        <time>2019-03-16T14:41:40Z</time>
      </trkpt>
      <trkpt lat="44.34857" lon="5.99169">
        <ele>823</ele>
        <time>2019-03-16T14:41:41Z</time>
      </trkpt>
      <trkpt lat="44.34861" lon="5.99179">
        <ele>823</ele>
        <time>2019-03-16T14:41:42Z</time>
      </trkpt>
      <trkpt lat="44.34864" lon="5.99188">
        <ele>823</ele>
        <time>2019-03-16T14:41:43Z</time>
      </trkpt>
      <trkpt lat="44.34869" lon="5.99196">
        <ele>823</ele>
        <time>2019-03-16T14:41:44Z</time>
      </trkpt>
      <trkpt lat="44.34873" lon="5.99204">
        <ele>823</ele>
        <time>2019-03-16T14:41:45Z</time>
      </trkpt>
      <trkpt lat="44.34877" lon="5.99212">
        <ele>823</ele>
        <time>2019-03-16T14:41:46Z</time>
      </trkpt>
      <trkpt lat="44.34882" lon="5.9922">
        <ele>823</ele>
        <time>2019-03-16T14:41:47Z</time>
      </trkpt>
      <trkpt lat="44.34886" lon="5.99227">
        <ele>823</ele>
        <time>2019-03-16T14:41:48Z</time>
      </trkpt>
      <trkpt lat="44.3489" lon="5.99234">
        <ele>823</ele>
        <time>2019-03-16T14:41:49Z</time>
      </trkpt>
      <trkpt lat="44.34894" lon="5.99241">
        <ele>823</ele>
        <time>2019-03-16T14:41:50Z</time>
      </trkpt>
      <trkpt lat="44.34898" lon="5.99249">
        <ele>823</ele>
        <time>2019-03-16T14:41:51Z</time>
      </trkpt>
      <trkpt lat="44.34902" lon="5.99256">
        <ele>823</ele>
        <time>2019-03-16T14:41:52Z</time>
      </trkpt>
      <trkpt lat="44.34907" lon="5.99262">
        <ele>823</ele>
        <time>2019-03-16T14:41:53Z</time>
      </trkpt>
      <trkpt lat="44.34911" lon="5.99269">
        <ele>823</ele>
        <time>2019-03-16T14:41:54Z</time>
      </trkpt>
      <trkpt lat="44.34915" lon="5.99275">
        <ele>823</ele>
        <time>2019-03-16T14:41:55Z</time>
      </trkpt>
      <trkpt lat="44.34919" lon="5.99282">
        <ele>823</ele>
        <time>2019-03-16T14:41:56Z</time>
      </trkpt>
      <trkpt lat="44.34923" lon="5.99289">
        <ele>823</ele>
        <time>2019-03-16T14:41:57Z</time>
      </trkpt>
      <trkpt lat="44.34927" lon="5.99296">
        <ele>823</ele>
        <time>2019-03-16T14:41:58Z</time>
      </trkpt>
      <trkpt lat="44.34931" lon="5.99302">
        <ele>823</ele>
        <time>2019-03-16T14:41:59Z</time>
      </trkpt>
      <trkpt lat="44.34935" lon="5.99308">
        <ele>823</ele>
        <time>2019-03-16T14:42:00Z</time>
      </trkpt>
      <trkpt lat="44.34939" lon="5.99315">
        <ele>823</ele>
        <time>2019-03-16T14:42:01Z</time>
      </trkpt>
      <trkpt lat="44.34943" lon="5.99321">
        <ele>823</ele>
        <time>2019-03-16T14:42:02Z</time>
      </trkpt>
      <trkpt lat="44.34947" lon="5.99328">
        <ele>823</ele>
        <time>2019-03-16T14:42:03Z</time>
      </trkpt>
      <trkpt lat="44.34951" lon="5.99334">
        <ele>823</ele>
        <time>2019-03-16T14:42:04Z</time>
      </trkpt>
      <trkpt lat="44.34954" lon="5.9934">
        <ele>823</ele>
        <time>2019-03-16T14:42:05Z</time>
      </trkpt>
      <trkpt lat="44.34958" lon="5.99346">
        <ele>823</ele>
        <time>2019-03-16T14:42:06Z</time>
      </trkpt>
      <trkpt lat="44.34962" lon="5.99353">
        <ele>823</ele>
        <time>2019-03-16T14:42:07Z</time>
      </trkpt>
      <trkpt lat="44.34966" lon="5.99359">
        <ele>823</ele>
        <time>2019-03-16T14:42:08Z</time>
      </trkpt>
      <trkpt lat="44.3497" lon="5.99365">
        <ele>823</ele>
        <time>2019-03-16T14:42:09Z</time>
      </trkpt>
      <trkpt lat="44.34974" lon="5.99371">
        <ele>823</ele>
        <time>2019-03-16T14:42:10Z</time>
      </trkpt>
      <trkpt lat="44.34978" lon="5.99377">
        <ele>823</ele>
        <time>2019-03-16T14:42:11Z</time>
      </trkpt>
      <trkpt lat="44.34981" lon="5.99383">
        <ele>823</ele>
        <time>2019-03-16T14:42:12Z</time>
      </trkpt>
      <trkpt lat="44.34985" lon="5.99389">
        <ele>823</ele>
        <time>2019-03-16T14:42:13Z</time>
      </trkpt>
      <trkpt lat="44.34988" lon="5.99394">
        <ele>823</ele>
        <time>2019-03-16T14:42:14Z</time>
      </trkpt>
      <trkpt lat="44.34991" lon="5.994">
        <ele>823</ele>
        <time>2019-03-16T14:42:15Z</time>
      </trkpt>
      <trkpt lat="44.34995" lon="5.99405">
        <ele>823</ele>
        <time>2019-03-16T14:42:16Z</time>
      </trkpt>
      <trkpt lat="44.34998" lon="5.9941">
        <ele>823</ele>
        <time>2019-03-16T14:42:17Z</time>
      </trkpt>
      <trkpt lat="44.35001" lon="5.99415">
        <ele>823</ele>
        <time>2019-03-16T14:42:18Z</time>
      </trkpt>
      <trkpt lat="44.35004" lon="5.99419">
        <ele>823</ele>
        <time>2019-03-16T14:42:19Z</time>
      </trkpt>
      <trkpt lat="44.35006" lon="5.99424">
        <ele>823</ele>
        <time>2019-03-16T14:42:20Z</time>
      </trkpt>
      <trkpt lat="44.35009" lon="5.99429">
        <ele>823</ele>
        <time>2019-03-16T14:42:21Z</time>
      </trkpt>
      <trkpt lat="44.35012" lon="5.99434">
        <ele>823</ele>
        <time>2019-03-16T14:42:22Z</time>
      </trkpt>
      <trkpt lat="44.35015" lon="5.99438">
        <ele>823</ele>
        <time>2019-03-16T14:42:23Z</time>
      </trkpt>
      <trkpt lat="44.35017" lon="5.99443">
        <ele>823</ele>
        <time>2019-03-16T14:42:24Z</time>
      </trkpt>
      <trkpt lat="44.3502" lon="5.99447">
        <ele>823</ele>
        <time>2019-03-16T14:42:25Z</time>
      </trkpt>
      <trkpt lat="44.35023" lon="5.99452">
        <ele>824</ele>
        <time>2019-03-16T14:42:26Z</time>
      </trkpt>
      <trkpt lat="44.35025" lon="5.99456">
        <ele>824</ele>
        <time>2019-03-16T14:42:27Z</time>
      </trkpt>
      <trkpt lat="44.35028" lon="5.9946">
        <ele>824</ele>
        <time>2019-03-16T14:42:28Z</time>
      </trkpt>
      <trkpt lat="44.35031" lon="5.99464">
        <ele>824</ele>
        <time>2019-03-16T14:42:29Z</time>
      </trkpt>
      <trkpt lat="44.35033" lon="5.99468">
        <ele>825</ele>
        <time>2019-03-16T14:42:30Z</time>
      </trkpt>
      <trkpt lat="44.35036" lon="5.99472">
        <ele>825</ele>
        <time>2019-03-16T14:42:31Z</time>
      </trkpt>
      <trkpt lat="44.35038" lon="5.99476">
        <ele>825</ele>
        <time>2019-03-16T14:42:32Z</time>
      </trkpt>
      <trkpt lat="44.3504" lon="5.99479">
        <ele>825</ele>
        <time>2019-03-16T14:42:33Z</time>
      </trkpt>
      <trkpt lat="44.35043" lon="5.99483">
        <ele>825</ele>
        <time>2019-03-16T14:42:34Z</time>
      </trkpt>
      <trkpt lat="44.35044" lon="5.99486">
        <ele>825</ele>
        <time>2019-03-16T14:42:35Z</time>
      </trkpt>
      <trkpt lat="44.35046" lon="5.99489">
        <ele>825</ele>
        <time>2019-03-16T14:42:36Z</time>
      </trkpt>
      <trkpt lat="44.35048" lon="5.99492">
        <ele>825</ele>
        <time>2019-03-16T14:42:37Z</time>
      </trkpt>
      <trkpt lat="44.3505" lon="5.99494">
        <ele>826</ele>
        <time>2019-03-16T14:42:38Z</time>
      </trkpt>
      <trkpt lat="44.35052" lon="5.99496">
        <ele>826</ele>
        <time>2019-03-16T14:42:39Z</time>
      </trkpt>
      <trkpt lat="44.35055" lon="5.99498">
        <ele>826</ele>
        <time>2019-03-16T14:42:40Z</time>
      </trkpt>
      <trkpt lat="44.35057" lon="5.995">
        <ele>826</ele>
        <time>2019-03-16T14:42:41Z</time>
      </trkpt>
      <trkpt lat="44.35061" lon="5.995">
        <ele>826</ele>
        <time>2019-03-16T14:42:42Z</time>
      </trkpt>
      <trkpt lat="44.35065" lon="5.99499">
        <ele>826</ele>
        <time>2019-03-16T14:42:43Z</time>
      </trkpt>
      <trkpt lat="44.35069" lon="5.99498">
        <ele>826</ele>
        <time>2019-03-16T14:42:44Z</time>
      </trkpt>
      <trkpt lat="44.35073" lon="5.99497">
        <ele>826</ele>
        <time>2019-03-16T14:42:45Z</time>
      </trkpt>
      <trkpt lat="44.35077" lon="5.99495">
        <ele>826</ele>
        <time>2019-03-16T14:42:46Z</time>
      </trkpt>
      <trkpt lat="44.35082" lon="5.99493">
        <ele>826</ele>
        <time>2019-03-16T14:42:47Z</time>
      </trkpt>
      <trkpt lat="44.35086" lon="5.99491">
        <ele>826</ele>
        <time>2019-03-16T14:42:48Z</time>
      </trkpt>
      <trkpt lat="44.35091" lon="5.99487">
        <ele>826</ele>
        <time>2019-03-16T14:42:49Z</time>
      </trkpt>
      <trkpt lat="44.35094" lon="5.99483">
        <ele>826</ele>
        <time>2019-03-16T14:42:50Z</time>
      </trkpt>
      <trkpt lat="44.35098" lon="5.99478">
        <ele>826</ele>
        <time>2019-03-16T14:42:51Z</time>
      </trkpt>
      <trkpt lat="44.35101" lon="5.99473">
        <ele>826</ele>
        <time>2019-03-16T14:42:52Z</time>
      </trkpt>
      <trkpt lat="44.35104" lon="5.99468">
        <ele>826</ele>
        <time>2019-03-16T14:42:53Z</time>
      </trkpt>
      <trkpt lat="44.35107" lon="5.99463">
        <ele>826</ele>
        <time>2019-03-16T14:42:54Z</time>
      </trkpt>
      <trkpt lat="44.35109" lon="5.99457">
        <ele>826</ele>
        <time>2019-03-16T14:42:55Z</time>
      </trkpt>
      <trkpt lat="44.35112" lon="5.99451">
        <ele>826</ele>
        <time>2019-03-16T14:42:56Z</time>
      </trkpt>
      <trkpt lat="44.35114" lon="5.99445">
        <ele>826</ele>
        <time>2019-03-16T14:42:57Z</time>
      </trkpt>
      <trkpt lat="44.35116" lon="5.99439">
        <ele>826</ele>
        <time>2019-03-16T14:42:58Z</time>
      </trkpt>
      <trkpt lat="44.35117" lon="5.99432">
        <ele>826</ele>
        <time>2019-03-16T14:42:59Z</time>
      </trkpt>
      <trkpt lat="44.35118" lon="5.99426">
        <ele>826</ele>
        <time>2019-03-16T14:43:00Z</time>
      </trkpt>
      <trkpt lat="44.35119" lon="5.9942">
        <ele>826</ele>
        <time>2019-03-16T14:43:01Z</time>
      </trkpt>
      <trkpt lat="44.3512" lon="5.99414">
        <ele>826</ele>
        <time>2019-03-16T14:43:02Z</time>
      </trkpt>
      <trkpt lat="44.3512" lon="5.99408">
        <ele>826</ele>
        <time>2019-03-16T14:43:03Z</time>
      </trkpt>
      <trkpt lat="44.35121" lon="5.99402">
        <ele>826</ele>
        <time>2019-03-16T14:43:04Z</time>
      </trkpt>
      <trkpt lat="44.35121" lon="5.99396">
        <ele>826</ele>
        <time>2019-03-16T14:43:05Z</time>
      </trkpt>
      <trkpt lat="44.35122" lon="5.9939">
        <ele>826</ele>
        <time>2019-03-16T14:43:06Z</time>
      </trkpt>
      <trkpt lat="44.35123" lon="5.99385">
        <ele>826</ele>
        <time>2019-03-16T14:43:07Z</time>
      </trkpt>
      <trkpt lat="44.35124" lon="5.99379">
        <ele>826</ele>
        <time>2019-03-16T14:43:08Z</time>
      </trkpt>
      <trkpt lat="44.35125" lon="5.99373">
        <ele>826</ele>
        <time>2019-03-16T14:43:09Z</time>
      </trkpt>
      <trkpt lat="44.35125" lon="5.99368">
        <ele>826</ele>
        <time>2019-03-16T14:43:10Z</time>
      </trkpt>
      <trkpt lat="44.35126" lon="5.99362">
        <ele>826</ele>
        <time>2019-03-16T14:43:11Z</time>
      </trkpt>
      <trkpt lat="44.35127" lon="5.99357">
        <ele>826</ele>
        <time>2019-03-16T14:43:12Z</time>
      </trkpt>
      <trkpt lat="44.35128" lon="5.99351">
        <ele>826</ele>
        <time>2019-03-16T14:43:13Z</time>
      </trkpt>
      <trkpt lat="44.35129" lon="5.99346">
        <ele>826</ele>
        <time>2019-03-16T14:43:14Z</time>
      </trkpt>
      <trkpt lat="44.3513" lon="5.9934">
        <ele>826</ele>
        <time>2019-03-16T14:43:15Z</time>
      </trkpt>
      <trkpt lat="44.3513" lon="5.99335">
        <ele>826</ele>
        <time>2019-03-16T14:43:16Z</time>
      </trkpt>
      <trkpt lat="44.35131" lon="5.99329">
        <ele>826</ele>
        <time>2019-03-16T14:43:17Z</time>
      </trkpt>
      <trkpt lat="44.35132" lon="5.99324">
        <ele>826</ele>
        <time>2019-03-16T14:43:18Z</time>
      </trkpt>
      <trkpt lat="44.35133" lon="5.99318">
        <ele>826</ele>
        <time>2019-03-16T14:43:19Z</time>
      </trkpt>
      <trkpt lat="44.35134" lon="5.99312">
        <ele>827</ele>
        <time>2019-03-16T14:43:20Z</time>
      </trkpt>
      <trkpt lat="44.35135" lon="5.99306">
        <ele>827</ele>
        <time>2019-03-16T14:43:21Z</time>
      </trkpt>
      <trkpt lat="44.35136" lon="5.99301">
        <ele>827</ele>
        <time>2019-03-16T14:43:22Z</time>
      </trkpt>
      <trkpt lat="44.35137" lon="5.99296">
        <ele>827</ele>
        <time>2019-03-16T14:43:23Z</time>
      </trkpt>
      <trkpt lat="44.35138" lon="5.9929">
        <ele>827</ele>
        <time>2019-03-16T14:43:24Z</time>
      </trkpt>
      <trkpt lat="44.3514" lon="5.99285">
        <ele>828</ele>
        <time>2019-03-16T14:43:25Z</time>
      </trkpt>
      <trkpt lat="44.35141" lon="5.9928">
        <ele>828</ele>
        <time>2019-03-16T14:43:26Z</time>
      </trkpt>
      <trkpt lat="44.35143" lon="5.99275">
        <ele>828</ele>
        <time>2019-03-16T14:43:27Z</time>
      </trkpt>
      <trkpt lat="44.35144" lon="5.9927">
        <ele>828</ele>
        <time>2019-03-16T14:43:28Z</time>
      </trkpt>
      <trkpt lat="44.35146" lon="5.99266">
        <ele>828</ele>
        <time>2019-03-16T14:43:29Z</time>
      </trkpt>
      <trkpt lat="44.35148" lon="5.99261">
        <ele>828</ele>
        <time>2019-03-16T14:43:30Z</time>
      </trkpt>
      <trkpt lat="44.3515" lon="5.99256">
        <ele>829</ele>
        <time>2019-03-16T14:43:31Z</time>
      </trkpt>
      <trkpt lat="44.35152" lon="5.99252">
        <ele>829</ele>
        <time>2019-03-16T14:43:32Z</time>
      </trkpt>
      <trkpt lat="44.35155" lon="5.99247">
        <ele>829</ele>
        <time>2019-03-16T14:43:33Z</time>
      </trkpt>
      <trkpt lat="44.35157" lon="5.99243">
        <ele>829</ele>
        <time>2019-03-16T14:43:34Z</time>
      </trkpt>
      <trkpt lat="44.3516" lon="5.99239">
        <ele>829</ele>
        <time>2019-03-16T14:43:35Z</time>
      </trkpt>
      <trkpt lat="44.35162" lon="5.99234">
        <ele>829</ele>
        <time>2019-03-16T14:43:36Z</time>
      </trkpt>
      <trkpt lat="44.35165" lon="5.9923">
        <ele>829</ele>
        <time>2019-03-16T14:43:37Z</time>
      </trkpt>
      <trkpt lat="44.35168" lon="5.99226">
        <ele>829</ele>
        <time>2019-03-16T14:43:38Z</time>
      </trkpt>
      <trkpt lat="44.3517" lon="5.99222">
        <ele>829</ele>
        <time>2019-03-16T14:43:39Z</time>
      </trkpt>
      <trkpt lat="44.35173" lon="5.99218">
        <ele>829</ele>
        <time>2019-03-16T14:43:40Z</time>
      </trkpt>
      <trkpt lat="44.35176" lon="5.99214">
        <ele>829</ele>
        <time>2019-03-16T14:43:41Z</time>
      </trkpt>
      <trkpt lat="44.35178" lon="5.9921">
        <ele>829</ele>
        <time>2019-03-16T14:43:42Z</time>
      </trkpt>
      <trkpt lat="44.35181" lon="5.99206">
        <ele>829</ele>
        <time>2019-03-16T14:43:43Z</time>
      </trkpt>
      <trkpt lat="44.35184" lon="5.99202">
        <ele>829</ele>
        <time>2019-03-16T14:43:44Z</time>
      </trkpt>
      <trkpt lat="44.35186" lon="5.99198">
        <ele>829</ele>
        <time>2019-03-16T14:43:45Z</time>
      </trkpt>
      <trkpt lat="44.35189" lon="5.99194">
        <ele>829</ele>
        <time>2019-03-16T14:43:46Z</time>
      </trkpt>
      <trkpt lat="44.35191" lon="5.99189">
        <ele>829</ele>
        <time>2019-03-16T14:43:47Z</time>
      </trkpt>
      <trkpt lat="44.35194" lon="5.99185">
        <ele>829</ele>
        <time>2019-03-16T14:43:48Z</time>
      </trkpt>
      <trkpt lat="44.35196" lon="5.9918">
        <ele>829</ele>
        <time>2019-03-16T14:43:49Z</time>
      </trkpt>
      <trkpt lat="44.35198" lon="5.99175">
        <ele>829</ele>
        <time>2019-03-16T14:43:50Z</time>
      </trkpt>
      <trkpt lat="44.352" lon="5.9917">
        <ele>829</ele>
        <time>2019-03-16T14:43:51Z</time>
      </trkpt>
      <trkpt lat="44.35202" lon="5.99166">
        <ele>829</ele>
        <time>2019-03-16T14:43:52Z</time>
      </trkpt>
      <trkpt lat="44.35205" lon="5.9916">
        <ele>829</ele>
        <time>2019-03-16T14:43:53Z</time>
      </trkpt>
      <trkpt lat="44.35207" lon="5.99156">
        <ele>829</ele>
        <time>2019-03-16T14:43:54Z</time>
      </trkpt>
      <trkpt lat="44.3521" lon="5.99151">
        <ele>829</ele>
        <time>2019-03-16T14:43:55Z</time>
      </trkpt>
      <trkpt lat="44.35213" lon="5.99147">
        <ele>829</ele>
        <time>2019-03-16T14:43:56Z</time>
      </trkpt>
      <trkpt lat="44.35217" lon="5.99142">
        <ele>830</ele>
        <time>2019-03-16T14:43:57Z</time>
      </trkpt>
      <trkpt lat="44.35221" lon="5.99139">
        <ele>830</ele>
        <time>2019-03-16T14:43:58Z</time>
      </trkpt>
      <trkpt lat="44.35226" lon="5.99135">
        <ele>830</ele>
        <time>2019-03-16T14:43:59Z</time>
      </trkpt>
      <trkpt lat="44.35231" lon="5.99132">
        <ele>830</ele>
        <time>2019-03-16T14:44:00Z</time>
      </trkpt>
      <trkpt lat="44.35236" lon="5.9913">
        <ele>830</ele>
        <time>2019-03-16T14:44:01Z</time>
      </trkpt>
      <trkpt lat="44.35241" lon="5.9913">
        <ele>830</ele>
        <time>2019-03-16T14:44:02Z</time>
      </trkpt>
      <trkpt lat="44.35247" lon="5.99129">
        <ele>830</ele>
        <time>2019-03-16T14:44:03Z</time>
      </trkpt>
      <trkpt lat="44.35253" lon="5.99129">
        <ele>830</ele>
        <time>2019-03-16T14:44:04Z</time>
      </trkpt>
      <trkpt lat="44.35259" lon="5.99128">
        <ele>830</ele>
        <time>2019-03-16T14:44:05Z</time>
      </trkpt>
      <trkpt lat="44.35266" lon="5.99128">
        <ele>830</ele>
        <time>2019-03-16T14:44:06Z</time>
      </trkpt>
      <trkpt lat="44.35273" lon="5.99129">
        <ele>830</ele>
        <time>2019-03-16T14:44:07Z</time>
      </trkpt>
      <trkpt lat="44.35281" lon="5.99129">
        <ele>830</ele>
        <time>2019-03-16T14:44:08Z</time>
      </trkpt>
      <trkpt lat="44.35289" lon="5.9913">
        <ele>830</ele>
        <time>2019-03-16T14:44:09Z</time>
      </trkpt>
      <trkpt lat="44.35297" lon="5.9913">
        <ele>830</ele>
        <time>2019-03-16T14:44:10Z</time>
      </trkpt>
      <trkpt lat="44.35306" lon="5.9913">
        <ele>830</ele>
        <time>2019-03-16T14:44:11Z</time>
      </trkpt>
      <trkpt lat="44.35315" lon="5.9913">
        <ele>830</ele>
        <time>2019-03-16T14:44:12Z</time>
      </trkpt>
      <trkpt lat="44.35324" lon="5.99129">
        <ele>830</ele>
        <time>2019-03-16T14:44:13Z</time>
      </trkpt>
      <trkpt lat="44.35334" lon="5.99128">
        <ele>829</ele>
        <time>2019-03-16T14:44:14Z</time>
      </trkpt>
      <trkpt lat="44.35344" lon="5.99126">
        <ele>828</ele>
        <time>2019-03-16T14:44:15Z</time>
      </trkpt>
      <trkpt lat="44.35354" lon="5.99124">
        <ele>828</ele>
        <time>2019-03-16T14:44:16Z</time>
      </trkpt>
      <trkpt lat="44.35364" lon="5.99122">
        <ele>827</ele>
        <time>2019-03-16T14:44:17Z</time>
      </trkpt>
      <trkpt lat="44.35374" lon="5.99119">
        <ele>827</ele>
        <time>2019-03-16T14:44:18Z</time>
      </trkpt>
      <trkpt lat="44.35384" lon="5.99117">
        <ele>826</ele>
        <time>2019-03-16T14:44:19Z</time>
      </trkpt>
      <trkpt lat="44.35394" lon="5.99114">
        <ele>826</ele>
        <time>2019-03-16T14:44:20Z</time>
      </trkpt>
      <trkpt lat="44.35404" lon="5.9911">
        <ele>826</ele>
        <time>2019-03-16T14:44:21Z</time>
      </trkpt>
      <trkpt lat="44.35414" lon="5.99106">
        <ele>826</ele>
        <time>2019-03-16T14:44:22Z</time>
      </trkpt>
      <trkpt lat="44.35423" lon="5.99101">
        <ele>826</ele>
        <time>2019-03-16T14:44:23Z</time>
      </trkpt>
      <trkpt lat="44.35432" lon="5.99096">
        <ele>826</ele>
        <time>2019-03-16T14:44:24Z</time>
      </trkpt>
      <trkpt lat="44.3544" lon="5.99091">
        <ele>826</ele>
        <time>2019-03-16T14:44:25Z</time>
      </trkpt>
      <trkpt lat="44.35447" lon="5.99085">
        <ele>826</ele>
        <time>2019-03-16T14:44:26Z</time>
      </trkpt>
      <trkpt lat="44.35454" lon="5.99079">
        <ele>826</ele>
        <time>2019-03-16T14:44:27Z</time>
      </trkpt>
      <trkpt lat="44.35461" lon="5.99073">
        <ele>826</ele>
        <time>2019-03-16T14:44:28Z</time>
      </trkpt>
      <trkpt lat="44.35468" lon="5.99067">
        <ele>826</ele>
        <time>2019-03-16T14:44:29Z</time>
      </trkpt>
      <trkpt lat="44.35474" lon="5.99062">
        <ele>826</ele>
        <time>2019-03-16T14:44:30Z</time>
      </trkpt>
      <trkpt lat="44.35481" lon="5.99058">
        <ele>826</ele>
        <time>2019-03-16T14:44:31Z</time>
      </trkpt>
      <trkpt lat="44.35487" lon="5.99054">
        <ele>826</ele>
        <time>2019-03-16T14:44:32Z</time>
      </trkpt>
      <trkpt lat="44.35493" lon="5.99051">
        <ele>826</ele>
        <time>2019-03-16T14:44:33Z</time>
      </trkpt>
      <trkpt lat="44.355" lon="5.99048">
        <ele>826</ele>
        <time>2019-03-16T14:44:34Z</time>
      </trkpt>
      <trkpt lat="44.35506" lon="5.99045">
        <ele>826</ele>
        <time>2019-03-16T14:44:35Z</time>
      </trkpt>
      <trkpt lat="44.35511" lon="5.99042">
        <ele>826</ele>
        <time>2019-03-16T14:44:36Z</time>
      </trkpt>
      <trkpt lat="44.35517" lon="5.99039">
        <ele>826</ele>
        <time>2019-03-16T14:44:37Z</time>
      </trkpt>
      <trkpt lat="44.35523" lon="5.99035">
        <ele>826</ele>
        <time>2019-03-16T14:44:38Z</time>
      </trkpt>
      <trkpt lat="44.35529" lon="5.99032">
        <ele>826</ele>
        <time>2019-03-16T14:44:39Z</time>
      </trkpt>
      <trkpt lat="44.35535" lon="5.99028">
        <ele>826</ele>
        <time>2019-03-16T14:44:40Z</time>
      </trkpt>
      <trkpt lat="44.35541" lon="5.99025">
        <ele>826</ele>
        <time>2019-03-16T14:44:41Z</time>
      </trkpt>
      <trkpt lat="44.35547" lon="5.99021">
        <ele>826</ele>
        <time>2019-03-16T14:44:42Z</time>
      </trkpt>
      <trkpt lat="44.35553" lon="5.99018">
        <ele>826</ele>
        <time>2019-03-16T14:44:43Z</time>
      </trkpt>
      <trkpt lat="44.35559" lon="5.99014">
        <ele>826</ele>
        <time>2019-03-16T14:44:44Z</time>
      </trkpt>
      <trkpt lat="44.35565" lon="5.9901">
        <ele>826</ele>
        <time>2019-03-16T14:44:45Z</time>
      </trkpt>
      <trkpt lat="44.35571" lon="5.99006">
        <ele>826</ele>
        <time>2019-03-16T14:44:46Z</time>
      </trkpt>
      <trkpt lat="44.35576" lon="5.99003">
        <ele>826</ele>
        <time>2019-03-16T14:44:47Z</time>
      </trkpt>
      <trkpt lat="44.35582" lon="5.98999">
        <ele>826</ele>
        <time>2019-03-16T14:44:48Z</time>
      </trkpt>
      <trkpt lat="44.35587" lon="5.98995">
        <ele>826</ele>
        <time>2019-03-16T14:44:49Z</time>
      </trkpt>
      <trkpt lat="44.35591" lon="5.98991">
        <ele>826</ele>
        <time>2019-03-16T14:44:50Z</time>
      </trkpt>
      <trkpt lat="44.35596" lon="5.98987">
        <ele>826</ele>
        <time>2019-03-16T14:44:51Z</time>
      </trkpt>
      <trkpt lat="44.356" lon="5.98983">
        <ele>826</ele>
        <time>2019-03-16T14:44:52Z</time>
      </trkpt>
      <trkpt lat="44.35604" lon="5.9898">
        <ele>826</ele>
        <time>2019-03-16T14:44:53Z</time>
      </trkpt>
      <trkpt lat="44.35609" lon="5.98976">
        <ele>826</ele>
        <time>2019-03-16T14:44:54Z</time>
      </trkpt>
      <trkpt lat="44.35612" lon="5.98972">
        <ele>826</ele>
        <time>2019-03-16T14:44:55Z</time>
      </trkpt>
      <trkpt lat="44.35616" lon="5.98968">
        <ele>826</ele>
        <time>2019-03-16T14:44:56Z</time>
      </trkpt>
      <trkpt lat="44.3562" lon="5.98963">
        <ele>826</ele>
        <time>2019-03-16T14:44:57Z</time>
      </trkpt>
      <trkpt lat="44.35624" lon="5.98959">
        <ele>826</ele>
        <time>2019-03-16T14:44:58Z</time>
      </trkpt>
      <trkpt lat="44.35628" lon="5.98954">
        <ele>826</ele>
        <time>2019-03-16T14:44:59Z</time>
      </trkpt>
      <trkpt lat="44.35632" lon="5.9895">
        <ele>826</ele>
        <time>2019-03-16T14:45:00Z</time>
      </trkpt>
      <trkpt lat="44.35636" lon="5.98946">
        <ele>826</ele>
        <time>2019-03-16T14:45:01Z</time>
      </trkpt>
      <trkpt lat="44.3564" lon="5.98942">
        <ele>827</ele>
        <time>2019-03-16T14:45:02Z</time>
      </trkpt>
      <trkpt lat="44.35644" lon="5.98938">
        <ele>827</ele>
        <time>2019-03-16T14:45:03Z</time>
      </trkpt>
      <trkpt lat="44.35648" lon="5.98933">
        <ele>827</ele>
        <time>2019-03-16T14:45:04Z</time>
      </trkpt>
      <trkpt lat="44.35652" lon="5.98929">
        <ele>827</ele>
        <time>2019-03-16T14:45:05Z</time>
      </trkpt>
      <trkpt lat="44.35656" lon="5.98925">
        <ele>827</ele>
        <time>2019-03-16T14:45:06Z</time>
      </trkpt>
      <trkpt lat="44.3566" lon="5.98921">
        <ele>827</ele>
        <time>2019-03-16T14:45:07Z</time>
      </trkpt>
      <trkpt lat="44.35664" lon="5.98916">
        <ele>827</ele>
        <time>2019-03-16T14:45:08Z</time>
      </trkpt>
      <trkpt lat="44.35668" lon="5.98912">
        <ele>827</ele>
        <time>2019-03-16T14:45:09Z</time>
      </trkpt>
      <trkpt lat="44.35672" lon="5.98909">
        <ele>828</ele>
        <time>2019-03-16T14:45:10Z</time>
      </trkpt>
      <trkpt lat="44.35676" lon="5.98905">
        <ele>828</ele>
        <time>2019-03-16T14:45:11Z</time>
      </trkpt>
      <trkpt lat="44.35679" lon="5.98901">
        <ele>828</ele>
        <time>2019-03-16T14:45:12Z</time>
      </trkpt>
      <trkpt lat="44.35683" lon="5.98897">
        <ele>828</ele>
        <time>2019-03-16T14:45:13Z</time>
      </trkpt>
      <trkpt lat="44.35686" lon="5.98893">
        <ele>829</ele>
        <time>2019-03-16T14:45:14Z</time>
      </trkpt>
      <trkpt lat="44.35689" lon="5.98889">
        <ele>829</ele>
        <time>2019-03-16T14:45:15Z</time>
      </trkpt>
      <trkpt lat="44.35692" lon="5.98886">
        <ele>829</ele>
        <time>2019-03-16T14:45:16Z</time>
      </trkpt>
      <trkpt lat="44.35695" lon="5.98882">
        <ele>830</ele>
        <time>2019-03-16T14:45:17Z</time>
      </trkpt>
      <trkpt lat="44.35697" lon="5.98878">
        <ele>830</ele>
        <time>2019-03-16T14:45:18Z</time>
      </trkpt>
      <trkpt lat="44.357" lon="5.98875">
        <ele>830</ele>
        <time>2019-03-16T14:45:19Z</time>
      </trkpt>
      <trkpt lat="44.35703" lon="5.98872">
        <ele>831</ele>
        <time>2019-03-16T14:45:20Z</time>
      </trkpt>
      <trkpt lat="44.35706" lon="5.98869">
        <ele>831</ele>
        <time>2019-03-16T14:45:21Z</time>
      </trkpt>
      <trkpt lat="44.35708" lon="5.98865">
        <ele>831</ele>
        <time>2019-03-16T14:45:22Z</time>
      </trkpt>
      <trkpt lat="44.3571" lon="5.98861">
        <ele>832</ele>
        <time>2019-03-16T14:45:23Z</time>
      </trkpt>
      <trkpt lat="44.35713" lon="5.98858">
        <ele>832</ele>
        <time>2019-03-16T14:45:24Z</time>
      </trkpt>
      <trkpt lat="44.35716" lon="5.98854">
        <ele>832</ele>
        <time>2019-03-16T14:45:25Z</time>
      </trkpt>
      <trkpt lat="44.35718" lon="5.98851">
        <ele>833</ele>
        <time>2019-03-16T14:45:26Z</time>
      </trkpt>
      <trkpt lat="44.35721" lon="5.98847">
        <ele>833</ele>
        <time>2019-03-16T14:45:27Z</time>
      </trkpt>
      <trkpt lat="44.35723" lon="5.98844">
        <ele>833</ele>
        <time>2019-03-16T14:45:28Z</time>
      </trkpt>
      <trkpt lat="44.35726" lon="5.98841">
        <ele>834</ele>
        <time>2019-03-16T14:45:29Z</time>
      </trkpt>
      <trkpt lat="44.35728" lon="5.98837">
        <ele>834</ele>
        <time>2019-03-16T14:45:30Z</time>
      </trkpt>
      <trkpt lat="44.3573" lon="5.98834">
        <ele>834</ele>
        <time>2019-03-16T14:45:31Z</time>
      </trkpt>
      <trkpt lat="44.35733" lon="5.98831">
        <ele>835</ele>
        <time>2019-03-16T14:45:32Z</time>
      </trkpt>
      <trkpt lat="44.35735" lon="5.98828">
        <ele>835</ele>
        <time>2019-03-16T14:45:33Z</time>
      </trkpt>
      <trkpt lat="44.35736" lon="5.98826">
        <ele>835</ele>
        <time>2019-03-16T14:45:34Z</time>
      </trkpt>
      <trkpt lat="44.35738" lon="5.98823">
        <ele>836</ele>
        <time>2019-03-16T14:45:35Z</time>
      </trkpt>
      <trkpt lat="44.3574" lon="5.9882">
        <ele>836</ele>
        <time>2019-03-16T14:45:36Z</time>
      </trkpt>
      <trkpt lat="44.35742" lon="5.98818">
        <ele>836</ele>
        <time>2019-03-16T14:45:37Z</time>
      </trkpt>
      <trkpt lat="44.35744" lon="5.98815">
        <ele>836</ele>
        <time>2019-03-16T14:45:38Z</time>
      </trkpt>
      <trkpt lat="44.35746" lon="5.98813">
        <ele>837</ele>
        <time>2019-03-16T14:45:39Z</time>
      </trkpt>
      <trkpt lat="44.35748" lon="5.98811">
        <ele>837</ele>
        <time>2019-03-16T14:45:40Z</time>
      </trkpt>
      <trkpt lat="44.3575" lon="5.98808">
        <ele>837</ele>
        <time>2019-03-16T14:45:41Z</time>
      </trkpt>
      <trkpt lat="44.35752" lon="5.98806">
        <ele>837</ele>
        <time>2019-03-16T14:45:42Z</time>
      </trkpt>
      <trkpt lat="44.35754" lon="5.98804">
        <ele>838</ele>
        <time>2019-03-16T14:45:43Z</time>
      </trkpt>
      <trkpt lat="44.35757" lon="5.98802">
        <ele>838</ele>
        <time>2019-03-16T14:45:44Z</time>
      </trkpt>
      <trkpt lat="44.35759" lon="5.98801">
        <ele>838</ele>
        <time>2019-03-16T14:45:45Z</time>
      </trkpt>
      <trkpt lat="44.35761" lon="5.98799">
        <ele>838</ele>
        <time>2019-03-16T14:45:46Z</time>
      </trkpt>
      <trkpt lat="44.35763" lon="5.98797">
        <ele>839</ele>
        <time>2019-03-16T14:45:47Z</time>
      </trkpt>
      <trkpt lat="44.35766" lon="5.98796">
        <ele>839</ele>
        <time>2019-03-16T14:45:48Z</time>
      </trkpt>
      <trkpt lat="44.35768" lon="5.98794">
        <ele>839</ele>
        <time>2019-03-16T14:45:49Z</time>
      </trkpt>
      <trkpt lat="44.35771" lon="5.98793">
        <ele>840</ele>
        <time>2019-03-16T14:45:50Z</time>
      </trkpt>
      <trkpt lat="44.35773" lon="5.98791">
        <ele>840</ele>
        <time>2019-03-16T14:45:51Z</time>
      </trkpt>
      <trkpt lat="44.35776" lon="5.98789">
        <ele>840</ele>
        <time>2019-03-16T14:45:52Z</time>
      </trkpt>
      <trkpt lat="44.35779" lon="5.98787">
        <ele>841</ele>
        <time>2019-03-16T14:45:53Z</time>
      </trkpt>
      <trkpt lat="44.35782" lon="5.98786">
        <ele>841</ele>
        <time>2019-03-16T14:45:54Z</time>
      </trkpt>
      <trkpt lat="44.35785" lon="5.98784">
        <ele>841</ele>
        <time>2019-03-16T14:45:55Z</time>
      </trkpt>
      <trkpt lat="44.35788" lon="5.98782">
        <ele>841</ele>
        <time>2019-03-16T14:45:56Z</time>
      </trkpt>
      <trkpt lat="44.35792" lon="5.98779">
        <ele>842</ele>
        <time>2019-03-16T14:45:57Z</time>
      </trkpt>
      <trkpt lat="44.35795" lon="5.98777">
        <ele>842</ele>
        <time>2019-03-16T14:45:58Z</time>
      </trkpt>
      <trkpt lat="44.35798" lon="5.98774">
        <ele>842</ele>
        <time>2019-03-16T14:45:59Z</time>
      </trkpt>
      <trkpt lat="44.35801" lon="5.98772">
        <ele>843</ele>
        <time>2019-03-16T14:46:00Z</time>
      </trkpt>
      <trkpt lat="44.35804" lon="5.98769">
        <ele>844</ele>
        <time>2019-03-16T14:46:01Z</time>
      </trkpt>
      <trkpt lat="44.35807" lon="5.98766">
        <ele>844</ele>
        <time>2019-03-16T14:46:02Z</time>
      </trkpt>
      <trkpt lat="44.3581" lon="5.98764">
        <ele>845</ele>
        <time>2019-03-16T14:46:03Z</time>
      </trkpt>
      <trkpt lat="44.35813" lon="5.98761">
        <ele>845</ele>
        <time>2019-03-16T14:46:04Z</time>
      </trkpt>
      <trkpt lat="44.35815" lon="5.98758">
        <ele>845</ele>
        <time>2019-03-16T14:46:05Z</time>
      </trkpt>
      <trkpt lat="44.35817" lon="5.98755">
        <ele>845</ele>
        <time>2019-03-16T14:46:06Z</time>
      </trkpt>
      <trkpt lat="44.3582" lon="5.98753">
        <ele>846</ele>
        <time>2019-03-16T14:46:07Z</time>
      </trkpt>
      <trkpt lat="44.35822" lon="5.9875">
        <ele>846</ele>
        <time>2019-03-16T14:46:08Z</time>
      </trkpt>
      <trkpt lat="44.35825" lon="5.98748">
        <ele>846</ele>
        <time>2019-03-16T14:46:09Z</time>
      </trkpt>
      <trkpt lat="44.35827" lon="5.98745">
        <ele>846</ele>
        <time>2019-03-16T14:46:10Z</time>
      </trkpt>
      <trkpt lat="44.3583" lon="5.98743">
        <ele>846</ele>
        <time>2019-03-16T14:46:11Z</time>
      </trkpt>
      <trkpt lat="44.35833" lon="5.98742">
        <ele>846</ele>
        <time>2019-03-16T14:46:12Z</time>
      </trkpt>
      <trkpt lat="44.35836" lon="5.9874">
        <ele>846</ele>
        <time>2019-03-16T14:46:13Z</time>
      </trkpt>
      <trkpt lat="44.35839" lon="5.98739">
        <ele>846</ele>
        <time>2019-03-16T14:46:14Z</time>
      </trkpt>
      <trkpt lat="44.35842" lon="5.98738">
        <ele>846</ele>
        <time>2019-03-16T14:46:15Z</time>
      </trkpt>
      <trkpt lat="44.35846" lon="5.98736">
        <ele>846</ele>
        <time>2019-03-16T14:46:16Z</time>
      </trkpt>
      <trkpt lat="44.3585" lon="5.98735">
        <ele>846</ele>
        <time>2019-03-16T14:46:17Z</time>
      </trkpt>
      <trkpt lat="44.35854" lon="5.98734">
        <ele>846</ele>
        <time>2019-03-16T14:46:18Z</time>
      </trkpt>
      <trkpt lat="44.35859" lon="5.98732">
        <ele>846</ele>
        <time>2019-03-16T14:46:19Z</time>
      </trkpt>
      <trkpt lat="44.35864" lon="5.9873">
        <ele>846</ele>
        <time>2019-03-16T14:46:20Z</time>
      </trkpt>
      <trkpt lat="44.35869" lon="5.98729">
        <ele>846</ele>
        <time>2019-03-16T14:46:21Z</time>
      </trkpt>
      <trkpt lat="44.35874" lon="5.98727">
        <ele>846</ele>
        <time>2019-03-16T14:46:22Z</time>
      </trkpt>
      <trkpt lat="44.3588" lon="5.98725">
        <ele>846</ele>
        <time>2019-03-16T14:46:23Z</time>
      </trkpt>
      <trkpt lat="44.35885" lon="5.98722">
        <ele>846</ele>
        <time>2019-03-16T14:46:24Z</time>
      </trkpt>
      <trkpt lat="44.35891" lon="5.9872">
        <ele>846</ele>
        <time>2019-03-16T14:46:25Z</time>
      </trkpt>
      <trkpt lat="44.35897" lon="5.98717">
        <ele>846</ele>
        <time>2019-03-16T14:46:26Z</time>
      </trkpt>
      <trkpt lat="44.35903" lon="5.98715">
        <ele>846</ele>
        <time>2019-03-16T14:46:27Z</time>
      </trkpt>
      <trkpt lat="44.35909" lon="5.98713">
        <ele>846</ele>
        <time>2019-03-16T14:46:28Z</time>
      </trkpt>
      <trkpt lat="44.35915" lon="5.9871">
        <ele>846</ele>
        <time>2019-03-16T14:46:29Z</time>
      </trkpt>
      <trkpt lat="44.35921" lon="5.98708">
        <ele>846</ele>
        <time>2019-03-16T14:46:30Z</time>
      </trkpt>
      <trkpt lat="44.35927" lon="5.98705">
        <ele>846</ele>
        <time>2019-03-16T14:46:31Z</time>
      </trkpt>
      <trkpt lat="44.35933" lon="5.98702">
        <ele>846</ele>
        <time>2019-03-16T14:46:32Z</time>
      </trkpt>
      <trkpt lat="44.35938" lon="5.98699">
        <ele>846</ele>
        <time>2019-03-16T14:46:33Z</time>
      </trkpt>
      <trkpt lat="44.35944" lon="5.98696">
        <ele>846</ele>
        <time>2019-03-16T14:46:34Z</time>
      </trkpt>
      <trkpt lat="44.35949" lon="5.98693">
        <ele>846</ele>
        <time>2019-03-16T14:46:35Z</time>
      </trkpt>
      <trkpt lat="44.35955" lon="5.98691">
        <ele>846</ele>
        <time>2019-03-16T14:46:36Z</time>
      </trkpt>
      <trkpt lat="44.3596" lon="5.98688">
        <ele>846</ele>
        <time>2019-03-16T14:46:37Z</time>
      </trkpt>
      <trkpt lat="44.35966" lon="5.98685">
        <ele>846</ele>
        <time>2019-03-16T14:46:38Z</time>
      </trkpt>
      <trkpt lat="44.35971" lon="5.98681">
        <ele>846</ele>
        <time>2019-03-16T14:46:39Z</time>
      </trkpt>
      <trkpt lat="44.35976" lon="5.98677">
        <ele>846</ele>
        <time>2019-03-16T14:46:40Z</time>
      </trkpt>
      <trkpt lat="44.35981" lon="5.98673">
        <ele>846</ele>
        <time>2019-03-16T14:46:41Z</time>
      </trkpt>
      <trkpt lat="44.35986" lon="5.98669">
        <ele>846</ele>
        <time>2019-03-16T14:46:42Z</time>
      </trkpt>
      <trkpt lat="44.35991" lon="5.98665">
        <ele>846</ele>
        <time>2019-03-16T14:46:43Z</time>
      </trkpt>
      <trkpt lat="44.35995" lon="5.9866">
        <ele>846</ele>
        <time>2019-03-16T14:46:44Z</time>
      </trkpt>
      <trkpt lat="44.36" lon="5.98655">
        <ele>846</ele>
        <time>2019-03-16T14:46:45Z</time>
      </trkpt>
      <trkpt lat="44.36004" lon="5.9865">
        <ele>846</ele>
        <time>2019-03-16T14:46:46Z</time>
      </trkpt>
      <trkpt lat="44.36007" lon="5.98644">
        <ele>846</ele>
        <time>2019-03-16T14:46:47Z</time>
      </trkpt>
      <trkpt lat="44.36011" lon="5.98638">
        <ele>846</ele>
        <time>2019-03-16T14:46:48Z</time>
      </trkpt>
      <trkpt lat="44.36014" lon="5.98632">
        <ele>846</ele>
        <time>2019-03-16T14:46:49Z</time>
      </trkpt>
      <trkpt lat="44.36017" lon="5.98625">
        <ele>846</ele>
        <time>2019-03-16T14:46:50Z</time>
      </trkpt>
      <trkpt lat="44.3602" lon="5.98619">
        <ele>846</ele>
        <time>2019-03-16T14:46:51Z</time>
      </trkpt>
      <trkpt lat="44.36023" lon="5.98612">
        <ele>846</ele>
        <time>2019-03-16T14:46:52Z</time>
      </trkpt>
      <trkpt lat="44.36026" lon="5.98606">
        <ele>846</ele>
        <time>2019-03-16T14:46:53Z</time>
      </trkpt>
      <trkpt lat="44.36029" lon="5.98599">
        <ele>846</ele>
        <time>2019-03-16T14:46:54Z</time>
      </trkpt>
      <trkpt lat="44.36032" lon="5.98592">
        <ele>846</ele>
        <time>2019-03-16T14:46:55Z</time>
      </trkpt>
      <trkpt lat="44.36035" lon="5.98585">
        <ele>846</ele>
        <time>2019-03-16T14:46:56Z</time>
      </trkpt>
      <trkpt lat="44.36038" lon="5.98578">
        <ele>846</ele>
        <time>2019-03-16T14:46:57Z</time>
      </trkpt>
      <trkpt lat="44.36042" lon="5.98571">
        <ele>846</ele>
        <time>2019-03-16T14:46:58Z</time>
      </trkpt>
      <trkpt lat="44.36045" lon="5.98564">
        <ele>846</ele>
        <time>2019-03-16T14:46:59Z</time>
      </trkpt>
      <trkpt lat="44.36048" lon="5.98556">
        <ele>846</ele>
        <time>2019-03-16T14:47:00Z</time>
      </trkpt>
      <trkpt lat="44.36051" lon="5.98549">
        <ele>846</ele>
        <time>2019-03-16T14:47:01Z</time>
      </trkpt>
      <trkpt lat="44.36055" lon="5.98541">
        <ele>846</ele>
        <time>2019-03-16T14:47:02Z</time>
      </trkpt>
      <trkpt lat="44.3606" lon="5.98534">
        <ele>845</ele>
        <time>2019-03-16T14:47:03Z</time>
      </trkpt>
      <trkpt lat="44.36066" lon="5.98527">
        <ele>845</ele>
        <time>2019-03-16T14:47:04Z</time>
      </trkpt>
      <trkpt lat="44.36074" lon="5.98521">
        <ele>844</ele>
        <time>2019-03-16T14:47:05Z</time>
      </trkpt>
      <trkpt lat="44.36083" lon="5.98517">
        <ele>843</ele>
        <time>2019-03-16T14:47:06Z</time>
      </trkpt>
      <trkpt lat="44.36092" lon="5.98514">
        <ele>843</ele>
        <time>2019-03-16T14:47:07Z</time>
      </trkpt>
      <trkpt lat="44.36101" lon="5.98512">
        <ele>842</ele>
        <time>2019-03-16T14:47:08Z</time>
      </trkpt>
      <trkpt lat="44.3611" lon="5.98508">
        <ele>841</ele>
        <time>2019-03-16T14:47:09Z</time>
      </trkpt>
      <trkpt lat="44.36118" lon="5.98502">
        <ele>840</ele>
        <time>2019-03-16T14:47:10Z</time>
      </trkpt>
      <trkpt lat="44.36124" lon="5.98493">
        <ele>839</ele>
        <time>2019-03-16T14:47:11Z</time>
      </trkpt>
      <trkpt lat="44.36129" lon="5.98482">
        <ele>838</ele>
        <time>2019-03-16T14:47:12Z</time>
      </trkpt>
      <trkpt lat="44.36134" lon="5.98472">
        <ele>838</ele>
        <time>2019-03-16T14:47:13Z</time>
      </trkpt>
      <trkpt lat="44.3614" lon="5.98463">
        <ele>837</ele>
        <time>2019-03-16T14:47:14Z</time>
      </trkpt>
      <trkpt lat="44.36146" lon="5.98455">
        <ele>837</ele>
        <time>2019-03-16T14:47:15Z</time>
      </trkpt>
      <trkpt lat="44.36152" lon="5.98449">
        <ele>837</ele>
        <time>2019-03-16T14:47:16Z</time>
      </trkpt>
      <trkpt lat="44.36157" lon="5.98443">
        <ele>837</ele>
        <time>2019-03-16T14:47:17Z</time>
      </trkpt>
      <trkpt lat="44.36162" lon="5.98436">
        <ele>837</ele>
        <time>2019-03-16T14:47:18Z</time>
      </trkpt>
      <trkpt lat="44.36166" lon="5.9843">
        <ele>837</ele>
        <time>2019-03-16T14:47:19Z</time>
      </trkpt>
      <trkpt lat="44.36171" lon="5.98424">
        <ele>837</ele>
        <time>2019-03-16T14:47:20Z</time>
      </trkpt>
      <trkpt lat="44.36176" lon="5.98418">
        <ele>837</ele>
        <time>2019-03-16T14:47:21Z</time>
      </trkpt>
      <trkpt lat="44.36179" lon="5.98413">
        <ele>837</ele>
        <time>2019-03-16T14:47:22Z</time>
      </trkpt>
      <trkpt lat="44.36183" lon="5.98407">
        <ele>837</ele>
        <time>2019-03-16T14:47:23Z</time>
      </trkpt>
      <trkpt lat="44.36187" lon="5.98402">
        <ele>837</ele>
        <time>2019-03-16T14:47:24Z</time>
      </trkpt>
      <trkpt lat="44.36191" lon="5.98398">
        <ele>837</ele>
        <time>2019-03-16T14:47:25Z</time>
      </trkpt>
      <trkpt lat="44.36195" lon="5.98394">
        <ele>837</ele>
        <time>2019-03-16T14:47:26Z</time>
      </trkpt>
      <trkpt lat="44.36199" lon="5.9839">
        <ele>837</ele>
        <time>2019-03-16T14:47:27Z</time>
      </trkpt>
      <trkpt lat="44.36203" lon="5.98387">
        <ele>837</ele>
        <time>2019-03-16T14:47:28Z</time>
      </trkpt>
      <trkpt lat="44.36208" lon="5.98384">
        <ele>837</ele>
        <time>2019-03-16T14:47:29Z</time>
      </trkpt>
      <trkpt lat="44.36212" lon="5.98382">
        <ele>837</ele>
        <time>2019-03-16T14:47:30Z</time>
      </trkpt>
      <trkpt lat="44.36217" lon="5.98379">
        <ele>837</ele>
        <time>2019-03-16T14:47:31Z</time>
      </trkpt>
      <trkpt lat="44.36221" lon="5.98377">
        <ele>837</ele>
        <time>2019-03-16T14:47:32Z</time>
      </trkpt>
      <trkpt lat="44.36225" lon="5.98375">
        <ele>837</ele>
        <time>2019-03-16T14:47:33Z</time>
      </trkpt>
      <trkpt lat="44.36229" lon="5.98374">
        <ele>837</ele>
        <time>2019-03-16T14:47:34Z</time>
      </trkpt>
      <trkpt lat="44.36234" lon="5.98372">
        <ele>837</ele>
        <time>2019-03-16T14:47:35Z</time>
      </trkpt>
      <trkpt lat="44.36238" lon="5.9837">
        <ele>837</ele>
        <time>2019-03-16T14:47:36Z</time>
      </trkpt>
      <trkpt lat="44.36242" lon="5.98368">
        <ele>837</ele>
        <time>2019-03-16T14:47:37Z</time>
      </trkpt>
      <trkpt lat="44.36246" lon="5.98366">
        <ele>837</ele>
        <time>2019-03-16T14:47:38Z</time>
      </trkpt>
      <trkpt lat="44.36251" lon="5.98364">
        <ele>838</ele>
        <time>2019-03-16T14:47:39Z</time>
      </trkpt>
      <trkpt lat="44.36255" lon="5.98363">
        <ele>838</ele>
        <time>2019-03-16T14:47:40Z</time>
      </trkpt>
      <trkpt lat="44.36259" lon="5.98361">
        <ele>838</ele>
        <time>2019-03-16T14:47:41Z</time>
      </trkpt>
      <trkpt lat="44.36264" lon="5.98359">
        <ele>838</ele>
        <time>2019-03-16T14:47:42Z</time>
      </trkpt>
      <trkpt lat="44.36268" lon="5.98357">
        <ele>839</ele>
        <time>2019-03-16T14:47:43Z</time>
      </trkpt>
      <trkpt lat="44.36273" lon="5.98355">
        <ele>839</ele>
        <time>2019-03-16T14:47:44Z</time>
      </trkpt>
      <trkpt lat="44.36277" lon="5.98353">
        <ele>839</ele>
        <time>2019-03-16T14:47:45Z</time>
      </trkpt>
      <trkpt lat="44.36282" lon="5.98352">
        <ele>839</ele>
        <time>2019-03-16T14:47:46Z</time>
      </trkpt>
      <trkpt lat="44.36287" lon="5.9835">
        <ele>839</ele>
        <time>2019-03-16T14:47:47Z</time>
      </trkpt>
      <trkpt lat="44.36292" lon="5.98349">
        <ele>839</ele>
        <time>2019-03-16T14:47:48Z</time>
      </trkpt>
      <trkpt lat="44.36296" lon="5.98347">
        <ele>839</ele>
        <time>2019-03-16T14:47:49Z</time>
      </trkpt>
      <trkpt lat="44.36301" lon="5.98346">
        <ele>839</ele>
        <time>2019-03-16T14:47:50Z</time>
      </trkpt>
      <trkpt lat="44.36306" lon="5.98345">
        <ele>840</ele>
        <time>2019-03-16T14:47:51Z</time>
      </trkpt>
      <trkpt lat="44.36311" lon="5.98345">
        <ele>840</ele>
        <time>2019-03-16T14:47:52Z</time>
      </trkpt>
      <trkpt lat="44.36315" lon="5.98345">
        <ele>840</ele>
        <time>2019-03-16T14:47:53Z</time>
      </trkpt>
      <trkpt lat="44.3632" lon="5.98346">
        <ele>840</ele>
        <time>2019-03-16T14:47:54Z</time>
      </trkpt>
      <trkpt lat="44.36324" lon="5.98348">
        <ele>840</ele>
        <time>2019-03-16T14:47:55Z</time>
      </trkpt>
      <trkpt lat="44.36328" lon="5.9835">
        <ele>841</ele>
        <time>2019-03-16T14:47:56Z</time>
      </trkpt>
      <trkpt lat="44.36332" lon="5.98352">
        <ele>841</ele>
        <time>2019-03-16T14:47:57Z</time>
      </trkpt>
      <trkpt lat="44.36335" lon="5.98354">
        <ele>841</ele>
        <time>2019-03-16T14:47:58Z</time>
      </trkpt>
      <trkpt lat="44.36338" lon="5.98357">
        <ele>841</ele>
        <time>2019-03-16T14:47:59Z</time>
      </trkpt>
      <trkpt lat="44.36341" lon="5.9836">
        <ele>841</ele>
        <time>2019-03-16T14:48:00Z</time>
      </trkpt>
      <trkpt lat="44.36344" lon="5.98363">
        <ele>841</ele>
        <time>2019-03-16T14:48:01Z</time>
      </trkpt>
      <trkpt lat="44.36348" lon="5.98366">
        <ele>841</ele>
        <time>2019-03-16T14:48:02Z</time>
      </trkpt>
      <trkpt lat="44.36351" lon="5.98369">
        <ele>841</ele>
        <time>2019-03-16T14:48:03Z</time>
      </trkpt>
      <trkpt lat="44.36354" lon="5.98372">
        <ele>841</ele>
        <time>2019-03-16T14:48:04Z</time>
      </trkpt>
      <trkpt lat="44.36357" lon="5.98375">
        <ele>841</ele>
        <time>2019-03-16T14:48:05Z</time>
      </trkpt>
      <trkpt lat="44.3636" lon="5.98378">
        <ele>841</ele>
        <time>2019-03-16T14:48:06Z</time>
      </trkpt>
      <trkpt lat="44.36363" lon="5.98381">
        <ele>841</ele>
        <time>2019-03-16T14:48:07Z</time>
      </trkpt>
      <trkpt lat="44.36366" lon="5.98384">
        <ele>841</ele>
        <time>2019-03-16T14:48:08Z</time>
      </trkpt>
      <trkpt lat="44.36369" lon="5.98387">
        <ele>841</ele>
        <time>2019-03-16T14:48:09Z</time>
      </trkpt>
      <trkpt lat="44.36372" lon="5.98389">
        <ele>841</ele>
        <time>2019-03-16T14:48:10Z</time>
      </trkpt>
      <trkpt lat="44.36375" lon="5.98392">
        <ele>841</ele>
        <time>2019-03-16T14:48:11Z</time>
      </trkpt>
      <trkpt lat="44.36379" lon="5.98395">
        <ele>841</ele>
        <time>2019-03-16T14:48:12Z</time>
      </trkpt>
      <trkpt lat="44.36383" lon="5.98398">
        <ele>841</ele>
        <time>2019-03-16T14:48:13Z</time>
      </trkpt>
      <trkpt lat="44.36386" lon="5.98402">
        <ele>841</ele>
        <time>2019-03-16T14:48:14Z</time>
      </trkpt>
      <trkpt lat="44.3639" lon="5.98406">
        <ele>841</ele>
        <time>2019-03-16T14:48:15Z</time>
      </trkpt>
      <trkpt lat="44.36394" lon="5.98409">
        <ele>841</ele>
        <time>2019-03-16T14:48:16Z</time>
      </trkpt>
      <trkpt lat="44.36398" lon="5.98411">
        <ele>842</ele>
        <time>2019-03-16T14:48:17Z</time>
      </trkpt>
      <trkpt lat="44.36401" lon="5.98412">
        <ele>842</ele>
        <time>2019-03-16T14:48:18Z</time>
      </trkpt>
      <trkpt lat="44.36404" lon="5.98413">
        <ele>842</ele>
        <time>2019-03-16T14:48:19Z</time>
      </trkpt>
      <trkpt lat="44.36407" lon="5.98415">
        <ele>843</ele>
        <time>2019-03-16T14:48:20Z</time>
      </trkpt>
      <trkpt lat="44.36411" lon="5.98416">
        <ele>843</ele>
        <time>2019-03-16T14:48:21Z</time>
      </trkpt>
      <trkpt lat="44.36414" lon="5.98418">
        <ele>843</ele>
        <time>2019-03-16T14:48:22Z</time>
      </trkpt>
      <trkpt lat="44.36417" lon="5.98419">
        <ele>844</ele>
        <time>2019-03-16T14:48:23Z</time>
      </trkpt>
      <trkpt lat="44.3642" lon="5.9842">
        <ele>844</ele>
        <time>2019-03-16T14:48:24Z</time>
      </trkpt>
      <trkpt lat="44.36423" lon="5.98422">
        <ele>844</ele>
        <time>2019-03-16T14:48:25Z</time>
      </trkpt>
      <trkpt lat="44.36426" lon="5.98423">
        <ele>844</ele>
        <time>2019-03-16T14:48:26Z</time>
      </trkpt>
      <trkpt lat="44.36429" lon="5.98425">
        <ele>845</ele>
        <time>2019-03-16T14:48:27Z</time>
      </trkpt>
      <trkpt lat="44.36432" lon="5.98427">
        <ele>845</ele>
        <time>2019-03-16T14:48:28Z</time>
      </trkpt>
      <trkpt lat="44.36435" lon="5.98429">
        <ele>845</ele>
        <time>2019-03-16T14:48:29Z</time>
      </trkpt>
      <trkpt lat="44.36438" lon="5.98433">
        <ele>845</ele>
        <time>2019-03-16T14:48:30Z</time>
      </trkpt>
      <trkpt lat="44.36442" lon="5.98437">
        <ele>845</ele>
        <time>2019-03-16T14:48:31Z</time>
      </trkpt>
      <trkpt lat="44.36445" lon="5.98442">
        <ele>845</ele>
        <time>2019-03-16T14:48:32Z</time>
      </trkpt>
      <trkpt lat="44.36449" lon="5.98448">
        <ele>845</ele>
        <time>2019-03-16T14:48:33Z</time>
      </trkpt>
      <trkpt lat="44.36453" lon="5.98454">
        <ele>845</ele>
        <time>2019-03-16T14:48:34Z</time>
      </trkpt>
      <trkpt lat="44.36458" lon="5.98458">
        <ele>845</ele>
        <time>2019-03-16T14:48:35Z</time>
      </trkpt>
      <trkpt lat="44.36464" lon="5.9846">
        <ele>845</ele>
        <time>2019-03-16T14:48:36Z</time>
      </trkpt>
      <trkpt lat="44.3647" lon="5.9846">
        <ele>845</ele>
        <time>2019-03-16T14:48:37Z</time>
      </trkpt>
      <trkpt lat="44.36477" lon="5.98458">
        <ele>845</ele>
        <time>2019-03-16T14:48:38Z</time>
      </trkpt>
      <trkpt lat="44.36483" lon="5.98455">
        <ele>845</ele>
        <time>2019-03-16T14:48:39Z</time>
      </trkpt>
      <trkpt lat="44.36488" lon="5.98451">
        <ele>845</ele>
        <time>2019-03-16T14:48:40Z</time>
      </trkpt>
      <trkpt lat="44.36493" lon="5.98447">
        <ele>845</ele>
        <time>2019-03-16T14:48:41Z</time>
      </trkpt>
      <trkpt lat="44.36498" lon="5.98444">
        <ele>845</ele>
        <time>2019-03-16T14:48:42Z</time>
      </trkpt>
      <trkpt lat="44.36502" lon="5.98441">
        <ele>845</ele>
        <time>2019-03-16T14:48:43Z</time>
      </trkpt>
      <trkpt lat="44.36506" lon="5.98438">
        <ele>846</ele>
        <time>2019-03-16T14:48:44Z</time>
      </trkpt>
      <trkpt lat="44.3651" lon="5.98435">
        <ele>846</ele>
        <time>2019-03-16T14:48:45Z</time>
      </trkpt>
      <trkpt lat="44.36513" lon="5.98433">
        <ele>847</ele>
        <time>2019-03-16T14:48:46Z</time>
      </trkpt>
      <trkpt lat="44.36517" lon="5.98431">
        <ele>847</ele>
        <time>2019-03-16T14:48:47Z</time>
      </trkpt>
      <trkpt lat="44.3652" lon="5.98428">
        <ele>847</ele>
        <time>2019-03-16T14:48:48Z</time>
      </trkpt>
      <trkpt lat="44.36523" lon="5.98426">
        <ele>848</ele>
        <time>2019-03-16T14:48:49Z</time>
      </trkpt>
      <trkpt lat="44.36526" lon="5.98423">
        <ele>848</ele>
        <time>2019-03-16T14:48:50Z</time>
      </trkpt>
      <trkpt lat="44.36528" lon="5.9842">
        <ele>848</ele>
        <time>2019-03-16T14:48:51Z</time>
      </trkpt>
      <trkpt lat="44.36531" lon="5.98417">
        <ele>849</ele>
        <time>2019-03-16T14:48:52Z</time>
      </trkpt>
      <trkpt lat="44.36533" lon="5.98413">
        <ele>849</ele>
        <time>2019-03-16T14:48:53Z</time>
      </trkpt>
      <trkpt lat="44.36535" lon="5.98409">
        <ele>849</ele>
        <time>2019-03-16T14:48:54Z</time>
      </trkpt>
      <trkpt lat="44.36536" lon="5.98404">
        <ele>849</ele>
        <time>2019-03-16T14:48:55Z</time>
      </trkpt>
      <trkpt lat="44.36538" lon="5.98399">
        <ele>849</ele>
        <time>2019-03-16T14:48:56Z</time>
      </trkpt>
      <trkpt lat="44.36539" lon="5.98394">
        <ele>849</ele>
        <time>2019-03-16T14:48:57Z</time>
      </trkpt>
      <trkpt lat="44.3654" lon="5.98389">
        <ele>849</ele>
        <time>2019-03-16T14:48:58Z</time>
      </trkpt>
      <trkpt lat="44.36541" lon="5.98384">
        <ele>849</ele>
        <time>2019-03-16T14:48:59Z</time>
      </trkpt>
      <trkpt lat="44.36542" lon="5.98378">
        <ele>850</ele>
        <time>2019-03-16T14:49:00Z</time>
      </trkpt>
      <trkpt lat="44.36542" lon="5.98373">
        <ele>850</ele>
        <time>2019-03-16T14:49:01Z</time>
      </trkpt>
      <trkpt lat="44.36542" lon="5.98368">
        <ele>850</ele>
        <time>2019-03-16T14:49:02Z</time>
      </trkpt>
      <trkpt lat="44.36543" lon="5.98363">
        <ele>850</ele>
        <time>2019-03-16T14:49:03Z</time>
      </trkpt>
      <trkpt lat="44.36543" lon="5.98358">
        <ele>850</ele>
        <time>2019-03-16T14:49:04Z</time>
      </trkpt>
      <trkpt lat="44.36544" lon="5.98354">
        <ele>851</ele>
        <time>2019-03-16T14:49:05Z</time>
      </trkpt>
      <trkpt lat="44.36544" lon="5.98349">
        <ele>851</ele>
        <time>2019-03-16T14:49:06Z</time>
      </trkpt>
      <trkpt lat="44.36545" lon="5.98344">
        <ele>851</ele>
        <time>2019-03-16T14:49:07Z</time>
      </trkpt>
      <trkpt lat="44.36546" lon="5.9834">
        <ele>851</ele>
        <time>2019-03-16T14:49:08Z</time>
      </trkpt>
      <trkpt lat="44.36548" lon="5.98335">
        <ele>851</ele>
        <time>2019-03-16T14:49:09Z</time>
      </trkpt>
      <trkpt lat="44.3655" lon="5.98331">
        <ele>852</ele>
        <time>2019-03-16T14:49:10Z</time>
      </trkpt>
      <trkpt lat="44.36552" lon="5.98326">
        <ele>852</ele>
        <time>2019-03-16T14:49:11Z</time>
      </trkpt>
      <trkpt lat="44.36554" lon="5.98322">
        <ele>852</ele>
        <time>2019-03-16T14:49:12Z</time>
      </trkpt>
      <trkpt lat="44.36556" lon="5.98318">
        <ele>852</ele>
        <time>2019-03-16T14:49:13Z</time>
      </trkpt>
      <trkpt lat="44.36559" lon="5.98314">
        <ele>853</ele>
        <time>2019-03-16T14:49:14Z</time>
      </trkpt>
      <trkpt lat="44.36561" lon="5.98311">
        <ele>853</ele>
        <time>2019-03-16T14:49:15Z</time>
      </trkpt>
      <trkpt lat="44.36563" lon="5.98307">
        <ele>853</ele>
        <time>2019-03-16T14:49:16Z</time>
      </trkpt>
      <trkpt lat="44.36565" lon="5.98303">
        <ele>853</ele>
        <time>2019-03-16T14:49:17Z</time>
      </trkpt>
      <trkpt lat="44.36567" lon="5.98298">
        <ele>853</ele>
        <time>2019-03-16T14:49:18Z</time>
      </trkpt>
      <trkpt lat="44.36568" lon="5.98294">
        <ele>853</ele>
        <time>2019-03-16T14:49:19Z</time>
      </trkpt>
      <trkpt lat="44.36569" lon="5.98289">
        <ele>854</ele>
        <time>2019-03-16T14:49:20Z</time>
      </trkpt>
      <trkpt lat="44.3657" lon="5.98284">
        <ele>854</ele>
        <time>2019-03-16T14:49:21Z</time>
      </trkpt>
      <trkpt lat="44.36571" lon="5.98279">
        <ele>854</ele>
        <time>2019-03-16T14:49:22Z</time>
      </trkpt>
      <trkpt lat="44.36572" lon="5.98273">
        <ele>854</ele>
        <time>2019-03-16T14:49:23Z</time>
      </trkpt>
      <trkpt lat="44.36573" lon="5.98268">
        <ele>854</ele>
        <time>2019-03-16T14:49:24Z</time>
      </trkpt>
      <trkpt lat="44.36574" lon="5.98262">
        <ele>854</ele>
        <time>2019-03-16T14:49:25Z</time>
      </trkpt>
      <trkpt lat="44.36575" lon="5.98256">
        <ele>854</ele>
        <time>2019-03-16T14:49:26Z</time>
      </trkpt>
      <trkpt lat="44.36577" lon="5.9825">
        <ele>854</ele>
        <time>2019-03-16T14:49:27Z</time>
      </trkpt>
      <trkpt lat="44.36579" lon="5.98245">
        <ele>854</ele>
        <time>2019-03-16T14:49:28Z</time>
      </trkpt>
      <trkpt lat="44.36582" lon="5.98241">
        <ele>854</ele>
        <time>2019-03-16T14:49:29Z</time>
      </trkpt>
      <trkpt lat="44.36585" lon="5.98237">
        <ele>854</ele>
        <time>2019-03-16T14:49:30Z</time>
      </trkpt>
      <trkpt lat="44.36589" lon="5.98234">
        <ele>854</ele>
        <time>2019-03-16T14:49:31Z</time>
      </trkpt>
      <trkpt lat="44.36594" lon="5.98232">
        <ele>854</ele>
        <time>2019-03-16T14:49:32Z</time>
      </trkpt>
      <trkpt lat="44.36599" lon="5.98231">
        <ele>854</ele>
        <time>2019-03-16T14:49:33Z</time>
      </trkpt>
      <trkpt lat="44.36605" lon="5.9823">
        <ele>854</ele>
        <time>2019-03-16T14:49:34Z</time>
      </trkpt>
      <trkpt lat="44.36611" lon="5.98231">
        <ele>854</ele>
        <time>2019-03-16T14:49:35Z</time>
      </trkpt>
      <trkpt lat="44.36617" lon="5.98233">
        <ele>854</ele>
        <time>2019-03-16T14:49:36Z</time>
      </trkpt>
      <trkpt lat="44.36623" lon="5.98235">
        <ele>854</ele>
        <time>2019-03-16T14:49:37Z</time>
      </trkpt>
      <trkpt lat="44.3663" lon="5.98237">
        <ele>854</ele>
        <time>2019-03-16T14:49:38Z</time>
      </trkpt>
      <trkpt lat="44.36637" lon="5.98239">
        <ele>854</ele>
        <time>2019-03-16T14:49:39Z</time>
      </trkpt>
      <trkpt lat="44.36644" lon="5.98239">
        <ele>854</ele>
        <time>2019-03-16T14:49:40Z</time>
      </trkpt>
      <trkpt lat="44.36651" lon="5.98238">
        <ele>854</ele>
        <time>2019-03-16T14:49:41Z</time>
      </trkpt>
      <trkpt lat="44.36658" lon="5.98235">
        <ele>854</ele>
        <time>2019-03-16T14:49:42Z</time>
      </trkpt>
      <trkpt lat="44.36664" lon="5.98229">
        <ele>854</ele>
        <time>2019-03-16T14:49:43Z</time>
      </trkpt>
      <trkpt lat="44.36668" lon="5.98221">
        <ele>854</ele>
        <time>2019-03-16T14:49:44Z</time>
      </trkpt>
      <trkpt lat="44.36671" lon="5.98211">
        <ele>854</ele>
        <time>2019-03-16T14:49:45Z</time>
      </trkpt>
      <trkpt lat="44.36673" lon="5.98202">
        <ele>854</ele>
        <time>2019-03-16T14:49:46Z</time>
      </trkpt>
      <trkpt lat="44.36674" lon="5.98192">
        <ele>854</ele>
        <time>2019-03-16T14:49:47Z</time>
      </trkpt>
      <trkpt lat="44.36675" lon="5.98182">
        <ele>854</ele>
        <time>2019-03-16T14:49:48Z</time>
      </trkpt>
      <trkpt lat="44.36676" lon="5.98172">
        <ele>854</ele>
        <time>2019-03-16T14:49:49Z</time>
      </trkpt>
      <trkpt lat="44.36676" lon="5.98161">
        <ele>854</ele>
        <time>2019-03-16T14:49:50Z</time>
      </trkpt>
      <trkpt lat="44.36676" lon="5.98149">
        <ele>854</ele>
        <time>2019-03-16T14:49:51Z</time>
      </trkpt>
      <trkpt lat="44.36677" lon="5.98138">
        <ele>853</ele>
        <time>2019-03-16T14:49:52Z</time>
      </trkpt>
      <trkpt lat="44.36677" lon="5.98125">
        <ele>853</ele>
        <time>2019-03-16T14:49:53Z</time>
      </trkpt>
      <trkpt lat="44.36678" lon="5.98112">
        <ele>852</ele>
        <time>2019-03-16T14:49:54Z</time>
      </trkpt>
      <trkpt lat="44.36678" lon="5.98099">
        <ele>851</ele>
        <time>2019-03-16T14:49:55Z</time>
      </trkpt>
      <trkpt lat="44.36678" lon="5.98086">
        <ele>851</ele>
        <time>2019-03-16T14:49:56Z</time>
      </trkpt>
      <trkpt lat="44.36678" lon="5.98072">
        <ele>850</ele>
        <time>2019-03-16T14:49:57Z</time>
      </trkpt>
      <trkpt lat="44.36677" lon="5.98059">
        <ele>849</ele>
        <time>2019-03-16T14:49:58Z</time>
      </trkpt>
      <trkpt lat="44.36677" lon="5.98046">
        <ele>848</ele>
        <time>2019-03-16T14:49:59Z</time>
      </trkpt>
      <trkpt lat="44.36678" lon="5.98033">
        <ele>848</ele>
        <time>2019-03-16T14:50:00Z</time>
      </trkpt>
      <trkpt lat="44.36678" lon="5.9802">
        <ele>847</ele>
        <time>2019-03-16T14:50:01Z</time>
      </trkpt>
      <trkpt lat="44.36678" lon="5.98007">
        <ele>846</ele>
        <time>2019-03-16T14:50:02Z</time>
      </trkpt>
      <trkpt lat="44.36678" lon="5.97996">
        <ele>845</ele>
        <time>2019-03-16T14:50:03Z</time>
      </trkpt>
      <trkpt lat="44.36678" lon="5.97984">
        <ele>845</ele>
        <time>2019-03-16T14:50:04Z</time>
      </trkpt>
      <trkpt lat="44.36676" lon="5.97972">
        <ele>844</ele>
        <time>2019-03-16T14:50:05Z</time>
      </trkpt>
      <trkpt lat="44.36672" lon="5.97962">
        <ele>843</ele>
        <time>2019-03-16T14:50:06Z</time>
      </trkpt>
      <trkpt lat="44.36667" lon="5.97951">
        <ele>842</ele>
        <time>2019-03-16T14:50:07Z</time>
      </trkpt>
      <trkpt lat="44.36661" lon="5.97941">
        <ele>842</ele>
        <time>2019-03-16T14:50:08Z</time>
      </trkpt>
      <trkpt lat="44.36654" lon="5.97931">
        <ele>841</ele>
        <time>2019-03-16T14:50:09Z</time>
      </trkpt>
      <trkpt lat="44.36647" lon="5.97922">
        <ele>840</ele>
        <time>2019-03-16T14:50:10Z</time>
      </trkpt>
      <trkpt lat="44.36641" lon="5.97911">
        <ele>839</ele>
        <time>2019-03-16T14:50:11Z</time>
      </trkpt>
      <trkpt lat="44.36635" lon="5.97901">
        <ele>839</ele>
        <time>2019-03-16T14:50:12Z</time>
      </trkpt>
      <trkpt lat="44.36629" lon="5.9789">
        <ele>838</ele>
        <time>2019-03-16T14:50:13Z</time>
      </trkpt>
      <trkpt lat="44.36624" lon="5.97879">
        <ele>837</ele>
        <time>2019-03-16T14:50:14Z</time>
      </trkpt>
      <trkpt lat="44.36619" lon="5.97867">
        <ele>836</ele>
        <time>2019-03-16T14:50:15Z</time>
      </trkpt>
      <trkpt lat="44.36614" lon="5.97856">
        <ele>835</ele>
        <time>2019-03-16T14:50:16Z</time>
      </trkpt>
      <trkpt lat="44.36609" lon="5.97844">
        <ele>835</ele>
        <time>2019-03-16T14:50:17Z</time>
      </trkpt>
      <trkpt lat="44.36605" lon="5.97833">
        <ele>834</ele>
        <time>2019-03-16T14:50:18Z</time>
      </trkpt>
      <trkpt lat="44.366" lon="5.97823">
        <ele>833</ele>
        <time>2019-03-16T14:50:19Z</time>
      </trkpt>
      <trkpt lat="44.36596" lon="5.97814">
        <ele>833</ele>
        <time>2019-03-16T14:50:20Z</time>
      </trkpt>
      <trkpt lat="44.36591" lon="5.97806">
        <ele>832</ele>
        <time>2019-03-16T14:50:21Z</time>
      </trkpt>
      <trkpt lat="44.36587" lon="5.97799">
        <ele>832</ele>
        <time>2019-03-16T14:50:22Z</time>
      </trkpt>
      <trkpt lat="44.36584" lon="5.97792">
        <ele>831</ele>
        <time>2019-03-16T14:50:23Z</time>
      </trkpt>
      <trkpt lat="44.36585" lon="5.97785">
        <ele>831</ele>
        <time>2019-03-16T14:50:24Z</time>
      </trkpt>
      <trkpt lat="44.36588" lon="5.97781">
        <ele>830</ele>
        <time>2019-03-16T14:50:25Z</time>
      </trkpt>
      <trkpt lat="44.36592" lon="5.97779">
        <ele>830</ele>
        <time>2019-03-16T14:50:26Z</time>
      </trkpt>
      <trkpt lat="44.36596" lon="5.97783">
        <ele>829</ele>
        <time>2019-03-16T14:50:27Z</time>
      </trkpt>
      <trkpt lat="44.36601" lon="5.97789">
        <ele>828</ele>
        <time>2019-03-16T14:50:28Z</time>
      </trkpt>
      <trkpt lat="44.36605" lon="5.97797">
        <ele>828</ele>
        <time>2019-03-16T14:50:29Z</time>
      </trkpt>
      <trkpt lat="44.3661" lon="5.97805">
        <ele>827</ele>
        <time>2019-03-16T14:50:30Z</time>
      </trkpt>
      <trkpt lat="44.36615" lon="5.97813">
        <ele>826</ele>
        <time>2019-03-16T14:50:31Z</time>
      </trkpt>
      <trkpt lat="44.36621" lon="5.9782">
        <ele>826</ele>
        <time>2019-03-16T14:50:32Z</time>
      </trkpt>
      <trkpt lat="44.36628" lon="5.97827">
        <ele>826</ele>
        <time>2019-03-16T14:50:33Z</time>
      </trkpt>
      <trkpt lat="44.36634" lon="5.97832">
        <ele>826</ele>
        <time>2019-03-16T14:50:34Z</time>
      </trkpt>
      <trkpt lat="44.36641" lon="5.97835">
        <ele>825</ele>
        <time>2019-03-16T14:50:35Z</time>
      </trkpt>
      <trkpt lat="44.36647" lon="5.97835">
        <ele>825</ele>
        <time>2019-03-16T14:50:36Z</time>
      </trkpt>
      <trkpt lat="44.36652" lon="5.97828">
        <ele>825</ele>
        <time>2019-03-16T14:50:37Z</time>
      </trkpt>
      <trkpt lat="44.36653" lon="5.9782">
        <ele>825</ele>
        <time>2019-03-16T14:50:38Z</time>
      </trkpt>
      <trkpt lat="44.36652" lon="5.97811">
        <ele>825</ele>
        <time>2019-03-16T14:50:39Z</time>
      </trkpt>
      <trkpt lat="44.36647" lon="5.97803">
        <ele>825</ele>
        <time>2019-03-16T14:50:40Z</time>
      </trkpt>
      <trkpt lat="44.36641" lon="5.97797">
        <ele>824</ele>
        <time>2019-03-16T14:50:41Z</time>
      </trkpt>
      <trkpt lat="44.36634" lon="5.9779">
        <ele>824</ele>
        <time>2019-03-16T14:50:42Z</time>
      </trkpt>
      <trkpt lat="44.36626" lon="5.97783">
        <ele>823</ele>
        <time>2019-03-16T14:50:43Z</time>
      </trkpt>
      <trkpt lat="44.3662" lon="5.97775">
        <ele>822</ele>
        <time>2019-03-16T14:50:44Z</time>
      </trkpt>
      <trkpt lat="44.36612" lon="5.97769">
        <ele>822</ele>
        <time>2019-03-16T14:50:45Z</time>
      </trkpt>
      <trkpt lat="44.36606" lon="5.97763">
        <ele>821</ele>
        <time>2019-03-16T14:50:46Z</time>
      </trkpt>
      <trkpt lat="44.366" lon="5.97756">
        <ele>820</ele>
        <time>2019-03-16T14:50:47Z</time>
      </trkpt>
      <trkpt lat="44.36597" lon="5.97749">
        <ele>820</ele>
        <time>2019-03-16T14:50:48Z</time>
      </trkpt>
      <trkpt lat="44.36596" lon="5.97741">
        <ele>819</ele>
        <time>2019-03-16T14:50:49Z</time>
      </trkpt>
      <trkpt lat="44.36598" lon="5.97734">
        <ele>819</ele>
        <time>2019-03-16T14:50:50Z</time>
      </trkpt>
      <trkpt lat="44.36602" lon="5.9773">
        <ele>818</ele>
        <time>2019-03-16T14:50:51Z</time>
      </trkpt>
      <trkpt lat="44.36608" lon="5.9773">
        <ele>817</ele>
        <time>2019-03-16T14:50:52Z</time>
      </trkpt>
      <trkpt lat="44.36614" lon="5.97732">
        <ele>817</ele>
        <time>2019-03-16T14:50:53Z</time>
      </trkpt>
      <trkpt lat="44.36621" lon="5.97734">
        <ele>816</ele>
        <time>2019-03-16T14:50:54Z</time>
      </trkpt>
      <trkpt lat="44.36628" lon="5.97736">
        <ele>815</ele>
        <time>2019-03-16T14:50:55Z</time>
      </trkpt>
      <trkpt lat="44.36634" lon="5.97738">
        <ele>815</ele>
        <time>2019-03-16T14:50:56Z</time>
      </trkpt>
      <trkpt lat="44.36642" lon="5.97741">
        <ele>814</ele>
        <time>2019-03-16T14:50:57Z</time>
      </trkpt>
      <trkpt lat="44.36649" lon="5.97743">
        <ele>814</ele>
        <time>2019-03-16T14:50:58Z</time>
      </trkpt>
      <trkpt lat="44.36656" lon="5.97746">
        <ele>813</ele>
        <time>2019-03-16T14:50:59Z</time>
      </trkpt>
      <trkpt lat="44.36663" lon="5.9775">
        <ele>813</ele>
        <time>2019-03-16T14:51:00Z</time>
      </trkpt>
      <trkpt lat="44.36668" lon="5.97755">
        <ele>813</ele>
        <time>2019-03-16T14:51:01Z</time>
      </trkpt>
      <trkpt lat="44.36675" lon="5.97761">
        <ele>812</ele>
        <time>2019-03-16T14:51:02Z</time>
      </trkpt>
      <trkpt lat="44.36681" lon="5.97768">
        <ele>812</ele>
        <time>2019-03-16T14:51:03Z</time>
      </trkpt>
      <trkpt lat="44.36688" lon="5.97774">
        <ele>812</ele>
        <time>2019-03-16T14:51:04Z</time>
      </trkpt>
      <trkpt lat="44.36696" lon="5.97777">
        <ele>812</ele>
        <time>2019-03-16T14:51:05Z</time>
      </trkpt>
      <trkpt lat="44.36703" lon="5.97775">
        <ele>812</ele>
        <time>2019-03-16T14:51:06Z</time>
      </trkpt>
      <trkpt lat="44.36708" lon="5.97767">
        <ele>812</ele>
        <time>2019-03-16T14:51:07Z</time>
      </trkpt>
      <trkpt lat="44.3671" lon="5.97757">
        <ele>812</ele>
        <time>2019-03-16T14:51:08Z</time>
      </trkpt>
      <trkpt lat="44.36711" lon="5.97747">
        <ele>812</ele>
        <time>2019-03-16T14:51:09Z</time>
      </trkpt>
      <trkpt lat="44.36711" lon="5.97736">
        <ele>812</ele>
        <time>2019-03-16T14:51:10Z</time>
      </trkpt>
      <trkpt lat="44.3671" lon="5.97725">
        <ele>812</ele>
        <time>2019-03-16T14:51:11Z</time>
      </trkpt>
      <trkpt lat="44.36708" lon="5.97715">
        <ele>812</ele>
        <time>2019-03-16T14:51:12Z</time>
      </trkpt>
      <trkpt lat="44.36706" lon="5.97704">
        <ele>811</ele>
        <time>2019-03-16T14:51:13Z</time>
      </trkpt>
      <trkpt lat="44.36704" lon="5.97692">
        <ele>810</ele>
        <time>2019-03-16T14:51:14Z</time>
      </trkpt>
      <trkpt lat="44.36701" lon="5.9768">
        <ele>810</ele>
        <time>2019-03-16T14:51:15Z</time>
      </trkpt>
      <trkpt lat="44.36699" lon="5.97668">
        <ele>809</ele>
        <time>2019-03-16T14:51:16Z</time>
      </trkpt>
      <trkpt lat="44.36697" lon="5.97654">
        <ele>808</ele>
        <time>2019-03-16T14:51:17Z</time>
      </trkpt>
      <trkpt lat="44.36697" lon="5.9764">
        <ele>807</ele>
        <time>2019-03-16T14:51:18Z</time>
      </trkpt>
      <trkpt lat="44.36697" lon="5.97625">
        <ele>807</ele>
        <time>2019-03-16T14:51:19Z</time>
      </trkpt>
      <trkpt lat="44.36697" lon="5.9761">
        <ele>806</ele>
        <time>2019-03-16T14:51:20Z</time>
      </trkpt>
      <trkpt lat="44.36697" lon="5.97595">
        <ele>805</ele>
        <time>2019-03-16T14:51:21Z</time>
      </trkpt>
      <trkpt lat="44.36697" lon="5.97579">
        <ele>804</ele>
        <time>2019-03-16T14:51:22Z</time>
      </trkpt>
      <trkpt lat="44.36696" lon="5.97564">
        <ele>803</ele>
        <time>2019-03-16T14:51:23Z</time>
      </trkpt>
      <trkpt lat="44.36696" lon="5.97548">
        <ele>802</ele>
        <time>2019-03-16T14:51:24Z</time>
      </trkpt>
      <trkpt lat="44.36696" lon="5.97533">
        <ele>801</ele>
        <time>2019-03-16T14:51:25Z</time>
      </trkpt>
      <trkpt lat="44.36696" lon="5.97517">
        <ele>801</ele>
        <time>2019-03-16T14:51:26Z</time>
      </trkpt>
      <trkpt lat="44.36695" lon="5.97502">
        <ele>800</ele>
        <time>2019-03-16T14:51:27Z</time>
      </trkpt>
      <trkpt lat="44.36695" lon="5.97486">
        <ele>799</ele>
        <time>2019-03-16T14:51:28Z</time>
      </trkpt>
      <trkpt lat="44.36695" lon="5.9747">
        <ele>798</ele>
        <time>2019-03-16T14:51:29Z</time>
      </trkpt>
      <trkpt lat="44.36695" lon="5.97453">
        <ele>797</ele>
        <time>2019-03-16T14:51:30Z</time>
      </trkpt>
      <trkpt lat="44.36695" lon="5.97437">
        <ele>796</ele>
        <time>2019-03-16T14:51:31Z</time>
      </trkpt>
      <trkpt lat="44.36695" lon="5.97421">
        <ele>796</ele>
        <time>2019-03-16T14:51:32Z</time>
      </trkpt>
      <trkpt lat="44.36695" lon="5.97405">
        <ele>795</ele>
        <time>2019-03-16T14:51:33Z</time>
      </trkpt>
      <trkpt lat="44.36694" lon="5.97389">
        <ele>794</ele>
        <time>2019-03-16T14:51:34Z</time>
      </trkpt>
      <trkpt lat="44.36694" lon="5.97373">
        <ele>793</ele>
        <time>2019-03-16T14:51:35Z</time>
      </trkpt>
      <trkpt lat="44.36692" lon="5.97358">
        <ele>792</ele>
        <time>2019-03-16T14:51:36Z</time>
      </trkpt>
      <trkpt lat="44.36691" lon="5.97342">
        <ele>792</ele>
        <time>2019-03-16T14:51:37Z</time>
      </trkpt>
      <trkpt lat="44.36688" lon="5.97326">
        <ele>791</ele>
        <time>2019-03-16T14:51:38Z</time>
      </trkpt>
      <trkpt lat="44.36685" lon="5.9731">
        <ele>790</ele>
        <time>2019-03-16T14:51:39Z</time>
      </trkpt>
      <trkpt lat="44.36682" lon="5.97294">
        <ele>789</ele>
        <time>2019-03-16T14:51:40Z</time>
      </trkpt>
      <trkpt lat="44.36679" lon="5.97277">
        <ele>788</ele>
        <time>2019-03-16T14:51:41Z</time>
      </trkpt>
      <trkpt lat="44.36676" lon="5.97261">
        <ele>788</ele>
        <time>2019-03-16T14:51:42Z</time>
      </trkpt>
      <trkpt lat="44.36674" lon="5.97245">
        <ele>787</ele>
        <time>2019-03-16T14:51:43Z</time>
      </trkpt>
      <trkpt lat="44.36671" lon="5.97228">
        <ele>786</ele>
        <time>2019-03-16T14:51:44Z</time>
      </trkpt>
      <trkpt lat="44.36669" lon="5.97213">
        <ele>786</ele>
        <time>2019-03-16T14:51:45Z</time>
      </trkpt>
      <trkpt lat="44.36666" lon="5.97197">
        <ele>785</ele>
        <time>2019-03-16T14:51:46Z</time>
      </trkpt>
      <trkpt lat="44.36662" lon="5.97182">
        <ele>785</ele>
        <time>2019-03-16T14:51:47Z</time>
      </trkpt>
      <trkpt lat="44.36659" lon="5.97167">
        <ele>784</ele>
        <time>2019-03-16T14:51:48Z</time>
      </trkpt>
      <trkpt lat="44.36656" lon="5.97153">
        <ele>784</ele>
        <time>2019-03-16T14:51:49Z</time>
      </trkpt>
      <trkpt lat="44.36653" lon="5.97138">
        <ele>784</ele>
        <time>2019-03-16T14:51:50Z</time>
      </trkpt>
      <trkpt lat="44.36651" lon="5.97124">
        <ele>783</ele>
        <time>2019-03-16T14:51:51Z</time>
      </trkpt>
      <trkpt lat="44.36649" lon="5.9711">
        <ele>783</ele>
        <time>2019-03-16T14:51:52Z</time>
      </trkpt>
      <trkpt lat="44.36646" lon="5.97097">
        <ele>783</ele>
        <time>2019-03-16T14:51:53Z</time>
      </trkpt>
      <trkpt lat="44.36644" lon="5.97084">
        <ele>783</ele>
        <time>2019-03-16T14:51:54Z</time>
      </trkpt>
      <trkpt lat="44.36641" lon="5.97071">
        <ele>783</ele>
        <time>2019-03-16T14:51:55Z</time>
      </trkpt>
      <trkpt lat="44.36638" lon="5.97058">
        <ele>783</ele>
        <time>2019-03-16T14:51:56Z</time>
      </trkpt>
      <trkpt lat="44.36636" lon="5.97046">
        <ele>782</ele>
        <time>2019-03-16T14:51:57Z</time>
      </trkpt>
      <trkpt lat="44.36633" lon="5.97034">
        <ele>782</ele>
        <time>2019-03-16T14:51:58Z</time>
      </trkpt>
      <trkpt lat="44.36631" lon="5.97021">
        <ele>782</ele>
        <time>2019-03-16T14:51:59Z</time>
      </trkpt>
      <trkpt lat="44.36628" lon="5.97009">
        <ele>782</ele>
        <time>2019-03-16T14:52:00Z</time>
      </trkpt>
      <trkpt lat="44.36626" lon="5.96996">
        <ele>782</ele>
        <time>2019-03-16T14:52:01Z</time>
      </trkpt>
      <trkpt lat="44.36625" lon="5.96984">
        <ele>782</ele>
        <time>2019-03-16T14:52:02Z</time>
      </trkpt>
      <trkpt lat="44.36623" lon="5.96972">
        <ele>782</ele>
        <time>2019-03-16T14:52:03Z</time>
      </trkpt>
      <trkpt lat="44.36622" lon="5.96961">
        <ele>782</ele>
        <time>2019-03-16T14:52:04Z</time>
      </trkpt>
      <trkpt lat="44.36621" lon="5.96949">
        <ele>782</ele>
        <time>2019-03-16T14:52:05Z</time>
      </trkpt>
      <trkpt lat="44.3662" lon="5.96938">
        <ele>782</ele>
        <time>2019-03-16T14:52:06Z</time>
      </trkpt>
      <trkpt lat="44.3662" lon="5.96925">
        <ele>782</ele>
        <time>2019-03-16T14:52:07Z</time>
      </trkpt>
      <trkpt lat="44.36618" lon="5.96913">
        <ele>782</ele>
        <time>2019-03-16T14:52:08Z</time>
      </trkpt>
      <trkpt lat="44.36617" lon="5.96901">
        <ele>782</ele>
        <time>2019-03-16T14:52:09Z</time>
      </trkpt>
      <trkpt lat="44.36615" lon="5.96888">
        <ele>782</ele>
        <time>2019-03-16T14:52:10Z</time>
      </trkpt>
      <trkpt lat="44.36614" lon="5.96876">
        <ele>781</ele>
        <time>2019-03-16T14:52:11Z</time>
      </trkpt>
      <trkpt lat="44.36613" lon="5.96863">
        <ele>781</ele>
        <time>2019-03-16T14:52:12Z</time>
      </trkpt>
      <trkpt lat="44.36612" lon="5.9685">
        <ele>781</ele>
        <time>2019-03-16T14:52:13Z</time>
      </trkpt>
      <trkpt lat="44.3661" lon="5.96837">
        <ele>781</ele>
        <time>2019-03-16T14:52:14Z</time>
      </trkpt>
      <trkpt lat="44.36608" lon="5.96824">
        <ele>780</ele>
        <time>2019-03-16T14:52:15Z</time>
      </trkpt>
      <trkpt lat="44.36607" lon="5.9681">
        <ele>780</ele>
        <time>2019-03-16T14:52:16Z</time>
      </trkpt>
      <trkpt lat="44.36606" lon="5.96797">
        <ele>779</ele>
        <time>2019-03-16T14:52:17Z</time>
      </trkpt>
      <trkpt lat="44.36605" lon="5.96783">
        <ele>779</ele>
        <time>2019-03-16T14:52:18Z</time>
      </trkpt>
      <trkpt lat="44.36603" lon="5.9677">
        <ele>779</ele>
        <time>2019-03-16T14:52:19Z</time>
      </trkpt>
      <trkpt lat="44.36602" lon="5.96757">
        <ele>778</ele>
        <time>2019-03-16T14:52:20Z</time>
      </trkpt>
      <trkpt lat="44.366" lon="5.96743">
        <ele>778</ele>
        <time>2019-03-16T14:52:21Z</time>
      </trkpt>
      <trkpt lat="44.36599" lon="5.96731">
        <ele>778</ele>
        <time>2019-03-16T14:52:22Z</time>
      </trkpt>
      <trkpt lat="44.36598" lon="5.96718">
        <ele>778</ele>
        <time>2019-03-16T14:52:23Z</time>
      </trkpt>
      <trkpt lat="44.36597" lon="5.96705">
        <ele>778</ele>
        <time>2019-03-16T14:52:24Z</time>
      </trkpt>
      <trkpt lat="44.36595" lon="5.96693">
        <ele>778</ele>
        <time>2019-03-16T14:52:25Z</time>
      </trkpt>
      <trkpt lat="44.36594" lon="5.96681">
        <ele>778</ele>
        <time>2019-03-16T14:52:26Z</time>
      </trkpt>
      <trkpt lat="44.36593" lon="5.9667">
        <ele>778</ele>
        <time>2019-03-16T14:52:27Z</time>
      </trkpt>
      <trkpt lat="44.36592" lon="5.96659">
        <ele>778</ele>
        <time>2019-03-16T14:52:28Z</time>
      </trkpt>
      <trkpt lat="44.36591" lon="5.96648">
        <ele>778</ele>
        <time>2019-03-16T14:52:29Z</time>
      </trkpt>
      <trkpt lat="44.3659" lon="5.96637">
        <ele>778</ele>
        <time>2019-03-16T14:52:30Z</time>
      </trkpt>
      <trkpt lat="44.36589" lon="5.96627">
        <ele>778</ele>
        <time>2019-03-16T14:52:31Z</time>
      </trkpt>
      <trkpt lat="44.36587" lon="5.96617">
        <ele>778</ele>
        <time>2019-03-16T14:52:32Z</time>
      </trkpt>
      <trkpt lat="44.36586" lon="5.96608">
        <ele>778</ele>
        <time>2019-03-16T14:52:33Z</time>
      </trkpt>
      <trkpt lat="44.36585" lon="5.96598">
        <ele>778</ele>
        <time>2019-03-16T14:52:34Z</time>
      </trkpt>
      <trkpt lat="44.36584" lon="5.96589">
        <ele>778</ele>
        <time>2019-03-16T14:52:35Z</time>
      </trkpt>
      <trkpt lat="44.36584" lon="5.9658">
        <ele>778</ele>
        <time>2019-03-16T14:52:36Z</time>
      </trkpt>
      <trkpt lat="44.36584" lon="5.96572">
        <ele>778</ele>
        <time>2019-03-16T14:52:37Z</time>
      </trkpt>
      <trkpt lat="44.36584" lon="5.96564">
        <ele>778</ele>
        <time>2019-03-16T14:52:38Z</time>
      </trkpt>
      <trkpt lat="44.36585" lon="5.96556">
        <ele>778</ele>
        <time>2019-03-16T14:52:39Z</time>
      </trkpt>
      <trkpt lat="44.36586" lon="5.96549">
        <ele>778</ele>
        <time>2019-03-16T14:52:40Z</time>
      </trkpt>
      <trkpt lat="44.36588" lon="5.96542">
        <ele>778</ele>
        <time>2019-03-16T14:52:41Z</time>
      </trkpt>
      <trkpt lat="44.3659" lon="5.96535">
        <ele>778</ele>
        <time>2019-03-16T14:52:42Z</time>
      </trkpt>
      <trkpt lat="44.36591" lon="5.96527">
        <ele>778</ele>
        <time>2019-03-16T14:52:43Z</time>
      </trkpt>
      <trkpt lat="44.36591" lon="5.96519">
        <ele>778</ele>
        <time>2019-03-16T14:52:44Z</time>
      </trkpt>
      <trkpt lat="44.3659" lon="5.96511">
        <ele>778</ele>
        <time>2019-03-16T14:52:45Z</time>
      </trkpt>
      <trkpt lat="44.36588" lon="5.96502">
        <ele>778</ele>
        <time>2019-03-16T14:52:46Z</time>
      </trkpt>
      <trkpt lat="44.36587" lon="5.96492">
        <ele>778</ele>
        <time>2019-03-16T14:52:47Z</time>
      </trkpt>
      <trkpt lat="44.36585" lon="5.96482">
        <ele>778</ele>
        <time>2019-03-16T14:52:48Z</time>
      </trkpt>
      <trkpt lat="44.36583" lon="5.9647">
        <ele>778</ele>
        <time>2019-03-16T14:52:49Z</time>
      </trkpt>
      <trkpt lat="44.36582" lon="5.96458">
        <ele>778</ele>
        <time>2019-03-16T14:52:50Z</time>
      </trkpt>
      <trkpt lat="44.3658" lon="5.96445">
        <ele>777</ele>
        <time>2019-03-16T14:52:51Z</time>
      </trkpt>
      <trkpt lat="44.36578" lon="5.96433">
        <ele>777</ele>
        <time>2019-03-16T14:52:52Z</time>
      </trkpt>
      <trkpt lat="44.36575" lon="5.96422">
        <ele>776</ele>
        <time>2019-03-16T14:52:53Z</time>
      </trkpt>
      <trkpt lat="44.36573" lon="5.96413">
        <ele>775</ele>
        <time>2019-03-16T14:52:54Z</time>
      </trkpt>
      <trkpt lat="44.36572" lon="5.96404">
        <ele>775</ele>
        <time>2019-03-16T14:52:55Z</time>
      </trkpt>
      <trkpt lat="44.36571" lon="5.96395">
        <ele>774</ele>
        <time>2019-03-16T14:52:56Z</time>
      </trkpt>
      <trkpt lat="44.36572" lon="5.96387">
        <ele>773</ele>
        <time>2019-03-16T14:52:57Z</time>
      </trkpt>
      <trkpt lat="44.36573" lon="5.9638">
        <ele>772</ele>
        <time>2019-03-16T14:52:58Z</time>
      </trkpt>
      <trkpt lat="44.36578" lon="5.96374">
        <ele>772</ele>
        <time>2019-03-16T14:52:59Z</time>
      </trkpt>
      <trkpt lat="44.36584" lon="5.9637">
        <ele>771</ele>
        <time>2019-03-16T14:53:00Z</time>
      </trkpt>
      <trkpt lat="44.36591" lon="5.96366">
        <ele>770</ele>
        <time>2019-03-16T14:53:01Z</time>
      </trkpt>
      <trkpt lat="44.36599" lon="5.96362">
        <ele>769</ele>
        <time>2019-03-16T14:53:02Z</time>
      </trkpt>
      <trkpt lat="44.36607" lon="5.96356">
        <ele>768</ele>
        <time>2019-03-16T14:53:03Z</time>
      </trkpt>
      <trkpt lat="44.36614" lon="5.96349">
        <ele>768</ele>
        <time>2019-03-16T14:53:04Z</time>
      </trkpt>
      <trkpt lat="44.3662" lon="5.9634">
        <ele>767</ele>
        <time>2019-03-16T14:53:05Z</time>
      </trkpt>
      <trkpt lat="44.36625" lon="5.96331">
        <ele>767</ele>
        <time>2019-03-16T14:53:06Z</time>
      </trkpt>
      <trkpt lat="44.36629" lon="5.96321">
        <ele>766</ele>
        <time>2019-03-16T14:53:07Z</time>
      </trkpt>
      <trkpt lat="44.36631" lon="5.96311">
        <ele>765</ele>
        <time>2019-03-16T14:53:08Z</time>
      </trkpt>
      <trkpt lat="44.36632" lon="5.963">
        <ele>765</ele>
        <time>2019-03-16T14:53:09Z</time>
      </trkpt>
      <trkpt lat="44.36634" lon="5.9629">
        <ele>764</ele>
        <time>2019-03-16T14:53:10Z</time>
      </trkpt>
      <trkpt lat="44.36639" lon="5.96281">
        <ele>763</ele>
        <time>2019-03-16T14:53:11Z</time>
      </trkpt>
      <trkpt lat="44.36645" lon="5.96275">
        <ele>762</ele>
        <time>2019-03-16T14:53:12Z</time>
      </trkpt>
      <trkpt lat="44.36652" lon="5.96269">
        <ele>761</ele>
        <time>2019-03-16T14:53:13Z</time>
      </trkpt>
      <trkpt lat="44.3666" lon="5.96264">
        <ele>760</ele>
        <time>2019-03-16T14:53:14Z</time>
      </trkpt>
      <trkpt lat="44.36668" lon="5.96259">
        <ele>759</ele>
        <time>2019-03-16T14:53:15Z</time>
      </trkpt>
      <trkpt lat="44.36677" lon="5.96255">
        <ele>758</ele>
        <time>2019-03-16T14:53:16Z</time>
      </trkpt>
      <trkpt lat="44.36685" lon="5.9625">
        <ele>757</ele>
        <time>2019-03-16T14:53:17Z</time>
      </trkpt>
      <trkpt lat="44.36694" lon="5.96245">
        <ele>757</ele>
        <time>2019-03-16T14:53:18Z</time>
      </trkpt>
      <trkpt lat="44.36703" lon="5.96241">
        <ele>756</ele>
        <time>2019-03-16T14:53:19Z</time>
      </trkpt>
      <trkpt lat="44.36713" lon="5.96237">
        <ele>755</ele>
        <time>2019-03-16T14:53:20Z</time>
      </trkpt>
      <trkpt lat="44.36723" lon="5.96234">
        <ele>754</ele>
        <time>2019-03-16T14:53:21Z</time>
      </trkpt>
      <trkpt lat="44.36732" lon="5.96231">
        <ele>753</ele>
        <time>2019-03-16T14:53:22Z</time>
      </trkpt>
      <trkpt lat="44.36742" lon="5.96227">
        <ele>752</ele>
        <time>2019-03-16T14:53:23Z</time>
      </trkpt>
      <trkpt lat="44.3675" lon="5.96222">
        <ele>751</ele>
        <time>2019-03-16T14:53:24Z</time>
      </trkpt>
      <trkpt lat="44.36758" lon="5.96217">
        <ele>750</ele>
        <time>2019-03-16T14:53:25Z</time>
      </trkpt>
      <trkpt lat="44.36766" lon="5.96212">
        <ele>750</ele>
        <time>2019-03-16T14:53:26Z</time>
      </trkpt>
      <trkpt lat="44.36771" lon="5.96205">
        <ele>749</ele>
        <time>2019-03-16T14:53:27Z</time>
      </trkpt>
      <trkpt lat="44.36776" lon="5.96197">
        <ele>748</ele>
        <time>2019-03-16T14:53:28Z</time>
      </trkpt>
      <trkpt lat="44.36778" lon="5.96189">
        <ele>747</ele>
        <time>2019-03-16T14:53:29Z</time>
      </trkpt>
      <trkpt lat="44.3678" lon="5.96181">
        <ele>746</ele>
        <time>2019-03-16T14:53:30Z</time>
      </trkpt>
      <trkpt lat="44.36781" lon="5.96173">
        <ele>746</ele>
        <time>2019-03-16T14:53:31Z</time>
      </trkpt>
      <trkpt lat="44.36783" lon="5.96167">
        <ele>745</ele>
        <time>2019-03-16T14:53:32Z</time>
      </trkpt>
      <trkpt lat="44.36787" lon="5.96164">
        <ele>744</ele>
        <time>2019-03-16T14:53:33Z</time>
      </trkpt>
      <trkpt lat="44.36792" lon="5.96163">
        <ele>743</ele>
        <time>2019-03-16T14:53:34Z</time>
      </trkpt>
      <trkpt lat="44.36798" lon="5.96166">
        <ele>743</ele>
        <time>2019-03-16T14:53:35Z</time>
      </trkpt>
      <trkpt lat="44.36804" lon="5.96171">
        <ele>742</ele>
        <time>2019-03-16T14:53:36Z</time>
      </trkpt>
      <trkpt lat="44.36809" lon="5.96178">
        <ele>741</ele>
        <time>2019-03-16T14:53:37Z</time>
      </trkpt>
      <trkpt lat="44.36812" lon="5.96187">
        <ele>740</ele>
        <time>2019-03-16T14:53:38Z</time>
      </trkpt>
      <trkpt lat="44.36813" lon="5.96198">
        <ele>739</ele>
        <time>2019-03-16T14:53:39Z</time>
      </trkpt>
      <trkpt lat="44.36812" lon="5.96207">
        <ele>738</ele>
        <time>2019-03-16T14:53:40Z</time>
      </trkpt>
      <trkpt lat="44.36811" lon="5.96214">
        <ele>737</ele>
        <time>2019-03-16T14:53:41Z</time>
      </trkpt>
      <trkpt lat="44.36811" lon="5.96221">
        <ele>737</ele>
        <time>2019-03-16T14:53:42Z</time>
      </trkpt>
      <trkpt lat="44.36814" lon="5.96227">
        <ele>736</ele>
        <time>2019-03-16T14:53:43Z</time>
      </trkpt>
      <trkpt lat="44.3682" lon="5.9623">
        <ele>736</ele>
        <time>2019-03-16T14:53:44Z</time>
      </trkpt>
      <trkpt lat="44.36827" lon="5.96228">
        <ele>735</ele>
        <time>2019-03-16T14:53:45Z</time>
      </trkpt>
      <trkpt lat="44.36834" lon="5.96222">
        <ele>735</ele>
        <time>2019-03-16T14:53:46Z</time>
      </trkpt>
      <trkpt lat="44.3684" lon="5.96215">
        <ele>734</ele>
        <time>2019-03-16T14:53:47Z</time>
      </trkpt>
      <trkpt lat="44.36846" lon="5.96208">
        <ele>733</ele>
        <time>2019-03-16T14:53:48Z</time>
      </trkpt>
      <trkpt lat="44.36852" lon="5.96202">
        <ele>733</ele>
        <time>2019-03-16T14:53:49Z</time>
      </trkpt>
      <trkpt lat="44.36856" lon="5.96194">
        <ele>732</ele>
        <time>2019-03-16T14:53:50Z</time>
      </trkpt>
      <trkpt lat="44.36858" lon="5.96185">
        <ele>732</ele>
        <time>2019-03-16T14:53:51Z</time>
      </trkpt>
      <trkpt lat="44.36857" lon="5.96176">
        <ele>732</ele>
        <time>2019-03-16T14:53:52Z</time>
      </trkpt>
      <trkpt lat="44.36853" lon="5.96167">
        <ele>731</ele>
        <time>2019-03-16T14:53:53Z</time>
      </trkpt>
      <trkpt lat="44.36848" lon="5.96159">
        <ele>730</ele>
        <time>2019-03-16T14:53:54Z</time>
      </trkpt>
      <trkpt lat="44.36842" lon="5.96152">
        <ele>730</ele>
        <time>2019-03-16T14:53:55Z</time>
      </trkpt>
      <trkpt lat="44.36835" lon="5.96145">
        <ele>729</ele>
        <time>2019-03-16T14:53:56Z</time>
      </trkpt>
      <trkpt lat="44.36829" lon="5.96137">
        <ele>728</ele>
        <time>2019-03-16T14:53:57Z</time>
      </trkpt>
      <trkpt lat="44.36822" lon="5.96129">
        <ele>727</ele>
        <time>2019-03-16T14:53:58Z</time>
      </trkpt>
      <trkpt lat="44.36817" lon="5.96119">
        <ele>726</ele>
        <time>2019-03-16T14:53:59Z</time>
      </trkpt>
      <trkpt lat="44.36814" lon="5.96107">
        <ele>725</ele>
        <time>2019-03-16T14:54:00Z</time>
      </trkpt>
      <trkpt lat="44.36813" lon="5.96096">
        <ele>724</ele>
        <time>2019-03-16T14:54:01Z</time>
      </trkpt>
      <trkpt lat="44.36814" lon="5.96083">
        <ele>723</ele>
        <time>2019-03-16T14:54:02Z</time>
      </trkpt>
      <trkpt lat="44.36815" lon="5.96072">
        <ele>723</ele>
        <time>2019-03-16T14:54:03Z</time>
      </trkpt>
      <trkpt lat="44.36817" lon="5.9606">
        <ele>722</ele>
        <time>2019-03-16T14:54:04Z</time>
      </trkpt>
      <trkpt lat="44.36819" lon="5.96048">
        <ele>721</ele>
        <time>2019-03-16T14:54:05Z</time>
      </trkpt>
      <trkpt lat="44.36821" lon="5.96037">
        <ele>720</ele>
        <time>2019-03-16T14:54:06Z</time>
      </trkpt>
      <trkpt lat="44.36823" lon="5.96026">
        <ele>719</ele>
        <time>2019-03-16T14:54:07Z</time>
      </trkpt>
      <trkpt lat="44.36823" lon="5.96016">
        <ele>719</ele>
        <time>2019-03-16T14:54:08Z</time>
      </trkpt>
      <trkpt lat="44.36823" lon="5.96006">
        <ele>718</ele>
        <time>2019-03-16T14:54:09Z</time>
      </trkpt>
      <trkpt lat="44.36821" lon="5.95996">
        <ele>718</ele>
        <time>2019-03-16T14:54:10Z</time>
      </trkpt>
      <trkpt lat="44.36818" lon="5.95987">
        <ele>717</ele>
        <time>2019-03-16T14:54:11Z</time>
      </trkpt>
      <trkpt lat="44.36816" lon="5.95977">
        <ele>716</ele>
        <time>2019-03-16T14:54:12Z</time>
      </trkpt>
      <trkpt lat="44.36814" lon="5.95967">
        <ele>716</ele>
        <time>2019-03-16T14:54:13Z</time>
      </trkpt>
      <trkpt lat="44.36815" lon="5.95957">
        <ele>716</ele>
        <time>2019-03-16T14:54:14Z</time>
      </trkpt>
      <trkpt lat="44.36818" lon="5.95948">
        <ele>715</ele>
        <time>2019-03-16T14:54:15Z</time>
      </trkpt>
      <trkpt lat="44.36824" lon="5.95941">
        <ele>715</ele>
        <time>2019-03-16T14:54:16Z</time>
      </trkpt>
      <trkpt lat="44.3683" lon="5.95936">
        <ele>715</ele>
        <time>2019-03-16T14:54:17Z</time>
      </trkpt>
      <trkpt lat="44.36838" lon="5.95934">
        <ele>714</ele>
        <time>2019-03-16T14:54:18Z</time>
      </trkpt>
      <trkpt lat="44.36846" lon="5.95931">
        <ele>714</ele>
        <time>2019-03-16T14:54:19Z</time>
      </trkpt>
      <trkpt lat="44.36855" lon="5.95929">
        <ele>713</ele>
        <time>2019-03-16T14:54:20Z</time>
      </trkpt>
      <trkpt lat="44.36863" lon="5.95927">
        <ele>713</ele>
        <time>2019-03-16T14:54:21Z</time>
      </trkpt>
      <trkpt lat="44.36873" lon="5.95924">
        <ele>712</ele>
        <time>2019-03-16T14:54:22Z</time>
      </trkpt>
      <trkpt lat="44.36882" lon="5.9592">
        <ele>711</ele>
        <time>2019-03-16T14:54:23Z</time>
      </trkpt>
      <trkpt lat="44.36892" lon="5.95917">
        <ele>710</ele>
        <time>2019-03-16T14:54:24Z</time>
      </trkpt>
      <trkpt lat="44.36902" lon="5.95914">
        <ele>710</ele>
        <time>2019-03-16T14:54:25Z</time>
      </trkpt>
      <trkpt lat="44.36913" lon="5.95913">
        <ele>709</ele>
        <time>2019-03-16T14:54:26Z</time>
      </trkpt>
      <trkpt lat="44.36923" lon="5.95912">
        <ele>708</ele>
        <time>2019-03-16T14:54:27Z</time>
      </trkpt>
      <trkpt lat="44.36933" lon="5.95912">
        <ele>707</ele>
        <time>2019-03-16T14:54:28Z</time>
      </trkpt>
      <trkpt lat="44.36943" lon="5.95912">
        <ele>707</ele>
        <time>2019-03-16T14:54:29Z</time>
      </trkpt>
      <trkpt lat="44.36953" lon="5.95912">
        <ele>706</ele>
        <time>2019-03-16T14:54:30Z</time>
      </trkpt>
      <trkpt lat="44.36962" lon="5.95913">
        <ele>705</ele>
        <time>2019-03-16T14:54:31Z</time>
      </trkpt>
      <trkpt lat="44.36971" lon="5.95913">
        <ele>704</ele>
        <time>2019-03-16T14:54:32Z</time>
      </trkpt>
      <trkpt lat="44.3698" lon="5.95913">
        <ele>703</ele>
        <time>2019-03-16T14:54:33Z</time>
      </trkpt>
      <trkpt lat="44.3699" lon="5.95913">
        <ele>702</ele>
        <time>2019-03-16T14:54:34Z</time>
      </trkpt>
      <trkpt lat="44.36998" lon="5.95913">
        <ele>701</ele>
        <time>2019-03-16T14:54:35Z</time>
      </trkpt>
      <trkpt lat="44.37006" lon="5.95912">
        <ele>701</ele>
        <time>2019-03-16T14:54:36Z</time>
      </trkpt>
      <trkpt lat="44.37014" lon="5.9591">
        <ele>700</ele>
        <time>2019-03-16T14:54:37Z</time>
      </trkpt>
      <trkpt lat="44.37021" lon="5.95906">
        <ele>699</ele>
        <time>2019-03-16T14:54:38Z</time>
      </trkpt>
      <trkpt lat="44.37027" lon="5.95902">
        <ele>699</ele>
        <time>2019-03-16T14:54:39Z</time>
      </trkpt>
      <trkpt lat="44.37032" lon="5.95897">
        <ele>698</ele>
        <time>2019-03-16T14:54:40Z</time>
      </trkpt>
      <trkpt lat="44.37037" lon="5.95892">
        <ele>697</ele>
        <time>2019-03-16T14:54:41Z</time>
      </trkpt>
      <trkpt lat="44.37041" lon="5.95888">
        <ele>697</ele>
        <time>2019-03-16T14:54:42Z</time>
      </trkpt>
      <trkpt lat="44.37046" lon="5.95887">
        <ele>696</ele>
        <time>2019-03-16T14:54:43Z</time>
      </trkpt>
      <trkpt lat="44.37051" lon="5.9589">
        <ele>696</ele>
        <time>2019-03-16T14:54:44Z</time>
      </trkpt>
      <trkpt lat="44.37053" lon="5.95897">
        <ele>695</ele>
        <time>2019-03-16T14:54:45Z</time>
      </trkpt>
      <trkpt lat="44.37054" lon="5.95905">
        <ele>694</ele>
        <time>2019-03-16T14:54:46Z</time>
      </trkpt>
      <trkpt lat="44.37051" lon="5.95912">
        <ele>694</ele>
        <time>2019-03-16T14:54:47Z</time>
      </trkpt>
      <trkpt lat="44.37047" lon="5.95918">
        <ele>693</ele>
        <time>2019-03-16T14:54:48Z</time>
      </trkpt>
      <trkpt lat="44.37043" lon="5.95924">
        <ele>693</ele>
        <time>2019-03-16T14:54:49Z</time>
      </trkpt>
      <trkpt lat="44.37039" lon="5.95931">
        <ele>692</ele>
        <time>2019-03-16T14:54:50Z</time>
      </trkpt>
      <trkpt lat="44.37035" lon="5.95937">
        <ele>691</ele>
        <time>2019-03-16T14:54:51Z</time>
      </trkpt>
      <trkpt lat="44.37031" lon="5.95944">
        <ele>691</ele>
        <time>2019-03-16T14:54:52Z</time>
      </trkpt>
      <trkpt lat="44.37027" lon="5.95951">
        <ele>690</ele>
        <time>2019-03-16T14:54:53Z</time>
      </trkpt>
      <trkpt lat="44.37023" lon="5.95958">
        <ele>690</ele>
        <time>2019-03-16T14:54:54Z</time>
      </trkpt>
      <trkpt lat="44.37019" lon="5.95964">
        <ele>689</ele>
        <time>2019-03-16T14:54:55Z</time>
      </trkpt>
      <trkpt lat="44.37014" lon="5.95971">
        <ele>689</ele>
        <time>2019-03-16T14:54:56Z</time>
      </trkpt>
      <trkpt lat="44.3701" lon="5.95978">
        <ele>688</ele>
        <time>2019-03-16T14:54:57Z</time>
      </trkpt>
      <trkpt lat="44.37006" lon="5.95985">
        <ele>688</ele>
        <time>2019-03-16T14:54:58Z</time>
      </trkpt>
      <trkpt lat="44.37003" lon="5.95992">
        <ele>688</ele>
        <time>2019-03-16T14:54:59Z</time>
      </trkpt>
      <trkpt lat="44.37001" lon="5.96001">
        <ele>687</ele>
        <time>2019-03-16T14:55:00Z</time>
      </trkpt>
      <trkpt lat="44.37" lon="5.9601">
        <ele>687</ele>
        <time>2019-03-16T14:55:01Z</time>
      </trkpt>
      <trkpt lat="44.37001" lon="5.9602">
        <ele>687</ele>
        <time>2019-03-16T14:55:02Z</time>
      </trkpt>
      <trkpt lat="44.37003" lon="5.9603">
        <ele>687</ele>
        <time>2019-03-16T14:55:03Z</time>
      </trkpt>
      <trkpt lat="44.37007" lon="5.9604">
        <ele>687</ele>
        <time>2019-03-16T14:55:04Z</time>
      </trkpt>
      <trkpt lat="44.37011" lon="5.96049">
        <ele>686</ele>
        <time>2019-03-16T14:55:05Z</time>
      </trkpt>
      <trkpt lat="44.37016" lon="5.96059">
        <ele>686</ele>
        <time>2019-03-16T14:55:06Z</time>
      </trkpt>
      <trkpt lat="44.37022" lon="5.96068">
        <ele>686</ele>
        <time>2019-03-16T14:55:07Z</time>
      </trkpt>
      <trkpt lat="44.37028" lon="5.96078">
        <ele>686</ele>
        <time>2019-03-16T14:55:08Z</time>
      </trkpt>
      <trkpt lat="44.37034" lon="5.96088">
        <ele>685</ele>
        <time>2019-03-16T14:55:09Z</time>
      </trkpt>
      <trkpt lat="44.3704" lon="5.96097">
        <ele>685</ele>
        <time>2019-03-16T14:55:10Z</time>
      </trkpt>
      <trkpt lat="44.37046" lon="5.96106">
        <ele>684</ele>
        <time>2019-03-16T14:55:11Z</time>
      </trkpt>
      <trkpt lat="44.37052" lon="5.96114">
        <ele>684</ele>
        <time>2019-03-16T14:55:12Z</time>
      </trkpt>
      <trkpt lat="44.37057" lon="5.96123">
        <ele>683</ele>
        <time>2019-03-16T14:55:13Z</time>
      </trkpt>
      <trkpt lat="44.37062" lon="5.96131">
        <ele>682</ele>
        <time>2019-03-16T14:55:14Z</time>
      </trkpt>
      <trkpt lat="44.37066" lon="5.96139">
        <ele>682</ele>
        <time>2019-03-16T14:55:15Z</time>
      </trkpt>
      <trkpt lat="44.37069" lon="5.96148">
        <ele>681</ele>
        <time>2019-03-16T14:55:16Z</time>
      </trkpt>
      <trkpt lat="44.37071" lon="5.96156">
        <ele>681</ele>
        <time>2019-03-16T14:55:17Z</time>
      </trkpt>
      <trkpt lat="44.37074" lon="5.96163">
        <ele>680</ele>
        <time>2019-03-16T14:55:18Z</time>
      </trkpt>
      <trkpt lat="44.37078" lon="5.96168">
        <ele>680</ele>
        <time>2019-03-16T14:55:19Z</time>
      </trkpt>
      <trkpt lat="44.37083" lon="5.9617">
        <ele>679</ele>
        <time>2019-03-16T14:55:20Z</time>
      </trkpt>
      <trkpt lat="44.3709" lon="5.96167">
        <ele>678</ele>
        <time>2019-03-16T14:55:21Z</time>
      </trkpt>
      <trkpt lat="44.37094" lon="5.96161">
        <ele>678</ele>
        <time>2019-03-16T14:55:22Z</time>
      </trkpt>
      <trkpt lat="44.37096" lon="5.96151">
        <ele>677</ele>
        <time>2019-03-16T14:55:23Z</time>
      </trkpt>
      <trkpt lat="44.37094" lon="5.96142">
        <ele>676</ele>
        <time>2019-03-16T14:55:24Z</time>
      </trkpt>
      <trkpt lat="44.37092" lon="5.96133">
        <ele>675</ele>
        <time>2019-03-16T14:55:25Z</time>
      </trkpt>
      <trkpt lat="44.37089" lon="5.96124">
        <ele>675</ele>
        <time>2019-03-16T14:55:26Z</time>
      </trkpt>
      <trkpt lat="44.37085" lon="5.96115">
        <ele>674</ele>
        <time>2019-03-16T14:55:27Z</time>
      </trkpt>
      <trkpt lat="44.37081" lon="5.96106">
        <ele>673</ele>
        <time>2019-03-16T14:55:28Z</time>
      </trkpt>
      <trkpt lat="44.37077" lon="5.96097">
        <ele>672</ele>
        <time>2019-03-16T14:55:29Z</time>
      </trkpt>
      <trkpt lat="44.37074" lon="5.96087">
        <ele>671</ele>
        <time>2019-03-16T14:55:30Z</time>
      </trkpt>
      <trkpt lat="44.37071" lon="5.96078">
        <ele>670</ele>
        <time>2019-03-16T14:55:31Z</time>
      </trkpt>
      <trkpt lat="44.3707" lon="5.96069">
        <ele>670</ele>
        <time>2019-03-16T14:55:32Z</time>
      </trkpt>
      <trkpt lat="44.37071" lon="5.9606">
        <ele>669</ele>
        <time>2019-03-16T14:55:33Z</time>
      </trkpt>
      <trkpt lat="44.37074" lon="5.96051">
        <ele>668</ele>
        <time>2019-03-16T14:55:34Z</time>
      </trkpt>
      <trkpt lat="44.37079" lon="5.96044">
        <ele>668</ele>
        <time>2019-03-16T14:55:35Z</time>
      </trkpt>
      <trkpt lat="44.37086" lon="5.96039">
        <ele>667</ele>
        <time>2019-03-16T14:55:36Z</time>
      </trkpt>
      <trkpt lat="44.37093" lon="5.96036">
        <ele>667</ele>
        <time>2019-03-16T14:55:37Z</time>
      </trkpt>
      <trkpt lat="44.37101" lon="5.96033">
        <ele>667</ele>
        <time>2019-03-16T14:55:38Z</time>
      </trkpt>
      <trkpt lat="44.37108" lon="5.9603">
        <ele>666</ele>
        <time>2019-03-16T14:55:39Z</time>
      </trkpt>
      <trkpt lat="44.37115" lon="5.96026">
        <ele>666</ele>
        <time>2019-03-16T14:55:40Z</time>
      </trkpt>
      <trkpt lat="44.37122" lon="5.9602">
        <ele>666</ele>
        <time>2019-03-16T14:55:41Z</time>
      </trkpt>
      <trkpt lat="44.37128" lon="5.96013">
        <ele>666</ele>
        <time>2019-03-16T14:55:42Z</time>
      </trkpt>
      <trkpt lat="44.37134" lon="5.96004">
        <ele>665</ele>
        <time>2019-03-16T14:55:43Z</time>
      </trkpt>
      <trkpt lat="44.3714" lon="5.95994">
        <ele>665</ele>
        <time>2019-03-16T14:55:44Z</time>
      </trkpt>
      <trkpt lat="44.37145" lon="5.95984">
        <ele>664</ele>
        <time>2019-03-16T14:55:45Z</time>
      </trkpt>
      <trkpt lat="44.37151" lon="5.95973">
        <ele>664</ele>
        <time>2019-03-16T14:55:46Z</time>
      </trkpt>
      <trkpt lat="44.37157" lon="5.95962">
        <ele>663</ele>
        <time>2019-03-16T14:55:47Z</time>
      </trkpt>
      <trkpt lat="44.37163" lon="5.95952">
        <ele>662</ele>
        <time>2019-03-16T14:55:48Z</time>
      </trkpt>
      <trkpt lat="44.37169" lon="5.95942">
        <ele>662</ele>
        <time>2019-03-16T14:55:49Z</time>
      </trkpt>
      <trkpt lat="44.37174" lon="5.95931">
        <ele>661</ele>
        <time>2019-03-16T14:55:50Z</time>
      </trkpt>
      <trkpt lat="44.3718" lon="5.95921">
        <ele>661</ele>
        <time>2019-03-16T14:55:51Z</time>
      </trkpt>
      <trkpt lat="44.37186" lon="5.95911">
        <ele>660</ele>
        <time>2019-03-16T14:55:52Z</time>
      </trkpt>
      <trkpt lat="44.37192" lon="5.95901">
        <ele>660</ele>
        <time>2019-03-16T14:55:53Z</time>
      </trkpt>
      <trkpt lat="44.37198" lon="5.95891">
        <ele>659</ele>
        <time>2019-03-16T14:55:54Z</time>
      </trkpt>
      <trkpt lat="44.37203" lon="5.95883">
        <ele>658</ele>
        <time>2019-03-16T14:55:55Z</time>
      </trkpt>
      <trkpt lat="44.37207" lon="5.95874">
        <ele>658</ele>
        <time>2019-03-16T14:55:56Z</time>
      </trkpt>
      <trkpt lat="44.3721" lon="5.95865">
        <ele>657</ele>
        <time>2019-03-16T14:55:57Z</time>
      </trkpt>
      <trkpt lat="44.37212" lon="5.95854">
        <ele>657</ele>
        <time>2019-03-16T14:55:58Z</time>
      </trkpt>
      <trkpt lat="44.37212" lon="5.95844">
        <ele>656</ele>
        <time>2019-03-16T14:55:59Z</time>
      </trkpt>
      <trkpt lat="44.37209" lon="5.95833">
        <ele>655</ele>
        <time>2019-03-16T14:56:00Z</time>
      </trkpt>
      <trkpt lat="44.37204" lon="5.95825">
        <ele>654</ele>
        <time>2019-03-16T14:56:01Z</time>
      </trkpt>
      <trkpt lat="44.37197" lon="5.95818">
        <ele>654</ele>
        <time>2019-03-16T14:56:02Z</time>
      </trkpt>
      <trkpt lat="44.3719" lon="5.95813">
        <ele>653</ele>
        <time>2019-03-16T14:56:03Z</time>
      </trkpt>
      <trkpt lat="44.37184" lon="5.95807">
        <ele>652</ele>
        <time>2019-03-16T14:56:04Z</time>
      </trkpt>
      <trkpt lat="44.37178" lon="5.958">
        <ele>651</ele>
        <time>2019-03-16T14:56:05Z</time>
      </trkpt>
      <trkpt lat="44.37174" lon="5.95792">
        <ele>651</ele>
        <time>2019-03-16T14:56:06Z</time>
      </trkpt>
      <trkpt lat="44.3717" lon="5.95784">
        <ele>650</ele>
        <time>2019-03-16T14:56:07Z</time>
      </trkpt>
      <trkpt lat="44.37169" lon="5.95775">
        <ele>649</ele>
        <time>2019-03-16T14:56:08Z</time>
      </trkpt>
      <trkpt lat="44.37168" lon="5.95767">
        <ele>649</ele>
        <time>2019-03-16T14:56:09Z</time>
      </trkpt>
      <trkpt lat="44.37169" lon="5.95759">
        <ele>648</ele>
        <time>2019-03-16T14:56:10Z</time>
      </trkpt>
      <trkpt lat="44.37172" lon="5.95753">
        <ele>647</ele>
        <time>2019-03-16T14:56:11Z</time>
      </trkpt>
      <trkpt lat="44.37177" lon="5.95749">
        <ele>647</ele>
        <time>2019-03-16T14:56:12Z</time>
      </trkpt>
      <trkpt lat="44.37183" lon="5.95749">
        <ele>646</ele>
        <time>2019-03-16T14:56:13Z</time>
      </trkpt>
      <trkpt lat="44.37188" lon="5.95751">
        <ele>646</ele>
        <time>2019-03-16T14:56:14Z</time>
      </trkpt>
      <trkpt lat="44.37194" lon="5.95754">
        <ele>645</ele>
        <time>2019-03-16T14:56:15Z</time>
      </trkpt>
      <trkpt lat="44.372" lon="5.95758">
        <ele>645</ele>
        <time>2019-03-16T14:56:16Z</time>
      </trkpt>
      <trkpt lat="44.37206" lon="5.9576">
        <ele>644</ele>
        <time>2019-03-16T14:56:17Z</time>
      </trkpt>
      <trkpt lat="44.37212" lon="5.95761">
        <ele>644</ele>
        <time>2019-03-16T14:56:18Z</time>
      </trkpt>
      <trkpt lat="44.37218" lon="5.95759">
        <ele>644</ele>
        <time>2019-03-16T14:56:19Z</time>
      </trkpt>
      <trkpt lat="44.37223" lon="5.95755">
        <ele>643</ele>
        <time>2019-03-16T14:56:20Z</time>
      </trkpt>
      <trkpt lat="44.37228" lon="5.95749">
        <ele>643</ele>
        <time>2019-03-16T14:56:21Z</time>
      </trkpt>
      <trkpt lat="44.37231" lon="5.95742">
        <ele>643</ele>
        <time>2019-03-16T14:56:22Z</time>
      </trkpt>
      <trkpt lat="44.37235" lon="5.95734">
        <ele>643</ele>
        <time>2019-03-16T14:56:23Z</time>
      </trkpt>
      <trkpt lat="44.37238" lon="5.95726">
        <ele>642</ele>
        <time>2019-03-16T14:56:24Z</time>
      </trkpt>
      <trkpt lat="44.37241" lon="5.95717">
        <ele>642</ele>
        <time>2019-03-16T14:56:25Z</time>
      </trkpt>
      <trkpt lat="44.37241" lon="5.95709">
        <ele>642</ele>
        <time>2019-03-16T14:56:26Z</time>
      </trkpt>
      <trkpt lat="44.37239" lon="5.95701">
        <ele>642</ele>
        <time>2019-03-16T14:56:27Z</time>
      </trkpt>
      <trkpt lat="44.37237" lon="5.95693">
        <ele>641</ele>
        <time>2019-03-16T14:56:28Z</time>
      </trkpt>
      <trkpt lat="44.37233" lon="5.95686">
        <ele>641</ele>
        <time>2019-03-16T14:56:29Z</time>
      </trkpt>
      <trkpt lat="44.3723" lon="5.9568">
        <ele>641</ele>
        <time>2019-03-16T14:56:30Z</time>
      </trkpt>
      <trkpt lat="44.37225" lon="5.95674">
        <ele>641</ele>
        <time>2019-03-16T14:56:31Z</time>
      </trkpt>
      <trkpt lat="44.3722" lon="5.9567">
        <ele>641</ele>
        <time>2019-03-16T14:56:32Z</time>
      </trkpt>
      <trkpt lat="44.37214" lon="5.95667">
        <ele>641</ele>
        <time>2019-03-16T14:56:33Z</time>
      </trkpt>
      <trkpt lat="44.37208" lon="5.95666">
        <ele>640</ele>
        <time>2019-03-16T14:56:34Z</time>
      </trkpt>
      <trkpt lat="44.37202" lon="5.95666">
        <ele>640</ele>
        <time>2019-03-16T14:56:35Z</time>
      </trkpt>
      <trkpt lat="44.37196" lon="5.95667">
        <ele>640</ele>
        <time>2019-03-16T14:56:36Z</time>
      </trkpt>
      <trkpt lat="44.37189" lon="5.95669">
        <ele>640</ele>
        <time>2019-03-16T14:56:37Z</time>
      </trkpt>
      <trkpt lat="44.37184" lon="5.95669">
        <ele>640</ele>
        <time>2019-03-16T14:56:38Z</time>
      </trkpt>
      <trkpt lat="44.37179" lon="5.95667">
        <ele>640</ele>
        <time>2019-03-16T14:56:39Z</time>
      </trkpt>
      <trkpt lat="44.37175" lon="5.95661">
        <ele>640</ele>
        <time>2019-03-16T14:56:40Z</time>
      </trkpt>
      <trkpt lat="44.37174" lon="5.95654">
        <ele>639</ele>
        <time>2019-03-16T14:56:41Z</time>
      </trkpt>
      <trkpt lat="44.37174" lon="5.95646">
        <ele>638</ele>
        <time>2019-03-16T14:56:42Z</time>
      </trkpt>
      <trkpt lat="44.37174" lon="5.95637">
        <ele>637</ele>
        <time>2019-03-16T14:56:43Z</time>
      </trkpt>
      <trkpt lat="44.37175" lon="5.95627">
        <ele>636</ele>
        <time>2019-03-16T14:56:44Z</time>
      </trkpt>
      <trkpt lat="44.37176" lon="5.95618">
        <ele>635</ele>
        <time>2019-03-16T14:56:45Z</time>
      </trkpt>
      <trkpt lat="44.37177" lon="5.95608">
        <ele>634</ele>
        <time>2019-03-16T14:56:46Z</time>
      </trkpt>
      <trkpt lat="44.37178" lon="5.95597">
        <ele>633</ele>
        <time>2019-03-16T14:56:47Z</time>
      </trkpt>
      <trkpt lat="44.3718" lon="5.95586">
        <ele>632</ele>
        <time>2019-03-16T14:56:48Z</time>
      </trkpt>
      <trkpt lat="44.37181" lon="5.95574">
        <ele>632</ele>
        <time>2019-03-16T14:56:49Z</time>
      </trkpt>
      <trkpt lat="44.37183" lon="5.95562">
        <ele>631</ele>
        <time>2019-03-16T14:56:50Z</time>
      </trkpt>
      <trkpt lat="44.37184" lon="5.95549">
        <ele>630</ele>
        <time>2019-03-16T14:56:51Z</time>
      </trkpt>
      <trkpt lat="44.37186" lon="5.95536">
        <ele>630</ele>
        <time>2019-03-16T14:56:52Z</time>
      </trkpt>
      <trkpt lat="44.37187" lon="5.95524">
        <ele>629</ele>
        <time>2019-03-16T14:56:53Z</time>
      </trkpt>
      <trkpt lat="44.37188" lon="5.95512">
        <ele>628</ele>
        <time>2019-03-16T14:56:54Z</time>
      </trkpt>
      <trkpt lat="44.37189" lon="5.95502">
        <ele>627</ele>
        <time>2019-03-16T14:56:55Z</time>
      </trkpt>
      <trkpt lat="44.37191" lon="5.95492">
        <ele>626</ele>
        <time>2019-03-16T14:56:56Z</time>
      </trkpt>
      <trkpt lat="44.37192" lon="5.95482">
        <ele>625</ele>
        <time>2019-03-16T14:56:57Z</time>
      </trkpt>
      <trkpt lat="44.37193" lon="5.95471">
        <ele>625</ele>
        <time>2019-03-16T14:56:58Z</time>
      </trkpt>
      <trkpt lat="44.37194" lon="5.9546">
        <ele>624</ele>
        <time>2019-03-16T14:56:59Z</time>
      </trkpt>
      <trkpt lat="44.37196" lon="5.95448">
        <ele>623</ele>
        <time>2019-03-16T14:57:00Z</time>
      </trkpt>
      <trkpt lat="44.37197" lon="5.95436">
        <ele>623</ele>
        <time>2019-03-16T14:57:01Z</time>
      </trkpt>
      <trkpt lat="44.37198" lon="5.95423">
        <ele>622</ele>
        <time>2019-03-16T14:57:02Z</time>
      </trkpt>
      <trkpt lat="44.37199" lon="5.95409">
        <ele>621</ele>
        <time>2019-03-16T14:57:03Z</time>
      </trkpt>
      <trkpt lat="44.37198" lon="5.95396">
        <ele>621</ele>
        <time>2019-03-16T14:57:04Z</time>
      </trkpt>
      <trkpt lat="44.37196" lon="5.95381">
        <ele>620</ele>
        <time>2019-03-16T14:57:05Z</time>
      </trkpt>
      <trkpt lat="44.37194" lon="5.95367">
        <ele>620</ele>
        <time>2019-03-16T14:57:06Z</time>
      </trkpt>
      <trkpt lat="44.37191" lon="5.95354">
        <ele>619</ele>
        <time>2019-03-16T14:57:07Z</time>
      </trkpt>
      <trkpt lat="44.37188" lon="5.95341">
        <ele>618</ele>
        <time>2019-03-16T14:57:08Z</time>
      </trkpt>
      <trkpt lat="44.37185" lon="5.95328">
        <ele>618</ele>
        <time>2019-03-16T14:57:09Z</time>
      </trkpt>
      <trkpt lat="44.37184" lon="5.95316">
        <ele>618</ele>
        <time>2019-03-16T14:57:10Z</time>
      </trkpt>
      <trkpt lat="44.37184" lon="5.95304">
        <ele>617</ele>
        <time>2019-03-16T14:57:11Z</time>
      </trkpt>
      <trkpt lat="44.37186" lon="5.95293">
        <ele>617</ele>
        <time>2019-03-16T14:57:12Z</time>
      </trkpt>
      <trkpt lat="44.3719" lon="5.95282">
        <ele>616</ele>
        <time>2019-03-16T14:57:13Z</time>
      </trkpt>
      <trkpt lat="44.37196" lon="5.95273">
        <ele>616</ele>
        <time>2019-03-16T14:57:14Z</time>
      </trkpt>
      <trkpt lat="44.37203" lon="5.95267">
        <ele>616</ele>
        <time>2019-03-16T14:57:15Z</time>
      </trkpt>
      <trkpt lat="44.37212" lon="5.95262">
        <ele>615</ele>
        <time>2019-03-16T14:57:16Z</time>
      </trkpt>
      <trkpt lat="44.3722" lon="5.95259">
        <ele>615</ele>
        <time>2019-03-16T14:57:17Z</time>
      </trkpt>
      <trkpt lat="44.37228" lon="5.95259">
        <ele>615</ele>
        <time>2019-03-16T14:57:18Z</time>
      </trkpt>
      <trkpt lat="44.37236" lon="5.95259">
        <ele>614</ele>
        <time>2019-03-16T14:57:19Z</time>
      </trkpt>
      <trkpt lat="44.37244" lon="5.95258">
        <ele>614</ele>
        <time>2019-03-16T14:57:20Z</time>
      </trkpt>
      <trkpt lat="44.37251" lon="5.95254">
        <ele>613</ele>
        <time>2019-03-16T14:57:21Z</time>
      </trkpt>
      <trkpt lat="44.37257" lon="5.95248">
        <ele>613</ele>
        <time>2019-03-16T14:57:22Z</time>
      </trkpt>
      <trkpt lat="44.37262" lon="5.95238">
        <ele>612</ele>
        <time>2019-03-16T14:57:23Z</time>
      </trkpt>
      <trkpt lat="44.37266" lon="5.95227">
        <ele>611</ele>
        <time>2019-03-16T14:57:24Z</time>
      </trkpt>
      <trkpt lat="44.3727" lon="5.95215">
        <ele>611</ele>
        <time>2019-03-16T14:57:25Z</time>
      </trkpt>
      <trkpt lat="44.37274" lon="5.95203">
        <ele>610</ele>
        <time>2019-03-16T14:57:26Z</time>
      </trkpt>
      <trkpt lat="44.37279" lon="5.95192">
        <ele>609</ele>
        <time>2019-03-16T14:57:27Z</time>
      </trkpt>
      <trkpt lat="44.37285" lon="5.95182">
        <ele>609</ele>
        <time>2019-03-16T14:57:28Z</time>
      </trkpt>
      <trkpt lat="44.37291" lon="5.95171">
        <ele>608</ele>
        <time>2019-03-16T14:57:29Z</time>
      </trkpt>
      <trkpt lat="44.37294" lon="5.9516">
        <ele>607</ele>
        <time>2019-03-16T14:57:30Z</time>
      </trkpt>
      <trkpt lat="44.37297" lon="5.95147">
        <ele>607</ele>
        <time>2019-03-16T14:57:31Z</time>
      </trkpt>
      <trkpt lat="44.37299" lon="5.95134">
        <ele>606</ele>
        <time>2019-03-16T14:57:32Z</time>
      </trkpt>
      <trkpt lat="44.37302" lon="5.95121">
        <ele>605</ele>
        <time>2019-03-16T14:57:33Z</time>
      </trkpt>
      <trkpt lat="44.37304" lon="5.95109">
        <ele>605</ele>
        <time>2019-03-16T14:57:34Z</time>
      </trkpt>
      <trkpt lat="44.37308" lon="5.95098">
        <ele>604</ele>
        <time>2019-03-16T14:57:35Z</time>
      </trkpt>
      <trkpt lat="44.37313" lon="5.95088">
        <ele>604</ele>
        <time>2019-03-16T14:57:36Z</time>
      </trkpt>
      <trkpt lat="44.37319" lon="5.9508">
        <ele>603</ele>
        <time>2019-03-16T14:57:37Z</time>
      </trkpt>
      <trkpt lat="44.37326" lon="5.95075">
        <ele>603</ele>
        <time>2019-03-16T14:57:38Z</time>
      </trkpt>
      <trkpt lat="44.37334" lon="5.95074">
        <ele>602</ele>
        <time>2019-03-16T14:57:39Z</time>
      </trkpt>
      <trkpt lat="44.37342" lon="5.95076">
        <ele>601</ele>
        <time>2019-03-16T14:57:40Z</time>
      </trkpt>
      <trkpt lat="44.37349" lon="5.9508">
        <ele>600</ele>
        <time>2019-03-16T14:57:41Z</time>
      </trkpt>
      <trkpt lat="44.37356" lon="5.95085">
        <ele>600</ele>
        <time>2019-03-16T14:57:42Z</time>
      </trkpt>
      <trkpt lat="44.37363" lon="5.95089">
        <ele>599</ele>
        <time>2019-03-16T14:57:43Z</time>
      </trkpt>
      <trkpt lat="44.37369" lon="5.95092">
        <ele>599</ele>
        <time>2019-03-16T14:57:44Z</time>
      </trkpt>
      <trkpt lat="44.37376" lon="5.95092">
        <ele>599</ele>
        <time>2019-03-16T14:57:45Z</time>
      </trkpt>
      <trkpt lat="44.37382" lon="5.95088">
        <ele>599</ele>
        <time>2019-03-16T14:57:46Z</time>
      </trkpt>
      <trkpt lat="44.37385" lon="5.95081">
        <ele>598</ele>
        <time>2019-03-16T14:57:47Z</time>
      </trkpt>
      <trkpt lat="44.37384" lon="5.95071">
        <ele>598</ele>
        <time>2019-03-16T14:57:48Z</time>
      </trkpt>
      <trkpt lat="44.3738" lon="5.95063">
        <ele>598</ele>
        <time>2019-03-16T14:57:49Z</time>
      </trkpt>
      <trkpt lat="44.37373" lon="5.95059">
        <ele>597</ele>
        <time>2019-03-16T14:57:50Z</time>
      </trkpt>
      <trkpt lat="44.37365" lon="5.95056">
        <ele>596</ele>
        <time>2019-03-16T14:57:51Z</time>
      </trkpt>
      <trkpt lat="44.37358" lon="5.95053">
        <ele>596</ele>
        <time>2019-03-16T14:57:52Z</time>
      </trkpt>
      <trkpt lat="44.3735" lon="5.9505">
        <ele>595</ele>
        <time>2019-03-16T14:57:53Z</time>
      </trkpt>
      <trkpt lat="44.37343" lon="5.95045">
        <ele>594</ele>
        <time>2019-03-16T14:57:54Z</time>
      </trkpt>
      <trkpt lat="44.37336" lon="5.95038">
        <ele>593</ele>
        <time>2019-03-16T14:57:55Z</time>
      </trkpt>
      <trkpt lat="44.37329" lon="5.95031">
        <ele>592</ele>
        <time>2019-03-16T14:57:56Z</time>
      </trkpt>
      <trkpt lat="44.37322" lon="5.95025">
        <ele>591</ele>
        <time>2019-03-16T14:57:57Z</time>
      </trkpt>
      <trkpt lat="44.37317" lon="5.95018">
        <ele>590</ele>
        <time>2019-03-16T14:57:58Z</time>
      </trkpt>
      <trkpt lat="44.37312" lon="5.95011">
        <ele>589</ele>
        <time>2019-03-16T14:57:59Z</time>
      </trkpt>
      <trkpt lat="44.37309" lon="5.95003">
        <ele>588</ele>
        <time>2019-03-16T14:58:00Z</time>
      </trkpt>
      <trkpt lat="44.37309" lon="5.94994">
        <ele>588</ele>
        <time>2019-03-16T14:58:01Z</time>
      </trkpt>
      <trkpt lat="44.3731" lon="5.94986">
        <ele>587</ele>
        <time>2019-03-16T14:58:02Z</time>
      </trkpt>
      <trkpt lat="44.37314" lon="5.9498">
        <ele>586</ele>
        <time>2019-03-16T14:58:03Z</time>
      </trkpt>
      <trkpt lat="44.3732" lon="5.94977">
        <ele>585</ele>
        <time>2019-03-16T14:58:04Z</time>
      </trkpt>
      <trkpt lat="44.37327" lon="5.94979">
        <ele>584</ele>
        <time>2019-03-16T14:58:05Z</time>
      </trkpt>
      <trkpt lat="44.37334" lon="5.94985">
        <ele>584</ele>
        <time>2019-03-16T14:58:06Z</time>
      </trkpt>
      <trkpt lat="44.37339" lon="5.94993">
        <ele>583</ele>
        <time>2019-03-16T14:58:07Z</time>
      </trkpt>
      <trkpt lat="44.37345" lon="5.95001">
        <ele>583</ele>
        <time>2019-03-16T14:58:08Z</time>
      </trkpt>
      <trkpt lat="44.37351" lon="5.9501">
        <ele>582</ele>
        <time>2019-03-16T14:58:09Z</time>
      </trkpt>
      <trkpt lat="44.37358" lon="5.95017">
        <ele>582</ele>
        <time>2019-03-16T14:58:10Z</time>
      </trkpt>
      <trkpt lat="44.37365" lon="5.95021">
        <ele>581</ele>
        <time>2019-03-16T14:58:11Z</time>
      </trkpt>
      <trkpt lat="44.37373" lon="5.95023">
        <ele>581</ele>
        <time>2019-03-16T14:58:12Z</time>
      </trkpt>
      <trkpt lat="44.37381" lon="5.95021">
        <ele>581</ele>
        <time>2019-03-16T14:58:13Z</time>
      </trkpt>
      <trkpt lat="44.37388" lon="5.9502">
        <ele>580</ele>
        <time>2019-03-16T14:58:14Z</time>
      </trkpt>
      <trkpt lat="44.37394" lon="5.95019">
        <ele>580</ele>
        <time>2019-03-16T14:58:15Z</time>
      </trkpt>
      <trkpt lat="44.37401" lon="5.9502">
        <ele>579</ele>
        <time>2019-03-16T14:58:16Z</time>
      </trkpt>
      <trkpt lat="44.37408" lon="5.95024">
        <ele>579</ele>
        <time>2019-03-16T14:58:17Z</time>
      </trkpt>
      <trkpt lat="44.37413" lon="5.95029">
        <ele>578</ele>
        <time>2019-03-16T14:58:18Z</time>
      </trkpt>
      <trkpt lat="44.37419" lon="5.95036">
        <ele>578</ele>
        <time>2019-03-16T14:58:19Z</time>
      </trkpt>
      <trkpt lat="44.37424" lon="5.95043">
        <ele>577</ele>
        <time>2019-03-16T14:58:20Z</time>
      </trkpt>
      <trkpt lat="44.37429" lon="5.95051">
        <ele>577</ele>
        <time>2019-03-16T14:58:21Z</time>
      </trkpt>
      <trkpt lat="44.37434" lon="5.95059">
        <ele>576</ele>
        <time>2019-03-16T14:58:22Z</time>
      </trkpt>
      <trkpt lat="44.37439" lon="5.95067">
        <ele>576</ele>
        <time>2019-03-16T14:58:23Z</time>
      </trkpt>
      <trkpt lat="44.37444" lon="5.95075">
        <ele>575</ele>
        <time>2019-03-16T14:58:24Z</time>
      </trkpt>
      <trkpt lat="44.37449" lon="5.95084">
        <ele>575</ele>
        <time>2019-03-16T14:58:25Z</time>
      </trkpt>
      <trkpt lat="44.37454" lon="5.95091">
        <ele>574</ele>
        <time>2019-03-16T14:58:26Z</time>
      </trkpt>
      <trkpt lat="44.37459" lon="5.95099">
        <ele>574</ele>
        <time>2019-03-16T14:58:27Z</time>
      </trkpt>
      <trkpt lat="44.37465" lon="5.95106">
        <ele>574</ele>
        <time>2019-03-16T14:58:28Z</time>
      </trkpt>
      <trkpt lat="44.37472" lon="5.95112">
        <ele>573</ele>
        <time>2019-03-16T14:58:29Z</time>
      </trkpt>
      <trkpt lat="44.37479" lon="5.95117">
        <ele>573</ele>
        <time>2019-03-16T14:58:30Z</time>
      </trkpt>
      <trkpt lat="44.37486" lon="5.9512">
        <ele>573</ele>
        <time>2019-03-16T14:58:31Z</time>
      </trkpt>
      <trkpt lat="44.37494" lon="5.95124">
        <ele>573</ele>
        <time>2019-03-16T14:58:32Z</time>
      </trkpt>
      <trkpt lat="44.37502" lon="5.95128">
        <ele>573</ele>
        <time>2019-03-16T14:58:33Z</time>
      </trkpt>
      <trkpt lat="44.37509" lon="5.95131">
        <ele>572</ele>
        <time>2019-03-16T14:58:34Z</time>
      </trkpt>
      <trkpt lat="44.37517" lon="5.95134">
        <ele>572</ele>
        <time>2019-03-16T14:58:35Z</time>
      </trkpt>
      <trkpt lat="44.37524" lon="5.95137">
        <ele>572</ele>
        <time>2019-03-16T14:58:36Z</time>
      </trkpt>
      <trkpt lat="44.37532" lon="5.9514">
        <ele>572</ele>
        <time>2019-03-16T14:58:37Z</time>
      </trkpt>
      <trkpt lat="44.37539" lon="5.95143">
        <ele>572</ele>
        <time>2019-03-16T14:58:38Z</time>
      </trkpt>
      <trkpt lat="44.37545" lon="5.95146">
        <ele>572</ele>
        <time>2019-03-16T14:58:39Z</time>
      </trkpt>
      <trkpt lat="44.37552" lon="5.95147">
        <ele>572</ele>
        <time>2019-03-16T14:58:40Z</time>
      </trkpt>
      <trkpt lat="44.37558" lon="5.95148">
        <ele>572</ele>
        <time>2019-03-16T14:58:41Z</time>
      </trkpt>
      <trkpt lat="44.37563" lon="5.95148">
        <ele>572</ele>
        <time>2019-03-16T14:58:42Z</time>
      </trkpt>
      <trkpt lat="44.37569" lon="5.95147">
        <ele>572</ele>
        <time>2019-03-16T14:58:43Z</time>
      </trkpt>
      <trkpt lat="44.37574" lon="5.95144">
        <ele>572</ele>
        <time>2019-03-16T14:58:44Z</time>
      </trkpt>
      <trkpt lat="44.37579" lon="5.95142">
        <ele>572</ele>
        <time>2019-03-16T14:58:45Z</time>
      </trkpt>
      <trkpt lat="44.37585" lon="5.9514">
        <ele>572</ele>
        <time>2019-03-16T14:58:46Z</time>
      </trkpt>
      <trkpt lat="44.3759" lon="5.95137">
        <ele>572</ele>
        <time>2019-03-16T14:58:47Z</time>
      </trkpt>
      <trkpt lat="44.37595" lon="5.95135">
        <ele>572</ele>
        <time>2019-03-16T14:58:48Z</time>
      </trkpt>
      <trkpt lat="44.376" lon="5.95133">
        <ele>572</ele>
        <time>2019-03-16T14:58:49Z</time>
      </trkpt>
      <trkpt lat="44.37606" lon="5.95131">
        <ele>572</ele>
        <time>2019-03-16T14:58:50Z</time>
      </trkpt>
      <trkpt lat="44.37611" lon="5.95128">
        <ele>572</ele>
        <time>2019-03-16T14:58:51Z</time>
      </trkpt>
      <trkpt lat="44.37617" lon="5.95125">
        <ele>572</ele>
        <time>2019-03-16T14:58:52Z</time>
      </trkpt>
      <trkpt lat="44.37624" lon="5.95122">
        <ele>572</ele>
        <time>2019-03-16T14:58:53Z</time>
      </trkpt>
      <trkpt lat="44.3763" lon="5.95119">
        <ele>572</ele>
        <time>2019-03-16T14:58:54Z</time>
      </trkpt>
      <trkpt lat="44.37636" lon="5.95116">
        <ele>572</ele>
        <time>2019-03-16T14:58:55Z</time>
      </trkpt>
      <trkpt lat="44.37642" lon="5.95113">
        <ele>572</ele>
        <time>2019-03-16T14:58:56Z</time>
      </trkpt>
      <trkpt lat="44.37649" lon="5.9511">
        <ele>572</ele>
        <time>2019-03-16T14:58:57Z</time>
      </trkpt>
      <trkpt lat="44.37655" lon="5.95107">
        <ele>572</ele>
        <time>2019-03-16T14:58:58Z</time>
      </trkpt>
      <trkpt lat="44.37662" lon="5.95104">
        <ele>572</ele>
        <time>2019-03-16T14:58:59Z</time>
      </trkpt>
      <trkpt lat="44.37668" lon="5.95101">
        <ele>572</ele>
        <time>2019-03-16T14:59:00Z</time>
      </trkpt>
      <trkpt lat="44.37675" lon="5.95098">
        <ele>572</ele>
        <time>2019-03-16T14:59:01Z</time>
      </trkpt>
      <trkpt lat="44.37682" lon="5.95095">
        <ele>572</ele>
        <time>2019-03-16T14:59:02Z</time>
      </trkpt>
      <trkpt lat="44.37689" lon="5.95092">
        <ele>572</ele>
        <time>2019-03-16T14:59:03Z</time>
      </trkpt>
      <trkpt lat="44.37696" lon="5.95088">
        <ele>572</ele>
        <time>2019-03-16T14:59:04Z</time>
      </trkpt>
      <trkpt lat="44.37703" lon="5.95085">
        <ele>572</ele>
        <time>2019-03-16T14:59:05Z</time>
      </trkpt>
      <trkpt lat="44.3771" lon="5.95082">
        <ele>572</ele>
        <time>2019-03-16T14:59:06Z</time>
      </trkpt>
      <trkpt lat="44.37717" lon="5.95079">
        <ele>572</ele>
        <time>2019-03-16T14:59:07Z</time>
      </trkpt>
      <trkpt lat="44.37725" lon="5.95075">
        <ele>572</ele>
        <time>2019-03-16T14:59:08Z</time>
      </trkpt>
      <trkpt lat="44.37733" lon="5.95072">
        <ele>572</ele>
        <time>2019-03-16T14:59:09Z</time>
      </trkpt>
      <trkpt lat="44.3774" lon="5.95068">
        <ele>571</ele>
        <time>2019-03-16T14:59:10Z</time>
      </trkpt>
      <trkpt lat="44.37748" lon="5.95064">
        <ele>571</ele>
        <time>2019-03-16T14:59:11Z</time>
      </trkpt>
      <trkpt lat="44.37755" lon="5.9506">
        <ele>570</ele>
        <time>2019-03-16T14:59:12Z</time>
      </trkpt>
      <trkpt lat="44.37763" lon="5.95056">
        <ele>570</ele>
        <time>2019-03-16T14:59:13Z</time>
      </trkpt>
      <trkpt lat="44.37771" lon="5.95053">
        <ele>569</ele>
        <time>2019-03-16T14:59:14Z</time>
      </trkpt>
      <trkpt lat="44.37778" lon="5.95049">
        <ele>569</ele>
        <time>2019-03-16T14:59:15Z</time>
      </trkpt>
      <trkpt lat="44.37786" lon="5.95045">
        <ele>568</ele>
        <time>2019-03-16T14:59:16Z</time>
      </trkpt>
      <trkpt lat="44.37793" lon="5.9504">
        <ele>568</ele>
        <time>2019-03-16T14:59:17Z</time>
      </trkpt>
      <trkpt lat="44.37799" lon="5.95033">
        <ele>567</ele>
        <time>2019-03-16T14:59:18Z</time>
      </trkpt>
      <trkpt lat="44.37805" lon="5.95024">
        <ele>567</ele>
        <time>2019-03-16T14:59:19Z</time>
      </trkpt>
      <trkpt lat="44.37809" lon="5.95014">
        <ele>566</ele>
        <time>2019-03-16T14:59:20Z</time>
      </trkpt>
      <trkpt lat="44.37813" lon="5.95003">
        <ele>565</ele>
        <time>2019-03-16T14:59:21Z</time>
      </trkpt>
      <trkpt lat="44.37816" lon="5.94991">
        <ele>565</ele>
        <time>2019-03-16T14:59:22Z</time>
      </trkpt>
      <trkpt lat="44.37819" lon="5.94978">
        <ele>564</ele>
        <time>2019-03-16T14:59:23Z</time>
      </trkpt>
      <trkpt lat="44.3782" lon="5.94965">
        <ele>563</ele>
        <time>2019-03-16T14:59:24Z</time>
      </trkpt>
      <trkpt lat="44.37822" lon="5.94952">
        <ele>562</ele>
        <time>2019-03-16T14:59:25Z</time>
      </trkpt>
      <trkpt lat="44.37824" lon="5.94939">
        <ele>562</ele>
        <time>2019-03-16T14:59:26Z</time>
      </trkpt>
      <trkpt lat="44.37826" lon="5.94925">
        <ele>561</ele>
        <time>2019-03-16T14:59:27Z</time>
      </trkpt>
      <trkpt lat="44.37828" lon="5.94912">
        <ele>560</ele>
        <time>2019-03-16T14:59:28Z</time>
      </trkpt>
      <trkpt lat="44.3783" lon="5.949">
        <ele>559</ele>
        <time>2019-03-16T14:59:29Z</time>
      </trkpt>
      <trkpt lat="44.37832" lon="5.94888">
        <ele>558</ele>
        <time>2019-03-16T14:59:30Z</time>
      </trkpt>
      <trkpt lat="44.37834" lon="5.94876">
        <ele>558</ele>
        <time>2019-03-16T14:59:31Z</time>
      </trkpt>
      <trkpt lat="44.37835" lon="5.94863">
        <ele>557</ele>
        <time>2019-03-16T14:59:32Z</time>
      </trkpt>
      <trkpt lat="44.37837" lon="5.9485">
        <ele>556</ele>
        <time>2019-03-16T14:59:33Z</time>
      </trkpt>
      <trkpt lat="44.37838" lon="5.94837">
        <ele>555</ele>
        <time>2019-03-16T14:59:34Z</time>
      </trkpt>
      <trkpt lat="44.37838" lon="5.94825">
        <ele>554</ele>
        <time>2019-03-16T14:59:35Z</time>
      </trkpt>
      <trkpt lat="44.3784" lon="5.94813">
        <ele>554</ele>
        <time>2019-03-16T14:59:36Z</time>
      </trkpt>
      <trkpt lat="44.37842" lon="5.94802">
        <ele>553</ele>
        <time>2019-03-16T14:59:37Z</time>
      </trkpt>
      <trkpt lat="44.37846" lon="5.94791">
        <ele>552</ele>
        <time>2019-03-16T14:59:38Z</time>
      </trkpt>
      <trkpt lat="44.37853" lon="5.94782">
        <ele>552</ele>
        <time>2019-03-16T14:59:39Z</time>
      </trkpt>
      <trkpt lat="44.37861" lon="5.94775">
        <ele>551</ele>
        <time>2019-03-16T14:59:40Z</time>
      </trkpt>
      <trkpt lat="44.37869" lon="5.9477">
        <ele>550</ele>
        <time>2019-03-16T14:59:41Z</time>
      </trkpt>
      <trkpt lat="44.37877" lon="5.94764">
        <ele>550</ele>
        <time>2019-03-16T14:59:42Z</time>
      </trkpt>
      <trkpt lat="44.37885" lon="5.94757">
        <ele>549</ele>
        <time>2019-03-16T14:59:43Z</time>
      </trkpt>
      <trkpt lat="44.37892" lon="5.94748">
        <ele>549</ele>
        <time>2019-03-16T14:59:44Z</time>
      </trkpt>
      <trkpt lat="44.37898" lon="5.94738">
        <ele>549</ele>
        <time>2019-03-16T14:59:45Z</time>
      </trkpt>
      <trkpt lat="44.37904" lon="5.94728">
        <ele>548</ele>
        <time>2019-03-16T14:59:46Z</time>
      </trkpt>
      <trkpt lat="44.37909" lon="5.94718">
        <ele>548</ele>
        <time>2019-03-16T14:59:47Z</time>
      </trkpt>
      <trkpt lat="44.37915" lon="5.94708">
        <ele>547</ele>
        <time>2019-03-16T14:59:48Z</time>
      </trkpt>
      <trkpt lat="44.37921" lon="5.94698">
        <ele>547</ele>
        <time>2019-03-16T14:59:49Z</time>
      </trkpt>
      <trkpt lat="44.37928" lon="5.9469">
        <ele>547</ele>
        <time>2019-03-16T14:59:50Z</time>
      </trkpt>
      <trkpt lat="44.37936" lon="5.94683">
        <ele>546</ele>
        <time>2019-03-16T14:59:51Z</time>
      </trkpt>
      <trkpt lat="44.37943" lon="5.94677">
        <ele>546</ele>
        <time>2019-03-16T14:59:52Z</time>
      </trkpt>
      <trkpt lat="44.37951" lon="5.94672">
        <ele>545</ele>
        <time>2019-03-16T14:59:53Z</time>
      </trkpt>
      <trkpt lat="44.37958" lon="5.94668">
        <ele>545</ele>
        <time>2019-03-16T14:59:54Z</time>
      </trkpt>
      <trkpt lat="44.37966" lon="5.94665">
        <ele>545</ele>
        <time>2019-03-16T14:59:55Z</time>
      </trkpt>
      <trkpt lat="44.37974" lon="5.94663">
        <ele>545</ele>
        <time>2019-03-16T14:59:56Z</time>
      </trkpt>
      <trkpt lat="44.37982" lon="5.94662">
        <ele>545</ele>
        <time>2019-03-16T14:59:57Z</time>
      </trkpt>
      <trkpt lat="44.3799" lon="5.9466">
        <ele>544</ele>
        <time>2019-03-16T14:59:58Z</time>
      </trkpt>
      <trkpt lat="44.37998" lon="5.94656">
        <ele>544</ele>
        <time>2019-03-16T14:59:59Z</time>
      </trkpt>
      <trkpt lat="44.38005" lon="5.94651">
        <ele>544</ele>
        <time>2019-03-16T15:00:00Z</time>
      </trkpt>
      <trkpt lat="44.38012" lon="5.94644">
        <ele>544</ele>
        <time>2019-03-16T15:00:01Z</time>
      </trkpt>
      <trkpt lat="44.38018" lon="5.94636">
        <ele>543</ele>
        <time>2019-03-16T15:00:02Z</time>
      </trkpt>
      <trkpt lat="44.38022" lon="5.94627">
        <ele>543</ele>
        <time>2019-03-16T15:00:03Z</time>
      </trkpt>
      <trkpt lat="44.38026" lon="5.94617">
        <ele>543</ele>
        <time>2019-03-16T15:00:04Z</time>
      </trkpt>
      <trkpt lat="44.38029" lon="5.94607">
        <ele>543</ele>
        <time>2019-03-16T15:00:05Z</time>
      </trkpt>
      <trkpt lat="44.38033" lon="5.94596">
        <ele>542</ele>
        <time>2019-03-16T15:00:06Z</time>
      </trkpt>
      <trkpt lat="44.38035" lon="5.94586">
        <ele>542</ele>
        <time>2019-03-16T15:00:07Z</time>
      </trkpt>
      <trkpt lat="44.38038" lon="5.94575">
        <ele>542</ele>
        <time>2019-03-16T15:00:08Z</time>
      </trkpt>
      <trkpt lat="44.38041" lon="5.94565">
        <ele>542</ele>
        <time>2019-03-16T15:00:09Z</time>
      </trkpt>
      <trkpt lat="44.38044" lon="5.94556">
        <ele>542</ele>
        <time>2019-03-16T15:00:10Z</time>
      </trkpt>
      <trkpt lat="44.38046" lon="5.94547">
        <ele>542</ele>
        <time>2019-03-16T15:00:11Z</time>
      </trkpt>
      <trkpt lat="44.38049" lon="5.94537">
        <ele>541</ele>
        <time>2019-03-16T15:00:12Z</time>
      </trkpt>
      <trkpt lat="44.38051" lon="5.94528">
        <ele>541</ele>
        <time>2019-03-16T15:00:13Z</time>
      </trkpt>
      <trkpt lat="44.38054" lon="5.94519">
        <ele>541</ele>
        <time>2019-03-16T15:00:14Z</time>
      </trkpt>
      <trkpt lat="44.38057" lon="5.9451">
        <ele>541</ele>
        <time>2019-03-16T15:00:15Z</time>
      </trkpt>
      <trkpt lat="44.3806" lon="5.94501">
        <ele>541</ele>
        <time>2019-03-16T15:00:16Z</time>
      </trkpt>
      <trkpt lat="44.38062" lon="5.94491">
        <ele>541</ele>
        <time>2019-03-16T15:00:17Z</time>
      </trkpt>
      <trkpt lat="44.38065" lon="5.94482">
        <ele>541</ele>
        <time>2019-03-16T15:00:18Z</time>
      </trkpt>
      <trkpt lat="44.38068" lon="5.94473">
        <ele>541</ele>
        <time>2019-03-16T15:00:19Z</time>
      </trkpt>
      <trkpt lat="44.38071" lon="5.94463">
        <ele>541</ele>
        <time>2019-03-16T15:00:20Z</time>
      </trkpt>
      <trkpt lat="44.38074" lon="5.94455">
        <ele>541</ele>
        <time>2019-03-16T15:00:21Z</time>
      </trkpt>
      <trkpt lat="44.38078" lon="5.94446">
        <ele>541</ele>
        <time>2019-03-16T15:00:22Z</time>
      </trkpt>
      <trkpt lat="44.38083" lon="5.94438">
        <ele>541</ele>
        <time>2019-03-16T15:00:23Z</time>
      </trkpt>
      <trkpt lat="44.38089" lon="5.94432">
        <ele>541</ele>
        <time>2019-03-16T15:00:24Z</time>
      </trkpt>
      <trkpt lat="44.38095" lon="5.94427">
        <ele>541</ele>
        <time>2019-03-16T15:00:25Z</time>
      </trkpt>
      <trkpt lat="44.38102" lon="5.94423">
        <ele>541</ele>
        <time>2019-03-16T15:00:26Z</time>
      </trkpt>
      <trkpt lat="44.3811" lon="5.9442">
        <ele>541</ele>
        <time>2019-03-16T15:00:27Z</time>
      </trkpt>
      <trkpt lat="44.38117" lon="5.94417">
        <ele>540</ele>
        <time>2019-03-16T15:00:28Z</time>
      </trkpt>
      <trkpt lat="44.38124" lon="5.94415">
        <ele>540</ele>
        <time>2019-03-16T15:00:29Z</time>
      </trkpt>
      <trkpt lat="44.38131" lon="5.94412">
        <ele>540</ele>
        <time>2019-03-16T15:00:30Z</time>
      </trkpt>
      <trkpt lat="44.38138" lon="5.94408">
        <ele>540</ele>
        <time>2019-03-16T15:00:31Z</time>
      </trkpt>
      <trkpt lat="44.38145" lon="5.94403">
        <ele>540</ele>
        <time>2019-03-16T15:00:32Z</time>
      </trkpt>
      <trkpt lat="44.38151" lon="5.94397">
        <ele>540</ele>
        <time>2019-03-16T15:00:33Z</time>
      </trkpt>
      <trkpt lat="44.38157" lon="5.94392">
        <ele>540</ele>
        <time>2019-03-16T15:00:34Z</time>
      </trkpt>
      <trkpt lat="44.38163" lon="5.94386">
        <ele>540</ele>
        <time>2019-03-16T15:00:35Z</time>
      </trkpt>
      <trkpt lat="44.38169" lon="5.9438">
        <ele>540</ele>
        <time>2019-03-16T15:00:36Z</time>
      </trkpt>
      <trkpt lat="44.38174" lon="5.94374">
        <ele>540</ele>
        <time>2019-03-16T15:00:37Z</time>
      </trkpt>
      <trkpt lat="44.3818" lon="5.94369">
        <ele>540</ele>
        <time>2019-03-16T15:00:38Z</time>
      </trkpt>
      <trkpt lat="44.38186" lon="5.94363">
        <ele>540</ele>
        <time>2019-03-16T15:00:39Z</time>
      </trkpt>
      <trkpt lat="44.38192" lon="5.94357">
        <ele>540</ele>
        <time>2019-03-16T15:00:40Z</time>
      </trkpt>
      <trkpt lat="44.38197" lon="5.94351">
        <ele>540</ele>
        <time>2019-03-16T15:00:41Z</time>
      </trkpt>
      <trkpt lat="44.38202" lon="5.94346">
        <ele>540</ele>
        <time>2019-03-16T15:00:42Z</time>
      </trkpt>
      <trkpt lat="44.38207" lon="5.94341">
        <ele>540</ele>
        <time>2019-03-16T15:00:43Z</time>
      </trkpt>
      <trkpt lat="44.38212" lon="5.94336">
        <ele>540</ele>
        <time>2019-03-16T15:00:44Z</time>
      </trkpt>
      <trkpt lat="44.38217" lon="5.9433">
        <ele>540</ele>
        <time>2019-03-16T15:00:45Z</time>
      </trkpt>
      <trkpt lat="44.38222" lon="5.94324">
        <ele>540</ele>
        <time>2019-03-16T15:00:46Z</time>
      </trkpt>
      <trkpt lat="44.38227" lon="5.94318">
        <ele>540</ele>
        <time>2019-03-16T15:00:47Z</time>
      </trkpt>
      <trkpt lat="44.38231" lon="5.94312">
        <ele>540</ele>
        <time>2019-03-16T15:00:48Z</time>
      </trkpt>
      <trkpt lat="44.38235" lon="5.94305">
        <ele>540</ele>
        <time>2019-03-16T15:00:49Z</time>
      </trkpt>
      <trkpt lat="44.38239" lon="5.94298">
        <ele>540</ele>
        <time>2019-03-16T15:00:50Z</time>
      </trkpt>
      <trkpt lat="44.38242" lon="5.9429">
        <ele>540</ele>
        <time>2019-03-16T15:00:51Z</time>
      </trkpt>
      <trkpt lat="44.38246" lon="5.94284">
        <ele>540</ele>
        <time>2019-03-16T15:00:52Z</time>
      </trkpt>
      <trkpt lat="44.3825" lon="5.94277">
        <ele>540</ele>
        <time>2019-03-16T15:00:53Z</time>
      </trkpt>
      <trkpt lat="44.38253" lon="5.94271">
        <ele>540</ele>
        <time>2019-03-16T15:00:54Z</time>
      </trkpt>
      <trkpt lat="44.38256" lon="5.94265">
        <ele>540</ele>
        <time>2019-03-16T15:00:55Z</time>
      </trkpt>
      <trkpt lat="44.38259" lon="5.94258">
        <ele>540</ele>
        <time>2019-03-16T15:00:56Z</time>
      </trkpt>
      <trkpt lat="44.38262" lon="5.94251">
        <ele>540</ele>
        <time>2019-03-16T15:00:57Z</time>
      </trkpt>
      <trkpt lat="44.38265" lon="5.94245">
        <ele>540</ele>
        <time>2019-03-16T15:00:58Z</time>
      </trkpt>
      <trkpt lat="44.38269" lon="5.94239">
        <ele>540</ele>
        <time>2019-03-16T15:00:59Z</time>
      </trkpt>
      <trkpt lat="44.38272" lon="5.94233">
        <ele>540</ele>
        <time>2019-03-16T15:01:00Z</time>
      </trkpt>
      <trkpt lat="44.38275" lon="5.94227">
        <ele>540</ele>
        <time>2019-03-16T15:01:01Z</time>
      </trkpt>
      <trkpt lat="44.38278" lon="5.94221">
        <ele>540</ele>
        <time>2019-03-16T15:01:02Z</time>
      </trkpt>
      <trkpt lat="44.38281" lon="5.94215">
        <ele>540</ele>
        <time>2019-03-16T15:01:03Z</time>
      </trkpt>
      <trkpt lat="44.38284" lon="5.94209">
        <ele>540</ele>
        <time>2019-03-16T15:01:04Z</time>
      </trkpt>
      <trkpt lat="44.38286" lon="5.94204">
        <ele>540</ele>
        <time>2019-03-16T15:01:05Z</time>
      </trkpt>
      <trkpt lat="44.38289" lon="5.94198">
        <ele>540</ele>
        <time>2019-03-16T15:01:06Z</time>
      </trkpt>
      <trkpt lat="44.38292" lon="5.94192">
        <ele>540</ele>
        <time>2019-03-16T15:01:07Z</time>
      </trkpt>
      <trkpt lat="44.38294" lon="5.94187">
        <ele>540</ele>
        <time>2019-03-16T15:01:08Z</time>
      </trkpt>
      <trkpt lat="44.38297" lon="5.94182">
        <ele>540</ele>
        <time>2019-03-16T15:01:09Z</time>
      </trkpt>
      <trkpt lat="44.383" lon="5.94176">
        <ele>540</ele>
        <time>2019-03-16T15:01:10Z</time>
      </trkpt>
      <trkpt lat="44.38303" lon="5.94171">
        <ele>540</ele>
        <time>2019-03-16T15:01:11Z</time>
      </trkpt>
      <trkpt lat="44.38306" lon="5.94167">
        <ele>540</ele>
        <time>2019-03-16T15:01:12Z</time>
      </trkpt>
      <trkpt lat="44.38308" lon="5.94162">
        <ele>540</ele>
        <time>2019-03-16T15:01:13Z</time>
      </trkpt>
      <trkpt lat="44.38311" lon="5.94158">
        <ele>540</ele>
        <time>2019-03-16T15:01:14Z</time>
      </trkpt>
      <trkpt lat="44.38314" lon="5.94154">
        <ele>540</ele>
        <time>2019-03-16T15:01:15Z</time>
      </trkpt>
      <trkpt lat="44.38318" lon="5.9415">
        <ele>540</ele>
        <time>2019-03-16T15:01:16Z</time>
      </trkpt>
      <trkpt lat="44.38321" lon="5.94148">
        <ele>540</ele>
        <time>2019-03-16T15:01:17Z</time>
      </trkpt>
      <trkpt lat="44.38325" lon="5.94147">
        <ele>540</ele>
        <time>2019-03-16T15:01:18Z</time>
      </trkpt>
      <trkpt lat="44.38329" lon="5.94146">
        <ele>540</ele>
        <time>2019-03-16T15:01:19Z</time>
      </trkpt>
      <trkpt lat="44.38333" lon="5.94147">
        <ele>540</ele>
        <time>2019-03-16T15:01:20Z</time>
      </trkpt>
      <trkpt lat="44.38337" lon="5.94149">
        <ele>540</ele>
        <time>2019-03-16T15:01:21Z</time>
      </trkpt>
      <trkpt lat="44.38341" lon="5.94152">
        <ele>540</ele>
        <time>2019-03-16T15:01:22Z</time>
      </trkpt>
      <trkpt lat="44.38345" lon="5.94155">
        <ele>540</ele>
        <time>2019-03-16T15:01:23Z</time>
      </trkpt>
      <trkpt lat="44.38348" lon="5.94158">
        <ele>540</ele>
        <time>2019-03-16T15:01:24Z</time>
      </trkpt>
      <trkpt lat="44.38351" lon="5.94162">
        <ele>540</ele>
        <time>2019-03-16T15:01:25Z</time>
      </trkpt>
      <trkpt lat="44.38354" lon="5.94167">
        <ele>540</ele>
        <time>2019-03-16T15:01:26Z</time>
      </trkpt>
      <trkpt lat="44.38356" lon="5.94172">
        <ele>540</ele>
        <time>2019-03-16T15:01:27Z</time>
      </trkpt>
      <trkpt lat="44.38359" lon="5.94177">
        <ele>540</ele>
        <time>2019-03-16T15:01:28Z</time>
      </trkpt>
      <trkpt lat="44.38361" lon="5.94182">
        <ele>540</ele>
        <time>2019-03-16T15:01:29Z</time>
      </trkpt>
      <trkpt lat="44.38364" lon="5.94187">
        <ele>540</ele>
        <time>2019-03-16T15:01:30Z</time>
      </trkpt>
      <trkpt lat="44.38366" lon="5.94193">
        <ele>540</ele>
        <time>2019-03-16T15:01:31Z</time>
      </trkpt>
      <trkpt lat="44.38368" lon="5.94197">
        <ele>540</ele>
        <time>2019-03-16T15:01:32Z</time>
      </trkpt>
      <trkpt lat="44.3837" lon="5.94202">
        <ele>540</ele>
        <time>2019-03-16T15:01:33Z</time>
      </trkpt>
      <trkpt lat="44.38372" lon="5.94207">
        <ele>540</ele>
        <time>2019-03-16T15:01:34Z</time>
      </trkpt>
      <trkpt lat="44.38374" lon="5.94212">
        <ele>540</ele>
        <time>2019-03-16T15:01:35Z</time>
      </trkpt>
      <trkpt lat="44.38376" lon="5.94216">
        <ele>540</ele>
        <time>2019-03-16T15:01:36Z</time>
      </trkpt>
      <trkpt lat="44.38378" lon="5.94221">
        <ele>540</ele>
        <time>2019-03-16T15:01:37Z</time>
      </trkpt>
      <trkpt lat="44.38381" lon="5.94225">
        <ele>540</ele>
        <time>2019-03-16T15:01:38Z</time>
      </trkpt>
      <trkpt lat="44.38384" lon="5.94229">
        <ele>540</ele>
        <time>2019-03-16T15:01:39Z</time>
      </trkpt>
      <trkpt lat="44.38388" lon="5.94233">
        <ele>540</ele>
        <time>2019-03-16T15:01:40Z</time>
      </trkpt>
      <trkpt lat="44.38391" lon="5.94237">
        <ele>540</ele>
        <time>2019-03-16T15:01:41Z</time>
      </trkpt>
      <trkpt lat="44.38394" lon="5.94241">
        <ele>540</ele>
        <time>2019-03-16T15:01:42Z</time>
      </trkpt>
      <trkpt lat="44.38398" lon="5.94244">
        <ele>540</ele>
        <time>2019-03-16T15:01:43Z</time>
      </trkpt>
      <trkpt lat="44.38402" lon="5.94247">
        <ele>541</ele>
        <time>2019-03-16T15:01:44Z</time>
      </trkpt>
      <trkpt lat="44.38405" lon="5.94251">
        <ele>541</ele>
        <time>2019-03-16T15:01:45Z</time>
      </trkpt>
      <trkpt lat="44.38409" lon="5.94254">
        <ele>541</ele>
        <time>2019-03-16T15:01:46Z</time>
      </trkpt>
      <trkpt lat="44.38413" lon="5.94256">
        <ele>542</ele>
        <time>2019-03-16T15:01:47Z</time>
      </trkpt>
      <trkpt lat="44.38417" lon="5.94259">
        <ele>542</ele>
        <time>2019-03-16T15:01:48Z</time>
      </trkpt>
      <trkpt lat="44.38421" lon="5.94262">
        <ele>542</ele>
        <time>2019-03-16T15:01:49Z</time>
      </trkpt>
      <trkpt lat="44.38425" lon="5.94265">
        <ele>543</ele>
        <time>2019-03-16T15:01:50Z</time>
      </trkpt>
      <trkpt lat="44.3843" lon="5.94267">
        <ele>543</ele>
        <time>2019-03-16T15:01:51Z</time>
      </trkpt>
      <trkpt lat="44.38434" lon="5.9427">
        <ele>543</ele>
        <time>2019-03-16T15:01:52Z</time>
      </trkpt>
      <trkpt lat="44.38438" lon="5.94273">
        <ele>543</ele>
        <time>2019-03-16T15:01:53Z</time>
      </trkpt>
      <trkpt lat="44.38442" lon="5.94275">
        <ele>543</ele>
        <time>2019-03-16T15:01:54Z</time>
      </trkpt>
      <trkpt lat="44.38446" lon="5.94277">
        <ele>543</ele>
        <time>2019-03-16T15:01:55Z</time>
      </trkpt>
      <trkpt lat="44.3845" lon="5.94279">
        <ele>543</ele>
        <time>2019-03-16T15:01:56Z</time>
      </trkpt>
      <trkpt lat="44.38454" lon="5.94281">
        <ele>543</ele>
        <time>2019-03-16T15:01:57Z</time>
      </trkpt>
      <trkpt lat="44.38458" lon="5.94282">
        <ele>543</ele>
        <time>2019-03-16T15:01:58Z</time>
      </trkpt>
      <trkpt lat="44.38462" lon="5.94282">
        <ele>544</ele>
        <time>2019-03-16T15:01:59Z</time>
      </trkpt>
      <trkpt lat="44.38465" lon="5.94282">
        <ele>544</ele>
        <time>2019-03-16T15:02:00Z</time>
      </trkpt>
      <trkpt lat="44.38469" lon="5.94282">
        <ele>544</ele>
        <time>2019-03-16T15:02:01Z</time>
      </trkpt>
      <trkpt lat="44.38472" lon="5.94282">
        <ele>544</ele>
        <time>2019-03-16T15:02:02Z</time>
      </trkpt>
      <trkpt lat="44.38475" lon="5.9428">
        <ele>544</ele>
        <time>2019-03-16T15:02:03Z</time>
      </trkpt>
      <trkpt lat="44.38478" lon="5.94278">
        <ele>544</ele>
        <time>2019-03-16T15:02:04Z</time>
      </trkpt>
      <trkpt lat="44.38481" lon="5.94276">
        <ele>544</ele>
        <time>2019-03-16T15:02:05Z</time>
      </trkpt>
      <trkpt lat="44.38484" lon="5.94274">
        <ele>545</ele>
        <time>2019-03-16T15:02:06Z</time>
      </trkpt>
      <trkpt lat="44.38486" lon="5.94271">
        <ele>545</ele>
        <time>2019-03-16T15:02:07Z</time>
      </trkpt>
      <trkpt lat="44.38488" lon="5.94268">
        <ele>545</ele>
        <time>2019-03-16T15:02:08Z</time>
      </trkpt>
      <trkpt lat="44.38489" lon="5.94263">
        <ele>545</ele>
        <time>2019-03-16T15:02:09Z</time>
      </trkpt>
      <trkpt lat="44.3849" lon="5.94259">
        <ele>545</ele>
        <time>2019-03-16T15:02:10Z</time>
      </trkpt>
      <trkpt lat="44.38491" lon="5.94255">
        <ele>545</ele>
        <time>2019-03-16T15:02:11Z</time>
      </trkpt>
      <trkpt lat="44.38491" lon="5.94251">
        <ele>545</ele>
        <time>2019-03-16T15:02:12Z</time>
      </trkpt>
      <trkpt lat="44.38491" lon="5.94246">
        <ele>545</ele>
        <time>2019-03-16T15:02:13Z</time>
      </trkpt>
      <trkpt lat="44.38492" lon="5.94242">
        <ele>545</ele>
        <time>2019-03-16T15:02:14Z</time>
      </trkpt>
      <trkpt lat="44.38492" lon="5.94238">
        <ele>545</ele>
        <time>2019-03-16T15:02:15Z</time>
      </trkpt>
      <trkpt lat="44.38491" lon="5.94234">
        <ele>545</ele>
        <time>2019-03-16T15:02:16Z</time>
      </trkpt>
      <trkpt lat="44.38491" lon="5.9423">
        <ele>545</ele>
        <time>2019-03-16T15:02:17Z</time>
      </trkpt>
      <trkpt lat="44.38492" lon="5.94226">
        <ele>545</ele>
        <time>2019-03-16T15:02:18Z</time>
      </trkpt>
      <trkpt lat="44.38492" lon="5.94221">
        <ele>546</ele>
        <time>2019-03-16T15:02:19Z</time>
      </trkpt>
      <trkpt lat="44.38493" lon="5.94217">
        <ele>546</ele>
        <time>2019-03-16T15:02:20Z</time>
      </trkpt>
      <trkpt lat="44.38493" lon="5.94212">
        <ele>546</ele>
        <time>2019-03-16T15:02:21Z</time>
      </trkpt>
      <trkpt lat="44.38493" lon="5.94207">
        <ele>546</ele>
        <time>2019-03-16T15:02:22Z</time>
      </trkpt>
      <trkpt lat="44.38494" lon="5.94202">
        <ele>546</ele>
        <time>2019-03-16T15:02:23Z</time>
      </trkpt>
      <trkpt lat="44.38496" lon="5.94198">
        <ele>546</ele>
        <time>2019-03-16T15:02:24Z</time>
      </trkpt>
      <trkpt lat="44.38497" lon="5.94194">
        <ele>546</ele>
        <time>2019-03-16T15:02:25Z</time>
      </trkpt>
      <trkpt lat="44.38498" lon="5.94189">
        <ele>546</ele>
        <time>2019-03-16T15:02:26Z</time>
      </trkpt>
      <trkpt lat="44.385" lon="5.94184">
        <ele>546</ele>
        <time>2019-03-16T15:02:27Z</time>
      </trkpt>
      <trkpt lat="44.38501" lon="5.94178">
        <ele>546</ele>
        <time>2019-03-16T15:02:28Z</time>
      </trkpt>
      <trkpt lat="44.38502" lon="5.94172">
        <ele>546</ele>
        <time>2019-03-16T15:02:29Z</time>
      </trkpt>
      <trkpt lat="44.38503" lon="5.94165">
        <ele>546</ele>
        <time>2019-03-16T15:02:30Z</time>
      </trkpt>
      <trkpt lat="44.38504" lon="5.94159">
        <ele>546</ele>
        <time>2019-03-16T15:02:31Z</time>
      </trkpt>
      <trkpt lat="44.38505" lon="5.94152">
        <ele>546</ele>
        <time>2019-03-16T15:02:32Z</time>
      </trkpt>
      <trkpt lat="44.38506" lon="5.94146">
        <ele>546</ele>
        <time>2019-03-16T15:02:33Z</time>
      </trkpt>
      <trkpt lat="44.38507" lon="5.94138">
        <ele>546</ele>
        <time>2019-03-16T15:02:34Z</time>
      </trkpt>
      <trkpt lat="44.38507" lon="5.94131">
        <ele>546</ele>
        <time>2019-03-16T15:02:35Z</time>
      </trkpt>
      <trkpt lat="44.38508" lon="5.94124">
        <ele>547</ele>
        <time>2019-03-16T15:02:36Z</time>
      </trkpt>
      <trkpt lat="44.38509" lon="5.94117">
        <ele>548</ele>
        <time>2019-03-16T15:02:37Z</time>
      </trkpt>
      <trkpt lat="44.38509" lon="5.9411">
        <ele>548</ele>
        <time>2019-03-16T15:02:38Z</time>
      </trkpt>
      <trkpt lat="44.3851" lon="5.94103">
        <ele>548</ele>
        <time>2019-03-16T15:02:39Z</time>
      </trkpt>
      <trkpt lat="44.3851" lon="5.94096">
        <ele>548</ele>
        <time>2019-03-16T15:02:40Z</time>
      </trkpt>
      <trkpt lat="44.38511" lon="5.94089">
        <ele>548</ele>
        <time>2019-03-16T15:02:41Z</time>
      </trkpt>
      <trkpt lat="44.38511" lon="5.94081">
        <ele>548</ele>
        <time>2019-03-16T15:02:42Z</time>
      </trkpt>
      <trkpt lat="44.38512" lon="5.94074">
        <ele>548</ele>
        <time>2019-03-16T15:02:43Z</time>
      </trkpt>
      <trkpt lat="44.38512" lon="5.94067">
        <ele>548</ele>
        <time>2019-03-16T15:02:44Z</time>
      </trkpt>
      <trkpt lat="44.38512" lon="5.9406">
        <ele>548</ele>
        <time>2019-03-16T15:02:45Z</time>
      </trkpt>
      <trkpt lat="44.38513" lon="5.94052">
        <ele>548</ele>
        <time>2019-03-16T15:02:46Z</time>
      </trkpt>
      <trkpt lat="44.38513" lon="5.94045">
        <ele>548</ele>
        <time>2019-03-16T15:02:47Z</time>
      </trkpt>
      <trkpt lat="44.38513" lon="5.94037">
        <ele>548</ele>
        <time>2019-03-16T15:02:48Z</time>
      </trkpt>
      <trkpt lat="44.38512" lon="5.94029">
        <ele>548</ele>
        <time>2019-03-16T15:02:49Z</time>
      </trkpt>
      <trkpt lat="44.38512" lon="5.94021">
        <ele>548</ele>
        <time>2019-03-16T15:02:50Z</time>
      </trkpt>
      <trkpt lat="44.38511" lon="5.94013">
        <ele>548</ele>
        <time>2019-03-16T15:02:51Z</time>
      </trkpt>
      <trkpt lat="44.3851" lon="5.94005">
        <ele>548</ele>
        <time>2019-03-16T15:02:52Z</time>
      </trkpt>
      <trkpt lat="44.38509" lon="5.93996">
        <ele>548</ele>
        <time>2019-03-16T15:02:53Z</time>
      </trkpt>
      <trkpt lat="44.38508" lon="5.93988">
        <ele>548</ele>
        <time>2019-03-16T15:02:54Z</time>
      </trkpt>
      <trkpt lat="44.38508" lon="5.9398">
        <ele>548</ele>
        <time>2019-03-16T15:02:55Z</time>
      </trkpt>
      <trkpt lat="44.38507" lon="5.93972">
        <ele>548</ele>
        <time>2019-03-16T15:02:56Z</time>
      </trkpt>
      <trkpt lat="44.38508" lon="5.93965">
        <ele>548</ele>
        <time>2019-03-16T15:02:57Z</time>
      </trkpt>
      <trkpt lat="44.38509" lon="5.93957">
        <ele>548</ele>
        <time>2019-03-16T15:02:58Z</time>
      </trkpt>
      <trkpt lat="44.38512" lon="5.93951">
        <ele>548</ele>
        <time>2019-03-16T15:02:59Z</time>
      </trkpt>
      <trkpt lat="44.38516" lon="5.93947">
        <ele>548</ele>
        <time>2019-03-16T15:03:00Z</time>
      </trkpt>
      <trkpt lat="44.3852" lon="5.93944">
        <ele>548</ele>
        <time>2019-03-16T15:03:01Z</time>
      </trkpt>
      <trkpt lat="44.38525" lon="5.93942">
        <ele>548</ele>
        <time>2019-03-16T15:03:02Z</time>
      </trkpt>
      <trkpt lat="44.38529" lon="5.9394">
        <ele>548</ele>
        <time>2019-03-16T15:03:03Z</time>
      </trkpt>
      <trkpt lat="44.38533" lon="5.93939">
        <ele>548</ele>
        <time>2019-03-16T15:03:04Z</time>
      </trkpt>
      <trkpt lat="44.38536" lon="5.93938">
        <ele>548</ele>
        <time>2019-03-16T15:03:05Z</time>
      </trkpt>
      <trkpt lat="44.3854" lon="5.93937">
        <ele>548</ele>
        <time>2019-03-16T15:03:06Z</time>
      </trkpt>
      <trkpt lat="44.38543" lon="5.93936">
        <ele>548</ele>
        <time>2019-03-16T15:03:07Z</time>
      </trkpt>
      <trkpt lat="44.38547" lon="5.93935">
        <ele>548</ele>
        <time>2019-03-16T15:03:08Z</time>
      </trkpt>
      <trkpt lat="44.3855" lon="5.93934">
        <ele>549</ele>
        <time>2019-03-16T15:03:09Z</time>
      </trkpt>
      <trkpt lat="44.38554" lon="5.93933">
        <ele>549</ele>
        <time>2019-03-16T15:03:10Z</time>
      </trkpt>
      <trkpt lat="44.38557" lon="5.93933">
        <ele>550</ele>
        <time>2019-03-16T15:03:11Z</time>
      </trkpt>
      <trkpt lat="44.3856" lon="5.93932">
        <ele>550</ele>
        <time>2019-03-16T15:03:12Z</time>
      </trkpt>
      <trkpt lat="44.38563" lon="5.93931">
        <ele>551</ele>
        <time>2019-03-16T15:03:13Z</time>
      </trkpt>
      <trkpt lat="44.38567" lon="5.9393">
        <ele>551</ele>
        <time>2019-03-16T15:03:14Z</time>
      </trkpt>
      <trkpt lat="44.3857" lon="5.9393">
        <ele>552</ele>
        <time>2019-03-16T15:03:15Z</time>
      </trkpt>
      <trkpt lat="44.38573" lon="5.93929">
        <ele>552</ele>
        <time>2019-03-16T15:03:16Z</time>
      </trkpt>
      <trkpt lat="44.38576" lon="5.93929">
        <ele>552</ele>
        <time>2019-03-16T15:03:17Z</time>
      </trkpt>
      <trkpt lat="44.3858" lon="5.93928">
        <ele>553</ele>
        <time>2019-03-16T15:03:18Z</time>
      </trkpt>
      <trkpt lat="44.38583" lon="5.93928">
        <ele>553</ele>
        <time>2019-03-16T15:03:19Z</time>
      </trkpt>
      <trkpt lat="44.38586" lon="5.93927">
        <ele>554</ele>
        <time>2019-03-16T15:03:20Z</time>
      </trkpt>
      <trkpt lat="44.38589" lon="5.93926">
        <ele>554</ele>
        <time>2019-03-16T15:03:21Z</time>
      </trkpt>
      <trkpt lat="44.38592" lon="5.93926">
        <ele>555</ele>
        <time>2019-03-16T15:03:22Z</time>
      </trkpt>
      <trkpt lat="44.38595" lon="5.93925">
        <ele>555</ele>
        <time>2019-03-16T15:03:23Z</time>
      </trkpt>
      <trkpt lat="44.38599" lon="5.93924">
        <ele>555</ele>
        <time>2019-03-16T15:03:24Z</time>
      </trkpt>
      <trkpt lat="44.38602" lon="5.93923">
        <ele>556</ele>
        <time>2019-03-16T15:03:25Z</time>
      </trkpt>
      <trkpt lat="44.38605" lon="5.93922">
        <ele>556</ele>
        <time>2019-03-16T15:03:26Z</time>
      </trkpt>
      <trkpt lat="44.38609" lon="5.93922">
        <ele>556</ele>
        <time>2019-03-16T15:03:27Z</time>
      </trkpt>
      <trkpt lat="44.38612" lon="5.93921">
        <ele>557</ele>
        <time>2019-03-16T15:03:28Z</time>
      </trkpt>
      <trkpt lat="44.38615" lon="5.93921">
        <ele>557</ele>
        <time>2019-03-16T15:03:29Z</time>
      </trkpt>
      <trkpt lat="44.38618" lon="5.93921">
        <ele>557</ele>
        <time>2019-03-16T15:03:30Z</time>
      </trkpt>
      <trkpt lat="44.38621" lon="5.9392">
        <ele>558</ele>
        <time>2019-03-16T15:03:31Z</time>
      </trkpt>
      <trkpt lat="44.38624" lon="5.93919">
        <ele>558</ele>
        <time>2019-03-16T15:03:32Z</time>
      </trkpt>
      <trkpt lat="44.38627" lon="5.93919">
        <ele>558</ele>
        <time>2019-03-16T15:03:33Z</time>
      </trkpt>
      <trkpt lat="44.3863" lon="5.93919">
        <ele>559</ele>
        <time>2019-03-16T15:03:34Z</time>
      </trkpt>
      <trkpt lat="44.38633" lon="5.93919">
        <ele>559</ele>
        <time>2019-03-16T15:03:35Z</time>
      </trkpt>
      <trkpt lat="44.38636" lon="5.93919">
        <ele>559</ele>
        <time>2019-03-16T15:03:36Z</time>
      </trkpt>
      <trkpt lat="44.38639" lon="5.93918">
        <ele>559</ele>
        <time>2019-03-16T15:03:37Z</time>
      </trkpt>
      <trkpt lat="44.38642" lon="5.93917">
        <ele>560</ele>
        <time>2019-03-16T15:03:38Z</time>
      </trkpt>
      <trkpt lat="44.38645" lon="5.93916">
        <ele>560</ele>
        <time>2019-03-16T15:03:39Z</time>
      </trkpt>
      <trkpt lat="44.38647" lon="5.93915">
        <ele>560</ele>
        <time>2019-03-16T15:03:40Z</time>
      </trkpt>
      <trkpt lat="44.3865" lon="5.93914">
        <ele>560</ele>
        <time>2019-03-16T15:03:41Z</time>
      </trkpt>
      <trkpt lat="44.38652" lon="5.93914">
        <ele>561</ele>
        <time>2019-03-16T15:03:42Z</time>
      </trkpt>
      <trkpt lat="44.38655" lon="5.93913">
        <ele>561</ele>
        <time>2019-03-16T15:03:43Z</time>
      </trkpt>
      <trkpt lat="44.38658" lon="5.93912">
        <ele>561</ele>
        <time>2019-03-16T15:03:44Z</time>
      </trkpt>
      <trkpt lat="44.38661" lon="5.93912">
        <ele>561</ele>
        <time>2019-03-16T15:03:45Z</time>
      </trkpt>
      <trkpt lat="44.38663" lon="5.93911">
        <ele>561</ele>
        <time>2019-03-16T15:03:46Z</time>
      </trkpt>
      <trkpt lat="44.38666" lon="5.93911">
        <ele>562</ele>
        <time>2019-03-16T15:03:47Z</time>
      </trkpt>
      <trkpt lat="44.38669" lon="5.9391">
        <ele>562</ele>
        <time>2019-03-16T15:03:48Z</time>
      </trkpt>
      <trkpt lat="44.38672" lon="5.93909">
        <ele>562</ele>
        <time>2019-03-16T15:03:49Z</time>
      </trkpt>
      <trkpt lat="44.38675" lon="5.93907">
        <ele>562</ele>
        <time>2019-03-16T15:03:50Z</time>
      </trkpt>
      <trkpt lat="44.38678" lon="5.93905">
        <ele>563</ele>
        <time>2019-03-16T15:03:51Z</time>
      </trkpt>
      <trkpt lat="44.3868" lon="5.93903">
        <ele>563</ele>
        <time>2019-03-16T15:03:52Z</time>
      </trkpt>
      <trkpt lat="44.38683" lon="5.93901">
        <ele>563</ele>
        <time>2019-03-16T15:03:53Z</time>
      </trkpt>
      <trkpt lat="44.38684" lon="5.93899">
        <ele>564</ele>
        <time>2019-03-16T15:03:54Z</time>
      </trkpt>
      <trkpt lat="44.38686" lon="5.93896">
        <ele>564</ele>
        <time>2019-03-16T15:03:55Z</time>
      </trkpt>
      <trkpt lat="44.38688" lon="5.93893">
        <ele>564</ele>
        <time>2019-03-16T15:03:56Z</time>
      </trkpt>
      <trkpt lat="44.38689" lon="5.9389">
        <ele>564</ele>
        <time>2019-03-16T15:03:57Z</time>
      </trkpt>
      <trkpt lat="44.38691" lon="5.93888">
        <ele>565</ele>
        <time>2019-03-16T15:03:58Z</time>
      </trkpt>
      <trkpt lat="44.38692" lon="5.93885">
        <ele>565</ele>
        <time>2019-03-16T15:03:59Z</time>
      </trkpt>
      <trkpt lat="44.38693" lon="5.93881">
        <ele>565</ele>
        <time>2019-03-16T15:04:00Z</time>
      </trkpt>
      <trkpt lat="44.38694" lon="5.93878">
        <ele>565</ele>
        <time>2019-03-16T15:04:01Z</time>
      </trkpt>
      <trkpt lat="44.38695" lon="5.93874">
        <ele>565</ele>
        <time>2019-03-16T15:04:02Z</time>
      </trkpt>
      <trkpt lat="44.38696" lon="5.9387">
        <ele>565</ele>
        <time>2019-03-16T15:04:03Z</time>
      </trkpt>
      <trkpt lat="44.38697" lon="5.93865">
        <ele>565</ele>
        <time>2019-03-16T15:04:04Z</time>
      </trkpt>
      <trkpt lat="44.38697" lon="5.9386">
        <ele>565</ele>
        <time>2019-03-16T15:04:05Z</time>
      </trkpt>
      <trkpt lat="44.38698" lon="5.93856">
        <ele>565</ele>
        <time>2019-03-16T15:04:06Z</time>
      </trkpt>
      <trkpt lat="44.38698" lon="5.93851">
        <ele>565</ele>
        <time>2019-03-16T15:04:07Z</time>
      </trkpt>
      <trkpt lat="44.38698" lon="5.93846">
        <ele>565</ele>
        <time>2019-03-16T15:04:08Z</time>
      </trkpt>
      <trkpt lat="44.38698" lon="5.93841">
        <ele>565</ele>
        <time>2019-03-16T15:04:09Z</time>
      </trkpt>
      <trkpt lat="44.38699" lon="5.93837">
        <ele>565</ele>
        <time>2019-03-16T15:04:10Z</time>
      </trkpt>
      <trkpt lat="44.38699" lon="5.93832">
        <ele>565</ele>
        <time>2019-03-16T15:04:11Z</time>
      </trkpt>
      <trkpt lat="44.38699" lon="5.93827">
        <ele>565</ele>
        <time>2019-03-16T15:04:12Z</time>
      </trkpt>
      <trkpt lat="44.38699" lon="5.93823">
        <ele>565</ele>
        <time>2019-03-16T15:04:13Z</time>
      </trkpt>
      <trkpt lat="44.38699" lon="5.93818">
        <ele>565</ele>
        <time>2019-03-16T15:04:14Z</time>
      </trkpt>
      <trkpt lat="44.387" lon="5.93814">
        <ele>565</ele>
        <time>2019-03-16T15:04:15Z</time>
      </trkpt>
      <trkpt lat="44.387" lon="5.9381">
        <ele>565</ele>
        <time>2019-03-16T15:04:16Z</time>
      </trkpt>
      <trkpt lat="44.387" lon="5.93806">
        <ele>565</ele>
        <time>2019-03-16T15:04:17Z</time>
      </trkpt>
      <trkpt lat="44.387" lon="5.93802">
        <ele>566</ele>
        <time>2019-03-16T15:04:18Z</time>
      </trkpt>
      <trkpt lat="44.387" lon="5.93797">
        <ele>566</ele>
        <time>2019-03-16T15:04:19Z</time>
      </trkpt>
      <trkpt lat="44.38701" lon="5.93793">
        <ele>566</ele>
        <time>2019-03-16T15:04:20Z</time>
      </trkpt>
      <trkpt lat="44.38701" lon="5.93789">
        <ele>566</ele>
        <time>2019-03-16T15:04:21Z</time>
      </trkpt>
      <trkpt lat="44.38701" lon="5.93785">
        <ele>567</ele>
        <time>2019-03-16T15:04:22Z</time>
      </trkpt>
      <trkpt lat="44.38701" lon="5.93782">
        <ele>567</ele>
        <time>2019-03-16T15:04:23Z</time>
      </trkpt>
      <trkpt lat="44.38702" lon="5.93778">
        <ele>567</ele>
        <time>2019-03-16T15:04:24Z</time>
      </trkpt>
      <trkpt lat="44.38702" lon="5.93774">
        <ele>567</ele>
        <time>2019-03-16T15:04:25Z</time>
      </trkpt>
      <trkpt lat="44.38702" lon="5.9377">
        <ele>567</ele>
        <time>2019-03-16T15:04:26Z</time>
      </trkpt>
      <trkpt lat="44.38702" lon="5.93766">
        <ele>567</ele>
        <time>2019-03-16T15:04:27Z</time>
      </trkpt>
      <trkpt lat="44.38703" lon="5.93762">
        <ele>568</ele>
        <time>2019-03-16T15:04:28Z</time>
      </trkpt>
      <trkpt lat="44.38703" lon="5.93757">
        <ele>568</ele>
        <time>2019-03-16T15:04:29Z</time>
      </trkpt>
      <trkpt lat="44.38703" lon="5.93753">
        <ele>568</ele>
        <time>2019-03-16T15:04:30Z</time>
      </trkpt>
      <trkpt lat="44.38703" lon="5.93749">
        <ele>568</ele>
        <time>2019-03-16T15:04:31Z</time>
      </trkpt>
      <trkpt lat="44.38704" lon="5.93745">
        <ele>568</ele>
        <time>2019-03-16T15:04:32Z</time>
      </trkpt>
      <trkpt lat="44.38704" lon="5.93741">
        <ele>568</ele>
        <time>2019-03-16T15:04:33Z</time>
      </trkpt>
      <trkpt lat="44.38704" lon="5.93737">
        <ele>568</ele>
        <time>2019-03-16T15:04:34Z</time>
      </trkpt>
      <trkpt lat="44.38705" lon="5.93733">
        <ele>568</ele>
        <time>2019-03-16T15:04:35Z</time>
      </trkpt>
      <trkpt lat="44.38705" lon="5.93728">
        <ele>569</ele>
        <time>2019-03-16T15:04:36Z</time>
      </trkpt>
      <trkpt lat="44.38705" lon="5.93724">
        <ele>569</ele>
        <time>2019-03-16T15:04:37Z</time>
      </trkpt>
      <trkpt lat="44.38705" lon="5.93719">
        <ele>569</ele>
        <time>2019-03-16T15:04:38Z</time>
      </trkpt>
      <trkpt lat="44.38705" lon="5.93715">
        <ele>569</ele>
        <time>2019-03-16T15:04:39Z</time>
      </trkpt>
      <trkpt lat="44.38706" lon="5.9371">
        <ele>570</ele>
        <time>2019-03-16T15:04:40Z</time>
      </trkpt>
      <trkpt lat="44.38706" lon="5.93706">
        <ele>570</ele>
        <time>2019-03-16T15:04:41Z</time>
      </trkpt>
      <trkpt lat="44.38706" lon="5.93701">
        <ele>570</ele>
        <time>2019-03-16T15:04:42Z</time>
      </trkpt>
      <trkpt lat="44.38706" lon="5.93696">
        <ele>570</ele>
        <time>2019-03-16T15:04:43Z</time>
      </trkpt>
      <trkpt lat="44.38706" lon="5.93691">
        <ele>571</ele>
        <time>2019-03-16T15:04:44Z</time>
      </trkpt>
      <trkpt lat="44.38707" lon="5.93686">
        <ele>571</ele>
        <time>2019-03-16T15:04:45Z</time>
      </trkpt>
      <trkpt lat="44.38707" lon="5.93682">
        <ele>571</ele>
        <time>2019-03-16T15:04:46Z</time>
      </trkpt>
      <trkpt lat="44.38707" lon="5.93677">
        <ele>571</ele>
        <time>2019-03-16T15:04:47Z</time>
      </trkpt>
      <trkpt lat="44.38708" lon="5.93672">
        <ele>571</ele>
        <time>2019-03-16T15:04:48Z</time>
      </trkpt>
      <trkpt lat="44.38708" lon="5.93667">
        <ele>571</ele>
        <time>2019-03-16T15:04:49Z</time>
      </trkpt>
      <trkpt lat="44.38708" lon="5.93661">
        <ele>572</ele>
        <time>2019-03-16T15:04:50Z</time>
      </trkpt>
      <trkpt lat="44.38708" lon="5.93656">
        <ele>572</ele>
        <time>2019-03-16T15:04:51Z</time>
      </trkpt>
      <trkpt lat="44.38707" lon="5.93651">
        <ele>572</ele>
        <time>2019-03-16T15:04:52Z</time>
      </trkpt>
      <trkpt lat="44.38707" lon="5.93646">
        <ele>572</ele>
        <time>2019-03-16T15:04:53Z</time>
      </trkpt>
      <trkpt lat="44.38707" lon="5.93641">
        <ele>572</ele>
        <time>2019-03-16T15:04:54Z</time>
      </trkpt>
      <trkpt lat="44.38707" lon="5.93636">
        <ele>572</ele>
        <time>2019-03-16T15:04:55Z</time>
      </trkpt>
      <trkpt lat="44.38706" lon="5.93631">
        <ele>572</ele>
        <time>2019-03-16T15:04:56Z</time>
      </trkpt>
      <trkpt lat="44.38706" lon="5.93625">
        <ele>572</ele>
        <time>2019-03-16T15:04:57Z</time>
      </trkpt>
      <trkpt lat="44.38706" lon="5.9362">
        <ele>572</ele>
        <time>2019-03-16T15:04:58Z</time>
      </trkpt>
      <trkpt lat="44.38707" lon="5.93615">
        <ele>572</ele>
        <time>2019-03-16T15:04:59Z</time>
      </trkpt>
      <trkpt lat="44.38707" lon="5.9361">
        <ele>572</ele>
        <time>2019-03-16T15:05:00Z</time>
      </trkpt>
      <trkpt lat="44.38707" lon="5.93605">
        <ele>572</ele>
        <time>2019-03-16T15:05:01Z</time>
      </trkpt>
      <trkpt lat="44.38707" lon="5.936">
        <ele>572</ele>
        <time>2019-03-16T15:05:02Z</time>
      </trkpt>
      <trkpt lat="44.38707" lon="5.93595">
        <ele>572</ele>
        <time>2019-03-16T15:05:03Z</time>
      </trkpt>
      <trkpt lat="44.38705" lon="5.9359">
        <ele>572</ele>
        <time>2019-03-16T15:05:04Z</time>
      </trkpt>
      <trkpt lat="44.38702" lon="5.93586">
        <ele>572</ele>
        <time>2019-03-16T15:05:05Z</time>
      </trkpt>
      <trkpt lat="44.38699" lon="5.93583">
        <ele>572</ele>
        <time>2019-03-16T15:05:06Z</time>
      </trkpt>
      <trkpt lat="44.38696" lon="5.9358">
        <ele>572</ele>
        <time>2019-03-16T15:05:07Z</time>
      </trkpt>
      <trkpt lat="44.38692" lon="5.93578">
        <ele>572</ele>
        <time>2019-03-16T15:05:08Z</time>
      </trkpt>
      <trkpt lat="44.38689" lon="5.93575">
        <ele>572</ele>
        <time>2019-03-16T15:05:09Z</time>
      </trkpt>
      <trkpt lat="44.38684" lon="5.93573">
        <ele>572</ele>
        <time>2019-03-16T15:05:10Z</time>
      </trkpt>
      <trkpt lat="44.3868" lon="5.9357">
        <ele>572</ele>
        <time>2019-03-16T15:05:11Z</time>
      </trkpt>
      <trkpt lat="44.38675" lon="5.93567">
        <ele>572</ele>
        <time>2019-03-16T15:05:12Z</time>
      </trkpt>
      <trkpt lat="44.3867" lon="5.93564">
        <ele>572</ele>
        <time>2019-03-16T15:05:13Z</time>
      </trkpt>
      <trkpt lat="44.38665" lon="5.93561">
        <ele>572</ele>
        <time>2019-03-16T15:05:14Z</time>
      </trkpt>
      <trkpt lat="44.3866" lon="5.93558">
        <ele>572</ele>
        <time>2019-03-16T15:05:15Z</time>
      </trkpt>
      <trkpt lat="44.38654" lon="5.93554">
        <ele>572</ele>
        <time>2019-03-16T15:05:16Z</time>
      </trkpt>
      <trkpt lat="44.38649" lon="5.93551">
        <ele>572</ele>
        <time>2019-03-16T15:05:17Z</time>
      </trkpt>
      <trkpt lat="44.38644" lon="5.93547">
        <ele>572</ele>
        <time>2019-03-16T15:05:18Z</time>
      </trkpt>
      <trkpt lat="44.38638" lon="5.93544">
        <ele>572</ele>
        <time>2019-03-16T15:05:19Z</time>
      </trkpt>
      <trkpt lat="44.38632" lon="5.9354">
        <ele>572</ele>
        <time>2019-03-16T15:05:20Z</time>
      </trkpt>
      <trkpt lat="44.38627" lon="5.93537">
        <ele>572</ele>
        <time>2019-03-16T15:05:21Z</time>
      </trkpt>
      <trkpt lat="44.38621" lon="5.93533">
        <ele>572</ele>
        <time>2019-03-16T15:05:22Z</time>
      </trkpt>
      <trkpt lat="44.38616" lon="5.93529">
        <ele>572</ele>
        <time>2019-03-16T15:05:23Z</time>
      </trkpt>
      <trkpt lat="44.3861" lon="5.93525">
        <ele>572</ele>
        <time>2019-03-16T15:05:24Z</time>
      </trkpt>
      <trkpt lat="44.38605" lon="5.93521">
        <ele>572</ele>
        <time>2019-03-16T15:05:25Z</time>
      </trkpt>
      <trkpt lat="44.38599" lon="5.93516">
        <ele>572</ele>
        <time>2019-03-16T15:05:26Z</time>
      </trkpt>
      <trkpt lat="44.38594" lon="5.93512">
        <ele>572</ele>
        <time>2019-03-16T15:05:27Z</time>
      </trkpt>
      <trkpt lat="44.38588" lon="5.93508">
        <ele>572</ele>
        <time>2019-03-16T15:05:28Z</time>
      </trkpt>
      <trkpt lat="44.38583" lon="5.93504">
        <ele>572</ele>
        <time>2019-03-16T15:05:29Z</time>
      </trkpt>
      <trkpt lat="44.38578" lon="5.935">
        <ele>571</ele>
        <time>2019-03-16T15:05:30Z</time>
      </trkpt>
      <trkpt lat="44.38572" lon="5.93495">
        <ele>571</ele>
        <time>2019-03-16T15:05:31Z</time>
      </trkpt>
      <trkpt lat="44.38566" lon="5.93491">
        <ele>571</ele>
        <time>2019-03-16T15:05:32Z</time>
      </trkpt>
      <trkpt lat="44.38561" lon="5.93486">
        <ele>570</ele>
        <time>2019-03-16T15:05:33Z</time>
      </trkpt>
      <trkpt lat="44.38555" lon="5.93483">
        <ele>570</ele>
        <time>2019-03-16T15:05:34Z</time>
      </trkpt>
      <trkpt lat="44.38549" lon="5.93479">
        <ele>570</ele>
        <time>2019-03-16T15:05:35Z</time>
      </trkpt>
      <trkpt lat="44.38544" lon="5.93475">
        <ele>570</ele>
        <time>2019-03-16T15:05:36Z</time>
      </trkpt>
      <trkpt lat="44.38539" lon="5.93471">
        <ele>570</ele>
        <time>2019-03-16T15:05:37Z</time>
      </trkpt>
      <trkpt lat="44.38533" lon="5.93467">
        <ele>570</ele>
        <time>2019-03-16T15:05:38Z</time>
      </trkpt>
      <trkpt lat="44.38528" lon="5.93463">
        <ele>570</ele>
        <time>2019-03-16T15:05:39Z</time>
      </trkpt>
      <trkpt lat="44.38522" lon="5.9346">
        <ele>570</ele>
        <time>2019-03-16T15:05:40Z</time>
      </trkpt>
      <trkpt lat="44.38517" lon="5.93456">
        <ele>569</ele>
        <time>2019-03-16T15:05:41Z</time>
      </trkpt>
      <trkpt lat="44.38512" lon="5.93452">
        <ele>569</ele>
        <time>2019-03-16T15:05:42Z</time>
      </trkpt>
      <trkpt lat="44.38507" lon="5.93449">
        <ele>569</ele>
        <time>2019-03-16T15:05:43Z</time>
      </trkpt>
      <trkpt lat="44.38501" lon="5.93445">
        <ele>569</ele>
        <time>2019-03-16T15:05:44Z</time>
      </trkpt>
      <trkpt lat="44.38496" lon="5.93442">
        <ele>569</ele>
        <time>2019-03-16T15:05:45Z</time>
      </trkpt>
      <trkpt lat="44.38491" lon="5.93438">
        <ele>569</ele>
        <time>2019-03-16T15:05:46Z</time>
      </trkpt>
      <trkpt lat="44.38486" lon="5.93434">
        <ele>569</ele>
        <time>2019-03-16T15:05:47Z</time>
      </trkpt>
      <trkpt lat="44.38481" lon="5.93431">
        <ele>569</ele>
        <time>2019-03-16T15:05:48Z</time>
      </trkpt>
      <trkpt lat="44.38476" lon="5.93427">
        <ele>569</ele>
        <time>2019-03-16T15:05:49Z</time>
      </trkpt>
      <trkpt lat="44.38472" lon="5.93424">
        <ele>569</ele>
        <time>2019-03-16T15:05:50Z</time>
      </trkpt>
      <trkpt lat="44.38467" lon="5.9342">
        <ele>569</ele>
        <time>2019-03-16T15:05:51Z</time>
      </trkpt>
      <trkpt lat="44.38462" lon="5.93417">
        <ele>569</ele>
        <time>2019-03-16T15:05:52Z</time>
      </trkpt>
      <trkpt lat="44.38456" lon="5.93413">
        <ele>569</ele>
        <time>2019-03-16T15:05:53Z</time>
      </trkpt>
      <trkpt lat="44.38451" lon="5.93409">
        <ele>569</ele>
        <time>2019-03-16T15:05:54Z</time>
      </trkpt>
      <trkpt lat="44.38446" lon="5.93406">
        <ele>569</ele>
        <time>2019-03-16T15:05:55Z</time>
      </trkpt>
      <trkpt lat="44.38441" lon="5.93402">
        <ele>569</ele>
        <time>2019-03-16T15:05:56Z</time>
      </trkpt>
      <trkpt lat="44.38436" lon="5.93399">
        <ele>569</ele>
        <time>2019-03-16T15:05:57Z</time>
      </trkpt>
      <trkpt lat="44.38431" lon="5.93395">
        <ele>569</ele>
        <time>2019-03-16T15:05:58Z</time>
      </trkpt>
      <trkpt lat="44.38425" lon="5.93391">
        <ele>569</ele>
        <time>2019-03-16T15:05:59Z</time>
      </trkpt>
      <trkpt lat="44.3842" lon="5.93387">
        <ele>569</ele>
        <time>2019-03-16T15:06:00Z</time>
      </trkpt>
      <trkpt lat="44.38414" lon="5.93382">
        <ele>569</ele>
        <time>2019-03-16T15:06:01Z</time>
      </trkpt>
      <trkpt lat="44.38408" lon="5.93377">
        <ele>568</ele>
        <time>2019-03-16T15:06:02Z</time>
      </trkpt>
      <trkpt lat="44.38402" lon="5.93373">
        <ele>568</ele>
        <time>2019-03-16T15:06:03Z</time>
      </trkpt>
      <trkpt lat="44.38396" lon="5.93369">
        <ele>568</ele>
        <time>2019-03-16T15:06:04Z</time>
      </trkpt>
      <trkpt lat="44.3839" lon="5.93365">
        <ele>568</ele>
        <time>2019-03-16T15:06:05Z</time>
      </trkpt>
      <trkpt lat="44.38385" lon="5.93362">
        <ele>568</ele>
        <time>2019-03-16T15:06:06Z</time>
      </trkpt>
      <trkpt lat="44.3838" lon="5.93358">
        <ele>568</ele>
        <time>2019-03-16T15:06:07Z</time>
      </trkpt>
      <trkpt lat="44.38375" lon="5.93354">
        <ele>568</ele>
        <time>2019-03-16T15:06:08Z</time>
      </trkpt>
      <trkpt lat="44.3837" lon="5.93351">
        <ele>568</ele>
        <time>2019-03-16T15:06:09Z</time>
      </trkpt>
      <trkpt lat="44.38365" lon="5.93347">
        <ele>568</ele>
        <time>2019-03-16T15:06:10Z</time>
      </trkpt>
      <trkpt lat="44.3836" lon="5.93344">
        <ele>568</ele>
        <time>2019-03-16T15:06:11Z</time>
      </trkpt>
      <trkpt lat="44.38354" lon="5.9334">
        <ele>568</ele>
        <time>2019-03-16T15:06:12Z</time>
      </trkpt>
      <trkpt lat="44.38349" lon="5.93337">
        <ele>568</ele>
        <time>2019-03-16T15:06:13Z</time>
      </trkpt>
      <trkpt lat="44.38344" lon="5.93333">
        <ele>568</ele>
        <time>2019-03-16T15:06:14Z</time>
      </trkpt>
      <trkpt lat="44.38339" lon="5.9333">
        <ele>568</ele>
        <time>2019-03-16T15:06:15Z</time>
      </trkpt>
      <trkpt lat="44.38334" lon="5.93326">
        <ele>568</ele>
        <time>2019-03-16T15:06:16Z</time>
      </trkpt>
      <trkpt lat="44.38329" lon="5.93323">
        <ele>568</ele>
        <time>2019-03-16T15:06:17Z</time>
      </trkpt>
      <trkpt lat="44.38324" lon="5.93319">
        <ele>568</ele>
        <time>2019-03-16T15:06:18Z</time>
      </trkpt>
      <trkpt lat="44.38319" lon="5.93316">
        <ele>568</ele>
        <time>2019-03-16T15:06:19Z</time>
      </trkpt>
      <trkpt lat="44.38314" lon="5.93313">
        <ele>568</ele>
        <time>2019-03-16T15:06:20Z</time>
      </trkpt>
      <trkpt lat="44.38309" lon="5.9331">
        <ele>568</ele>
        <time>2019-03-16T15:06:21Z</time>
      </trkpt>
      <trkpt lat="44.38304" lon="5.93307">
        <ele>568</ele>
        <time>2019-03-16T15:06:22Z</time>
      </trkpt>
      <trkpt lat="44.38299" lon="5.93303">
        <ele>568</ele>
        <time>2019-03-16T15:06:23Z</time>
      </trkpt>
      <trkpt lat="44.38294" lon="5.933">
        <ele>568</ele>
        <time>2019-03-16T15:06:24Z</time>
      </trkpt>
      <trkpt lat="44.38289" lon="5.93297">
        <ele>568</ele>
        <time>2019-03-16T15:06:25Z</time>
      </trkpt>
      <trkpt lat="44.38284" lon="5.93294">
        <ele>568</ele>
        <time>2019-03-16T15:06:26Z</time>
      </trkpt>
      <trkpt lat="44.38279" lon="5.9329">
        <ele>568</ele>
        <time>2019-03-16T15:06:27Z</time>
      </trkpt>
      <trkpt lat="44.38275" lon="5.93287">
        <ele>568</ele>
        <time>2019-03-16T15:06:28Z</time>
      </trkpt>
      <trkpt lat="44.3827" lon="5.93284">
        <ele>568</ele>
        <time>2019-03-16T15:06:29Z</time>
      </trkpt>
      <trkpt lat="44.38265" lon="5.93281">
        <ele>568</ele>
        <time>2019-03-16T15:06:30Z</time>
      </trkpt>
      <trkpt lat="44.3826" lon="5.93278">
        <ele>568</ele>
        <time>2019-03-16T15:06:31Z</time>
      </trkpt>
      <trkpt lat="44.38255" lon="5.93274">
        <ele>568</ele>
        <time>2019-03-16T15:06:32Z</time>
      </trkpt>
      <trkpt lat="44.38251" lon="5.93271">
        <ele>568</ele>
        <time>2019-03-16T15:06:33Z</time>
      </trkpt>
      <trkpt lat="44.38246" lon="5.93268">
        <ele>568</ele>
        <time>2019-03-16T15:06:34Z</time>
      </trkpt>
      <trkpt lat="44.38241" lon="5.93265">
        <ele>568</ele>
        <time>2019-03-16T15:06:35Z</time>
      </trkpt>
      <trkpt lat="44.38237" lon="5.93262">
        <ele>568</ele>
        <time>2019-03-16T15:06:36Z</time>
      </trkpt>
      <trkpt lat="44.38232" lon="5.93258">
        <ele>568</ele>
        <time>2019-03-16T15:06:37Z</time>
      </trkpt>
      <trkpt lat="44.38227" lon="5.93255">
        <ele>568</ele>
        <time>2019-03-16T15:06:38Z</time>
      </trkpt>
      <trkpt lat="44.38223" lon="5.93252">
        <ele>568</ele>
        <time>2019-03-16T15:06:39Z</time>
      </trkpt>
      <trkpt lat="44.38218" lon="5.93249">
        <ele>568</ele>
        <time>2019-03-16T15:06:40Z</time>
      </trkpt>
      <trkpt lat="44.38213" lon="5.93245">
        <ele>568</ele>
        <time>2019-03-16T15:06:41Z</time>
      </trkpt>
      <trkpt lat="44.38209" lon="5.93242">
        <ele>568</ele>
        <time>2019-03-16T15:06:42Z</time>
      </trkpt>
      <trkpt lat="44.38204" lon="5.93239">
        <ele>568</ele>
        <time>2019-03-16T15:06:43Z</time>
      </trkpt>
      <trkpt lat="44.382" lon="5.93236">
        <ele>568</ele>
        <time>2019-03-16T15:06:44Z</time>
      </trkpt>
      <trkpt lat="44.38195" lon="5.93232">
        <ele>568</ele>
        <time>2019-03-16T15:06:45Z</time>
      </trkpt>
      <trkpt lat="44.3819" lon="5.93229">
        <ele>568</ele>
        <time>2019-03-16T15:06:46Z</time>
      </trkpt>
      <trkpt lat="44.38185" lon="5.93226">
        <ele>568</ele>
        <time>2019-03-16T15:06:47Z</time>
      </trkpt>
      <trkpt lat="44.3818" lon="5.93222">
        <ele>568</ele>
        <time>2019-03-16T15:06:48Z</time>
      </trkpt>
      <trkpt lat="44.38175" lon="5.93219">
        <ele>568</ele>
        <time>2019-03-16T15:06:49Z</time>
      </trkpt>
      <trkpt lat="44.3817" lon="5.93215">
        <ele>568</ele>
        <time>2019-03-16T15:06:50Z</time>
      </trkpt>
      <trkpt lat="44.38165" lon="5.93212">
        <ele>568</ele>
        <time>2019-03-16T15:06:51Z</time>
      </trkpt>
      <trkpt lat="44.3816" lon="5.93208">
        <ele>568</ele>
        <time>2019-03-16T15:06:52Z</time>
      </trkpt>
      <trkpt lat="44.38154" lon="5.93204">
        <ele>568</ele>
        <time>2019-03-16T15:06:53Z</time>
      </trkpt>
      <trkpt lat="44.38149" lon="5.932">
        <ele>568</ele>
        <time>2019-03-16T15:06:54Z</time>
      </trkpt>
      <trkpt lat="44.38144" lon="5.93197">
        <ele>568</ele>
        <time>2019-03-16T15:06:55Z</time>
      </trkpt>
      <trkpt lat="44.38138" lon="5.93193">
        <ele>568</ele>
        <time>2019-03-16T15:06:56Z</time>
      </trkpt>
      <trkpt lat="44.38133" lon="5.93189">
        <ele>568</ele>
        <time>2019-03-16T15:06:57Z</time>
      </trkpt>
      <trkpt lat="44.38128" lon="5.93185">
        <ele>568</ele>
        <time>2019-03-16T15:06:58Z</time>
      </trkpt>
      <trkpt lat="44.38122" lon="5.93181">
        <ele>568</ele>
        <time>2019-03-16T15:06:59Z</time>
      </trkpt>
      <trkpt lat="44.38116" lon="5.93177">
        <ele>568</ele>
        <time>2019-03-16T15:07:00Z</time>
      </trkpt>
      <trkpt lat="44.38111" lon="5.93173">
        <ele>568</ele>
        <time>2019-03-16T15:07:01Z</time>
      </trkpt>
      <trkpt lat="44.38105" lon="5.93169">
        <ele>568</ele>
        <time>2019-03-16T15:07:02Z</time>
      </trkpt>
      <trkpt lat="44.381" lon="5.93165">
        <ele>568</ele>
        <time>2019-03-16T15:07:03Z</time>
      </trkpt>
      <trkpt lat="44.38094" lon="5.93161">
        <ele>568</ele>
        <time>2019-03-16T15:07:04Z</time>
      </trkpt>
      <trkpt lat="44.38088" lon="5.93157">
        <ele>568</ele>
        <time>2019-03-16T15:07:05Z</time>
      </trkpt>
      <trkpt lat="44.38082" lon="5.93153">
        <ele>568</ele>
        <time>2019-03-16T15:07:06Z</time>
      </trkpt>
      <trkpt lat="44.38076" lon="5.93149">
        <ele>568</ele>
        <time>2019-03-16T15:07:07Z</time>
      </trkpt>
      <trkpt lat="44.38071" lon="5.93144">
        <ele>568</ele>
        <time>2019-03-16T15:07:08Z</time>
      </trkpt>
      <trkpt lat="44.38065" lon="5.9314">
        <ele>568</ele>
        <time>2019-03-16T15:07:09Z</time>
      </trkpt>
      <trkpt lat="44.38059" lon="5.93136">
        <ele>568</ele>
        <time>2019-03-16T15:07:10Z</time>
      </trkpt>
      <trkpt lat="44.38053" lon="5.93131">
        <ele>568</ele>
        <time>2019-03-16T15:07:11Z</time>
      </trkpt>
      <trkpt lat="44.38047" lon="5.93127">
        <ele>568</ele>
        <time>2019-03-16T15:07:12Z</time>
      </trkpt>
      <trkpt lat="44.38041" lon="5.93122">
        <ele>568</ele>
        <time>2019-03-16T15:07:13Z</time>
      </trkpt>
      <trkpt lat="44.38035" lon="5.93118">
        <ele>568</ele>
        <time>2019-03-16T15:07:14Z</time>
      </trkpt>
      <trkpt lat="44.38029" lon="5.93114">
        <ele>568</ele>
        <time>2019-03-16T15:07:15Z</time>
      </trkpt>
      <trkpt lat="44.38023" lon="5.9311">
        <ele>568</ele>
        <time>2019-03-16T15:07:16Z</time>
      </trkpt>
      <trkpt lat="44.38017" lon="5.93105">
        <ele>568</ele>
        <time>2019-03-16T15:07:17Z</time>
      </trkpt>
      <trkpt lat="44.38011" lon="5.93101">
        <ele>568</ele>
        <time>2019-03-16T15:07:18Z</time>
      </trkpt>
      <trkpt lat="44.38005" lon="5.93096">
        <ele>568</ele>
        <time>2019-03-16T15:07:19Z</time>
      </trkpt>
      <trkpt lat="44.37999" lon="5.93092">
        <ele>567</ele>
        <time>2019-03-16T15:07:20Z</time>
      </trkpt>
      <trkpt lat="44.37992" lon="5.93087">
        <ele>567</ele>
        <time>2019-03-16T15:07:21Z</time>
      </trkpt>
      <trkpt lat="44.37986" lon="5.93082">
        <ele>567</ele>
        <time>2019-03-16T15:07:22Z</time>
      </trkpt>
      <trkpt lat="44.3798" lon="5.93078">
        <ele>567</ele>
        <time>2019-03-16T15:07:23Z</time>
      </trkpt>
      <trkpt lat="44.37974" lon="5.93073">
        <ele>567</ele>
        <time>2019-03-16T15:07:24Z</time>
      </trkpt>
      <trkpt lat="44.37968" lon="5.93069">
        <ele>567</ele>
        <time>2019-03-16T15:07:25Z</time>
      </trkpt>
      <trkpt lat="44.37961" lon="5.93065">
        <ele>567</ele>
        <time>2019-03-16T15:07:26Z</time>
      </trkpt>
      <trkpt lat="44.37955" lon="5.9306">
        <ele>567</ele>
        <time>2019-03-16T15:07:27Z</time>
      </trkpt>
      <trkpt lat="44.3795" lon="5.93056">
        <ele>567</ele>
        <time>2019-03-16T15:07:28Z</time>
      </trkpt>
      <trkpt lat="44.37944" lon="5.93051">
        <ele>567</ele>
        <time>2019-03-16T15:07:29Z</time>
      </trkpt>
      <trkpt lat="44.37938" lon="5.93047">
        <ele>567</ele>
        <time>2019-03-16T15:07:30Z</time>
      </trkpt>
      <trkpt lat="44.37932" lon="5.93043">
        <ele>567</ele>
        <time>2019-03-16T15:07:31Z</time>
      </trkpt>
      <trkpt lat="44.37926" lon="5.93039">
        <ele>567</ele>
        <time>2019-03-16T15:07:32Z</time>
      </trkpt>
      <trkpt lat="44.3792" lon="5.93034">
        <ele>567</ele>
        <time>2019-03-16T15:07:33Z</time>
      </trkpt>
      <trkpt lat="44.37915" lon="5.9303">
        <ele>567</ele>
        <time>2019-03-16T15:07:34Z</time>
      </trkpt>
      <trkpt lat="44.37909" lon="5.93026">
        <ele>567</ele>
        <time>2019-03-16T15:07:35Z</time>
      </trkpt>
      <trkpt lat="44.37903" lon="5.93022">
        <ele>566</ele>
        <time>2019-03-16T15:07:36Z</time>
      </trkpt>
      <trkpt lat="44.37897" lon="5.93018">
        <ele>566</ele>
        <time>2019-03-16T15:07:37Z</time>
      </trkpt>
      <trkpt lat="44.37891" lon="5.93014">
        <ele>566</ele>
        <time>2019-03-16T15:07:38Z</time>
      </trkpt>
      <trkpt lat="44.37886" lon="5.93011">
        <ele>566</ele>
        <time>2019-03-16T15:07:39Z</time>
      </trkpt>
      <trkpt lat="44.3788" lon="5.93007">
        <ele>566</ele>
        <time>2019-03-16T15:07:40Z</time>
      </trkpt>
      <trkpt lat="44.37874" lon="5.93003">
        <ele>566</ele>
        <time>2019-03-16T15:07:41Z</time>
      </trkpt>
      <trkpt lat="44.37868" lon="5.92998">
        <ele>566</ele>
        <time>2019-03-16T15:07:42Z</time>
      </trkpt>
      <trkpt lat="44.37862" lon="5.92994">
        <ele>566</ele>
        <time>2019-03-16T15:07:43Z</time>
      </trkpt>
      <trkpt lat="44.37857" lon="5.9299">
        <ele>566</ele>
        <time>2019-03-16T15:07:44Z</time>
      </trkpt>
      <trkpt lat="44.37851" lon="5.92986">
        <ele>566</ele>
        <time>2019-03-16T15:07:45Z</time>
      </trkpt>
      <trkpt lat="44.37845" lon="5.92982">
        <ele>566</ele>
        <time>2019-03-16T15:07:46Z</time>
      </trkpt>
      <trkpt lat="44.3784" lon="5.92978">
        <ele>566</ele>
        <time>2019-03-16T15:07:47Z</time>
      </trkpt>
      <trkpt lat="44.37834" lon="5.92975">
        <ele>566</ele>
        <time>2019-03-16T15:07:48Z</time>
      </trkpt>
      <trkpt lat="44.37828" lon="5.92971">
        <ele>566</ele>
        <time>2019-03-16T15:07:49Z</time>
      </trkpt>
      <trkpt lat="44.37822" lon="5.92967">
        <ele>566</ele>
        <time>2019-03-16T15:07:50Z</time>
      </trkpt>
      <trkpt lat="44.37817" lon="5.92963">
        <ele>566</ele>
        <time>2019-03-16T15:07:51Z</time>
      </trkpt>
      <trkpt lat="44.37811" lon="5.92959">
        <ele>566</ele>
        <time>2019-03-16T15:07:52Z</time>
      </trkpt>
      <trkpt lat="44.37805" lon="5.92956">
        <ele>566</ele>
        <time>2019-03-16T15:07:53Z</time>
      </trkpt>
      <trkpt lat="44.37799" lon="5.92952">
        <ele>566</ele>
        <time>2019-03-16T15:07:54Z</time>
      </trkpt>
      <trkpt lat="44.37794" lon="5.92949">
        <ele>566</ele>
        <time>2019-03-16T15:07:55Z</time>
      </trkpt>
      <trkpt lat="44.37788" lon="5.92945">
        <ele>566</ele>
        <time>2019-03-16T15:07:56Z</time>
      </trkpt>
      <trkpt lat="44.37783" lon="5.92941">
        <ele>566</ele>
        <time>2019-03-16T15:07:57Z</time>
      </trkpt>
      <trkpt lat="44.37777" lon="5.92938">
        <ele>566</ele>
        <time>2019-03-16T15:07:58Z</time>
      </trkpt>
      <trkpt lat="44.37772" lon="5.92934">
        <ele>566</ele>
        <time>2019-03-16T15:07:59Z</time>
      </trkpt>
      <trkpt lat="44.37767" lon="5.9293">
        <ele>566</ele>
        <time>2019-03-16T15:08:00Z</time>
      </trkpt>
      <trkpt lat="44.37761" lon="5.92926">
        <ele>566</ele>
        <time>2019-03-16T15:08:01Z</time>
      </trkpt>
      <trkpt lat="44.37756" lon="5.92922">
        <ele>566</ele>
        <time>2019-03-16T15:08:02Z</time>
      </trkpt>
      <trkpt lat="44.3775" lon="5.92918">
        <ele>566</ele>
        <time>2019-03-16T15:08:03Z</time>
      </trkpt>
      <trkpt lat="44.37744" lon="5.92915">
        <ele>566</ele>
        <time>2019-03-16T15:08:04Z</time>
      </trkpt>
      <trkpt lat="44.37739" lon="5.92911">
        <ele>566</ele>
        <time>2019-03-16T15:08:05Z</time>
      </trkpt>
      <trkpt lat="44.37733" lon="5.92907">
        <ele>566</ele>
        <time>2019-03-16T15:08:06Z</time>
      </trkpt>
      <trkpt lat="44.37728" lon="5.92903">
        <ele>566</ele>
        <time>2019-03-16T15:08:07Z</time>
      </trkpt>
      <trkpt lat="44.37722" lon="5.92899">
        <ele>566</ele>
        <time>2019-03-16T15:08:08Z</time>
      </trkpt>
      <trkpt lat="44.37717" lon="5.92896">
        <ele>566</ele>
        <time>2019-03-16T15:08:09Z</time>
      </trkpt>
      <trkpt lat="44.37711" lon="5.92892">
        <ele>566</ele>
        <time>2019-03-16T15:08:10Z</time>
      </trkpt>
      <trkpt lat="44.37706" lon="5.92888">
        <ele>566</ele>
        <time>2019-03-16T15:08:11Z</time>
      </trkpt>
      <trkpt lat="44.37701" lon="5.92884">
        <ele>566</ele>
        <time>2019-03-16T15:08:12Z</time>
      </trkpt>
      <trkpt lat="44.37695" lon="5.9288">
        <ele>566</ele>
        <time>2019-03-16T15:08:13Z</time>
      </trkpt>
      <trkpt lat="44.3769" lon="5.92877">
        <ele>566</ele>
        <time>2019-03-16T15:08:14Z</time>
      </trkpt>
      <trkpt lat="44.37684" lon="5.92873">
        <ele>566</ele>
        <time>2019-03-16T15:08:15Z</time>
      </trkpt>
      <trkpt lat="44.37679" lon="5.92869">
        <ele>566</ele>
        <time>2019-03-16T15:08:16Z</time>
      </trkpt>
      <trkpt lat="44.37673" lon="5.92865">
        <ele>566</ele>
        <time>2019-03-16T15:08:17Z</time>
      </trkpt>
      <trkpt lat="44.37668" lon="5.92862">
        <ele>566</ele>
        <time>2019-03-16T15:08:18Z</time>
      </trkpt>
      <trkpt lat="44.37662" lon="5.92858">
        <ele>566</ele>
        <time>2019-03-16T15:08:19Z</time>
      </trkpt>
      <trkpt lat="44.37657" lon="5.92854">
        <ele>566</ele>
        <time>2019-03-16T15:08:20Z</time>
      </trkpt>
      <trkpt lat="44.37651" lon="5.92851">
        <ele>566</ele>
        <time>2019-03-16T15:08:21Z</time>
      </trkpt>
      <trkpt lat="44.37646" lon="5.92847">
        <ele>566</ele>
        <time>2019-03-16T15:08:22Z</time>
      </trkpt>
      <trkpt lat="44.3764" lon="5.92844">
        <ele>566</ele>
        <time>2019-03-16T15:08:23Z</time>
      </trkpt>
      <trkpt lat="44.37635" lon="5.9284">
        <ele>566</ele>
        <time>2019-03-16T15:08:24Z</time>
      </trkpt>
      <trkpt lat="44.3763" lon="5.92837">
        <ele>566</ele>
        <time>2019-03-16T15:08:25Z</time>
      </trkpt>
      <trkpt lat="44.37624" lon="5.92834">
        <ele>566</ele>
        <time>2019-03-16T15:08:26Z</time>
      </trkpt>
      <trkpt lat="44.37619" lon="5.9283">
        <ele>566</ele>
        <time>2019-03-16T15:08:27Z</time>
      </trkpt>
      <trkpt lat="44.37614" lon="5.92826">
        <ele>566</ele>
        <time>2019-03-16T15:08:28Z</time>
      </trkpt>
      <trkpt lat="44.37608" lon="5.92823">
        <ele>566</ele>
        <time>2019-03-16T15:08:29Z</time>
      </trkpt>
      <trkpt lat="44.37603" lon="5.92819">
        <ele>566</ele>
        <time>2019-03-16T15:08:30Z</time>
      </trkpt>
      <trkpt lat="44.37598" lon="5.92815">
        <ele>566</ele>
        <time>2019-03-16T15:08:31Z</time>
      </trkpt>
      <trkpt lat="44.37592" lon="5.92812">
        <ele>566</ele>
        <time>2019-03-16T15:08:32Z</time>
      </trkpt>
      <trkpt lat="44.37587" lon="5.92808">
        <ele>566</ele>
        <time>2019-03-16T15:08:33Z</time>
      </trkpt>
      <trkpt lat="44.37582" lon="5.92804">
        <ele>566</ele>
        <time>2019-03-16T15:08:34Z</time>
      </trkpt>
      <trkpt lat="44.37577" lon="5.92801">
        <ele>566</ele>
        <time>2019-03-16T15:08:35Z</time>
      </trkpt>
      <trkpt lat="44.37571" lon="5.92797">
        <ele>566</ele>
        <time>2019-03-16T15:08:36Z</time>
      </trkpt>
      <trkpt lat="44.37566" lon="5.92794">
        <ele>566</ele>
        <time>2019-03-16T15:08:37Z</time>
      </trkpt>
      <trkpt lat="44.37561" lon="5.9279">
        <ele>566</ele>
        <time>2019-03-16T15:08:38Z</time>
      </trkpt>
      <trkpt lat="44.37555" lon="5.92787">
        <ele>566</ele>
        <time>2019-03-16T15:08:39Z</time>
      </trkpt>
      <trkpt lat="44.3755" lon="5.92783">
        <ele>566</ele>
        <time>2019-03-16T15:08:40Z</time>
      </trkpt>
      <trkpt lat="44.37545" lon="5.92779">
        <ele>566</ele>
        <time>2019-03-16T15:08:41Z</time>
      </trkpt>
      <trkpt lat="44.3754" lon="5.92775">
        <ele>566</ele>
        <time>2019-03-16T15:08:42Z</time>
      </trkpt>
      <trkpt lat="44.37534" lon="5.92772">
        <ele>566</ele>
        <time>2019-03-16T15:08:43Z</time>
      </trkpt>
      <trkpt lat="44.37529" lon="5.92768">
        <ele>566</ele>
        <time>2019-03-16T15:08:44Z</time>
      </trkpt>
      <trkpt lat="44.37524" lon="5.92765">
        <ele>566</ele>
        <time>2019-03-16T15:08:45Z</time>
      </trkpt>
      <trkpt lat="44.37518" lon="5.92761">
        <ele>566</ele>
        <time>2019-03-16T15:08:46Z</time>
      </trkpt>
      <trkpt lat="44.37513" lon="5.92757">
        <ele>566</ele>
        <time>2019-03-16T15:08:47Z</time>
      </trkpt>
      <trkpt lat="44.37508" lon="5.92754">
        <ele>566</ele>
        <time>2019-03-16T15:08:48Z</time>
      </trkpt>
      <trkpt lat="44.37502" lon="5.92751">
        <ele>566</ele>
        <time>2019-03-16T15:08:49Z</time>
      </trkpt>
      <trkpt lat="44.37497" lon="5.92747">
        <ele>566</ele>
        <time>2019-03-16T15:08:50Z</time>
      </trkpt>
      <trkpt lat="44.37492" lon="5.92743">
        <ele>566</ele>
        <time>2019-03-16T15:08:51Z</time>
      </trkpt>
      <trkpt lat="44.37486" lon="5.9274">
        <ele>566</ele>
        <time>2019-03-16T15:08:52Z</time>
      </trkpt>
      <trkpt lat="44.37481" lon="5.92736">
        <ele>566</ele>
        <time>2019-03-16T15:08:53Z</time>
      </trkpt>
      <trkpt lat="44.37476" lon="5.92733">
        <ele>566</ele>
        <time>2019-03-16T15:08:54Z</time>
      </trkpt>
      <trkpt lat="44.37471" lon="5.9273">
        <ele>566</ele>
        <time>2019-03-16T15:08:55Z</time>
      </trkpt>
      <trkpt lat="44.37465" lon="5.92726">
        <ele>566</ele>
        <time>2019-03-16T15:08:56Z</time>
      </trkpt>
      <trkpt lat="44.3746" lon="5.92722">
        <ele>566</ele>
        <time>2019-03-16T15:08:57Z</time>
      </trkpt>
      <trkpt lat="44.37455" lon="5.92718">
        <ele>566</ele>
        <time>2019-03-16T15:08:58Z</time>
      </trkpt>
      <trkpt lat="44.37449" lon="5.92715">
        <ele>566</ele>
        <time>2019-03-16T15:08:59Z</time>
      </trkpt>
      <trkpt lat="44.37444" lon="5.92711">
        <ele>566</ele>
        <time>2019-03-16T15:09:00Z</time>
      </trkpt>
      <trkpt lat="44.37439" lon="5.92708">
        <ele>566</ele>
        <time>2019-03-16T15:09:01Z</time>
      </trkpt>
      <trkpt lat="44.37433" lon="5.92704">
        <ele>566</ele>
        <time>2019-03-16T15:09:02Z</time>
      </trkpt>
      <trkpt lat="44.37428" lon="5.927">
        <ele>566</ele>
        <time>2019-03-16T15:09:03Z</time>
      </trkpt>
      <trkpt lat="44.37423" lon="5.92697">
        <ele>566</ele>
        <time>2019-03-16T15:09:04Z</time>
      </trkpt>
      <trkpt lat="44.37418" lon="5.92694">
        <ele>566</ele>
        <time>2019-03-16T15:09:05Z</time>
      </trkpt>
      <trkpt lat="44.37413" lon="5.9269">
        <ele>566</ele>
        <time>2019-03-16T15:09:06Z</time>
      </trkpt>
      <trkpt lat="44.37407" lon="5.92686">
        <ele>566</ele>
        <time>2019-03-16T15:09:07Z</time>
      </trkpt>
      <trkpt lat="44.37402" lon="5.92683">
        <ele>566</ele>
        <time>2019-03-16T15:09:08Z</time>
      </trkpt>
      <trkpt lat="44.37397" lon="5.92679">
        <ele>566</ele>
        <time>2019-03-16T15:09:09Z</time>
      </trkpt>
      <trkpt lat="44.37392" lon="5.92675">
        <ele>566</ele>
        <time>2019-03-16T15:09:10Z</time>
      </trkpt>
      <trkpt lat="44.37387" lon="5.92671">
        <ele>566</ele>
        <time>2019-03-16T15:09:11Z</time>
      </trkpt>
      <trkpt lat="44.37382" lon="5.92668">
        <ele>566</ele>
        <time>2019-03-16T15:09:12Z</time>
      </trkpt>
      <trkpt lat="44.37377" lon="5.92664">
        <ele>566</ele>
        <time>2019-03-16T15:09:13Z</time>
      </trkpt>
      <trkpt lat="44.37373" lon="5.92661">
        <ele>566</ele>
        <time>2019-03-16T15:09:14Z</time>
      </trkpt>
      <trkpt lat="44.37367" lon="5.92657">
        <ele>566</ele>
        <time>2019-03-16T15:09:15Z</time>
      </trkpt>
      <trkpt lat="44.37362" lon="5.92653">
        <ele>566</ele>
        <time>2019-03-16T15:09:16Z</time>
      </trkpt>
      <trkpt lat="44.37357" lon="5.9265">
        <ele>566</ele>
        <time>2019-03-16T15:09:17Z</time>
      </trkpt>
      <trkpt lat="44.37352" lon="5.92646">
        <ele>566</ele>
        <time>2019-03-16T15:09:18Z</time>
      </trkpt>
      <trkpt lat="44.37347" lon="5.92641">
        <ele>566</ele>
        <time>2019-03-16T15:09:19Z</time>
      </trkpt>
      <trkpt lat="44.37341" lon="5.92637">
        <ele>566</ele>
        <time>2019-03-16T15:09:20Z</time>
      </trkpt>
      <trkpt lat="44.37336" lon="5.92633">
        <ele>566</ele>
        <time>2019-03-16T15:09:21Z</time>
      </trkpt>
      <trkpt lat="44.3733" lon="5.92628">
        <ele>566</ele>
        <time>2019-03-16T15:09:22Z</time>
      </trkpt>
      <trkpt lat="44.37324" lon="5.92624">
        <ele>566</ele>
        <time>2019-03-16T15:09:23Z</time>
      </trkpt>
      <trkpt lat="44.37318" lon="5.92619">
        <ele>566</ele>
        <time>2019-03-16T15:09:24Z</time>
      </trkpt>
      <trkpt lat="44.37312" lon="5.92614">
        <ele>566</ele>
        <time>2019-03-16T15:09:25Z</time>
      </trkpt>
      <trkpt lat="44.37307" lon="5.92609">
        <ele>566</ele>
        <time>2019-03-16T15:09:26Z</time>
      </trkpt>
      <trkpt lat="44.37301" lon="5.92604">
        <ele>566</ele>
        <time>2019-03-16T15:09:27Z</time>
      </trkpt>
      <trkpt lat="44.37295" lon="5.92599">
        <ele>566</ele>
        <time>2019-03-16T15:09:28Z</time>
      </trkpt>
      <trkpt lat="44.37289" lon="5.92593">
        <ele>566</ele>
        <time>2019-03-16T15:09:29Z</time>
      </trkpt>
      <trkpt lat="44.37283" lon="5.92588">
        <ele>566</ele>
        <time>2019-03-16T15:09:30Z</time>
      </trkpt>
      <trkpt lat="44.37278" lon="5.92583">
        <ele>566</ele>
        <time>2019-03-16T15:09:31Z</time>
      </trkpt>
      <trkpt lat="44.37272" lon="5.92577">
        <ele>566</ele>
        <time>2019-03-16T15:09:32Z</time>
      </trkpt>
      <trkpt lat="44.37266" lon="5.92572">
        <ele>566</ele>
        <time>2019-03-16T15:09:33Z</time>
      </trkpt>
      <trkpt lat="44.3726" lon="5.92566">
        <ele>566</ele>
        <time>2019-03-16T15:09:34Z</time>
      </trkpt>
      <trkpt lat="44.37254" lon="5.9256">
        <ele>566</ele>
        <time>2019-03-16T15:09:35Z</time>
      </trkpt>
      <trkpt lat="44.37249" lon="5.92555">
        <ele>566</ele>
        <time>2019-03-16T15:09:36Z</time>
      </trkpt>
      <trkpt lat="44.37243" lon="5.9255">
        <ele>566</ele>
        <time>2019-03-16T15:09:37Z</time>
      </trkpt>
      <trkpt lat="44.37237" lon="5.92544">
        <ele>566</ele>
        <time>2019-03-16T15:09:38Z</time>
      </trkpt>
      <trkpt lat="44.37231" lon="5.92539">
        <ele>566</ele>
        <time>2019-03-16T15:09:39Z</time>
      </trkpt>
      <trkpt lat="44.37225" lon="5.92533">
        <ele>566</ele>
        <time>2019-03-16T15:09:40Z</time>
      </trkpt>
      <trkpt lat="44.37219" lon="5.92528">
        <ele>566</ele>
        <time>2019-03-16T15:09:41Z</time>
      </trkpt>
      <trkpt lat="44.37213" lon="5.92523">
        <ele>566</ele>
        <time>2019-03-16T15:09:42Z</time>
      </trkpt>
      <trkpt lat="44.37207" lon="5.92518">
        <ele>566</ele>
        <time>2019-03-16T15:09:43Z</time>
      </trkpt>
      <trkpt lat="44.37202" lon="5.92512">
        <ele>566</ele>
        <time>2019-03-16T15:09:44Z</time>
      </trkpt>
      <trkpt lat="44.37196" lon="5.92507">
        <ele>566</ele>
        <time>2019-03-16T15:09:45Z</time>
      </trkpt>
      <trkpt lat="44.3719" lon="5.92501">
        <ele>566</ele>
        <time>2019-03-16T15:09:46Z</time>
      </trkpt>
      <trkpt lat="44.37185" lon="5.92496">
        <ele>566</ele>
        <time>2019-03-16T15:09:47Z</time>
      </trkpt>
      <trkpt lat="44.37179" lon="5.92491">
        <ele>566</ele>
        <time>2019-03-16T15:09:48Z</time>
      </trkpt>
      <trkpt lat="44.37173" lon="5.92486">
        <ele>566</ele>
        <time>2019-03-16T15:09:49Z</time>
      </trkpt>
      <trkpt lat="44.37167" lon="5.9248">
        <ele>566</ele>
        <time>2019-03-16T15:09:50Z</time>
      </trkpt>
      <trkpt lat="44.37161" lon="5.92475">
        <ele>566</ele>
        <time>2019-03-16T15:09:51Z</time>
      </trkpt>
      <trkpt lat="44.37155" lon="5.9247">
        <ele>566</ele>
        <time>2019-03-16T15:09:52Z</time>
      </trkpt>
      <trkpt lat="44.37149" lon="5.92465">
        <ele>566</ele>
        <time>2019-03-16T15:09:53Z</time>
      </trkpt>
      <trkpt lat="44.37144" lon="5.9246">
        <ele>566</ele>
        <time>2019-03-16T15:09:54Z</time>
      </trkpt>
      <trkpt lat="44.37138" lon="5.92455">
        <ele>566</ele>
        <time>2019-03-16T15:09:55Z</time>
      </trkpt>
      <trkpt lat="44.37133" lon="5.92451">
        <ele>566</ele>
        <time>2019-03-16T15:09:56Z</time>
      </trkpt>
      <trkpt lat="44.37127" lon="5.92446">
        <ele>566</ele>
        <time>2019-03-16T15:09:57Z</time>
      </trkpt>
      <trkpt lat="44.37122" lon="5.92441">
        <ele>566</ele>
        <time>2019-03-16T15:09:58Z</time>
      </trkpt>
      <trkpt lat="44.37116" lon="5.92436">
        <ele>566</ele>
        <time>2019-03-16T15:09:59Z</time>
      </trkpt>
      <trkpt lat="44.3711" lon="5.92431">
        <ele>566</ele>
        <time>2019-03-16T15:10:00Z</time>
      </trkpt>
      <trkpt lat="44.37105" lon="5.92426">
        <ele>566</ele>
        <time>2019-03-16T15:10:01Z</time>
      </trkpt>
      <trkpt lat="44.37099" lon="5.92421">
        <ele>566</ele>
        <time>2019-03-16T15:10:02Z</time>
      </trkpt>
      <trkpt lat="44.37094" lon="5.92416">
        <ele>566</ele>
        <time>2019-03-16T15:10:03Z</time>
      </trkpt>
      <trkpt lat="44.37088" lon="5.92412">
        <ele>566</ele>
        <time>2019-03-16T15:10:04Z</time>
      </trkpt>
      <trkpt lat="44.37083" lon="5.92407">
        <ele>566</ele>
        <time>2019-03-16T15:10:05Z</time>
      </trkpt>
      <trkpt lat="44.37078" lon="5.92402">
        <ele>566</ele>
        <time>2019-03-16T15:10:06Z</time>
      </trkpt>
      <trkpt lat="44.37072" lon="5.92398">
        <ele>566</ele>
        <time>2019-03-16T15:10:07Z</time>
      </trkpt>
      <trkpt lat="44.37067" lon="5.92393">
        <ele>566</ele>
        <time>2019-03-16T15:10:08Z</time>
      </trkpt>
      <trkpt lat="44.37062" lon="5.92389">
        <ele>566</ele>
        <time>2019-03-16T15:10:09Z</time>
      </trkpt>
      <trkpt lat="44.37057" lon="5.92385">
        <ele>566</ele>
        <time>2019-03-16T15:10:10Z</time>
      </trkpt>
      <trkpt lat="44.37052" lon="5.92381">
        <ele>566</ele>
        <time>2019-03-16T15:10:11Z</time>
      </trkpt>
      <trkpt lat="44.37047" lon="5.92377">
        <ele>566</ele>
        <time>2019-03-16T15:10:12Z</time>
      </trkpt>
      <trkpt lat="44.37042" lon="5.92373">
        <ele>566</ele>
        <time>2019-03-16T15:10:13Z</time>
      </trkpt>
      <trkpt lat="44.37038" lon="5.92369">
        <ele>566</ele>
        <time>2019-03-16T15:10:14Z</time>
      </trkpt>
      <trkpt lat="44.37033" lon="5.92365">
        <ele>566</ele>
        <time>2019-03-16T15:10:15Z</time>
      </trkpt>
      <trkpt lat="44.37028" lon="5.92361">
        <ele>566</ele>
        <time>2019-03-16T15:10:16Z</time>
      </trkpt>
      <trkpt lat="44.37024" lon="5.92358">
        <ele>566</ele>
        <time>2019-03-16T15:10:17Z</time>
      </trkpt>
      <trkpt lat="44.37019" lon="5.92354">
        <ele>566</ele>
        <time>2019-03-16T15:10:18Z</time>
      </trkpt>
      <trkpt lat="44.37014" lon="5.9235">
        <ele>566</ele>
        <time>2019-03-16T15:10:19Z</time>
      </trkpt>
      <trkpt lat="44.3701" lon="5.92346">
        <ele>566</ele>
        <time>2019-03-16T15:10:20Z</time>
      </trkpt>
      <trkpt lat="44.37006" lon="5.92342">
        <ele>566</ele>
        <time>2019-03-16T15:10:21Z</time>
      </trkpt>
      <trkpt lat="44.37001" lon="5.92338">
        <ele>566</ele>
        <time>2019-03-16T15:10:22Z</time>
      </trkpt>
      <trkpt lat="44.36996" lon="5.92334">
        <ele>566</ele>
        <time>2019-03-16T15:10:23Z</time>
      </trkpt>
      <trkpt lat="44.36992" lon="5.92331">
        <ele>566</ele>
        <time>2019-03-16T15:10:24Z</time>
      </trkpt>
      <trkpt lat="44.36987" lon="5.92326">
        <ele>566</ele>
        <time>2019-03-16T15:10:25Z</time>
      </trkpt>
      <trkpt lat="44.36982" lon="5.92321">
        <ele>566</ele>
        <time>2019-03-16T15:10:26Z</time>
      </trkpt>
      <trkpt lat="44.36977" lon="5.92317">
        <ele>566</ele>
        <time>2019-03-16T15:10:27Z</time>
      </trkpt>
      <trkpt lat="44.36972" lon="5.92313">
        <ele>566</ele>
        <time>2019-03-16T15:10:28Z</time>
      </trkpt>
      <trkpt lat="44.36967" lon="5.9231">
        <ele>566</ele>
        <time>2019-03-16T15:10:29Z</time>
      </trkpt>
      <trkpt lat="44.36963" lon="5.92306">
        <ele>566</ele>
        <time>2019-03-16T15:10:30Z</time>
      </trkpt>
      <trkpt lat="44.36958" lon="5.92303">
        <ele>566</ele>
        <time>2019-03-16T15:10:31Z</time>
      </trkpt>
      <trkpt lat="44.36953" lon="5.92299">
        <ele>566</ele>
        <time>2019-03-16T15:10:32Z</time>
      </trkpt>
      <trkpt lat="44.36948" lon="5.92296">
        <ele>566</ele>
        <time>2019-03-16T15:10:33Z</time>
      </trkpt>
      <trkpt lat="44.36944" lon="5.92292">
        <ele>566</ele>
        <time>2019-03-16T15:10:34Z</time>
      </trkpt>
      <trkpt lat="44.36939" lon="5.92288">
        <ele>566</ele>
        <time>2019-03-16T15:10:35Z</time>
      </trkpt>
      <trkpt lat="44.36934" lon="5.92285">
        <ele>566</ele>
        <time>2019-03-16T15:10:36Z</time>
      </trkpt>
      <trkpt lat="44.36929" lon="5.92281">
        <ele>566</ele>
        <time>2019-03-16T15:10:37Z</time>
      </trkpt>
      <trkpt lat="44.36925" lon="5.92277">
        <ele>566</ele>
        <time>2019-03-16T15:10:38Z</time>
      </trkpt>
      <trkpt lat="44.3692" lon="5.92274">
        <ele>566</ele>
        <time>2019-03-16T15:10:39Z</time>
      </trkpt>
      <trkpt lat="44.36915" lon="5.9227">
        <ele>566</ele>
        <time>2019-03-16T15:10:40Z</time>
      </trkpt>
      <trkpt lat="44.3691" lon="5.92267">
        <ele>566</ele>
        <time>2019-03-16T15:10:41Z</time>
      </trkpt>
      <trkpt lat="44.36905" lon="5.92264">
        <ele>567</ele>
        <time>2019-03-16T15:10:42Z</time>
      </trkpt>
      <trkpt lat="44.36901" lon="5.92261">
        <ele>567</ele>
        <time>2019-03-16T15:10:43Z</time>
      </trkpt>
      <trkpt lat="44.36896" lon="5.92258">
        <ele>567</ele>
        <time>2019-03-16T15:10:44Z</time>
      </trkpt>
      <trkpt lat="44.36892" lon="5.92255">
        <ele>568</ele>
        <time>2019-03-16T15:10:45Z</time>
      </trkpt>
      <trkpt lat="44.36887" lon="5.92251">
        <ele>568</ele>
        <time>2019-03-16T15:10:46Z</time>
      </trkpt>
      <trkpt lat="44.36882" lon="5.92248">
        <ele>568</ele>
        <time>2019-03-16T15:10:47Z</time>
      </trkpt>
      <trkpt lat="44.36877" lon="5.92245">
        <ele>568</ele>
        <time>2019-03-16T15:10:48Z</time>
      </trkpt>
      <trkpt lat="44.36872" lon="5.92242">
        <ele>569</ele>
        <time>2019-03-16T15:10:49Z</time>
      </trkpt>
      <trkpt lat="44.36867" lon="5.9224">
        <ele>569</ele>
        <time>2019-03-16T15:10:50Z</time>
      </trkpt>
      <trkpt lat="44.36863" lon="5.92237">
        <ele>569</ele>
        <time>2019-03-16T15:10:51Z</time>
      </trkpt>
      <trkpt lat="44.36858" lon="5.92234">
        <ele>569</ele>
        <time>2019-03-16T15:10:52Z</time>
      </trkpt>
      <trkpt lat="44.36854" lon="5.92232">
        <ele>569</ele>
        <time>2019-03-16T15:10:53Z</time>
      </trkpt>
      <trkpt lat="44.3685" lon="5.92229">
        <ele>569</ele>
        <time>2019-03-16T15:10:54Z</time>
      </trkpt>
      <trkpt lat="44.36847" lon="5.92227">
        <ele>569</ele>
        <time>2019-03-16T15:10:55Z</time>
      </trkpt>
      <trkpt lat="44.36843" lon="5.92224">
        <ele>570</ele>
        <time>2019-03-16T15:10:56Z</time>
      </trkpt>
      <trkpt lat="44.36839" lon="5.92222">
        <ele>570</ele>
        <time>2019-03-16T15:10:57Z</time>
      </trkpt>
      <trkpt lat="44.36836" lon="5.92221">
        <ele>570</ele>
        <time>2019-03-16T15:10:58Z</time>
      </trkpt>
      <trkpt lat="44.36833" lon="5.92219">
        <ele>570</ele>
        <time>2019-03-16T15:10:59Z</time>
      </trkpt>
      <trkpt lat="44.3683" lon="5.92218">
        <ele>570</ele>
        <time>2019-03-16T15:11:00Z</time>
      </trkpt>
      <trkpt lat="44.36827" lon="5.92217">
        <ele>571</ele>
        <time>2019-03-16T15:11:01Z</time>
      </trkpt>
      <trkpt lat="44.36824" lon="5.92216">
        <ele>571</ele>
        <time>2019-03-16T15:11:02Z</time>
      </trkpt>
      <trkpt lat="44.36821" lon="5.92214">
        <ele>571</ele>
        <time>2019-03-16T15:11:03Z</time>
      </trkpt>
      <trkpt lat="44.36818" lon="5.92213">
        <ele>571</ele>
        <time>2019-03-16T15:11:04Z</time>
      </trkpt>
      <trkpt lat="44.36815" lon="5.92211">
        <ele>571</ele>
        <time>2019-03-16T15:11:05Z</time>
      </trkpt>
      <trkpt lat="44.36811" lon="5.92209">
        <ele>571</ele>
        <time>2019-03-16T15:11:06Z</time>
      </trkpt>
      <trkpt lat="44.36806" lon="5.92207">
        <ele>571</ele>
        <time>2019-03-16T15:11:07Z</time>
      </trkpt>
      <trkpt lat="44.36801" lon="5.92204">
        <ele>571</ele>
        <time>2019-03-16T15:11:08Z</time>
      </trkpt>
      <trkpt lat="44.36795" lon="5.92202">
        <ele>571</ele>
        <time>2019-03-16T15:11:09Z</time>
      </trkpt>
      <trkpt lat="44.36789" lon="5.92199">
        <ele>571</ele>
        <time>2019-03-16T15:11:10Z</time>
      </trkpt>
      <trkpt lat="44.36783" lon="5.92196">
        <ele>571</ele>
        <time>2019-03-16T15:11:11Z</time>
      </trkpt>
      <trkpt lat="44.36776" lon="5.92192">
        <ele>571</ele>
        <time>2019-03-16T15:11:12Z</time>
      </trkpt>
      <trkpt lat="44.36769" lon="5.92189">
        <ele>571</ele>
        <time>2019-03-16T15:11:13Z</time>
      </trkpt>
      <trkpt lat="44.36761" lon="5.92186">
        <ele>571</ele>
        <time>2019-03-16T15:11:14Z</time>
      </trkpt>
      <trkpt lat="44.36754" lon="5.92183">
        <ele>571</ele>
        <time>2019-03-16T15:11:15Z</time>
      </trkpt>
      <trkpt lat="44.36746" lon="5.9218">
        <ele>571</ele>
        <time>2019-03-16T15:11:16Z</time>
      </trkpt>
      <trkpt lat="44.36739" lon="5.92178">
        <ele>571</ele>
        <time>2019-03-16T15:11:17Z</time>
      </trkpt>
      <trkpt lat="44.36731" lon="5.92175">
        <ele>571</ele>
        <time>2019-03-16T15:11:18Z</time>
      </trkpt>
      <trkpt lat="44.36724" lon="5.92173">
        <ele>571</ele>
        <time>2019-03-16T15:11:19Z</time>
      </trkpt>
      <trkpt lat="44.36717" lon="5.92171">
        <ele>571</ele>
        <time>2019-03-16T15:11:20Z</time>
      </trkpt>
      <trkpt lat="44.3671" lon="5.92168">
        <ele>571</ele>
        <time>2019-03-16T15:11:21Z</time>
      </trkpt>
      <trkpt lat="44.36703" lon="5.92166">
        <ele>571</ele>
        <time>2019-03-16T15:11:22Z</time>
      </trkpt>
      <trkpt lat="44.36696" lon="5.92164">
        <ele>571</ele>
        <time>2019-03-16T15:11:23Z</time>
      </trkpt>
      <trkpt lat="44.36689" lon="5.92162">
        <ele>571</ele>
        <time>2019-03-16T15:11:24Z</time>
      </trkpt>
      <trkpt lat="44.36683" lon="5.9216">
        <ele>571</ele>
        <time>2019-03-16T15:11:25Z</time>
      </trkpt>
      <trkpt lat="44.36676" lon="5.92158">
        <ele>571</ele>
        <time>2019-03-16T15:11:26Z</time>
      </trkpt>
      <trkpt lat="44.36669" lon="5.92156">
        <ele>571</ele>
        <time>2019-03-16T15:11:27Z</time>
      </trkpt>
      <trkpt lat="44.36663" lon="5.92154">
        <ele>571</ele>
        <time>2019-03-16T15:11:28Z</time>
      </trkpt>
      <trkpt lat="44.36657" lon="5.92152">
        <ele>571</ele>
        <time>2019-03-16T15:11:29Z</time>
      </trkpt>
      <trkpt lat="44.3665" lon="5.9215">
        <ele>571</ele>
        <time>2019-03-16T15:11:30Z</time>
      </trkpt>
      <trkpt lat="44.36643" lon="5.92148">
        <ele>571</ele>
        <time>2019-03-16T15:11:31Z</time>
      </trkpt>
      <trkpt lat="44.36637" lon="5.92146">
        <ele>571</ele>
        <time>2019-03-16T15:11:32Z</time>
      </trkpt>
      <trkpt lat="44.3663" lon="5.92143">
        <ele>571</ele>
        <time>2019-03-16T15:11:33Z</time>
      </trkpt>
      <trkpt lat="44.36623" lon="5.92141">
        <ele>571</ele>
        <time>2019-03-16T15:11:34Z</time>
      </trkpt>
      <trkpt lat="44.36617" lon="5.92138">
        <ele>571</ele>
        <time>2019-03-16T15:11:35Z</time>
      </trkpt>
      <trkpt lat="44.3661" lon="5.92134">
        <ele>571</ele>
        <time>2019-03-16T15:11:36Z</time>
      </trkpt>
      <trkpt lat="44.36604" lon="5.92131">
        <ele>571</ele>
        <time>2019-03-16T15:11:37Z</time>
      </trkpt>
      <trkpt lat="44.36597" lon="5.92128">
        <ele>571</ele>
        <time>2019-03-16T15:11:38Z</time>
      </trkpt>
      <trkpt lat="44.36591" lon="5.92124">
        <ele>571</ele>
        <time>2019-03-16T15:11:39Z</time>
      </trkpt>
      <trkpt lat="44.36584" lon="5.92121">
        <ele>571</ele>
        <time>2019-03-16T15:11:40Z</time>
      </trkpt>
      <trkpt lat="44.36578" lon="5.92118">
        <ele>571</ele>
        <time>2019-03-16T15:11:41Z</time>
      </trkpt>
      <trkpt lat="44.36572" lon="5.92114">
        <ele>571</ele>
        <time>2019-03-16T15:11:42Z</time>
      </trkpt>
      <trkpt lat="44.36566" lon="5.9211">
        <ele>571</ele>
        <time>2019-03-16T15:11:43Z</time>
      </trkpt>
      <trkpt lat="44.3656" lon="5.92105">
        <ele>571</ele>
        <time>2019-03-16T15:11:44Z</time>
      </trkpt>
      <trkpt lat="44.36554" lon="5.92101">
        <ele>571</ele>
        <time>2019-03-16T15:11:45Z</time>
      </trkpt>
      <trkpt lat="44.36547" lon="5.92097">
        <ele>571</ele>
        <time>2019-03-16T15:11:46Z</time>
      </trkpt>
      <trkpt lat="44.36541" lon="5.92093">
        <ele>571</ele>
        <time>2019-03-16T15:11:47Z</time>
      </trkpt>
      <trkpt lat="44.36535" lon="5.92089">
        <ele>571</ele>
        <time>2019-03-16T15:11:48Z</time>
      </trkpt>
      <trkpt lat="44.3653" lon="5.92085">
        <ele>571</ele>
        <time>2019-03-16T15:11:49Z</time>
      </trkpt>
      <trkpt lat="44.36524" lon="5.9208">
        <ele>571</ele>
        <time>2019-03-16T15:11:50Z</time>
      </trkpt>
      <trkpt lat="44.36518" lon="5.92076">
        <ele>571</ele>
        <time>2019-03-16T15:11:51Z</time>
      </trkpt>
      <trkpt lat="44.36512" lon="5.92072">
        <ele>571</ele>
        <time>2019-03-16T15:11:52Z</time>
      </trkpt>
      <trkpt lat="44.36507" lon="5.92068">
        <ele>571</ele>
        <time>2019-03-16T15:11:53Z</time>
      </trkpt>
      <trkpt lat="44.36501" lon="5.92065">
        <ele>571</ele>
        <time>2019-03-16T15:11:54Z</time>
      </trkpt>
      <trkpt lat="44.36495" lon="5.92061">
        <ele>571</ele>
        <time>2019-03-16T15:11:55Z</time>
      </trkpt>
      <trkpt lat="44.36489" lon="5.92058">
        <ele>571</ele>
        <time>2019-03-16T15:11:56Z</time>
      </trkpt>
      <trkpt lat="44.36483" lon="5.92054">
        <ele>571</ele>
        <time>2019-03-16T15:11:57Z</time>
      </trkpt>
      <trkpt lat="44.36478" lon="5.9205">
        <ele>571</ele>
        <time>2019-03-16T15:11:58Z</time>
      </trkpt>
      <trkpt lat="44.36472" lon="5.92046">
        <ele>571</ele>
        <time>2019-03-16T15:11:59Z</time>
      </trkpt>
      <trkpt lat="44.36466" lon="5.92042">
        <ele>571</ele>
        <time>2019-03-16T15:12:00Z</time>
      </trkpt>
      <trkpt lat="44.3646" lon="5.92038">
        <ele>571</ele>
        <time>2019-03-16T15:12:01Z</time>
      </trkpt>
      <trkpt lat="44.36454" lon="5.92034">
        <ele>571</ele>
        <time>2019-03-16T15:12:02Z</time>
      </trkpt>
      <trkpt lat="44.36448" lon="5.9203">
        <ele>571</ele>
        <time>2019-03-16T15:12:03Z</time>
      </trkpt>
      <trkpt lat="44.36443" lon="5.92026">
        <ele>571</ele>
        <time>2019-03-16T15:12:04Z</time>
      </trkpt>
      <trkpt lat="44.36437" lon="5.92022">
        <ele>571</ele>
        <time>2019-03-16T15:12:05Z</time>
      </trkpt>
      <trkpt lat="44.36431" lon="5.92017">
        <ele>571</ele>
        <time>2019-03-16T15:12:06Z</time>
      </trkpt>
      <trkpt lat="44.36425" lon="5.92013">
        <ele>571</ele>
        <time>2019-03-16T15:12:07Z</time>
      </trkpt>
      <trkpt lat="44.3642" lon="5.92009">
        <ele>571</ele>
        <time>2019-03-16T15:12:08Z</time>
      </trkpt>
      <trkpt lat="44.36414" lon="5.92005">
        <ele>571</ele>
        <time>2019-03-16T15:12:09Z</time>
      </trkpt>
      <trkpt lat="44.36408" lon="5.92001">
        <ele>571</ele>
        <time>2019-03-16T15:12:10Z</time>
      </trkpt>
      <trkpt lat="44.36403" lon="5.91998">
        <ele>571</ele>
        <time>2019-03-16T15:12:11Z</time>
      </trkpt>
      <trkpt lat="44.36397" lon="5.91994">
        <ele>571</ele>
        <time>2019-03-16T15:12:12Z</time>
      </trkpt>
      <trkpt lat="44.36391" lon="5.9199">
        <ele>571</ele>
        <time>2019-03-16T15:12:13Z</time>
      </trkpt>
      <trkpt lat="44.36386" lon="5.91986">
        <ele>571</ele>
        <time>2019-03-16T15:12:14Z</time>
      </trkpt>
      <trkpt lat="44.3638" lon="5.91982">
        <ele>571</ele>
        <time>2019-03-16T15:12:15Z</time>
      </trkpt>
      <trkpt lat="44.36375" lon="5.91978">
        <ele>571</ele>
        <time>2019-03-16T15:12:16Z</time>
      </trkpt>
      <trkpt lat="44.36369" lon="5.91974">
        <ele>571</ele>
        <time>2019-03-16T15:12:17Z</time>
      </trkpt>
      <trkpt lat="44.36363" lon="5.9197">
        <ele>571</ele>
        <time>2019-03-16T15:12:18Z</time>
      </trkpt>
      <trkpt lat="44.36358" lon="5.91966">
        <ele>571</ele>
        <time>2019-03-16T15:12:19Z</time>
      </trkpt>
      <trkpt lat="44.36352" lon="5.91962">
        <ele>571</ele>
        <time>2019-03-16T15:12:20Z</time>
      </trkpt>
      <trkpt lat="44.36346" lon="5.91959">
        <ele>571</ele>
        <time>2019-03-16T15:12:21Z</time>
      </trkpt>
      <trkpt lat="44.3634" lon="5.91955">
        <ele>571</ele>
        <time>2019-03-16T15:12:22Z</time>
      </trkpt>
      <trkpt lat="44.36335" lon="5.91951">
        <ele>571</ele>
        <time>2019-03-16T15:12:23Z</time>
      </trkpt>
      <trkpt lat="44.36329" lon="5.91947">
        <ele>571</ele>
        <time>2019-03-16T15:12:24Z</time>
      </trkpt>
      <trkpt lat="44.36323" lon="5.91943">
        <ele>571</ele>
        <time>2019-03-16T15:12:25Z</time>
      </trkpt>
      <trkpt lat="44.36317" lon="5.91939">
        <ele>571</ele>
        <time>2019-03-16T15:12:26Z</time>
      </trkpt>
      <trkpt lat="44.36311" lon="5.91935">
        <ele>571</ele>
        <time>2019-03-16T15:12:27Z</time>
      </trkpt>
      <trkpt lat="44.36305" lon="5.91931">
        <ele>571</ele>
        <time>2019-03-16T15:12:28Z</time>
      </trkpt>
      <trkpt lat="44.36299" lon="5.91927">
        <ele>571</ele>
        <time>2019-03-16T15:12:29Z</time>
      </trkpt>
      <trkpt lat="44.36294" lon="5.91923">
        <ele>571</ele>
        <time>2019-03-16T15:12:30Z</time>
      </trkpt>
      <trkpt lat="44.36288" lon="5.91919">
        <ele>571</ele>
        <time>2019-03-16T15:12:31Z</time>
      </trkpt>
      <trkpt lat="44.36282" lon="5.91915">
        <ele>571</ele>
        <time>2019-03-16T15:12:32Z</time>
      </trkpt>
      <trkpt lat="44.36277" lon="5.91911">
        <ele>571</ele>
        <time>2019-03-16T15:12:33Z</time>
      </trkpt>
      <trkpt lat="44.36271" lon="5.91907">
        <ele>571</ele>
        <time>2019-03-16T15:12:34Z</time>
      </trkpt>
      <trkpt lat="44.36265" lon="5.91903">
        <ele>571</ele>
        <time>2019-03-16T15:12:35Z</time>
      </trkpt>
      <trkpt lat="44.3626" lon="5.919">
        <ele>571</ele>
        <time>2019-03-16T15:12:36Z</time>
      </trkpt>
      <trkpt lat="44.36255" lon="5.91896">
        <ele>571</ele>
        <time>2019-03-16T15:12:37Z</time>
      </trkpt>
      <trkpt lat="44.3625" lon="5.91892">
        <ele>571</ele>
        <time>2019-03-16T15:12:38Z</time>
      </trkpt>
      <trkpt lat="44.36244" lon="5.91888">
        <ele>571</ele>
        <time>2019-03-16T15:12:39Z</time>
      </trkpt>
      <trkpt lat="44.36239" lon="5.91885">
        <ele>571</ele>
        <time>2019-03-16T15:12:40Z</time>
      </trkpt>
      <trkpt lat="44.36234" lon="5.91881">
        <ele>571</ele>
        <time>2019-03-16T15:12:41Z</time>
      </trkpt>
      <trkpt lat="44.36229" lon="5.91878">
        <ele>571</ele>
        <time>2019-03-16T15:12:42Z</time>
      </trkpt>
      <trkpt lat="44.36223" lon="5.91875">
        <ele>571</ele>
        <time>2019-03-16T15:12:43Z</time>
      </trkpt>
      <trkpt lat="44.36218" lon="5.91871">
        <ele>571</ele>
        <time>2019-03-16T15:12:44Z</time>
      </trkpt>
      <trkpt lat="44.36213" lon="5.91867">
        <ele>571</ele>
        <time>2019-03-16T15:12:45Z</time>
      </trkpt>
      <trkpt lat="44.36207" lon="5.91863">
        <ele>571</ele>
        <time>2019-03-16T15:12:46Z</time>
      </trkpt>
      <trkpt lat="44.36202" lon="5.9186">
        <ele>571</ele>
        <time>2019-03-16T15:12:47Z</time>
      </trkpt>
      <trkpt lat="44.36197" lon="5.91856">
        <ele>571</ele>
        <time>2019-03-16T15:12:48Z</time>
      </trkpt>
      <trkpt lat="44.36192" lon="5.91854">
        <ele>571</ele>
        <time>2019-03-16T15:12:49Z</time>
      </trkpt>
      <trkpt lat="44.36186" lon="5.9185">
        <ele>571</ele>
        <time>2019-03-16T15:12:50Z</time>
      </trkpt>
      <trkpt lat="44.36181" lon="5.91846">
        <ele>571</ele>
        <time>2019-03-16T15:12:51Z</time>
      </trkpt>
      <trkpt lat="44.36176" lon="5.91842">
        <ele>571</ele>
        <time>2019-03-16T15:12:52Z</time>
      </trkpt>
      <trkpt lat="44.3617" lon="5.91838">
        <ele>571</ele>
        <time>2019-03-16T15:12:53Z</time>
      </trkpt>
      <trkpt lat="44.36164" lon="5.91834">
        <ele>571</ele>
        <time>2019-03-16T15:12:54Z</time>
      </trkpt>
      <trkpt lat="44.36159" lon="5.9183">
        <ele>571</ele>
        <time>2019-03-16T15:12:55Z</time>
      </trkpt>
      <trkpt lat="44.36153" lon="5.91826">
        <ele>571</ele>
        <time>2019-03-16T15:12:56Z</time>
      </trkpt>
      <trkpt lat="44.36148" lon="5.91822">
        <ele>571</ele>
        <time>2019-03-16T15:12:57Z</time>
      </trkpt>
      <trkpt lat="44.36142" lon="5.91818">
        <ele>571</ele>
        <time>2019-03-16T15:12:58Z</time>
      </trkpt>
      <trkpt lat="44.36136" lon="5.91814">
        <ele>571</ele>
        <time>2019-03-16T15:12:59Z</time>
      </trkpt>
      <trkpt lat="44.3613" lon="5.91811">
        <ele>571</ele>
        <time>2019-03-16T15:13:00Z</time>
      </trkpt>
      <trkpt lat="44.36125" lon="5.91807">
        <ele>571</ele>
        <time>2019-03-16T15:13:01Z</time>
      </trkpt>
      <trkpt lat="44.36119" lon="5.91803">
        <ele>571</ele>
        <time>2019-03-16T15:13:02Z</time>
      </trkpt>
      <trkpt lat="44.36113" lon="5.91799">
        <ele>571</ele>
        <time>2019-03-16T15:13:03Z</time>
      </trkpt>
      <trkpt lat="44.36108" lon="5.91795">
        <ele>571</ele>
        <time>2019-03-16T15:13:04Z</time>
      </trkpt>
      <trkpt lat="44.36102" lon="5.91791">
        <ele>571</ele>
        <time>2019-03-16T15:13:05Z</time>
      </trkpt>
      <trkpt lat="44.36096" lon="5.91787">
        <ele>571</ele>
        <time>2019-03-16T15:13:06Z</time>
      </trkpt>
      <trkpt lat="44.3609" lon="5.91783">
        <ele>571</ele>
        <time>2019-03-16T15:13:07Z</time>
      </trkpt>
      <trkpt lat="44.36084" lon="5.91778">
        <ele>571</ele>
        <time>2019-03-16T15:13:08Z</time>
      </trkpt>
      <trkpt lat="44.36079" lon="5.91774">
        <ele>571</ele>
        <time>2019-03-16T15:13:09Z</time>
      </trkpt>
      <trkpt lat="44.36073" lon="5.9177">
        <ele>571</ele>
        <time>2019-03-16T15:13:10Z</time>
      </trkpt>
      <trkpt lat="44.36067" lon="5.91766">
        <ele>571</ele>
        <time>2019-03-16T15:13:11Z</time>
      </trkpt>
      <trkpt lat="44.36061" lon="5.91762">
        <ele>571</ele>
        <time>2019-03-16T15:13:12Z</time>
      </trkpt>
      <trkpt lat="44.36055" lon="5.91757">
        <ele>571</ele>
        <time>2019-03-16T15:13:13Z</time>
      </trkpt>
      <trkpt lat="44.36049" lon="5.91753">
        <ele>571</ele>
        <time>2019-03-16T15:13:14Z</time>
      </trkpt>
      <trkpt lat="44.36043" lon="5.91749">
        <ele>571</ele>
        <time>2019-03-16T15:13:15Z</time>
      </trkpt>
      <trkpt lat="44.36037" lon="5.91745">
        <ele>571</ele>
        <time>2019-03-16T15:13:16Z</time>
      </trkpt>
      <trkpt lat="44.36031" lon="5.91741">
        <ele>571</ele>
        <time>2019-03-16T15:13:17Z</time>
      </trkpt>
      <trkpt lat="44.36026" lon="5.91737">
        <ele>571</ele>
        <time>2019-03-16T15:13:18Z</time>
      </trkpt>
      <trkpt lat="44.3602" lon="5.91733">
        <ele>571</ele>
        <time>2019-03-16T15:13:19Z</time>
      </trkpt>
      <trkpt lat="44.36013" lon="5.91729">
        <ele>571</ele>
        <time>2019-03-16T15:13:20Z</time>
      </trkpt>
      <trkpt lat="44.36008" lon="5.91724">
        <ele>571</ele>
        <time>2019-03-16T15:13:21Z</time>
      </trkpt>
      <trkpt lat="44.36002" lon="5.9172">
        <ele>571</ele>
        <time>2019-03-16T15:13:22Z</time>
      </trkpt>
      <trkpt lat="44.35995" lon="5.91716">
        <ele>571</ele>
        <time>2019-03-16T15:13:23Z</time>
      </trkpt>
      <trkpt lat="44.3599" lon="5.91712">
        <ele>571</ele>
        <time>2019-03-16T15:13:24Z</time>
      </trkpt>
      <trkpt lat="44.35984" lon="5.91708">
        <ele>571</ele>
        <time>2019-03-16T15:13:25Z</time>
      </trkpt>
      <trkpt lat="44.35978" lon="5.91704">
        <ele>571</ele>
        <time>2019-03-16T15:13:26Z</time>
      </trkpt>
      <trkpt lat="44.35971" lon="5.917">
        <ele>571</ele>
        <time>2019-03-16T15:13:27Z</time>
      </trkpt>
      <trkpt lat="44.35965" lon="5.91695">
        <ele>571</ele>
        <time>2019-03-16T15:13:28Z</time>
      </trkpt>
      <trkpt lat="44.3596" lon="5.91691">
        <ele>571</ele>
        <time>2019-03-16T15:13:29Z</time>
      </trkpt>
      <trkpt lat="44.35954" lon="5.91687">
        <ele>571</ele>
        <time>2019-03-16T15:13:30Z</time>
      </trkpt>
      <trkpt lat="44.35948" lon="5.91682">
        <ele>571</ele>
        <time>2019-03-16T15:13:31Z</time>
      </trkpt>
      <trkpt lat="44.35941" lon="5.91678">
        <ele>571</ele>
        <time>2019-03-16T15:13:32Z</time>
      </trkpt>
      <trkpt lat="44.35935" lon="5.91674">
        <ele>571</ele>
        <time>2019-03-16T15:13:33Z</time>
      </trkpt>
      <trkpt lat="44.35929" lon="5.9167">
        <ele>571</ele>
        <time>2019-03-16T15:13:34Z</time>
      </trkpt>
      <trkpt lat="44.35923" lon="5.91665">
        <ele>571</ele>
        <time>2019-03-16T15:13:35Z</time>
      </trkpt>
      <trkpt lat="44.35917" lon="5.91661">
        <ele>571</ele>
        <time>2019-03-16T15:13:36Z</time>
      </trkpt>
      <trkpt lat="44.35911" lon="5.91657">
        <ele>571</ele>
        <time>2019-03-16T15:13:37Z</time>
      </trkpt>
      <trkpt lat="44.35904" lon="5.91653">
        <ele>571</ele>
        <time>2019-03-16T15:13:38Z</time>
      </trkpt>
      <trkpt lat="44.35898" lon="5.91649">
        <ele>571</ele>
        <time>2019-03-16T15:13:39Z</time>
      </trkpt>
      <trkpt lat="44.35892" lon="5.91645">
        <ele>571</ele>
        <time>2019-03-16T15:13:40Z</time>
      </trkpt>
      <trkpt lat="44.35886" lon="5.91641">
        <ele>571</ele>
        <time>2019-03-16T15:13:41Z</time>
      </trkpt>
      <trkpt lat="44.35879" lon="5.91637">
        <ele>571</ele>
        <time>2019-03-16T15:13:42Z</time>
      </trkpt>
      <trkpt lat="44.35873" lon="5.91632">
        <ele>571</ele>
        <time>2019-03-16T15:13:43Z</time>
      </trkpt>
      <trkpt lat="44.35867" lon="5.91628">
        <ele>571</ele>
        <time>2019-03-16T15:13:44Z</time>
      </trkpt>
      <trkpt lat="44.35861" lon="5.91624">
        <ele>571</ele>
        <time>2019-03-16T15:13:45Z</time>
      </trkpt>
      <trkpt lat="44.35855" lon="5.9162">
        <ele>571</ele>
        <time>2019-03-16T15:13:46Z</time>
      </trkpt>
      <trkpt lat="44.35849" lon="5.91616">
        <ele>571</ele>
        <time>2019-03-16T15:13:47Z</time>
      </trkpt>
      <trkpt lat="44.35843" lon="5.91612">
        <ele>571</ele>
        <time>2019-03-16T15:13:48Z</time>
      </trkpt>
      <trkpt lat="44.35837" lon="5.91608">
        <ele>571</ele>
        <time>2019-03-16T15:13:49Z</time>
      </trkpt>
      <trkpt lat="44.35831" lon="5.91604">
        <ele>571</ele>
        <time>2019-03-16T15:13:50Z</time>
      </trkpt>
      <trkpt lat="44.35825" lon="5.916">
        <ele>571</ele>
        <time>2019-03-16T15:13:51Z</time>
      </trkpt>
      <trkpt lat="44.35819" lon="5.91596">
        <ele>571</ele>
        <time>2019-03-16T15:13:52Z</time>
      </trkpt>
      <trkpt lat="44.35814" lon="5.91592">
        <ele>571</ele>
        <time>2019-03-16T15:13:53Z</time>
      </trkpt>
      <trkpt lat="44.35807" lon="5.91588">
        <ele>571</ele>
        <time>2019-03-16T15:13:54Z</time>
      </trkpt>
      <trkpt lat="44.35802" lon="5.91584">
        <ele>571</ele>
        <time>2019-03-16T15:13:55Z</time>
      </trkpt>
      <trkpt lat="44.35796" lon="5.9158">
        <ele>571</ele>
        <time>2019-03-16T15:13:56Z</time>
      </trkpt>
      <trkpt lat="44.3579" lon="5.91576">
        <ele>571</ele>
        <time>2019-03-16T15:13:57Z</time>
      </trkpt>
      <trkpt lat="44.35784" lon="5.91572">
        <ele>571</ele>
        <time>2019-03-16T15:13:58Z</time>
      </trkpt>
      <trkpt lat="44.35778" lon="5.91567">
        <ele>571</ele>
        <time>2019-03-16T15:13:59Z</time>
      </trkpt>
      <trkpt lat="44.35772" lon="5.91563">
        <ele>571</ele>
        <time>2019-03-16T15:14:00Z</time>
      </trkpt>
      <trkpt lat="44.35765" lon="5.91558">
        <ele>571</ele>
        <time>2019-03-16T15:14:01Z</time>
      </trkpt>
      <trkpt lat="44.35759" lon="5.91554">
        <ele>571</ele>
        <time>2019-03-16T15:14:02Z</time>
      </trkpt>
      <trkpt lat="44.35753" lon="5.9155">
        <ele>571</ele>
        <time>2019-03-16T15:14:03Z</time>
      </trkpt>
      <trkpt lat="44.35747" lon="5.91545">
        <ele>571</ele>
        <time>2019-03-16T15:14:04Z</time>
      </trkpt>
      <trkpt lat="44.35741" lon="5.91541">
        <ele>571</ele>
        <time>2019-03-16T15:14:05Z</time>
      </trkpt>
      <trkpt lat="44.35734" lon="5.91538">
        <ele>571</ele>
        <time>2019-03-16T15:14:06Z</time>
      </trkpt>
      <trkpt lat="44.35728" lon="5.91533">
        <ele>571</ele>
        <time>2019-03-16T15:14:07Z</time>
      </trkpt>
      <trkpt lat="44.35722" lon="5.91529">
        <ele>571</ele>
        <time>2019-03-16T15:14:08Z</time>
      </trkpt>
      <trkpt lat="44.35716" lon="5.91525">
        <ele>571</ele>
        <time>2019-03-16T15:14:09Z</time>
      </trkpt>
      <trkpt lat="44.35709" lon="5.9152">
        <ele>571</ele>
        <time>2019-03-16T15:14:10Z</time>
      </trkpt>
      <trkpt lat="44.35703" lon="5.91516">
        <ele>571</ele>
        <time>2019-03-16T15:14:11Z</time>
      </trkpt>
      <trkpt lat="44.35697" lon="5.91511">
        <ele>571</ele>
        <time>2019-03-16T15:14:12Z</time>
      </trkpt>
      <trkpt lat="44.35691" lon="5.91507">
        <ele>571</ele>
        <time>2019-03-16T15:14:13Z</time>
      </trkpt>
      <trkpt lat="44.35684" lon="5.91503">
        <ele>571</ele>
        <time>2019-03-16T15:14:14Z</time>
      </trkpt>
      <trkpt lat="44.35678" lon="5.91498">
        <ele>571</ele>
        <time>2019-03-16T15:14:15Z</time>
      </trkpt>
      <trkpt lat="44.35672" lon="5.91494">
        <ele>571</ele>
        <time>2019-03-16T15:14:16Z</time>
      </trkpt>
      <trkpt lat="44.35666" lon="5.9149">
        <ele>571</ele>
        <time>2019-03-16T15:14:17Z</time>
      </trkpt>
      <trkpt lat="44.3566" lon="5.91486">
        <ele>571</ele>
        <time>2019-03-16T15:14:18Z</time>
      </trkpt>
      <trkpt lat="44.35654" lon="5.91481">
        <ele>571</ele>
        <time>2019-03-16T15:14:19Z</time>
      </trkpt>
      <trkpt lat="44.35648" lon="5.91477">
        <ele>571</ele>
        <time>2019-03-16T15:14:20Z</time>
      </trkpt>
      <trkpt lat="44.35643" lon="5.91472">
        <ele>571</ele>
        <time>2019-03-16T15:14:21Z</time>
      </trkpt>
      <trkpt lat="44.35637" lon="5.91468">
        <ele>571</ele>
        <time>2019-03-16T15:14:22Z</time>
      </trkpt>
      <trkpt lat="44.35631" lon="5.91464">
        <ele>571</ele>
        <time>2019-03-16T15:14:23Z</time>
      </trkpt>
      <trkpt lat="44.35625" lon="5.9146">
        <ele>571</ele>
        <time>2019-03-16T15:14:24Z</time>
      </trkpt>
      <trkpt lat="44.35619" lon="5.91457">
        <ele>571</ele>
        <time>2019-03-16T15:14:25Z</time>
      </trkpt>
      <trkpt lat="44.35613" lon="5.91453">
        <ele>571</ele>
        <time>2019-03-16T15:14:26Z</time>
      </trkpt>
      <trkpt lat="44.35607" lon="5.91449">
        <ele>571</ele>
        <time>2019-03-16T15:14:27Z</time>
      </trkpt>
      <trkpt lat="44.35602" lon="5.91446">
        <ele>572</ele>
        <time>2019-03-16T15:14:28Z</time>
      </trkpt>
      <trkpt lat="44.35596" lon="5.91442">
        <ele>572</ele>
        <time>2019-03-16T15:14:29Z</time>
      </trkpt>
      <trkpt lat="44.3559" lon="5.91438">
        <ele>572</ele>
        <time>2019-03-16T15:14:30Z</time>
      </trkpt>
      <trkpt lat="44.35585" lon="5.91434">
        <ele>572</ele>
        <time>2019-03-16T15:14:31Z</time>
      </trkpt>
      <trkpt lat="44.3558" lon="5.91431">
        <ele>572</ele>
        <time>2019-03-16T15:14:32Z</time>
      </trkpt>
      <trkpt lat="44.35574" lon="5.91427">
        <ele>572</ele>
        <time>2019-03-16T15:14:33Z</time>
      </trkpt>
      <trkpt lat="44.35569" lon="5.91423">
        <ele>572</ele>
        <time>2019-03-16T15:14:34Z</time>
      </trkpt>
      <trkpt lat="44.35563" lon="5.91419">
        <ele>573</ele>
        <time>2019-03-16T15:14:35Z</time>
      </trkpt>
      <trkpt lat="44.35558" lon="5.91416">
        <ele>573</ele>
        <time>2019-03-16T15:14:36Z</time>
      </trkpt>
      <trkpt lat="44.35553" lon="5.91413">
        <ele>573</ele>
        <time>2019-03-16T15:14:37Z</time>
      </trkpt>
      <trkpt lat="44.35548" lon="5.9141">
        <ele>573</ele>
        <time>2019-03-16T15:14:38Z</time>
      </trkpt>
      <trkpt lat="44.35542" lon="5.91407">
        <ele>573</ele>
        <time>2019-03-16T15:14:39Z</time>
      </trkpt>
      <trkpt lat="44.35537" lon="5.91404">
        <ele>573</ele>
        <time>2019-03-16T15:14:40Z</time>
      </trkpt>
      <trkpt lat="44.35532" lon="5.914">
        <ele>573</ele>
        <time>2019-03-16T15:14:41Z</time>
      </trkpt>
      <trkpt lat="44.35527" lon="5.91397">
        <ele>573</ele>
        <time>2019-03-16T15:14:42Z</time>
      </trkpt>
      <trkpt lat="44.35522" lon="5.91394">
        <ele>573</ele>
        <time>2019-03-16T15:14:43Z</time>
      </trkpt>
      <trkpt lat="44.35517" lon="5.91391">
        <ele>573</ele>
        <time>2019-03-16T15:14:44Z</time>
      </trkpt>
      <trkpt lat="44.35511" lon="5.91388">
        <ele>573</ele>
        <time>2019-03-16T15:14:45Z</time>
      </trkpt>
      <trkpt lat="44.35506" lon="5.91385">
        <ele>573</ele>
        <time>2019-03-16T15:14:46Z</time>
      </trkpt>
      <trkpt lat="44.35501" lon="5.91381">
        <ele>573</ele>
        <time>2019-03-16T15:14:47Z</time>
      </trkpt>
      <trkpt lat="44.35495" lon="5.91378">
        <ele>573</ele>
        <time>2019-03-16T15:14:48Z</time>
      </trkpt>
      <trkpt lat="44.35489" lon="5.91374">
        <ele>573</ele>
        <time>2019-03-16T15:14:49Z</time>
      </trkpt>
      <trkpt lat="44.35483" lon="5.9137">
        <ele>573</ele>
        <time>2019-03-16T15:14:50Z</time>
      </trkpt>
      <trkpt lat="44.35477" lon="5.91367">
        <ele>573</ele>
        <time>2019-03-16T15:14:51Z</time>
      </trkpt>
      <trkpt lat="44.35471" lon="5.91363">
        <ele>573</ele>
        <time>2019-03-16T15:14:52Z</time>
      </trkpt>
      <trkpt lat="44.35465" lon="5.91359">
        <ele>573</ele>
        <time>2019-03-16T15:14:53Z</time>
      </trkpt>
      <trkpt lat="44.35459" lon="5.91355">
        <ele>573</ele>
        <time>2019-03-16T15:14:54Z</time>
      </trkpt>
      <trkpt lat="44.35453" lon="5.9135">
        <ele>573</ele>
        <time>2019-03-16T15:14:55Z</time>
      </trkpt>
      <trkpt lat="44.35446" lon="5.91346">
        <ele>573</ele>
        <time>2019-03-16T15:14:56Z</time>
      </trkpt>
      <trkpt lat="44.3544" lon="5.91342">
        <ele>573</ele>
        <time>2019-03-16T15:14:57Z</time>
      </trkpt>
      <trkpt lat="44.35434" lon="5.91337">
        <ele>573</ele>
        <time>2019-03-16T15:14:58Z</time>
      </trkpt>
      <trkpt lat="44.35427" lon="5.91333">
        <ele>573</ele>
        <time>2019-03-16T15:14:59Z</time>
      </trkpt>
      <trkpt lat="44.35421" lon="5.91328">
        <ele>573</ele>
        <time>2019-03-16T15:15:00Z</time>
      </trkpt>
      <trkpt lat="44.35415" lon="5.91324">
        <ele>573</ele>
        <time>2019-03-16T15:15:01Z</time>
      </trkpt>
      <trkpt lat="44.35408" lon="5.91319">
        <ele>573</ele>
        <time>2019-03-16T15:15:02Z</time>
      </trkpt>
      <trkpt lat="44.35402" lon="5.91315">
        <ele>573</ele>
        <time>2019-03-16T15:15:03Z</time>
      </trkpt>
      <trkpt lat="44.35397" lon="5.91311">
        <ele>573</ele>
        <time>2019-03-16T15:15:04Z</time>
      </trkpt>
      <trkpt lat="44.35391" lon="5.91306">
        <ele>573</ele>
        <time>2019-03-16T15:15:05Z</time>
      </trkpt>
      <trkpt lat="44.35385" lon="5.91302">
        <ele>573</ele>
        <time>2019-03-16T15:15:06Z</time>
      </trkpt>
      <trkpt lat="44.3538" lon="5.91298">
        <ele>573</ele>
        <time>2019-03-16T15:15:07Z</time>
      </trkpt>
      <trkpt lat="44.35374" lon="5.91293">
        <ele>573</ele>
        <time>2019-03-16T15:15:08Z</time>
      </trkpt>
      <trkpt lat="44.35368" lon="5.91289">
        <ele>573</ele>
        <time>2019-03-16T15:15:09Z</time>
      </trkpt>
      <trkpt lat="44.35363" lon="5.91285">
        <ele>573</ele>
        <time>2019-03-16T15:15:10Z</time>
      </trkpt>
      <trkpt lat="44.35357" lon="5.9128">
        <ele>573</ele>
        <time>2019-03-16T15:15:11Z</time>
      </trkpt>
      <trkpt lat="44.35352" lon="5.91276">
        <ele>573</ele>
        <time>2019-03-16T15:15:12Z</time>
      </trkpt>
      <trkpt lat="44.35346" lon="5.91271">
        <ele>573</ele>
        <time>2019-03-16T15:15:13Z</time>
      </trkpt>
      <trkpt lat="44.3534" lon="5.91266">
        <ele>573</ele>
        <time>2019-03-16T15:15:14Z</time>
      </trkpt>
      <trkpt lat="44.35334" lon="5.91261">
        <ele>573</ele>
        <time>2019-03-16T15:15:15Z</time>
      </trkpt>
      <trkpt lat="44.35328" lon="5.91257">
        <ele>573</ele>
        <time>2019-03-16T15:15:16Z</time>
      </trkpt>
      <trkpt lat="44.35322" lon="5.91252">
        <ele>573</ele>
        <time>2019-03-16T15:15:17Z</time>
      </trkpt>
      <trkpt lat="44.35316" lon="5.91247">
        <ele>573</ele>
        <time>2019-03-16T15:15:18Z</time>
      </trkpt>
      <trkpt lat="44.3531" lon="5.91243">
        <ele>573</ele>
        <time>2019-03-16T15:15:19Z</time>
      </trkpt>
      <trkpt lat="44.35304" lon="5.91239">
        <ele>573</ele>
        <time>2019-03-16T15:15:20Z</time>
      </trkpt>
      <trkpt lat="44.35298" lon="5.91234">
        <ele>573</ele>
        <time>2019-03-16T15:15:21Z</time>
      </trkpt>
      <trkpt lat="44.35293" lon="5.91229">
        <ele>573</ele>
        <time>2019-03-16T15:15:22Z</time>
      </trkpt>
      <trkpt lat="44.35287" lon="5.91224">
        <ele>573</ele>
        <time>2019-03-16T15:15:23Z</time>
      </trkpt>
      <trkpt lat="44.35282" lon="5.9122">
        <ele>573</ele>
        <time>2019-03-16T15:15:24Z</time>
      </trkpt>
      <trkpt lat="44.35276" lon="5.91215">
        <ele>573</ele>
        <time>2019-03-16T15:15:25Z</time>
      </trkpt>
      <trkpt lat="44.3527" lon="5.9121">
        <ele>573</ele>
        <time>2019-03-16T15:15:26Z</time>
      </trkpt>
      <trkpt lat="44.35265" lon="5.91204">
        <ele>573</ele>
        <time>2019-03-16T15:15:27Z</time>
      </trkpt>
      <trkpt lat="44.35259" lon="5.91199">
        <ele>573</ele>
        <time>2019-03-16T15:15:28Z</time>
      </trkpt>
      <trkpt lat="44.35254" lon="5.91193">
        <ele>573</ele>
        <time>2019-03-16T15:15:29Z</time>
      </trkpt>
      <trkpt lat="44.35248" lon="5.91188">
        <ele>573</ele>
        <time>2019-03-16T15:15:30Z</time>
      </trkpt>
      <trkpt lat="44.35242" lon="5.91183">
        <ele>573</ele>
        <time>2019-03-16T15:15:31Z</time>
      </trkpt>
      <trkpt lat="44.35236" lon="5.91178">
        <ele>573</ele>
        <time>2019-03-16T15:15:32Z</time>
      </trkpt>
      <trkpt lat="44.3523" lon="5.91173">
        <ele>573</ele>
        <time>2019-03-16T15:15:33Z</time>
      </trkpt>
      <trkpt lat="44.35224" lon="5.91167">
        <ele>573</ele>
        <time>2019-03-16T15:15:34Z</time>
      </trkpt>
      <trkpt lat="44.35218" lon="5.91162">
        <ele>573</ele>
        <time>2019-03-16T15:15:35Z</time>
      </trkpt>
      <trkpt lat="44.35212" lon="5.91157">
        <ele>573</ele>
        <time>2019-03-16T15:15:36Z</time>
      </trkpt>
      <trkpt lat="44.35206" lon="5.91152">
        <ele>573</ele>
        <time>2019-03-16T15:15:37Z</time>
      </trkpt>
      <trkpt lat="44.352" lon="5.91146">
        <ele>573</ele>
        <time>2019-03-16T15:15:38Z</time>
      </trkpt>
      <trkpt lat="44.35194" lon="5.9114">
        <ele>573</ele>
        <time>2019-03-16T15:15:39Z</time>
      </trkpt>
      <trkpt lat="44.35188" lon="5.91134">
        <ele>573</ele>
        <time>2019-03-16T15:15:40Z</time>
      </trkpt>
      <trkpt lat="44.35182" lon="5.91128">
        <ele>573</ele>
        <time>2019-03-16T15:15:41Z</time>
      </trkpt>
      <trkpt lat="44.35176" lon="5.91122">
        <ele>573</ele>
        <time>2019-03-16T15:15:42Z</time>
      </trkpt>
      <trkpt lat="44.3517" lon="5.91116">
        <ele>573</ele>
        <time>2019-03-16T15:15:43Z</time>
      </trkpt>
      <trkpt lat="44.35163" lon="5.9111">
        <ele>573</ele>
        <time>2019-03-16T15:15:44Z</time>
      </trkpt>
      <trkpt lat="44.35156" lon="5.91104">
        <ele>573</ele>
        <time>2019-03-16T15:15:45Z</time>
      </trkpt>
      <trkpt lat="44.3515" lon="5.91097">
        <ele>573</ele>
        <time>2019-03-16T15:15:46Z</time>
      </trkpt>
      <trkpt lat="44.35143" lon="5.91091">
        <ele>573</ele>
        <time>2019-03-16T15:15:47Z</time>
      </trkpt>
      <trkpt lat="44.35136" lon="5.91084">
        <ele>573</ele>
        <time>2019-03-16T15:15:48Z</time>
      </trkpt>
      <trkpt lat="44.35129" lon="5.91078">
        <ele>573</ele>
        <time>2019-03-16T15:15:49Z</time>
      </trkpt>
      <trkpt lat="44.35122" lon="5.91072">
        <ele>573</ele>
        <time>2019-03-16T15:15:50Z</time>
      </trkpt>
      <trkpt lat="44.35115" lon="5.91065">
        <ele>573</ele>
        <time>2019-03-16T15:15:51Z</time>
      </trkpt>
      <trkpt lat="44.35108" lon="5.91058">
        <ele>573</ele>
        <time>2019-03-16T15:15:52Z</time>
      </trkpt>
      <trkpt lat="44.35101" lon="5.91052">
        <ele>572</ele>
        <time>2019-03-16T15:15:53Z</time>
      </trkpt>
      <trkpt lat="44.35094" lon="5.91045">
        <ele>572</ele>
        <time>2019-03-16T15:15:54Z</time>
      </trkpt>
      <trkpt lat="44.35086" lon="5.91039">
        <ele>572</ele>
        <time>2019-03-16T15:15:55Z</time>
      </trkpt>
      <trkpt lat="44.35079" lon="5.91032">
        <ele>572</ele>
        <time>2019-03-16T15:15:56Z</time>
      </trkpt>
      <trkpt lat="44.35072" lon="5.91025">
        <ele>571</ele>
        <time>2019-03-16T15:15:57Z</time>
      </trkpt>
      <trkpt lat="44.35064" lon="5.91019">
        <ele>571</ele>
        <time>2019-03-16T15:15:58Z</time>
      </trkpt>
      <trkpt lat="44.35057" lon="5.91012">
        <ele>571</ele>
        <time>2019-03-16T15:15:59Z</time>
      </trkpt>
      <trkpt lat="44.35049" lon="5.91005">
        <ele>571</ele>
        <time>2019-03-16T15:16:00Z</time>
      </trkpt>
      <trkpt lat="44.35042" lon="5.90998">
        <ele>571</ele>
        <time>2019-03-16T15:16:01Z</time>
      </trkpt>
      <trkpt lat="44.35034" lon="5.90991">
        <ele>570</ele>
        <time>2019-03-16T15:16:02Z</time>
      </trkpt>
      <trkpt lat="44.35027" lon="5.90984">
        <ele>570</ele>
        <time>2019-03-16T15:16:03Z</time>
      </trkpt>
      <trkpt lat="44.35019" lon="5.90977">
        <ele>570</ele>
        <time>2019-03-16T15:16:04Z</time>
      </trkpt>
      <trkpt lat="44.35012" lon="5.90969">
        <ele>570</ele>
        <time>2019-03-16T15:16:05Z</time>
      </trkpt>
      <trkpt lat="44.35004" lon="5.90962">
        <ele>569</ele>
        <time>2019-03-16T15:16:06Z</time>
      </trkpt>
      <trkpt lat="44.34996" lon="5.90954">
        <ele>569</ele>
        <time>2019-03-16T15:16:07Z</time>
      </trkpt>
      <trkpt lat="44.34988" lon="5.90947">
        <ele>569</ele>
        <time>2019-03-16T15:16:08Z</time>
      </trkpt>
      <trkpt lat="44.3498" lon="5.9094">
        <ele>569</ele>
        <time>2019-03-16T15:16:09Z</time>
      </trkpt>
      <trkpt lat="44.34973" lon="5.90933">
        <ele>568</ele>
        <time>2019-03-16T15:16:10Z</time>
      </trkpt>
      <trkpt lat="44.34965" lon="5.90926">
        <ele>568</ele>
        <time>2019-03-16T15:16:11Z</time>
      </trkpt>
      <trkpt lat="44.34957" lon="5.90919">
        <ele>567</ele>
        <time>2019-03-16T15:16:12Z</time>
      </trkpt>
      <trkpt lat="44.34949" lon="5.90912">
        <ele>567</ele>
        <time>2019-03-16T15:16:13Z</time>
      </trkpt>
      <trkpt lat="44.34941" lon="5.90906">
        <ele>566</ele>
        <time>2019-03-16T15:16:14Z</time>
      </trkpt>
      <trkpt lat="44.34934" lon="5.909">
        <ele>566</ele>
        <time>2019-03-16T15:16:15Z</time>
      </trkpt>
      <trkpt lat="44.34926" lon="5.90894">
        <ele>566</ele>
        <time>2019-03-16T15:16:16Z</time>
      </trkpt>
      <trkpt lat="44.34919" lon="5.90888">
        <ele>566</ele>
        <time>2019-03-16T15:16:17Z</time>
      </trkpt>
      <trkpt lat="44.34912" lon="5.90882">
        <ele>566</ele>
        <time>2019-03-16T15:16:18Z</time>
      </trkpt>
      <trkpt lat="44.34904" lon="5.90877">
        <ele>566</ele>
        <time>2019-03-16T15:16:19Z</time>
      </trkpt>
      <trkpt lat="44.34897" lon="5.90872">
        <ele>566</ele>
        <time>2019-03-16T15:16:20Z</time>
      </trkpt>
      <trkpt lat="44.3489" lon="5.90867">
        <ele>566</ele>
        <time>2019-03-16T15:16:21Z</time>
      </trkpt>
      <trkpt lat="44.34883" lon="5.90862">
        <ele>566</ele>
        <time>2019-03-16T15:16:22Z</time>
      </trkpt>
      <trkpt lat="44.34877" lon="5.90857">
        <ele>566</ele>
        <time>2019-03-16T15:16:23Z</time>
      </trkpt>
      <trkpt lat="44.3487" lon="5.90851">
        <ele>566</ele>
        <time>2019-03-16T15:16:24Z</time>
      </trkpt>
      <trkpt lat="44.34864" lon="5.90846">
        <ele>566</ele>
        <time>2019-03-16T15:16:25Z</time>
      </trkpt>
      <trkpt lat="44.34857" lon="5.90841">
        <ele>566</ele>
        <time>2019-03-16T15:16:26Z</time>
      </trkpt>
      <trkpt lat="44.3485" lon="5.90836">
        <ele>566</ele>
        <time>2019-03-16T15:16:27Z</time>
      </trkpt>
      <trkpt lat="44.34844" lon="5.9083">
        <ele>566</ele>
        <time>2019-03-16T15:16:28Z</time>
      </trkpt>
      <trkpt lat="44.34837" lon="5.90825">
        <ele>566</ele>
        <time>2019-03-16T15:16:29Z</time>
      </trkpt>
      <trkpt lat="44.3483" lon="5.9082">
        <ele>566</ele>
        <time>2019-03-16T15:16:30Z</time>
      </trkpt>
      <trkpt lat="44.34824" lon="5.90815">
        <ele>566</ele>
        <time>2019-03-16T15:16:31Z</time>
      </trkpt>
      <trkpt lat="44.34818" lon="5.9081">
        <ele>566</ele>
        <time>2019-03-16T15:16:32Z</time>
      </trkpt>
      <trkpt lat="44.34811" lon="5.90805">
        <ele>566</ele>
        <time>2019-03-16T15:16:33Z</time>
      </trkpt>
      <trkpt lat="44.34805" lon="5.908">
        <ele>566</ele>
        <time>2019-03-16T15:16:34Z</time>
      </trkpt>
      <trkpt lat="44.34799" lon="5.90795">
        <ele>566</ele>
        <time>2019-03-16T15:16:35Z</time>
      </trkpt>
      <trkpt lat="44.34793" lon="5.90791">
        <ele>566</ele>
        <time>2019-03-16T15:16:36Z</time>
      </trkpt>
      <trkpt lat="44.34787" lon="5.90786">
        <ele>566</ele>
        <time>2019-03-16T15:16:37Z</time>
      </trkpt>
      <trkpt lat="44.34781" lon="5.90781">
        <ele>566</ele>
        <time>2019-03-16T15:16:38Z</time>
      </trkpt>
      <trkpt lat="44.34775" lon="5.90777">
        <ele>566</ele>
        <time>2019-03-16T15:16:39Z</time>
      </trkpt>
      <trkpt lat="44.34769" lon="5.90772">
        <ele>566</ele>
        <time>2019-03-16T15:16:40Z</time>
      </trkpt>
      <trkpt lat="44.34763" lon="5.90767">
        <ele>566</ele>
        <time>2019-03-16T15:16:41Z</time>
      </trkpt>
      <trkpt lat="44.34758" lon="5.90762">
        <ele>566</ele>
        <time>2019-03-16T15:16:42Z</time>
      </trkpt>
      <trkpt lat="44.34753" lon="5.90758">
        <ele>566</ele>
        <time>2019-03-16T15:16:43Z</time>
      </trkpt>
      <trkpt lat="44.34747" lon="5.90753">
        <ele>566</ele>
        <time>2019-03-16T15:16:44Z</time>
      </trkpt>
      <trkpt lat="44.34741" lon="5.90749">
        <ele>566</ele>
        <time>2019-03-16T15:16:45Z</time>
      </trkpt>
      <trkpt lat="44.34735" lon="5.90744">
        <ele>566</ele>
        <time>2019-03-16T15:16:46Z</time>
      </trkpt>
      <trkpt lat="44.3473" lon="5.9074">
        <ele>566</ele>
        <time>2019-03-16T15:16:47Z</time>
      </trkpt>
      <trkpt lat="44.34724" lon="5.90736">
        <ele>566</ele>
        <time>2019-03-16T15:16:48Z</time>
      </trkpt>
      <trkpt lat="44.34718" lon="5.90732">
        <ele>566</ele>
        <time>2019-03-16T15:16:49Z</time>
      </trkpt>
      <trkpt lat="44.34713" lon="5.90728">
        <ele>566</ele>
        <time>2019-03-16T15:16:50Z</time>
      </trkpt>
      <trkpt lat="44.34707" lon="5.90725">
        <ele>566</ele>
        <time>2019-03-16T15:16:51Z</time>
      </trkpt>
      <trkpt lat="44.34701" lon="5.90722">
        <ele>566</ele>
        <time>2019-03-16T15:16:52Z</time>
      </trkpt>
      <trkpt lat="44.34696" lon="5.90718">
        <ele>566</ele>
        <time>2019-03-16T15:16:53Z</time>
      </trkpt>
      <trkpt lat="44.34691" lon="5.90715">
        <ele>566</ele>
        <time>2019-03-16T15:16:54Z</time>
      </trkpt>
      <trkpt lat="44.34686" lon="5.90711">
        <ele>566</ele>
        <time>2019-03-16T15:16:55Z</time>
      </trkpt>
      <trkpt lat="44.34681" lon="5.90708">
        <ele>566</ele>
        <time>2019-03-16T15:16:56Z</time>
      </trkpt>
      <trkpt lat="44.34676" lon="5.90705">
        <ele>566</ele>
        <time>2019-03-16T15:16:57Z</time>
      </trkpt>
      <trkpt lat="44.34671" lon="5.90702">
        <ele>566</ele>
        <time>2019-03-16T15:16:58Z</time>
      </trkpt>
      <trkpt lat="44.34667" lon="5.90699">
        <ele>566</ele>
        <time>2019-03-16T15:16:59Z</time>
      </trkpt>
      <trkpt lat="44.34662" lon="5.90696">
        <ele>566</ele>
        <time>2019-03-16T15:17:00Z</time>
      </trkpt>
      <trkpt lat="44.34658" lon="5.90694">
        <ele>566</ele>
        <time>2019-03-16T15:17:01Z</time>
      </trkpt>
      <trkpt lat="44.34653" lon="5.90691">
        <ele>567</ele>
        <time>2019-03-16T15:17:02Z</time>
      </trkpt>
      <trkpt lat="44.34649" lon="5.90688">
        <ele>567</ele>
        <time>2019-03-16T15:17:03Z</time>
      </trkpt>
      <trkpt lat="44.34644" lon="5.90685">
        <ele>567</ele>
        <time>2019-03-16T15:17:04Z</time>
      </trkpt>
      <trkpt lat="44.3464" lon="5.90682">
        <ele>567</ele>
        <time>2019-03-16T15:17:05Z</time>
      </trkpt>
      <trkpt lat="44.34636" lon="5.90679">
        <ele>567</ele>
        <time>2019-03-16T15:17:06Z</time>
      </trkpt>
      <trkpt lat="44.34632" lon="5.90676">
        <ele>567</ele>
        <time>2019-03-16T15:17:07Z</time>
      </trkpt>
      <trkpt lat="44.34628" lon="5.90673">
        <ele>567</ele>
        <time>2019-03-16T15:17:08Z</time>
      </trkpt>
      <trkpt lat="44.34623" lon="5.90669">
        <ele>567</ele>
        <time>2019-03-16T15:17:09Z</time>
      </trkpt>
      <trkpt lat="44.34619" lon="5.90666">
        <ele>567</ele>
        <time>2019-03-16T15:17:10Z</time>
      </trkpt>
      <trkpt lat="44.34615" lon="5.90662">
        <ele>567</ele>
        <time>2019-03-16T15:17:11Z</time>
      </trkpt>
      <trkpt lat="44.34611" lon="5.90659">
        <ele>567</ele>
        <time>2019-03-16T15:17:12Z</time>
      </trkpt>
      <trkpt lat="44.34607" lon="5.90656">
        <ele>568</ele>
        <time>2019-03-16T15:17:13Z</time>
      </trkpt>
      <trkpt lat="44.34602" lon="5.90653">
        <ele>568</ele>
        <time>2019-03-16T15:17:14Z</time>
      </trkpt>
      <trkpt lat="44.34598" lon="5.90649">
        <ele>568</ele>
        <time>2019-03-16T15:17:15Z</time>
      </trkpt>
      <trkpt lat="44.34594" lon="5.90645">
        <ele>568</ele>
        <time>2019-03-16T15:17:16Z</time>
      </trkpt>
      <trkpt lat="44.34589" lon="5.90641">
        <ele>568</ele>
        <time>2019-03-16T15:17:17Z</time>
      </trkpt>
      <trkpt lat="44.34584" lon="5.90637">
        <ele>568</ele>
        <time>2019-03-16T15:17:18Z</time>
      </trkpt>
      <trkpt lat="44.3458" lon="5.90634">
        <ele>568</ele>
        <time>2019-03-16T15:17:19Z</time>
      </trkpt>
      <trkpt lat="44.34575" lon="5.9063">
        <ele>568</ele>
        <time>2019-03-16T15:17:20Z</time>
      </trkpt>
      <trkpt lat="44.34571" lon="5.90626">
        <ele>568</ele>
        <time>2019-03-16T15:17:21Z</time>
      </trkpt>
      <trkpt lat="44.34566" lon="5.90622">
        <ele>569</ele>
        <time>2019-03-16T15:17:22Z</time>
      </trkpt>
      <trkpt lat="44.34561" lon="5.90618">
        <ele>569</ele>
        <time>2019-03-16T15:17:23Z</time>
      </trkpt>
      <trkpt lat="44.34557" lon="5.90614">
        <ele>569</ele>
        <time>2019-03-16T15:17:24Z</time>
      </trkpt>
      <trkpt lat="44.34552" lon="5.9061">
        <ele>569</ele>
        <time>2019-03-16T15:17:25Z</time>
      </trkpt>
      <trkpt lat="44.34547" lon="5.90606">
        <ele>569</ele>
        <time>2019-03-16T15:17:26Z</time>
      </trkpt>
      <trkpt lat="44.34542" lon="5.90602">
        <ele>569</ele>
        <time>2019-03-16T15:17:27Z</time>
      </trkpt>
      <trkpt lat="44.34538" lon="5.90598">
        <ele>569</ele>
        <time>2019-03-16T15:17:28Z</time>
      </trkpt>
      <trkpt lat="44.34533" lon="5.90594">
        <ele>569</ele>
        <time>2019-03-16T15:17:29Z</time>
      </trkpt>
      <trkpt lat="44.34528" lon="5.9059">
        <ele>569</ele>
        <time>2019-03-16T15:17:30Z</time>
      </trkpt>
      <trkpt lat="44.34523" lon="5.90587">
        <ele>569</ele>
        <time>2019-03-16T15:17:31Z</time>
      </trkpt>
      <trkpt lat="44.34519" lon="5.90583">
        <ele>569</ele>
        <time>2019-03-16T15:17:32Z</time>
      </trkpt>
      <trkpt lat="44.34515" lon="5.90579">
        <ele>569</ele>
        <time>2019-03-16T15:17:33Z</time>
      </trkpt>
      <trkpt lat="44.3451" lon="5.90575">
        <ele>569</ele>
        <time>2019-03-16T15:17:34Z</time>
      </trkpt>
      <trkpt lat="44.34505" lon="5.90571">
        <ele>569</ele>
        <time>2019-03-16T15:17:35Z</time>
      </trkpt>
      <trkpt lat="44.345" lon="5.90567">
        <ele>569</ele>
        <time>2019-03-16T15:17:36Z</time>
      </trkpt>
      <trkpt lat="44.34495" lon="5.90563">
        <ele>569</ele>
        <time>2019-03-16T15:17:37Z</time>
      </trkpt>
      <trkpt lat="44.3449" lon="5.9056">
        <ele>569</ele>
        <time>2019-03-16T15:17:38Z</time>
      </trkpt>
      <trkpt lat="44.34485" lon="5.90556">
        <ele>569</ele>
        <time>2019-03-16T15:17:39Z</time>
      </trkpt>
      <trkpt lat="44.34481" lon="5.90552">
        <ele>569</ele>
        <time>2019-03-16T15:17:40Z</time>
      </trkpt>
      <trkpt lat="44.34476" lon="5.90548">
        <ele>569</ele>
        <time>2019-03-16T15:17:41Z</time>
      </trkpt>
      <trkpt lat="44.34472" lon="5.90544">
        <ele>569</ele>
        <time>2019-03-16T15:17:42Z</time>
      </trkpt>
      <trkpt lat="44.34467" lon="5.90541">
        <ele>569</ele>
        <time>2019-03-16T15:17:43Z</time>
      </trkpt>
      <trkpt lat="44.34462" lon="5.90537">
        <ele>570</ele>
        <time>2019-03-16T15:17:44Z</time>
      </trkpt>
      <trkpt lat="44.34458" lon="5.90533">
        <ele>570</ele>
        <time>2019-03-16T15:17:45Z</time>
      </trkpt>
      <trkpt lat="44.34454" lon="5.90528">
        <ele>570</ele>
        <time>2019-03-16T15:17:46Z</time>
      </trkpt>
      <trkpt lat="44.34449" lon="5.90524">
        <ele>570</ele>
        <time>2019-03-16T15:17:47Z</time>
      </trkpt>
      <trkpt lat="44.34445" lon="5.90519">
        <ele>570</ele>
        <time>2019-03-16T15:17:48Z</time>
      </trkpt>
      <trkpt lat="44.34441" lon="5.90515">
        <ele>570</ele>
        <time>2019-03-16T15:17:49Z</time>
      </trkpt>
      <trkpt lat="44.34436" lon="5.90511">
        <ele>570</ele>
        <time>2019-03-16T15:17:50Z</time>
      </trkpt>
      <trkpt lat="44.34433" lon="5.90507">
        <ele>570</ele>
        <time>2019-03-16T15:17:51Z</time>
      </trkpt>
      <trkpt lat="44.34429" lon="5.90503">
        <ele>570</ele>
        <time>2019-03-16T15:17:52Z</time>
      </trkpt>
      <trkpt lat="44.34425" lon="5.90499">
        <ele>570</ele>
        <time>2019-03-16T15:17:53Z</time>
      </trkpt>
      <trkpt lat="44.34422" lon="5.90495">
        <ele>570</ele>
        <time>2019-03-16T15:17:54Z</time>
      </trkpt>
      <trkpt lat="44.34418" lon="5.90491">
        <ele>570</ele>
        <time>2019-03-16T15:17:55Z</time>
      </trkpt>
      <trkpt lat="44.34416" lon="5.90486">
        <ele>570</ele>
        <time>2019-03-16T15:17:56Z</time>
      </trkpt>
      <trkpt lat="44.34413" lon="5.90481">
        <ele>570</ele>
        <time>2019-03-16T15:17:57Z</time>
      </trkpt>
      <trkpt lat="44.3441" lon="5.90476">
        <ele>570</ele>
        <time>2019-03-16T15:17:58Z</time>
      </trkpt>
      <trkpt lat="44.34408" lon="5.90471">
        <ele>570</ele>
        <time>2019-03-16T15:17:59Z</time>
      </trkpt>
      <trkpt lat="44.34406" lon="5.90466">
        <ele>570</ele>
        <time>2019-03-16T15:18:00Z</time>
      </trkpt>
      <trkpt lat="44.34402" lon="5.90462">
        <ele>570</ele>
        <time>2019-03-16T15:18:01Z</time>
      </trkpt>
      <trkpt lat="44.34399" lon="5.9046">
        <ele>571</ele>
        <time>2019-03-16T15:18:02Z</time>
      </trkpt>
      <trkpt lat="44.34395" lon="5.90457">
        <ele>571</ele>
        <time>2019-03-16T15:18:03Z</time>
      </trkpt>
      <trkpt lat="44.34391" lon="5.90455">
        <ele>571</ele>
        <time>2019-03-16T15:18:04Z</time>
      </trkpt>
      <trkpt lat="44.34387" lon="5.90453">
        <ele>571</ele>
        <time>2019-03-16T15:18:05Z</time>
      </trkpt>
      <trkpt lat="44.34382" lon="5.9045">
        <ele>571</ele>
        <time>2019-03-16T15:18:06Z</time>
      </trkpt>
      <trkpt lat="44.34377" lon="5.90447">
        <ele>571</ele>
        <time>2019-03-16T15:18:07Z</time>
      </trkpt>
      <trkpt lat="44.34372" lon="5.90444">
        <ele>571</ele>
        <time>2019-03-16T15:18:08Z</time>
      </trkpt>
      <trkpt lat="44.34365" lon="5.9044">
        <ele>571</ele>
        <time>2019-03-16T15:18:09Z</time>
      </trkpt>
      <trkpt lat="44.34359" lon="5.90437">
        <ele>571</ele>
        <time>2019-03-16T15:18:10Z</time>
      </trkpt>
      <trkpt lat="44.34352" lon="5.90433">
        <ele>571</ele>
        <time>2019-03-16T15:18:11Z</time>
      </trkpt>
      <trkpt lat="44.34345" lon="5.90429">
        <ele>571</ele>
        <time>2019-03-16T15:18:12Z</time>
      </trkpt>
      <trkpt lat="44.34337" lon="5.90424">
        <ele>571</ele>
        <time>2019-03-16T15:18:13Z</time>
      </trkpt>
      <trkpt lat="44.3433" lon="5.9042">
        <ele>571</ele>
        <time>2019-03-16T15:18:14Z</time>
      </trkpt>
      <trkpt lat="44.34324" lon="5.90414">
        <ele>571</ele>
        <time>2019-03-16T15:18:15Z</time>
      </trkpt>
      <trkpt lat="44.34317" lon="5.90409">
        <ele>571</ele>
        <time>2019-03-16T15:18:16Z</time>
      </trkpt>
      <trkpt lat="44.34311" lon="5.90403">
        <ele>571</ele>
        <time>2019-03-16T15:18:17Z</time>
      </trkpt>
      <trkpt lat="44.34305" lon="5.90398">
        <ele>571</ele>
        <time>2019-03-16T15:18:18Z</time>
      </trkpt>
      <trkpt lat="44.34299" lon="5.90391">
        <ele>571</ele>
        <time>2019-03-16T15:18:19Z</time>
      </trkpt>
      <trkpt lat="44.34293" lon="5.90386">
        <ele>571</ele>
        <time>2019-03-16T15:18:20Z</time>
      </trkpt>
      <trkpt lat="44.34288" lon="5.9038">
        <ele>571</ele>
        <time>2019-03-16T15:18:21Z</time>
      </trkpt>
      <trkpt lat="44.34282" lon="5.90374">
        <ele>571</ele>
        <time>2019-03-16T15:18:22Z</time>
      </trkpt>
      <trkpt lat="44.34277" lon="5.90368">
        <ele>571</ele>
        <time>2019-03-16T15:18:23Z</time>
      </trkpt>
      <trkpt lat="44.34272" lon="5.90363">
        <ele>571</ele>
        <time>2019-03-16T15:18:24Z</time>
      </trkpt>
      <trkpt lat="44.34267" lon="5.90357">
        <ele>571</ele>
        <time>2019-03-16T15:18:25Z</time>
      </trkpt>
      <trkpt lat="44.34263" lon="5.90352">
        <ele>571</ele>
        <time>2019-03-16T15:18:26Z</time>
      </trkpt>
      <trkpt lat="44.34259" lon="5.90347">
        <ele>571</ele>
        <time>2019-03-16T15:18:27Z</time>
      </trkpt>
      <trkpt lat="44.34255" lon="5.90342">
        <ele>571</ele>
        <time>2019-03-16T15:18:28Z</time>
      </trkpt>
      <trkpt lat="44.34251" lon="5.90337">
        <ele>571</ele>
        <time>2019-03-16T15:18:29Z</time>
      </trkpt>
      <trkpt lat="44.34247" lon="5.90332">
        <ele>571</ele>
        <time>2019-03-16T15:18:30Z</time>
      </trkpt>
      <trkpt lat="44.34244" lon="5.90327">
        <ele>571</ele>
        <time>2019-03-16T15:18:31Z</time>
      </trkpt>
      <trkpt lat="44.34241" lon="5.90323">
        <ele>571</ele>
        <time>2019-03-16T15:18:32Z</time>
      </trkpt>
      <trkpt lat="44.34238" lon="5.90318">
        <ele>572</ele>
        <time>2019-03-16T15:18:33Z</time>
      </trkpt>
      <trkpt lat="44.34234" lon="5.90313">
        <ele>572</ele>
        <time>2019-03-16T15:18:34Z</time>
      </trkpt>
      <trkpt lat="44.34231" lon="5.90309">
        <ele>572</ele>
        <time>2019-03-16T15:18:35Z</time>
      </trkpt>
      <trkpt lat="44.34227" lon="5.90304">
        <ele>572</ele>
        <time>2019-03-16T15:18:36Z</time>
      </trkpt>
      <trkpt lat="44.34223" lon="5.903">
        <ele>572</ele>
        <time>2019-03-16T15:18:37Z</time>
      </trkpt>
      <trkpt lat="44.3422" lon="5.90295">
        <ele>572</ele>
        <time>2019-03-16T15:18:38Z</time>
      </trkpt>
      <trkpt lat="44.34216" lon="5.9029">
        <ele>573</ele>
        <time>2019-03-16T15:18:39Z</time>
      </trkpt>
      <trkpt lat="44.34213" lon="5.90285">
        <ele>573</ele>
        <time>2019-03-16T15:18:40Z</time>
      </trkpt>
      <trkpt lat="44.34209" lon="5.90281">
        <ele>573</ele>
        <time>2019-03-16T15:18:41Z</time>
      </trkpt>
      <trkpt lat="44.34205" lon="5.90276">
        <ele>573</ele>
        <time>2019-03-16T15:18:42Z</time>
      </trkpt>
      <trkpt lat="44.34201" lon="5.90271">
        <ele>573</ele>
        <time>2019-03-16T15:18:43Z</time>
      </trkpt>
      <trkpt lat="44.34197" lon="5.90266">
        <ele>573</ele>
        <time>2019-03-16T15:18:44Z</time>
      </trkpt>
      <trkpt lat="44.34193" lon="5.90261">
        <ele>573</ele>
        <time>2019-03-16T15:18:45Z</time>
      </trkpt>
      <trkpt lat="44.34189" lon="5.90256">
        <ele>573</ele>
        <time>2019-03-16T15:18:46Z</time>
      </trkpt>
      <trkpt lat="44.34185" lon="5.90251">
        <ele>573</ele>
        <time>2019-03-16T15:18:47Z</time>
      </trkpt>
      <trkpt lat="44.34181" lon="5.90245">
        <ele>574</ele>
        <time>2019-03-16T15:18:48Z</time>
      </trkpt>
      <trkpt lat="44.34177" lon="5.9024">
        <ele>574</ele>
        <time>2019-03-16T15:18:49Z</time>
      </trkpt>
      <trkpt lat="44.34174" lon="5.90235">
        <ele>574</ele>
        <time>2019-03-16T15:18:50Z</time>
      </trkpt>
      <trkpt lat="44.3417" lon="5.9023">
        <ele>574</ele>
        <time>2019-03-16T15:18:51Z</time>
      </trkpt>
      <trkpt lat="44.34166" lon="5.90226">
        <ele>574</ele>
        <time>2019-03-16T15:18:52Z</time>
      </trkpt>
      <trkpt lat="44.34162" lon="5.90222">
        <ele>575</ele>
        <time>2019-03-16T15:18:53Z</time>
      </trkpt>
      <trkpt lat="44.34159" lon="5.90218">
        <ele>575</ele>
        <time>2019-03-16T15:18:54Z</time>
      </trkpt>
      <trkpt lat="44.34156" lon="5.90214">
        <ele>575</ele>
        <time>2019-03-16T15:18:55Z</time>
      </trkpt>
      <trkpt lat="44.34153" lon="5.90211">
        <ele>575</ele>
        <time>2019-03-16T15:18:56Z</time>
      </trkpt>
      <trkpt lat="44.3415" lon="5.90208">
        <ele>576</ele>
        <time>2019-03-16T15:18:57Z</time>
      </trkpt>
      <trkpt lat="44.34148" lon="5.90205">
        <ele>576</ele>
        <time>2019-03-16T15:18:58Z</time>
      </trkpt>
      <trkpt lat="44.34145" lon="5.90202">
        <ele>576</ele>
        <time>2019-03-16T15:18:59Z</time>
      </trkpt>
      <trkpt lat="44.34142" lon="5.90199">
        <ele>576</ele>
        <time>2019-03-16T15:19:00Z</time>
      </trkpt>
      <trkpt lat="44.34139" lon="5.90195">
        <ele>576</ele>
        <time>2019-03-16T15:19:01Z</time>
      </trkpt>
      <trkpt lat="44.34137" lon="5.90192">
        <ele>577</ele>
        <time>2019-03-16T15:19:02Z</time>
      </trkpt>
      <trkpt lat="44.34134" lon="5.90189">
        <ele>577</ele>
        <time>2019-03-16T15:19:03Z</time>
      </trkpt>
      <trkpt lat="44.34131" lon="5.90185">
        <ele>577</ele>
        <time>2019-03-16T15:19:04Z</time>
      </trkpt>
      <trkpt lat="44.34128" lon="5.90182">
        <ele>577</ele>
        <time>2019-03-16T15:19:05Z</time>
      </trkpt>
      <trkpt lat="44.34125" lon="5.90178">
        <ele>577</ele>
        <time>2019-03-16T15:19:06Z</time>
      </trkpt>
      <trkpt lat="44.34122" lon="5.90174">
        <ele>577</ele>
        <time>2019-03-16T15:19:07Z</time>
      </trkpt>
      <trkpt lat="44.34118" lon="5.90171">
        <ele>577</ele>
        <time>2019-03-16T15:19:08Z</time>
      </trkpt>
      <trkpt lat="44.34114" lon="5.90168">
        <ele>577</ele>
        <time>2019-03-16T15:19:09Z</time>
      </trkpt>
      <trkpt lat="44.34111" lon="5.90164">
        <ele>577</ele>
        <time>2019-03-16T15:19:10Z</time>
      </trkpt>
      <trkpt lat="44.34107" lon="5.9016">
        <ele>577</ele>
        <time>2019-03-16T15:19:11Z</time>
      </trkpt>
      <trkpt lat="44.34103" lon="5.90157">
        <ele>577</ele>
        <time>2019-03-16T15:19:12Z</time>
      </trkpt>
      <trkpt lat="44.34099" lon="5.90154">
        <ele>577</ele>
        <time>2019-03-16T15:19:13Z</time>
      </trkpt>
      <trkpt lat="44.34095" lon="5.9015">
        <ele>577</ele>
        <time>2019-03-16T15:19:14Z</time>
      </trkpt>
      <trkpt lat="44.34091" lon="5.90146">
        <ele>577</ele>
        <time>2019-03-16T15:19:15Z</time>
      </trkpt>
      <trkpt lat="44.34086" lon="5.90142">
        <ele>577</ele>
        <time>2019-03-16T15:19:16Z</time>
      </trkpt>
      <trkpt lat="44.34081" lon="5.90138">
        <ele>577</ele>
        <time>2019-03-16T15:19:17Z</time>
      </trkpt>
      <trkpt lat="44.34076" lon="5.90133">
        <ele>577</ele>
        <time>2019-03-16T15:19:18Z</time>
      </trkpt>
      <trkpt lat="44.3407" lon="5.90128">
        <ele>577</ele>
        <time>2019-03-16T15:19:19Z</time>
      </trkpt>
      <trkpt lat="44.34064" lon="5.90123">
        <ele>577</ele>
        <time>2019-03-16T15:19:20Z</time>
      </trkpt>
      <trkpt lat="44.34058" lon="5.90117">
        <ele>577</ele>
        <time>2019-03-16T15:19:21Z</time>
      </trkpt>
      <trkpt lat="44.34052" lon="5.90112">
        <ele>577</ele>
        <time>2019-03-16T15:19:22Z</time>
      </trkpt>
      <trkpt lat="44.34045" lon="5.90106">
        <ele>577</ele>
        <time>2019-03-16T15:19:23Z</time>
      </trkpt>
      <trkpt lat="44.34039" lon="5.901">
        <ele>577</ele>
        <time>2019-03-16T15:19:24Z</time>
      </trkpt>
      <trkpt lat="44.34032" lon="5.90094">
        <ele>577</ele>
        <time>2019-03-16T15:19:25Z</time>
      </trkpt>
      <trkpt lat="44.34024" lon="5.90087">
        <ele>577</ele>
        <time>2019-03-16T15:19:26Z</time>
      </trkpt>
      <trkpt lat="44.34017" lon="5.90081">
        <ele>577</ele>
        <time>2019-03-16T15:19:27Z</time>
      </trkpt>
      <trkpt lat="44.3401" lon="5.90074">
        <ele>576</ele>
        <time>2019-03-16T15:19:28Z</time>
      </trkpt>
      <trkpt lat="44.34003" lon="5.90068">
        <ele>576</ele>
        <time>2019-03-16T15:19:29Z</time>
      </trkpt>
      <trkpt lat="44.33995" lon="5.90061">
        <ele>576</ele>
        <time>2019-03-16T15:19:30Z</time>
      </trkpt>
      <trkpt lat="44.33988" lon="5.90054">
        <ele>575</ele>
        <time>2019-03-16T15:19:31Z</time>
      </trkpt>
      <trkpt lat="44.33981" lon="5.90047">
        <ele>575</ele>
        <time>2019-03-16T15:19:32Z</time>
      </trkpt>
      <trkpt lat="44.33975" lon="5.90039">
        <ele>575</ele>
        <time>2019-03-16T15:19:33Z</time>
      </trkpt>
      <trkpt lat="44.33968" lon="5.90033">
        <ele>575</ele>
        <time>2019-03-16T15:19:34Z</time>
      </trkpt>
      <trkpt lat="44.33962" lon="5.90026">
        <ele>575</ele>
        <time>2019-03-16T15:19:35Z</time>
      </trkpt>
      <trkpt lat="44.33956" lon="5.90019">
        <ele>575</ele>
        <time>2019-03-16T15:19:36Z</time>
      </trkpt>
      <trkpt lat="44.33951" lon="5.90012">
        <ele>575</ele>
        <time>2019-03-16T15:19:37Z</time>
      </trkpt>
      <trkpt lat="44.33945" lon="5.90006">
        <ele>575</ele>
        <time>2019-03-16T15:19:38Z</time>
      </trkpt>
      <trkpt lat="44.3394" lon="5.89999">
        <ele>575</ele>
        <time>2019-03-16T15:19:39Z</time>
      </trkpt>
      <trkpt lat="44.33935" lon="5.89993">
        <ele>575</ele>
        <time>2019-03-16T15:19:40Z</time>
      </trkpt>
      <trkpt lat="44.33931" lon="5.89988">
        <ele>575</ele>
        <time>2019-03-16T15:19:41Z</time>
      </trkpt>
      <trkpt lat="44.33926" lon="5.89983">
        <ele>575</ele>
        <time>2019-03-16T15:19:42Z</time>
      </trkpt>
      <trkpt lat="44.33921" lon="5.89977">
        <ele>575</ele>
        <time>2019-03-16T15:19:43Z</time>
      </trkpt>
      <trkpt lat="44.33916" lon="5.89972">
        <ele>575</ele>
        <time>2019-03-16T15:19:44Z</time>
      </trkpt>
      <trkpt lat="44.33911" lon="5.89966">
        <ele>575</ele>
        <time>2019-03-16T15:19:45Z</time>
      </trkpt>
      <trkpt lat="44.33905" lon="5.89961">
        <ele>575</ele>
        <time>2019-03-16T15:19:46Z</time>
      </trkpt>
      <trkpt lat="44.339" lon="5.89956">
        <ele>575</ele>
        <time>2019-03-16T15:19:47Z</time>
      </trkpt>
      <trkpt lat="44.33895" lon="5.8995">
        <ele>575</ele>
        <time>2019-03-16T15:19:48Z</time>
      </trkpt>
      <trkpt lat="44.33889" lon="5.89945">
        <ele>575</ele>
        <time>2019-03-16T15:19:49Z</time>
      </trkpt>
      <trkpt lat="44.33883" lon="5.89939">
        <ele>575</ele>
        <time>2019-03-16T15:19:50Z</time>
      </trkpt>
      <trkpt lat="44.33877" lon="5.89934">
        <ele>575</ele>
        <time>2019-03-16T15:19:51Z</time>
      </trkpt>
      <trkpt lat="44.33871" lon="5.89929">
        <ele>575</ele>
        <time>2019-03-16T15:19:52Z</time>
      </trkpt>
      <trkpt lat="44.33865" lon="5.89923">
        <ele>575</ele>
        <time>2019-03-16T15:19:53Z</time>
      </trkpt>
      <trkpt lat="44.33859" lon="5.89917">
        <ele>575</ele>
        <time>2019-03-16T15:19:54Z</time>
      </trkpt>
      <trkpt lat="44.33852" lon="5.89912">
        <ele>575</ele>
        <time>2019-03-16T15:19:55Z</time>
      </trkpt>
      <trkpt lat="44.33846" lon="5.89906">
        <ele>575</ele>
        <time>2019-03-16T15:19:56Z</time>
      </trkpt>
      <trkpt lat="44.33838" lon="5.89901">
        <ele>575</ele>
        <time>2019-03-16T15:19:57Z</time>
      </trkpt>
      <trkpt lat="44.33831" lon="5.89895">
        <ele>574</ele>
        <time>2019-03-16T15:19:58Z</time>
      </trkpt>
      <trkpt lat="44.33823" lon="5.8989">
        <ele>574</ele>
        <time>2019-03-16T15:19:59Z</time>
      </trkpt>
      <trkpt lat="44.33815" lon="5.89884">
        <ele>574</ele>
        <time>2019-03-16T15:20:00Z</time>
      </trkpt>
      <trkpt lat="44.33808" lon="5.89878">
        <ele>573</ele>
        <time>2019-03-16T15:20:01Z</time>
      </trkpt>
      <trkpt lat="44.338" lon="5.89872">
        <ele>573</ele>
        <time>2019-03-16T15:20:02Z</time>
      </trkpt>
      <trkpt lat="44.33792" lon="5.89866">
        <ele>573</ele>
        <time>2019-03-16T15:20:03Z</time>
      </trkpt>
      <trkpt lat="44.33784" lon="5.8986">
        <ele>572</ele>
        <time>2019-03-16T15:20:04Z</time>
      </trkpt>
      <trkpt lat="44.33777" lon="5.89854">
        <ele>572</ele>
        <time>2019-03-16T15:20:05Z</time>
      </trkpt>
      <trkpt lat="44.33769" lon="5.89848">
        <ele>571</ele>
        <time>2019-03-16T15:20:06Z</time>
      </trkpt>
      <trkpt lat="44.33761" lon="5.89842">
        <ele>571</ele>
        <time>2019-03-16T15:20:07Z</time>
      </trkpt>
      <trkpt lat="44.33754" lon="5.89835">
        <ele>571</ele>
        <time>2019-03-16T15:20:08Z</time>
      </trkpt>
      <trkpt lat="44.33746" lon="5.89828">
        <ele>570</ele>
        <time>2019-03-16T15:20:09Z</time>
      </trkpt>
      <trkpt lat="44.33739" lon="5.89823">
        <ele>570</ele>
        <time>2019-03-16T15:20:10Z</time>
      </trkpt>
      <trkpt lat="44.33731" lon="5.89818">
        <ele>570</ele>
        <time>2019-03-16T15:20:11Z</time>
      </trkpt>
      <trkpt lat="44.33723" lon="5.89813">
        <ele>570</ele>
        <time>2019-03-16T15:20:12Z</time>
      </trkpt>
      <trkpt lat="44.33716" lon="5.89808">
        <ele>570</ele>
        <time>2019-03-16T15:20:13Z</time>
      </trkpt>
      <trkpt lat="44.33709" lon="5.89804">
        <ele>570</ele>
        <time>2019-03-16T15:20:14Z</time>
      </trkpt>
      <trkpt lat="44.33702" lon="5.898">
        <ele>570</ele>
        <time>2019-03-16T15:20:15Z</time>
      </trkpt>
      <trkpt lat="44.33696" lon="5.89796">
        <ele>570</ele>
        <time>2019-03-16T15:20:16Z</time>
      </trkpt>
      <trkpt lat="44.3369" lon="5.89792">
        <ele>570</ele>
        <time>2019-03-16T15:20:17Z</time>
      </trkpt>
      <trkpt lat="44.33684" lon="5.89789">
        <ele>570</ele>
        <time>2019-03-16T15:20:18Z</time>
      </trkpt>
      <trkpt lat="44.33678" lon="5.89786">
        <ele>570</ele>
        <time>2019-03-16T15:20:19Z</time>
      </trkpt>
      <trkpt lat="44.33672" lon="5.89783">
        <ele>570</ele>
        <time>2019-03-16T15:20:20Z</time>
      </trkpt>
      <trkpt lat="44.33666" lon="5.8978">
        <ele>570</ele>
        <time>2019-03-16T15:20:21Z</time>
      </trkpt>
      <trkpt lat="44.3366" lon="5.89776">
        <ele>570</ele>
        <time>2019-03-16T15:20:22Z</time>
      </trkpt>
      <trkpt lat="44.33654" lon="5.89773">
        <ele>570</ele>
        <time>2019-03-16T15:20:23Z</time>
      </trkpt>
      <trkpt lat="44.33649" lon="5.8977">
        <ele>570</ele>
        <time>2019-03-16T15:20:24Z</time>
      </trkpt>
      <trkpt lat="44.33642" lon="5.89767">
        <ele>570</ele>
        <time>2019-03-16T15:20:25Z</time>
      </trkpt>
      <trkpt lat="44.33636" lon="5.89763">
        <ele>570</ele>
        <time>2019-03-16T15:20:26Z</time>
      </trkpt>
      <trkpt lat="44.3363" lon="5.8976">
        <ele>570</ele>
        <time>2019-03-16T15:20:27Z</time>
      </trkpt>
      <trkpt lat="44.33624" lon="5.89757">
        <ele>570</ele>
        <time>2019-03-16T15:20:28Z</time>
      </trkpt>
      <trkpt lat="44.33618" lon="5.89753">
        <ele>570</ele>
        <time>2019-03-16T15:20:29Z</time>
      </trkpt>
      <trkpt lat="44.33612" lon="5.8975">
        <ele>570</ele>
        <time>2019-03-16T15:20:30Z</time>
      </trkpt>
      <trkpt lat="44.33606" lon="5.89747">
        <ele>570</ele>
        <time>2019-03-16T15:20:31Z</time>
      </trkpt>
      <trkpt lat="44.336" lon="5.89744">
        <ele>570</ele>
        <time>2019-03-16T15:20:32Z</time>
      </trkpt>
      <trkpt lat="44.33594" lon="5.89741">
        <ele>570</ele>
        <time>2019-03-16T15:20:33Z</time>
      </trkpt>
      <trkpt lat="44.33588" lon="5.89739">
        <ele>569</ele>
        <time>2019-03-16T15:20:34Z</time>
      </trkpt>
      <trkpt lat="44.33582" lon="5.89736">
        <ele>569</ele>
        <time>2019-03-16T15:20:35Z</time>
      </trkpt>
      <trkpt lat="44.33576" lon="5.89733">
        <ele>569</ele>
        <time>2019-03-16T15:20:36Z</time>
      </trkpt>
      <trkpt lat="44.3357" lon="5.8973">
        <ele>569</ele>
        <time>2019-03-16T15:20:37Z</time>
      </trkpt>
      <trkpt lat="44.33564" lon="5.89727">
        <ele>569</ele>
        <time>2019-03-16T15:20:38Z</time>
      </trkpt>
      <trkpt lat="44.33557" lon="5.89724">
        <ele>569</ele>
        <time>2019-03-16T15:20:39Z</time>
      </trkpt>
      <trkpt lat="44.33551" lon="5.89721">
        <ele>569</ele>
        <time>2019-03-16T15:20:40Z</time>
      </trkpt>
      <trkpt lat="44.33544" lon="5.89718">
        <ele>569</ele>
        <time>2019-03-16T15:20:41Z</time>
      </trkpt>
      <trkpt lat="44.33538" lon="5.89715">
        <ele>569</ele>
        <time>2019-03-16T15:20:42Z</time>
      </trkpt>
      <trkpt lat="44.33532" lon="5.89711">
        <ele>569</ele>
        <time>2019-03-16T15:20:43Z</time>
      </trkpt>
      <trkpt lat="44.33525" lon="5.89708">
        <ele>569</ele>
        <time>2019-03-16T15:20:44Z</time>
      </trkpt>
      <trkpt lat="44.33519" lon="5.89705">
        <ele>569</ele>
        <time>2019-03-16T15:20:45Z</time>
      </trkpt>
      <trkpt lat="44.33512" lon="5.89702">
        <ele>568</ele>
        <time>2019-03-16T15:20:46Z</time>
      </trkpt>
      <trkpt lat="44.33506" lon="5.89698">
        <ele>568</ele>
        <time>2019-03-16T15:20:47Z</time>
      </trkpt>
      <trkpt lat="44.33499" lon="5.89695">
        <ele>568</ele>
        <time>2019-03-16T15:20:48Z</time>
      </trkpt>
      <trkpt lat="44.33493" lon="5.89692">
        <ele>567</ele>
        <time>2019-03-16T15:20:49Z</time>
      </trkpt>
      <trkpt lat="44.33487" lon="5.89689">
        <ele>567</ele>
        <time>2019-03-16T15:20:50Z</time>
      </trkpt>
      <trkpt lat="44.3348" lon="5.89686">
        <ele>567</ele>
        <time>2019-03-16T15:20:51Z</time>
      </trkpt>
      <trkpt lat="44.33474" lon="5.89683">
        <ele>567</ele>
        <time>2019-03-16T15:20:52Z</time>
      </trkpt>
      <trkpt lat="44.33467" lon="5.8968">
        <ele>566</ele>
        <time>2019-03-16T15:20:53Z</time>
      </trkpt>
      <trkpt lat="44.33461" lon="5.89677">
        <ele>566</ele>
        <time>2019-03-16T15:20:54Z</time>
      </trkpt>
      <trkpt lat="44.33455" lon="5.89674">
        <ele>566</ele>
        <time>2019-03-16T15:20:55Z</time>
      </trkpt>
      <trkpt lat="44.33449" lon="5.89671">
        <ele>566</ele>
        <time>2019-03-16T15:20:56Z</time>
      </trkpt>
      <trkpt lat="44.33443" lon="5.89669">
        <ele>566</ele>
        <time>2019-03-16T15:20:57Z</time>
      </trkpt>
      <trkpt lat="44.33436" lon="5.89666">
        <ele>566</ele>
        <time>2019-03-16T15:20:58Z</time>
      </trkpt>
      <trkpt lat="44.3343" lon="5.89663">
        <ele>566</ele>
        <time>2019-03-16T15:20:59Z</time>
      </trkpt>
      <trkpt lat="44.33424" lon="5.8966">
        <ele>566</ele>
        <time>2019-03-16T15:21:00Z</time>
      </trkpt>
      <trkpt lat="44.33418" lon="5.89657">
        <ele>566</ele>
        <time>2019-03-16T15:21:01Z</time>
      </trkpt>
      <trkpt lat="44.33411" lon="5.89654">
        <ele>566</ele>
        <time>2019-03-16T15:21:02Z</time>
      </trkpt>
      <trkpt lat="44.33405" lon="5.89651">
        <ele>566</ele>
        <time>2019-03-16T15:21:03Z</time>
      </trkpt>
      <trkpt lat="44.33399" lon="5.89649">
        <ele>566</ele>
        <time>2019-03-16T15:21:04Z</time>
      </trkpt>
      <trkpt lat="44.33392" lon="5.89646">
        <ele>566</ele>
        <time>2019-03-16T15:21:05Z</time>
      </trkpt>
      <trkpt lat="44.33386" lon="5.89643">
        <ele>566</ele>
        <time>2019-03-16T15:21:06Z</time>
      </trkpt>
      <trkpt lat="44.3338" lon="5.8964">
        <ele>566</ele>
        <time>2019-03-16T15:21:07Z</time>
      </trkpt>
      <trkpt lat="44.33373" lon="5.89637">
        <ele>566</ele>
        <time>2019-03-16T15:21:08Z</time>
      </trkpt>
      <trkpt lat="44.33367" lon="5.89634">
        <ele>566</ele>
        <time>2019-03-16T15:21:09Z</time>
      </trkpt>
      <trkpt lat="44.33361" lon="5.89631">
        <ele>566</ele>
        <time>2019-03-16T15:21:10Z</time>
      </trkpt>
      <trkpt lat="44.33354" lon="5.89628">
        <ele>566</ele>
        <time>2019-03-16T15:21:11Z</time>
      </trkpt>
      <trkpt lat="44.33348" lon="5.89626">
        <ele>566</ele>
        <time>2019-03-16T15:21:12Z</time>
      </trkpt>
      <trkpt lat="44.33342" lon="5.89622">
        <ele>566</ele>
        <time>2019-03-16T15:21:13Z</time>
      </trkpt>
      <trkpt lat="44.33336" lon="5.8962">
        <ele>566</ele>
        <time>2019-03-16T15:21:14Z</time>
      </trkpt>
      <trkpt lat="44.33329" lon="5.89617">
        <ele>566</ele>
        <time>2019-03-16T15:21:15Z</time>
      </trkpt>
      <trkpt lat="44.33323" lon="5.89614">
        <ele>566</ele>
        <time>2019-03-16T15:21:16Z</time>
      </trkpt>
      <trkpt lat="44.33317" lon="5.89612">
        <ele>566</ele>
        <time>2019-03-16T15:21:17Z</time>
      </trkpt>
      <trkpt lat="44.3331" lon="5.89609">
        <ele>566</ele>
        <time>2019-03-16T15:21:18Z</time>
      </trkpt>
      <trkpt lat="44.33304" lon="5.89606">
        <ele>566</ele>
        <time>2019-03-16T15:21:19Z</time>
      </trkpt>
      <trkpt lat="44.33298" lon="5.89604">
        <ele>566</ele>
        <time>2019-03-16T15:21:20Z</time>
      </trkpt>
      <trkpt lat="44.33293" lon="5.89602">
        <ele>566</ele>
        <time>2019-03-16T15:21:21Z</time>
      </trkpt>
      <trkpt lat="44.33287" lon="5.896">
        <ele>566</ele>
        <time>2019-03-16T15:21:22Z</time>
      </trkpt>
      <trkpt lat="44.33281" lon="5.89597">
        <ele>566</ele>
        <time>2019-03-16T15:21:23Z</time>
      </trkpt>
      <trkpt lat="44.33276" lon="5.89595">
        <ele>566</ele>
        <time>2019-03-16T15:21:24Z</time>
      </trkpt>
      <trkpt lat="44.3327" lon="5.89592">
        <ele>566</ele>
        <time>2019-03-16T15:21:25Z</time>
      </trkpt>
      <trkpt lat="44.33264" lon="5.8959">
        <ele>566</ele>
        <time>2019-03-16T15:21:26Z</time>
      </trkpt>
      <trkpt lat="44.33258" lon="5.89588">
        <ele>566</ele>
        <time>2019-03-16T15:21:27Z</time>
      </trkpt>
      <trkpt lat="44.33252" lon="5.89586">
        <ele>566</ele>
        <time>2019-03-16T15:21:28Z</time>
      </trkpt>
      <trkpt lat="44.33246" lon="5.89584">
        <ele>566</ele>
        <time>2019-03-16T15:21:29Z</time>
      </trkpt>
      <trkpt lat="44.3324" lon="5.89581">
        <ele>566</ele>
        <time>2019-03-16T15:21:30Z</time>
      </trkpt>
      <trkpt lat="44.33234" lon="5.89579">
        <ele>566</ele>
        <time>2019-03-16T15:21:31Z</time>
      </trkpt>
      <trkpt lat="44.33228" lon="5.89577">
        <ele>566</ele>
        <time>2019-03-16T15:21:32Z</time>
      </trkpt>
      <trkpt lat="44.33222" lon="5.89575">
        <ele>566</ele>
        <time>2019-03-16T15:21:33Z</time>
      </trkpt>
      <trkpt lat="44.33216" lon="5.89573">
        <ele>567</ele>
        <time>2019-03-16T15:21:34Z</time>
      </trkpt>
      <trkpt lat="44.33211" lon="5.89571">
        <ele>567</ele>
        <time>2019-03-16T15:21:35Z</time>
      </trkpt>
      <trkpt lat="44.33205" lon="5.89568">
        <ele>567</ele>
        <time>2019-03-16T15:21:36Z</time>
      </trkpt>
      <trkpt lat="44.33199" lon="5.89566">
        <ele>567</ele>
        <time>2019-03-16T15:21:37Z</time>
      </trkpt>
      <trkpt lat="44.33192" lon="5.89564">
        <ele>567</ele>
        <time>2019-03-16T15:21:38Z</time>
      </trkpt>
      <trkpt lat="44.33186" lon="5.89562">
        <ele>567</ele>
        <time>2019-03-16T15:21:39Z</time>
      </trkpt>
      <trkpt lat="44.3318" lon="5.8956">
        <ele>567</ele>
        <time>2019-03-16T15:21:40Z</time>
      </trkpt>
      <trkpt lat="44.33174" lon="5.89558">
        <ele>567</ele>
        <time>2019-03-16T15:21:41Z</time>
      </trkpt>
      <trkpt lat="44.33168" lon="5.89555">
        <ele>567</ele>
        <time>2019-03-16T15:21:42Z</time>
      </trkpt>
      <trkpt lat="44.33161" lon="5.89553">
        <ele>567</ele>
        <time>2019-03-16T15:21:43Z</time>
      </trkpt>
      <trkpt lat="44.33155" lon="5.89552">
        <ele>567</ele>
        <time>2019-03-16T15:21:44Z</time>
      </trkpt>
      <trkpt lat="44.33149" lon="5.8955">
        <ele>567</ele>
        <time>2019-03-16T15:21:45Z</time>
      </trkpt>
      <trkpt lat="44.33143" lon="5.89548">
        <ele>567</ele>
        <time>2019-03-16T15:21:46Z</time>
      </trkpt>
      <trkpt lat="44.33136" lon="5.89547">
        <ele>567</ele>
        <time>2019-03-16T15:21:47Z</time>
      </trkpt>
      <trkpt lat="44.3313" lon="5.89545">
        <ele>567</ele>
        <time>2019-03-16T15:21:48Z</time>
      </trkpt>
      <trkpt lat="44.33123" lon="5.89543">
        <ele>567</ele>
        <time>2019-03-16T15:21:49Z</time>
      </trkpt>
      <trkpt lat="44.33117" lon="5.89541">
        <ele>567</ele>
        <time>2019-03-16T15:21:50Z</time>
      </trkpt>
      <trkpt lat="44.33111" lon="5.89539">
        <ele>567</ele>
        <time>2019-03-16T15:21:51Z</time>
      </trkpt>
      <trkpt lat="44.33105" lon="5.89537">
        <ele>567</ele>
        <time>2019-03-16T15:21:52Z</time>
      </trkpt>
      <trkpt lat="44.33099" lon="5.89535">
        <ele>567</ele>
        <time>2019-03-16T15:21:53Z</time>
      </trkpt>
      <trkpt lat="44.33093" lon="5.89534">
        <ele>567</ele>
        <time>2019-03-16T15:21:54Z</time>
      </trkpt>
      <trkpt lat="44.33087" lon="5.89532">
        <ele>568</ele>
        <time>2019-03-16T15:21:55Z</time>
      </trkpt>
      <trkpt lat="44.33081" lon="5.8953">
        <ele>568</ele>
        <time>2019-03-16T15:21:56Z</time>
      </trkpt>
      <trkpt lat="44.33074" lon="5.89528">
        <ele>568</ele>
        <time>2019-03-16T15:21:57Z</time>
      </trkpt>
      <trkpt lat="44.33068" lon="5.89526">
        <ele>568</ele>
        <time>2019-03-16T15:21:58Z</time>
      </trkpt>
      <trkpt lat="44.33062" lon="5.89525">
        <ele>568</ele>
        <time>2019-03-16T15:21:59Z</time>
      </trkpt>
      <trkpt lat="44.33056" lon="5.89523">
        <ele>569</ele>
        <time>2019-03-16T15:22:00Z</time>
      </trkpt>
      <trkpt lat="44.33049" lon="5.89521">
        <ele>569</ele>
        <time>2019-03-16T15:22:01Z</time>
      </trkpt>
      <trkpt lat="44.33043" lon="5.89518">
        <ele>569</ele>
        <time>2019-03-16T15:22:02Z</time>
      </trkpt>
      <trkpt lat="44.33037" lon="5.89516">
        <ele>570</ele>
        <time>2019-03-16T15:22:03Z</time>
      </trkpt>
      <trkpt lat="44.33031" lon="5.89513">
        <ele>570</ele>
        <time>2019-03-16T15:22:04Z</time>
      </trkpt>
      <trkpt lat="44.33025" lon="5.89511">
        <ele>570</ele>
        <time>2019-03-16T15:22:05Z</time>
      </trkpt>
      <trkpt lat="44.33019" lon="5.89509">
        <ele>570</ele>
        <time>2019-03-16T15:22:06Z</time>
      </trkpt>
      <trkpt lat="44.33013" lon="5.89506">
        <ele>570</ele>
        <time>2019-03-16T15:22:07Z</time>
      </trkpt>
      <trkpt lat="44.33007" lon="5.89504">
        <ele>570</ele>
        <time>2019-03-16T15:22:08Z</time>
      </trkpt>
      <trkpt lat="44.33001" lon="5.89502">
        <ele>570</ele>
        <time>2019-03-16T15:22:09Z</time>
      </trkpt>
      <trkpt lat="44.32996" lon="5.89499">
        <ele>570</ele>
        <time>2019-03-16T15:22:10Z</time>
      </trkpt>
      <trkpt lat="44.3299" lon="5.89497">
        <ele>570</ele>
        <time>2019-03-16T15:22:11Z</time>
      </trkpt>
      <trkpt lat="44.32984" lon="5.89495">
        <ele>570</ele>
        <time>2019-03-16T15:22:12Z</time>
      </trkpt>
      <trkpt lat="44.32978" lon="5.89492">
        <ele>570</ele>
        <time>2019-03-16T15:22:13Z</time>
      </trkpt>
      <trkpt lat="44.32973" lon="5.8949">
        <ele>570</ele>
        <time>2019-03-16T15:22:14Z</time>
      </trkpt>
      <trkpt lat="44.32968" lon="5.89487">
        <ele>570</ele>
        <time>2019-03-16T15:22:15Z</time>
      </trkpt>
      <trkpt lat="44.32962" lon="5.89484">
        <ele>570</ele>
        <time>2019-03-16T15:22:16Z</time>
      </trkpt>
      <trkpt lat="44.32957" lon="5.89481">
        <ele>570</ele>
        <time>2019-03-16T15:22:17Z</time>
      </trkpt>
      <trkpt lat="44.32952" lon="5.89478">
        <ele>570</ele>
        <time>2019-03-16T15:22:18Z</time>
      </trkpt>
      <trkpt lat="44.32946" lon="5.89475">
        <ele>570</ele>
        <time>2019-03-16T15:22:19Z</time>
      </trkpt>
      <trkpt lat="44.32941" lon="5.89472">
        <ele>570</ele>
        <time>2019-03-16T15:22:20Z</time>
      </trkpt>
      <trkpt lat="44.32936" lon="5.89469">
        <ele>570</ele>
        <time>2019-03-16T15:22:21Z</time>
      </trkpt>
      <trkpt lat="44.3293" lon="5.89466">
        <ele>570</ele>
        <time>2019-03-16T15:22:22Z</time>
      </trkpt>
      <trkpt lat="44.32925" lon="5.89462">
        <ele>570</ele>
        <time>2019-03-16T15:22:23Z</time>
      </trkpt>
      <trkpt lat="44.3292" lon="5.89458">
        <ele>570</ele>
        <time>2019-03-16T15:22:24Z</time>
      </trkpt>
      <trkpt lat="44.32915" lon="5.89455">
        <ele>570</ele>
        <time>2019-03-16T15:22:25Z</time>
      </trkpt>
      <trkpt lat="44.3291" lon="5.89451">
        <ele>570</ele>
        <time>2019-03-16T15:22:26Z</time>
      </trkpt>
      <trkpt lat="44.32905" lon="5.89448">
        <ele>570</ele>
        <time>2019-03-16T15:22:27Z</time>
      </trkpt>
      <trkpt lat="44.329" lon="5.89444">
        <ele>570</ele>
        <time>2019-03-16T15:22:28Z</time>
      </trkpt>
      <trkpt lat="44.32895" lon="5.89441">
        <ele>570</ele>
        <time>2019-03-16T15:22:29Z</time>
      </trkpt>
      <trkpt lat="44.3289" lon="5.89438">
        <ele>570</ele>
        <time>2019-03-16T15:22:30Z</time>
      </trkpt>
      <trkpt lat="44.32885" lon="5.89434">
        <ele>570</ele>
        <time>2019-03-16T15:22:31Z</time>
      </trkpt>
      <trkpt lat="44.3288" lon="5.8943">
        <ele>570</ele>
        <time>2019-03-16T15:22:32Z</time>
      </trkpt>
      <trkpt lat="44.32875" lon="5.89427">
        <ele>570</ele>
        <time>2019-03-16T15:22:33Z</time>
      </trkpt>
      <trkpt lat="44.3287" lon="5.89423">
        <ele>570</ele>
        <time>2019-03-16T15:22:34Z</time>
      </trkpt>
      <trkpt lat="44.32865" lon="5.89419">
        <ele>570</ele>
        <time>2019-03-16T15:22:35Z</time>
      </trkpt>
      <trkpt lat="44.3286" lon="5.89416">
        <ele>570</ele>
        <time>2019-03-16T15:22:36Z</time>
      </trkpt>
      <trkpt lat="44.32855" lon="5.89412">
        <ele>570</ele>
        <time>2019-03-16T15:22:37Z</time>
      </trkpt>
      <trkpt lat="44.3285" lon="5.89408">
        <ele>570</ele>
        <time>2019-03-16T15:22:38Z</time>
      </trkpt>
      <trkpt lat="44.32845" lon="5.89405">
        <ele>570</ele>
        <time>2019-03-16T15:22:39Z</time>
      </trkpt>
      <trkpt lat="44.3284" lon="5.89401">
        <ele>570</ele>
        <time>2019-03-16T15:22:40Z</time>
      </trkpt>
      <trkpt lat="44.32835" lon="5.89398">
        <ele>570</ele>
        <time>2019-03-16T15:22:41Z</time>
      </trkpt>
      <trkpt lat="44.3283" lon="5.89395">
        <ele>570</ele>
        <time>2019-03-16T15:22:42Z</time>
      </trkpt>
      <trkpt lat="44.32825" lon="5.89392">
        <ele>570</ele>
        <time>2019-03-16T15:22:43Z</time>
      </trkpt>
      <trkpt lat="44.3282" lon="5.89388">
        <ele>570</ele>
        <time>2019-03-16T15:22:44Z</time>
      </trkpt>
      <trkpt lat="44.32815" lon="5.89385">
        <ele>570</ele>
        <time>2019-03-16T15:22:45Z</time>
      </trkpt>
      <trkpt lat="44.3281" lon="5.89382">
        <ele>570</ele>
        <time>2019-03-16T15:22:46Z</time>
      </trkpt>
      <trkpt lat="44.32805" lon="5.89378">
        <ele>570</ele>
        <time>2019-03-16T15:22:47Z</time>
      </trkpt>
      <trkpt lat="44.328" lon="5.89374">
        <ele>570</ele>
        <time>2019-03-16T15:22:48Z</time>
      </trkpt>
      <trkpt lat="44.32794" lon="5.89371">
        <ele>570</ele>
        <time>2019-03-16T15:22:49Z</time>
      </trkpt>
      <trkpt lat="44.32789" lon="5.89367">
        <ele>570</ele>
        <time>2019-03-16T15:22:50Z</time>
      </trkpt>
      <trkpt lat="44.32784" lon="5.89363">
        <ele>570</ele>
        <time>2019-03-16T15:22:51Z</time>
      </trkpt>
      <trkpt lat="44.32779" lon="5.89359">
        <ele>570</ele>
        <time>2019-03-16T15:22:52Z</time>
      </trkpt>
      <trkpt lat="44.32774" lon="5.89356">
        <ele>570</ele>
        <time>2019-03-16T15:22:53Z</time>
      </trkpt>
      <trkpt lat="44.32769" lon="5.89352">
        <ele>571</ele>
        <time>2019-03-16T15:22:54Z</time>
      </trkpt>
      <trkpt lat="44.32764" lon="5.89348">
        <ele>571</ele>
        <time>2019-03-16T15:22:55Z</time>
      </trkpt>
      <trkpt lat="44.32758" lon="5.89345">
        <ele>571</ele>
        <time>2019-03-16T15:22:56Z</time>
      </trkpt>
      <trkpt lat="44.32753" lon="5.89341">
        <ele>571</ele>
        <time>2019-03-16T15:22:57Z</time>
      </trkpt>
      <trkpt lat="44.32748" lon="5.89337">
        <ele>571</ele>
        <time>2019-03-16T15:22:58Z</time>
      </trkpt>
      <trkpt lat="44.32742" lon="5.89334">
        <ele>571</ele>
        <time>2019-03-16T15:22:59Z</time>
      </trkpt>
      <trkpt lat="44.32737" lon="5.8933">
        <ele>571</ele>
        <time>2019-03-16T15:23:00Z</time>
      </trkpt>
      <trkpt lat="44.32731" lon="5.89326">
        <ele>571</ele>
        <time>2019-03-16T15:23:01Z</time>
      </trkpt>
      <trkpt lat="44.32726" lon="5.89323">
        <ele>572</ele>
        <time>2019-03-16T15:23:02Z</time>
      </trkpt>
      <trkpt lat="44.32721" lon="5.89319">
        <ele>572</ele>
        <time>2019-03-16T15:23:03Z</time>
      </trkpt>
      <trkpt lat="44.32715" lon="5.89316">
        <ele>572</ele>
        <time>2019-03-16T15:23:04Z</time>
      </trkpt>
      <trkpt lat="44.3271" lon="5.89312">
        <ele>572</ele>
        <time>2019-03-16T15:23:05Z</time>
      </trkpt>
      <trkpt lat="44.32704" lon="5.89308">
        <ele>572</ele>
        <time>2019-03-16T15:23:06Z</time>
      </trkpt>
      <trkpt lat="44.32699" lon="5.89304">
        <ele>572</ele>
        <time>2019-03-16T15:23:07Z</time>
      </trkpt>
      <trkpt lat="44.32694" lon="5.893">
        <ele>572</ele>
        <time>2019-03-16T15:23:08Z</time>
      </trkpt>
      <trkpt lat="44.32688" lon="5.89296">
        <ele>572</ele>
        <time>2019-03-16T15:23:09Z</time>
      </trkpt>
      <trkpt lat="44.32683" lon="5.89293">
        <ele>572</ele>
        <time>2019-03-16T15:23:10Z</time>
      </trkpt>
      <trkpt lat="44.32678" lon="5.89289">
        <ele>572</ele>
        <time>2019-03-16T15:23:11Z</time>
      </trkpt>
      <trkpt lat="44.32672" lon="5.89285">
        <ele>572</ele>
        <time>2019-03-16T15:23:12Z</time>
      </trkpt>
      <trkpt lat="44.32667" lon="5.89281">
        <ele>572</ele>
        <time>2019-03-16T15:23:13Z</time>
      </trkpt>
      <trkpt lat="44.32662" lon="5.89277">
        <ele>572</ele>
        <time>2019-03-16T15:23:14Z</time>
      </trkpt>
      <trkpt lat="44.32657" lon="5.89273">
        <ele>572</ele>
        <time>2019-03-16T15:23:15Z</time>
      </trkpt>
      <trkpt lat="44.32652" lon="5.89268">
        <ele>572</ele>
        <time>2019-03-16T15:23:16Z</time>
      </trkpt>
      <trkpt lat="44.32647" lon="5.89264">
        <ele>572</ele>
        <time>2019-03-16T15:23:17Z</time>
      </trkpt>
      <trkpt lat="44.32643" lon="5.89261">
        <ele>572</ele>
        <time>2019-03-16T15:23:18Z</time>
      </trkpt>
      <trkpt lat="44.32638" lon="5.89258">
        <ele>572</ele>
        <time>2019-03-16T15:23:19Z</time>
      </trkpt>
      <trkpt lat="44.32634" lon="5.89255">
        <ele>572</ele>
        <time>2019-03-16T15:23:20Z</time>
      </trkpt>
      <trkpt lat="44.3263" lon="5.89252">
        <ele>572</ele>
        <time>2019-03-16T15:23:21Z</time>
      </trkpt>
      <trkpt lat="44.32625" lon="5.89248">
        <ele>572</ele>
        <time>2019-03-16T15:23:22Z</time>
      </trkpt>
      <trkpt lat="44.32621" lon="5.89245">
        <ele>572</ele>
        <time>2019-03-16T15:23:23Z</time>
      </trkpt>
      <trkpt lat="44.32616" lon="5.89242">
        <ele>572</ele>
        <time>2019-03-16T15:23:24Z</time>
      </trkpt>
      <trkpt lat="44.32611" lon="5.89239">
        <ele>572</ele>
        <time>2019-03-16T15:23:25Z</time>
      </trkpt>
      <trkpt lat="44.32605" lon="5.89236">
        <ele>572</ele>
        <time>2019-03-16T15:23:26Z</time>
      </trkpt>
      <trkpt lat="44.326" lon="5.89233">
        <ele>572</ele>
        <time>2019-03-16T15:23:27Z</time>
      </trkpt>
      <trkpt lat="44.32594" lon="5.8923">
        <ele>572</ele>
        <time>2019-03-16T15:23:28Z</time>
      </trkpt>
      <trkpt lat="44.32588" lon="5.89227">
        <ele>572</ele>
        <time>2019-03-16T15:23:29Z</time>
      </trkpt>
      <trkpt lat="44.32582" lon="5.89224">
        <ele>572</ele>
        <time>2019-03-16T15:23:30Z</time>
      </trkpt>
      <trkpt lat="44.32576" lon="5.89221">
        <ele>572</ele>
        <time>2019-03-16T15:23:31Z</time>
      </trkpt>
      <trkpt lat="44.3257" lon="5.89218">
        <ele>572</ele>
        <time>2019-03-16T15:23:32Z</time>
      </trkpt>
      <trkpt lat="44.32564" lon="5.89215">
        <ele>572</ele>
        <time>2019-03-16T15:23:33Z</time>
      </trkpt>
      <trkpt lat="44.32558" lon="5.89213">
        <ele>572</ele>
        <time>2019-03-16T15:23:34Z</time>
      </trkpt>
      <trkpt lat="44.32552" lon="5.8921">
        <ele>572</ele>
        <time>2019-03-16T15:23:35Z</time>
      </trkpt>
      <trkpt lat="44.32546" lon="5.89207">
        <ele>572</ele>
        <time>2019-03-16T15:23:36Z</time>
      </trkpt>
      <trkpt lat="44.32539" lon="5.89204">
        <ele>572</ele>
        <time>2019-03-16T15:23:37Z</time>
      </trkpt>
      <trkpt lat="44.32533" lon="5.89202">
        <ele>572</ele>
        <time>2019-03-16T15:23:38Z</time>
      </trkpt>
      <trkpt lat="44.32527" lon="5.89199">
        <ele>572</ele>
        <time>2019-03-16T15:23:39Z</time>
      </trkpt>
      <trkpt lat="44.32521" lon="5.89197">
        <ele>572</ele>
        <time>2019-03-16T15:23:40Z</time>
      </trkpt>
      <trkpt lat="44.32515" lon="5.89194">
        <ele>572</ele>
        <time>2019-03-16T15:23:41Z</time>
      </trkpt>
      <trkpt lat="44.32509" lon="5.89192">
        <ele>572</ele>
        <time>2019-03-16T15:23:42Z</time>
      </trkpt>
      <trkpt lat="44.32502" lon="5.8919">
        <ele>572</ele>
        <time>2019-03-16T15:23:43Z</time>
      </trkpt>
      <trkpt lat="44.32496" lon="5.89188">
        <ele>572</ele>
        <time>2019-03-16T15:23:44Z</time>
      </trkpt>
      <trkpt lat="44.3249" lon="5.89186">
        <ele>572</ele>
        <time>2019-03-16T15:23:45Z</time>
      </trkpt>
      <trkpt lat="44.32484" lon="5.89184">
        <ele>572</ele>
        <time>2019-03-16T15:23:46Z</time>
      </trkpt>
      <trkpt lat="44.32477" lon="5.89183">
        <ele>572</ele>
        <time>2019-03-16T15:23:47Z</time>
      </trkpt>
      <trkpt lat="44.32471" lon="5.89181">
        <ele>572</ele>
        <time>2019-03-16T15:23:48Z</time>
      </trkpt>
      <trkpt lat="44.32465" lon="5.89179">
        <ele>572</ele>
        <time>2019-03-16T15:23:49Z</time>
      </trkpt>
      <trkpt lat="44.32458" lon="5.89177">
        <ele>572</ele>
        <time>2019-03-16T15:23:50Z</time>
      </trkpt>
      <trkpt lat="44.32452" lon="5.89175">
        <ele>572</ele>
        <time>2019-03-16T15:23:51Z</time>
      </trkpt>
      <trkpt lat="44.32446" lon="5.89173">
        <ele>572</ele>
        <time>2019-03-16T15:23:52Z</time>
      </trkpt>
      <trkpt lat="44.32439" lon="5.89171">
        <ele>572</ele>
        <time>2019-03-16T15:23:53Z</time>
      </trkpt>
      <trkpt lat="44.32433" lon="5.89169">
        <ele>572</ele>
        <time>2019-03-16T15:23:54Z</time>
      </trkpt>
      <trkpt lat="44.32427" lon="5.89167">
        <ele>572</ele>
        <time>2019-03-16T15:23:55Z</time>
      </trkpt>
      <trkpt lat="44.32421" lon="5.89165">
        <ele>572</ele>
        <time>2019-03-16T15:23:56Z</time>
      </trkpt>
      <trkpt lat="44.32415" lon="5.89163">
        <ele>572</ele>
        <time>2019-03-16T15:23:57Z</time>
      </trkpt>
      <trkpt lat="44.32409" lon="5.89161">
        <ele>572</ele>
        <time>2019-03-16T15:23:58Z</time>
      </trkpt>
      <trkpt lat="44.32403" lon="5.89159">
        <ele>572</ele>
        <time>2019-03-16T15:23:59Z</time>
      </trkpt>
      <trkpt lat="44.32397" lon="5.89157">
        <ele>572</ele>
        <time>2019-03-16T15:24:00Z</time>
      </trkpt>
      <trkpt lat="44.32391" lon="5.89155">
        <ele>572</ele>
        <time>2019-03-16T15:24:01Z</time>
      </trkpt>
      <trkpt lat="44.32385" lon="5.89153">
        <ele>572</ele>
        <time>2019-03-16T15:24:02Z</time>
      </trkpt>
      <trkpt lat="44.32379" lon="5.89151">
        <ele>572</ele>
        <time>2019-03-16T15:24:03Z</time>
      </trkpt>
      <trkpt lat="44.32373" lon="5.89149">
        <ele>572</ele>
        <time>2019-03-16T15:24:04Z</time>
      </trkpt>
      <trkpt lat="44.32367" lon="5.89148">
        <ele>572</ele>
        <time>2019-03-16T15:24:05Z</time>
      </trkpt>
      <trkpt lat="44.3236" lon="5.89146">
        <ele>572</ele>
        <time>2019-03-16T15:24:06Z</time>
      </trkpt>
      <trkpt lat="44.32354" lon="5.89144">
        <ele>571</ele>
        <time>2019-03-16T15:24:07Z</time>
      </trkpt>
      <trkpt lat="44.32348" lon="5.89142">
        <ele>571</ele>
        <time>2019-03-16T15:24:08Z</time>
      </trkpt>
      <trkpt lat="44.32342" lon="5.8914">
        <ele>571</ele>
        <time>2019-03-16T15:24:09Z</time>
      </trkpt>
      <trkpt lat="44.32336" lon="5.89138">
        <ele>571</ele>
        <time>2019-03-16T15:24:10Z</time>
      </trkpt>
      <trkpt lat="44.3233" lon="5.89136">
        <ele>571</ele>
        <time>2019-03-16T15:24:11Z</time>
      </trkpt>
      <trkpt lat="44.32324" lon="5.89134">
        <ele>571</ele>
        <time>2019-03-16T15:24:12Z</time>
      </trkpt>
      <trkpt lat="44.32318" lon="5.89131">
        <ele>571</ele>
        <time>2019-03-16T15:24:13Z</time>
      </trkpt>
      <trkpt lat="44.32312" lon="5.89129">
        <ele>571</ele>
        <time>2019-03-16T15:24:14Z</time>
      </trkpt>
      <trkpt lat="44.32306" lon="5.89127">
        <ele>571</ele>
        <time>2019-03-16T15:24:15Z</time>
      </trkpt>
      <trkpt lat="44.323" lon="5.89125">
        <ele>571</ele>
        <time>2019-03-16T15:24:16Z</time>
      </trkpt>
      <trkpt lat="44.32293" lon="5.89124">
        <ele>571</ele>
        <time>2019-03-16T15:24:17Z</time>
      </trkpt>
      <trkpt lat="44.32288" lon="5.89122">
        <ele>571</ele>
        <time>2019-03-16T15:24:18Z</time>
      </trkpt>
      <trkpt lat="44.32281" lon="5.8912">
        <ele>571</ele>
        <time>2019-03-16T15:24:19Z</time>
      </trkpt>
      <trkpt lat="44.32275" lon="5.89117">
        <ele>571</ele>
        <time>2019-03-16T15:24:20Z</time>
      </trkpt>
      <trkpt lat="44.3227" lon="5.89115">
        <ele>571</ele>
        <time>2019-03-16T15:24:21Z</time>
      </trkpt>
      <trkpt lat="44.32264" lon="5.89113">
        <ele>571</ele>
        <time>2019-03-16T15:24:22Z</time>
      </trkpt>
      <trkpt lat="44.32257" lon="5.89111">
        <ele>571</ele>
        <time>2019-03-16T15:24:23Z</time>
      </trkpt>
      <trkpt lat="44.32251" lon="5.89109">
        <ele>571</ele>
        <time>2019-03-16T15:24:24Z</time>
      </trkpt>
      <trkpt lat="44.32245" lon="5.89107">
        <ele>571</ele>
        <time>2019-03-16T15:24:25Z</time>
      </trkpt>
      <trkpt lat="44.32239" lon="5.89105">
        <ele>571</ele>
        <time>2019-03-16T15:24:26Z</time>
      </trkpt>
      <trkpt lat="44.32233" lon="5.89103">
        <ele>570</ele>
        <time>2019-03-16T15:24:27Z</time>
      </trkpt>
      <trkpt lat="44.32227" lon="5.89102">
        <ele>570</ele>
        <time>2019-03-16T15:24:28Z</time>
      </trkpt>
      <trkpt lat="44.32221" lon="5.891">
        <ele>570</ele>
        <time>2019-03-16T15:24:29Z</time>
      </trkpt>
      <trkpt lat="44.32215" lon="5.89098">
        <ele>570</ele>
        <time>2019-03-16T15:24:30Z</time>
      </trkpt>
      <trkpt lat="44.32209" lon="5.89096">
        <ele>570</ele>
        <time>2019-03-16T15:24:31Z</time>
      </trkpt>
      <trkpt lat="44.32203" lon="5.89094">
        <ele>570</ele>
        <time>2019-03-16T15:24:32Z</time>
      </trkpt>
      <trkpt lat="44.32197" lon="5.89092">
        <ele>570</ele>
        <time>2019-03-16T15:24:33Z</time>
      </trkpt>
      <trkpt lat="44.32191" lon="5.8909">
        <ele>570</ele>
        <time>2019-03-16T15:24:34Z</time>
      </trkpt>
      <trkpt lat="44.32185" lon="5.89088">
        <ele>570</ele>
        <time>2019-03-16T15:24:35Z</time>
      </trkpt>
      <trkpt lat="44.32179" lon="5.89086">
        <ele>570</ele>
        <time>2019-03-16T15:24:36Z</time>
      </trkpt>
      <trkpt lat="44.32172" lon="5.89084">
        <ele>570</ele>
        <time>2019-03-16T15:24:37Z</time>
      </trkpt>
      <trkpt lat="44.32166" lon="5.89082">
        <ele>570</ele>
        <time>2019-03-16T15:24:38Z</time>
      </trkpt>
      <trkpt lat="44.3216" lon="5.89081">
        <ele>570</ele>
        <time>2019-03-16T15:24:39Z</time>
      </trkpt>
      <trkpt lat="44.32154" lon="5.89079">
        <ele>570</ele>
        <time>2019-03-16T15:24:40Z</time>
      </trkpt>
      <trkpt lat="44.32148" lon="5.89078">
        <ele>570</ele>
        <time>2019-03-16T15:24:41Z</time>
      </trkpt>
      <trkpt lat="44.32141" lon="5.89076">
        <ele>570</ele>
        <time>2019-03-16T15:24:42Z</time>
      </trkpt>
      <trkpt lat="44.32135" lon="5.89074">
        <ele>570</ele>
        <time>2019-03-16T15:24:43Z</time>
      </trkpt>
      <trkpt lat="44.32129" lon="5.89073">
        <ele>570</ele>
        <time>2019-03-16T15:24:44Z</time>
      </trkpt>
      <trkpt lat="44.32123" lon="5.89072">
        <ele>570</ele>
        <time>2019-03-16T15:24:45Z</time>
      </trkpt>
      <trkpt lat="44.32117" lon="5.8907">
        <ele>570</ele>
        <time>2019-03-16T15:24:46Z</time>
      </trkpt>
      <trkpt lat="44.32111" lon="5.89069">
        <ele>570</ele>
        <time>2019-03-16T15:24:47Z</time>
      </trkpt>
      <trkpt lat="44.32105" lon="5.89068">
        <ele>570</ele>
        <time>2019-03-16T15:24:48Z</time>
      </trkpt>
      <trkpt lat="44.32099" lon="5.89067">
        <ele>570</ele>
        <time>2019-03-16T15:24:49Z</time>
      </trkpt>
      <trkpt lat="44.32093" lon="5.89066">
        <ele>570</ele>
        <time>2019-03-16T15:24:50Z</time>
      </trkpt>
      <trkpt lat="44.32087" lon="5.89065">
        <ele>570</ele>
        <time>2019-03-16T15:24:51Z</time>
      </trkpt>
      <trkpt lat="44.32082" lon="5.89064">
        <ele>570</ele>
        <time>2019-03-16T15:24:52Z</time>
      </trkpt>
      <trkpt lat="44.32077" lon="5.89064">
        <ele>570</ele>
        <time>2019-03-16T15:24:53Z</time>
      </trkpt>
      <trkpt lat="44.32072" lon="5.89063">
        <ele>570</ele>
        <time>2019-03-16T15:24:54Z</time>
      </trkpt>
      <trkpt lat="44.32067" lon="5.89062">
        <ele>570</ele>
        <time>2019-03-16T15:24:55Z</time>
      </trkpt>
      <trkpt lat="44.32062" lon="5.89061">
        <ele>570</ele>
        <time>2019-03-16T15:24:56Z</time>
      </trkpt>
      <trkpt lat="44.32057" lon="5.89061">
        <ele>571</ele>
        <time>2019-03-16T15:24:57Z</time>
      </trkpt>
      <trkpt lat="44.32052" lon="5.8906">
        <ele>571</ele>
        <time>2019-03-16T15:24:58Z</time>
      </trkpt>
      <trkpt lat="44.32048" lon="5.89059">
        <ele>571</ele>
        <time>2019-03-16T15:24:59Z</time>
      </trkpt>
      <trkpt lat="44.32043" lon="5.89058">
        <ele>572</ele>
        <time>2019-03-16T15:25:00Z</time>
      </trkpt>
      <trkpt lat="44.32039" lon="5.89056">
        <ele>572</ele>
        <time>2019-03-16T15:25:01Z</time>
      </trkpt>
      <trkpt lat="44.32035" lon="5.89055">
        <ele>572</ele>
        <time>2019-03-16T15:25:02Z</time>
      </trkpt>
      <trkpt lat="44.32031" lon="5.89054">
        <ele>573</ele>
        <time>2019-03-16T15:25:03Z</time>
      </trkpt>
      <trkpt lat="44.32027" lon="5.89052">
        <ele>573</ele>
        <time>2019-03-16T15:25:04Z</time>
      </trkpt>
      <trkpt lat="44.32023" lon="5.8905">
        <ele>573</ele>
        <time>2019-03-16T15:25:05Z</time>
      </trkpt>
      <trkpt lat="44.32019" lon="5.89048">
        <ele>573</ele>
        <time>2019-03-16T15:25:06Z</time>
      </trkpt>
      <trkpt lat="44.32015" lon="5.89046">
        <ele>573</ele>
        <time>2019-03-16T15:25:07Z</time>
      </trkpt>
      <trkpt lat="44.32011" lon="5.89044">
        <ele>573</ele>
        <time>2019-03-16T15:25:08Z</time>
      </trkpt>
      <trkpt lat="44.32007" lon="5.89042">
        <ele>573</ele>
        <time>2019-03-16T15:25:09Z</time>
      </trkpt>
      <trkpt lat="44.32003" lon="5.89039">
        <ele>573</ele>
        <time>2019-03-16T15:25:10Z</time>
      </trkpt>
      <trkpt lat="44.32" lon="5.89036">
        <ele>573</ele>
        <time>2019-03-16T15:25:11Z</time>
      </trkpt>
      <trkpt lat="44.31996" lon="5.89033">
        <ele>573</ele>
        <time>2019-03-16T15:25:12Z</time>
      </trkpt>
      <trkpt lat="44.31993" lon="5.89029">
        <ele>573</ele>
        <time>2019-03-16T15:25:13Z</time>
      </trkpt>
      <trkpt lat="44.3199" lon="5.89026">
        <ele>573</ele>
        <time>2019-03-16T15:25:14Z</time>
      </trkpt>
      <trkpt lat="44.31986" lon="5.89022">
        <ele>573</ele>
        <time>2019-03-16T15:25:15Z</time>
      </trkpt>
      <trkpt lat="44.31983" lon="5.89019">
        <ele>573</ele>
        <time>2019-03-16T15:25:16Z</time>
      </trkpt>
      <trkpt lat="44.31979" lon="5.89015">
        <ele>573</ele>
        <time>2019-03-16T15:25:17Z</time>
      </trkpt>
      <trkpt lat="44.31975" lon="5.89013">
        <ele>573</ele>
        <time>2019-03-16T15:25:18Z</time>
      </trkpt>
      <trkpt lat="44.31971" lon="5.8901">
        <ele>573</ele>
        <time>2019-03-16T15:25:19Z</time>
      </trkpt>
      <trkpt lat="44.31967" lon="5.89007">
        <ele>574</ele>
        <time>2019-03-16T15:25:20Z</time>
      </trkpt>
      <trkpt lat="44.31963" lon="5.89004">
        <ele>574</ele>
        <time>2019-03-16T15:25:21Z</time>
      </trkpt>
      <trkpt lat="44.31959" lon="5.89002">
        <ele>574</ele>
        <time>2019-03-16T15:25:22Z</time>
      </trkpt>
      <trkpt lat="44.31954" lon="5.89">
        <ele>575</ele>
        <time>2019-03-16T15:25:23Z</time>
      </trkpt>
      <trkpt lat="44.3195" lon="5.88997">
        <ele>576</ele>
        <time>2019-03-16T15:25:24Z</time>
      </trkpt>
      <trkpt lat="44.31945" lon="5.88995">
        <ele>576</ele>
        <time>2019-03-16T15:25:25Z</time>
      </trkpt>
      <trkpt lat="44.3194" lon="5.88993">
        <ele>576</ele>
        <time>2019-03-16T15:25:26Z</time>
      </trkpt>
      <trkpt lat="44.31936" lon="5.88992">
        <ele>577</ele>
        <time>2019-03-16T15:25:27Z</time>
      </trkpt>
      <trkpt lat="44.31931" lon="5.88991">
        <ele>577</ele>
        <time>2019-03-16T15:25:28Z</time>
      </trkpt>
      <trkpt lat="44.31926" lon="5.8899">
        <ele>577</ele>
        <time>2019-03-16T15:25:29Z</time>
      </trkpt>
      <trkpt lat="44.31922" lon="5.88989">
        <ele>577</ele>
        <time>2019-03-16T15:25:30Z</time>
      </trkpt>
      <trkpt lat="44.31917" lon="5.88988">
        <ele>577</ele>
        <time>2019-03-16T15:25:31Z</time>
      </trkpt>
      <trkpt lat="44.31913" lon="5.88988">
        <ele>577</ele>
        <time>2019-03-16T15:25:32Z</time>
      </trkpt>
      <trkpt lat="44.31908" lon="5.88988">
        <ele>577</ele>
        <time>2019-03-16T15:25:33Z</time>
      </trkpt>
      <trkpt lat="44.31903" lon="5.88988">
        <ele>577</ele>
        <time>2019-03-16T15:25:34Z</time>
      </trkpt>
      <trkpt lat="44.31899" lon="5.88989">
        <ele>577</ele>
        <time>2019-03-16T15:25:35Z</time>
      </trkpt>
      <trkpt lat="44.31894" lon="5.88989">
        <ele>577</ele>
        <time>2019-03-16T15:25:36Z</time>
      </trkpt>
      <trkpt lat="44.31889" lon="5.8899">
        <ele>577</ele>
        <time>2019-03-16T15:25:37Z</time>
      </trkpt>
      <trkpt lat="44.31884" lon="5.88991">
        <ele>577</ele>
        <time>2019-03-16T15:25:38Z</time>
      </trkpt>
      <trkpt lat="44.3188" lon="5.88992">
        <ele>577</ele>
        <time>2019-03-16T15:25:39Z</time>
      </trkpt>
      <trkpt lat="44.31875" lon="5.88994">
        <ele>577</ele>
        <time>2019-03-16T15:25:40Z</time>
      </trkpt>
      <trkpt lat="44.3187" lon="5.88995">
        <ele>577</ele>
        <time>2019-03-16T15:25:41Z</time>
      </trkpt>
      <trkpt lat="44.31865" lon="5.88998">
        <ele>578</ele>
        <time>2019-03-16T15:25:42Z</time>
      </trkpt>
      <trkpt lat="44.31861" lon="5.89">
        <ele>578</ele>
        <time>2019-03-16T15:25:43Z</time>
      </trkpt>
      <trkpt lat="44.31856" lon="5.89003">
        <ele>578</ele>
        <time>2019-03-16T15:25:44Z</time>
      </trkpt>
      <trkpt lat="44.31852" lon="5.89006">
        <ele>578</ele>
        <time>2019-03-16T15:25:45Z</time>
      </trkpt>
      <trkpt lat="44.31847" lon="5.89009">
        <ele>578</ele>
        <time>2019-03-16T15:25:46Z</time>
      </trkpt>
      <trkpt lat="44.31843" lon="5.89011">
        <ele>578</ele>
        <time>2019-03-16T15:25:47Z</time>
      </trkpt>
      <trkpt lat="44.31838" lon="5.89015">
        <ele>578</ele>
        <time>2019-03-16T15:25:48Z</time>
      </trkpt>
      <trkpt lat="44.31834" lon="5.89018">
        <ele>578</ele>
        <time>2019-03-16T15:25:49Z</time>
      </trkpt>
      <trkpt lat="44.3183" lon="5.89021">
        <ele>578</ele>
        <time>2019-03-16T15:25:50Z</time>
      </trkpt>
      <trkpt lat="44.31826" lon="5.89024">
        <ele>579</ele>
        <time>2019-03-16T15:25:51Z</time>
      </trkpt>
      <trkpt lat="44.31821" lon="5.89027">
        <ele>579</ele>
        <time>2019-03-16T15:25:52Z</time>
      </trkpt>
      <trkpt lat="44.31817" lon="5.8903">
        <ele>579</ele>
        <time>2019-03-16T15:25:53Z</time>
      </trkpt>
      <trkpt lat="44.31813" lon="5.89033">
        <ele>579</ele>
        <time>2019-03-16T15:25:54Z</time>
      </trkpt>
      <trkpt lat="44.31808" lon="5.89036">
        <ele>579</ele>
        <time>2019-03-16T15:25:55Z</time>
      </trkpt>
      <trkpt lat="44.31804" lon="5.89039">
        <ele>579</ele>
        <time>2019-03-16T15:25:56Z</time>
      </trkpt>
      <trkpt lat="44.31799" lon="5.89041">
        <ele>579</ele>
        <time>2019-03-16T15:25:57Z</time>
      </trkpt>
      <trkpt lat="44.31795" lon="5.89044">
        <ele>580</ele>
        <time>2019-03-16T15:25:58Z</time>
      </trkpt>
      <trkpt lat="44.31791" lon="5.89047">
        <ele>580</ele>
        <time>2019-03-16T15:25:59Z</time>
      </trkpt>
      <trkpt lat="44.31786" lon="5.8905">
        <ele>580</ele>
        <time>2019-03-16T15:26:00Z</time>
      </trkpt>
      <trkpt lat="44.31782" lon="5.89053">
        <ele>580</ele>
        <time>2019-03-16T15:26:01Z</time>
      </trkpt>
      <trkpt lat="44.31778" lon="5.89056">
        <ele>580</ele>
        <time>2019-03-16T15:26:02Z</time>
      </trkpt>
      <trkpt lat="44.31773" lon="5.89059">
        <ele>580</ele>
        <time>2019-03-16T15:26:03Z</time>
      </trkpt>
      <trkpt lat="44.31769" lon="5.89063">
        <ele>580</ele>
        <time>2019-03-16T15:26:04Z</time>
      </trkpt>
      <trkpt lat="44.31765" lon="5.89065">
        <ele>580</ele>
        <time>2019-03-16T15:26:05Z</time>
      </trkpt>
      <trkpt lat="44.31761" lon="5.89068">
        <ele>580</ele>
        <time>2019-03-16T15:26:06Z</time>
      </trkpt>
      <trkpt lat="44.31756" lon="5.89071">
        <ele>581</ele>
        <time>2019-03-16T15:26:07Z</time>
      </trkpt>
      <trkpt lat="44.31752" lon="5.89073">
        <ele>581</ele>
        <time>2019-03-16T15:26:08Z</time>
      </trkpt>
      <trkpt lat="44.31748" lon="5.89076">
        <ele>581</ele>
        <time>2019-03-16T15:26:09Z</time>
      </trkpt>
      <trkpt lat="44.31744" lon="5.89078">
        <ele>581</ele>
        <time>2019-03-16T15:26:10Z</time>
      </trkpt>
      <trkpt lat="44.3174" lon="5.8908">
        <ele>582</ele>
        <time>2019-03-16T15:26:11Z</time>
      </trkpt>
      <trkpt lat="44.31736" lon="5.89082">
        <ele>582</ele>
        <time>2019-03-16T15:26:12Z</time>
      </trkpt>
      <trkpt lat="44.31731" lon="5.89084">
        <ele>582</ele>
        <time>2019-03-16T15:26:13Z</time>
      </trkpt>
      <trkpt lat="44.31727" lon="5.89085">
        <ele>582</ele>
        <time>2019-03-16T15:26:14Z</time>
      </trkpt>
      <trkpt lat="44.31723" lon="5.89087">
        <ele>582</ele>
        <time>2019-03-16T15:26:15Z</time>
      </trkpt>
      <trkpt lat="44.31718" lon="5.89088">
        <ele>582</ele>
        <time>2019-03-16T15:26:16Z</time>
      </trkpt>
      <trkpt lat="44.31714" lon="5.8909">
        <ele>583</ele>
        <time>2019-03-16T15:26:17Z</time>
      </trkpt>
      <trkpt lat="44.31709" lon="5.89091">
        <ele>583</ele>
        <time>2019-03-16T15:26:18Z</time>
      </trkpt>
      <trkpt lat="44.31705" lon="5.89092">
        <ele>583</ele>
        <time>2019-03-16T15:26:19Z</time>
      </trkpt>
      <trkpt lat="44.317" lon="5.89093">
        <ele>583</ele>
        <time>2019-03-16T15:26:20Z</time>
      </trkpt>
      <trkpt lat="44.31696" lon="5.89094">
        <ele>583</ele>
        <time>2019-03-16T15:26:21Z</time>
      </trkpt>
      <trkpt lat="44.31691" lon="5.89095">
        <ele>583</ele>
        <time>2019-03-16T15:26:22Z</time>
      </trkpt>
      <trkpt lat="44.31686" lon="5.89096">
        <ele>584</ele>
        <time>2019-03-16T15:26:23Z</time>
      </trkpt>
      <trkpt lat="44.31682" lon="5.89096">
        <ele>584</ele>
        <time>2019-03-16T15:26:24Z</time>
      </trkpt>
      <trkpt lat="44.31677" lon="5.89097">
        <ele>584</ele>
        <time>2019-03-16T15:26:25Z</time>
      </trkpt>
      <trkpt lat="44.31673" lon="5.89097">
        <ele>584</ele>
        <time>2019-03-16T15:26:26Z</time>
      </trkpt>
      <trkpt lat="44.31668" lon="5.89097">
        <ele>584</ele>
        <time>2019-03-16T15:26:27Z</time>
      </trkpt>
      <trkpt lat="44.31664" lon="5.89097">
        <ele>584</ele>
        <time>2019-03-16T15:26:28Z</time>
      </trkpt>
      <trkpt lat="44.31659" lon="5.89097">
        <ele>584</ele>
        <time>2019-03-16T15:26:29Z</time>
      </trkpt>
      <trkpt lat="44.31654" lon="5.89097">
        <ele>584</ele>
        <time>2019-03-16T15:26:30Z</time>
      </trkpt>
      <trkpt lat="44.3165" lon="5.89097">
        <ele>584</ele>
        <time>2019-03-16T15:26:31Z</time>
      </trkpt>
      <trkpt lat="44.31645" lon="5.89097">
        <ele>585</ele>
        <time>2019-03-16T15:26:32Z</time>
      </trkpt>
      <trkpt lat="44.31641" lon="5.89097">
        <ele>585</ele>
        <time>2019-03-16T15:26:33Z</time>
      </trkpt>
      <trkpt lat="44.31636" lon="5.89097">
        <ele>585</ele>
        <time>2019-03-16T15:26:34Z</time>
      </trkpt>
      <trkpt lat="44.31632" lon="5.89097">
        <ele>585</ele>
        <time>2019-03-16T15:26:35Z</time>
      </trkpt>
      <trkpt lat="44.31627" lon="5.89096">
        <ele>585</ele>
        <time>2019-03-16T15:26:36Z</time>
      </trkpt>
      <trkpt lat="44.31623" lon="5.89096">
        <ele>585</ele>
        <time>2019-03-16T15:26:37Z</time>
      </trkpt>
      <trkpt lat="44.31618" lon="5.89096">
        <ele>585</ele>
        <time>2019-03-16T15:26:38Z</time>
      </trkpt>
      <trkpt lat="44.31614" lon="5.89096">
        <ele>585</ele>
        <time>2019-03-16T15:26:39Z</time>
      </trkpt>
      <trkpt lat="44.31609" lon="5.89096">
        <ele>586</ele>
        <time>2019-03-16T15:26:40Z</time>
      </trkpt>
      <trkpt lat="44.31605" lon="5.89096">
        <ele>586</ele>
        <time>2019-03-16T15:26:41Z</time>
      </trkpt>
      <trkpt lat="44.316" lon="5.89096">
        <ele>586</ele>
        <time>2019-03-16T15:26:42Z</time>
      </trkpt>
      <trkpt lat="44.31596" lon="5.89096">
        <ele>586</ele>
        <time>2019-03-16T15:26:43Z</time>
      </trkpt>
      <trkpt lat="44.31591" lon="5.89096">
        <ele>586</ele>
        <time>2019-03-16T15:26:44Z</time>
      </trkpt>
      <trkpt lat="44.31587" lon="5.89096">
        <ele>586</ele>
        <time>2019-03-16T15:26:45Z</time>
      </trkpt>
      <trkpt lat="44.31583" lon="5.89095">
        <ele>586</ele>
        <time>2019-03-16T15:26:46Z</time>
      </trkpt>
      <trkpt lat="44.31579" lon="5.89095">
        <ele>586</ele>
        <time>2019-03-16T15:26:47Z</time>
      </trkpt>
      <trkpt lat="44.31575" lon="5.89095">
        <ele>586</ele>
        <time>2019-03-16T15:26:48Z</time>
      </trkpt>
      <trkpt lat="44.31571" lon="5.89096">
        <ele>586</ele>
        <time>2019-03-16T15:26:49Z</time>
      </trkpt>
      <trkpt lat="44.31567" lon="5.89096">
        <ele>587</ele>
        <time>2019-03-16T15:26:50Z</time>
      </trkpt>
      <trkpt lat="44.31562" lon="5.89096">
        <ele>587</ele>
        <time>2019-03-16T15:26:51Z</time>
      </trkpt>
      <trkpt lat="44.31558" lon="5.89095">
        <ele>587</ele>
        <time>2019-03-16T15:26:52Z</time>
      </trkpt>
      <trkpt lat="44.31554" lon="5.89095">
        <ele>587</ele>
        <time>2019-03-16T15:26:53Z</time>
      </trkpt>
      <trkpt lat="44.3155" lon="5.89096">
        <ele>587</ele>
        <time>2019-03-16T15:26:54Z</time>
      </trkpt>
      <trkpt lat="44.31546" lon="5.89097">
        <ele>587</ele>
        <time>2019-03-16T15:26:55Z</time>
      </trkpt>
      <trkpt lat="44.31543" lon="5.89097">
        <ele>587</ele>
        <time>2019-03-16T15:26:56Z</time>
      </trkpt>
      <trkpt lat="44.31539" lon="5.89096">
        <ele>587</ele>
        <time>2019-03-16T15:26:57Z</time>
      </trkpt>
      <trkpt lat="44.31536" lon="5.89096">
        <ele>587</ele>
        <time>2019-03-16T15:26:58Z</time>
      </trkpt>
      <trkpt lat="44.31533" lon="5.89096">
        <ele>587</ele>
        <time>2019-03-16T15:26:59Z</time>
      </trkpt>
      <trkpt lat="44.3153" lon="5.89096">
        <ele>587</ele>
        <time>2019-03-16T15:27:00Z</time>
      </trkpt>
      <trkpt lat="44.31527" lon="5.89096">
        <ele>587</ele>
        <time>2019-03-16T15:27:01Z</time>
      </trkpt>
      <trkpt lat="44.31524" lon="5.89096">
        <ele>587</ele>
        <time>2019-03-16T15:27:02Z</time>
      </trkpt>
      <trkpt lat="44.3152" lon="5.89096">
        <ele>587</ele>
        <time>2019-03-16T15:27:03Z</time>
      </trkpt>
      <trkpt lat="44.31517" lon="5.89095">
        <ele>587</ele>
        <time>2019-03-16T15:27:04Z</time>
      </trkpt>
      <trkpt lat="44.31515" lon="5.89092">
        <ele>587</ele>
        <time>2019-03-16T15:27:05Z</time>
      </trkpt>
      <trkpt lat="44.31514" lon="5.89088">
        <ele>587</ele>
        <time>2019-03-16T15:27:06Z</time>
      </trkpt>
      <trkpt lat="44.31513" lon="5.89083">
        <ele>587</ele>
        <time>2019-03-16T15:27:07Z</time>
      </trkpt>
      <trkpt lat="44.31513" lon="5.89078">
        <ele>587</ele>
        <time>2019-03-16T15:27:08Z</time>
      </trkpt>
      <trkpt lat="44.31514" lon="5.89073">
        <ele>587</ele>
        <time>2019-03-16T15:27:09Z</time>
      </trkpt>
      <trkpt lat="44.31515" lon="5.89068">
        <ele>587</ele>
        <time>2019-03-16T15:27:10Z</time>
      </trkpt>
      <trkpt lat="44.31517" lon="5.89063">
        <ele>587</ele>
        <time>2019-03-16T15:27:11Z</time>
      </trkpt>
      <trkpt lat="44.31519" lon="5.89058">
        <ele>587</ele>
        <time>2019-03-16T15:27:12Z</time>
      </trkpt>
      <trkpt lat="44.31521" lon="5.89053">
        <ele>587</ele>
        <time>2019-03-16T15:27:13Z</time>
      </trkpt>
      <trkpt lat="44.31522" lon="5.89048">
        <ele>587</ele>
        <time>2019-03-16T15:27:14Z</time>
      </trkpt>
      <trkpt lat="44.31524" lon="5.89042">
        <ele>587</ele>
        <time>2019-03-16T15:27:15Z</time>
      </trkpt>
      <trkpt lat="44.31525" lon="5.89036">
        <ele>587</ele>
        <time>2019-03-16T15:27:16Z</time>
      </trkpt>
      <trkpt lat="44.31526" lon="5.89031">
        <ele>587</ele>
        <time>2019-03-16T15:27:17Z</time>
      </trkpt>
      <trkpt lat="44.31528" lon="5.89026">
        <ele>587</ele>
        <time>2019-03-16T15:27:18Z</time>
      </trkpt>
      <trkpt lat="44.31529" lon="5.89021">
        <ele>587</ele>
        <time>2019-03-16T15:27:19Z</time>
      </trkpt>
      <trkpt lat="44.31531" lon="5.89016">
        <ele>587</ele>
        <time>2019-03-16T15:27:20Z</time>
      </trkpt>
      <trkpt lat="44.31532" lon="5.89011">
        <ele>587</ele>
        <time>2019-03-16T15:27:21Z</time>
      </trkpt>
      <trkpt lat="44.31533" lon="5.89007">
        <ele>587</ele>
        <time>2019-03-16T15:27:22Z</time>
      </trkpt>
      <trkpt lat="44.31535" lon="5.89002">
        <ele>587</ele>
        <time>2019-03-16T15:27:23Z</time>
      </trkpt>
      <trkpt lat="44.31536" lon="5.88998">
        <ele>587</ele>
        <time>2019-03-16T15:27:24Z</time>
      </trkpt>
      <trkpt lat="44.31538" lon="5.88995">
        <ele>588</ele>
        <time>2019-03-16T15:27:25Z</time>
      </trkpt>
      <trkpt lat="44.3154" lon="5.8899">
        <ele>588</ele>
        <time>2019-03-16T15:27:26Z</time>
      </trkpt>
      <trkpt lat="44.31541" lon="5.88987">
        <ele>588</ele>
        <time>2019-03-16T15:27:27Z</time>
      </trkpt>
      <trkpt lat="44.31543" lon="5.88984">
        <ele>588</ele>
        <time>2019-03-16T15:27:28Z</time>
      </trkpt>
      <trkpt lat="44.31545" lon="5.8898">
        <ele>588</ele>
        <time>2019-03-16T15:27:29Z</time>
      </trkpt>
      <trkpt lat="44.31546" lon="5.88975">
        <ele>589</ele>
        <time>2019-03-16T15:27:30Z</time>
      </trkpt>
      <trkpt lat="44.31548" lon="5.88971">
        <ele>589</ele>
        <time>2019-03-16T15:27:31Z</time>
      </trkpt>
      <trkpt lat="44.31549" lon="5.88968">
        <ele>589</ele>
        <time>2019-03-16T15:27:32Z</time>
      </trkpt>
      <trkpt lat="44.31551" lon="5.88964">
        <ele>589</ele>
        <time>2019-03-16T15:27:33Z</time>
      </trkpt>
      <trkpt lat="44.31552" lon="5.8896">
        <ele>589</ele>
        <time>2019-03-16T15:27:34Z</time>
      </trkpt>
      <trkpt lat="44.31554" lon="5.88956">
        <ele>590</ele>
        <time>2019-03-16T15:27:35Z</time>
      </trkpt>
      <trkpt lat="44.31555" lon="5.88952">
        <ele>590</ele>
        <time>2019-03-16T15:27:36Z</time>
      </trkpt>
      <trkpt lat="44.31556" lon="5.88949">
        <ele>590</ele>
        <time>2019-03-16T15:27:37Z</time>
      </trkpt>
      <trkpt lat="44.31558" lon="5.88946">
        <ele>590</ele>
        <time>2019-03-16T15:27:38Z</time>
      </trkpt>
      <trkpt lat="44.31559" lon="5.88942">
        <ele>590</ele>
        <time>2019-03-16T15:27:39Z</time>
      </trkpt>
      <trkpt lat="44.31561" lon="5.88939">
        <ele>591</ele>
        <time>2019-03-16T15:27:40Z</time>
      </trkpt>
      <trkpt lat="44.31562" lon="5.88935">
        <ele>591</ele>
        <time>2019-03-16T15:27:41Z</time>
      </trkpt>
      <trkpt lat="44.31563" lon="5.88932">
        <ele>591</ele>
        <time>2019-03-16T15:27:42Z</time>
      </trkpt>
      <trkpt lat="44.31564" lon="5.88928">
        <ele>591</ele>
        <time>2019-03-16T15:27:43Z</time>
      </trkpt>
      <trkpt lat="44.31565" lon="5.88925">
        <ele>591</ele>
        <time>2019-03-16T15:27:44Z</time>
      </trkpt>
      <trkpt lat="44.31567" lon="5.88921">
        <ele>592</ele>
        <time>2019-03-16T15:27:45Z</time>
      </trkpt>
      <trkpt lat="44.31568" lon="5.88918">
        <ele>592</ele>
        <time>2019-03-16T15:27:46Z</time>
      </trkpt>
      <trkpt lat="44.31569" lon="5.88914">
        <ele>592</ele>
        <time>2019-03-16T15:27:47Z</time>
      </trkpt>
      <trkpt lat="44.31571" lon="5.88911">
        <ele>592</ele>
        <time>2019-03-16T15:27:48Z</time>
      </trkpt>
      <trkpt lat="44.31572" lon="5.88907">
        <ele>592</ele>
        <time>2019-03-16T15:27:49Z</time>
      </trkpt>
      <trkpt lat="44.31573" lon="5.88903">
        <ele>592</ele>
        <time>2019-03-16T15:27:50Z</time>
      </trkpt>
      <trkpt lat="44.31575" lon="5.889">
        <ele>593</ele>
        <time>2019-03-16T15:27:51Z</time>
      </trkpt>
      <trkpt lat="44.31576" lon="5.88896">
        <ele>593</ele>
        <time>2019-03-16T15:27:52Z</time>
      </trkpt>
      <trkpt lat="44.31578" lon="5.88892">
        <ele>593</ele>
        <time>2019-03-16T15:27:53Z</time>
      </trkpt>
      <trkpt lat="44.31579" lon="5.88889">
        <ele>593</ele>
        <time>2019-03-16T15:27:54Z</time>
      </trkpt>
      <trkpt lat="44.3158" lon="5.88885">
        <ele>594</ele>
        <time>2019-03-16T15:27:55Z</time>
      </trkpt>
      <trkpt lat="44.31581" lon="5.88881">
        <ele>594</ele>
        <time>2019-03-16T15:27:56Z</time>
      </trkpt>
      <trkpt lat="44.31583" lon="5.88877">
        <ele>594</ele>
        <time>2019-03-16T15:27:57Z</time>
      </trkpt>
      <trkpt lat="44.31584" lon="5.88873">
        <ele>594</ele>
        <time>2019-03-16T15:27:58Z</time>
      </trkpt>
      <trkpt lat="44.31586" lon="5.88869">
        <ele>595</ele>
        <time>2019-03-16T15:27:59Z</time>
      </trkpt>
      <trkpt lat="44.31587" lon="5.88866">
        <ele>595</ele>
        <time>2019-03-16T15:28:00Z</time>
      </trkpt>
      <trkpt lat="44.31588" lon="5.88862">
        <ele>595</ele>
        <time>2019-03-16T15:28:01Z</time>
      </trkpt>
      <trkpt lat="44.3159" lon="5.88858">
        <ele>595</ele>
        <time>2019-03-16T15:28:02Z</time>
      </trkpt>
      <trkpt lat="44.31591" lon="5.88855">
        <ele>595</ele>
        <time>2019-03-16T15:28:03Z</time>
      </trkpt>
      <trkpt lat="44.31593" lon="5.88851">
        <ele>596</ele>
        <time>2019-03-16T15:28:04Z</time>
      </trkpt>
      <trkpt lat="44.31593" lon="5.88847">
        <ele>596</ele>
        <time>2019-03-16T15:28:05Z</time>
      </trkpt>
      <trkpt lat="44.31594" lon="5.88844">
        <ele>596</ele>
        <time>2019-03-16T15:28:06Z</time>
      </trkpt>
      <trkpt lat="44.31596" lon="5.88841">
        <ele>596</ele>
        <time>2019-03-16T15:28:07Z</time>
      </trkpt>
      <trkpt lat="44.31597" lon="5.88838">
        <ele>596</ele>
        <time>2019-03-16T15:28:08Z</time>
      </trkpt>
      <trkpt lat="44.31598" lon="5.88834">
        <ele>597</ele>
        <time>2019-03-16T15:28:09Z</time>
      </trkpt>
      <trkpt lat="44.31599" lon="5.88831">
        <ele>597</ele>
        <time>2019-03-16T15:28:10Z</time>
      </trkpt>
      <trkpt lat="44.31601" lon="5.88827">
        <ele>597</ele>
        <time>2019-03-16T15:28:11Z</time>
      </trkpt>
      <trkpt lat="44.31602" lon="5.88824">
        <ele>597</ele>
        <time>2019-03-16T15:28:12Z</time>
      </trkpt>
      <trkpt lat="44.31603" lon="5.88821">
        <ele>597</ele>
        <time>2019-03-16T15:28:13Z</time>
      </trkpt>
      <trkpt lat="44.31605" lon="5.88817">
        <ele>597</ele>
        <time>2019-03-16T15:28:14Z</time>
      </trkpt>
      <trkpt lat="44.31607" lon="5.88814">
        <ele>598</ele>
        <time>2019-03-16T15:28:15Z</time>
      </trkpt>
      <trkpt lat="44.31608" lon="5.8881">
        <ele>598</ele>
        <time>2019-03-16T15:28:16Z</time>
      </trkpt>
      <trkpt lat="44.31609" lon="5.88806">
        <ele>598</ele>
        <time>2019-03-16T15:28:17Z</time>
      </trkpt>
      <trkpt lat="44.31611" lon="5.88803">
        <ele>598</ele>
        <time>2019-03-16T15:28:18Z</time>
      </trkpt>
      <trkpt lat="44.31612" lon="5.88799">
        <ele>598</ele>
        <time>2019-03-16T15:28:19Z</time>
      </trkpt>
      <trkpt lat="44.31614" lon="5.88796">
        <ele>598</ele>
        <time>2019-03-16T15:28:20Z</time>
      </trkpt>
      <trkpt lat="44.31615" lon="5.88792">
        <ele>599</ele>
        <time>2019-03-16T15:28:21Z</time>
      </trkpt>
      <trkpt lat="44.31617" lon="5.88789">
        <ele>599</ele>
        <time>2019-03-16T15:28:22Z</time>
      </trkpt>
      <trkpt lat="44.31618" lon="5.88785">
        <ele>599</ele>
        <time>2019-03-16T15:28:23Z</time>
      </trkpt>
      <trkpt lat="44.31619" lon="5.88781">
        <ele>599</ele>
        <time>2019-03-16T15:28:24Z</time>
      </trkpt>
      <trkpt lat="44.3162" lon="5.88778">
        <ele>600</ele>
        <time>2019-03-16T15:28:25Z</time>
      </trkpt>
      <trkpt lat="44.31621" lon="5.88774">
        <ele>600</ele>
        <time>2019-03-16T15:28:26Z</time>
      </trkpt>
      <trkpt lat="44.31622" lon="5.8877">
        <ele>600</ele>
        <time>2019-03-16T15:28:27Z</time>
      </trkpt>
      <trkpt lat="44.31624" lon="5.88766">
        <ele>600</ele>
        <time>2019-03-16T15:28:28Z</time>
      </trkpt>
      <trkpt lat="44.31625" lon="5.88763">
        <ele>601</ele>
        <time>2019-03-16T15:28:29Z</time>
      </trkpt>
      <trkpt lat="44.31626" lon="5.88759">
        <ele>601</ele>
        <time>2019-03-16T15:28:30Z</time>
      </trkpt>
      <trkpt lat="44.31627" lon="5.88755">
        <ele>601</ele>
        <time>2019-03-16T15:28:31Z</time>
      </trkpt>
      <trkpt lat="44.31628" lon="5.8875">
        <ele>601</ele>
        <time>2019-03-16T15:28:32Z</time>
      </trkpt>
      <trkpt lat="44.3163" lon="5.88746">
        <ele>602</ele>
        <time>2019-03-16T15:28:33Z</time>
      </trkpt>
      <trkpt lat="44.31631" lon="5.88742">
        <ele>602</ele>
        <time>2019-03-16T15:28:34Z</time>
      </trkpt>
      <trkpt lat="44.31633" lon="5.88738">
        <ele>602</ele>
        <time>2019-03-16T15:28:35Z</time>
      </trkpt>
      <trkpt lat="44.31635" lon="5.88734">
        <ele>602</ele>
        <time>2019-03-16T15:28:36Z</time>
      </trkpt>
      <trkpt lat="44.31636" lon="5.88729">
        <ele>602</ele>
        <time>2019-03-16T15:28:37Z</time>
      </trkpt>
      <trkpt lat="44.31637" lon="5.88725">
        <ele>603</ele>
        <time>2019-03-16T15:28:38Z</time>
      </trkpt>
      <trkpt lat="44.31639" lon="5.8872">
        <ele>603</ele>
        <time>2019-03-16T15:28:39Z</time>
      </trkpt>
      <trkpt lat="44.3164" lon="5.88716">
        <ele>603</ele>
        <time>2019-03-16T15:28:40Z</time>
      </trkpt>
      <trkpt lat="44.31642" lon="5.88711">
        <ele>603</ele>
        <time>2019-03-16T15:28:41Z</time>
      </trkpt>
      <trkpt lat="44.31643" lon="5.88706">
        <ele>603</ele>
        <time>2019-03-16T15:28:42Z</time>
      </trkpt>
      <trkpt lat="44.31644" lon="5.88702">
        <ele>603</ele>
        <time>2019-03-16T15:28:43Z</time>
      </trkpt>
      <trkpt lat="44.31645" lon="5.88697">
        <ele>604</ele>
        <time>2019-03-16T15:28:44Z</time>
      </trkpt>
      <trkpt lat="44.31646" lon="5.88692">
        <ele>604</ele>
        <time>2019-03-16T15:28:45Z</time>
      </trkpt>
      <trkpt lat="44.31648" lon="5.88688">
        <ele>604</ele>
        <time>2019-03-16T15:28:46Z</time>
      </trkpt>
      <trkpt lat="44.31649" lon="5.88683">
        <ele>604</ele>
        <time>2019-03-16T15:28:47Z</time>
      </trkpt>
      <trkpt lat="44.3165" lon="5.88679">
        <ele>604</ele>
        <time>2019-03-16T15:28:48Z</time>
      </trkpt>
      <trkpt lat="44.31651" lon="5.88674">
        <ele>604</ele>
        <time>2019-03-16T15:28:49Z</time>
      </trkpt>
      <trkpt lat="44.31652" lon="5.8867">
        <ele>604</ele>
        <time>2019-03-16T15:28:50Z</time>
      </trkpt>
      <trkpt lat="44.31653" lon="5.88666">
        <ele>605</ele>
        <time>2019-03-16T15:28:51Z</time>
      </trkpt>
      <trkpt lat="44.31654" lon="5.88662">
        <ele>605</ele>
        <time>2019-03-16T15:28:52Z</time>
      </trkpt>
      <trkpt lat="44.31655" lon="5.88659">
        <ele>605</ele>
        <time>2019-03-16T15:28:53Z</time>
      </trkpt>
      <trkpt lat="44.31656" lon="5.88655">
        <ele>605</ele>
        <time>2019-03-16T15:28:54Z</time>
      </trkpt>
      <trkpt lat="44.31657" lon="5.88651">
        <ele>605</ele>
        <time>2019-03-16T15:28:55Z</time>
      </trkpt>
      <trkpt lat="44.31658" lon="5.88647">
        <ele>605</ele>
        <time>2019-03-16T15:28:56Z</time>
      </trkpt>
      <trkpt lat="44.31659" lon="5.88643">
        <ele>605</ele>
        <time>2019-03-16T15:28:57Z</time>
      </trkpt>
      <trkpt lat="44.3166" lon="5.88639">
        <ele>606</ele>
        <time>2019-03-16T15:28:58Z</time>
      </trkpt>
      <trkpt lat="44.31661" lon="5.88636">
        <ele>606</ele>
        <time>2019-03-16T15:28:59Z</time>
      </trkpt>
      <trkpt lat="44.31662" lon="5.88632">
        <ele>606</ele>
        <time>2019-03-16T15:29:00Z</time>
      </trkpt>
      <trkpt lat="44.31664" lon="5.88629">
        <ele>606</ele>
        <time>2019-03-16T15:29:01Z</time>
      </trkpt>
      <trkpt lat="44.31665" lon="5.88626">
        <ele>607</ele>
        <time>2019-03-16T15:29:02Z</time>
      </trkpt>
      <trkpt lat="44.31667" lon="5.88624">
        <ele>607</ele>
        <time>2019-03-16T15:29:03Z</time>
      </trkpt>
      <trkpt lat="44.31669" lon="5.88621">
        <ele>607</ele>
        <time>2019-03-16T15:29:04Z</time>
      </trkpt>
      <trkpt lat="44.31672" lon="5.88619">
        <ele>607</ele>
        <time>2019-03-16T15:29:05Z</time>
      </trkpt>
      <trkpt lat="44.31674" lon="5.88618">
        <ele>607</ele>
        <time>2019-03-16T15:29:06Z</time>
      </trkpt>
      <trkpt lat="44.31677" lon="5.88616">
        <ele>608</ele>
        <time>2019-03-16T15:29:07Z</time>
      </trkpt>
      <trkpt lat="44.3168" lon="5.88615">
        <ele>608</ele>
        <time>2019-03-16T15:29:08Z</time>
      </trkpt>
      <trkpt lat="44.31682" lon="5.88615">
        <ele>608</ele>
        <time>2019-03-16T15:29:09Z</time>
      </trkpt>
      <trkpt lat="44.31685" lon="5.88615">
        <ele>608</ele>
        <time>2019-03-16T15:29:10Z</time>
      </trkpt>
      <trkpt lat="44.31688" lon="5.88615">
        <ele>609</ele>
        <time>2019-03-16T15:29:11Z</time>
      </trkpt>
      <trkpt lat="44.31691" lon="5.88616">
        <ele>609</ele>
        <time>2019-03-16T15:29:12Z</time>
      </trkpt>
      <trkpt lat="44.31693" lon="5.88617">
        <ele>609</ele>
        <time>2019-03-16T15:29:13Z</time>
      </trkpt>
      <trkpt lat="44.31696" lon="5.88618">
        <ele>609</ele>
        <time>2019-03-16T15:29:14Z</time>
      </trkpt>
      <trkpt lat="44.31698" lon="5.88619">
        <ele>610</ele>
        <time>2019-03-16T15:29:15Z</time>
      </trkpt>
      <trkpt lat="44.317" lon="5.8862">
        <ele>610</ele>
        <time>2019-03-16T15:29:16Z</time>
      </trkpt>
      <trkpt lat="44.31703" lon="5.88621">
        <ele>610</ele>
        <time>2019-03-16T15:29:17Z</time>
      </trkpt>
      <trkpt lat="44.31706" lon="5.88621">
        <ele>611</ele>
        <time>2019-03-16T15:29:18Z</time>
      </trkpt>
      <trkpt lat="44.31708" lon="5.88622">
        <ele>611</ele>
        <time>2019-03-16T15:29:19Z</time>
      </trkpt>
      <trkpt lat="44.3171" lon="5.88623">
        <ele>611</ele>
        <time>2019-03-16T15:29:20Z</time>
      </trkpt>
      <trkpt lat="44.31712" lon="5.88624">
        <ele>611</ele>
        <time>2019-03-16T15:29:21Z</time>
      </trkpt>
      <trkpt lat="44.31714" lon="5.88625">
        <ele>611</ele>
        <time>2019-03-16T15:29:22Z</time>
      </trkpt>
      <trkpt lat="44.31716" lon="5.88626">
        <ele>611</ele>
        <time>2019-03-16T15:29:23Z</time>
      </trkpt>
      <trkpt lat="44.31718" lon="5.88626">
        <ele>611</ele>
        <time>2019-03-16T15:29:24Z</time>
      </trkpt>
      <trkpt lat="44.3172" lon="5.88627">
        <ele>611</ele>
        <time>2019-03-16T15:29:25Z</time>
      </trkpt>
      <trkpt lat="44.31723" lon="5.88628">
        <ele>612</ele>
        <time>2019-03-16T15:29:26Z</time>
      </trkpt>
      <trkpt lat="44.31725" lon="5.88628">
        <ele>612</ele>
        <time>2019-03-16T15:29:27Z</time>
      </trkpt>
      <trkpt lat="44.31727" lon="5.88629">
        <ele>612</ele>
        <time>2019-03-16T15:29:28Z</time>
      </trkpt>
      <trkpt lat="44.3173" lon="5.8863">
        <ele>613</ele>
        <time>2019-03-16T15:29:29Z</time>
      </trkpt>
      <trkpt lat="44.31732" lon="5.8863">
        <ele>613</ele>
        <time>2019-03-16T15:29:30Z</time>
      </trkpt>
      <trkpt lat="44.31734" lon="5.88631">
        <ele>614</ele>
        <time>2019-03-16T15:29:31Z</time>
      </trkpt>
      <trkpt lat="44.31737" lon="5.88631">
        <ele>614</ele>
        <time>2019-03-16T15:29:32Z</time>
      </trkpt>
      <trkpt lat="44.31739" lon="5.88631">
        <ele>615</ele>
        <time>2019-03-16T15:29:33Z</time>
      </trkpt>
      <trkpt lat="44.31742" lon="5.88632">
        <ele>615</ele>
        <time>2019-03-16T15:29:34Z</time>
      </trkpt>
      <trkpt lat="44.31744" lon="5.88632">
        <ele>615</ele>
        <time>2019-03-16T15:29:35Z</time>
      </trkpt>
      <trkpt lat="44.31747" lon="5.88632">
        <ele>615</ele>
        <time>2019-03-16T15:29:36Z</time>
      </trkpt>
      <trkpt lat="44.31749" lon="5.88631">
        <ele>616</ele>
        <time>2019-03-16T15:29:37Z</time>
      </trkpt>
      <trkpt lat="44.31752" lon="5.88631">
        <ele>616</ele>
        <time>2019-03-16T15:29:38Z</time>
      </trkpt>
      <trkpt lat="44.31755" lon="5.88631">
        <ele>616</ele>
        <time>2019-03-16T15:29:39Z</time>
      </trkpt>
      <trkpt lat="44.31758" lon="5.88631">
        <ele>616</ele>
        <time>2019-03-16T15:29:40Z</time>
      </trkpt>
      <trkpt lat="44.3176" lon="5.8863">
        <ele>616</ele>
        <time>2019-03-16T15:29:41Z</time>
      </trkpt>
      <trkpt lat="44.31763" lon="5.88628">
        <ele>616</ele>
        <time>2019-03-16T15:29:42Z</time>
      </trkpt>
      <trkpt lat="44.31766" lon="5.88627">
        <ele>617</ele>
        <time>2019-03-16T15:29:43Z</time>
      </trkpt>
      <trkpt lat="44.31768" lon="5.88626">
        <ele>617</ele>
        <time>2019-03-16T15:29:44Z</time>
      </trkpt>
      <trkpt lat="44.31771" lon="5.88625">
        <ele>617</ele>
        <time>2019-03-16T15:29:45Z</time>
      </trkpt>
      <trkpt lat="44.31774" lon="5.88625">
        <ele>618</ele>
        <time>2019-03-16T15:29:46Z</time>
      </trkpt>
      <trkpt lat="44.31777" lon="5.88624">
        <ele>618</ele>
        <time>2019-03-16T15:29:47Z</time>
      </trkpt>
      <trkpt lat="44.31779" lon="5.88623">
        <ele>619</ele>
        <time>2019-03-16T15:29:48Z</time>
      </trkpt>
      <trkpt lat="44.31782" lon="5.88622">
        <ele>619</ele>
        <time>2019-03-16T15:29:49Z</time>
      </trkpt>
      <trkpt lat="44.31784" lon="5.88621">
        <ele>620</ele>
        <time>2019-03-16T15:29:50Z</time>
      </trkpt>
      <trkpt lat="44.31787" lon="5.88619">
        <ele>620</ele>
        <time>2019-03-16T15:29:51Z</time>
      </trkpt>
      <trkpt lat="44.3179" lon="5.88618">
        <ele>620</ele>
        <time>2019-03-16T15:29:52Z</time>
      </trkpt>
      <trkpt lat="44.31792" lon="5.88617">
        <ele>621</ele>
        <time>2019-03-16T15:29:53Z</time>
      </trkpt>
      <trkpt lat="44.31795" lon="5.88615">
        <ele>621</ele>
        <time>2019-03-16T15:29:54Z</time>
      </trkpt>
      <trkpt lat="44.31798" lon="5.88614">
        <ele>621</ele>
        <time>2019-03-16T15:29:55Z</time>
      </trkpt>
      <trkpt lat="44.318" lon="5.88613">
        <ele>621</ele>
        <time>2019-03-16T15:29:56Z</time>
      </trkpt>
      <trkpt lat="44.31803" lon="5.88612">
        <ele>621</ele>
        <time>2019-03-16T15:29:57Z</time>
      </trkpt>
      <trkpt lat="44.31806" lon="5.88611">
        <ele>621</ele>
        <time>2019-03-16T15:29:58Z</time>
      </trkpt>
      <trkpt lat="44.31809" lon="5.8861">
        <ele>621</ele>
        <time>2019-03-16T15:29:59Z</time>
      </trkpt>
      <trkpt lat="44.31812" lon="5.88609">
        <ele>621</ele>
        <time>2019-03-16T15:30:00Z</time>
      </trkpt>
      <trkpt lat="44.31815" lon="5.88608">
        <ele>621</ele>
        <time>2019-03-16T15:30:01Z</time>
      </trkpt>
      <trkpt lat="44.31817" lon="5.88608">
        <ele>621</ele>
        <time>2019-03-16T15:30:02Z</time>
      </trkpt>
      <trkpt lat="44.3182" lon="5.88607">
        <ele>621</ele>
        <time>2019-03-16T15:30:03Z</time>
      </trkpt>
      <trkpt lat="44.31823" lon="5.88607">
        <ele>621</ele>
        <time>2019-03-16T15:30:04Z</time>
      </trkpt>
      <trkpt lat="44.31826" lon="5.88607">
        <ele>621</ele>
        <time>2019-03-16T15:30:05Z</time>
      </trkpt>
      <trkpt lat="44.31829" lon="5.88606">
        <ele>621</ele>
        <time>2019-03-16T15:30:06Z</time>
      </trkpt>
      <trkpt lat="44.31832" lon="5.88605">
        <ele>621</ele>
        <time>2019-03-16T15:30:07Z</time>
      </trkpt>
      <trkpt lat="44.31835" lon="5.88604">
        <ele>622</ele>
        <time>2019-03-16T15:30:08Z</time>
      </trkpt>
      <trkpt lat="44.31838" lon="5.88602">
        <ele>622</ele>
        <time>2019-03-16T15:30:09Z</time>
      </trkpt>
      <trkpt lat="44.31841" lon="5.88601">
        <ele>622</ele>
        <time>2019-03-16T15:30:10Z</time>
      </trkpt>
      <trkpt lat="44.31844" lon="5.886">
        <ele>622</ele>
        <time>2019-03-16T15:30:11Z</time>
      </trkpt>
      <trkpt lat="44.31847" lon="5.88598">
        <ele>622</ele>
        <time>2019-03-16T15:30:12Z</time>
      </trkpt>
      <trkpt lat="44.3185" lon="5.88597">
        <ele>622</ele>
        <time>2019-03-16T15:30:13Z</time>
      </trkpt>
      <trkpt lat="44.31852" lon="5.88595">
        <ele>622</ele>
        <time>2019-03-16T15:30:14Z</time>
      </trkpt>
      <trkpt lat="44.31855" lon="5.88593">
        <ele>622</ele>
        <time>2019-03-16T15:30:15Z</time>
      </trkpt>
      <trkpt lat="44.31858" lon="5.8859">
        <ele>622</ele>
        <time>2019-03-16T15:30:16Z</time>
      </trkpt>
      <trkpt lat="44.31861" lon="5.88588">
        <ele>622</ele>
        <time>2019-03-16T15:30:17Z</time>
      </trkpt>
      <trkpt lat="44.31864" lon="5.88586">
        <ele>622</ele>
        <time>2019-03-16T15:30:18Z</time>
      </trkpt>
      <trkpt lat="44.31867" lon="5.88584">
        <ele>622</ele>
        <time>2019-03-16T15:30:19Z</time>
      </trkpt>
      <trkpt lat="44.31869" lon="5.88581">
        <ele>622</ele>
        <time>2019-03-16T15:30:20Z</time>
      </trkpt>
      <trkpt lat="44.31872" lon="5.88579">
        <ele>622</ele>
        <time>2019-03-16T15:30:21Z</time>
      </trkpt>
      <trkpt lat="44.31875" lon="5.88577">
        <ele>622</ele>
        <time>2019-03-16T15:30:22Z</time>
      </trkpt>
      <trkpt lat="44.31878" lon="5.88574">
        <ele>622</ele>
        <time>2019-03-16T15:30:23Z</time>
      </trkpt>
      <trkpt lat="44.31881" lon="5.88572">
        <ele>622</ele>
        <time>2019-03-16T15:30:24Z</time>
      </trkpt>
      <trkpt lat="44.31884" lon="5.8857">
        <ele>622</ele>
        <time>2019-03-16T15:30:25Z</time>
      </trkpt>
      <trkpt lat="44.31887" lon="5.88568">
        <ele>622</ele>
        <time>2019-03-16T15:30:26Z</time>
      </trkpt>
      <trkpt lat="44.3189" lon="5.88566">
        <ele>622</ele>
        <time>2019-03-16T15:30:27Z</time>
      </trkpt>
      <trkpt lat="44.31893" lon="5.88565">
        <ele>622</ele>
        <time>2019-03-16T15:30:28Z</time>
      </trkpt>
      <trkpt lat="44.31896" lon="5.88563">
        <ele>622</ele>
        <time>2019-03-16T15:30:29Z</time>
      </trkpt>
      <trkpt lat="44.31899" lon="5.88562">
        <ele>622</ele>
        <time>2019-03-16T15:30:30Z</time>
      </trkpt>
      <trkpt lat="44.31903" lon="5.88561">
        <ele>622</ele>
        <time>2019-03-16T15:30:31Z</time>
      </trkpt>
      <trkpt lat="44.31906" lon="5.88559">
        <ele>622</ele>
        <time>2019-03-16T15:30:32Z</time>
      </trkpt>
      <trkpt lat="44.31909" lon="5.88558">
        <ele>622</ele>
        <time>2019-03-16T15:30:33Z</time>
      </trkpt>
      <trkpt lat="44.31912" lon="5.88557">
        <ele>622</ele>
        <time>2019-03-16T15:30:34Z</time>
      </trkpt>
      <trkpt lat="44.31916" lon="5.88556">
        <ele>622</ele>
        <time>2019-03-16T15:30:35Z</time>
      </trkpt>
      <trkpt lat="44.31919" lon="5.88555">
        <ele>622</ele>
        <time>2019-03-16T15:30:36Z</time>
      </trkpt>
      <trkpt lat="44.31922" lon="5.88555">
        <ele>622</ele>
        <time>2019-03-16T15:30:37Z</time>
      </trkpt>
      <trkpt lat="44.31925" lon="5.88554">
        <ele>622</ele>
        <time>2019-03-16T15:30:38Z</time>
      </trkpt>
      <trkpt lat="44.31929" lon="5.88553">
        <ele>622</ele>
        <time>2019-03-16T15:30:39Z</time>
      </trkpt>
      <trkpt lat="44.31932" lon="5.88552">
        <ele>622</ele>
        <time>2019-03-16T15:30:40Z</time>
      </trkpt>
      <trkpt lat="44.31935" lon="5.88552">
        <ele>622</ele>
        <time>2019-03-16T15:30:41Z</time>
      </trkpt>
      <trkpt lat="44.31939" lon="5.88552">
        <ele>622</ele>
        <time>2019-03-16T15:30:42Z</time>
      </trkpt>
      <trkpt lat="44.31942" lon="5.88551">
        <ele>622</ele>
        <time>2019-03-16T15:30:43Z</time>
      </trkpt>
      <trkpt lat="44.31946" lon="5.88551">
        <ele>622</ele>
        <time>2019-03-16T15:30:44Z</time>
      </trkpt>
      <trkpt lat="44.31949" lon="5.8855">
        <ele>622</ele>
        <time>2019-03-16T15:30:45Z</time>
      </trkpt>
      <trkpt lat="44.31953" lon="5.8855">
        <ele>622</ele>
        <time>2019-03-16T15:30:46Z</time>
      </trkpt>
      <trkpt lat="44.31956" lon="5.8855">
        <ele>622</ele>
        <time>2019-03-16T15:30:47Z</time>
      </trkpt>
      <trkpt lat="44.3196" lon="5.8855">
        <ele>622</ele>
        <time>2019-03-16T15:30:48Z</time>
      </trkpt>
      <trkpt lat="44.31963" lon="5.8855">
        <ele>622</ele>
        <time>2019-03-16T15:30:49Z</time>
      </trkpt>
      <trkpt lat="44.31967" lon="5.8855">
        <ele>622</ele>
        <time>2019-03-16T15:30:50Z</time>
      </trkpt>
      <trkpt lat="44.31971" lon="5.8855">
        <ele>622</ele>
        <time>2019-03-16T15:30:51Z</time>
      </trkpt>
      <trkpt lat="44.31975" lon="5.8855">
        <ele>622</ele>
        <time>2019-03-16T15:30:52Z</time>
      </trkpt>
      <trkpt lat="44.31979" lon="5.8855">
        <ele>623</ele>
        <time>2019-03-16T15:30:53Z</time>
      </trkpt>
      <trkpt lat="44.31983" lon="5.88551">
        <ele>623</ele>
        <time>2019-03-16T15:30:54Z</time>
      </trkpt>
      <trkpt lat="44.31987" lon="5.88552">
        <ele>623</ele>
        <time>2019-03-16T15:30:55Z</time>
      </trkpt>
      <trkpt lat="44.31991" lon="5.88553">
        <ele>624</ele>
        <time>2019-03-16T15:30:56Z</time>
      </trkpt>
      <trkpt lat="44.31995" lon="5.88554">
        <ele>624</ele>
        <time>2019-03-16T15:30:57Z</time>
      </trkpt>
      <trkpt lat="44.31998" lon="5.88555">
        <ele>624</ele>
        <time>2019-03-16T15:30:58Z</time>
      </trkpt>
      <trkpt lat="44.32002" lon="5.88557">
        <ele>625</ele>
        <time>2019-03-16T15:30:59Z</time>
      </trkpt>
      <trkpt lat="44.32006" lon="5.88558">
        <ele>625</ele>
        <time>2019-03-16T15:31:00Z</time>
      </trkpt>
      <trkpt lat="44.3201" lon="5.8856">
        <ele>625</ele>
        <time>2019-03-16T15:31:01Z</time>
      </trkpt>
      <trkpt lat="44.32014" lon="5.88561">
        <ele>625</ele>
        <time>2019-03-16T15:31:02Z</time>
      </trkpt>
      <trkpt lat="44.32018" lon="5.88561">
        <ele>626</ele>
        <time>2019-03-16T15:31:03Z</time>
      </trkpt>
      <trkpt lat="44.32022" lon="5.88561">
        <ele>626</ele>
        <time>2019-03-16T15:31:04Z</time>
      </trkpt>
      <trkpt lat="44.32027" lon="5.88561">
        <ele>626</ele>
        <time>2019-03-16T15:31:05Z</time>
      </trkpt>
      <trkpt lat="44.32031" lon="5.8856">
        <ele>627</ele>
        <time>2019-03-16T15:31:06Z</time>
      </trkpt>
      <trkpt lat="44.32035" lon="5.8856">
        <ele>627</ele>
        <time>2019-03-16T15:31:07Z</time>
      </trkpt>
      <trkpt lat="44.32039" lon="5.88559">
        <ele>627</ele>
        <time>2019-03-16T15:31:08Z</time>
      </trkpt>
      <trkpt lat="44.32043" lon="5.88558">
        <ele>627</ele>
        <time>2019-03-16T15:31:09Z</time>
      </trkpt>
      <trkpt lat="44.32047" lon="5.88556">
        <ele>628</ele>
        <time>2019-03-16T15:31:10Z</time>
      </trkpt>
      <trkpt lat="44.32051" lon="5.88553">
        <ele>628</ele>
        <time>2019-03-16T15:31:11Z</time>
      </trkpt>
      <trkpt lat="44.32055" lon="5.88551">
        <ele>628</ele>
        <time>2019-03-16T15:31:12Z</time>
      </trkpt>
      <trkpt lat="44.32059" lon="5.88549">
        <ele>628</ele>
        <time>2019-03-16T15:31:13Z</time>
      </trkpt>
      <trkpt lat="44.32063" lon="5.88547">
        <ele>629</ele>
        <time>2019-03-16T15:31:14Z</time>
      </trkpt>
      <trkpt lat="44.32066" lon="5.88545">
        <ele>629</ele>
        <time>2019-03-16T15:31:15Z</time>
      </trkpt>
      <trkpt lat="44.3207" lon="5.88543">
        <ele>629</ele>
        <time>2019-03-16T15:31:16Z</time>
      </trkpt>
      <trkpt lat="44.32074" lon="5.88541">
        <ele>630</ele>
        <time>2019-03-16T15:31:17Z</time>
      </trkpt>
      <trkpt lat="44.32078" lon="5.88539">
        <ele>630</ele>
        <time>2019-03-16T15:31:18Z</time>
      </trkpt>
      <trkpt lat="44.32082" lon="5.88537">
        <ele>630</ele>
        <time>2019-03-16T15:31:19Z</time>
      </trkpt>
      <trkpt lat="44.32086" lon="5.88534">
        <ele>630</ele>
        <time>2019-03-16T15:31:20Z</time>
      </trkpt>
      <trkpt lat="44.3209" lon="5.88532">
        <ele>630</ele>
        <time>2019-03-16T15:31:21Z</time>
      </trkpt>
      <trkpt lat="44.32094" lon="5.8853">
        <ele>631</ele>
        <time>2019-03-16T15:31:22Z</time>
      </trkpt>
      <trkpt lat="44.32098" lon="5.88528">
        <ele>631</ele>
        <time>2019-03-16T15:31:23Z</time>
      </trkpt>
      <trkpt lat="44.32102" lon="5.88525">
        <ele>631</ele>
        <time>2019-03-16T15:31:24Z</time>
      </trkpt>
      <trkpt lat="44.32106" lon="5.88523">
        <ele>631</ele>
        <time>2019-03-16T15:31:25Z</time>
      </trkpt>
      <trkpt lat="44.32109" lon="5.88521">
        <ele>631</ele>
        <time>2019-03-16T15:31:26Z</time>
      </trkpt>
      <trkpt lat="44.32113" lon="5.88518">
        <ele>631</ele>
        <time>2019-03-16T15:31:27Z</time>
      </trkpt>
      <trkpt lat="44.32116" lon="5.88516">
        <ele>632</ele>
        <time>2019-03-16T15:31:28Z</time>
      </trkpt>
      <trkpt lat="44.3212" lon="5.88515">
        <ele>632</ele>
        <time>2019-03-16T15:31:29Z</time>
      </trkpt>
      <trkpt lat="44.32124" lon="5.88513">
        <ele>632</ele>
        <time>2019-03-16T15:31:30Z</time>
      </trkpt>
      <trkpt lat="44.32128" lon="5.88511">
        <ele>632</ele>
        <time>2019-03-16T15:31:31Z</time>
      </trkpt>
      <trkpt lat="44.32132" lon="5.88509">
        <ele>632</ele>
        <time>2019-03-16T15:31:32Z</time>
      </trkpt>
      <trkpt lat="44.32135" lon="5.88506">
        <ele>632</ele>
        <time>2019-03-16T15:31:33Z</time>
      </trkpt>
      <trkpt lat="44.32139" lon="5.88504">
        <ele>632</ele>
        <time>2019-03-16T15:31:34Z</time>
      </trkpt>
      <trkpt lat="44.32142" lon="5.88502">
        <ele>632</ele>
        <time>2019-03-16T15:31:35Z</time>
      </trkpt>
      <trkpt lat="44.32145" lon="5.88499">
        <ele>632</ele>
        <time>2019-03-16T15:31:36Z</time>
      </trkpt>
      <trkpt lat="44.32149" lon="5.88497">
        <ele>632</ele>
        <time>2019-03-16T15:31:37Z</time>
      </trkpt>
      <trkpt lat="44.32152" lon="5.88495">
        <ele>632</ele>
        <time>2019-03-16T15:31:38Z</time>
      </trkpt>
      <trkpt lat="44.32156" lon="5.88492">
        <ele>632</ele>
        <time>2019-03-16T15:31:39Z</time>
      </trkpt>
      <trkpt lat="44.32159" lon="5.88489">
        <ele>632</ele>
        <time>2019-03-16T15:31:40Z</time>
      </trkpt>
      <trkpt lat="44.32162" lon="5.88487">
        <ele>632</ele>
        <time>2019-03-16T15:31:41Z</time>
      </trkpt>
      <trkpt lat="44.32166" lon="5.88484">
        <ele>632</ele>
        <time>2019-03-16T15:31:42Z</time>
      </trkpt>
      <trkpt lat="44.32169" lon="5.88481">
        <ele>632</ele>
        <time>2019-03-16T15:31:43Z</time>
      </trkpt>
      <trkpt lat="44.32172" lon="5.88477">
        <ele>632</ele>
        <time>2019-03-16T15:31:44Z</time>
      </trkpt>
      <trkpt lat="44.32175" lon="5.88474">
        <ele>632</ele>
        <time>2019-03-16T15:31:45Z</time>
      </trkpt>
      <trkpt lat="44.32179" lon="5.8847">
        <ele>633</ele>
        <time>2019-03-16T15:31:46Z</time>
      </trkpt>
      <trkpt lat="44.32182" lon="5.88467">
        <ele>633</ele>
        <time>2019-03-16T15:31:47Z</time>
      </trkpt>
      <trkpt lat="44.32185" lon="5.88463">
        <ele>633</ele>
        <time>2019-03-16T15:31:48Z</time>
      </trkpt>
      <trkpt lat="44.32188" lon="5.8846">
        <ele>634</ele>
        <time>2019-03-16T15:31:49Z</time>
      </trkpt>
      <trkpt lat="44.32191" lon="5.88457">
        <ele>634</ele>
        <time>2019-03-16T15:31:50Z</time>
      </trkpt>
      <trkpt lat="44.32195" lon="5.88454">
        <ele>634</ele>
        <time>2019-03-16T15:31:51Z</time>
      </trkpt>
      <trkpt lat="44.32198" lon="5.88451">
        <ele>634</ele>
        <time>2019-03-16T15:31:52Z</time>
      </trkpt>
      <trkpt lat="44.32201" lon="5.88448">
        <ele>634</ele>
        <time>2019-03-16T15:31:53Z</time>
      </trkpt>
      <trkpt lat="44.32205" lon="5.88446">
        <ele>634</ele>
        <time>2019-03-16T15:31:54Z</time>
      </trkpt>
      <trkpt lat="44.32209" lon="5.88443">
        <ele>634</ele>
        <time>2019-03-16T15:31:55Z</time>
      </trkpt>
      <trkpt lat="44.32213" lon="5.88441">
        <ele>634</ele>
        <time>2019-03-16T15:31:56Z</time>
      </trkpt>
      <trkpt lat="44.32217" lon="5.88439">
        <ele>634</ele>
        <time>2019-03-16T15:31:57Z</time>
      </trkpt>
      <trkpt lat="44.32221" lon="5.88437">
        <ele>634</ele>
        <time>2019-03-16T15:31:58Z</time>
      </trkpt>
      <trkpt lat="44.32225" lon="5.88436">
        <ele>634</ele>
        <time>2019-03-16T15:31:59Z</time>
      </trkpt>
      <trkpt lat="44.32229" lon="5.88435">
        <ele>634</ele>
        <time>2019-03-16T15:32:00Z</time>
      </trkpt>
      <trkpt lat="44.32233" lon="5.88434">
        <ele>634</ele>
        <time>2019-03-16T15:32:01Z</time>
      </trkpt>
      <trkpt lat="44.32237" lon="5.88433">
        <ele>634</ele>
        <time>2019-03-16T15:32:02Z</time>
      </trkpt>
      <trkpt lat="44.32242" lon="5.88432">
        <ele>634</ele>
        <time>2019-03-16T15:32:03Z</time>
      </trkpt>
      <trkpt lat="44.32246" lon="5.88431">
        <ele>634</ele>
        <time>2019-03-16T15:32:04Z</time>
      </trkpt>
      <trkpt lat="44.32251" lon="5.8843">
        <ele>634</ele>
        <time>2019-03-16T15:32:05Z</time>
      </trkpt>
      <trkpt lat="44.32255" lon="5.88429">
        <ele>634</ele>
        <time>2019-03-16T15:32:06Z</time>
      </trkpt>
      <trkpt lat="44.32259" lon="5.88427">
        <ele>634</ele>
        <time>2019-03-16T15:32:07Z</time>
      </trkpt>
      <trkpt lat="44.32264" lon="5.88426">
        <ele>634</ele>
        <time>2019-03-16T15:32:08Z</time>
      </trkpt>
      <trkpt lat="44.32268" lon="5.88426">
        <ele>634</ele>
        <time>2019-03-16T15:32:09Z</time>
      </trkpt>
      <trkpt lat="44.32272" lon="5.88426">
        <ele>634</ele>
        <time>2019-03-16T15:32:10Z</time>
      </trkpt>
      <trkpt lat="44.32276" lon="5.88425">
        <ele>634</ele>
        <time>2019-03-16T15:32:11Z</time>
      </trkpt>
      <trkpt lat="44.3228" lon="5.88424">
        <ele>634</ele>
        <time>2019-03-16T15:32:12Z</time>
      </trkpt>
      <trkpt lat="44.32285" lon="5.88423">
        <ele>634</ele>
        <time>2019-03-16T15:32:13Z</time>
      </trkpt>
      <trkpt lat="44.3229" lon="5.88421">
        <ele>634</ele>
        <time>2019-03-16T15:32:14Z</time>
      </trkpt>
      <trkpt lat="44.32294" lon="5.88419">
        <ele>634</ele>
        <time>2019-03-16T15:32:15Z</time>
      </trkpt>
      <trkpt lat="44.32298" lon="5.88416">
        <ele>635</ele>
        <time>2019-03-16T15:32:16Z</time>
      </trkpt>
      <trkpt lat="44.32303" lon="5.88414">
        <ele>635</ele>
        <time>2019-03-16T15:32:17Z</time>
      </trkpt>
      <trkpt lat="44.32308" lon="5.88412">
        <ele>635</ele>
        <time>2019-03-16T15:32:18Z</time>
      </trkpt>
      <trkpt lat="44.32313" lon="5.88409">
        <ele>635</ele>
        <time>2019-03-16T15:32:19Z</time>
      </trkpt>
      <trkpt lat="44.32316" lon="5.88405">
        <ele>635</ele>
        <time>2019-03-16T15:32:20Z</time>
      </trkpt>
      <trkpt lat="44.3232" lon="5.88401">
        <ele>636</ele>
        <time>2019-03-16T15:32:21Z</time>
      </trkpt>
      <trkpt lat="44.32322" lon="5.88396">
        <ele>636</ele>
        <time>2019-03-16T15:32:22Z</time>
      </trkpt>
      <trkpt lat="44.32325" lon="5.88391">
        <ele>636</ele>
        <time>2019-03-16T15:32:23Z</time>
      </trkpt>
      <trkpt lat="44.32328" lon="5.88386">
        <ele>636</ele>
        <time>2019-03-16T15:32:24Z</time>
      </trkpt>
      <trkpt lat="44.32329" lon="5.8838">
        <ele>637</ele>
        <time>2019-03-16T15:32:25Z</time>
      </trkpt>
      <trkpt lat="44.32331" lon="5.88375">
        <ele>637</ele>
        <time>2019-03-16T15:32:26Z</time>
      </trkpt>
      <trkpt lat="44.32333" lon="5.88369">
        <ele>637</ele>
        <time>2019-03-16T15:32:27Z</time>
      </trkpt>
      <trkpt lat="44.32334" lon="5.88364">
        <ele>637</ele>
        <time>2019-03-16T15:32:28Z</time>
      </trkpt>
      <trkpt lat="44.32336" lon="5.88359">
        <ele>637</ele>
        <time>2019-03-16T15:32:29Z</time>
      </trkpt>
      <trkpt lat="44.32337" lon="5.88353">
        <ele>638</ele>
        <time>2019-03-16T15:32:30Z</time>
      </trkpt>
      <trkpt lat="44.32338" lon="5.88348">
        <ele>638</ele>
        <time>2019-03-16T15:32:31Z</time>
      </trkpt>
      <trkpt lat="44.32339" lon="5.88343">
        <ele>638</ele>
        <time>2019-03-16T15:32:32Z</time>
      </trkpt>
      <trkpt lat="44.32341" lon="5.88338">
        <ele>639</ele>
        <time>2019-03-16T15:32:33Z</time>
      </trkpt>
      <trkpt lat="44.32343" lon="5.88333">
        <ele>639</ele>
        <time>2019-03-16T15:32:34Z</time>
      </trkpt>
      <trkpt lat="44.32344" lon="5.88328">
        <ele>639</ele>
        <time>2019-03-16T15:32:35Z</time>
      </trkpt>
      <trkpt lat="44.32346" lon="5.88323">
        <ele>639</ele>
        <time>2019-03-16T15:32:36Z</time>
      </trkpt>
      <trkpt lat="44.32347" lon="5.88318">
        <ele>640</ele>
        <time>2019-03-16T15:32:37Z</time>
      </trkpt>
      <trkpt lat="44.32349" lon="5.88313">
        <ele>640</ele>
        <time>2019-03-16T15:32:38Z</time>
      </trkpt>
      <trkpt lat="44.32351" lon="5.88308">
        <ele>640</ele>
        <time>2019-03-16T15:32:39Z</time>
      </trkpt>
      <trkpt lat="44.32352" lon="5.88304">
        <ele>640</ele>
        <time>2019-03-16T15:32:40Z</time>
      </trkpt>
      <trkpt lat="44.32354" lon="5.88299">
        <ele>641</ele>
        <time>2019-03-16T15:32:41Z</time>
      </trkpt>
      <trkpt lat="44.32356" lon="5.88295">
        <ele>641</ele>
        <time>2019-03-16T15:32:42Z</time>
      </trkpt>
      <trkpt lat="44.32358" lon="5.8829">
        <ele>641</ele>
        <time>2019-03-16T15:32:43Z</time>
      </trkpt>
      <trkpt lat="44.3236" lon="5.88286">
        <ele>641</ele>
        <time>2019-03-16T15:32:44Z</time>
      </trkpt>
      <trkpt lat="44.32362" lon="5.88281">
        <ele>642</ele>
        <time>2019-03-16T15:32:45Z</time>
      </trkpt>
      <trkpt lat="44.32364" lon="5.88276">
        <ele>642</ele>
        <time>2019-03-16T15:32:46Z</time>
      </trkpt>
      <trkpt lat="44.32365" lon="5.88271">
        <ele>642</ele>
        <time>2019-03-16T15:32:47Z</time>
      </trkpt>
      <trkpt lat="44.32367" lon="5.88267">
        <ele>642</ele>
        <time>2019-03-16T15:32:48Z</time>
      </trkpt>
      <trkpt lat="44.32368" lon="5.88262">
        <ele>643</ele>
        <time>2019-03-16T15:32:49Z</time>
      </trkpt>
      <trkpt lat="44.3237" lon="5.88258">
        <ele>643</ele>
        <time>2019-03-16T15:32:50Z</time>
      </trkpt>
      <trkpt lat="44.32373" lon="5.88254">
        <ele>643</ele>
        <time>2019-03-16T15:32:51Z</time>
      </trkpt>
      <trkpt lat="44.32375" lon="5.8825">
        <ele>643</ele>
        <time>2019-03-16T15:32:52Z</time>
      </trkpt>
      <trkpt lat="44.32377" lon="5.88246">
        <ele>643</ele>
        <time>2019-03-16T15:32:53Z</time>
      </trkpt>
      <trkpt lat="44.32378" lon="5.88242">
        <ele>643</ele>
        <time>2019-03-16T15:32:54Z</time>
      </trkpt>
      <trkpt lat="44.3238" lon="5.88237">
        <ele>643</ele>
        <time>2019-03-16T15:32:55Z</time>
      </trkpt>
      <trkpt lat="44.32381" lon="5.88233">
        <ele>644</ele>
        <time>2019-03-16T15:32:56Z</time>
      </trkpt>
      <trkpt lat="44.32383" lon="5.88229">
        <ele>644</ele>
        <time>2019-03-16T15:32:57Z</time>
      </trkpt>
      <trkpt lat="44.32384" lon="5.88224">
        <ele>644</ele>
        <time>2019-03-16T15:32:58Z</time>
      </trkpt>
      <trkpt lat="44.32386" lon="5.8822">
        <ele>644</ele>
        <time>2019-03-16T15:32:59Z</time>
      </trkpt>
      <trkpt lat="44.32387" lon="5.88215">
        <ele>644</ele>
        <time>2019-03-16T15:33:00Z</time>
      </trkpt>
      <trkpt lat="44.32388" lon="5.88211">
        <ele>644</ele>
        <time>2019-03-16T15:33:01Z</time>
      </trkpt>
      <trkpt lat="44.3239" lon="5.88206">
        <ele>645</ele>
        <time>2019-03-16T15:33:02Z</time>
      </trkpt>
      <trkpt lat="44.32392" lon="5.88201">
        <ele>645</ele>
        <time>2019-03-16T15:33:03Z</time>
      </trkpt>
      <trkpt lat="44.32394" lon="5.88195">
        <ele>645</ele>
        <time>2019-03-16T15:33:04Z</time>
      </trkpt>
      <trkpt lat="44.32395" lon="5.88188">
        <ele>645</ele>
        <time>2019-03-16T15:33:05Z</time>
      </trkpt>
      <trkpt lat="44.32397" lon="5.88182">
        <ele>645</ele>
        <time>2019-03-16T15:33:06Z</time>
      </trkpt>
      <trkpt lat="44.32399" lon="5.88176">
        <ele>645</ele>
        <time>2019-03-16T15:33:07Z</time>
      </trkpt>
      <trkpt lat="44.32401" lon="5.88169">
        <ele>645</ele>
        <time>2019-03-16T15:33:08Z</time>
      </trkpt>
      <trkpt lat="44.32402" lon="5.88162">
        <ele>645</ele>
        <time>2019-03-16T15:33:09Z</time>
      </trkpt>
      <trkpt lat="44.32404" lon="5.88155">
        <ele>645</ele>
        <time>2019-03-16T15:33:10Z</time>
      </trkpt>
      <trkpt lat="44.32406" lon="5.88148">
        <ele>645</ele>
        <time>2019-03-16T15:33:11Z</time>
      </trkpt>
      <trkpt lat="44.32408" lon="5.88141">
        <ele>645</ele>
        <time>2019-03-16T15:33:12Z</time>
      </trkpt>
      <trkpt lat="44.3241" lon="5.88133">
        <ele>645</ele>
        <time>2019-03-16T15:33:13Z</time>
      </trkpt>
      <trkpt lat="44.32412" lon="5.88126">
        <ele>645</ele>
        <time>2019-03-16T15:33:14Z</time>
      </trkpt>
      <trkpt lat="44.32414" lon="5.88118">
        <ele>645</ele>
        <time>2019-03-16T15:33:15Z</time>
      </trkpt>
      <trkpt lat="44.32416" lon="5.88111">
        <ele>645</ele>
        <time>2019-03-16T15:33:16Z</time>
      </trkpt>
      <trkpt lat="44.32418" lon="5.88103">
        <ele>645</ele>
        <time>2019-03-16T15:33:17Z</time>
      </trkpt>
      <trkpt lat="44.3242" lon="5.88096">
        <ele>645</ele>
        <time>2019-03-16T15:33:18Z</time>
      </trkpt>
      <trkpt lat="44.32423" lon="5.88088">
        <ele>645</ele>
        <time>2019-03-16T15:33:19Z</time>
      </trkpt>
      <trkpt lat="44.32426" lon="5.88081">
        <ele>645</ele>
        <time>2019-03-16T15:33:20Z</time>
      </trkpt>
      <trkpt lat="44.32429" lon="5.88074">
        <ele>644</ele>
        <time>2019-03-16T15:33:21Z</time>
      </trkpt>
      <trkpt lat="44.32432" lon="5.88067">
        <ele>644</ele>
        <time>2019-03-16T15:33:22Z</time>
      </trkpt>
      <trkpt lat="44.32436" lon="5.88062">
        <ele>644</ele>
        <time>2019-03-16T15:33:23Z</time>
      </trkpt>
      <trkpt lat="44.32439" lon="5.88056">
        <ele>644</ele>
        <time>2019-03-16T15:33:24Z</time>
      </trkpt>
      <trkpt lat="44.32443" lon="5.88051">
        <ele>643</ele>
        <time>2019-03-16T15:33:25Z</time>
      </trkpt>
      <trkpt lat="44.32447" lon="5.88046">
        <ele>643</ele>
        <time>2019-03-16T15:33:26Z</time>
      </trkpt>
      <trkpt lat="44.32452" lon="5.8804">
        <ele>643</ele>
        <time>2019-03-16T15:33:27Z</time>
      </trkpt>
      <trkpt lat="44.32455" lon="5.88036">
        <ele>643</ele>
        <time>2019-03-16T15:33:28Z</time>
      </trkpt>
      <trkpt lat="44.3246" lon="5.88031">
        <ele>643</ele>
        <time>2019-03-16T15:33:29Z</time>
      </trkpt>
      <trkpt lat="44.32463" lon="5.88026">
        <ele>642</ele>
        <time>2019-03-16T15:33:30Z</time>
      </trkpt>
      <trkpt lat="44.32467" lon="5.88022">
        <ele>642</ele>
        <time>2019-03-16T15:33:31Z</time>
      </trkpt>
      <trkpt lat="44.32471" lon="5.88017">
        <ele>642</ele>
        <time>2019-03-16T15:33:32Z</time>
      </trkpt>
      <trkpt lat="44.32475" lon="5.88012">
        <ele>642</ele>
        <time>2019-03-16T15:33:33Z</time>
      </trkpt>
      <trkpt lat="44.32478" lon="5.88007">
        <ele>641</ele>
        <time>2019-03-16T15:33:34Z</time>
      </trkpt>
      <trkpt lat="44.32482" lon="5.88001">
        <ele>641</ele>
        <time>2019-03-16T15:33:35Z</time>
      </trkpt>
      <trkpt lat="44.32485" lon="5.87996">
        <ele>641</ele>
        <time>2019-03-16T15:33:36Z</time>
      </trkpt>
      <trkpt lat="44.32488" lon="5.8799">
        <ele>640</ele>
        <time>2019-03-16T15:33:37Z</time>
      </trkpt>
      <trkpt lat="44.32491" lon="5.87983">
        <ele>640</ele>
        <time>2019-03-16T15:33:38Z</time>
      </trkpt>
      <trkpt lat="44.32493" lon="5.87977">
        <ele>640</ele>
        <time>2019-03-16T15:33:39Z</time>
      </trkpt>
      <trkpt lat="44.32495" lon="5.8797">
        <ele>640</ele>
        <time>2019-03-16T15:33:40Z</time>
      </trkpt>
      <trkpt lat="44.32497" lon="5.87963">
        <ele>640</ele>
        <time>2019-03-16T15:33:41Z</time>
      </trkpt>
      <trkpt lat="44.32499" lon="5.87955">
        <ele>640</ele>
        <time>2019-03-16T15:33:42Z</time>
      </trkpt>
      <trkpt lat="44.32501" lon="5.87948">
        <ele>640</ele>
        <time>2019-03-16T15:33:43Z</time>
      </trkpt>
      <trkpt lat="44.32502" lon="5.8794">
        <ele>640</ele>
        <time>2019-03-16T15:33:44Z</time>
      </trkpt>
      <trkpt lat="44.32503" lon="5.87932">
        <ele>640</ele>
        <time>2019-03-16T15:33:45Z</time>
      </trkpt>
      <trkpt lat="44.32504" lon="5.87923">
        <ele>640</ele>
        <time>2019-03-16T15:33:46Z</time>
      </trkpt>
      <trkpt lat="44.32505" lon="5.87915">
        <ele>639</ele>
        <time>2019-03-16T15:33:47Z</time>
      </trkpt>
      <trkpt lat="44.32505" lon="5.87906">
        <ele>639</ele>
        <time>2019-03-16T15:33:48Z</time>
      </trkpt>
      <trkpt lat="44.32506" lon="5.87897">
        <ele>639</ele>
        <time>2019-03-16T15:33:49Z</time>
      </trkpt>
      <trkpt lat="44.32507" lon="5.87888">
        <ele>639</ele>
        <time>2019-03-16T15:33:50Z</time>
      </trkpt>
      <trkpt lat="44.32508" lon="5.87879">
        <ele>639</ele>
        <time>2019-03-16T15:33:51Z</time>
      </trkpt>
      <trkpt lat="44.32508" lon="5.87869">
        <ele>639</ele>
        <time>2019-03-16T15:33:52Z</time>
      </trkpt>
      <trkpt lat="44.32509" lon="5.87859">
        <ele>638</ele>
        <time>2019-03-16T15:33:53Z</time>
      </trkpt>
      <trkpt lat="44.3251" lon="5.87849">
        <ele>638</ele>
        <time>2019-03-16T15:33:54Z</time>
      </trkpt>
      <trkpt lat="44.32511" lon="5.87839">
        <ele>638</ele>
        <time>2019-03-16T15:33:55Z</time>
      </trkpt>
      <trkpt lat="44.32512" lon="5.87829">
        <ele>637</ele>
        <time>2019-03-16T15:33:56Z</time>
      </trkpt>
      <trkpt lat="44.32513" lon="5.87818">
        <ele>637</ele>
        <time>2019-03-16T15:33:57Z</time>
      </trkpt>
      <trkpt lat="44.32513" lon="5.87808">
        <ele>636</ele>
        <time>2019-03-16T15:33:58Z</time>
      </trkpt>
      <trkpt lat="44.32514" lon="5.87797">
        <ele>636</ele>
        <time>2019-03-16T15:33:59Z</time>
      </trkpt>
      <trkpt lat="44.32515" lon="5.87787">
        <ele>636</ele>
        <time>2019-03-16T15:34:00Z</time>
      </trkpt>
      <trkpt lat="44.32516" lon="5.87776">
        <ele>635</ele>
        <time>2019-03-16T15:34:01Z</time>
      </trkpt>
      <trkpt lat="44.32517" lon="5.87766">
        <ele>635</ele>
        <time>2019-03-16T15:34:02Z</time>
      </trkpt>
      <trkpt lat="44.32518" lon="5.87756">
        <ele>635</ele>
        <time>2019-03-16T15:34:03Z</time>
      </trkpt>
      <trkpt lat="44.32518" lon="5.87746">
        <ele>635</ele>
        <time>2019-03-16T15:34:04Z</time>
      </trkpt>
      <trkpt lat="44.32519" lon="5.87735">
        <ele>634</ele>
        <time>2019-03-16T15:34:05Z</time>
      </trkpt>
      <trkpt lat="44.3252" lon="5.87724">
        <ele>634</ele>
        <time>2019-03-16T15:34:06Z</time>
      </trkpt>
      <trkpt lat="44.32521" lon="5.87714">
        <ele>633</ele>
        <time>2019-03-16T15:34:07Z</time>
      </trkpt>
      <trkpt lat="44.32521" lon="5.87703">
        <ele>633</ele>
        <time>2019-03-16T15:34:08Z</time>
      </trkpt>
      <trkpt lat="44.32522" lon="5.87691">
        <ele>633</ele>
        <time>2019-03-16T15:34:09Z</time>
      </trkpt>
      <trkpt lat="44.32523" lon="5.8768">
        <ele>632</ele>
        <time>2019-03-16T15:34:10Z</time>
      </trkpt>
      <trkpt lat="44.32523" lon="5.87669">
        <ele>632</ele>
        <time>2019-03-16T15:34:11Z</time>
      </trkpt>
      <trkpt lat="44.32524" lon="5.87658">
        <ele>632</ele>
        <time>2019-03-16T15:34:12Z</time>
      </trkpt>
      <trkpt lat="44.32525" lon="5.87646">
        <ele>632</ele>
        <time>2019-03-16T15:34:13Z</time>
      </trkpt>
      <trkpt lat="44.32526" lon="5.87635">
        <ele>632</ele>
        <time>2019-03-16T15:34:14Z</time>
      </trkpt>
      <trkpt lat="44.32526" lon="5.87624">
        <ele>632</ele>
        <time>2019-03-16T15:34:15Z</time>
      </trkpt>
      <trkpt lat="44.32527" lon="5.87613">
        <ele>632</ele>
        <time>2019-03-16T15:34:16Z</time>
      </trkpt>
      <trkpt lat="44.32527" lon="5.87603">
        <ele>631</ele>
        <time>2019-03-16T15:34:17Z</time>
      </trkpt>
      <trkpt lat="44.32526" lon="5.87593">
        <ele>631</ele>
        <time>2019-03-16T15:34:18Z</time>
      </trkpt>
      <trkpt lat="44.32524" lon="5.87584">
        <ele>631</ele>
        <time>2019-03-16T15:34:19Z</time>
      </trkpt>
      <trkpt lat="44.32521" lon="5.87575">
        <ele>631</ele>
        <time>2019-03-16T15:34:20Z</time>
      </trkpt>
      <trkpt lat="44.32516" lon="5.87567">
        <ele>630</ele>
        <time>2019-03-16T15:34:21Z</time>
      </trkpt>
      <trkpt lat="44.32512" lon="5.87559">
        <ele>630</ele>
        <time>2019-03-16T15:34:22Z</time>
      </trkpt>
      <trkpt lat="44.32507" lon="5.87552">
        <ele>630</ele>
        <time>2019-03-16T15:34:23Z</time>
      </trkpt>
      <trkpt lat="44.32501" lon="5.87545">
        <ele>630</ele>
        <time>2019-03-16T15:34:24Z</time>
      </trkpt>
      <trkpt lat="44.32496" lon="5.87539">
        <ele>630</ele>
        <time>2019-03-16T15:34:25Z</time>
      </trkpt>
      <trkpt lat="44.32491" lon="5.87532">
        <ele>630</ele>
        <time>2019-03-16T15:34:26Z</time>
      </trkpt>
      <trkpt lat="44.32486" lon="5.87525">
        <ele>630</ele>
        <time>2019-03-16T15:34:27Z</time>
      </trkpt>
      <trkpt lat="44.32482" lon="5.87518">
        <ele>629</ele>
        <time>2019-03-16T15:34:28Z</time>
      </trkpt>
      <trkpt lat="44.32477" lon="5.87511">
        <ele>629</ele>
        <time>2019-03-16T15:34:29Z</time>
      </trkpt>
      <trkpt lat="44.32473" lon="5.87504">
        <ele>629</ele>
        <time>2019-03-16T15:34:30Z</time>
      </trkpt>
      <trkpt lat="44.32469" lon="5.87496">
        <ele>629</ele>
        <time>2019-03-16T15:34:31Z</time>
      </trkpt>
      <trkpt lat="44.32465" lon="5.87489">
        <ele>629</ele>
        <time>2019-03-16T15:34:32Z</time>
      </trkpt>
      <trkpt lat="44.32462" lon="5.87482">
        <ele>629</ele>
        <time>2019-03-16T15:34:33Z</time>
      </trkpt>
      <trkpt lat="44.32458" lon="5.87474">
        <ele>629</ele>
        <time>2019-03-16T15:34:34Z</time>
      </trkpt>
      <trkpt lat="44.32454" lon="5.87467">
        <ele>629</ele>
        <time>2019-03-16T15:34:35Z</time>
      </trkpt>
      <trkpt lat="44.3245" lon="5.8746">
        <ele>629</ele>
        <time>2019-03-16T15:34:36Z</time>
      </trkpt>
      <trkpt lat="44.32447" lon="5.87452">
        <ele>629</ele>
        <time>2019-03-16T15:34:37Z</time>
      </trkpt>
      <trkpt lat="44.32444" lon="5.87443">
        <ele>629</ele>
        <time>2019-03-16T15:34:38Z</time>
      </trkpt>
      <trkpt lat="44.32442" lon="5.87435">
        <ele>629</ele>
        <time>2019-03-16T15:34:39Z</time>
      </trkpt>
      <trkpt lat="44.32441" lon="5.87426">
        <ele>629</ele>
        <time>2019-03-16T15:34:40Z</time>
      </trkpt>
      <trkpt lat="44.3244" lon="5.87417">
        <ele>629</ele>
        <time>2019-03-16T15:34:41Z</time>
      </trkpt>
      <trkpt lat="44.3244" lon="5.87408">
        <ele>629</ele>
        <time>2019-03-16T15:34:42Z</time>
      </trkpt>
      <trkpt lat="44.32441" lon="5.87399">
        <ele>629</ele>
        <time>2019-03-16T15:34:43Z</time>
      </trkpt>
      <trkpt lat="44.32442" lon="5.8739">
        <ele>629</ele>
        <time>2019-03-16T15:34:44Z</time>
      </trkpt>
      <trkpt lat="44.32443" lon="5.87382">
        <ele>629</ele>
        <time>2019-03-16T15:34:45Z</time>
      </trkpt>
      <trkpt lat="44.32444" lon="5.87373">
        <ele>629</ele>
        <time>2019-03-16T15:34:46Z</time>
      </trkpt>
      <trkpt lat="44.32445" lon="5.87365">
        <ele>629</ele>
        <time>2019-03-16T15:34:47Z</time>
      </trkpt>
      <trkpt lat="44.32446" lon="5.87357">
        <ele>629</ele>
        <time>2019-03-16T15:34:48Z</time>
      </trkpt>
      <trkpt lat="44.32446" lon="5.87349">
        <ele>629</ele>
        <time>2019-03-16T15:34:49Z</time>
      </trkpt>
      <trkpt lat="44.32447" lon="5.8734">
        <ele>629</ele>
        <time>2019-03-16T15:34:50Z</time>
      </trkpt>
      <trkpt lat="44.32448" lon="5.87331">
        <ele>629</ele>
        <time>2019-03-16T15:34:51Z</time>
      </trkpt>
      <trkpt lat="44.32449" lon="5.87322">
        <ele>629</ele>
        <time>2019-03-16T15:34:52Z</time>
      </trkpt>
      <trkpt lat="44.3245" lon="5.87313">
        <ele>629</ele>
        <time>2019-03-16T15:34:53Z</time>
      </trkpt>
      <trkpt lat="44.32451" lon="5.87304">
        <ele>629</ele>
        <time>2019-03-16T15:34:54Z</time>
      </trkpt>
      <trkpt lat="44.32452" lon="5.87295">
        <ele>629</ele>
        <time>2019-03-16T15:34:55Z</time>
      </trkpt>
      <trkpt lat="44.32452" lon="5.87286">
        <ele>629</ele>
        <time>2019-03-16T15:34:56Z</time>
      </trkpt>
      <trkpt lat="44.32453" lon="5.87277">
        <ele>629</ele>
        <time>2019-03-16T15:34:57Z</time>
      </trkpt>
      <trkpt lat="44.32454" lon="5.87269">
        <ele>629</ele>
        <time>2019-03-16T15:34:58Z</time>
      </trkpt>
      <trkpt lat="44.32455" lon="5.8726">
        <ele>629</ele>
        <time>2019-03-16T15:34:59Z</time>
      </trkpt>
      <trkpt lat="44.32456" lon="5.87252">
        <ele>629</ele>
        <time>2019-03-16T15:35:00Z</time>
      </trkpt>
      <trkpt lat="44.32457" lon="5.87244">
        <ele>629</ele>
        <time>2019-03-16T15:35:01Z</time>
      </trkpt>
      <trkpt lat="44.3246" lon="5.87235">
        <ele>629</ele>
        <time>2019-03-16T15:35:02Z</time>
      </trkpt>
      <trkpt lat="44.32462" lon="5.87227">
        <ele>629</ele>
        <time>2019-03-16T15:35:03Z</time>
      </trkpt>
      <trkpt lat="44.32466" lon="5.8722">
        <ele>629</ele>
        <time>2019-03-16T15:35:04Z</time>
      </trkpt>
      <trkpt lat="44.3247" lon="5.87213">
        <ele>629</ele>
        <time>2019-03-16T15:35:05Z</time>
      </trkpt>
      <trkpt lat="44.32475" lon="5.87207">
        <ele>629</ele>
        <time>2019-03-16T15:35:06Z</time>
      </trkpt>
      <trkpt lat="44.3248" lon="5.87201">
        <ele>629</ele>
        <time>2019-03-16T15:35:07Z</time>
      </trkpt>
      <trkpt lat="44.32486" lon="5.87195">
        <ele>629</ele>
        <time>2019-03-16T15:35:08Z</time>
      </trkpt>
      <trkpt lat="44.32492" lon="5.87191">
        <ele>629</ele>
        <time>2019-03-16T15:35:09Z</time>
      </trkpt>
      <trkpt lat="44.32499" lon="5.87186">
        <ele>629</ele>
        <time>2019-03-16T15:35:10Z</time>
      </trkpt>
      <trkpt lat="44.32506" lon="5.87181">
        <ele>629</ele>
        <time>2019-03-16T15:35:11Z</time>
      </trkpt>
      <trkpt lat="44.32513" lon="5.87176">
        <ele>629</ele>
        <time>2019-03-16T15:35:12Z</time>
      </trkpt>
      <trkpt lat="44.3252" lon="5.87171">
        <ele>629</ele>
        <time>2019-03-16T15:35:13Z</time>
      </trkpt>
      <trkpt lat="44.32528" lon="5.87165">
        <ele>629</ele>
        <time>2019-03-16T15:35:14Z</time>
      </trkpt>
      <trkpt lat="44.32535" lon="5.8716">
        <ele>629</ele>
        <time>2019-03-16T15:35:15Z</time>
      </trkpt>
      <trkpt lat="44.32543" lon="5.87156">
        <ele>629</ele>
        <time>2019-03-16T15:35:16Z</time>
      </trkpt>
      <trkpt lat="44.32551" lon="5.87151">
        <ele>629</ele>
        <time>2019-03-16T15:35:17Z</time>
      </trkpt>
      <trkpt lat="44.32558" lon="5.87147">
        <ele>629</ele>
        <time>2019-03-16T15:35:18Z</time>
      </trkpt>
      <trkpt lat="44.32566" lon="5.87144">
        <ele>628</ele>
        <time>2019-03-16T15:35:19Z</time>
      </trkpt>
      <trkpt lat="44.32574" lon="5.87142">
        <ele>628</ele>
        <time>2019-03-16T15:35:20Z</time>
      </trkpt>
      <trkpt lat="44.32582" lon="5.87141">
        <ele>628</ele>
        <time>2019-03-16T15:35:21Z</time>
      </trkpt>
      <trkpt lat="44.3259" lon="5.8714">
        <ele>628</ele>
        <time>2019-03-16T15:35:22Z</time>
      </trkpt>
      <trkpt lat="44.32597" lon="5.87141">
        <ele>627</ele>
        <time>2019-03-16T15:35:23Z</time>
      </trkpt>
      <trkpt lat="44.32605" lon="5.87142">
        <ele>627</ele>
        <time>2019-03-16T15:35:24Z</time>
      </trkpt>
      <trkpt lat="44.32612" lon="5.87142">
        <ele>627</ele>
        <time>2019-03-16T15:35:25Z</time>
      </trkpt>
      <trkpt lat="44.32619" lon="5.87143">
        <ele>627</ele>
        <time>2019-03-16T15:35:26Z</time>
      </trkpt>
      <trkpt lat="44.32626" lon="5.87142">
        <ele>627</ele>
        <time>2019-03-16T15:35:27Z</time>
      </trkpt>
      <trkpt lat="44.32632" lon="5.87141">
        <ele>627</ele>
        <time>2019-03-16T15:35:28Z</time>
      </trkpt>
      <trkpt lat="44.32639" lon="5.87139">
        <ele>627</ele>
        <time>2019-03-16T15:35:29Z</time>
      </trkpt>
      <trkpt lat="44.32646" lon="5.87137">
        <ele>627</ele>
        <time>2019-03-16T15:35:30Z</time>
      </trkpt>
      <trkpt lat="44.32652" lon="5.87134">
        <ele>627</ele>
        <time>2019-03-16T15:35:31Z</time>
      </trkpt>
      <trkpt lat="44.32659" lon="5.8713">
        <ele>626</ele>
        <time>2019-03-16T15:35:32Z</time>
      </trkpt>
      <trkpt lat="44.32666" lon="5.87126">
        <ele>626</ele>
        <time>2019-03-16T15:35:33Z</time>
      </trkpt>
      <trkpt lat="44.32672" lon="5.87121">
        <ele>626</ele>
        <time>2019-03-16T15:35:34Z</time>
      </trkpt>
      <trkpt lat="44.32678" lon="5.87115">
        <ele>626</ele>
        <time>2019-03-16T15:35:35Z</time>
      </trkpt>
      <trkpt lat="44.32684" lon="5.87108">
        <ele>625</ele>
        <time>2019-03-16T15:35:36Z</time>
      </trkpt>
      <trkpt lat="44.32688" lon="5.87099">
        <ele>625</ele>
        <time>2019-03-16T15:35:37Z</time>
      </trkpt>
      <trkpt lat="44.32692" lon="5.8709">
        <ele>625</ele>
        <time>2019-03-16T15:35:38Z</time>
      </trkpt>
      <trkpt lat="44.32695" lon="5.87081">
        <ele>625</ele>
        <time>2019-03-16T15:35:39Z</time>
      </trkpt>
      <trkpt lat="44.32697" lon="5.87071">
        <ele>624</ele>
        <time>2019-03-16T15:35:40Z</time>
      </trkpt>
      <trkpt lat="44.32698" lon="5.87061">
        <ele>624</ele>
        <time>2019-03-16T15:35:41Z</time>
      </trkpt>
      <trkpt lat="44.327" lon="5.87051">
        <ele>623</ele>
        <time>2019-03-16T15:35:42Z</time>
      </trkpt>
      <trkpt lat="44.32701" lon="5.8704">
        <ele>623</ele>
        <time>2019-03-16T15:35:43Z</time>
      </trkpt>
      <trkpt lat="44.32703" lon="5.87031">
        <ele>623</ele>
        <time>2019-03-16T15:35:44Z</time>
      </trkpt>
      <trkpt lat="44.32705" lon="5.87021">
        <ele>623</ele>
        <time>2019-03-16T15:35:45Z</time>
      </trkpt>
      <trkpt lat="44.32707" lon="5.87012">
        <ele>622</ele>
        <time>2019-03-16T15:35:46Z</time>
      </trkpt>
      <trkpt lat="44.32708" lon="5.87003">
        <ele>622</ele>
        <time>2019-03-16T15:35:47Z</time>
      </trkpt>
      <trkpt lat="44.3271" lon="5.86994">
        <ele>622</ele>
        <time>2019-03-16T15:35:48Z</time>
      </trkpt>
      <trkpt lat="44.32712" lon="5.86985">
        <ele>622</ele>
        <time>2019-03-16T15:35:49Z</time>
      </trkpt>
      <trkpt lat="44.32714" lon="5.86976">
        <ele>622</ele>
        <time>2019-03-16T15:35:50Z</time>
      </trkpt>
      <trkpt lat="44.32716" lon="5.86968">
        <ele>622</ele>
        <time>2019-03-16T15:35:51Z</time>
      </trkpt>
      <trkpt lat="44.32718" lon="5.86959">
        <ele>622</ele>
        <time>2019-03-16T15:35:52Z</time>
      </trkpt>
      <trkpt lat="44.32719" lon="5.86951">
        <ele>622</ele>
        <time>2019-03-16T15:35:53Z</time>
      </trkpt>
      <trkpt lat="44.32721" lon="5.86942">
        <ele>622</ele>
        <time>2019-03-16T15:35:54Z</time>
      </trkpt>
      <trkpt lat="44.32723" lon="5.86934">
        <ele>622</ele>
        <time>2019-03-16T15:35:55Z</time>
      </trkpt>
      <trkpt lat="44.32725" lon="5.86926">
        <ele>621</ele>
        <time>2019-03-16T15:35:56Z</time>
      </trkpt>
      <trkpt lat="44.32727" lon="5.86917">
        <ele>621</ele>
        <time>2019-03-16T15:35:57Z</time>
      </trkpt>
      <trkpt lat="44.3273" lon="5.86908">
        <ele>621</ele>
        <time>2019-03-16T15:35:58Z</time>
      </trkpt>
      <trkpt lat="44.32732" lon="5.869">
        <ele>621</ele>
        <time>2019-03-16T15:35:59Z</time>
      </trkpt>
      <trkpt lat="44.32735" lon="5.86891">
        <ele>621</ele>
        <time>2019-03-16T15:36:00Z</time>
      </trkpt>
      <trkpt lat="44.32738" lon="5.86883">
        <ele>621</ele>
        <time>2019-03-16T15:36:01Z</time>
      </trkpt>
      <trkpt lat="44.3274" lon="5.86874">
        <ele>621</ele>
        <time>2019-03-16T15:36:02Z</time>
      </trkpt>
      <trkpt lat="44.32743" lon="5.86866">
        <ele>621</ele>
        <time>2019-03-16T15:36:03Z</time>
      </trkpt>
      <trkpt lat="44.32745" lon="5.86857">
        <ele>621</ele>
        <time>2019-03-16T15:36:04Z</time>
      </trkpt>
      <trkpt lat="44.32747" lon="5.86848">
        <ele>621</ele>
        <time>2019-03-16T15:36:05Z</time>
      </trkpt>
      <trkpt lat="44.3275" lon="5.8684">
        <ele>621</ele>
        <time>2019-03-16T15:36:06Z</time>
      </trkpt>
      <trkpt lat="44.32751" lon="5.86831">
        <ele>621</ele>
        <time>2019-03-16T15:36:07Z</time>
      </trkpt>
      <trkpt lat="44.32753" lon="5.86822">
        <ele>621</ele>
        <time>2019-03-16T15:36:08Z</time>
      </trkpt>
      <trkpt lat="44.32756" lon="5.86814">
        <ele>621</ele>
        <time>2019-03-16T15:36:09Z</time>
      </trkpt>
      <trkpt lat="44.32757" lon="5.86805">
        <ele>621</ele>
        <time>2019-03-16T15:36:10Z</time>
      </trkpt>
      <trkpt lat="44.32759" lon="5.86796">
        <ele>621</ele>
        <time>2019-03-16T15:36:11Z</time>
      </trkpt>
      <trkpt lat="44.32761" lon="5.86788">
        <ele>621</ele>
        <time>2019-03-16T15:36:12Z</time>
      </trkpt>
      <trkpt lat="44.32762" lon="5.86779">
        <ele>621</ele>
        <time>2019-03-16T15:36:13Z</time>
      </trkpt>
      <trkpt lat="44.32763" lon="5.8677">
        <ele>621</ele>
        <time>2019-03-16T15:36:14Z</time>
      </trkpt>
      <trkpt lat="44.32763" lon="5.86762">
        <ele>621</ele>
        <time>2019-03-16T15:36:15Z</time>
      </trkpt>
      <trkpt lat="44.32763" lon="5.86754">
        <ele>621</ele>
        <time>2019-03-16T15:36:16Z</time>
      </trkpt>
      <trkpt lat="44.32763" lon="5.86746">
        <ele>621</ele>
        <time>2019-03-16T15:36:17Z</time>
      </trkpt>
      <trkpt lat="44.32763" lon="5.86737">
        <ele>620</ele>
        <time>2019-03-16T15:36:18Z</time>
      </trkpt>
      <trkpt lat="44.32762" lon="5.86729">
        <ele>620</ele>
        <time>2019-03-16T15:36:19Z</time>
      </trkpt>
      <trkpt lat="44.32761" lon="5.86721">
        <ele>620</ele>
        <time>2019-03-16T15:36:20Z</time>
      </trkpt>
      <trkpt lat="44.3276" lon="5.86713">
        <ele>620</ele>
        <time>2019-03-16T15:36:21Z</time>
      </trkpt>
      <trkpt lat="44.32759" lon="5.86705">
        <ele>620</ele>
        <time>2019-03-16T15:36:22Z</time>
      </trkpt>
      <trkpt lat="44.32758" lon="5.86697">
        <ele>620</ele>
        <time>2019-03-16T15:36:23Z</time>
      </trkpt>
      <trkpt lat="44.32758" lon="5.86689">
        <ele>620</ele>
        <time>2019-03-16T15:36:24Z</time>
      </trkpt>
      <trkpt lat="44.32757" lon="5.86681">
        <ele>619</ele>
        <time>2019-03-16T15:36:25Z</time>
      </trkpt>
      <trkpt lat="44.32756" lon="5.86673">
        <ele>619</ele>
        <time>2019-03-16T15:36:26Z</time>
      </trkpt>
      <trkpt lat="44.32755" lon="5.86665">
        <ele>619</ele>
        <time>2019-03-16T15:36:27Z</time>
      </trkpt>
      <trkpt lat="44.32754" lon="5.86657">
        <ele>619</ele>
        <time>2019-03-16T15:36:28Z</time>
      </trkpt>
      <trkpt lat="44.32753" lon="5.86649">
        <ele>619</ele>
        <time>2019-03-16T15:36:29Z</time>
      </trkpt>
      <trkpt lat="44.32752" lon="5.86641">
        <ele>619</ele>
        <time>2019-03-16T15:36:30Z</time>
      </trkpt>
      <trkpt lat="44.32751" lon="5.86633">
        <ele>619</ele>
        <time>2019-03-16T15:36:31Z</time>
      </trkpt>
      <trkpt lat="44.3275" lon="5.86625">
        <ele>619</ele>
        <time>2019-03-16T15:36:32Z</time>
      </trkpt>
      <trkpt lat="44.32749" lon="5.86618">
        <ele>619</ele>
        <time>2019-03-16T15:36:33Z</time>
      </trkpt>
      <trkpt lat="44.32749" lon="5.8661">
        <ele>619</ele>
        <time>2019-03-16T15:36:34Z</time>
      </trkpt>
      <trkpt lat="44.32748" lon="5.86602">
        <ele>619</ele>
        <time>2019-03-16T15:36:35Z</time>
      </trkpt>
      <trkpt lat="44.32748" lon="5.86594">
        <ele>619</ele>
        <time>2019-03-16T15:36:36Z</time>
      </trkpt>
      <trkpt lat="44.32748" lon="5.86587">
        <ele>619</ele>
        <time>2019-03-16T15:36:37Z</time>
      </trkpt>
      <trkpt lat="44.32748" lon="5.86579">
        <ele>619</ele>
        <time>2019-03-16T15:36:38Z</time>
      </trkpt>
      <trkpt lat="44.32749" lon="5.86571">
        <ele>619</ele>
        <time>2019-03-16T15:36:39Z</time>
      </trkpt>
      <trkpt lat="44.3275" lon="5.86564">
        <ele>619</ele>
        <time>2019-03-16T15:36:40Z</time>
      </trkpt>
      <trkpt lat="44.32752" lon="5.86556">
        <ele>619</ele>
        <time>2019-03-16T15:36:41Z</time>
      </trkpt>
      <trkpt lat="44.32754" lon="5.86549">
        <ele>619</ele>
        <time>2019-03-16T15:36:42Z</time>
      </trkpt>
      <trkpt lat="44.32756" lon="5.86542">
        <ele>619</ele>
        <time>2019-03-16T15:36:43Z</time>
      </trkpt>
      <trkpt lat="44.32758" lon="5.86535">
        <ele>619</ele>
        <time>2019-03-16T15:36:44Z</time>
      </trkpt>
      <trkpt lat="44.32761" lon="5.86528">
        <ele>619</ele>
        <time>2019-03-16T15:36:45Z</time>
      </trkpt>
      <trkpt lat="44.32764" lon="5.86521">
        <ele>619</ele>
        <time>2019-03-16T15:36:46Z</time>
      </trkpt>
      <trkpt lat="44.32767" lon="5.86515">
        <ele>619</ele>
        <time>2019-03-16T15:36:47Z</time>
      </trkpt>
      <trkpt lat="44.32771" lon="5.86509">
        <ele>619</ele>
        <time>2019-03-16T15:36:48Z</time>
      </trkpt>
      <trkpt lat="44.32774" lon="5.86503">
        <ele>619</ele>
        <time>2019-03-16T15:36:49Z</time>
      </trkpt>
      <trkpt lat="44.32778" lon="5.86497">
        <ele>619</ele>
        <time>2019-03-16T15:36:50Z</time>
      </trkpt>
      <trkpt lat="44.32782" lon="5.86492">
        <ele>619</ele>
        <time>2019-03-16T15:36:51Z</time>
      </trkpt>
      <trkpt lat="44.32787" lon="5.86487">
        <ele>619</ele>
        <time>2019-03-16T15:36:52Z</time>
      </trkpt>
      <trkpt lat="44.32791" lon="5.86482">
        <ele>619</ele>
        <time>2019-03-16T15:36:53Z</time>
      </trkpt>
      <trkpt lat="44.32796" lon="5.86478">
        <ele>619</ele>
        <time>2019-03-16T15:36:54Z</time>
      </trkpt>
      <trkpt lat="44.32801" lon="5.86475">
        <ele>619</ele>
        <time>2019-03-16T15:36:55Z</time>
      </trkpt>
      <trkpt lat="44.32806" lon="5.86472">
        <ele>619</ele>
        <time>2019-03-16T15:36:56Z</time>
      </trkpt>
      <trkpt lat="44.32811" lon="5.86468">
        <ele>619</ele>
        <time>2019-03-16T15:36:57Z</time>
      </trkpt>
      <trkpt lat="44.32816" lon="5.86464">
        <ele>619</ele>
        <time>2019-03-16T15:36:58Z</time>
      </trkpt>
      <trkpt lat="44.32821" lon="5.86459">
        <ele>619</ele>
        <time>2019-03-16T15:36:59Z</time>
      </trkpt>
      <trkpt lat="44.32825" lon="5.86454">
        <ele>619</ele>
        <time>2019-03-16T15:37:00Z</time>
      </trkpt>
      <trkpt lat="44.3283" lon="5.86448">
        <ele>619</ele>
        <time>2019-03-16T15:37:01Z</time>
      </trkpt>
      <trkpt lat="44.32833" lon="5.86442">
        <ele>619</ele>
        <time>2019-03-16T15:37:02Z</time>
      </trkpt>
      <trkpt lat="44.32837" lon="5.86435">
        <ele>619</ele>
        <time>2019-03-16T15:37:03Z</time>
      </trkpt>
      <trkpt lat="44.3284" lon="5.86427">
        <ele>619</ele>
        <time>2019-03-16T15:37:04Z</time>
      </trkpt>
      <trkpt lat="44.32842" lon="5.86419">
        <ele>619</ele>
        <time>2019-03-16T15:37:05Z</time>
      </trkpt>
      <trkpt lat="44.32843" lon="5.86412">
        <ele>619</ele>
        <time>2019-03-16T15:37:06Z</time>
      </trkpt>
      <trkpt lat="44.32844" lon="5.86404">
        <ele>619</ele>
        <time>2019-03-16T15:37:07Z</time>
      </trkpt>
      <trkpt lat="44.32845" lon="5.86396">
        <ele>619</ele>
        <time>2019-03-16T15:37:08Z</time>
      </trkpt>
      <trkpt lat="44.32845" lon="5.86388">
        <ele>619</ele>
        <time>2019-03-16T15:37:09Z</time>
      </trkpt>
      <trkpt lat="44.32846" lon="5.8638">
        <ele>619</ele>
        <time>2019-03-16T15:37:10Z</time>
      </trkpt>
      <trkpt lat="44.32846" lon="5.86372">
        <ele>619</ele>
        <time>2019-03-16T15:37:11Z</time>
      </trkpt>
      <trkpt lat="44.32846" lon="5.86364">
        <ele>619</ele>
        <time>2019-03-16T15:37:12Z</time>
      </trkpt>
      <trkpt lat="44.32847" lon="5.86356">
        <ele>619</ele>
        <time>2019-03-16T15:37:13Z</time>
      </trkpt>
      <trkpt lat="44.32848" lon="5.86349">
        <ele>619</ele>
        <time>2019-03-16T15:37:14Z</time>
      </trkpt>
      <trkpt lat="44.3285" lon="5.86342">
        <ele>619</ele>
        <time>2019-03-16T15:37:15Z</time>
      </trkpt>
      <trkpt lat="44.32851" lon="5.86334">
        <ele>619</ele>
        <time>2019-03-16T15:37:16Z</time>
      </trkpt>
      <trkpt lat="44.32853" lon="5.86327">
        <ele>619</ele>
        <time>2019-03-16T15:37:17Z</time>
      </trkpt>
      <trkpt lat="44.32856" lon="5.8632">
        <ele>619</ele>
        <time>2019-03-16T15:37:18Z</time>
      </trkpt>
      <trkpt lat="44.32858" lon="5.86314">
        <ele>619</ele>
        <time>2019-03-16T15:37:19Z</time>
      </trkpt>
      <trkpt lat="44.32861" lon="5.86308">
        <ele>619</ele>
        <time>2019-03-16T15:37:20Z</time>
      </trkpt>
      <trkpt lat="44.32864" lon="5.86303">
        <ele>619</ele>
        <time>2019-03-16T15:37:21Z</time>
      </trkpt>
      <trkpt lat="44.32867" lon="5.86297">
        <ele>619</ele>
        <time>2019-03-16T15:37:22Z</time>
      </trkpt>
      <trkpt lat="44.32869" lon="5.86292">
        <ele>619</ele>
        <time>2019-03-16T15:37:23Z</time>
      </trkpt>
      <trkpt lat="44.32872" lon="5.86287">
        <ele>619</ele>
        <time>2019-03-16T15:37:24Z</time>
      </trkpt>
      <trkpt lat="44.32876" lon="5.86281">
        <ele>619</ele>
        <time>2019-03-16T15:37:25Z</time>
      </trkpt>
      <trkpt lat="44.32879" lon="5.86275">
        <ele>619</ele>
        <time>2019-03-16T15:37:26Z</time>
      </trkpt>
      <trkpt lat="44.32883" lon="5.8627">
        <ele>619</ele>
        <time>2019-03-16T15:37:27Z</time>
      </trkpt>
      <trkpt lat="44.32886" lon="5.86264">
        <ele>619</ele>
        <time>2019-03-16T15:37:28Z</time>
      </trkpt>
      <trkpt lat="44.32889" lon="5.86258">
        <ele>619</ele>
        <time>2019-03-16T15:37:29Z</time>
      </trkpt>
      <trkpt lat="44.32892" lon="5.86252">
        <ele>619</ele>
        <time>2019-03-16T15:37:30Z</time>
      </trkpt>
      <trkpt lat="44.32895" lon="5.86246">
        <ele>619</ele>
        <time>2019-03-16T15:37:31Z</time>
      </trkpt>
      <trkpt lat="44.32898" lon="5.86241">
        <ele>619</ele>
        <time>2019-03-16T15:37:32Z</time>
      </trkpt>
      <trkpt lat="44.32902" lon="5.86235">
        <ele>619</ele>
        <time>2019-03-16T15:37:33Z</time>
      </trkpt>
      <trkpt lat="44.32905" lon="5.8623">
        <ele>619</ele>
        <time>2019-03-16T15:37:34Z</time>
      </trkpt>
      <trkpt lat="44.32908" lon="5.86224">
        <ele>619</ele>
        <time>2019-03-16T15:37:35Z</time>
      </trkpt>
      <trkpt lat="44.32911" lon="5.86218">
        <ele>619</ele>
        <time>2019-03-16T15:37:36Z</time>
      </trkpt>
      <trkpt lat="44.32914" lon="5.86212">
        <ele>619</ele>
        <time>2019-03-16T15:37:37Z</time>
      </trkpt>
      <trkpt lat="44.32918" lon="5.86206">
        <ele>619</ele>
        <time>2019-03-16T15:37:38Z</time>
      </trkpt>
      <trkpt lat="44.32921" lon="5.86201">
        <ele>619</ele>
        <time>2019-03-16T15:37:39Z</time>
      </trkpt>
      <trkpt lat="44.32924" lon="5.86195">
        <ele>619</ele>
        <time>2019-03-16T15:37:40Z</time>
      </trkpt>
      <trkpt lat="44.32928" lon="5.86188">
        <ele>619</ele>
        <time>2019-03-16T15:37:41Z</time>
      </trkpt>
      <trkpt lat="44.32931" lon="5.86182">
        <ele>619</ele>
        <time>2019-03-16T15:37:42Z</time>
      </trkpt>
      <trkpt lat="44.32934" lon="5.86176">
        <ele>619</ele>
        <time>2019-03-16T15:37:43Z</time>
      </trkpt>
      <trkpt lat="44.32938" lon="5.8617">
        <ele>619</ele>
        <time>2019-03-16T15:37:44Z</time>
      </trkpt>
      <trkpt lat="44.32941" lon="5.86164">
        <ele>619</ele>
        <time>2019-03-16T15:37:45Z</time>
      </trkpt>
      <trkpt lat="44.32945" lon="5.86158">
        <ele>619</ele>
        <time>2019-03-16T15:37:46Z</time>
      </trkpt>
      <trkpt lat="44.32948" lon="5.86151">
        <ele>619</ele>
        <time>2019-03-16T15:37:47Z</time>
      </trkpt>
      <trkpt lat="44.32952" lon="5.86145">
        <ele>619</ele>
        <time>2019-03-16T15:37:48Z</time>
      </trkpt>
      <trkpt lat="44.32956" lon="5.86139">
        <ele>619</ele>
        <time>2019-03-16T15:37:49Z</time>
      </trkpt>
      <trkpt lat="44.32959" lon="5.86132">
        <ele>619</ele>
        <time>2019-03-16T15:37:50Z</time>
      </trkpt>
      <trkpt lat="44.32963" lon="5.86126">
        <ele>619</ele>
        <time>2019-03-16T15:37:51Z</time>
      </trkpt>
      <trkpt lat="44.32967" lon="5.8612">
        <ele>619</ele>
        <time>2019-03-16T15:37:52Z</time>
      </trkpt>
      <trkpt lat="44.3297" lon="5.86113">
        <ele>618</ele>
        <time>2019-03-16T15:37:53Z</time>
      </trkpt>
      <trkpt lat="44.32974" lon="5.86106">
        <ele>618</ele>
        <time>2019-03-16T15:37:54Z</time>
      </trkpt>
      <trkpt lat="44.32978" lon="5.86099">
        <ele>618</ele>
        <time>2019-03-16T15:37:55Z</time>
      </trkpt>
      <trkpt lat="44.32981" lon="5.86093">
        <ele>618</ele>
        <time>2019-03-16T15:37:56Z</time>
      </trkpt>
      <trkpt lat="44.32983" lon="5.86085">
        <ele>618</ele>
        <time>2019-03-16T15:37:57Z</time>
      </trkpt>
      <trkpt lat="44.32986" lon="5.86077">
        <ele>618</ele>
        <time>2019-03-16T15:37:58Z</time>
      </trkpt>
      <trkpt lat="44.32987" lon="5.86068">
        <ele>618</ele>
        <time>2019-03-16T15:37:59Z</time>
      </trkpt>
      <trkpt lat="44.32987" lon="5.8606">
        <ele>618</ele>
        <time>2019-03-16T15:38:00Z</time>
      </trkpt>
      <trkpt lat="44.32987" lon="5.86051">
        <ele>618</ele>
        <time>2019-03-16T15:38:01Z</time>
      </trkpt>
      <trkpt lat="44.32986" lon="5.86043">
        <ele>618</ele>
        <time>2019-03-16T15:38:02Z</time>
      </trkpt>
      <trkpt lat="44.32985" lon="5.86034">
        <ele>618</ele>
        <time>2019-03-16T15:38:03Z</time>
      </trkpt>
      <trkpt lat="44.32982" lon="5.86027">
        <ele>618</ele>
        <time>2019-03-16T15:38:04Z</time>
      </trkpt>
      <trkpt lat="44.3298" lon="5.86019">
        <ele>617</ele>
        <time>2019-03-16T15:38:05Z</time>
      </trkpt>
      <trkpt lat="44.32977" lon="5.86011">
        <ele>617</ele>
        <time>2019-03-16T15:38:06Z</time>
      </trkpt>
      <trkpt lat="44.32974" lon="5.86004">
        <ele>617</ele>
        <time>2019-03-16T15:38:07Z</time>
      </trkpt>
      <trkpt lat="44.32971" lon="5.85997">
        <ele>617</ele>
        <time>2019-03-16T15:38:08Z</time>
      </trkpt>
      <trkpt lat="44.32968" lon="5.85991">
        <ele>617</ele>
        <time>2019-03-16T15:38:09Z</time>
      </trkpt>
      <trkpt lat="44.32965" lon="5.85984">
        <ele>617</ele>
        <time>2019-03-16T15:38:10Z</time>
      </trkpt>
      <trkpt lat="44.32962" lon="5.85978">
        <ele>617</ele>
        <time>2019-03-16T15:38:11Z</time>
      </trkpt>
      <trkpt lat="44.32959" lon="5.8597">
        <ele>617</ele>
        <time>2019-03-16T15:38:12Z</time>
      </trkpt>
      <trkpt lat="44.32956" lon="5.85963">
        <ele>617</ele>
        <time>2019-03-16T15:38:13Z</time>
      </trkpt>
      <trkpt lat="44.32954" lon="5.85956">
        <ele>617</ele>
        <time>2019-03-16T15:38:14Z</time>
      </trkpt>
      <trkpt lat="44.32951" lon="5.85949">
        <ele>617</ele>
        <time>2019-03-16T15:38:15Z</time>
      </trkpt>
      <trkpt lat="44.32949" lon="5.85942">
        <ele>617</ele>
        <time>2019-03-16T15:38:16Z</time>
      </trkpt>
      <trkpt lat="44.32948" lon="5.85934">
        <ele>617</ele>
        <time>2019-03-16T15:38:17Z</time>
      </trkpt>
      <trkpt lat="44.32946" lon="5.85926">
        <ele>617</ele>
        <time>2019-03-16T15:38:18Z</time>
      </trkpt>
      <trkpt lat="44.32945" lon="5.85918">
        <ele>617</ele>
        <time>2019-03-16T15:38:19Z</time>
      </trkpt>
      <trkpt lat="44.32945" lon="5.8591">
        <ele>617</ele>
        <time>2019-03-16T15:38:20Z</time>
      </trkpt>
      <trkpt lat="44.32944" lon="5.85902">
        <ele>617</ele>
        <time>2019-03-16T15:38:21Z</time>
      </trkpt>
      <trkpt lat="44.32944" lon="5.85894">
        <ele>617</ele>
        <time>2019-03-16T15:38:22Z</time>
      </trkpt>
      <trkpt lat="44.32944" lon="5.85886">
        <ele>617</ele>
        <time>2019-03-16T15:38:23Z</time>
      </trkpt>
      <trkpt lat="44.32944" lon="5.85878">
        <ele>617</ele>
        <time>2019-03-16T15:38:24Z</time>
      </trkpt>
      <trkpt lat="44.32944" lon="5.8587">
        <ele>617</ele>
        <time>2019-03-16T15:38:25Z</time>
      </trkpt>
      <trkpt lat="44.32944" lon="5.85862">
        <ele>617</ele>
        <time>2019-03-16T15:38:26Z</time>
      </trkpt>
      <trkpt lat="44.32944" lon="5.85854">
        <ele>617</ele>
        <time>2019-03-16T15:38:27Z</time>
      </trkpt>
      <trkpt lat="44.32944" lon="5.85846">
        <ele>617</ele>
        <time>2019-03-16T15:38:28Z</time>
      </trkpt>
      <trkpt lat="44.32944" lon="5.85838">
        <ele>617</ele>
        <time>2019-03-16T15:38:29Z</time>
      </trkpt>
      <trkpt lat="44.32944" lon="5.8583">
        <ele>617</ele>
        <time>2019-03-16T15:38:30Z</time>
      </trkpt>
      <trkpt lat="44.32944" lon="5.85822">
        <ele>617</ele>
        <time>2019-03-16T15:38:31Z</time>
      </trkpt>
      <trkpt lat="44.32944" lon="5.85814">
        <ele>617</ele>
        <time>2019-03-16T15:38:32Z</time>
      </trkpt>
      <trkpt lat="44.32945" lon="5.85806">
        <ele>617</ele>
        <time>2019-03-16T15:38:33Z</time>
      </trkpt>
      <trkpt lat="44.32945" lon="5.85798">
        <ele>617</ele>
        <time>2019-03-16T15:38:34Z</time>
      </trkpt>
      <trkpt lat="44.32945" lon="5.8579">
        <ele>617</ele>
        <time>2019-03-16T15:38:35Z</time>
      </trkpt>
      <trkpt lat="44.32945" lon="5.85782">
        <ele>617</ele>
        <time>2019-03-16T15:38:36Z</time>
      </trkpt>
      <trkpt lat="44.32945" lon="5.85774">
        <ele>616</ele>
        <time>2019-03-16T15:38:37Z</time>
      </trkpt>
      <trkpt lat="44.32945" lon="5.85766">
        <ele>616</ele>
        <time>2019-03-16T15:38:38Z</time>
      </trkpt>
      <trkpt lat="44.32946" lon="5.85758">
        <ele>616</ele>
        <time>2019-03-16T15:38:39Z</time>
      </trkpt>
      <trkpt lat="44.32946" lon="5.8575">
        <ele>616</ele>
        <time>2019-03-16T15:38:40Z</time>
      </trkpt>
      <trkpt lat="44.32946" lon="5.85742">
        <ele>616</ele>
        <time>2019-03-16T15:38:41Z</time>
      </trkpt>
      <trkpt lat="44.32946" lon="5.85735">
        <ele>616</ele>
        <time>2019-03-16T15:38:42Z</time>
      </trkpt>
      <trkpt lat="44.32946" lon="5.85727">
        <ele>616</ele>
        <time>2019-03-16T15:38:43Z</time>
      </trkpt>
      <trkpt lat="44.32946" lon="5.85719">
        <ele>616</ele>
        <time>2019-03-16T15:38:44Z</time>
      </trkpt>
      <trkpt lat="44.32946" lon="5.85711">
        <ele>616</ele>
        <time>2019-03-16T15:38:45Z</time>
      </trkpt>
      <trkpt lat="44.32946" lon="5.85704">
        <ele>616</ele>
        <time>2019-03-16T15:38:46Z</time>
      </trkpt>
      <trkpt lat="44.32946" lon="5.85696">
        <ele>616</ele>
        <time>2019-03-16T15:38:47Z</time>
      </trkpt>
      <trkpt lat="44.32946" lon="5.85688">
        <ele>616</ele>
        <time>2019-03-16T15:38:48Z</time>
      </trkpt>
      <trkpt lat="44.32947" lon="5.85681">
        <ele>616</ele>
        <time>2019-03-16T15:38:49Z</time>
      </trkpt>
      <trkpt lat="44.32947" lon="5.85673">
        <ele>616</ele>
        <time>2019-03-16T15:38:50Z</time>
      </trkpt>
      <trkpt lat="44.32948" lon="5.85665">
        <ele>616</ele>
        <time>2019-03-16T15:38:51Z</time>
      </trkpt>
      <trkpt lat="44.32948" lon="5.85657">
        <ele>616</ele>
        <time>2019-03-16T15:38:52Z</time>
      </trkpt>
      <trkpt lat="44.32949" lon="5.85649">
        <ele>615</ele>
        <time>2019-03-16T15:38:53Z</time>
      </trkpt>
      <trkpt lat="44.32949" lon="5.85641">
        <ele>615</ele>
        <time>2019-03-16T15:38:54Z</time>
      </trkpt>
      <trkpt lat="44.32949" lon="5.85632">
        <ele>615</ele>
        <time>2019-03-16T15:38:55Z</time>
      </trkpt>
      <trkpt lat="44.3295" lon="5.85624">
        <ele>615</ele>
        <time>2019-03-16T15:38:56Z</time>
      </trkpt>
      <trkpt lat="44.3295" lon="5.85615">
        <ele>615</ele>
        <time>2019-03-16T15:38:57Z</time>
      </trkpt>
      <trkpt lat="44.32951" lon="5.85606">
        <ele>615</ele>
        <time>2019-03-16T15:38:58Z</time>
      </trkpt>
      <trkpt lat="44.32951" lon="5.85598">
        <ele>615</ele>
        <time>2019-03-16T15:38:59Z</time>
      </trkpt>
      <trkpt lat="44.32951" lon="5.85589">
        <ele>614</ele>
        <time>2019-03-16T15:39:00Z</time>
      </trkpt>
      <trkpt lat="44.32951" lon="5.8558">
        <ele>614</ele>
        <time>2019-03-16T15:39:01Z</time>
      </trkpt>
      <trkpt lat="44.32951" lon="5.85572">
        <ele>614</ele>
        <time>2019-03-16T15:39:02Z</time>
      </trkpt>
      <trkpt lat="44.32952" lon="5.85564">
        <ele>614</ele>
        <time>2019-03-16T15:39:03Z</time>
      </trkpt>
      <trkpt lat="44.32951" lon="5.85556">
        <ele>614</ele>
        <time>2019-03-16T15:39:04Z</time>
      </trkpt>
      <trkpt lat="44.32951" lon="5.85548">
        <ele>613</ele>
        <time>2019-03-16T15:39:05Z</time>
      </trkpt>
      <trkpt lat="44.32951" lon="5.85541">
        <ele>613</ele>
        <time>2019-03-16T15:39:06Z</time>
      </trkpt>
      <trkpt lat="44.32951" lon="5.85533">
        <ele>613</ele>
        <time>2019-03-16T15:39:07Z</time>
      </trkpt>
      <trkpt lat="44.32951" lon="5.85526">
        <ele>613</ele>
        <time>2019-03-16T15:39:08Z</time>
      </trkpt>
      <trkpt lat="44.32951" lon="5.85519">
        <ele>613</ele>
        <time>2019-03-16T15:39:09Z</time>
      </trkpt>
      <trkpt lat="44.32952" lon="5.85511">
        <ele>613</ele>
        <time>2019-03-16T15:39:10Z</time>
      </trkpt>
      <trkpt lat="44.32952" lon="5.85504">
        <ele>613</ele>
        <time>2019-03-16T15:39:11Z</time>
      </trkpt>
      <trkpt lat="44.32952" lon="5.85496">
        <ele>613</ele>
        <time>2019-03-16T15:39:12Z</time>
      </trkpt>
      <trkpt lat="44.32952" lon="5.85489">
        <ele>612</ele>
        <time>2019-03-16T15:39:13Z</time>
      </trkpt>
      <trkpt lat="44.32953" lon="5.85481">
        <ele>612</ele>
        <time>2019-03-16T15:39:14Z</time>
      </trkpt>
      <trkpt lat="44.32953" lon="5.85474">
        <ele>612</ele>
        <time>2019-03-16T15:39:15Z</time>
      </trkpt>
      <trkpt lat="44.32953" lon="5.85466">
        <ele>612</ele>
        <time>2019-03-16T15:39:16Z</time>
      </trkpt>
      <trkpt lat="44.32953" lon="5.85458">
        <ele>612</ele>
        <time>2019-03-16T15:39:17Z</time>
      </trkpt>
      <trkpt lat="44.32953" lon="5.8545">
        <ele>612</ele>
        <time>2019-03-16T15:39:18Z</time>
      </trkpt>
      <trkpt lat="44.32954" lon="5.85442">
        <ele>612</ele>
        <time>2019-03-16T15:39:19Z</time>
      </trkpt>
      <trkpt lat="44.32954" lon="5.85434">
        <ele>612</ele>
        <time>2019-03-16T15:39:20Z</time>
      </trkpt>
      <trkpt lat="44.32954" lon="5.85426">
        <ele>612</ele>
        <time>2019-03-16T15:39:21Z</time>
      </trkpt>
      <trkpt lat="44.32954" lon="5.85418">
        <ele>612</ele>
        <time>2019-03-16T15:39:22Z</time>
      </trkpt>
      <trkpt lat="44.32954" lon="5.8541">
        <ele>612</ele>
        <time>2019-03-16T15:39:23Z</time>
      </trkpt>
      <trkpt lat="44.32954" lon="5.85402">
        <ele>612</ele>
        <time>2019-03-16T15:39:24Z</time>
      </trkpt>
      <trkpt lat="44.32954" lon="5.85394">
        <ele>612</ele>
        <time>2019-03-16T15:39:25Z</time>
      </trkpt>
      <trkpt lat="44.32954" lon="5.85387">
        <ele>612</ele>
        <time>2019-03-16T15:39:26Z</time>
      </trkpt>
      <trkpt lat="44.32954" lon="5.85379">
        <ele>612</ele>
        <time>2019-03-16T15:39:27Z</time>
      </trkpt>
      <trkpt lat="44.32954" lon="5.85371">
        <ele>612</ele>
        <time>2019-03-16T15:39:28Z</time>
      </trkpt>
      <trkpt lat="44.32954" lon="5.85363">
        <ele>612</ele>
        <time>2019-03-16T15:39:29Z</time>
      </trkpt>
      <trkpt lat="44.32954" lon="5.85355">
        <ele>612</ele>
        <time>2019-03-16T15:39:30Z</time>
      </trkpt>
      <trkpt lat="44.32954" lon="5.85347">
        <ele>612</ele>
        <time>2019-03-16T15:39:31Z</time>
      </trkpt>
      <trkpt lat="44.32954" lon="5.85339">
        <ele>611</ele>
        <time>2019-03-16T15:39:32Z</time>
      </trkpt>
      <trkpt lat="44.32954" lon="5.85331">
        <ele>611</ele>
        <time>2019-03-16T15:39:33Z</time>
      </trkpt>
      <trkpt lat="44.32954" lon="5.85323">
        <ele>611</ele>
        <time>2019-03-16T15:39:34Z</time>
      </trkpt>
      <trkpt lat="44.32954" lon="5.85315">
        <ele>611</ele>
        <time>2019-03-16T15:39:35Z</time>
      </trkpt>
      <trkpt lat="44.32954" lon="5.85307">
        <ele>611</ele>
        <time>2019-03-16T15:39:36Z</time>
      </trkpt>
      <trkpt lat="44.32954" lon="5.85298">
        <ele>611</ele>
        <time>2019-03-16T15:39:37Z</time>
      </trkpt>
      <trkpt lat="44.32954" lon="5.8529">
        <ele>611</ele>
        <time>2019-03-16T15:39:38Z</time>
      </trkpt>
      <trkpt lat="44.32954" lon="5.85283">
        <ele>611</ele>
        <time>2019-03-16T15:39:39Z</time>
      </trkpt>
      <trkpt lat="44.32954" lon="5.85275">
        <ele>611</ele>
        <time>2019-03-16T15:39:40Z</time>
      </trkpt>
      <trkpt lat="44.32954" lon="5.85267">
        <ele>611</ele>
        <time>2019-03-16T15:39:41Z</time>
      </trkpt>
      <trkpt lat="44.32955" lon="5.85259">
        <ele>611</ele>
        <time>2019-03-16T15:39:42Z</time>
      </trkpt>
      <trkpt lat="44.32955" lon="5.85252">
        <ele>611</ele>
        <time>2019-03-16T15:39:43Z</time>
      </trkpt>
      <trkpt lat="44.32955" lon="5.85244">
        <ele>611</ele>
        <time>2019-03-16T15:39:44Z</time>
      </trkpt>
      <trkpt lat="44.32955" lon="5.85236">
        <ele>611</ele>
        <time>2019-03-16T15:39:45Z</time>
      </trkpt>
      <trkpt lat="44.32955" lon="5.85229">
        <ele>611</ele>
        <time>2019-03-16T15:39:46Z</time>
      </trkpt>
      <trkpt lat="44.32955" lon="5.85221">
        <ele>611</ele>
        <time>2019-03-16T15:39:47Z</time>
      </trkpt>
      <trkpt lat="44.32954" lon="5.85213">
        <ele>611</ele>
        <time>2019-03-16T15:39:48Z</time>
      </trkpt>
      <trkpt lat="44.32954" lon="5.85205">
        <ele>611</ele>
        <time>2019-03-16T15:39:49Z</time>
      </trkpt>
      <trkpt lat="44.32954" lon="5.85197">
        <ele>611</ele>
        <time>2019-03-16T15:39:50Z</time>
      </trkpt>
      <trkpt lat="44.32955" lon="5.85189">
        <ele>611</ele>
        <time>2019-03-16T15:39:51Z</time>
      </trkpt>
      <trkpt lat="44.32954" lon="5.85181">
        <ele>611</ele>
        <time>2019-03-16T15:39:52Z</time>
      </trkpt>
      <trkpt lat="44.32954" lon="5.85172">
        <ele>611</ele>
        <time>2019-03-16T15:39:53Z</time>
      </trkpt>
      <trkpt lat="44.32954" lon="5.85164">
        <ele>611</ele>
        <time>2019-03-16T15:39:54Z</time>
      </trkpt>
      <trkpt lat="44.32954" lon="5.85155">
        <ele>611</ele>
        <time>2019-03-16T15:39:55Z</time>
      </trkpt>
      <trkpt lat="44.32954" lon="5.85147">
        <ele>611</ele>
        <time>2019-03-16T15:39:56Z</time>
      </trkpt>
      <trkpt lat="44.32953" lon="5.85139">
        <ele>611</ele>
        <time>2019-03-16T15:39:57Z</time>
      </trkpt>
      <trkpt lat="44.32951" lon="5.85131">
        <ele>611</ele>
        <time>2019-03-16T15:39:58Z</time>
      </trkpt>
      <trkpt lat="44.3295" lon="5.85123">
        <ele>611</ele>
        <time>2019-03-16T15:39:59Z</time>
      </trkpt>
      <trkpt lat="44.32948" lon="5.85115">
        <ele>611</ele>
        <time>2019-03-16T15:40:00Z</time>
      </trkpt>
      <trkpt lat="44.32946" lon="5.85109">
        <ele>611</ele>
        <time>2019-03-16T15:40:01Z</time>
      </trkpt>
      <trkpt lat="44.32943" lon="5.85102">
        <ele>611</ele>
        <time>2019-03-16T15:40:02Z</time>
      </trkpt>
      <trkpt lat="44.32941" lon="5.85095">
        <ele>611</ele>
        <time>2019-03-16T15:40:03Z</time>
      </trkpt>
      <trkpt lat="44.32938" lon="5.85089">
        <ele>611</ele>
        <time>2019-03-16T15:40:04Z</time>
      </trkpt>
      <trkpt lat="44.32935" lon="5.85083">
        <ele>611</ele>
        <time>2019-03-16T15:40:05Z</time>
      </trkpt>
      <trkpt lat="44.32931" lon="5.85077">
        <ele>611</ele>
        <time>2019-03-16T15:40:06Z</time>
      </trkpt>
      <trkpt lat="44.32928" lon="5.85071">
        <ele>611</ele>
        <time>2019-03-16T15:40:07Z</time>
      </trkpt>
      <trkpt lat="44.32924" lon="5.85065">
        <ele>611</ele>
        <time>2019-03-16T15:40:08Z</time>
      </trkpt>
      <trkpt lat="44.3292" lon="5.8506">
        <ele>611</ele>
        <time>2019-03-16T15:40:09Z</time>
      </trkpt>
      <trkpt lat="44.32917" lon="5.85054">
        <ele>611</ele>
        <time>2019-03-16T15:40:10Z</time>
      </trkpt>
      <trkpt lat="44.32913" lon="5.85048">
        <ele>610</ele>
        <time>2019-03-16T15:40:11Z</time>
      </trkpt>
      <trkpt lat="44.32909" lon="5.85043">
        <ele>610</ele>
        <time>2019-03-16T15:40:12Z</time>
      </trkpt>
      <trkpt lat="44.32905" lon="5.85037">
        <ele>610</ele>
        <time>2019-03-16T15:40:13Z</time>
      </trkpt>
      <trkpt lat="44.32901" lon="5.85032">
        <ele>610</ele>
        <time>2019-03-16T15:40:14Z</time>
      </trkpt>
      <trkpt lat="44.32897" lon="5.85026">
        <ele>610</ele>
        <time>2019-03-16T15:40:15Z</time>
      </trkpt>
      <trkpt lat="44.32893" lon="5.85021">
        <ele>610</ele>
        <time>2019-03-16T15:40:16Z</time>
      </trkpt>
      <trkpt lat="44.32888" lon="5.85016">
        <ele>610</ele>
        <time>2019-03-16T15:40:17Z</time>
      </trkpt>
      <trkpt lat="44.32882" lon="5.85013">
        <ele>610</ele>
        <time>2019-03-16T15:40:18Z</time>
      </trkpt>
      <trkpt lat="44.32876" lon="5.8501">
        <ele>610</ele>
        <time>2019-03-16T15:40:19Z</time>
      </trkpt>
      <trkpt lat="44.3287" lon="5.85009">
        <ele>610</ele>
        <time>2019-03-16T15:40:20Z</time>
      </trkpt>
      <trkpt lat="44.32864" lon="5.85008">
        <ele>610</ele>
        <time>2019-03-16T15:40:21Z</time>
      </trkpt>
      <trkpt lat="44.32858" lon="5.85009">
        <ele>609</ele>
        <time>2019-03-16T15:40:22Z</time>
      </trkpt>
      <trkpt lat="44.32852" lon="5.85011">
        <ele>609</ele>
        <time>2019-03-16T15:40:23Z</time>
      </trkpt>
      <trkpt lat="44.32846" lon="5.85013">
        <ele>609</ele>
        <time>2019-03-16T15:40:24Z</time>
      </trkpt>
      <trkpt lat="44.3284" lon="5.85016">
        <ele>608</ele>
        <time>2019-03-16T15:40:25Z</time>
      </trkpt>
      <trkpt lat="44.32833" lon="5.85018">
        <ele>608</ele>
        <time>2019-03-16T15:40:26Z</time>
      </trkpt>
      <trkpt lat="44.32827" lon="5.8502">
        <ele>607</ele>
        <time>2019-03-16T15:40:27Z</time>
      </trkpt>
      <trkpt lat="44.3282" lon="5.85023">
        <ele>607</ele>
        <time>2019-03-16T15:40:28Z</time>
      </trkpt>
      <trkpt lat="44.32813" lon="5.85025">
        <ele>607</ele>
        <time>2019-03-16T15:40:29Z</time>
      </trkpt>
      <trkpt lat="44.32805" lon="5.85027">
        <ele>607</ele>
        <time>2019-03-16T15:40:30Z</time>
      </trkpt>
      <trkpt lat="44.32798" lon="5.85027">
        <ele>607</ele>
        <time>2019-03-16T15:40:31Z</time>
      </trkpt>
      <trkpt lat="44.3279" lon="5.85025">
        <ele>607</ele>
        <time>2019-03-16T15:40:32Z</time>
      </trkpt>
      <trkpt lat="44.32783" lon="5.85021">
        <ele>607</ele>
        <time>2019-03-16T15:40:33Z</time>
      </trkpt>
      <trkpt lat="44.32776" lon="5.85015">
        <ele>607</ele>
        <time>2019-03-16T15:40:34Z</time>
      </trkpt>
      <trkpt lat="44.32771" lon="5.85007">
        <ele>607</ele>
        <time>2019-03-16T15:40:35Z</time>
      </trkpt>
      <trkpt lat="44.32767" lon="5.84998">
        <ele>607</ele>
        <time>2019-03-16T15:40:36Z</time>
      </trkpt>
      <trkpt lat="44.32764" lon="5.84988">
        <ele>607</ele>
        <time>2019-03-16T15:40:37Z</time>
      </trkpt>
      <trkpt lat="44.32761" lon="5.84977">
        <ele>606</ele>
        <time>2019-03-16T15:40:38Z</time>
      </trkpt>
      <trkpt lat="44.32759" lon="5.84966">
        <ele>606</ele>
        <time>2019-03-16T15:40:39Z</time>
      </trkpt>
      <trkpt lat="44.32758" lon="5.84955">
        <ele>605</ele>
        <time>2019-03-16T15:40:40Z</time>
      </trkpt>
      <trkpt lat="44.32758" lon="5.84944">
        <ele>605</ele>
        <time>2019-03-16T15:40:41Z</time>
      </trkpt>
      <trkpt lat="44.32758" lon="5.84934">
        <ele>605</ele>
        <time>2019-03-16T15:40:42Z</time>
      </trkpt>
      <trkpt lat="44.32758" lon="5.84923">
        <ele>605</ele>
        <time>2019-03-16T15:40:43Z</time>
      </trkpt>
      <trkpt lat="44.32758" lon="5.84912">
        <ele>604</ele>
        <time>2019-03-16T15:40:44Z</time>
      </trkpt>
      <trkpt lat="44.32758" lon="5.84902">
        <ele>604</ele>
        <time>2019-03-16T15:40:45Z</time>
      </trkpt>
      <trkpt lat="44.32758" lon="5.84891">
        <ele>604</ele>
        <time>2019-03-16T15:40:46Z</time>
      </trkpt>
      <trkpt lat="44.32758" lon="5.84881">
        <ele>604</ele>
        <time>2019-03-16T15:40:47Z</time>
      </trkpt>
      <trkpt lat="44.32759" lon="5.8487">
        <ele>604</ele>
        <time>2019-03-16T15:40:48Z</time>
      </trkpt>
      <trkpt lat="44.32759" lon="5.8486">
        <ele>603</ele>
        <time>2019-03-16T15:40:49Z</time>
      </trkpt>
      <trkpt lat="44.32759" lon="5.84849">
        <ele>603</ele>
        <time>2019-03-16T15:40:50Z</time>
      </trkpt>
      <trkpt lat="44.32759" lon="5.84839">
        <ele>603</ele>
        <time>2019-03-16T15:40:51Z</time>
      </trkpt>
      <trkpt lat="44.32758" lon="5.84828">
        <ele>603</ele>
        <time>2019-03-16T15:40:52Z</time>
      </trkpt>
      <trkpt lat="44.32758" lon="5.84818">
        <ele>603</ele>
        <time>2019-03-16T15:40:53Z</time>
      </trkpt>
      <trkpt lat="44.32758" lon="5.84808">
        <ele>603</ele>
        <time>2019-03-16T15:40:54Z</time>
      </trkpt>
      <trkpt lat="44.32758" lon="5.84799">
        <ele>603</ele>
        <time>2019-03-16T15:40:55Z</time>
      </trkpt>
      <trkpt lat="44.32757" lon="5.84789">
        <ele>603</ele>
        <time>2019-03-16T15:40:56Z</time>
      </trkpt>
      <trkpt lat="44.32757" lon="5.84779">
        <ele>603</ele>
        <time>2019-03-16T15:40:57Z</time>
      </trkpt>
      <trkpt lat="44.32756" lon="5.84769">
        <ele>603</ele>
        <time>2019-03-16T15:40:58Z</time>
      </trkpt>
      <trkpt lat="44.32756" lon="5.8476">
        <ele>603</ele>
        <time>2019-03-16T15:40:59Z</time>
      </trkpt>
      <trkpt lat="44.32755" lon="5.8475">
        <ele>603</ele>
        <time>2019-03-16T15:41:00Z</time>
      </trkpt>
      <trkpt lat="44.32755" lon="5.8474">
        <ele>603</ele>
        <time>2019-03-16T15:41:01Z</time>
      </trkpt>
      <trkpt lat="44.32755" lon="5.8473">
        <ele>602</ele>
        <time>2019-03-16T15:41:02Z</time>
      </trkpt>
      <trkpt lat="44.32755" lon="5.84721">
        <ele>602</ele>
        <time>2019-03-16T15:41:03Z</time>
      </trkpt>
      <trkpt lat="44.32754" lon="5.84711">
        <ele>602</ele>
        <time>2019-03-16T15:41:04Z</time>
      </trkpt>
      <trkpt lat="44.32754" lon="5.847">
        <ele>602</ele>
        <time>2019-03-16T15:41:05Z</time>
      </trkpt>
      <trkpt lat="44.32754" lon="5.8469">
        <ele>602</ele>
        <time>2019-03-16T15:41:06Z</time>
      </trkpt>
      <trkpt lat="44.32755" lon="5.8468">
        <ele>601</ele>
        <time>2019-03-16T15:41:07Z</time>
      </trkpt>
      <trkpt lat="44.32756" lon="5.84669">
        <ele>601</ele>
        <time>2019-03-16T15:41:08Z</time>
      </trkpt>
      <trkpt lat="44.32758" lon="5.84659">
        <ele>601</ele>
        <time>2019-03-16T15:41:09Z</time>
      </trkpt>
      <trkpt lat="44.3276" lon="5.84648">
        <ele>601</ele>
        <time>2019-03-16T15:41:10Z</time>
      </trkpt>
      <trkpt lat="44.32763" lon="5.84638">
        <ele>601</ele>
        <time>2019-03-16T15:41:11Z</time>
      </trkpt>
      <trkpt lat="44.32765" lon="5.84628">
        <ele>600</ele>
        <time>2019-03-16T15:41:12Z</time>
      </trkpt>
      <trkpt lat="44.32768" lon="5.84618">
        <ele>600</ele>
        <time>2019-03-16T15:41:13Z</time>
      </trkpt>
      <trkpt lat="44.3277" lon="5.84608">
        <ele>600</ele>
        <time>2019-03-16T15:41:14Z</time>
      </trkpt>
      <trkpt lat="44.32773" lon="5.84598">
        <ele>600</ele>
        <time>2019-03-16T15:41:15Z</time>
      </trkpt>
      <trkpt lat="44.32776" lon="5.84588">
        <ele>599</ele>
        <time>2019-03-16T15:41:16Z</time>
      </trkpt>
      <trkpt lat="44.32779" lon="5.84579">
        <ele>599</ele>
        <time>2019-03-16T15:41:17Z</time>
      </trkpt>
      <trkpt lat="44.32781" lon="5.84569">
        <ele>599</ele>
        <time>2019-03-16T15:41:18Z</time>
      </trkpt>
      <trkpt lat="44.32783" lon="5.84559">
        <ele>598</ele>
        <time>2019-03-16T15:41:19Z</time>
      </trkpt>
      <trkpt lat="44.32786" lon="5.84549">
        <ele>598</ele>
        <time>2019-03-16T15:41:20Z</time>
      </trkpt>
      <trkpt lat="44.32788" lon="5.8454">
        <ele>598</ele>
        <time>2019-03-16T15:41:21Z</time>
      </trkpt>
      <trkpt lat="44.3279" lon="5.84529">
        <ele>598</ele>
        <time>2019-03-16T15:41:22Z</time>
      </trkpt>
      <trkpt lat="44.32793" lon="5.8452">
        <ele>597</ele>
        <time>2019-03-16T15:41:23Z</time>
      </trkpt>
      <trkpt lat="44.32795" lon="5.8451">
        <ele>597</ele>
        <time>2019-03-16T15:41:24Z</time>
      </trkpt>
      <trkpt lat="44.32798" lon="5.845">
        <ele>597</ele>
        <time>2019-03-16T15:41:25Z</time>
      </trkpt>
      <trkpt lat="44.32801" lon="5.84489">
        <ele>597</ele>
        <time>2019-03-16T15:41:26Z</time>
      </trkpt>
      <trkpt lat="44.32803" lon="5.84479">
        <ele>597</ele>
        <time>2019-03-16T15:41:27Z</time>
      </trkpt>
      <trkpt lat="44.32805" lon="5.84468">
        <ele>596</ele>
        <time>2019-03-16T15:41:28Z</time>
      </trkpt>
      <trkpt lat="44.32806" lon="5.84458">
        <ele>596</ele>
        <time>2019-03-16T15:41:29Z</time>
      </trkpt>
      <trkpt lat="44.32808" lon="5.84447">
        <ele>596</ele>
        <time>2019-03-16T15:41:30Z</time>
      </trkpt>
      <trkpt lat="44.32808" lon="5.84436">
        <ele>596</ele>
        <time>2019-03-16T15:41:31Z</time>
      </trkpt>
      <trkpt lat="44.32807" lon="5.84424">
        <ele>595</ele>
        <time>2019-03-16T15:41:32Z</time>
      </trkpt>
      <trkpt lat="44.32806" lon="5.84413">
        <ele>595</ele>
        <time>2019-03-16T15:41:33Z</time>
      </trkpt>
      <trkpt lat="44.32805" lon="5.84401">
        <ele>594</ele>
        <time>2019-03-16T15:41:34Z</time>
      </trkpt>
      <trkpt lat="44.32803" lon="5.84389">
        <ele>594</ele>
        <time>2019-03-16T15:41:35Z</time>
      </trkpt>
      <trkpt lat="44.32802" lon="5.84377">
        <ele>593</ele>
        <time>2019-03-16T15:41:36Z</time>
      </trkpt>
      <trkpt lat="44.328" lon="5.84365">
        <ele>593</ele>
        <time>2019-03-16T15:41:37Z</time>
      </trkpt>
      <trkpt lat="44.32799" lon="5.84353">
        <ele>592</ele>
        <time>2019-03-16T15:41:38Z</time>
      </trkpt>
      <trkpt lat="44.32797" lon="5.8434">
        <ele>592</ele>
        <time>2019-03-16T15:41:39Z</time>
      </trkpt>
      <trkpt lat="44.32796" lon="5.84328">
        <ele>591</ele>
        <time>2019-03-16T15:41:40Z</time>
      </trkpt>
      <trkpt lat="44.32794" lon="5.84316">
        <ele>591</ele>
        <time>2019-03-16T15:41:41Z</time>
      </trkpt>
      <trkpt lat="44.32793" lon="5.84304">
        <ele>590</ele>
        <time>2019-03-16T15:41:42Z</time>
      </trkpt>
      <trkpt lat="44.32791" lon="5.84291">
        <ele>590</ele>
        <time>2019-03-16T15:41:43Z</time>
      </trkpt>
      <trkpt lat="44.32789" lon="5.84279">
        <ele>590</ele>
        <time>2019-03-16T15:41:44Z</time>
      </trkpt>
      <trkpt lat="44.32788" lon="5.84267">
        <ele>589</ele>
        <time>2019-03-16T15:41:45Z</time>
      </trkpt>
      <trkpt lat="44.32786" lon="5.84255">
        <ele>589</ele>
        <time>2019-03-16T15:41:46Z</time>
      </trkpt>
      <trkpt lat="44.32785" lon="5.84242">
        <ele>588</ele>
        <time>2019-03-16T15:41:47Z</time>
      </trkpt>
      <trkpt lat="44.32783" lon="5.8423">
        <ele>588</ele>
        <time>2019-03-16T15:41:48Z</time>
      </trkpt>
      <trkpt lat="44.32782" lon="5.84217">
        <ele>588</ele>
        <time>2019-03-16T15:41:49Z</time>
      </trkpt>
      <trkpt lat="44.3278" lon="5.84204">
        <ele>587</ele>
        <time>2019-03-16T15:41:50Z</time>
      </trkpt>
      <trkpt lat="44.32778" lon="5.84192">
        <ele>587</ele>
        <time>2019-03-16T15:41:51Z</time>
      </trkpt>
      <trkpt lat="44.32777" lon="5.84179">
        <ele>587</ele>
        <time>2019-03-16T15:41:52Z</time>
      </trkpt>
      <trkpt lat="44.32775" lon="5.84167">
        <ele>586</ele>
        <time>2019-03-16T15:41:53Z</time>
      </trkpt>
      <trkpt lat="44.32774" lon="5.84155">
        <ele>586</ele>
        <time>2019-03-16T15:41:54Z</time>
      </trkpt>
      <trkpt lat="44.32772" lon="5.84143">
        <ele>586</ele>
        <time>2019-03-16T15:41:55Z</time>
      </trkpt>
      <trkpt lat="44.32771" lon="5.84132">
        <ele>585</ele>
        <time>2019-03-16T15:41:56Z</time>
      </trkpt>
      <trkpt lat="44.32769" lon="5.8412">
        <ele>585</ele>
        <time>2019-03-16T15:41:57Z</time>
      </trkpt>
      <trkpt lat="44.32768" lon="5.84109">
        <ele>585</ele>
        <time>2019-03-16T15:41:58Z</time>
      </trkpt>
      <trkpt lat="44.32767" lon="5.84098">
        <ele>585</ele>
        <time>2019-03-16T15:41:59Z</time>
      </trkpt>
      <trkpt lat="44.32765" lon="5.84087">
        <ele>585</ele>
        <time>2019-03-16T15:42:00Z</time>
      </trkpt>
      <trkpt lat="44.32763" lon="5.84076">
        <ele>585</ele>
        <time>2019-03-16T15:42:01Z</time>
      </trkpt>
      <trkpt lat="44.3276" lon="5.84066">
        <ele>585</ele>
        <time>2019-03-16T15:42:02Z</time>
      </trkpt>
      <trkpt lat="44.32756" lon="5.84056">
        <ele>585</ele>
        <time>2019-03-16T15:42:03Z</time>
      </trkpt>
      <trkpt lat="44.32751" lon="5.84047">
        <ele>585</ele>
        <time>2019-03-16T15:42:04Z</time>
      </trkpt>
      <trkpt lat="44.32746" lon="5.84038">
        <ele>585</ele>
        <time>2019-03-16T15:42:05Z</time>
      </trkpt>
      <trkpt lat="44.3274" lon="5.8403">
        <ele>585</ele>
        <time>2019-03-16T15:42:06Z</time>
      </trkpt>
      <trkpt lat="44.32735" lon="5.84022">
        <ele>585</ele>
        <time>2019-03-16T15:42:07Z</time>
      </trkpt>
      <trkpt lat="44.32729" lon="5.84014">
        <ele>585</ele>
        <time>2019-03-16T15:42:08Z</time>
      </trkpt>
      <trkpt lat="44.32724" lon="5.84005">
        <ele>585</ele>
        <time>2019-03-16T15:42:09Z</time>
      </trkpt>
      <trkpt lat="44.32719" lon="5.83996">
        <ele>585</ele>
        <time>2019-03-16T15:42:10Z</time>
      </trkpt>
      <trkpt lat="44.32714" lon="5.83987">
        <ele>585</ele>
        <time>2019-03-16T15:42:11Z</time>
      </trkpt>
      <trkpt lat="44.3271" lon="5.83977">
        <ele>585</ele>
        <time>2019-03-16T15:42:12Z</time>
      </trkpt>
      <trkpt lat="44.32707" lon="5.83967">
        <ele>585</ele>
        <time>2019-03-16T15:42:13Z</time>
      </trkpt>
      <trkpt lat="44.32704" lon="5.83956">
        <ele>585</ele>
        <time>2019-03-16T15:42:14Z</time>
      </trkpt>
      <trkpt lat="44.32702" lon="5.83946">
        <ele>585</ele>
        <time>2019-03-16T15:42:15Z</time>
      </trkpt>
      <trkpt lat="44.327" lon="5.83935">
        <ele>585</ele>
        <time>2019-03-16T15:42:16Z</time>
      </trkpt>
      <trkpt lat="44.32699" lon="5.83924">
        <ele>585</ele>
        <time>2019-03-16T15:42:17Z</time>
      </trkpt>
      <trkpt lat="44.32698" lon="5.83914">
        <ele>585</ele>
        <time>2019-03-16T15:42:18Z</time>
      </trkpt>
      <trkpt lat="44.32698" lon="5.83903">
        <ele>585</ele>
        <time>2019-03-16T15:42:19Z</time>
      </trkpt>
      <trkpt lat="44.32697" lon="5.83893">
        <ele>585</ele>
        <time>2019-03-16T15:42:20Z</time>
      </trkpt>
      <trkpt lat="44.32697" lon="5.83882">
        <ele>585</ele>
        <time>2019-03-16T15:42:21Z</time>
      </trkpt>
      <trkpt lat="44.32695" lon="5.83872">
        <ele>585</ele>
        <time>2019-03-16T15:42:22Z</time>
      </trkpt>
      <trkpt lat="44.32694" lon="5.83862">
        <ele>585</ele>
        <time>2019-03-16T15:42:23Z</time>
      </trkpt>
      <trkpt lat="44.32692" lon="5.83852">
        <ele>585</ele>
        <time>2019-03-16T15:42:24Z</time>
      </trkpt>
      <trkpt lat="44.32691" lon="5.83843">
        <ele>585</ele>
        <time>2019-03-16T15:42:25Z</time>
      </trkpt>
      <trkpt lat="44.32689" lon="5.83834">
        <ele>585</ele>
        <time>2019-03-16T15:42:26Z</time>
      </trkpt>
      <trkpt lat="44.32687" lon="5.83824">
        <ele>585</ele>
        <time>2019-03-16T15:42:27Z</time>
      </trkpt>
      <trkpt lat="44.32684" lon="5.83815">
        <ele>585</ele>
        <time>2019-03-16T15:42:28Z</time>
      </trkpt>
      <trkpt lat="44.32682" lon="5.83806">
        <ele>585</ele>
        <time>2019-03-16T15:42:29Z</time>
      </trkpt>
      <trkpt lat="44.3268" lon="5.83797">
        <ele>585</ele>
        <time>2019-03-16T15:42:30Z</time>
      </trkpt>
      <trkpt lat="44.32677" lon="5.83788">
        <ele>585</ele>
        <time>2019-03-16T15:42:31Z</time>
      </trkpt>
      <trkpt lat="44.32675" lon="5.8378">
        <ele>585</ele>
        <time>2019-03-16T15:42:32Z</time>
      </trkpt>
      <trkpt lat="44.32673" lon="5.83771">
        <ele>585</ele>
        <time>2019-03-16T15:42:33Z</time>
      </trkpt>
      <trkpt lat="44.32671" lon="5.83762">
        <ele>584</ele>
        <time>2019-03-16T15:42:34Z</time>
      </trkpt>
      <trkpt lat="44.32669" lon="5.83754">
        <ele>584</ele>
        <time>2019-03-16T15:42:35Z</time>
      </trkpt>
      <trkpt lat="44.32666" lon="5.83746">
        <ele>584</ele>
        <time>2019-03-16T15:42:36Z</time>
      </trkpt>
      <trkpt lat="44.32664" lon="5.83738">
        <ele>584</ele>
        <time>2019-03-16T15:42:37Z</time>
      </trkpt>
      <trkpt lat="44.32662" lon="5.8373">
        <ele>584</ele>
        <time>2019-03-16T15:42:38Z</time>
      </trkpt>
      <trkpt lat="44.3266" lon="5.83721">
        <ele>584</ele>
        <time>2019-03-16T15:42:39Z</time>
      </trkpt>
      <trkpt lat="44.32658" lon="5.83713">
        <ele>584</ele>
        <time>2019-03-16T15:42:40Z</time>
      </trkpt>
      <trkpt lat="44.32656" lon="5.83706">
        <ele>584</ele>
        <time>2019-03-16T15:42:41Z</time>
      </trkpt>
      <trkpt lat="44.32654" lon="5.83698">
        <ele>584</ele>
        <time>2019-03-16T15:42:42Z</time>
      </trkpt>
      <trkpt lat="44.32652" lon="5.8369">
        <ele>584</ele>
        <time>2019-03-16T15:42:43Z</time>
      </trkpt>
      <trkpt lat="44.3265" lon="5.83682">
        <ele>584</ele>
        <time>2019-03-16T15:42:44Z</time>
      </trkpt>
      <trkpt lat="44.32648" lon="5.83675">
        <ele>583</ele>
        <time>2019-03-16T15:42:45Z</time>
      </trkpt>
      <trkpt lat="44.32646" lon="5.83667">
        <ele>583</ele>
        <time>2019-03-16T15:42:46Z</time>
      </trkpt>
      <trkpt lat="44.32644" lon="5.83659">
        <ele>583</ele>
        <time>2019-03-16T15:42:47Z</time>
      </trkpt>
      <trkpt lat="44.32642" lon="5.83652">
        <ele>583</ele>
        <time>2019-03-16T15:42:48Z</time>
      </trkpt>
      <trkpt lat="44.3264" lon="5.83644">
        <ele>583</ele>
        <time>2019-03-16T15:42:49Z</time>
      </trkpt>
      <trkpt lat="44.32638" lon="5.83636">
        <ele>583</ele>
        <time>2019-03-16T15:42:50Z</time>
      </trkpt>
      <trkpt lat="44.32636" lon="5.83629">
        <ele>583</ele>
        <time>2019-03-16T15:42:51Z</time>
      </trkpt>
      <trkpt lat="44.32634" lon="5.83621">
        <ele>583</ele>
        <time>2019-03-16T15:42:52Z</time>
      </trkpt>
      <trkpt lat="44.32633" lon="5.83613">
        <ele>583</ele>
        <time>2019-03-16T15:42:53Z</time>
      </trkpt>
      <trkpt lat="44.32631" lon="5.83605">
        <ele>583</ele>
        <time>2019-03-16T15:42:54Z</time>
      </trkpt>
      <trkpt lat="44.3263" lon="5.83597">
        <ele>583</ele>
        <time>2019-03-16T15:42:55Z</time>
      </trkpt>
      <trkpt lat="44.32629" lon="5.8359">
        <ele>583</ele>
        <time>2019-03-16T15:42:56Z</time>
      </trkpt>
      <trkpt lat="44.32628" lon="5.83582">
        <ele>583</ele>
        <time>2019-03-16T15:42:57Z</time>
      </trkpt>
      <trkpt lat="44.32627" lon="5.83574">
        <ele>583</ele>
        <time>2019-03-16T15:42:58Z</time>
      </trkpt>
      <trkpt lat="44.32627" lon="5.83567">
        <ele>583</ele>
        <time>2019-03-16T15:42:59Z</time>
      </trkpt>
      <trkpt lat="44.32627" lon="5.83559">
        <ele>583</ele>
        <time>2019-03-16T15:43:00Z</time>
      </trkpt>
      <trkpt lat="44.32628" lon="5.83552">
        <ele>583</ele>
        <time>2019-03-16T15:43:01Z</time>
      </trkpt>
      <trkpt lat="44.32628" lon="5.83544">
        <ele>583</ele>
        <time>2019-03-16T15:43:02Z</time>
      </trkpt>
      <trkpt lat="44.32629" lon="5.83536">
        <ele>583</ele>
        <time>2019-03-16T15:43:03Z</time>
      </trkpt>
      <trkpt lat="44.32629" lon="5.83529">
        <ele>583</ele>
        <time>2019-03-16T15:43:04Z</time>
      </trkpt>
      <trkpt lat="44.3263" lon="5.83522">
        <ele>583</ele>
        <time>2019-03-16T15:43:05Z</time>
      </trkpt>
      <trkpt lat="44.32631" lon="5.83515">
        <ele>583</ele>
        <time>2019-03-16T15:43:06Z</time>
      </trkpt>
      <trkpt lat="44.32632" lon="5.83508">
        <ele>583</ele>
        <time>2019-03-16T15:43:07Z</time>
      </trkpt>
      <trkpt lat="44.32632" lon="5.83501">
        <ele>583</ele>
        <time>2019-03-16T15:43:08Z</time>
      </trkpt>
      <trkpt lat="44.32633" lon="5.83494">
        <ele>583</ele>
        <time>2019-03-16T15:43:09Z</time>
      </trkpt>
      <trkpt lat="44.32634" lon="5.83487">
        <ele>583</ele>
        <time>2019-03-16T15:43:10Z</time>
      </trkpt>
      <trkpt lat="44.32635" lon="5.8348">
        <ele>583</ele>
        <time>2019-03-16T15:43:11Z</time>
      </trkpt>
      <trkpt lat="44.32636" lon="5.83473">
        <ele>583</ele>
        <time>2019-03-16T15:43:12Z</time>
      </trkpt>
      <trkpt lat="44.32637" lon="5.83467">
        <ele>583</ele>
        <time>2019-03-16T15:43:13Z</time>
      </trkpt>
      <trkpt lat="44.32638" lon="5.8346">
        <ele>583</ele>
        <time>2019-03-16T15:43:14Z</time>
      </trkpt>
      <trkpt lat="44.32639" lon="5.83453">
        <ele>583</ele>
        <time>2019-03-16T15:43:15Z</time>
      </trkpt>
      <trkpt lat="44.32639" lon="5.83446">
        <ele>583</ele>
        <time>2019-03-16T15:43:16Z</time>
      </trkpt>
      <trkpt lat="44.3264" lon="5.8344">
        <ele>583</ele>
        <time>2019-03-16T15:43:17Z</time>
      </trkpt>
      <trkpt lat="44.32641" lon="5.83433">
        <ele>583</ele>
        <time>2019-03-16T15:43:18Z</time>
      </trkpt>
      <trkpt lat="44.32642" lon="5.83427">
        <ele>583</ele>
        <time>2019-03-16T15:43:19Z</time>
      </trkpt>
      <trkpt lat="44.32643" lon="5.83421">
        <ele>583</ele>
        <time>2019-03-16T15:43:20Z</time>
      </trkpt>
      <trkpt lat="44.32644" lon="5.83416">
        <ele>583</ele>
        <time>2019-03-16T15:43:21Z</time>
      </trkpt>
      <trkpt lat="44.32644" lon="5.8341">
        <ele>583</ele>
        <time>2019-03-16T15:43:22Z</time>
      </trkpt>
      <trkpt lat="44.32645" lon="5.83404">
        <ele>583</ele>
        <time>2019-03-16T15:43:23Z</time>
      </trkpt>
      <trkpt lat="44.32646" lon="5.83398">
        <ele>583</ele>
        <time>2019-03-16T15:43:24Z</time>
      </trkpt>
      <trkpt lat="44.32647" lon="5.83392">
        <ele>583</ele>
        <time>2019-03-16T15:43:25Z</time>
      </trkpt>
      <trkpt lat="44.32647" lon="5.83386">
        <ele>583</ele>
        <time>2019-03-16T15:43:26Z</time>
      </trkpt>
      <trkpt lat="44.32648" lon="5.83381">
        <ele>583</ele>
        <time>2019-03-16T15:43:27Z</time>
      </trkpt>
      <trkpt lat="44.32649" lon="5.83375">
        <ele>583</ele>
        <time>2019-03-16T15:43:28Z</time>
      </trkpt>
      <trkpt lat="44.3265" lon="5.83368">
        <ele>583</ele>
        <time>2019-03-16T15:43:29Z</time>
      </trkpt>
      <trkpt lat="44.32651" lon="5.83362">
        <ele>583</ele>
        <time>2019-03-16T15:43:30Z</time>
      </trkpt>
      <trkpt lat="44.32652" lon="5.83357">
        <ele>583</ele>
        <time>2019-03-16T15:43:31Z</time>
      </trkpt>
      <trkpt lat="44.32652" lon="5.83351">
        <ele>583</ele>
        <time>2019-03-16T15:43:32Z</time>
      </trkpt>
      <trkpt lat="44.32653" lon="5.83346">
        <ele>583</ele>
        <time>2019-03-16T15:43:33Z</time>
      </trkpt>
      <trkpt lat="44.32654" lon="5.8334">
        <ele>583</ele>
        <time>2019-03-16T15:43:34Z</time>
      </trkpt>
      <trkpt lat="44.32655" lon="5.83333">
        <ele>583</ele>
        <time>2019-03-16T15:43:35Z</time>
      </trkpt>
      <trkpt lat="44.32655" lon="5.83327">
        <ele>583</ele>
        <time>2019-03-16T15:43:36Z</time>
      </trkpt>
      <trkpt lat="44.32656" lon="5.83321">
        <ele>583</ele>
        <time>2019-03-16T15:43:37Z</time>
      </trkpt>
      <trkpt lat="44.32657" lon="5.83315">
        <ele>583</ele>
        <time>2019-03-16T15:43:38Z</time>
      </trkpt>
      <trkpt lat="44.32657" lon="5.83309">
        <ele>583</ele>
        <time>2019-03-16T15:43:39Z</time>
      </trkpt>
      <trkpt lat="44.32658" lon="5.83303">
        <ele>583</ele>
        <time>2019-03-16T15:43:40Z</time>
      </trkpt>
      <trkpt lat="44.32659" lon="5.83298">
        <ele>583</ele>
        <time>2019-03-16T15:43:41Z</time>
      </trkpt>
      <trkpt lat="44.3266" lon="5.83294">
        <ele>583</ele>
        <time>2019-03-16T15:43:42Z</time>
      </trkpt>
      <trkpt lat="44.32661" lon="5.8329">
        <ele>583</ele>
        <time>2019-03-16T15:43:43Z</time>
      </trkpt>
      <trkpt lat="44.32661" lon="5.83287">
        <ele>583</ele>
        <time>2019-03-16T15:43:44Z</time>
      </trkpt>
      <trkpt lat="44.32661" lon="5.83284">
        <ele>583</ele>
        <time>2019-03-16T15:43:45Z</time>
      </trkpt>
      <trkpt lat="44.32661" lon="5.8328">
        <ele>583</ele>
        <time>2019-03-16T15:43:46Z</time>
      </trkpt>
      <trkpt lat="44.32661" lon="5.83277">
        <ele>583</ele>
        <time>2019-03-16T15:43:47Z</time>
      </trkpt>
      <trkpt lat="44.3266" lon="5.83273">
        <ele>583</ele>
        <time>2019-03-16T15:43:48Z</time>
      </trkpt>
      <trkpt lat="44.32658" lon="5.83269">
        <ele>583</ele>
        <time>2019-03-16T15:43:49Z</time>
      </trkpt>
      <trkpt lat="44.32655" lon="5.83266">
        <ele>583</ele>
        <time>2019-03-16T15:43:50Z</time>
      </trkpt>
      <trkpt lat="44.32652" lon="5.83263">
        <ele>583</ele>
        <time>2019-03-16T15:43:51Z</time>
      </trkpt>
      <trkpt lat="44.32648" lon="5.8326">
        <ele>583</ele>
        <time>2019-03-16T15:43:52Z</time>
      </trkpt>
      <trkpt lat="44.32645" lon="5.83257">
        <ele>583</ele>
        <time>2019-03-16T15:43:53Z</time>
      </trkpt>
      <trkpt lat="44.3264" lon="5.83254">
        <ele>582</ele>
        <time>2019-03-16T15:43:54Z</time>
      </trkpt>
      <trkpt lat="44.32637" lon="5.83251">
        <ele>582</ele>
        <time>2019-03-16T15:43:55Z</time>
      </trkpt>
      <trkpt lat="44.32632" lon="5.83248">
        <ele>582</ele>
        <time>2019-03-16T15:43:56Z</time>
      </trkpt>
      <trkpt lat="44.32628" lon="5.83245">
        <ele>582</ele>
        <time>2019-03-16T15:43:57Z</time>
      </trkpt>
      <trkpt lat="44.32623" lon="5.83242">
        <ele>582</ele>
        <time>2019-03-16T15:43:58Z</time>
      </trkpt>
      <trkpt lat="44.32619" lon="5.83239">
        <ele>582</ele>
        <time>2019-03-16T15:43:59Z</time>
      </trkpt>
      <trkpt lat="44.32614" lon="5.83236">
        <ele>582</ele>
        <time>2019-03-16T15:44:00Z</time>
      </trkpt>
      <trkpt lat="44.3261" lon="5.83234">
        <ele>582</ele>
        <time>2019-03-16T15:44:01Z</time>
      </trkpt>
      <trkpt lat="44.32605" lon="5.83231">
        <ele>582</ele>
        <time>2019-03-16T15:44:02Z</time>
      </trkpt>
      <trkpt lat="44.32601" lon="5.83228">
        <ele>582</ele>
        <time>2019-03-16T15:44:03Z</time>
      </trkpt>
      <trkpt lat="44.32596" lon="5.83225">
        <ele>582</ele>
        <time>2019-03-16T15:44:04Z</time>
      </trkpt>
      <trkpt lat="44.32592" lon="5.83223">
        <ele>582</ele>
        <time>2019-03-16T15:44:05Z</time>
      </trkpt>
      <trkpt lat="44.32587" lon="5.83221">
        <ele>582</ele>
        <time>2019-03-16T15:44:06Z</time>
      </trkpt>
      <trkpt lat="44.32582" lon="5.83218">
        <ele>582</ele>
        <time>2019-03-16T15:44:07Z</time>
      </trkpt>
      <trkpt lat="44.32578" lon="5.83216">
        <ele>582</ele>
        <time>2019-03-16T15:44:08Z</time>
      </trkpt>
      <trkpt lat="44.32573" lon="5.83214">
        <ele>582</ele>
        <time>2019-03-16T15:44:09Z</time>
      </trkpt>
      <trkpt lat="44.32568" lon="5.83212">
        <ele>582</ele>
        <time>2019-03-16T15:44:10Z</time>
      </trkpt>
      <trkpt lat="44.32563" lon="5.83209">
        <ele>582</ele>
        <time>2019-03-16T15:44:11Z</time>
      </trkpt>
      <trkpt lat="44.32558" lon="5.83207">
        <ele>582</ele>
        <time>2019-03-16T15:44:12Z</time>
      </trkpt>
      <trkpt lat="44.32552" lon="5.83205">
        <ele>582</ele>
        <time>2019-03-16T15:44:13Z</time>
      </trkpt>
      <trkpt lat="44.32547" lon="5.83203">
        <ele>582</ele>
        <time>2019-03-16T15:44:14Z</time>
      </trkpt>
      <trkpt lat="44.32542" lon="5.832">
        <ele>581</ele>
        <time>2019-03-16T15:44:15Z</time>
      </trkpt>
      <trkpt lat="44.32536" lon="5.83198">
        <ele>581</ele>
        <time>2019-03-16T15:44:16Z</time>
      </trkpt>
      <trkpt lat="44.32531" lon="5.83195">
        <ele>581</ele>
        <time>2019-03-16T15:44:17Z</time>
      </trkpt>
      <trkpt lat="44.32525" lon="5.83193">
        <ele>581</ele>
        <time>2019-03-16T15:44:18Z</time>
      </trkpt>
      <trkpt lat="44.3252" lon="5.8319">
        <ele>581</ele>
        <time>2019-03-16T15:44:19Z</time>
      </trkpt>
      <trkpt lat="44.32515" lon="5.83188">
        <ele>581</ele>
        <time>2019-03-16T15:44:20Z</time>
      </trkpt>
      <trkpt lat="44.32509" lon="5.83185">
        <ele>581</ele>
        <time>2019-03-16T15:44:21Z</time>
      </trkpt>
      <trkpt lat="44.32504" lon="5.83183">
        <ele>581</ele>
        <time>2019-03-16T15:44:22Z</time>
      </trkpt>
      <trkpt lat="44.32498" lon="5.83181">
        <ele>580</ele>
        <time>2019-03-16T15:44:23Z</time>
      </trkpt>
      <trkpt lat="44.32493" lon="5.83178">
        <ele>580</ele>
        <time>2019-03-16T15:44:24Z</time>
      </trkpt>
      <trkpt lat="44.32489" lon="5.83176">
        <ele>580</ele>
        <time>2019-03-16T15:44:25Z</time>
      </trkpt>
      <trkpt lat="44.32484" lon="5.83173">
        <ele>580</ele>
        <time>2019-03-16T15:44:26Z</time>
      </trkpt>
      <trkpt lat="44.32479" lon="5.8317">
        <ele>580</ele>
        <time>2019-03-16T15:44:27Z</time>
      </trkpt>
      <trkpt lat="44.32474" lon="5.83166">
        <ele>580</ele>
        <time>2019-03-16T15:44:28Z</time>
      </trkpt>
      <trkpt lat="44.32469" lon="5.83163">
        <ele>580</ele>
        <time>2019-03-16T15:44:29Z</time>
      </trkpt>
      <trkpt lat="44.32465" lon="5.83159">
        <ele>580</ele>
        <time>2019-03-16T15:44:30Z</time>
      </trkpt>
      <trkpt lat="44.3246" lon="5.83155">
        <ele>580</ele>
        <time>2019-03-16T15:44:31Z</time>
      </trkpt>
      <trkpt lat="44.32456" lon="5.83151">
        <ele>580</ele>
        <time>2019-03-16T15:44:32Z</time>
      </trkpt>
      <trkpt lat="44.32452" lon="5.83147">
        <ele>580</ele>
        <time>2019-03-16T15:44:33Z</time>
      </trkpt>
      <trkpt lat="44.32447" lon="5.83144">
        <ele>580</ele>
        <time>2019-03-16T15:44:34Z</time>
      </trkpt>
      <trkpt lat="44.32443" lon="5.83139">
        <ele>580</ele>
        <time>2019-03-16T15:44:35Z</time>
      </trkpt>
      <trkpt lat="44.32439" lon="5.83135">
        <ele>580</ele>
        <time>2019-03-16T15:44:36Z</time>
      </trkpt>
      <trkpt lat="44.32434" lon="5.83131">
        <ele>580</ele>
        <time>2019-03-16T15:44:37Z</time>
      </trkpt>
      <trkpt lat="44.3243" lon="5.83127">
        <ele>580</ele>
        <time>2019-03-16T15:44:38Z</time>
      </trkpt>
      <trkpt lat="44.32425" lon="5.83122">
        <ele>580</ele>
        <time>2019-03-16T15:44:39Z</time>
      </trkpt>
      <trkpt lat="44.32421" lon="5.83118">
        <ele>580</ele>
        <time>2019-03-16T15:44:40Z</time>
      </trkpt>
      <trkpt lat="44.32417" lon="5.83113">
        <ele>580</ele>
        <time>2019-03-16T15:44:41Z</time>
      </trkpt>
      <trkpt lat="44.32412" lon="5.83108">
        <ele>580</ele>
        <time>2019-03-16T15:44:42Z</time>
      </trkpt>
      <trkpt lat="44.32408" lon="5.83103">
        <ele>580</ele>
        <time>2019-03-16T15:44:43Z</time>
      </trkpt>
      <trkpt lat="44.32404" lon="5.83098">
        <ele>580</ele>
        <time>2019-03-16T15:44:44Z</time>
      </trkpt>
      <trkpt lat="44.32401" lon="5.83092">
        <ele>580</ele>
        <time>2019-03-16T15:44:45Z</time>
      </trkpt>
      <trkpt lat="44.32397" lon="5.83086">
        <ele>580</ele>
        <time>2019-03-16T15:44:46Z</time>
      </trkpt>
      <trkpt lat="44.32394" lon="5.8308">
        <ele>580</ele>
        <time>2019-03-16T15:44:47Z</time>
      </trkpt>
      <trkpt lat="44.32391" lon="5.83074">
        <ele>580</ele>
        <time>2019-03-16T15:44:48Z</time>
      </trkpt>
      <trkpt lat="44.32388" lon="5.83068">
        <ele>580</ele>
        <time>2019-03-16T15:44:49Z</time>
      </trkpt>
      <trkpt lat="44.32386" lon="5.83062">
        <ele>580</ele>
        <time>2019-03-16T15:44:50Z</time>
      </trkpt>
      <trkpt lat="44.32384" lon="5.83055">
        <ele>580</ele>
        <time>2019-03-16T15:44:51Z</time>
      </trkpt>
      <trkpt lat="44.32382" lon="5.83049">
        <ele>580</ele>
        <time>2019-03-16T15:44:52Z</time>
      </trkpt>
      <trkpt lat="44.3238" lon="5.83043">
        <ele>580</ele>
        <time>2019-03-16T15:44:53Z</time>
      </trkpt>
      <trkpt lat="44.32378" lon="5.83037">
        <ele>580</ele>
        <time>2019-03-16T15:44:54Z</time>
      </trkpt>
      <trkpt lat="44.32377" lon="5.83031">
        <ele>580</ele>
        <time>2019-03-16T15:44:55Z</time>
      </trkpt>
      <trkpt lat="44.32376" lon="5.83025">
        <ele>580</ele>
        <time>2019-03-16T15:44:56Z</time>
      </trkpt>
      <trkpt lat="44.32374" lon="5.83019">
        <ele>580</ele>
        <time>2019-03-16T15:44:57Z</time>
      </trkpt>
      <trkpt lat="44.32372" lon="5.83013">
        <ele>580</ele>
        <time>2019-03-16T15:44:58Z</time>
      </trkpt>
      <trkpt lat="44.3237" lon="5.83007">
        <ele>580</ele>
        <time>2019-03-16T15:44:59Z</time>
      </trkpt>
      <trkpt lat="44.32368" lon="5.83001">
        <ele>580</ele>
        <time>2019-03-16T15:45:00Z</time>
      </trkpt>
      <trkpt lat="44.32366" lon="5.82996">
        <ele>580</ele>
        <time>2019-03-16T15:45:01Z</time>
      </trkpt>
      <trkpt lat="44.32363" lon="5.82991">
        <ele>580</ele>
        <time>2019-03-16T15:45:02Z</time>
      </trkpt>
      <trkpt lat="44.3236" lon="5.82986">
        <ele>580</ele>
        <time>2019-03-16T15:45:03Z</time>
      </trkpt>
      <trkpt lat="44.32357" lon="5.82981">
        <ele>580</ele>
        <time>2019-03-16T15:45:04Z</time>
      </trkpt>
      <trkpt lat="44.32353" lon="5.82977">
        <ele>580</ele>
        <time>2019-03-16T15:45:05Z</time>
      </trkpt>
      <trkpt lat="44.32349" lon="5.82973">
        <ele>580</ele>
        <time>2019-03-16T15:45:06Z</time>
      </trkpt>
      <trkpt lat="44.32345" lon="5.82969">
        <ele>580</ele>
        <time>2019-03-16T15:45:07Z</time>
      </trkpt>
      <trkpt lat="44.32341" lon="5.82965">
        <ele>580</ele>
        <time>2019-03-16T15:45:08Z</time>
      </trkpt>
      <trkpt lat="44.32336" lon="5.82962">
        <ele>580</ele>
        <time>2019-03-16T15:45:09Z</time>
      </trkpt>
      <trkpt lat="44.32331" lon="5.82959">
        <ele>580</ele>
        <time>2019-03-16T15:45:10Z</time>
      </trkpt>
      <trkpt lat="44.32326" lon="5.82956">
        <ele>580</ele>
        <time>2019-03-16T15:45:11Z</time>
      </trkpt>
      <trkpt lat="44.3232" lon="5.82952">
        <ele>580</ele>
        <time>2019-03-16T15:45:12Z</time>
      </trkpt>
      <trkpt lat="44.32315" lon="5.82949">
        <ele>579</ele>
        <time>2019-03-16T15:45:13Z</time>
      </trkpt>
      <trkpt lat="44.32309" lon="5.82946">
        <ele>579</ele>
        <time>2019-03-16T15:45:14Z</time>
      </trkpt>
      <trkpt lat="44.32302" lon="5.82943">
        <ele>578</ele>
        <time>2019-03-16T15:45:15Z</time>
      </trkpt>
      <trkpt lat="44.32296" lon="5.8294">
        <ele>578</ele>
        <time>2019-03-16T15:45:16Z</time>
      </trkpt>
      <trkpt lat="44.32289" lon="5.82937">
        <ele>577</ele>
        <time>2019-03-16T15:45:17Z</time>
      </trkpt>
      <trkpt lat="44.32283" lon="5.82934">
        <ele>577</ele>
        <time>2019-03-16T15:45:18Z</time>
      </trkpt>
      <trkpt lat="44.32276" lon="5.8293">
        <ele>577</ele>
        <time>2019-03-16T15:45:19Z</time>
      </trkpt>
      <trkpt lat="44.3227" lon="5.82927">
        <ele>576</ele>
        <time>2019-03-16T15:45:20Z</time>
      </trkpt>
      <trkpt lat="44.32263" lon="5.82924">
        <ele>576</ele>
        <time>2019-03-16T15:45:21Z</time>
      </trkpt>
      <trkpt lat="44.32256" lon="5.82921">
        <ele>576</ele>
        <time>2019-03-16T15:45:22Z</time>
      </trkpt>
      <trkpt lat="44.32249" lon="5.82917">
        <ele>576</ele>
        <time>2019-03-16T15:45:23Z</time>
      </trkpt>
      <trkpt lat="44.32243" lon="5.82914">
        <ele>576</ele>
        <time>2019-03-16T15:45:24Z</time>
      </trkpt>
      <trkpt lat="44.32236" lon="5.8291">
        <ele>575</ele>
        <time>2019-03-16T15:45:25Z</time>
      </trkpt>
      <trkpt lat="44.32229" lon="5.82907">
        <ele>575</ele>
        <time>2019-03-16T15:45:26Z</time>
      </trkpt>
      <trkpt lat="44.32222" lon="5.82904">
        <ele>575</ele>
        <time>2019-03-16T15:45:27Z</time>
      </trkpt>
      <trkpt lat="44.32215" lon="5.829">
        <ele>575</ele>
        <time>2019-03-16T15:45:28Z</time>
      </trkpt>
      <trkpt lat="44.32209" lon="5.82897">
        <ele>575</ele>
        <time>2019-03-16T15:45:29Z</time>
      </trkpt>
      <trkpt lat="44.32202" lon="5.82894">
        <ele>574</ele>
        <time>2019-03-16T15:45:30Z</time>
      </trkpt>
      <trkpt lat="44.32195" lon="5.82891">
        <ele>574</ele>
        <time>2019-03-16T15:45:31Z</time>
      </trkpt>
      <trkpt lat="44.32188" lon="5.82887">
        <ele>574</ele>
        <time>2019-03-16T15:45:32Z</time>
      </trkpt>
      <trkpt lat="44.32182" lon="5.82884">
        <ele>574</ele>
        <time>2019-03-16T15:45:33Z</time>
      </trkpt>
      <trkpt lat="44.32175" lon="5.8288">
        <ele>574</ele>
        <time>2019-03-16T15:45:34Z</time>
      </trkpt>
      <trkpt lat="44.32168" lon="5.82877">
        <ele>574</ele>
        <time>2019-03-16T15:45:35Z</time>
      </trkpt>
      <trkpt lat="44.32161" lon="5.82874">
        <ele>574</ele>
        <time>2019-03-16T15:45:36Z</time>
      </trkpt>
      <trkpt lat="44.32154" lon="5.82871">
        <ele>573</ele>
        <time>2019-03-16T15:45:37Z</time>
      </trkpt>
      <trkpt lat="44.32146" lon="5.82868">
        <ele>573</ele>
        <time>2019-03-16T15:45:38Z</time>
      </trkpt>
      <trkpt lat="44.32139" lon="5.82865">
        <ele>573</ele>
        <time>2019-03-16T15:45:39Z</time>
      </trkpt>
      <trkpt lat="44.32132" lon="5.82863">
        <ele>573</ele>
        <time>2019-03-16T15:45:40Z</time>
      </trkpt>
      <trkpt lat="44.32124" lon="5.82861">
        <ele>573</ele>
        <time>2019-03-16T15:45:41Z</time>
      </trkpt>
      <trkpt lat="44.32116" lon="5.82859">
        <ele>573</ele>
        <time>2019-03-16T15:45:42Z</time>
      </trkpt>
      <trkpt lat="44.32109" lon="5.82857">
        <ele>573</ele>
        <time>2019-03-16T15:45:43Z</time>
      </trkpt>
      <trkpt lat="44.32102" lon="5.82854">
        <ele>573</ele>
        <time>2019-03-16T15:45:44Z</time>
      </trkpt>
      <trkpt lat="44.32095" lon="5.82851">
        <ele>573</ele>
        <time>2019-03-16T15:45:45Z</time>
      </trkpt>
      <trkpt lat="44.32087" lon="5.82849">
        <ele>573</ele>
        <time>2019-03-16T15:45:46Z</time>
      </trkpt>
      <trkpt lat="44.32079" lon="5.82846">
        <ele>573</ele>
        <time>2019-03-16T15:45:47Z</time>
      </trkpt>
      <trkpt lat="44.32072" lon="5.82842">
        <ele>572</ele>
        <time>2019-03-16T15:45:48Z</time>
      </trkpt>
      <trkpt lat="44.32064" lon="5.82838">
        <ele>572</ele>
        <time>2019-03-16T15:45:49Z</time>
      </trkpt>
      <trkpt lat="44.32056" lon="5.82832">
        <ele>571</ele>
        <time>2019-03-16T15:45:50Z</time>
      </trkpt>
      <trkpt lat="44.32048" lon="5.82827">
        <ele>570</ele>
        <time>2019-03-16T15:45:51Z</time>
      </trkpt>
      <trkpt lat="44.3204" lon="5.82821">
        <ele>570</ele>
        <time>2019-03-16T15:45:52Z</time>
      </trkpt>
      <trkpt lat="44.32032" lon="5.82816">
        <ele>569</ele>
        <time>2019-03-16T15:45:53Z</time>
      </trkpt>
      <trkpt lat="44.32024" lon="5.8281">
        <ele>569</ele>
        <time>2019-03-16T15:45:54Z</time>
      </trkpt>
      <trkpt lat="44.32015" lon="5.82805">
        <ele>569</ele>
        <time>2019-03-16T15:45:55Z</time>
      </trkpt>
      <trkpt lat="44.32007" lon="5.82801">
        <ele>568</ele>
        <time>2019-03-16T15:45:56Z</time>
      </trkpt>
      <trkpt lat="44.31998" lon="5.82797">
        <ele>568</ele>
        <time>2019-03-16T15:45:57Z</time>
      </trkpt>
      <trkpt lat="44.31989" lon="5.82793">
        <ele>567</ele>
        <time>2019-03-16T15:45:58Z</time>
      </trkpt>
      <trkpt lat="44.31981" lon="5.82789">
        <ele>567</ele>
        <time>2019-03-16T15:45:59Z</time>
      </trkpt>
      <trkpt lat="44.31972" lon="5.82786">
        <ele>566</ele>
        <time>2019-03-16T15:46:00Z</time>
      </trkpt>
      <trkpt lat="44.31964" lon="5.82783">
        <ele>566</ele>
        <time>2019-03-16T15:46:01Z</time>
      </trkpt>
      <trkpt lat="44.31955" lon="5.82779">
        <ele>565</ele>
        <time>2019-03-16T15:46:02Z</time>
      </trkpt>
      <trkpt lat="44.31947" lon="5.82776">
        <ele>565</ele>
        <time>2019-03-16T15:46:03Z</time>
      </trkpt>
      <trkpt lat="44.31939" lon="5.82774">
        <ele>564</ele>
        <time>2019-03-16T15:46:04Z</time>
      </trkpt>
      <trkpt lat="44.3193" lon="5.82772">
        <ele>564</ele>
        <time>2019-03-16T15:46:05Z</time>
      </trkpt>
      <trkpt lat="44.31921" lon="5.8277">
        <ele>564</ele>
        <time>2019-03-16T15:46:06Z</time>
      </trkpt>
      <trkpt lat="44.31913" lon="5.82769">
        <ele>563</ele>
        <time>2019-03-16T15:46:07Z</time>
      </trkpt>
      <trkpt lat="44.31904" lon="5.82768">
        <ele>563</ele>
        <time>2019-03-16T15:46:08Z</time>
      </trkpt>
      <trkpt lat="44.31895" lon="5.82767">
        <ele>562</ele>
        <time>2019-03-16T15:46:09Z</time>
      </trkpt>
      <trkpt lat="44.31887" lon="5.82767">
        <ele>562</ele>
        <time>2019-03-16T15:46:10Z</time>
      </trkpt>
      <trkpt lat="44.31878" lon="5.82766">
        <ele>562</ele>
        <time>2019-03-16T15:46:11Z</time>
      </trkpt>
      <trkpt lat="44.31869" lon="5.82765">
        <ele>561</ele>
        <time>2019-03-16T15:46:12Z</time>
      </trkpt>
      <trkpt lat="44.31861" lon="5.82762">
        <ele>561</ele>
        <time>2019-03-16T15:46:13Z</time>
      </trkpt>
      <trkpt lat="44.31852" lon="5.8276">
        <ele>560</ele>
        <time>2019-03-16T15:46:14Z</time>
      </trkpt>
      <trkpt lat="44.31844" lon="5.82756">
        <ele>560</ele>
        <time>2019-03-16T15:46:15Z</time>
      </trkpt>
      <trkpt lat="44.31836" lon="5.82752">
        <ele>560</ele>
        <time>2019-03-16T15:46:16Z</time>
      </trkpt>
      <trkpt lat="44.31829" lon="5.82748">
        <ele>560</ele>
        <time>2019-03-16T15:46:17Z</time>
      </trkpt>
      <trkpt lat="44.31821" lon="5.82742">
        <ele>560</ele>
        <time>2019-03-16T15:46:18Z</time>
      </trkpt>
      <trkpt lat="44.31815" lon="5.82736">
        <ele>560</ele>
        <time>2019-03-16T15:46:19Z</time>
      </trkpt>
      <trkpt lat="44.31808" lon="5.8273">
        <ele>560</ele>
        <time>2019-03-16T15:46:20Z</time>
      </trkpt>
      <trkpt lat="44.31801" lon="5.82724">
        <ele>560</ele>
        <time>2019-03-16T15:46:21Z</time>
      </trkpt>
      <trkpt lat="44.31795" lon="5.82718">
        <ele>560</ele>
        <time>2019-03-16T15:46:22Z</time>
      </trkpt>
      <trkpt lat="44.31789" lon="5.82711">
        <ele>560</ele>
        <time>2019-03-16T15:46:23Z</time>
      </trkpt>
      <trkpt lat="44.31783" lon="5.82704">
        <ele>560</ele>
        <time>2019-03-16T15:46:24Z</time>
      </trkpt>
      <trkpt lat="44.31776" lon="5.82698">
        <ele>560</ele>
        <time>2019-03-16T15:46:25Z</time>
      </trkpt>
      <trkpt lat="44.3177" lon="5.82691">
        <ele>560</ele>
        <time>2019-03-16T15:46:26Z</time>
      </trkpt>
      <trkpt lat="44.31764" lon="5.82686">
        <ele>560</ele>
        <time>2019-03-16T15:46:27Z</time>
      </trkpt>
      <trkpt lat="44.31758" lon="5.8268">
        <ele>560</ele>
        <time>2019-03-16T15:46:28Z</time>
      </trkpt>
      <trkpt lat="44.31752" lon="5.82673">
        <ele>560</ele>
        <time>2019-03-16T15:46:29Z</time>
      </trkpt>
      <trkpt lat="44.31745" lon="5.82667">
        <ele>560</ele>
        <time>2019-03-16T15:46:30Z</time>
      </trkpt>
      <trkpt lat="44.31739" lon="5.82661">
        <ele>560</ele>
        <time>2019-03-16T15:46:31Z</time>
      </trkpt>
      <trkpt lat="44.31733" lon="5.82655">
        <ele>560</ele>
        <time>2019-03-16T15:46:32Z</time>
      </trkpt>
      <trkpt lat="44.31727" lon="5.82649">
        <ele>560</ele>
        <time>2019-03-16T15:46:33Z</time>
      </trkpt>
      <trkpt lat="44.31721" lon="5.82643">
        <ele>560</ele>
        <time>2019-03-16T15:46:34Z</time>
      </trkpt>
      <trkpt lat="44.31715" lon="5.82637">
        <ele>560</ele>
        <time>2019-03-16T15:46:35Z</time>
      </trkpt>
      <trkpt lat="44.3171" lon="5.82631">
        <ele>560</ele>
        <time>2019-03-16T15:46:36Z</time>
      </trkpt>
      <trkpt lat="44.31704" lon="5.82625">
        <ele>560</ele>
        <time>2019-03-16T15:46:37Z</time>
      </trkpt>
      <trkpt lat="44.31698" lon="5.8262">
        <ele>560</ele>
        <time>2019-03-16T15:46:38Z</time>
      </trkpt>
      <trkpt lat="44.31692" lon="5.82614">
        <ele>560</ele>
        <time>2019-03-16T15:46:39Z</time>
      </trkpt>
      <trkpt lat="44.31687" lon="5.82609">
        <ele>560</ele>
        <time>2019-03-16T15:46:40Z</time>
      </trkpt>
      <trkpt lat="44.31682" lon="5.82604">
        <ele>560</ele>
        <time>2019-03-16T15:46:41Z</time>
      </trkpt>
      <trkpt lat="44.31678" lon="5.82599">
        <ele>560</ele>
        <time>2019-03-16T15:46:42Z</time>
      </trkpt>
      <trkpt lat="44.31673" lon="5.82594">
        <ele>560</ele>
        <time>2019-03-16T15:46:43Z</time>
      </trkpt>
      <trkpt lat="44.31668" lon="5.82589">
        <ele>560</ele>
        <time>2019-03-16T15:46:44Z</time>
      </trkpt>
      <trkpt lat="44.31664" lon="5.82585">
        <ele>560</ele>
        <time>2019-03-16T15:46:45Z</time>
      </trkpt>
      <trkpt lat="44.3166" lon="5.82581">
        <ele>560</ele>
        <time>2019-03-16T15:46:46Z</time>
      </trkpt>
      <trkpt lat="44.31657" lon="5.82578">
        <ele>560</ele>
        <time>2019-03-16T15:46:47Z</time>
      </trkpt>
      <trkpt lat="44.31654" lon="5.82575">
        <ele>560</ele>
        <time>2019-03-16T15:46:48Z</time>
      </trkpt>
      <trkpt lat="44.31651" lon="5.82571">
        <ele>560</ele>
        <time>2019-03-16T15:46:49Z</time>
      </trkpt>
      <trkpt lat="44.31647" lon="5.82567">
        <ele>560</ele>
        <time>2019-03-16T15:46:50Z</time>
      </trkpt>
      <trkpt lat="44.31644" lon="5.82563">
        <ele>560</ele>
        <time>2019-03-16T15:46:51Z</time>
      </trkpt>
      <trkpt lat="44.31639" lon="5.82559">
        <ele>560</ele>
        <time>2019-03-16T15:46:52Z</time>
      </trkpt>
      <trkpt lat="44.31635" lon="5.82555">
        <ele>560</ele>
        <time>2019-03-16T15:46:53Z</time>
      </trkpt>
      <trkpt lat="44.31631" lon="5.82551">
        <ele>560</ele>
        <time>2019-03-16T15:46:54Z</time>
      </trkpt>
      <trkpt lat="44.31627" lon="5.82548">
        <ele>560</ele>
        <time>2019-03-16T15:46:55Z</time>
      </trkpt>
      <trkpt lat="44.31623" lon="5.82544">
        <ele>560</ele>
        <time>2019-03-16T15:46:56Z</time>
      </trkpt>
      <trkpt lat="44.31618" lon="5.82541">
        <ele>560</ele>
        <time>2019-03-16T15:46:57Z</time>
      </trkpt>
      <trkpt lat="44.31614" lon="5.82537">
        <ele>560</ele>
        <time>2019-03-16T15:46:58Z</time>
      </trkpt>
      <trkpt lat="44.3161" lon="5.82533">
        <ele>560</ele>
        <time>2019-03-16T15:46:59Z</time>
      </trkpt>
      <trkpt lat="44.31606" lon="5.82529">
        <ele>560</ele>
        <time>2019-03-16T15:47:00Z</time>
      </trkpt>
      <trkpt lat="44.31602" lon="5.82525">
        <ele>560</ele>
        <time>2019-03-16T15:47:01Z</time>
      </trkpt>
      <trkpt lat="44.31599" lon="5.82521">
        <ele>560</ele>
        <time>2019-03-16T15:47:02Z</time>
      </trkpt>
      <trkpt lat="44.31596" lon="5.82518">
        <ele>560</ele>
        <time>2019-03-16T15:47:03Z</time>
      </trkpt>
      <trkpt lat="44.31593" lon="5.82514">
        <ele>560</ele>
        <time>2019-03-16T15:47:04Z</time>
      </trkpt>
      <trkpt lat="44.31589" lon="5.8251">
        <ele>560</ele>
        <time>2019-03-16T15:47:05Z</time>
      </trkpt>
      <trkpt lat="44.31587" lon="5.82507">
        <ele>560</ele>
        <time>2019-03-16T15:47:06Z</time>
      </trkpt>
      <trkpt lat="44.31585" lon="5.82505">
        <ele>560</ele>
        <time>2019-03-16T15:47:07Z</time>
      </trkpt>
      <trkpt lat="44.31583" lon="5.82503">
        <ele>560</ele>
        <time>2019-03-16T15:47:08Z</time>
      </trkpt>
      <trkpt lat="44.31583" lon="5.82501">
        <ele>560</ele>
        <time>2019-03-16T15:47:09Z</time>
      </trkpt>
      <trkpt lat="44.31583" lon="5.82499">
        <ele>560</ele>
        <time>2019-03-16T15:47:12Z</time>
      </trkpt>
      <trkpt lat="44.31582" lon="5.82498">
        <ele>560</ele>
        <time>2019-03-16T15:47:33Z</time>
      </trkpt>
      <trkpt lat="44.31582" lon="5.82496">
        <ele>560</ele>
        <time>2019-03-16T15:47:52Z</time>
      </trkpt>
      <trkpt lat="44.3158" lon="5.82496">
        <ele>560</ele>
        <time>2019-03-16T15:47:59Z</time>
      </trkpt>
      <trkpt lat="44.31582" lon="5.82496">
        <ele>560</ele>
        <time>2019-03-16T15:48:10Z</time>
      </trkpt>
      <trkpt lat="44.31583" lon="5.82495">
        <ele>560</ele>
        <time>2019-03-16T15:48:17Z</time>
      </trkpt>
      <trkpt lat="44.31584" lon="5.82495">
        <ele>560</ele>
        <time>2019-03-16T15:48:21Z</time>
      </trkpt>
      <trkpt lat="44.31585" lon="5.82495">
        <ele>562</ele>
        <time>2019-03-16T15:48:23Z</time>
      </trkpt>
      <trkpt lat="44.31587" lon="5.82496">
        <ele>564</ele>
        <time>2019-03-16T15:48:25Z</time>
      </trkpt>
      <trkpt lat="44.31585" lon="5.82495">
        <ele>567</ele>
        <time>2019-03-16T15:48:29Z</time>
      </trkpt>
      <trkpt lat="44.31585" lon="5.82493">
        <ele>567</ele>
        <time>2019-03-16T15:48:36Z</time>
      </trkpt>
      <trkpt lat="44.31585" lon="5.82495">
        <ele>567</ele>
        <time>2019-03-16T15:48:46Z</time>
      </trkpt>
      <trkpt lat="44.31586" lon="5.82493">
        <ele>567</ele>
        <time>2019-03-16T15:48:52Z</time>
      </trkpt>
      <trkpt lat="44.31585" lon="5.8249">
        <ele>567</ele>
        <time>2019-03-16T15:48:57Z</time>
      </trkpt>
      <trkpt lat="44.31583" lon="5.8249">
        <ele>567</ele>
        <time>2019-03-16T15:48:58Z</time>
      </trkpt>
      <trkpt lat="44.31582" lon="5.82489">
        <ele>567</ele>
        <time>2019-03-16T15:48:59Z</time>
      </trkpt>
      <trkpt lat="44.3158" lon="5.8249">
        <ele>567</ele>
        <time>2019-03-16T15:49:00Z</time>
      </trkpt>
      <trkpt lat="44.31579" lon="5.8249">
        <ele>567</ele>
        <time>2019-03-16T15:49:01Z</time>
      </trkpt>
      <trkpt lat="44.31578" lon="5.82491">
        <ele>567</ele>
        <time>2019-03-16T15:49:02Z</time>
      </trkpt>
      <trkpt lat="44.31576" lon="5.82492">
        <ele>567</ele>
        <time>2019-03-16T15:49:03Z</time>
      </trkpt>
      <trkpt lat="44.31575" lon="5.82492">
        <ele>567</ele>
        <time>2019-03-16T15:49:04Z</time>
      </trkpt>
      <trkpt lat="44.31573" lon="5.82491">
        <ele>567</ele>
        <time>2019-03-16T15:49:05Z</time>
      </trkpt>
      <trkpt lat="44.31572" lon="5.82489">
        <ele>567</ele>
        <time>2019-03-16T15:49:06Z</time>
      </trkpt>
      <trkpt lat="44.31571" lon="5.82488">
        <ele>567</ele>
        <time>2019-03-16T15:49:07Z</time>
      </trkpt>
      <trkpt lat="44.3157" lon="5.82486">
        <ele>567</ele>
        <time>2019-03-16T15:49:08Z</time>
      </trkpt>
      <trkpt lat="44.31567" lon="5.82484">
        <ele>567</ele>
        <time>2019-03-16T15:49:09Z</time>
      </trkpt>
      <trkpt lat="44.31565" lon="5.82482">
        <ele>567</ele>
        <time>2019-03-16T15:49:10Z</time>
      </trkpt>
      <trkpt lat="44.31563" lon="5.8248">
        <ele>567</ele>
        <time>2019-03-16T15:49:11Z</time>
      </trkpt>
      <trkpt lat="44.31561" lon="5.82478">
        <ele>567</ele>
        <time>2019-03-16T15:49:12Z</time>
      </trkpt>
      <trkpt lat="44.31559" lon="5.82476">
        <ele>567</ele>
        <time>2019-03-16T15:49:13Z</time>
      </trkpt>
      <trkpt lat="44.31556" lon="5.82473">
        <ele>567</ele>
        <time>2019-03-16T15:49:14Z</time>
      </trkpt>
      <trkpt lat="44.31553" lon="5.8247">
        <ele>567</ele>
        <time>2019-03-16T15:49:15Z</time>
      </trkpt>
      <trkpt lat="44.3155" lon="5.82468">
        <ele>567</ele>
        <time>2019-03-16T15:49:16Z</time>
      </trkpt>
      <trkpt lat="44.31548" lon="5.82465">
        <ele>567</ele>
        <time>2019-03-16T15:49:17Z</time>
      </trkpt>
      <trkpt lat="44.31545" lon="5.82462">
        <ele>567</ele>
        <time>2019-03-16T15:49:18Z</time>
      </trkpt>
      <trkpt lat="44.31542" lon="5.8246">
        <ele>567</ele>
        <time>2019-03-16T15:49:19Z</time>
      </trkpt>
      <trkpt lat="44.31539" lon="5.82457">
        <ele>566</ele>
        <time>2019-03-16T15:49:20Z</time>
      </trkpt>
      <trkpt lat="44.31537" lon="5.82454">
        <ele>566</ele>
        <time>2019-03-16T15:49:21Z</time>
      </trkpt>
      <trkpt lat="44.31534" lon="5.82452">
        <ele>566</ele>
        <time>2019-03-16T15:49:22Z</time>
      </trkpt>
      <trkpt lat="44.31531" lon="5.8245">
        <ele>566</ele>
        <time>2019-03-16T15:49:23Z</time>
      </trkpt>
      <trkpt lat="44.31528" lon="5.82447">
        <ele>565</ele>
        <time>2019-03-16T15:49:24Z</time>
      </trkpt>
      <trkpt lat="44.31525" lon="5.82444">
        <ele>565</ele>
        <time>2019-03-16T15:49:25Z</time>
      </trkpt>
      <trkpt lat="44.31523" lon="5.82442">
        <ele>565</ele>
        <time>2019-03-16T15:49:26Z</time>
      </trkpt>
      <trkpt lat="44.3152" lon="5.82439">
        <ele>565</ele>
        <time>2019-03-16T15:49:27Z</time>
      </trkpt>
      <trkpt lat="44.31517" lon="5.82436">
        <ele>565</ele>
        <time>2019-03-16T15:49:28Z</time>
      </trkpt>
      <trkpt lat="44.31514" lon="5.82434">
        <ele>565</ele>
        <time>2019-03-16T15:49:29Z</time>
      </trkpt>
      <trkpt lat="44.31511" lon="5.82431">
        <ele>565</ele>
        <time>2019-03-16T15:49:30Z</time>
      </trkpt>
      <trkpt lat="44.31508" lon="5.82428">
        <ele>565</ele>
        <time>2019-03-16T15:49:31Z</time>
      </trkpt>
      <trkpt lat="44.31505" lon="5.82425">
        <ele>565</ele>
        <time>2019-03-16T15:49:32Z</time>
      </trkpt>
      <trkpt lat="44.31502" lon="5.82422">
        <ele>565</ele>
        <time>2019-03-16T15:49:33Z</time>
      </trkpt>
      <trkpt lat="44.31499" lon="5.8242">
        <ele>565</ele>
        <time>2019-03-16T15:49:34Z</time>
      </trkpt>
      <trkpt lat="44.31496" lon="5.82417">
        <ele>565</ele>
        <time>2019-03-16T15:49:35Z</time>
      </trkpt>
      <trkpt lat="44.31493" lon="5.82416">
        <ele>565</ele>
        <time>2019-03-16T15:49:36Z</time>
      </trkpt>
      <trkpt lat="44.31488" lon="5.8241">
        <ele>565</ele>
        <time>2019-03-16T15:49:38Z</time>
      </trkpt>
      <trkpt lat="44.31485" lon="5.82408">
        <ele>565</ele>
        <time>2019-03-16T15:49:39Z</time>
      </trkpt>
      <trkpt lat="44.31483" lon="5.82406">
        <ele>565</ele>
        <time>2019-03-16T15:49:40Z</time>
      </trkpt>
      <trkpt lat="44.31481" lon="5.82403">
        <ele>565</ele>
        <time>2019-03-16T15:49:41Z</time>
      </trkpt>
      <trkpt lat="44.31478" lon="5.82401">
        <ele>565</ele>
        <time>2019-03-16T15:49:42Z</time>
      </trkpt>
      <trkpt lat="44.31475" lon="5.82399">
        <ele>566</ele>
        <time>2019-03-16T15:49:43Z</time>
      </trkpt>
      <trkpt lat="44.31473" lon="5.82396">
        <ele>566</ele>
        <time>2019-03-16T15:49:44Z</time>
      </trkpt>
      <trkpt lat="44.3147" lon="5.82394">
        <ele>566</ele>
        <time>2019-03-16T15:49:45Z</time>
      </trkpt>
      <trkpt lat="44.31469" lon="5.82391">
        <ele>567</ele>
        <time>2019-03-16T15:49:46Z</time>
      </trkpt>
      <trkpt lat="44.31467" lon="5.82388">
        <ele>567</ele>
        <time>2019-03-16T15:49:47Z</time>
      </trkpt>
      <trkpt lat="44.31465" lon="5.82385">
        <ele>568</ele>
        <time>2019-03-16T15:49:48Z</time>
      </trkpt>
      <trkpt lat="44.31463" lon="5.82382">
        <ele>569</ele>
        <time>2019-03-16T15:49:49Z</time>
      </trkpt>
      <trkpt lat="44.31461" lon="5.8238">
        <ele>569</ele>
        <time>2019-03-16T15:49:50Z</time>
      </trkpt>
      <trkpt lat="44.31459" lon="5.82378">
        <ele>570</ele>
        <time>2019-03-16T15:49:51Z</time>
      </trkpt>
      <trkpt lat="44.31456" lon="5.82376">
        <ele>571</ele>
        <time>2019-03-16T15:49:52Z</time>
      </trkpt>
      <trkpt lat="44.31454" lon="5.82374">
        <ele>571</ele>
        <time>2019-03-16T15:49:53Z</time>
      </trkpt>
      <trkpt lat="44.31452" lon="5.82372">
        <ele>571</ele>
        <time>2019-03-16T15:49:54Z</time>
      </trkpt>
      <trkpt lat="44.3145" lon="5.8237">
        <ele>571</ele>
        <time>2019-03-16T15:49:55Z</time>
      </trkpt>
      <trkpt lat="44.31448" lon="5.82369">
        <ele>571</ele>
        <time>2019-03-16T15:49:56Z</time>
      </trkpt>
      <trkpt lat="44.31446" lon="5.82368">
        <ele>571</ele>
        <time>2019-03-16T15:49:57Z</time>
      </trkpt>
      <trkpt lat="44.31445" lon="5.82366">
        <ele>571</ele>
        <time>2019-03-16T15:49:58Z</time>
      </trkpt>
      <trkpt lat="44.31445" lon="5.82365">
        <ele>571</ele>
        <time>2019-03-16T15:50:00Z</time>
      </trkpt>
      <trkpt lat="44.31446" lon="5.82364">
        <ele>571</ele>
        <time>2019-03-16T15:50:01Z</time>
      </trkpt>
      <trkpt lat="44.31446" lon="5.82365">
        <ele>573</ele>
        <time>2019-03-16T15:50:04Z</time>
      </trkpt>
      <trkpt lat="44.31445" lon="5.82366">
        <ele>576</ele>
        <time>2019-03-16T15:50:07Z</time>
      </trkpt>
      <trkpt lat="44.31443" lon="5.82368">
        <ele>578</ele>
        <time>2019-03-16T15:50:11Z</time>
      </trkpt>
      <trkpt lat="44.31441" lon="5.82369">
        <ele>579</ele>
        <time>2019-03-16T15:50:16Z</time>
      </trkpt>
      <trkpt lat="44.31441" lon="5.82371">
        <ele>579</ele>
        <time>2019-03-16T15:50:17Z</time>
      </trkpt>
      <trkpt lat="44.31441" lon="5.82373">
        <ele>579</ele>
        <time>2019-03-16T15:50:18Z</time>
      </trkpt>
      <trkpt lat="44.31443" lon="5.82375">
        <ele>579</ele>
        <time>2019-03-16T15:50:19Z</time>
      </trkpt>
      <trkpt lat="44.31443" lon="5.82378">
        <ele>579</ele>
        <time>2019-03-16T15:50:20Z</time>
      </trkpt>
      <trkpt lat="44.31444" lon="5.82381">
        <ele>579</ele>
        <time>2019-03-16T15:50:21Z</time>
      </trkpt>
      <trkpt lat="44.31444" lon="5.82385">
        <ele>579</ele>
        <time>2019-03-16T15:50:22Z</time>
      </trkpt>
      <trkpt lat="44.31445" lon="5.82389">
        <ele>579</ele>
        <time>2019-03-16T15:50:23Z</time>
      </trkpt>
      <trkpt lat="44.31446" lon="5.82394">
        <ele>579</ele>
        <time>2019-03-16T15:50:24Z</time>
      </trkpt>
      <trkpt lat="44.31446" lon="5.824">
        <ele>579</ele>
        <time>2019-03-16T15:50:25Z</time>
      </trkpt>
      <trkpt lat="44.31445" lon="5.82406">
        <ele>579</ele>
        <time>2019-03-16T15:50:26Z</time>
      </trkpt>
      <trkpt lat="44.31445" lon="5.82412">
        <ele>579</ele>
        <time>2019-03-16T15:50:27Z</time>
      </trkpt>
      <trkpt lat="44.31444" lon="5.82418">
        <ele>579</ele>
        <time>2019-03-16T15:50:28Z</time>
      </trkpt>
      <trkpt lat="44.31444" lon="5.82425">
        <ele>579</ele>
        <time>2019-03-16T15:50:29Z</time>
      </trkpt>
      <trkpt lat="44.31443" lon="5.82431">
        <ele>579</ele>
        <time>2019-03-16T15:50:30Z</time>
      </trkpt>
      <trkpt lat="44.31442" lon="5.82437">
        <ele>579</ele>
        <time>2019-03-16T15:50:31Z</time>
      </trkpt>
      <trkpt lat="44.31441" lon="5.82444">
        <ele>579</ele>
        <time>2019-03-16T15:50:32Z</time>
      </trkpt>
      <trkpt lat="44.3144" lon="5.82449">
        <ele>579</ele>
        <time>2019-03-16T15:50:33Z</time>
      </trkpt>
      <trkpt lat="44.31438" lon="5.82455">
        <ele>579</ele>
        <time>2019-03-16T15:50:34Z</time>
      </trkpt>
      <trkpt lat="44.31437" lon="5.8246">
        <ele>579</ele>
        <time>2019-03-16T15:50:35Z</time>
      </trkpt>
      <trkpt lat="44.31435" lon="5.82467">
        <ele>579</ele>
        <time>2019-03-16T15:50:36Z</time>
      </trkpt>
      <trkpt lat="44.31433" lon="5.82473">
        <ele>579</ele>
        <time>2019-03-16T15:50:37Z</time>
      </trkpt>
      <trkpt lat="44.31432" lon="5.82478">
        <ele>578</ele>
        <time>2019-03-16T15:50:38Z</time>
      </trkpt>
      <trkpt lat="44.3143" lon="5.82484">
        <ele>578</ele>
        <time>2019-03-16T15:50:39Z</time>
      </trkpt>
      <trkpt lat="44.31429" lon="5.8249">
        <ele>578</ele>
        <time>2019-03-16T15:50:40Z</time>
      </trkpt>
      <trkpt lat="44.31427" lon="5.82496">
        <ele>578</ele>
        <time>2019-03-16T15:50:41Z</time>
      </trkpt>
      <trkpt lat="44.31425" lon="5.82503">
        <ele>577</ele>
        <time>2019-03-16T15:50:42Z</time>
      </trkpt>
      <trkpt lat="44.31424" lon="5.82509">
        <ele>577</ele>
        <time>2019-03-16T15:50:43Z</time>
      </trkpt>
      <trkpt lat="44.31422" lon="5.82515">
        <ele>577</ele>
        <time>2019-03-16T15:50:44Z</time>
      </trkpt>
      <trkpt lat="44.31421" lon="5.82522">
        <ele>576</ele>
        <time>2019-03-16T15:50:45Z</time>
      </trkpt>
      <trkpt lat="44.31419" lon="5.82529">
        <ele>576</ele>
        <time>2019-03-16T15:50:46Z</time>
      </trkpt>
      <trkpt lat="44.31417" lon="5.82537">
        <ele>576</ele>
        <time>2019-03-16T15:50:47Z</time>
      </trkpt>
      <trkpt lat="44.31416" lon="5.82544">
        <ele>576</ele>
        <time>2019-03-16T15:50:48Z</time>
      </trkpt>
      <trkpt lat="44.31414" lon="5.82551">
        <ele>576</ele>
        <time>2019-03-16T15:50:49Z</time>
      </trkpt>
      <trkpt lat="44.31414" lon="5.82559">
        <ele>576</ele>
        <time>2019-03-16T15:50:50Z</time>
      </trkpt>
      <trkpt lat="44.31411" lon="5.82566">
        <ele>576</ele>
        <time>2019-03-16T15:50:51Z</time>
      </trkpt>
      <trkpt lat="44.31409" lon="5.82574">
        <ele>576</ele>
        <time>2019-03-16T15:50:52Z</time>
      </trkpt>
      <trkpt lat="44.31408" lon="5.82581">
        <ele>575</ele>
        <time>2019-03-16T15:50:53Z</time>
      </trkpt>
      <trkpt lat="44.31407" lon="5.82588">
        <ele>575</ele>
        <time>2019-03-16T15:50:54Z</time>
      </trkpt>
      <trkpt lat="44.31405" lon="5.82595">
        <ele>575</ele>
        <time>2019-03-16T15:50:55Z</time>
      </trkpt>
      <trkpt lat="44.31404" lon="5.82602">
        <ele>575</ele>
        <time>2019-03-16T15:50:56Z</time>
      </trkpt>
      <trkpt lat="44.31402" lon="5.82608">
        <ele>574</ele>
        <time>2019-03-16T15:50:57Z</time>
      </trkpt>
      <trkpt lat="44.31401" lon="5.82615">
        <ele>574</ele>
        <time>2019-03-16T15:50:58Z</time>
      </trkpt>
      <trkpt lat="44.31399" lon="5.82621">
        <ele>574</ele>
        <time>2019-03-16T15:50:59Z</time>
      </trkpt>
      <trkpt lat="44.31397" lon="5.82628">
        <ele>573</ele>
        <time>2019-03-16T15:51:00Z</time>
      </trkpt>
      <trkpt lat="44.31395" lon="5.82634">
        <ele>573</ele>
        <time>2019-03-16T15:51:01Z</time>
      </trkpt>
      <trkpt lat="44.31392" lon="5.8264">
        <ele>573</ele>
        <time>2019-03-16T15:51:02Z</time>
      </trkpt>
      <trkpt lat="44.31389" lon="5.82646">
        <ele>572</ele>
        <time>2019-03-16T15:51:03Z</time>
      </trkpt>
      <trkpt lat="44.31385" lon="5.82652">
        <ele>571</ele>
        <time>2019-03-16T15:51:04Z</time>
      </trkpt>
      <trkpt lat="44.31382" lon="5.82658">
        <ele>571</ele>
        <time>2019-03-16T15:51:05Z</time>
      </trkpt>
      <trkpt lat="44.31379" lon="5.82664">
        <ele>570</ele>
        <time>2019-03-16T15:51:06Z</time>
      </trkpt>
      <trkpt lat="44.31376" lon="5.8267">
        <ele>570</ele>
        <time>2019-03-16T15:51:07Z</time>
      </trkpt>
      <trkpt lat="44.31373" lon="5.82675">
        <ele>569</ele>
        <time>2019-03-16T15:51:08Z</time>
      </trkpt>
      <trkpt lat="44.31369" lon="5.8268">
        <ele>569</ele>
        <time>2019-03-16T15:51:09Z</time>
      </trkpt>
      <trkpt lat="44.31365" lon="5.82685">
        <ele>569</ele>
        <time>2019-03-16T15:51:10Z</time>
      </trkpt>
      <trkpt lat="44.31362" lon="5.8269">
        <ele>569</ele>
        <time>2019-03-16T15:51:11Z</time>
      </trkpt>
      <trkpt lat="44.31362" lon="5.82696">
        <ele>568</ele>
        <time>2019-03-16T15:51:12Z</time>
      </trkpt>
      <trkpt lat="44.31363" lon="5.82702">
        <ele>568</ele>
        <time>2019-03-16T15:51:13Z</time>
      </trkpt>
      <trkpt lat="44.31366" lon="5.82707">
        <ele>567</ele>
        <time>2019-03-16T15:51:14Z</time>
      </trkpt>
      <trkpt lat="44.31369" lon="5.82712">
        <ele>567</ele>
        <time>2019-03-16T15:51:15Z</time>
      </trkpt>
      <trkpt lat="44.31372" lon="5.82718">
        <ele>567</ele>
        <time>2019-03-16T15:51:16Z</time>
      </trkpt>
      <trkpt lat="44.31374" lon="5.82725">
        <ele>566</ele>
        <time>2019-03-16T15:51:17Z</time>
      </trkpt>
      <trkpt lat="44.31375" lon="5.82733">
        <ele>566</ele>
        <time>2019-03-16T15:51:18Z</time>
      </trkpt>
      <trkpt lat="44.31375" lon="5.82741">
        <ele>566</ele>
        <time>2019-03-16T15:51:19Z</time>
      </trkpt>
      <trkpt lat="44.31375" lon="5.82749">
        <ele>566</ele>
        <time>2019-03-16T15:51:20Z</time>
      </trkpt>
      <trkpt lat="44.31375" lon="5.82757">
        <ele>566</ele>
        <time>2019-03-16T15:51:21Z</time>
      </trkpt>
      <trkpt lat="44.31375" lon="5.82765">
        <ele>566</ele>
        <time>2019-03-16T15:51:22Z</time>
      </trkpt>
      <trkpt lat="44.31376" lon="5.82773">
        <ele>566</ele>
        <time>2019-03-16T15:51:23Z</time>
      </trkpt>
      <trkpt lat="44.31376" lon="5.82781">
        <ele>566</ele>
        <time>2019-03-16T15:51:24Z</time>
      </trkpt>
      <trkpt lat="44.31376" lon="5.82789">
        <ele>566</ele>
        <time>2019-03-16T15:51:25Z</time>
      </trkpt>
      <trkpt lat="44.31376" lon="5.82796">
        <ele>566</ele>
        <time>2019-03-16T15:51:26Z</time>
      </trkpt>
      <trkpt lat="44.31375" lon="5.82804">
        <ele>566</ele>
        <time>2019-03-16T15:51:27Z</time>
      </trkpt>
      <trkpt lat="44.31374" lon="5.82812">
        <ele>566</ele>
        <time>2019-03-16T15:51:28Z</time>
      </trkpt>
      <trkpt lat="44.31373" lon="5.82819">
        <ele>566</ele>
        <time>2019-03-16T15:51:29Z</time>
      </trkpt>
      <trkpt lat="44.31373" lon="5.82827">
        <ele>566</ele>
        <time>2019-03-16T15:51:30Z</time>
      </trkpt>
      <trkpt lat="44.31372" lon="5.82834">
        <ele>566</ele>
        <time>2019-03-16T15:51:31Z</time>
      </trkpt>
      <trkpt lat="44.31371" lon="5.82842">
        <ele>566</ele>
        <time>2019-03-16T15:51:32Z</time>
      </trkpt>
      <trkpt lat="44.31371" lon="5.8285">
        <ele>566</ele>
        <time>2019-03-16T15:51:33Z</time>
      </trkpt>
      <trkpt lat="44.3137" lon="5.82857">
        <ele>566</ele>
        <time>2019-03-16T15:51:34Z</time>
      </trkpt>
      <trkpt lat="44.3137" lon="5.82865">
        <ele>566</ele>
        <time>2019-03-16T15:51:35Z</time>
      </trkpt>
      <trkpt lat="44.31369" lon="5.82872">
        <ele>566</ele>
        <time>2019-03-16T15:51:36Z</time>
      </trkpt>
      <trkpt lat="44.31369" lon="5.8288">
        <ele>566</ele>
        <time>2019-03-16T15:51:37Z</time>
      </trkpt>
      <trkpt lat="44.31368" lon="5.82888">
        <ele>566</ele>
        <time>2019-03-16T15:51:38Z</time>
      </trkpt>
      <trkpt lat="44.31367" lon="5.82896">
        <ele>566</ele>
        <time>2019-03-16T15:51:39Z</time>
      </trkpt>
      <trkpt lat="44.31367" lon="5.82903">
        <ele>566</ele>
        <time>2019-03-16T15:51:40Z</time>
      </trkpt>
      <trkpt lat="44.31366" lon="5.82911">
        <ele>566</ele>
        <time>2019-03-16T15:51:41Z</time>
      </trkpt>
      <trkpt lat="44.31364" lon="5.82919">
        <ele>566</ele>
        <time>2019-03-16T15:51:42Z</time>
      </trkpt>
      <trkpt lat="44.31363" lon="5.82926">
        <ele>566</ele>
        <time>2019-03-16T15:51:43Z</time>
      </trkpt>
      <trkpt lat="44.31362" lon="5.82934">
        <ele>566</ele>
        <time>2019-03-16T15:51:44Z</time>
      </trkpt>
      <trkpt lat="44.31361" lon="5.82941">
        <ele>566</ele>
        <time>2019-03-16T15:51:45Z</time>
      </trkpt>
      <trkpt lat="44.31361" lon="5.82949">
        <ele>566</ele>
        <time>2019-03-16T15:51:46Z</time>
      </trkpt>
      <trkpt lat="44.3136" lon="5.82956">
        <ele>566</ele>
        <time>2019-03-16T15:51:47Z</time>
      </trkpt>
      <trkpt lat="44.31359" lon="5.82963">
        <ele>566</ele>
        <time>2019-03-16T15:51:48Z</time>
      </trkpt>
      <trkpt lat="44.31358" lon="5.8297">
        <ele>566</ele>
        <time>2019-03-16T15:51:49Z</time>
      </trkpt>
      <trkpt lat="44.31357" lon="5.82977">
        <ele>566</ele>
        <time>2019-03-16T15:51:50Z</time>
      </trkpt>
      <trkpt lat="44.31356" lon="5.82984">
        <ele>566</ele>
        <time>2019-03-16T15:51:51Z</time>
      </trkpt>
      <trkpt lat="44.31355" lon="5.82991">
        <ele>566</ele>
        <time>2019-03-16T15:51:52Z</time>
      </trkpt>
      <trkpt lat="44.31354" lon="5.82998">
        <ele>566</ele>
        <time>2019-03-16T15:51:53Z</time>
      </trkpt>
      <trkpt lat="44.31353" lon="5.83004">
        <ele>566</ele>
        <time>2019-03-16T15:51:54Z</time>
      </trkpt>
      <trkpt lat="44.31353" lon="5.83011">
        <ele>566</ele>
        <time>2019-03-16T15:51:55Z</time>
      </trkpt>
      <trkpt lat="44.31351" lon="5.83017">
        <ele>566</ele>
        <time>2019-03-16T15:51:56Z</time>
      </trkpt>
      <trkpt lat="44.3135" lon="5.83024">
        <ele>566</ele>
        <time>2019-03-16T15:51:57Z</time>
      </trkpt>
      <trkpt lat="44.31349" lon="5.8303">
        <ele>566</ele>
        <time>2019-03-16T15:51:58Z</time>
      </trkpt>
      <trkpt lat="44.31348" lon="5.83037">
        <ele>566</ele>
        <time>2019-03-16T15:51:59Z</time>
      </trkpt>
      <trkpt lat="44.31347" lon="5.83043">
        <ele>566</ele>
        <time>2019-03-16T15:52:00Z</time>
      </trkpt>
      <trkpt lat="44.31346" lon="5.8305">
        <ele>566</ele>
        <time>2019-03-16T15:52:01Z</time>
      </trkpt>
      <trkpt lat="44.31345" lon="5.83056">
        <ele>566</ele>
        <time>2019-03-16T15:52:02Z</time>
      </trkpt>
      <trkpt lat="44.31343" lon="5.83063">
        <ele>566</ele>
        <time>2019-03-16T15:52:03Z</time>
      </trkpt>
      <trkpt lat="44.31343" lon="5.8307">
        <ele>566</ele>
        <time>2019-03-16T15:52:04Z</time>
      </trkpt>
      <trkpt lat="44.31343" lon="5.83076">
        <ele>566</ele>
        <time>2019-03-16T15:52:05Z</time>
      </trkpt>
      <trkpt lat="44.31343" lon="5.83083">
        <ele>566</ele>
        <time>2019-03-16T15:52:06Z</time>
      </trkpt>
      <trkpt lat="44.31342" lon="5.83089">
        <ele>566</ele>
        <time>2019-03-16T15:52:07Z</time>
      </trkpt>
      <trkpt lat="44.31343" lon="5.83095">
        <ele>566</ele>
        <time>2019-03-16T15:52:08Z</time>
      </trkpt>
      <trkpt lat="44.31344" lon="5.83101">
        <ele>566</ele>
        <time>2019-03-16T15:52:09Z</time>
      </trkpt>
      <trkpt lat="44.31346" lon="5.83104">
        <ele>566</ele>
        <time>2019-03-16T15:52:10Z</time>
      </trkpt>
      <trkpt lat="44.31349" lon="5.83105">
        <ele>566</ele>
        <time>2019-03-16T15:52:11Z</time>
      </trkpt>
      <trkpt lat="44.31352" lon="5.83104">
        <ele>566</ele>
        <time>2019-03-16T15:52:12Z</time>
      </trkpt>
      <trkpt lat="44.31355" lon="5.831">
        <ele>566</ele>
        <time>2019-03-16T15:52:13Z</time>
      </trkpt>
      <trkpt lat="44.31358" lon="5.83095">
        <ele>566</ele>
        <time>2019-03-16T15:52:14Z</time>
      </trkpt>
      <trkpt lat="44.31361" lon="5.83089">
        <ele>566</ele>
        <time>2019-03-16T15:52:15Z</time>
      </trkpt>
      <trkpt lat="44.31363" lon="5.83083">
        <ele>566</ele>
        <time>2019-03-16T15:52:16Z</time>
      </trkpt>
      <trkpt lat="44.31365" lon="5.83078">
        <ele>566</ele>
        <time>2019-03-16T15:52:17Z</time>
      </trkpt>
      <trkpt lat="44.31368" lon="5.83073">
        <ele>566</ele>
        <time>2019-03-16T15:52:18Z</time>
      </trkpt>
      <trkpt lat="44.31371" lon="5.83068">
        <ele>566</ele>
        <time>2019-03-16T15:52:19Z</time>
      </trkpt>
      <trkpt lat="44.31373" lon="5.83064">
        <ele>566</ele>
        <time>2019-03-16T15:52:20Z</time>
      </trkpt>
      <trkpt lat="44.31376" lon="5.8306">
        <ele>566</ele>
        <time>2019-03-16T15:52:21Z</time>
      </trkpt>
      <trkpt lat="44.31378" lon="5.83055">
        <ele>566</ele>
        <time>2019-03-16T15:52:22Z</time>
      </trkpt>
      <trkpt lat="44.31381" lon="5.8305">
        <ele>566</ele>
        <time>2019-03-16T15:52:23Z</time>
      </trkpt>
      <trkpt lat="44.31384" lon="5.83046">
        <ele>566</ele>
        <time>2019-03-16T15:52:24Z</time>
      </trkpt>
      <trkpt lat="44.31387" lon="5.83041">
        <ele>566</ele>
        <time>2019-03-16T15:52:25Z</time>
      </trkpt>
      <trkpt lat="44.3139" lon="5.83036">
        <ele>566</ele>
        <time>2019-03-16T15:52:26Z</time>
      </trkpt>
      <trkpt lat="44.31394" lon="5.83031">
        <ele>566</ele>
        <time>2019-03-16T15:52:27Z</time>
      </trkpt>
      <trkpt lat="44.31398" lon="5.83026">
        <ele>566</ele>
        <time>2019-03-16T15:52:28Z</time>
      </trkpt>
      <trkpt lat="44.31401" lon="5.8302">
        <ele>566</ele>
        <time>2019-03-16T15:52:29Z</time>
      </trkpt>
      <trkpt lat="44.31406" lon="5.83014">
        <ele>566</ele>
        <time>2019-03-16T15:52:30Z</time>
      </trkpt>
      <trkpt lat="44.31409" lon="5.83008">
        <ele>566</ele>
        <time>2019-03-16T15:52:31Z</time>
      </trkpt>
      <trkpt lat="44.31413" lon="5.83002">
        <ele>566</ele>
        <time>2019-03-16T15:52:32Z</time>
      </trkpt>
      <trkpt lat="44.31416" lon="5.82996">
        <ele>566</ele>
        <time>2019-03-16T15:52:33Z</time>
      </trkpt>
      <trkpt lat="44.3142" lon="5.8299">
        <ele>566</ele>
        <time>2019-03-16T15:52:34Z</time>
      </trkpt>
      <trkpt lat="44.31424" lon="5.82985">
        <ele>566</ele>
        <time>2019-03-16T15:52:35Z</time>
      </trkpt>
      <trkpt lat="44.31428" lon="5.82979">
        <ele>566</ele>
        <time>2019-03-16T15:52:36Z</time>
      </trkpt>
      <trkpt lat="44.31432" lon="5.82973">
        <ele>566</ele>
        <time>2019-03-16T15:52:37Z</time>
      </trkpt>
      <trkpt lat="44.31435" lon="5.82968">
        <ele>566</ele>
        <time>2019-03-16T15:52:38Z</time>
      </trkpt>
      <trkpt lat="44.31439" lon="5.82962">
        <ele>566</ele>
        <time>2019-03-16T15:52:39Z</time>
      </trkpt>
      <trkpt lat="44.31443" lon="5.82957">
        <ele>566</ele>
        <time>2019-03-16T15:52:40Z</time>
      </trkpt>
      <trkpt lat="44.31447" lon="5.82952">
        <ele>566</ele>
        <time>2019-03-16T15:52:41Z</time>
      </trkpt>
      <trkpt lat="44.31451" lon="5.82946">
        <ele>566</ele>
        <time>2019-03-16T15:52:42Z</time>
      </trkpt>
      <trkpt lat="44.31455" lon="5.82941">
        <ele>566</ele>
        <time>2019-03-16T15:52:43Z</time>
      </trkpt>
      <trkpt lat="44.31459" lon="5.82936">
        <ele>566</ele>
        <time>2019-03-16T15:52:44Z</time>
      </trkpt>
      <trkpt lat="44.31462" lon="5.82931">
        <ele>566</ele>
        <time>2019-03-16T15:52:45Z</time>
      </trkpt>
      <trkpt lat="44.31466" lon="5.82926">
        <ele>566</ele>
        <time>2019-03-16T15:52:46Z</time>
      </trkpt>
      <trkpt lat="44.31469" lon="5.82921">
        <ele>566</ele>
        <time>2019-03-16T15:52:47Z</time>
      </trkpt>
      <trkpt lat="44.31472" lon="5.82916">
        <ele>566</ele>
        <time>2019-03-16T15:52:48Z</time>
      </trkpt>
      <trkpt lat="44.31475" lon="5.82911">
        <ele>566</ele>
        <time>2019-03-16T15:52:49Z</time>
      </trkpt>
      <trkpt lat="44.31479" lon="5.82906">
        <ele>566</ele>
        <time>2019-03-16T15:52:50Z</time>
      </trkpt>
      <trkpt lat="44.31482" lon="5.82901">
        <ele>566</ele>
        <time>2019-03-16T15:52:51Z</time>
      </trkpt>
      <trkpt lat="44.31485" lon="5.82896">
        <ele>566</ele>
        <time>2019-03-16T15:52:52Z</time>
      </trkpt>
      <trkpt lat="44.31488" lon="5.82891">
        <ele>566</ele>
        <time>2019-03-16T15:52:53Z</time>
      </trkpt>
      <trkpt lat="44.3149" lon="5.82886">
        <ele>566</ele>
        <time>2019-03-16T15:52:54Z</time>
      </trkpt>
      <trkpt lat="44.31494" lon="5.82881">
        <ele>566</ele>
        <time>2019-03-16T15:52:55Z</time>
      </trkpt>
      <trkpt lat="44.31497" lon="5.82878">
        <ele>566</ele>
        <time>2019-03-16T15:52:56Z</time>
      </trkpt>
      <trkpt lat="44.31501" lon="5.82875">
        <ele>566</ele>
        <time>2019-03-16T15:52:57Z</time>
      </trkpt>
      <trkpt lat="44.31506" lon="5.82873">
        <ele>566</ele>
        <time>2019-03-16T15:52:58Z</time>
      </trkpt>
      <trkpt lat="44.31509" lon="5.82873">
        <ele>566</ele>
        <time>2019-03-16T15:52:59Z</time>
      </trkpt>
      <trkpt lat="44.31513" lon="5.82875">
        <ele>566</ele>
        <time>2019-03-16T15:53:00Z</time>
      </trkpt>
      <trkpt lat="44.31516" lon="5.82878">
        <ele>566</ele>
        <time>2019-03-16T15:53:01Z</time>
      </trkpt>
      <trkpt lat="44.31519" lon="5.82882">
        <ele>566</ele>
        <time>2019-03-16T15:53:02Z</time>
      </trkpt>
      <trkpt lat="44.31522" lon="5.82885">
        <ele>566</ele>
        <time>2019-03-16T15:53:03Z</time>
      </trkpt>
      <trkpt lat="44.31525" lon="5.82889">
        <ele>566</ele>
        <time>2019-03-16T15:53:04Z</time>
      </trkpt>
      <trkpt lat="44.31528" lon="5.82893">
        <ele>566</ele>
        <time>2019-03-16T15:53:05Z</time>
      </trkpt>
      <trkpt lat="44.31531" lon="5.82896">
        <ele>566</ele>
        <time>2019-03-16T15:53:06Z</time>
      </trkpt>
      <trkpt lat="44.31534" lon="5.82899">
        <ele>566</ele>
        <time>2019-03-16T15:53:07Z</time>
      </trkpt>
      <trkpt lat="44.31538" lon="5.82902">
        <ele>566</ele>
        <time>2019-03-16T15:53:08Z</time>
      </trkpt>
      <trkpt lat="44.31541" lon="5.82904">
        <ele>566</ele>
        <time>2019-03-16T15:53:09Z</time>
      </trkpt>
      <trkpt lat="44.31544" lon="5.82907">
        <ele>566</ele>
        <time>2019-03-16T15:53:10Z</time>
      </trkpt>
      <trkpt lat="44.31548" lon="5.8291">
        <ele>566</ele>
        <time>2019-03-16T15:53:11Z</time>
      </trkpt>
      <trkpt lat="44.31551" lon="5.82913">
        <ele>566</ele>
        <time>2019-03-16T15:53:12Z</time>
      </trkpt>
      <trkpt lat="44.31554" lon="5.82916">
        <ele>566</ele>
        <time>2019-03-16T15:53:13Z</time>
      </trkpt>
      <trkpt lat="44.31557" lon="5.82918">
        <ele>566</ele>
        <time>2019-03-16T15:53:14Z</time>
      </trkpt>
      <trkpt lat="44.3156" lon="5.8292">
        <ele>566</ele>
        <time>2019-03-16T15:53:15Z</time>
      </trkpt>
      <trkpt lat="44.31564" lon="5.82923">
        <ele>566</ele>
        <time>2019-03-16T15:53:16Z</time>
      </trkpt>
      <trkpt lat="44.31567" lon="5.82925">
        <ele>566</ele>
        <time>2019-03-16T15:53:17Z</time>
      </trkpt>
      <trkpt lat="44.31571" lon="5.82927">
        <ele>566</ele>
        <time>2019-03-16T15:53:18Z</time>
      </trkpt>
      <trkpt lat="44.31575" lon="5.82929">
        <ele>566</ele>
        <time>2019-03-16T15:53:19Z</time>
      </trkpt>
      <trkpt lat="44.31579" lon="5.8293">
        <ele>566</ele>
        <time>2019-03-16T15:53:20Z</time>
      </trkpt>
      <trkpt lat="44.31582" lon="5.82931">
        <ele>566</ele>
        <time>2019-03-16T15:53:21Z</time>
      </trkpt>
      <trkpt lat="44.31585" lon="5.82933">
        <ele>566</ele>
        <time>2019-03-16T15:53:22Z</time>
      </trkpt>
      <trkpt lat="44.31588" lon="5.82935">
        <ele>566</ele>
        <time>2019-03-16T15:53:23Z</time>
      </trkpt>
      <trkpt lat="44.31591" lon="5.82937">
        <ele>566</ele>
        <time>2019-03-16T15:53:24Z</time>
      </trkpt>
      <trkpt lat="44.31593" lon="5.8294">
        <ele>566</ele>
        <time>2019-03-16T15:53:25Z</time>
      </trkpt>
      <trkpt lat="44.31595" lon="5.82942">
        <ele>566</ele>
        <time>2019-03-16T15:53:26Z</time>
      </trkpt>
      <trkpt lat="44.31597" lon="5.82944">
        <ele>566</ele>
        <time>2019-03-16T15:53:27Z</time>
      </trkpt>
      <trkpt lat="44.31599" lon="5.82945">
        <ele>566</ele>
        <time>2019-03-16T15:53:28Z</time>
      </trkpt>
      <trkpt lat="44.31601" lon="5.82946">
        <ele>566</ele>
        <time>2019-03-16T15:53:29Z</time>
      </trkpt>
      <trkpt lat="44.31603" lon="5.82947">
        <ele>566</ele>
        <time>2019-03-16T15:53:30Z</time>
      </trkpt>
      <trkpt lat="44.31605" lon="5.82949">
        <ele>566</ele>
        <time>2019-03-16T15:53:31Z</time>
      </trkpt>
      <trkpt lat="44.31606" lon="5.82951">
        <ele>566</ele>
        <time>2019-03-16T15:53:32Z</time>
      </trkpt>
      <trkpt lat="44.31607" lon="5.82954">
        <ele>566</ele>
        <time>2019-03-16T15:53:33Z</time>
      </trkpt>
      <trkpt lat="44.31607" lon="5.82957">
        <ele>566</ele>
        <time>2019-03-16T15:53:34Z</time>
      </trkpt>
      <trkpt lat="44.31606" lon="5.8296">
        <ele>566</ele>
        <time>2019-03-16T15:53:35Z</time>
      </trkpt>
      <trkpt lat="44.31605" lon="5.82961">
        <ele>566</ele>
        <time>2019-03-16T15:53:36Z</time>
      </trkpt>
      <trkpt lat="44.31604" lon="5.82963">
        <ele>566</ele>
        <time>2019-03-16T15:53:37Z</time>
      </trkpt>
      <trkpt lat="44.31604" lon="5.82965">
        <ele>566</ele>
        <time>2019-03-16T15:53:38Z</time>
      </trkpt>
      <trkpt lat="44.31604" lon="5.82967">
        <ele>566</ele>
        <time>2019-03-16T15:53:39Z</time>
      </trkpt>
      <trkpt lat="44.31605" lon="5.82969">
        <ele>566</ele>
        <time>2019-03-16T15:53:41Z</time>
      </trkpt>
      <trkpt lat="44.31605" lon="5.82971">
        <ele>566</ele>
        <time>2019-03-16T15:53:46Z</time>
      </trkpt>
      <trkpt lat="44.31606" lon="5.8297">
        <ele>567</ele>
        <time>2019-03-16T15:53:49Z</time>
      </trkpt>
      <trkpt lat="44.31606" lon="5.8297">
        <ele>567</ele>
        <time>2019-03-16T15:53:55Z</time>
      </trkpt>
    </trkseg>
  </trk>
</gpx>